<?xml version="1.0" encoding="UTF-8" standalone="no" ?>
<gpx xmlns="http://www.topografix.com/GPX/1/1" xmlns:xsi="http://www.w3.org/2001/XMLSchema-instance" xsi:schemaLocation="http://www.topografix.com/GPX/1/1 http://www.topografix.com/GPX/1/1/gpx.xsd" version="1.1" creator="VisuGPX - https://www.visugpx.com">
  <metadata>
    <name>BTTAlt800-ActivitéTerminée-J06</name>
  </metadata>
  <trk>
    <name><![CDATA[BTTAlt800-ActivitéTerminée-J06_1]]></name>
    <trkseg>
      <trkpt lat="45.84666" lon="4.35243">
        <ele>802.8</ele>
        <time>2025-09-10T06:57:59Z</time>
      </trkpt>
      <trkpt lat="45.84666" lon="4.35244">
        <ele>802.8</ele>
        <time>2025-09-10T06:58:00Z</time>
      </trkpt>
      <trkpt lat="45.84667" lon="4.35246">
        <ele>803</ele>
        <time>2025-09-10T06:58:01Z</time>
      </trkpt>
      <trkpt lat="45.84667" lon="4.35247">
        <ele>803</ele>
        <time>2025-09-10T06:58:02Z</time>
      </trkpt>
      <trkpt lat="45.84667" lon="4.35248">
        <ele>803</ele>
        <time>2025-09-10T06:58:03Z</time>
      </trkpt>
      <trkpt lat="45.84668" lon="4.35249">
        <ele>803</ele>
        <time>2025-09-10T06:58:04Z</time>
      </trkpt>
      <trkpt lat="45.84668" lon="4.35249">
        <ele>802</ele>
        <time>2025-09-10T06:58:05Z</time>
      </trkpt>
      <trkpt lat="45.84667" lon="4.35249">
        <ele>802.8</ele>
        <time>2025-09-10T06:58:06Z</time>
      </trkpt>
      <trkpt lat="45.84667" lon="4.35251">
        <ele>802.8</ele>
        <time>2025-09-10T06:58:15Z</time>
      </trkpt>
      <trkpt lat="45.84667" lon="4.35253">
        <ele>802.8</ele>
        <time>2025-09-10T06:58:16Z</time>
      </trkpt>
      <trkpt lat="45.84667" lon="4.35255">
        <ele>802.8</ele>
        <time>2025-09-10T06:58:17Z</time>
      </trkpt>
      <trkpt lat="45.84668" lon="4.35258">
        <ele>802.4</ele>
        <time>2025-09-10T06:58:18Z</time>
      </trkpt>
      <trkpt lat="45.84669" lon="4.3526">
        <ele>802.4</ele>
        <time>2025-09-10T06:58:19Z</time>
      </trkpt>
      <trkpt lat="45.8467" lon="4.35263">
        <ele>802.4</ele>
        <time>2025-09-10T06:58:20Z</time>
      </trkpt>
      <trkpt lat="45.84671" lon="4.35265">
        <ele>802.4</ele>
        <time>2025-09-10T06:58:21Z</time>
      </trkpt>
      <trkpt lat="45.84672" lon="4.35268">
        <ele>802.4</ele>
        <time>2025-09-10T06:58:22Z</time>
      </trkpt>
      <trkpt lat="45.84673" lon="4.3527">
        <ele>802.4</ele>
        <time>2025-09-10T06:58:23Z</time>
      </trkpt>
      <trkpt lat="45.84673" lon="4.35273">
        <ele>802.4</ele>
        <time>2025-09-10T06:58:24Z</time>
      </trkpt>
      <trkpt lat="45.84674" lon="4.35275">
        <ele>802.4</ele>
        <time>2025-09-10T06:58:25Z</time>
      </trkpt>
      <trkpt lat="45.84675" lon="4.35277">
        <ele>802.4</ele>
        <time>2025-09-10T06:58:26Z</time>
      </trkpt>
      <trkpt lat="45.84676" lon="4.35279">
        <ele>802.4</ele>
        <time>2025-09-10T06:58:27Z</time>
      </trkpt>
      <trkpt lat="45.84677" lon="4.35282">
        <ele>802.4</ele>
        <time>2025-09-10T06:58:28Z</time>
      </trkpt>
      <trkpt lat="45.84677" lon="4.35286">
        <ele>802.4</ele>
        <time>2025-09-10T06:58:29Z</time>
      </trkpt>
      <trkpt lat="45.84677" lon="4.3529">
        <ele>802.4</ele>
        <time>2025-09-10T06:58:30Z</time>
      </trkpt>
      <trkpt lat="45.84678" lon="4.35294">
        <ele>802.4</ele>
        <time>2025-09-10T06:58:31Z</time>
      </trkpt>
      <trkpt lat="45.84679" lon="4.35297">
        <ele>802.4</ele>
        <time>2025-09-10T06:58:32Z</time>
      </trkpt>
      <trkpt lat="45.8468" lon="4.35301">
        <ele>802.4</ele>
        <time>2025-09-10T06:58:33Z</time>
      </trkpt>
      <trkpt lat="45.8468" lon="4.35305">
        <ele>802.4</ele>
        <time>2025-09-10T06:58:34Z</time>
      </trkpt>
      <trkpt lat="45.84681" lon="4.35309">
        <ele>802.4</ele>
        <time>2025-09-10T06:58:35Z</time>
      </trkpt>
      <trkpt lat="45.84682" lon="4.35313">
        <ele>802.4</ele>
        <time>2025-09-10T06:58:36Z</time>
      </trkpt>
      <trkpt lat="45.84684" lon="4.35318">
        <ele>802.4</ele>
        <time>2025-09-10T06:58:37Z</time>
      </trkpt>
      <trkpt lat="45.84685" lon="4.35322">
        <ele>802.4</ele>
        <time>2025-09-10T06:58:38Z</time>
      </trkpt>
      <trkpt lat="45.84687" lon="4.35326">
        <ele>802.4</ele>
        <time>2025-09-10T06:58:39Z</time>
      </trkpt>
      <trkpt lat="45.84688" lon="4.3533">
        <ele>802.4</ele>
        <time>2025-09-10T06:58:40Z</time>
      </trkpt>
      <trkpt lat="45.84691" lon="4.35333">
        <ele>802.4</ele>
        <time>2025-09-10T06:58:41Z</time>
      </trkpt>
      <trkpt lat="45.84693" lon="4.35336">
        <ele>802.4</ele>
        <time>2025-09-10T06:58:42Z</time>
      </trkpt>
      <trkpt lat="45.84697" lon="4.35339">
        <ele>802.4</ele>
        <time>2025-09-10T06:58:43Z</time>
      </trkpt>
      <trkpt lat="45.847" lon="4.35341">
        <ele>803</ele>
        <time>2025-09-10T06:58:44Z</time>
      </trkpt>
      <trkpt lat="45.84704" lon="4.35342">
        <ele>803</ele>
        <time>2025-09-10T06:58:45Z</time>
      </trkpt>
      <trkpt lat="45.84707" lon="4.35343">
        <ele>803</ele>
        <time>2025-09-10T06:58:46Z</time>
      </trkpt>
      <trkpt lat="45.84711" lon="4.35343">
        <ele>803</ele>
        <time>2025-09-10T06:58:47Z</time>
      </trkpt>
      <trkpt lat="45.84714" lon="4.35344">
        <ele>803</ele>
        <time>2025-09-10T06:58:48Z</time>
      </trkpt>
      <trkpt lat="45.84717" lon="4.35345">
        <ele>803.2</ele>
        <time>2025-09-10T06:58:49Z</time>
      </trkpt>
      <trkpt lat="45.84721" lon="4.35345">
        <ele>803.2</ele>
        <time>2025-09-10T06:58:50Z</time>
      </trkpt>
      <trkpt lat="45.84724" lon="4.35346">
        <ele>803.6</ele>
        <time>2025-09-10T06:58:51Z</time>
      </trkpt>
      <trkpt lat="45.84728" lon="4.35346">
        <ele>803.6</ele>
        <time>2025-09-10T06:58:52Z</time>
      </trkpt>
      <trkpt lat="45.84731" lon="4.35347">
        <ele>804</ele>
        <time>2025-09-10T06:58:53Z</time>
      </trkpt>
      <trkpt lat="45.84733" lon="4.35347">
        <ele>804.2</ele>
        <time>2025-09-10T06:58:54Z</time>
      </trkpt>
      <trkpt lat="45.84736" lon="4.35348">
        <ele>804.2</ele>
        <time>2025-09-10T06:58:55Z</time>
      </trkpt>
      <trkpt lat="45.84739" lon="4.35349">
        <ele>804.2</ele>
        <time>2025-09-10T06:58:56Z</time>
      </trkpt>
      <trkpt lat="45.84742" lon="4.3535">
        <ele>804.4</ele>
        <time>2025-09-10T06:58:57Z</time>
      </trkpt>
      <trkpt lat="45.84746" lon="4.35351">
        <ele>804.4</ele>
        <time>2025-09-10T06:58:58Z</time>
      </trkpt>
      <trkpt lat="45.84748" lon="4.35351">
        <ele>804.2</ele>
        <time>2025-09-10T06:58:59Z</time>
      </trkpt>
      <trkpt lat="45.84752" lon="4.35352">
        <ele>804.2</ele>
        <time>2025-09-10T06:59:00Z</time>
      </trkpt>
      <trkpt lat="45.84755" lon="4.35352">
        <ele>804.2</ele>
        <time>2025-09-10T06:59:01Z</time>
      </trkpt>
      <trkpt lat="45.84758" lon="4.35352">
        <ele>804.2</ele>
        <time>2025-09-10T06:59:02Z</time>
      </trkpt>
      <trkpt lat="45.84761" lon="4.35352">
        <ele>804.4</ele>
        <time>2025-09-10T06:59:03Z</time>
      </trkpt>
      <trkpt lat="45.84765" lon="4.35351">
        <ele>804.4</ele>
        <time>2025-09-10T06:59:04Z</time>
      </trkpt>
      <trkpt lat="45.84768" lon="4.3535">
        <ele>804.4</ele>
        <time>2025-09-10T06:59:05Z</time>
      </trkpt>
      <trkpt lat="45.84771" lon="4.35348">
        <ele>804.6</ele>
        <time>2025-09-10T06:59:06Z</time>
      </trkpt>
      <trkpt lat="45.84773" lon="4.35345">
        <ele>804.6</ele>
        <time>2025-09-10T06:59:07Z</time>
      </trkpt>
      <trkpt lat="45.84775" lon="4.35341">
        <ele>805</ele>
        <time>2025-09-10T06:59:08Z</time>
      </trkpt>
      <trkpt lat="45.84777" lon="4.35337">
        <ele>805</ele>
        <time>2025-09-10T06:59:09Z</time>
      </trkpt>
      <trkpt lat="45.84778" lon="4.35333">
        <ele>805.2</ele>
        <time>2025-09-10T06:59:10Z</time>
      </trkpt>
      <trkpt lat="45.84778" lon="4.35329">
        <ele>805.2</ele>
        <time>2025-09-10T06:59:11Z</time>
      </trkpt>
      <trkpt lat="45.84779" lon="4.35325">
        <ele>805.4</ele>
        <time>2025-09-10T06:59:12Z</time>
      </trkpt>
      <trkpt lat="45.84779" lon="4.35321">
        <ele>805.4</ele>
        <time>2025-09-10T06:59:13Z</time>
      </trkpt>
      <trkpt lat="45.84778" lon="4.35317">
        <ele>805.8</ele>
        <time>2025-09-10T06:59:14Z</time>
      </trkpt>
      <trkpt lat="45.84777" lon="4.35313">
        <ele>805.8</ele>
        <time>2025-09-10T06:59:15Z</time>
      </trkpt>
      <trkpt lat="45.84776" lon="4.3531">
        <ele>805.8</ele>
        <time>2025-09-10T06:59:16Z</time>
      </trkpt>
      <trkpt lat="45.84775" lon="4.35306">
        <ele>805.8</ele>
        <time>2025-09-10T06:59:17Z</time>
      </trkpt>
      <trkpt lat="45.84774" lon="4.35303">
        <ele>805.8</ele>
        <time>2025-09-10T06:59:18Z</time>
      </trkpt>
      <trkpt lat="45.84774" lon="4.35299">
        <ele>805.8</ele>
        <time>2025-09-10T06:59:19Z</time>
      </trkpt>
      <trkpt lat="45.84773" lon="4.35296">
        <ele>805.8</ele>
        <time>2025-09-10T06:59:20Z</time>
      </trkpt>
      <trkpt lat="45.84773" lon="4.35293">
        <ele>805.8</ele>
        <time>2025-09-10T06:59:21Z</time>
      </trkpt>
      <trkpt lat="45.84774" lon="4.35289">
        <ele>806</ele>
        <time>2025-09-10T06:59:22Z</time>
      </trkpt>
      <trkpt lat="45.84774" lon="4.35285">
        <ele>806</ele>
        <time>2025-09-10T06:59:23Z</time>
      </trkpt>
      <trkpt lat="45.84773" lon="4.35281">
        <ele>806.4</ele>
        <time>2025-09-10T06:59:24Z</time>
      </trkpt>
      <trkpt lat="45.84772" lon="4.35277">
        <ele>806.4</ele>
        <time>2025-09-10T06:59:25Z</time>
      </trkpt>
      <trkpt lat="45.84772" lon="4.35273">
        <ele>806.4</ele>
        <time>2025-09-10T06:59:26Z</time>
      </trkpt>
      <trkpt lat="45.84772" lon="4.35268">
        <ele>806.6</ele>
        <time>2025-09-10T06:59:27Z</time>
      </trkpt>
      <trkpt lat="45.84773" lon="4.35264">
        <ele>806.6</ele>
        <time>2025-09-10T06:59:28Z</time>
      </trkpt>
      <trkpt lat="45.84775" lon="4.3526">
        <ele>806.6</ele>
        <time>2025-09-10T06:59:29Z</time>
      </trkpt>
      <trkpt lat="45.84778" lon="4.35257">
        <ele>806.6</ele>
        <time>2025-09-10T06:59:30Z</time>
      </trkpt>
      <trkpt lat="45.84782" lon="4.35256">
        <ele>806.6</ele>
        <time>2025-09-10T06:59:31Z</time>
      </trkpt>
      <trkpt lat="45.84785" lon="4.35256">
        <ele>806.6</ele>
        <time>2025-09-10T06:59:32Z</time>
      </trkpt>
      <trkpt lat="45.84789" lon="4.35257">
        <ele>806.8</ele>
        <time>2025-09-10T06:59:33Z</time>
      </trkpt>
      <trkpt lat="45.84792" lon="4.35258">
        <ele>806.8</ele>
        <time>2025-09-10T06:59:34Z</time>
      </trkpt>
      <trkpt lat="45.84795" lon="4.3526">
        <ele>807</ele>
        <time>2025-09-10T06:59:35Z</time>
      </trkpt>
      <trkpt lat="45.84797" lon="4.3526">
        <ele>807.2</ele>
        <time>2025-09-10T06:59:36Z</time>
      </trkpt>
      <trkpt lat="45.848" lon="4.35261">
        <ele>807.2</ele>
        <time>2025-09-10T06:59:37Z</time>
      </trkpt>
      <trkpt lat="45.84803" lon="4.35262">
        <ele>807.2</ele>
        <time>2025-09-10T06:59:38Z</time>
      </trkpt>
      <trkpt lat="45.84806" lon="4.35263">
        <ele>807.2</ele>
        <time>2025-09-10T06:59:39Z</time>
      </trkpt>
      <trkpt lat="45.84809" lon="4.35264">
        <ele>807.6</ele>
        <time>2025-09-10T06:59:40Z</time>
      </trkpt>
      <trkpt lat="45.84811" lon="4.35265">
        <ele>807.6</ele>
        <time>2025-09-10T06:59:41Z</time>
      </trkpt>
      <trkpt lat="45.84814" lon="4.35266">
        <ele>807.6</ele>
        <time>2025-09-10T06:59:42Z</time>
      </trkpt>
      <trkpt lat="45.84817" lon="4.35266">
        <ele>807.6</ele>
        <time>2025-09-10T06:59:43Z</time>
      </trkpt>
      <trkpt lat="45.84821" lon="4.35267">
        <ele>807.6</ele>
        <time>2025-09-10T06:59:44Z</time>
      </trkpt>
      <trkpt lat="45.84824" lon="4.35268">
        <ele>807.6</ele>
        <time>2025-09-10T06:59:45Z</time>
      </trkpt>
      <trkpt lat="45.84827" lon="4.35269">
        <ele>807.6</ele>
        <time>2025-09-10T06:59:46Z</time>
      </trkpt>
      <trkpt lat="45.8483" lon="4.35269">
        <ele>807.6</ele>
        <time>2025-09-10T06:59:47Z</time>
      </trkpt>
      <trkpt lat="45.84833" lon="4.35269">
        <ele>807.6</ele>
        <time>2025-09-10T06:59:48Z</time>
      </trkpt>
      <trkpt lat="45.84837" lon="4.3527">
        <ele>808</ele>
        <time>2025-09-10T06:59:49Z</time>
      </trkpt>
      <trkpt lat="45.8484" lon="4.3527">
        <ele>808</ele>
        <time>2025-09-10T06:59:50Z</time>
      </trkpt>
      <trkpt lat="45.84843" lon="4.35271">
        <ele>808</ele>
        <time>2025-09-10T06:59:51Z</time>
      </trkpt>
      <trkpt lat="45.84846" lon="4.35271">
        <ele>808</ele>
        <time>2025-09-10T06:59:52Z</time>
      </trkpt>
      <trkpt lat="45.84849" lon="4.35271">
        <ele>808</ele>
        <time>2025-09-10T06:59:53Z</time>
      </trkpt>
      <trkpt lat="45.84852" lon="4.35272">
        <ele>808.2</ele>
        <time>2025-09-10T06:59:54Z</time>
      </trkpt>
      <trkpt lat="45.84855" lon="4.35273">
        <ele>808.2</ele>
        <time>2025-09-10T06:59:55Z</time>
      </trkpt>
      <trkpt lat="45.84857" lon="4.35273">
        <ele>808.6</ele>
        <time>2025-09-10T06:59:56Z</time>
      </trkpt>
      <trkpt lat="45.8486" lon="4.35273">
        <ele>808.6</ele>
        <time>2025-09-10T06:59:57Z</time>
      </trkpt>
      <trkpt lat="45.84863" lon="4.35274">
        <ele>808.8</ele>
        <time>2025-09-10T06:59:58Z</time>
      </trkpt>
      <trkpt lat="45.84865" lon="4.35274">
        <ele>808.8</ele>
        <time>2025-09-10T06:59:59Z</time>
      </trkpt>
      <trkpt lat="45.84868" lon="4.35275">
        <ele>807.6</ele>
        <time>2025-09-10T07:00:00Z</time>
      </trkpt>
      <trkpt lat="45.8487" lon="4.35276">
        <ele>808.2</ele>
        <time>2025-09-10T07:00:01Z</time>
      </trkpt>
      <trkpt lat="45.84873" lon="4.35277">
        <ele>808.4</ele>
        <time>2025-09-10T07:00:02Z</time>
      </trkpt>
      <trkpt lat="45.84875" lon="4.35278">
        <ele>808.8</ele>
        <time>2025-09-10T07:00:03Z</time>
      </trkpt>
      <trkpt lat="45.84878" lon="4.35278">
        <ele>808.8</ele>
        <time>2025-09-10T07:00:04Z</time>
      </trkpt>
      <trkpt lat="45.84881" lon="4.35278">
        <ele>809</ele>
        <time>2025-09-10T07:00:05Z</time>
      </trkpt>
      <trkpt lat="45.84885" lon="4.35278">
        <ele>809</ele>
        <time>2025-09-10T07:00:06Z</time>
      </trkpt>
      <trkpt lat="45.84888" lon="4.35279">
        <ele>809.4</ele>
        <time>2025-09-10T07:00:07Z</time>
      </trkpt>
      <trkpt lat="45.84892" lon="4.35279">
        <ele>809.4</ele>
        <time>2025-09-10T07:00:08Z</time>
      </trkpt>
      <trkpt lat="45.84895" lon="4.3528">
        <ele>809.4</ele>
        <time>2025-09-10T07:00:09Z</time>
      </trkpt>
      <trkpt lat="45.849" lon="4.3528">
        <ele>809</ele>
        <time>2025-09-10T07:00:10Z</time>
      </trkpt>
      <trkpt lat="45.84904" lon="4.35281">
        <ele>809</ele>
        <time>2025-09-10T07:00:11Z</time>
      </trkpt>
      <trkpt lat="45.84909" lon="4.35281">
        <ele>809</ele>
        <time>2025-09-10T07:00:12Z</time>
      </trkpt>
      <trkpt lat="45.84914" lon="4.35281">
        <ele>809</ele>
        <time>2025-09-10T07:00:13Z</time>
      </trkpt>
      <trkpt lat="45.8492" lon="4.35283">
        <ele>808.8</ele>
        <time>2025-09-10T07:00:14Z</time>
      </trkpt>
      <trkpt lat="45.84926" lon="4.35285">
        <ele>808.8</ele>
        <time>2025-09-10T07:00:15Z</time>
      </trkpt>
      <trkpt lat="45.84931" lon="4.35288">
        <ele>808.4</ele>
        <time>2025-09-10T07:00:16Z</time>
      </trkpt>
      <trkpt lat="45.84937" lon="4.35291">
        <ele>808</ele>
        <time>2025-09-10T07:00:17Z</time>
      </trkpt>
      <trkpt lat="45.84943" lon="4.35294">
        <ele>808</ele>
        <time>2025-09-10T07:00:18Z</time>
      </trkpt>
      <trkpt lat="45.84948" lon="4.35298">
        <ele>808</ele>
        <time>2025-09-10T07:00:19Z</time>
      </trkpt>
      <trkpt lat="45.84954" lon="4.35301">
        <ele>808</ele>
        <time>2025-09-10T07:00:20Z</time>
      </trkpt>
      <trkpt lat="45.8496" lon="4.35305">
        <ele>808.2</ele>
        <time>2025-09-10T07:00:21Z</time>
      </trkpt>
      <trkpt lat="45.84965" lon="4.35308">
        <ele>808.2</ele>
        <time>2025-09-10T07:00:22Z</time>
      </trkpt>
      <trkpt lat="45.84972" lon="4.35311">
        <ele>808</ele>
        <time>2025-09-10T07:00:23Z</time>
      </trkpt>
      <trkpt lat="45.84976" lon="4.35315">
        <ele>808</ele>
        <time>2025-09-10T07:00:24Z</time>
      </trkpt>
      <trkpt lat="45.84981" lon="4.35318">
        <ele>807.8</ele>
        <time>2025-09-10T07:00:25Z</time>
      </trkpt>
      <trkpt lat="45.84986" lon="4.35322">
        <ele>807.8</ele>
        <time>2025-09-10T07:00:26Z</time>
      </trkpt>
      <trkpt lat="45.8499" lon="4.35325">
        <ele>807.8</ele>
        <time>2025-09-10T07:00:27Z</time>
      </trkpt>
      <trkpt lat="45.84995" lon="4.35328">
        <ele>807.8</ele>
        <time>2025-09-10T07:00:28Z</time>
      </trkpt>
      <trkpt lat="45.84999" lon="4.35331">
        <ele>807.8</ele>
        <time>2025-09-10T07:00:29Z</time>
      </trkpt>
      <trkpt lat="45.85004" lon="4.35334">
        <ele>807.8</ele>
        <time>2025-09-10T07:00:30Z</time>
      </trkpt>
      <trkpt lat="45.85008" lon="4.35336">
        <ele>807.8</ele>
        <time>2025-09-10T07:00:31Z</time>
      </trkpt>
      <trkpt lat="45.85013" lon="4.35339">
        <ele>807.8</ele>
        <time>2025-09-10T07:00:32Z</time>
      </trkpt>
      <trkpt lat="45.85017" lon="4.35342">
        <ele>808.2</ele>
        <time>2025-09-10T07:00:33Z</time>
      </trkpt>
      <trkpt lat="45.85022" lon="4.35345">
        <ele>808.2</ele>
        <time>2025-09-10T07:00:34Z</time>
      </trkpt>
      <trkpt lat="45.85026" lon="4.35348">
        <ele>808.2</ele>
        <time>2025-09-10T07:00:35Z</time>
      </trkpt>
      <trkpt lat="45.8503" lon="4.35352">
        <ele>808.2</ele>
        <time>2025-09-10T07:00:36Z</time>
      </trkpt>
      <trkpt lat="45.85034" lon="4.35355">
        <ele>808.2</ele>
        <time>2025-09-10T07:00:37Z</time>
      </trkpt>
      <trkpt lat="45.85038" lon="4.35357">
        <ele>808.4</ele>
        <time>2025-09-10T07:00:38Z</time>
      </trkpt>
      <trkpt lat="45.85042" lon="4.35361">
        <ele>808.4</ele>
        <time>2025-09-10T07:00:39Z</time>
      </trkpt>
      <trkpt lat="45.85046" lon="4.35363">
        <ele>808.4</ele>
        <time>2025-09-10T07:00:40Z</time>
      </trkpt>
      <trkpt lat="45.8505" lon="4.35366">
        <ele>808.4</ele>
        <time>2025-09-10T07:00:41Z</time>
      </trkpt>
      <trkpt lat="45.85054" lon="4.35367">
        <ele>808.2</ele>
        <time>2025-09-10T07:00:42Z</time>
      </trkpt>
      <trkpt lat="45.85058" lon="4.35371">
        <ele>808.2</ele>
        <time>2025-09-10T07:00:43Z</time>
      </trkpt>
      <trkpt lat="45.85061" lon="4.35374">
        <ele>808.2</ele>
        <time>2025-09-10T07:00:44Z</time>
      </trkpt>
      <trkpt lat="45.85064" lon="4.35377">
        <ele>808.4</ele>
        <time>2025-09-10T07:00:45Z</time>
      </trkpt>
      <trkpt lat="45.85066" lon="4.3538">
        <ele>808.4</ele>
        <time>2025-09-10T07:00:46Z</time>
      </trkpt>
      <trkpt lat="45.85068" lon="4.35383">
        <ele>809</ele>
        <time>2025-09-10T07:00:47Z</time>
      </trkpt>
      <trkpt lat="45.85069" lon="4.35387">
        <ele>809</ele>
        <time>2025-09-10T07:00:48Z</time>
      </trkpt>
      <trkpt lat="45.8507" lon="4.35391">
        <ele>809.2</ele>
        <time>2025-09-10T07:00:49Z</time>
      </trkpt>
      <trkpt lat="45.8507" lon="4.35395">
        <ele>809.2</ele>
        <time>2025-09-10T07:00:50Z</time>
      </trkpt>
      <trkpt lat="45.85071" lon="4.35399">
        <ele>809.2</ele>
        <time>2025-09-10T07:00:51Z</time>
      </trkpt>
      <trkpt lat="45.85071" lon="4.35404">
        <ele>809.2</ele>
        <time>2025-09-10T07:00:52Z</time>
      </trkpt>
      <trkpt lat="45.85071" lon="4.35409">
        <ele>809.2</ele>
        <time>2025-09-10T07:00:53Z</time>
      </trkpt>
      <trkpt lat="45.85071" lon="4.35414">
        <ele>809.2</ele>
        <time>2025-09-10T07:00:54Z</time>
      </trkpt>
      <trkpt lat="45.85071" lon="4.3542">
        <ele>808.8</ele>
        <time>2025-09-10T07:00:55Z</time>
      </trkpt>
      <trkpt lat="45.8507" lon="4.35426">
        <ele>808.8</ele>
        <time>2025-09-10T07:00:56Z</time>
      </trkpt>
      <trkpt lat="45.8507" lon="4.35432">
        <ele>808.6</ele>
        <time>2025-09-10T07:00:57Z</time>
      </trkpt>
      <trkpt lat="45.8507" lon="4.35432">
        <ele>808.6</ele>
        <time>2025-09-10T07:00:58Z</time>
      </trkpt>
      <trkpt lat="45.8507" lon="4.35432">
        <ele>808.6</ele>
        <time>2025-09-10T07:00:59Z</time>
      </trkpt>
      <trkpt lat="45.8507" lon="4.35451">
        <ele>808.2</ele>
        <time>2025-09-10T07:01:00Z</time>
      </trkpt>
      <trkpt lat="45.85069" lon="4.35455">
        <ele>808</ele>
        <time>2025-09-10T07:01:01Z</time>
      </trkpt>
      <trkpt lat="45.85069" lon="4.35458">
        <ele>808</ele>
        <time>2025-09-10T07:01:02Z</time>
      </trkpt>
      <trkpt lat="45.85071" lon="4.35457">
        <ele>808</ele>
        <time>2025-09-10T07:01:03Z</time>
      </trkpt>
      <trkpt lat="45.85073" lon="4.35456">
        <ele>807.8</ele>
        <time>2025-09-10T07:01:04Z</time>
      </trkpt>
      <trkpt lat="45.85072" lon="4.35451">
        <ele>807.8</ele>
        <time>2025-09-10T07:01:05Z</time>
      </trkpt>
      <trkpt lat="45.85072" lon="4.35449">
        <ele>807.8</ele>
        <time>2025-09-10T07:01:06Z</time>
      </trkpt>
      <trkpt lat="45.85072" lon="4.35445">
        <ele>807.8</ele>
        <time>2025-09-10T07:01:07Z</time>
      </trkpt>
      <trkpt lat="45.85072" lon="4.35442">
        <ele>807.8</ele>
        <time>2025-09-10T07:01:08Z</time>
      </trkpt>
      <trkpt lat="45.85071" lon="4.35438">
        <ele>807.8</ele>
        <time>2025-09-10T07:01:09Z</time>
      </trkpt>
      <trkpt lat="45.85071" lon="4.35434">
        <ele>808.2</ele>
        <time>2025-09-10T07:01:10Z</time>
      </trkpt>
      <trkpt lat="45.85071" lon="4.3543">
        <ele>808.4</ele>
        <time>2025-09-10T07:01:11Z</time>
      </trkpt>
      <trkpt lat="45.85071" lon="4.35426">
        <ele>808.4</ele>
        <time>2025-09-10T07:01:12Z</time>
      </trkpt>
      <trkpt lat="45.85071" lon="4.35422">
        <ele>808.4</ele>
        <time>2025-09-10T07:01:13Z</time>
      </trkpt>
      <trkpt lat="45.85072" lon="4.35418">
        <ele>808.6</ele>
        <time>2025-09-10T07:01:14Z</time>
      </trkpt>
      <trkpt lat="45.85072" lon="4.35415">
        <ele>809</ele>
        <time>2025-09-10T07:01:15Z</time>
      </trkpt>
      <trkpt lat="45.85073" lon="4.35411">
        <ele>809</ele>
        <time>2025-09-10T07:01:16Z</time>
      </trkpt>
      <trkpt lat="45.85073" lon="4.35407">
        <ele>809</ele>
        <time>2025-09-10T07:01:17Z</time>
      </trkpt>
      <trkpt lat="45.85074" lon="4.35404">
        <ele>809</ele>
        <time>2025-09-10T07:01:18Z</time>
      </trkpt>
      <trkpt lat="45.85075" lon="4.35401">
        <ele>809.2</ele>
        <time>2025-09-10T07:01:19Z</time>
      </trkpt>
      <trkpt lat="45.85076" lon="4.35399">
        <ele>809.6</ele>
        <time>2025-09-10T07:01:20Z</time>
      </trkpt>
      <trkpt lat="45.85078" lon="4.35397">
        <ele>809.6</ele>
        <time>2025-09-10T07:01:21Z</time>
      </trkpt>
      <trkpt lat="45.8508" lon="4.35395">
        <ele>809.6</ele>
        <time>2025-09-10T07:01:22Z</time>
      </trkpt>
      <trkpt lat="45.85082" lon="4.35394">
        <ele>809.8</ele>
        <time>2025-09-10T07:01:23Z</time>
      </trkpt>
      <trkpt lat="45.85083" lon="4.35393">
        <ele>810.2</ele>
        <time>2025-09-10T07:01:24Z</time>
      </trkpt>
      <trkpt lat="45.85085" lon="4.35393">
        <ele>810.2</ele>
        <time>2025-09-10T07:01:25Z</time>
      </trkpt>
      <trkpt lat="45.85087" lon="4.35393">
        <ele>810.6</ele>
        <time>2025-09-10T07:01:26Z</time>
      </trkpt>
      <trkpt lat="45.85088" lon="4.35393">
        <ele>810.8</ele>
        <time>2025-09-10T07:01:27Z</time>
      </trkpt>
      <trkpt lat="45.8509" lon="4.35393">
        <ele>810.8</ele>
        <time>2025-09-10T07:01:28Z</time>
      </trkpt>
      <trkpt lat="45.85092" lon="4.35394">
        <ele>811</ele>
        <time>2025-09-10T07:01:29Z</time>
      </trkpt>
      <trkpt lat="45.85094" lon="4.35395">
        <ele>811.2</ele>
        <time>2025-09-10T07:01:30Z</time>
      </trkpt>
      <trkpt lat="45.85096" lon="4.35395">
        <ele>811.2</ele>
        <time>2025-09-10T07:01:31Z</time>
      </trkpt>
      <trkpt lat="45.85099" lon="4.35395">
        <ele>811.2</ele>
        <time>2025-09-10T07:01:32Z</time>
      </trkpt>
      <trkpt lat="45.851" lon="4.35394">
        <ele>811.4</ele>
        <time>2025-09-10T07:01:33Z</time>
      </trkpt>
      <trkpt lat="45.85102" lon="4.35392">
        <ele>811.4</ele>
        <time>2025-09-10T07:01:34Z</time>
      </trkpt>
      <trkpt lat="45.85104" lon="4.3539">
        <ele>811.4</ele>
        <time>2025-09-10T07:01:35Z</time>
      </trkpt>
      <trkpt lat="45.85105" lon="4.35386">
        <ele>811.4</ele>
        <time>2025-09-10T07:01:36Z</time>
      </trkpt>
      <trkpt lat="45.85106" lon="4.35382">
        <ele>811.4</ele>
        <time>2025-09-10T07:01:37Z</time>
      </trkpt>
      <trkpt lat="45.85107" lon="4.35378">
        <ele>811.2</ele>
        <time>2025-09-10T07:01:38Z</time>
      </trkpt>
      <trkpt lat="45.85114" lon="4.35412">
        <ele>811.2</ele>
        <time>2025-09-10T07:05:29Z</time>
      </trkpt>
      <trkpt lat="45.85113" lon="4.35416">
        <ele>811.2</ele>
        <time>2025-09-10T07:05:30Z</time>
      </trkpt>
      <trkpt lat="45.85112" lon="4.35419">
        <ele>811.2</ele>
        <time>2025-09-10T07:05:31Z</time>
      </trkpt>
      <trkpt lat="45.85112" lon="4.35421">
        <ele>811.2</ele>
        <time>2025-09-10T07:05:32Z</time>
      </trkpt>
      <trkpt lat="45.85111" lon="4.35423">
        <ele>811.2</ele>
        <time>2025-09-10T07:05:33Z</time>
      </trkpt>
      <trkpt lat="45.8511" lon="4.35424">
        <ele>811.2</ele>
        <time>2025-09-10T07:05:34Z</time>
      </trkpt>
      <trkpt lat="45.85107" lon="4.3542">
        <ele>811.2</ele>
        <time>2025-09-10T07:05:35Z</time>
      </trkpt>
      <trkpt lat="45.85105" lon="4.35416">
        <ele>811.2</ele>
        <time>2025-09-10T07:05:36Z</time>
      </trkpt>
      <trkpt lat="45.85103" lon="4.35411">
        <ele>811.2</ele>
        <time>2025-09-10T07:05:37Z</time>
      </trkpt>
      <trkpt lat="45.85102" lon="4.35406">
        <ele>811.2</ele>
        <time>2025-09-10T07:05:38Z</time>
      </trkpt>
      <trkpt lat="45.85101" lon="4.354">
        <ele>811.2</ele>
        <time>2025-09-10T07:05:39Z</time>
      </trkpt>
      <trkpt lat="45.851" lon="4.35394">
        <ele>811.2</ele>
        <time>2025-09-10T07:05:40Z</time>
      </trkpt>
      <trkpt lat="45.851" lon="4.35388">
        <ele>811.2</ele>
        <time>2025-09-10T07:05:41Z</time>
      </trkpt>
      <trkpt lat="45.85101" lon="4.35382">
        <ele>812</ele>
        <time>2025-09-10T07:05:42Z</time>
      </trkpt>
      <trkpt lat="45.85101" lon="4.35376">
        <ele>812</ele>
        <time>2025-09-10T07:05:43Z</time>
      </trkpt>
      <trkpt lat="45.851" lon="4.35371">
        <ele>811.6</ele>
        <time>2025-09-10T07:05:44Z</time>
      </trkpt>
      <trkpt lat="45.85097" lon="4.35366">
        <ele>811.6</ele>
        <time>2025-09-10T07:05:45Z</time>
      </trkpt>
      <trkpt lat="45.85094" lon="4.35363">
        <ele>811.4</ele>
        <time>2025-09-10T07:05:46Z</time>
      </trkpt>
      <trkpt lat="45.8509" lon="4.35362">
        <ele>811.4</ele>
        <time>2025-09-10T07:05:47Z</time>
      </trkpt>
      <trkpt lat="45.85086" lon="4.35364">
        <ele>811.4</ele>
        <time>2025-09-10T07:05:48Z</time>
      </trkpt>
      <trkpt lat="45.85082" lon="4.35367">
        <ele>811.4</ele>
        <time>2025-09-10T07:05:49Z</time>
      </trkpt>
      <trkpt lat="45.85079" lon="4.35372">
        <ele>811</ele>
        <time>2025-09-10T07:05:50Z</time>
      </trkpt>
      <trkpt lat="45.85078" lon="4.35383">
        <ele>811</ele>
        <time>2025-09-10T07:05:51Z</time>
      </trkpt>
      <trkpt lat="45.85077" lon="4.35389">
        <ele>811</ele>
        <time>2025-09-10T07:05:52Z</time>
      </trkpt>
      <trkpt lat="45.85075" lon="4.35396">
        <ele>811</ele>
        <time>2025-09-10T07:05:53Z</time>
      </trkpt>
      <trkpt lat="45.85075" lon="4.35396">
        <ele>811</ele>
        <time>2025-09-10T07:05:54Z</time>
      </trkpt>
      <trkpt lat="45.85073" lon="4.35403">
        <ele>810.8</ele>
        <time>2025-09-10T07:05:55Z</time>
      </trkpt>
      <trkpt lat="45.85072" lon="4.3541">
        <ele>810.8</ele>
        <time>2025-09-10T07:05:56Z</time>
      </trkpt>
      <trkpt lat="45.85072" lon="4.35418">
        <ele>810.4</ele>
        <time>2025-09-10T07:05:57Z</time>
      </trkpt>
      <trkpt lat="45.85071" lon="4.35426">
        <ele>810.4</ele>
        <time>2025-09-10T07:05:58Z</time>
      </trkpt>
      <trkpt lat="45.85072" lon="4.35435">
        <ele>810.2</ele>
        <time>2025-09-10T07:05:59Z</time>
      </trkpt>
      <trkpt lat="45.85071" lon="4.35444">
        <ele>810.2</ele>
        <time>2025-09-10T07:06:00Z</time>
      </trkpt>
      <trkpt lat="45.85071" lon="4.35453">
        <ele>810.2</ele>
        <time>2025-09-10T07:06:01Z</time>
      </trkpt>
      <trkpt lat="45.85072" lon="4.35463">
        <ele>810.2</ele>
        <time>2025-09-10T07:06:02Z</time>
      </trkpt>
      <trkpt lat="45.85073" lon="4.35471">
        <ele>809.8</ele>
        <time>2025-09-10T07:06:03Z</time>
      </trkpt>
      <trkpt lat="45.85074" lon="4.3548">
        <ele>809.6</ele>
        <time>2025-09-10T07:06:04Z</time>
      </trkpt>
      <trkpt lat="45.85076" lon="4.35488">
        <ele>809.4</ele>
        <time>2025-09-10T07:06:05Z</time>
      </trkpt>
      <trkpt lat="45.85079" lon="4.35497">
        <ele>809.4</ele>
        <time>2025-09-10T07:06:06Z</time>
      </trkpt>
      <trkpt lat="45.85081" lon="4.35505">
        <ele>809</ele>
        <time>2025-09-10T07:06:07Z</time>
      </trkpt>
      <trkpt lat="45.85084" lon="4.35513">
        <ele>809</ele>
        <time>2025-09-10T07:06:08Z</time>
      </trkpt>
      <trkpt lat="45.85087" lon="4.3552">
        <ele>809</ele>
        <time>2025-09-10T07:06:09Z</time>
      </trkpt>
      <trkpt lat="45.8509" lon="4.35528">
        <ele>808.6</ele>
        <time>2025-09-10T07:06:10Z</time>
      </trkpt>
      <trkpt lat="45.85093" lon="4.35535">
        <ele>808.6</ele>
        <time>2025-09-10T07:06:11Z</time>
      </trkpt>
      <trkpt lat="45.85096" lon="4.35542">
        <ele>808.6</ele>
        <time>2025-09-10T07:06:12Z</time>
      </trkpt>
      <trkpt lat="45.851" lon="4.35549">
        <ele>807.6</ele>
        <time>2025-09-10T07:06:13Z</time>
      </trkpt>
      <trkpt lat="45.85103" lon="4.35557">
        <ele>807.6</ele>
        <time>2025-09-10T07:06:14Z</time>
      </trkpt>
      <trkpt lat="45.85107" lon="4.35564">
        <ele>807.8</ele>
        <time>2025-09-10T07:06:15Z</time>
      </trkpt>
      <trkpt lat="45.85111" lon="4.35571">
        <ele>807.8</ele>
        <time>2025-09-10T07:06:16Z</time>
      </trkpt>
      <trkpt lat="45.85114" lon="4.35578">
        <ele>807.8</ele>
        <time>2025-09-10T07:06:17Z</time>
      </trkpt>
      <trkpt lat="45.85116" lon="4.35585">
        <ele>807.8</ele>
        <time>2025-09-10T07:06:18Z</time>
      </trkpt>
      <trkpt lat="45.85119" lon="4.35592">
        <ele>807.8</ele>
        <time>2025-09-10T07:06:19Z</time>
      </trkpt>
      <trkpt lat="45.85121" lon="4.356">
        <ele>807.4</ele>
        <time>2025-09-10T07:06:20Z</time>
      </trkpt>
      <trkpt lat="45.85123" lon="4.35608">
        <ele>807.4</ele>
        <time>2025-09-10T07:06:21Z</time>
      </trkpt>
      <trkpt lat="45.85125" lon="4.35616">
        <ele>807.4</ele>
        <time>2025-09-10T07:06:22Z</time>
      </trkpt>
      <trkpt lat="45.85128" lon="4.35624">
        <ele>807.4</ele>
        <time>2025-09-10T07:06:23Z</time>
      </trkpt>
      <trkpt lat="45.85129" lon="4.35632">
        <ele>807.4</ele>
        <time>2025-09-10T07:06:24Z</time>
      </trkpt>
      <trkpt lat="45.85132" lon="4.35641">
        <ele>807</ele>
        <time>2025-09-10T07:06:25Z</time>
      </trkpt>
      <trkpt lat="45.85134" lon="4.35649">
        <ele>807</ele>
        <time>2025-09-10T07:06:26Z</time>
      </trkpt>
      <trkpt lat="45.85136" lon="4.35657">
        <ele>806.6</ele>
        <time>2025-09-10T07:06:27Z</time>
      </trkpt>
      <trkpt lat="45.8514" lon="4.35665">
        <ele>806.2</ele>
        <time>2025-09-10T07:06:28Z</time>
      </trkpt>
      <trkpt lat="45.85143" lon="4.35673">
        <ele>806.2</ele>
        <time>2025-09-10T07:06:29Z</time>
      </trkpt>
      <trkpt lat="45.85147" lon="4.35681">
        <ele>805.8</ele>
        <time>2025-09-10T07:06:30Z</time>
      </trkpt>
      <trkpt lat="45.8515" lon="4.35688">
        <ele>805.8</ele>
        <time>2025-09-10T07:06:31Z</time>
      </trkpt>
      <trkpt lat="45.85155" lon="4.35696">
        <ele>805.8</ele>
        <time>2025-09-10T07:06:32Z</time>
      </trkpt>
      <trkpt lat="45.85158" lon="4.35704">
        <ele>805.2</ele>
        <time>2025-09-10T07:06:33Z</time>
      </trkpt>
      <trkpt lat="45.85162" lon="4.35711">
        <ele>805</ele>
        <time>2025-09-10T07:06:34Z</time>
      </trkpt>
      <trkpt lat="45.85166" lon="4.3572">
        <ele>804.6</ele>
        <time>2025-09-10T07:06:35Z</time>
      </trkpt>
      <trkpt lat="45.85168" lon="4.35728">
        <ele>804.2</ele>
        <time>2025-09-10T07:06:36Z</time>
      </trkpt>
      <trkpt lat="45.8517" lon="4.35736">
        <ele>804</ele>
        <time>2025-09-10T07:06:37Z</time>
      </trkpt>
      <trkpt lat="45.85169" lon="4.35742">
        <ele>804</ele>
        <time>2025-09-10T07:06:38Z</time>
      </trkpt>
      <trkpt lat="45.8517" lon="4.35748">
        <ele>804</ele>
        <time>2025-09-10T07:06:39Z</time>
      </trkpt>
      <trkpt lat="45.8517" lon="4.35756">
        <ele>803.8</ele>
        <time>2025-09-10T07:06:40Z</time>
      </trkpt>
      <trkpt lat="45.85169" lon="4.35763">
        <ele>803.8</ele>
        <time>2025-09-10T07:06:41Z</time>
      </trkpt>
      <trkpt lat="45.85168" lon="4.3577">
        <ele>803.4</ele>
        <time>2025-09-10T07:06:42Z</time>
      </trkpt>
      <trkpt lat="45.85167" lon="4.35777">
        <ele>803.2</ele>
        <time>2025-09-10T07:06:43Z</time>
      </trkpt>
      <trkpt lat="45.85166" lon="4.35783">
        <ele>803.2</ele>
        <time>2025-09-10T07:06:44Z</time>
      </trkpt>
      <trkpt lat="45.85165" lon="4.35791">
        <ele>802.8</ele>
        <time>2025-09-10T07:06:45Z</time>
      </trkpt>
      <trkpt lat="45.85164" lon="4.35797">
        <ele>802.8</ele>
        <time>2025-09-10T07:06:46Z</time>
      </trkpt>
      <trkpt lat="45.85164" lon="4.35805">
        <ele>802.6</ele>
        <time>2025-09-10T07:06:47Z</time>
      </trkpt>
      <trkpt lat="45.85164" lon="4.3581">
        <ele>802.8</ele>
        <time>2025-09-10T07:06:48Z</time>
      </trkpt>
      <trkpt lat="45.85164" lon="4.35816">
        <ele>802.8</ele>
        <time>2025-09-10T07:06:49Z</time>
      </trkpt>
      <trkpt lat="45.85164" lon="4.35821">
        <ele>802.8</ele>
        <time>2025-09-10T07:06:50Z</time>
      </trkpt>
      <trkpt lat="45.85164" lon="4.35822">
        <ele>802.8</ele>
        <time>2025-09-10T07:06:51Z</time>
      </trkpt>
      <trkpt lat="45.85164" lon="4.35823">
        <ele>802.4</ele>
        <time>2025-09-10T07:06:52Z</time>
      </trkpt>
      <trkpt lat="45.85165" lon="4.35824">
        <ele>802.4</ele>
        <time>2025-09-10T07:06:53Z</time>
      </trkpt>
      <trkpt lat="45.85165" lon="4.35823">
        <ele>802.4</ele>
        <time>2025-09-10T07:06:54Z</time>
      </trkpt>
      <trkpt lat="45.85166" lon="4.35823">
        <ele>802.2</ele>
        <time>2025-09-10T07:06:55Z</time>
      </trkpt>
      <trkpt lat="45.85169" lon="4.35824">
        <ele>802.6</ele>
        <time>2025-09-10T07:07:09Z</time>
      </trkpt>
      <trkpt lat="45.85168" lon="4.35822">
        <ele>802.4</ele>
        <time>2025-09-10T07:07:10Z</time>
      </trkpt>
      <trkpt lat="45.85167" lon="4.35819">
        <ele>802.2</ele>
        <time>2025-09-10T07:07:11Z</time>
      </trkpt>
      <trkpt lat="45.85167" lon="4.35816">
        <ele>802.2</ele>
        <time>2025-09-10T07:07:12Z</time>
      </trkpt>
      <trkpt lat="45.85166" lon="4.35813">
        <ele>802.2</ele>
        <time>2025-09-10T07:07:13Z</time>
      </trkpt>
      <trkpt lat="45.85166" lon="4.35808">
        <ele>802.2</ele>
        <time>2025-09-10T07:07:14Z</time>
      </trkpt>
      <trkpt lat="45.85167" lon="4.35803">
        <ele>802.2</ele>
        <time>2025-09-10T07:07:15Z</time>
      </trkpt>
      <trkpt lat="45.85168" lon="4.35798">
        <ele>802.2</ele>
        <time>2025-09-10T07:07:16Z</time>
      </trkpt>
      <trkpt lat="45.85169" lon="4.35794">
        <ele>802.6</ele>
        <time>2025-09-10T07:07:17Z</time>
      </trkpt>
      <trkpt lat="45.8517" lon="4.35789">
        <ele>802.6</ele>
        <time>2025-09-10T07:07:18Z</time>
      </trkpt>
      <trkpt lat="45.8517" lon="4.35783">
        <ele>802.6</ele>
        <time>2025-09-10T07:07:19Z</time>
      </trkpt>
      <trkpt lat="45.85171" lon="4.35778">
        <ele>802.6</ele>
        <time>2025-09-10T07:07:20Z</time>
      </trkpt>
      <trkpt lat="45.85172" lon="4.35772">
        <ele>802.6</ele>
        <time>2025-09-10T07:07:21Z</time>
      </trkpt>
      <trkpt lat="45.85174" lon="4.35767">
        <ele>802</ele>
        <time>2025-09-10T07:07:22Z</time>
      </trkpt>
      <trkpt lat="45.85175" lon="4.35761">
        <ele>803</ele>
        <time>2025-09-10T07:07:23Z</time>
      </trkpt>
      <trkpt lat="45.85175" lon="4.35756">
        <ele>803.6</ele>
        <time>2025-09-10T07:07:24Z</time>
      </trkpt>
      <trkpt lat="45.85176" lon="4.35751">
        <ele>803.6</ele>
        <time>2025-09-10T07:07:25Z</time>
      </trkpt>
      <trkpt lat="45.85175" lon="4.35745">
        <ele>803.6</ele>
        <time>2025-09-10T07:07:26Z</time>
      </trkpt>
      <trkpt lat="45.85175" lon="4.3574">
        <ele>803.6</ele>
        <time>2025-09-10T07:07:27Z</time>
      </trkpt>
      <trkpt lat="45.85174" lon="4.35735">
        <ele>803.6</ele>
        <time>2025-09-10T07:07:28Z</time>
      </trkpt>
      <trkpt lat="45.85173" lon="4.35729">
        <ele>803.6</ele>
        <time>2025-09-10T07:07:29Z</time>
      </trkpt>
      <trkpt lat="45.85171" lon="4.35724">
        <ele>803.8</ele>
        <time>2025-09-10T07:07:30Z</time>
      </trkpt>
      <trkpt lat="45.8517" lon="4.35719">
        <ele>803.8</ele>
        <time>2025-09-10T07:07:31Z</time>
      </trkpt>
      <trkpt lat="45.85168" lon="4.35714">
        <ele>803.8</ele>
        <time>2025-09-10T07:07:32Z</time>
      </trkpt>
      <trkpt lat="45.85166" lon="4.35709">
        <ele>803.8</ele>
        <time>2025-09-10T07:07:33Z</time>
      </trkpt>
      <trkpt lat="45.85164" lon="4.35705">
        <ele>803.8</ele>
        <time>2025-09-10T07:07:34Z</time>
      </trkpt>
      <trkpt lat="45.85161" lon="4.35701">
        <ele>804</ele>
        <time>2025-09-10T07:07:35Z</time>
      </trkpt>
      <trkpt lat="45.85159" lon="4.35697">
        <ele>804</ele>
        <time>2025-09-10T07:07:36Z</time>
      </trkpt>
      <trkpt lat="45.85156" lon="4.35693">
        <ele>804</ele>
        <time>2025-09-10T07:07:37Z</time>
      </trkpt>
      <trkpt lat="45.85154" lon="4.35689">
        <ele>804.2</ele>
        <time>2025-09-10T07:07:38Z</time>
      </trkpt>
      <trkpt lat="45.85151" lon="4.35685">
        <ele>804.2</ele>
        <time>2025-09-10T07:07:39Z</time>
      </trkpt>
      <trkpt lat="45.85149" lon="4.35681">
        <ele>804.2</ele>
        <time>2025-09-10T07:07:40Z</time>
      </trkpt>
      <trkpt lat="45.85147" lon="4.35677">
        <ele>804.6</ele>
        <time>2025-09-10T07:07:41Z</time>
      </trkpt>
      <trkpt lat="45.85145" lon="4.35672">
        <ele>804.6</ele>
        <time>2025-09-10T07:07:42Z</time>
      </trkpt>
      <trkpt lat="45.85143" lon="4.35667">
        <ele>804.6</ele>
        <time>2025-09-10T07:07:43Z</time>
      </trkpt>
      <trkpt lat="45.85141" lon="4.35662">
        <ele>804.8</ele>
        <time>2025-09-10T07:07:44Z</time>
      </trkpt>
      <trkpt lat="45.85139" lon="4.35658">
        <ele>804.8</ele>
        <time>2025-09-10T07:07:45Z</time>
      </trkpt>
      <trkpt lat="45.85137" lon="4.35654">
        <ele>805.2</ele>
        <time>2025-09-10T07:07:46Z</time>
      </trkpt>
      <trkpt lat="45.85135" lon="4.3565">
        <ele>805.2</ele>
        <time>2025-09-10T07:07:47Z</time>
      </trkpt>
      <trkpt lat="45.85134" lon="4.35647">
        <ele>805.2</ele>
        <time>2025-09-10T07:07:48Z</time>
      </trkpt>
      <trkpt lat="45.85133" lon="4.35644">
        <ele>805.2</ele>
        <time>2025-09-10T07:07:49Z</time>
      </trkpt>
      <trkpt lat="45.85131" lon="4.35641">
        <ele>805.4</ele>
        <time>2025-09-10T07:07:50Z</time>
      </trkpt>
      <trkpt lat="45.8513" lon="4.35637">
        <ele>805.4</ele>
        <time>2025-09-10T07:07:51Z</time>
      </trkpt>
      <trkpt lat="45.85129" lon="4.35633">
        <ele>805.4</ele>
        <time>2025-09-10T07:07:52Z</time>
      </trkpt>
      <trkpt lat="45.85129" lon="4.3563">
        <ele>805.8</ele>
        <time>2025-09-10T07:07:53Z</time>
      </trkpt>
      <trkpt lat="45.85128" lon="4.35626">
        <ele>805.8</ele>
        <time>2025-09-10T07:07:54Z</time>
      </trkpt>
      <trkpt lat="45.85127" lon="4.35622">
        <ele>805.8</ele>
        <time>2025-09-10T07:07:55Z</time>
      </trkpt>
      <trkpt lat="45.85127" lon="4.35618">
        <ele>805.8</ele>
        <time>2025-09-10T07:07:56Z</time>
      </trkpt>
      <trkpt lat="45.85126" lon="4.35613">
        <ele>805.8</ele>
        <time>2025-09-10T07:07:57Z</time>
      </trkpt>
      <trkpt lat="45.85125" lon="4.3561">
        <ele>806</ele>
        <time>2025-09-10T07:07:58Z</time>
      </trkpt>
      <trkpt lat="45.85124" lon="4.35606">
        <ele>806.8</ele>
        <time>2025-09-10T07:07:59Z</time>
      </trkpt>
      <trkpt lat="45.85124" lon="4.35602">
        <ele>806.8</ele>
        <time>2025-09-10T07:08:00Z</time>
      </trkpt>
      <trkpt lat="45.85123" lon="4.35598">
        <ele>806.8</ele>
        <time>2025-09-10T07:08:01Z</time>
      </trkpt>
      <trkpt lat="45.85121" lon="4.35594">
        <ele>806.8</ele>
        <time>2025-09-10T07:08:02Z</time>
      </trkpt>
      <trkpt lat="45.8512" lon="4.35589">
        <ele>806.8</ele>
        <time>2025-09-10T07:08:03Z</time>
      </trkpt>
      <trkpt lat="45.85119" lon="4.35585">
        <ele>806.8</ele>
        <time>2025-09-10T07:08:04Z</time>
      </trkpt>
      <trkpt lat="45.85117" lon="4.35581">
        <ele>807</ele>
        <time>2025-09-10T07:08:05Z</time>
      </trkpt>
      <trkpt lat="45.85115" lon="4.35577">
        <ele>807</ele>
        <time>2025-09-10T07:08:06Z</time>
      </trkpt>
      <trkpt lat="45.85113" lon="4.35572">
        <ele>806.6</ele>
        <time>2025-09-10T07:08:07Z</time>
      </trkpt>
      <trkpt lat="45.85111" lon="4.35568">
        <ele>806.6</ele>
        <time>2025-09-10T07:08:08Z</time>
      </trkpt>
      <trkpt lat="45.85109" lon="4.35564">
        <ele>806.6</ele>
        <time>2025-09-10T07:08:09Z</time>
      </trkpt>
      <trkpt lat="45.85107" lon="4.3556">
        <ele>807</ele>
        <time>2025-09-10T07:08:10Z</time>
      </trkpt>
      <trkpt lat="45.85105" lon="4.35556">
        <ele>807.2</ele>
        <time>2025-09-10T07:08:11Z</time>
      </trkpt>
      <trkpt lat="45.85103" lon="4.35552">
        <ele>807.2</ele>
        <time>2025-09-10T07:08:12Z</time>
      </trkpt>
      <trkpt lat="45.85101" lon="4.35548">
        <ele>807.4</ele>
        <time>2025-09-10T07:08:13Z</time>
      </trkpt>
      <trkpt lat="45.85098" lon="4.35544">
        <ele>807.4</ele>
        <time>2025-09-10T07:08:14Z</time>
      </trkpt>
      <trkpt lat="45.85096" lon="4.35539">
        <ele>807.4</ele>
        <time>2025-09-10T07:08:15Z</time>
      </trkpt>
      <trkpt lat="45.85094" lon="4.35535">
        <ele>807.4</ele>
        <time>2025-09-10T07:08:16Z</time>
      </trkpt>
      <trkpt lat="45.85092" lon="4.35531">
        <ele>807.6</ele>
        <time>2025-09-10T07:08:17Z</time>
      </trkpt>
      <trkpt lat="45.8509" lon="4.35527">
        <ele>807.6</ele>
        <time>2025-09-10T07:08:18Z</time>
      </trkpt>
      <trkpt lat="45.85088" lon="4.35522">
        <ele>807.6</ele>
        <time>2025-09-10T07:08:19Z</time>
      </trkpt>
      <trkpt lat="45.85087" lon="4.35518">
        <ele>807.6</ele>
        <time>2025-09-10T07:08:20Z</time>
      </trkpt>
      <trkpt lat="45.85086" lon="4.35514">
        <ele>807.4</ele>
        <time>2025-09-10T07:08:21Z</time>
      </trkpt>
      <trkpt lat="45.85084" lon="4.35509">
        <ele>807.8</ele>
        <time>2025-09-10T07:08:22Z</time>
      </trkpt>
      <trkpt lat="45.85083" lon="4.35505">
        <ele>807.8</ele>
        <time>2025-09-10T07:08:23Z</time>
      </trkpt>
      <trkpt lat="45.85082" lon="4.355">
        <ele>807.8</ele>
        <time>2025-09-10T07:08:24Z</time>
      </trkpt>
      <trkpt lat="45.85081" lon="4.35495">
        <ele>807.8</ele>
        <time>2025-09-10T07:08:25Z</time>
      </trkpt>
      <trkpt lat="45.8508" lon="4.35491">
        <ele>807.8</ele>
        <time>2025-09-10T07:08:26Z</time>
      </trkpt>
      <trkpt lat="45.85078" lon="4.35486">
        <ele>808.2</ele>
        <time>2025-09-10T07:08:27Z</time>
      </trkpt>
      <trkpt lat="45.85077" lon="4.35481">
        <ele>808.2</ele>
        <time>2025-09-10T07:08:28Z</time>
      </trkpt>
      <trkpt lat="45.85077" lon="4.35476">
        <ele>808.2</ele>
        <time>2025-09-10T07:08:29Z</time>
      </trkpt>
      <trkpt lat="45.85076" lon="4.35471">
        <ele>808.2</ele>
        <time>2025-09-10T07:08:30Z</time>
      </trkpt>
      <trkpt lat="45.85076" lon="4.35466">
        <ele>808.4</ele>
        <time>2025-09-10T07:08:31Z</time>
      </trkpt>
      <trkpt lat="45.85075" lon="4.35461">
        <ele>808.4</ele>
        <time>2025-09-10T07:08:32Z</time>
      </trkpt>
      <trkpt lat="45.85074" lon="4.35457">
        <ele>808.6</ele>
        <time>2025-09-10T07:08:33Z</time>
      </trkpt>
      <trkpt lat="45.85073" lon="4.35452">
        <ele>808.6</ele>
        <time>2025-09-10T07:08:34Z</time>
      </trkpt>
      <trkpt lat="45.85073" lon="4.35448">
        <ele>809</ele>
        <time>2025-09-10T07:08:35Z</time>
      </trkpt>
      <trkpt lat="45.85073" lon="4.35444">
        <ele>809</ele>
        <time>2025-09-10T07:08:36Z</time>
      </trkpt>
      <trkpt lat="45.85073" lon="4.35439">
        <ele>809.2</ele>
        <time>2025-09-10T07:08:37Z</time>
      </trkpt>
      <trkpt lat="45.85073" lon="4.35435">
        <ele>809.2</ele>
        <time>2025-09-10T07:08:38Z</time>
      </trkpt>
      <trkpt lat="45.85074" lon="4.35431">
        <ele>809.4</ele>
        <time>2025-09-10T07:08:39Z</time>
      </trkpt>
      <trkpt lat="45.85074" lon="4.35428">
        <ele>809.4</ele>
        <time>2025-09-10T07:08:40Z</time>
      </trkpt>
      <trkpt lat="45.85074" lon="4.35424">
        <ele>809.6</ele>
        <time>2025-09-10T07:08:41Z</time>
      </trkpt>
      <trkpt lat="45.85075" lon="4.35419">
        <ele>809.6</ele>
        <time>2025-09-10T07:08:42Z</time>
      </trkpt>
      <trkpt lat="45.85076" lon="4.35415">
        <ele>809.6</ele>
        <time>2025-09-10T07:08:43Z</time>
      </trkpt>
      <trkpt lat="45.85077" lon="4.35412">
        <ele>809.8</ele>
        <time>2025-09-10T07:08:44Z</time>
      </trkpt>
      <trkpt lat="45.85078" lon="4.35409">
        <ele>810.2</ele>
        <time>2025-09-10T07:08:45Z</time>
      </trkpt>
      <trkpt lat="45.8508" lon="4.35406">
        <ele>810.2</ele>
        <time>2025-09-10T07:08:46Z</time>
      </trkpt>
      <trkpt lat="45.85081" lon="4.35404">
        <ele>810.4</ele>
        <time>2025-09-10T07:08:47Z</time>
      </trkpt>
      <trkpt lat="45.85082" lon="4.35403">
        <ele>810.4</ele>
        <time>2025-09-10T07:08:48Z</time>
      </trkpt>
      <trkpt lat="45.85083" lon="4.35402">
        <ele>810.4</ele>
        <time>2025-09-10T07:08:49Z</time>
      </trkpt>
      <trkpt lat="45.85084" lon="4.35401">
        <ele>810.4</ele>
        <time>2025-09-10T07:08:50Z</time>
      </trkpt>
      <trkpt lat="45.85085" lon="4.354">
        <ele>810.6</ele>
        <time>2025-09-10T07:08:51Z</time>
      </trkpt>
      <trkpt lat="45.85086" lon="4.354">
        <ele>810.6</ele>
        <time>2025-09-10T07:08:52Z</time>
      </trkpt>
      <trkpt lat="45.85087" lon="4.35399">
        <ele>811</ele>
        <time>2025-09-10T07:08:53Z</time>
      </trkpt>
      <trkpt lat="45.85089" lon="4.35399">
        <ele>811</ele>
        <time>2025-09-10T07:08:54Z</time>
      </trkpt>
      <trkpt lat="45.8509" lon="4.35399">
        <ele>811</ele>
        <time>2025-09-10T07:08:55Z</time>
      </trkpt>
      <trkpt lat="45.85092" lon="4.354">
        <ele>811.2</ele>
        <time>2025-09-10T07:08:56Z</time>
      </trkpt>
      <trkpt lat="45.85094" lon="4.35401">
        <ele>811.2</ele>
        <time>2025-09-10T07:08:57Z</time>
      </trkpt>
      <trkpt lat="45.85096" lon="4.35403">
        <ele>811.2</ele>
        <time>2025-09-10T07:08:58Z</time>
      </trkpt>
      <trkpt lat="45.85097" lon="4.35406">
        <ele>811.2</ele>
        <time>2025-09-10T07:08:59Z</time>
      </trkpt>
      <trkpt lat="45.85098" lon="4.35409">
        <ele>811.2</ele>
        <time>2025-09-10T07:09:00Z</time>
      </trkpt>
      <trkpt lat="45.851" lon="4.35411">
        <ele>811.4</ele>
        <time>2025-09-10T07:09:01Z</time>
      </trkpt>
      <trkpt lat="45.85101" lon="4.35414">
        <ele>811.6</ele>
        <time>2025-09-10T07:09:02Z</time>
      </trkpt>
      <trkpt lat="45.85103" lon="4.35416">
        <ele>811.6</ele>
        <time>2025-09-10T07:09:03Z</time>
      </trkpt>
      <trkpt lat="45.85104" lon="4.35419">
        <ele>811.6</ele>
        <time>2025-09-10T07:09:04Z</time>
      </trkpt>
      <trkpt lat="45.85105" lon="4.35422">
        <ele>812</ele>
        <time>2025-09-10T07:09:05Z</time>
      </trkpt>
      <trkpt lat="45.85106" lon="4.35424">
        <ele>812</ele>
        <time>2025-09-10T07:09:06Z</time>
      </trkpt>
      <trkpt lat="45.85107" lon="4.35427">
        <ele>812</ele>
        <time>2025-09-10T07:09:07Z</time>
      </trkpt>
      <trkpt lat="45.85109" lon="4.3543">
        <ele>812.4</ele>
        <time>2025-09-10T07:09:08Z</time>
      </trkpt>
      <trkpt lat="45.8511" lon="4.35432">
        <ele>812.4</ele>
        <time>2025-09-10T07:09:09Z</time>
      </trkpt>
      <trkpt lat="45.85112" lon="4.35434">
        <ele>812.6</ele>
        <time>2025-09-10T07:09:10Z</time>
      </trkpt>
      <trkpt lat="45.85114" lon="4.35436">
        <ele>812.6</ele>
        <time>2025-09-10T07:09:11Z</time>
      </trkpt>
      <trkpt lat="45.85116" lon="4.35439">
        <ele>813</ele>
        <time>2025-09-10T07:09:12Z</time>
      </trkpt>
      <trkpt lat="45.85119" lon="4.35443">
        <ele>813</ele>
        <time>2025-09-10T07:09:13Z</time>
      </trkpt>
      <trkpt lat="45.85121" lon="4.35446">
        <ele>813</ele>
        <time>2025-09-10T07:09:14Z</time>
      </trkpt>
      <trkpt lat="45.85122" lon="4.35449">
        <ele>813.2</ele>
        <time>2025-09-10T07:09:15Z</time>
      </trkpt>
      <trkpt lat="45.85123" lon="4.35451">
        <ele>813.2</ele>
        <time>2025-09-10T07:09:16Z</time>
      </trkpt>
      <trkpt lat="45.85124" lon="4.35453">
        <ele>813.2</ele>
        <time>2025-09-10T07:09:17Z</time>
      </trkpt>
      <trkpt lat="45.85126" lon="4.35456">
        <ele>813.4</ele>
        <time>2025-09-10T07:09:18Z</time>
      </trkpt>
      <trkpt lat="45.85127" lon="4.35458">
        <ele>814</ele>
        <time>2025-09-10T07:09:19Z</time>
      </trkpt>
      <trkpt lat="45.85129" lon="4.35459">
        <ele>814</ele>
        <time>2025-09-10T07:09:20Z</time>
      </trkpt>
      <trkpt lat="45.8513" lon="4.35461">
        <ele>814</ele>
        <time>2025-09-10T07:09:21Z</time>
      </trkpt>
      <trkpt lat="45.85131" lon="4.35464">
        <ele>814</ele>
        <time>2025-09-10T07:09:22Z</time>
      </trkpt>
      <trkpt lat="45.85133" lon="4.35465">
        <ele>814.4</ele>
        <time>2025-09-10T07:09:23Z</time>
      </trkpt>
      <trkpt lat="45.85134" lon="4.35467">
        <ele>814.6</ele>
        <time>2025-09-10T07:09:24Z</time>
      </trkpt>
      <trkpt lat="45.85136" lon="4.3547">
        <ele>814.6</ele>
        <time>2025-09-10T07:09:25Z</time>
      </trkpt>
      <trkpt lat="45.85138" lon="4.35472">
        <ele>814.8</ele>
        <time>2025-09-10T07:09:26Z</time>
      </trkpt>
      <trkpt lat="45.85139" lon="4.35474">
        <ele>814.8</ele>
        <time>2025-09-10T07:09:27Z</time>
      </trkpt>
      <trkpt lat="45.85141" lon="4.35477">
        <ele>814.8</ele>
        <time>2025-09-10T07:09:28Z</time>
      </trkpt>
      <trkpt lat="45.85142" lon="4.35479">
        <ele>815.2</ele>
        <time>2025-09-10T07:09:29Z</time>
      </trkpt>
      <trkpt lat="45.85144" lon="4.35481">
        <ele>815.2</ele>
        <time>2025-09-10T07:09:30Z</time>
      </trkpt>
      <trkpt lat="45.85145" lon="4.35483">
        <ele>815.4</ele>
        <time>2025-09-10T07:09:31Z</time>
      </trkpt>
      <trkpt lat="45.85146" lon="4.35485">
        <ele>815.4</ele>
        <time>2025-09-10T07:09:32Z</time>
      </trkpt>
      <trkpt lat="45.85148" lon="4.35487">
        <ele>815.2</ele>
        <time>2025-09-10T07:09:33Z</time>
      </trkpt>
      <trkpt lat="45.85149" lon="4.35488">
        <ele>815.2</ele>
        <time>2025-09-10T07:09:34Z</time>
      </trkpt>
      <trkpt lat="45.8515" lon="4.3549">
        <ele>814.4</ele>
        <time>2025-09-10T07:09:35Z</time>
      </trkpt>
      <trkpt lat="45.8515" lon="4.3549">
        <ele>815.6</ele>
        <time>2025-09-10T07:09:36Z</time>
      </trkpt>
      <trkpt lat="45.85152" lon="4.35492">
        <ele>815.6</ele>
        <time>2025-09-10T07:09:37Z</time>
      </trkpt>
      <trkpt lat="45.85153" lon="4.35494">
        <ele>816</ele>
        <time>2025-09-10T07:09:38Z</time>
      </trkpt>
      <trkpt lat="45.85154" lon="4.35497">
        <ele>816</ele>
        <time>2025-09-10T07:09:39Z</time>
      </trkpt>
      <trkpt lat="45.85156" lon="4.35499">
        <ele>816.2</ele>
        <time>2025-09-10T07:09:40Z</time>
      </trkpt>
      <trkpt lat="45.85157" lon="4.35501">
        <ele>815.8</ele>
        <time>2025-09-10T07:09:41Z</time>
      </trkpt>
      <trkpt lat="45.85158" lon="4.35503">
        <ele>816.6</ele>
        <time>2025-09-10T07:09:42Z</time>
      </trkpt>
      <trkpt lat="45.85159" lon="4.35505">
        <ele>816.8</ele>
        <time>2025-09-10T07:09:43Z</time>
      </trkpt>
      <trkpt lat="45.8516" lon="4.35508">
        <ele>816.8</ele>
        <time>2025-09-10T07:09:44Z</time>
      </trkpt>
      <trkpt lat="45.85162" lon="4.3551">
        <ele>817.2</ele>
        <time>2025-09-10T07:09:45Z</time>
      </trkpt>
      <trkpt lat="45.85164" lon="4.35512">
        <ele>817.2</ele>
        <time>2025-09-10T07:09:46Z</time>
      </trkpt>
      <trkpt lat="45.85165" lon="4.35514">
        <ele>817.2</ele>
        <time>2025-09-10T07:09:47Z</time>
      </trkpt>
      <trkpt lat="45.85167" lon="4.35516">
        <ele>817.2</ele>
        <time>2025-09-10T07:09:48Z</time>
      </trkpt>
      <trkpt lat="45.85168" lon="4.35518">
        <ele>817.4</ele>
        <time>2025-09-10T07:09:49Z</time>
      </trkpt>
      <trkpt lat="45.85169" lon="4.3552">
        <ele>817.4</ele>
        <time>2025-09-10T07:09:50Z</time>
      </trkpt>
      <trkpt lat="45.8517" lon="4.35522">
        <ele>817.4</ele>
        <time>2025-09-10T07:09:51Z</time>
      </trkpt>
      <trkpt lat="45.85171" lon="4.35524">
        <ele>817.4</ele>
        <time>2025-09-10T07:09:52Z</time>
      </trkpt>
      <trkpt lat="45.85172" lon="4.35527">
        <ele>817.4</ele>
        <time>2025-09-10T07:09:53Z</time>
      </trkpt>
      <trkpt lat="45.85173" lon="4.35529">
        <ele>817.6</ele>
        <time>2025-09-10T07:09:54Z</time>
      </trkpt>
      <trkpt lat="45.85174" lon="4.35531">
        <ele>817.6</ele>
        <time>2025-09-10T07:09:55Z</time>
      </trkpt>
      <trkpt lat="45.85175" lon="4.35534">
        <ele>817.6</ele>
        <time>2025-09-10T07:09:56Z</time>
      </trkpt>
      <trkpt lat="45.85176" lon="4.35536">
        <ele>817.8</ele>
        <time>2025-09-10T07:09:57Z</time>
      </trkpt>
      <trkpt lat="45.85177" lon="4.35538">
        <ele>817.8</ele>
        <time>2025-09-10T07:09:58Z</time>
      </trkpt>
      <trkpt lat="45.85178" lon="4.35541">
        <ele>818.2</ele>
        <time>2025-09-10T07:09:59Z</time>
      </trkpt>
      <trkpt lat="45.8518" lon="4.35543">
        <ele>818.2</ele>
        <time>2025-09-10T07:10:00Z</time>
      </trkpt>
      <trkpt lat="45.85181" lon="4.35545">
        <ele>818.4</ele>
        <time>2025-09-10T07:10:01Z</time>
      </trkpt>
      <trkpt lat="45.85183" lon="4.35547">
        <ele>818.4</ele>
        <time>2025-09-10T07:10:02Z</time>
      </trkpt>
      <trkpt lat="45.85184" lon="4.35548">
        <ele>818.6</ele>
        <time>2025-09-10T07:10:03Z</time>
      </trkpt>
      <trkpt lat="45.85185" lon="4.3555">
        <ele>818.6</ele>
        <time>2025-09-10T07:10:04Z</time>
      </trkpt>
      <trkpt lat="45.85187" lon="4.35552">
        <ele>818.8</ele>
        <time>2025-09-10T07:10:05Z</time>
      </trkpt>
      <trkpt lat="45.85189" lon="4.35554">
        <ele>818.8</ele>
        <time>2025-09-10T07:10:06Z</time>
      </trkpt>
      <trkpt lat="45.8519" lon="4.35556">
        <ele>819.2</ele>
        <time>2025-09-10T07:10:07Z</time>
      </trkpt>
      <trkpt lat="45.85192" lon="4.35557">
        <ele>819.2</ele>
        <time>2025-09-10T07:10:08Z</time>
      </trkpt>
      <trkpt lat="45.85193" lon="4.35559">
        <ele>819.4</ele>
        <time>2025-09-10T07:10:09Z</time>
      </trkpt>
      <trkpt lat="45.85194" lon="4.35561">
        <ele>819.4</ele>
        <time>2025-09-10T07:10:10Z</time>
      </trkpt>
      <trkpt lat="45.85196" lon="4.35563">
        <ele>819.4</ele>
        <time>2025-09-10T07:10:11Z</time>
      </trkpt>
      <trkpt lat="45.85197" lon="4.35565">
        <ele>819.4</ele>
        <time>2025-09-10T07:10:12Z</time>
      </trkpt>
      <trkpt lat="45.85198" lon="4.35567">
        <ele>819.8</ele>
        <time>2025-09-10T07:10:13Z</time>
      </trkpt>
      <trkpt lat="45.85199" lon="4.35569">
        <ele>819.8</ele>
        <time>2025-09-10T07:10:14Z</time>
      </trkpt>
      <trkpt lat="45.852" lon="4.35571">
        <ele>820.2</ele>
        <time>2025-09-10T07:10:15Z</time>
      </trkpt>
      <trkpt lat="45.85201" lon="4.35573">
        <ele>820.2</ele>
        <time>2025-09-10T07:10:16Z</time>
      </trkpt>
      <trkpt lat="45.85203" lon="4.35575">
        <ele>820.2</ele>
        <time>2025-09-10T07:10:17Z</time>
      </trkpt>
      <trkpt lat="45.85204" lon="4.35577">
        <ele>820.4</ele>
        <time>2025-09-10T07:10:18Z</time>
      </trkpt>
      <trkpt lat="45.85204" lon="4.35579">
        <ele>820.4</ele>
        <time>2025-09-10T07:10:19Z</time>
      </trkpt>
      <trkpt lat="45.85204" lon="4.35581">
        <ele>820.8</ele>
        <time>2025-09-10T07:10:20Z</time>
      </trkpt>
      <trkpt lat="45.85205" lon="4.35585">
        <ele>820.8</ele>
        <time>2025-09-10T07:10:21Z</time>
      </trkpt>
      <trkpt lat="45.85207" lon="4.35588">
        <ele>821</ele>
        <time>2025-09-10T07:10:22Z</time>
      </trkpt>
      <trkpt lat="45.85208" lon="4.3559">
        <ele>821</ele>
        <time>2025-09-10T07:10:23Z</time>
      </trkpt>
      <trkpt lat="45.8521" lon="4.35591">
        <ele>821.4</ele>
        <time>2025-09-10T07:10:24Z</time>
      </trkpt>
      <trkpt lat="45.85212" lon="4.35593">
        <ele>821.4</ele>
        <time>2025-09-10T07:10:25Z</time>
      </trkpt>
      <trkpt lat="45.85213" lon="4.35595">
        <ele>821.6</ele>
        <time>2025-09-10T07:10:26Z</time>
      </trkpt>
      <trkpt lat="45.85215" lon="4.35597">
        <ele>821.6</ele>
        <time>2025-09-10T07:10:27Z</time>
      </trkpt>
      <trkpt lat="45.85216" lon="4.35598">
        <ele>821.8</ele>
        <time>2025-09-10T07:10:28Z</time>
      </trkpt>
      <trkpt lat="45.85217" lon="4.356">
        <ele>821.8</ele>
        <time>2025-09-10T07:10:29Z</time>
      </trkpt>
      <trkpt lat="45.85219" lon="4.35602">
        <ele>822.2</ele>
        <time>2025-09-10T07:10:30Z</time>
      </trkpt>
      <trkpt lat="45.8522" lon="4.35603">
        <ele>822.2</ele>
        <time>2025-09-10T07:10:31Z</time>
      </trkpt>
      <trkpt lat="45.85221" lon="4.35605">
        <ele>822.4</ele>
        <time>2025-09-10T07:10:32Z</time>
      </trkpt>
      <trkpt lat="45.85223" lon="4.35607">
        <ele>822.4</ele>
        <time>2025-09-10T07:10:33Z</time>
      </trkpt>
      <trkpt lat="45.85224" lon="4.35609">
        <ele>822.6</ele>
        <time>2025-09-10T07:10:34Z</time>
      </trkpt>
      <trkpt lat="45.85226" lon="4.35611">
        <ele>822.6</ele>
        <time>2025-09-10T07:10:35Z</time>
      </trkpt>
      <trkpt lat="45.85227" lon="4.35612">
        <ele>822.6</ele>
        <time>2025-09-10T07:10:36Z</time>
      </trkpt>
      <trkpt lat="45.85229" lon="4.35615">
        <ele>823.2</ele>
        <time>2025-09-10T07:10:37Z</time>
      </trkpt>
      <trkpt lat="45.8523" lon="4.35617">
        <ele>823.2</ele>
        <time>2025-09-10T07:10:38Z</time>
      </trkpt>
      <trkpt lat="45.85232" lon="4.35619">
        <ele>823.2</ele>
        <time>2025-09-10T07:10:39Z</time>
      </trkpt>
      <trkpt lat="45.85233" lon="4.35622">
        <ele>823.4</ele>
        <time>2025-09-10T07:10:40Z</time>
      </trkpt>
      <trkpt lat="45.85234" lon="4.35623">
        <ele>823.4</ele>
        <time>2025-09-10T07:10:41Z</time>
      </trkpt>
      <trkpt lat="45.85235" lon="4.35625">
        <ele>824.2</ele>
        <time>2025-09-10T07:10:42Z</time>
      </trkpt>
      <trkpt lat="45.85236" lon="4.35628">
        <ele>824.2</ele>
        <time>2025-09-10T07:10:43Z</time>
      </trkpt>
      <trkpt lat="45.85238" lon="4.3563">
        <ele>824.2</ele>
        <time>2025-09-10T07:10:44Z</time>
      </trkpt>
      <trkpt lat="45.85239" lon="4.35632">
        <ele>824.2</ele>
        <time>2025-09-10T07:10:45Z</time>
      </trkpt>
      <trkpt lat="45.85241" lon="4.35633">
        <ele>824.4</ele>
        <time>2025-09-10T07:10:46Z</time>
      </trkpt>
      <trkpt lat="45.85242" lon="4.35635">
        <ele>823.4</ele>
        <time>2025-09-10T07:10:47Z</time>
      </trkpt>
      <trkpt lat="45.85243" lon="4.35636">
        <ele>824.4</ele>
        <time>2025-09-10T07:10:48Z</time>
      </trkpt>
      <trkpt lat="45.85245" lon="4.35638">
        <ele>824.4</ele>
        <time>2025-09-10T07:10:49Z</time>
      </trkpt>
      <trkpt lat="45.85245" lon="4.35639">
        <ele>824.8</ele>
        <time>2025-09-10T07:10:50Z</time>
      </trkpt>
      <trkpt lat="45.85247" lon="4.35641">
        <ele>824.8</ele>
        <time>2025-09-10T07:10:51Z</time>
      </trkpt>
      <trkpt lat="45.85248" lon="4.35643">
        <ele>824.8</ele>
        <time>2025-09-10T07:10:52Z</time>
      </trkpt>
      <trkpt lat="45.85249" lon="4.35645">
        <ele>825</ele>
        <time>2025-09-10T07:10:53Z</time>
      </trkpt>
      <trkpt lat="45.8525" lon="4.35647">
        <ele>825</ele>
        <time>2025-09-10T07:10:54Z</time>
      </trkpt>
      <trkpt lat="45.85251" lon="4.3565">
        <ele>825.4</ele>
        <time>2025-09-10T07:10:55Z</time>
      </trkpt>
      <trkpt lat="45.85251" lon="4.35652">
        <ele>825.4</ele>
        <time>2025-09-10T07:10:56Z</time>
      </trkpt>
      <trkpt lat="45.85252" lon="4.35654">
        <ele>825.6</ele>
        <time>2025-09-10T07:10:57Z</time>
      </trkpt>
      <trkpt lat="45.85252" lon="4.35656">
        <ele>825.6</ele>
        <time>2025-09-10T07:10:58Z</time>
      </trkpt>
      <trkpt lat="45.85252" lon="4.35659">
        <ele>826</ele>
        <time>2025-09-10T07:10:59Z</time>
      </trkpt>
      <trkpt lat="45.85253" lon="4.35661">
        <ele>826.2</ele>
        <time>2025-09-10T07:11:00Z</time>
      </trkpt>
      <trkpt lat="45.85254" lon="4.35664">
        <ele>826.2</ele>
        <time>2025-09-10T07:11:01Z</time>
      </trkpt>
      <trkpt lat="45.85256" lon="4.35665">
        <ele>826.4</ele>
        <time>2025-09-10T07:11:02Z</time>
      </trkpt>
      <trkpt lat="45.85257" lon="4.35667">
        <ele>826.4</ele>
        <time>2025-09-10T07:11:03Z</time>
      </trkpt>
      <trkpt lat="45.85259" lon="4.35669">
        <ele>826.4</ele>
        <time>2025-09-10T07:11:04Z</time>
      </trkpt>
      <trkpt lat="45.85261" lon="4.35671">
        <ele>826.6</ele>
        <time>2025-09-10T07:11:05Z</time>
      </trkpt>
      <trkpt lat="45.85262" lon="4.35673">
        <ele>826.6</ele>
        <time>2025-09-10T07:11:06Z</time>
      </trkpt>
      <trkpt lat="45.85263" lon="4.35674">
        <ele>826.6</ele>
        <time>2025-09-10T07:11:07Z</time>
      </trkpt>
      <trkpt lat="45.85264" lon="4.35676">
        <ele>827</ele>
        <time>2025-09-10T07:11:08Z</time>
      </trkpt>
      <trkpt lat="45.85264" lon="4.35678">
        <ele>827</ele>
        <time>2025-09-10T07:11:09Z</time>
      </trkpt>
      <trkpt lat="45.85265" lon="4.3568">
        <ele>827</ele>
        <time>2025-09-10T07:11:10Z</time>
      </trkpt>
      <trkpt lat="45.85266" lon="4.35682">
        <ele>827.2</ele>
        <time>2025-09-10T07:11:11Z</time>
      </trkpt>
      <trkpt lat="45.85267" lon="4.35683">
        <ele>827.2</ele>
        <time>2025-09-10T07:11:12Z</time>
      </trkpt>
      <trkpt lat="45.85268" lon="4.35685">
        <ele>827.2</ele>
        <time>2025-09-10T07:11:13Z</time>
      </trkpt>
      <trkpt lat="45.85269" lon="4.35687">
        <ele>827.6</ele>
        <time>2025-09-10T07:11:14Z</time>
      </trkpt>
      <trkpt lat="45.85269" lon="4.35688">
        <ele>827.6</ele>
        <time>2025-09-10T07:11:15Z</time>
      </trkpt>
      <trkpt lat="45.8527" lon="4.3569">
        <ele>828</ele>
        <time>2025-09-10T07:11:16Z</time>
      </trkpt>
      <trkpt lat="45.85271" lon="4.35692">
        <ele>828</ele>
        <time>2025-09-10T07:11:17Z</time>
      </trkpt>
      <trkpt lat="45.85273" lon="4.35694">
        <ele>828</ele>
        <time>2025-09-10T07:11:18Z</time>
      </trkpt>
      <trkpt lat="45.85274" lon="4.35696">
        <ele>828.2</ele>
        <time>2025-09-10T07:11:19Z</time>
      </trkpt>
      <trkpt lat="45.85275" lon="4.35699">
        <ele>828.2</ele>
        <time>2025-09-10T07:11:20Z</time>
      </trkpt>
      <trkpt lat="45.85275" lon="4.35701">
        <ele>828.4</ele>
        <time>2025-09-10T07:11:21Z</time>
      </trkpt>
      <trkpt lat="45.85276" lon="4.35704">
        <ele>828.8</ele>
        <time>2025-09-10T07:11:22Z</time>
      </trkpt>
      <trkpt lat="45.85278" lon="4.35706">
        <ele>828.8</ele>
        <time>2025-09-10T07:11:23Z</time>
      </trkpt>
      <trkpt lat="45.85279" lon="4.35708">
        <ele>829</ele>
        <time>2025-09-10T07:11:24Z</time>
      </trkpt>
      <trkpt lat="45.8528" lon="4.3571">
        <ele>829</ele>
        <time>2025-09-10T07:11:25Z</time>
      </trkpt>
      <trkpt lat="45.85281" lon="4.35712">
        <ele>829.4</ele>
        <time>2025-09-10T07:11:26Z</time>
      </trkpt>
      <trkpt lat="45.85282" lon="4.35713">
        <ele>829.4</ele>
        <time>2025-09-10T07:11:27Z</time>
      </trkpt>
      <trkpt lat="45.85284" lon="4.35715">
        <ele>829.4</ele>
        <time>2025-09-10T07:11:28Z</time>
      </trkpt>
      <trkpt lat="45.85286" lon="4.35717">
        <ele>829.8</ele>
        <time>2025-09-10T07:11:29Z</time>
      </trkpt>
      <trkpt lat="45.85287" lon="4.35719">
        <ele>830</ele>
        <time>2025-09-10T07:11:30Z</time>
      </trkpt>
      <trkpt lat="45.85289" lon="4.35721">
        <ele>830</ele>
        <time>2025-09-10T07:11:31Z</time>
      </trkpt>
      <trkpt lat="45.85289" lon="4.35722">
        <ele>830.2</ele>
        <time>2025-09-10T07:11:32Z</time>
      </trkpt>
      <trkpt lat="45.85289" lon="4.35724">
        <ele>830.2</ele>
        <time>2025-09-10T07:11:33Z</time>
      </trkpt>
      <trkpt lat="45.8529" lon="4.35726">
        <ele>830.4</ele>
        <time>2025-09-10T07:11:34Z</time>
      </trkpt>
      <trkpt lat="45.8529" lon="4.35729">
        <ele>830.4</ele>
        <time>2025-09-10T07:11:35Z</time>
      </trkpt>
      <trkpt lat="45.85291" lon="4.35731">
        <ele>830.4</ele>
        <time>2025-09-10T07:11:36Z</time>
      </trkpt>
      <trkpt lat="45.85292" lon="4.35734">
        <ele>830.6</ele>
        <time>2025-09-10T07:11:37Z</time>
      </trkpt>
      <trkpt lat="45.85293" lon="4.35736">
        <ele>830.6</ele>
        <time>2025-09-10T07:11:38Z</time>
      </trkpt>
      <trkpt lat="45.85293" lon="4.35738">
        <ele>830.6</ele>
        <time>2025-09-10T07:11:39Z</time>
      </trkpt>
      <trkpt lat="45.85294" lon="4.35741">
        <ele>830.6</ele>
        <time>2025-09-10T07:11:40Z</time>
      </trkpt>
      <trkpt lat="45.85295" lon="4.35743">
        <ele>831</ele>
        <time>2025-09-10T07:11:41Z</time>
      </trkpt>
      <trkpt lat="45.85296" lon="4.35746">
        <ele>831</ele>
        <time>2025-09-10T07:11:42Z</time>
      </trkpt>
      <trkpt lat="45.85296" lon="4.35748">
        <ele>831</ele>
        <time>2025-09-10T07:11:43Z</time>
      </trkpt>
      <trkpt lat="45.85296" lon="4.35751">
        <ele>831</ele>
        <time>2025-09-10T07:11:44Z</time>
      </trkpt>
      <trkpt lat="45.85296" lon="4.35754">
        <ele>831</ele>
        <time>2025-09-10T07:11:45Z</time>
      </trkpt>
      <trkpt lat="45.85297" lon="4.35757">
        <ele>831.2</ele>
        <time>2025-09-10T07:11:46Z</time>
      </trkpt>
      <trkpt lat="45.85297" lon="4.3576">
        <ele>831.2</ele>
        <time>2025-09-10T07:11:47Z</time>
      </trkpt>
      <trkpt lat="45.85297" lon="4.35763">
        <ele>831.4</ele>
        <time>2025-09-10T07:11:48Z</time>
      </trkpt>
      <trkpt lat="45.85298" lon="4.35765">
        <ele>831.4</ele>
        <time>2025-09-10T07:11:49Z</time>
      </trkpt>
      <trkpt lat="45.85298" lon="4.35768">
        <ele>831.4</ele>
        <time>2025-09-10T07:11:50Z</time>
      </trkpt>
      <trkpt lat="45.85299" lon="4.35771">
        <ele>831.4</ele>
        <time>2025-09-10T07:11:51Z</time>
      </trkpt>
      <trkpt lat="45.853" lon="4.35774">
        <ele>831.4</ele>
        <time>2025-09-10T07:11:52Z</time>
      </trkpt>
      <trkpt lat="45.85301" lon="4.35777">
        <ele>831.4</ele>
        <time>2025-09-10T07:11:53Z</time>
      </trkpt>
      <trkpt lat="45.85301" lon="4.3578">
        <ele>831.6</ele>
        <time>2025-09-10T07:11:54Z</time>
      </trkpt>
      <trkpt lat="45.85301" lon="4.35783">
        <ele>831.6</ele>
        <time>2025-09-10T07:11:55Z</time>
      </trkpt>
      <trkpt lat="45.85302" lon="4.35785">
        <ele>831.6</ele>
        <time>2025-09-10T07:11:56Z</time>
      </trkpt>
      <trkpt lat="45.85303" lon="4.35788">
        <ele>831.6</ele>
        <time>2025-09-10T07:11:57Z</time>
      </trkpt>
      <trkpt lat="45.85305" lon="4.3579">
        <ele>831.8</ele>
        <time>2025-09-10T07:11:58Z</time>
      </trkpt>
      <trkpt lat="45.85306" lon="4.35793">
        <ele>831.8</ele>
        <time>2025-09-10T07:11:59Z</time>
      </trkpt>
      <trkpt lat="45.85307" lon="4.35796">
        <ele>831.8</ele>
        <time>2025-09-10T07:12:00Z</time>
      </trkpt>
      <trkpt lat="45.85308" lon="4.35798">
        <ele>832.2</ele>
        <time>2025-09-10T07:12:01Z</time>
      </trkpt>
      <trkpt lat="45.8531" lon="4.358">
        <ele>832.2</ele>
        <time>2025-09-10T07:12:02Z</time>
      </trkpt>
      <trkpt lat="45.85311" lon="4.35803">
        <ele>832.2</ele>
        <time>2025-09-10T07:12:03Z</time>
      </trkpt>
      <trkpt lat="45.85313" lon="4.35805">
        <ele>832.2</ele>
        <time>2025-09-10T07:12:04Z</time>
      </trkpt>
      <trkpt lat="45.85314" lon="4.35808">
        <ele>832.4</ele>
        <time>2025-09-10T07:12:05Z</time>
      </trkpt>
      <trkpt lat="45.85316" lon="4.35811">
        <ele>832.4</ele>
        <time>2025-09-10T07:12:06Z</time>
      </trkpt>
      <trkpt lat="45.85318" lon="4.35813">
        <ele>832.8</ele>
        <time>2025-09-10T07:12:07Z</time>
      </trkpt>
      <trkpt lat="45.8532" lon="4.35815">
        <ele>832.8</ele>
        <time>2025-09-10T07:12:08Z</time>
      </trkpt>
      <trkpt lat="45.85322" lon="4.35818">
        <ele>832.8</ele>
        <time>2025-09-10T07:12:09Z</time>
      </trkpt>
      <trkpt lat="45.85324" lon="4.3582">
        <ele>833</ele>
        <time>2025-09-10T07:12:10Z</time>
      </trkpt>
      <trkpt lat="45.85325" lon="4.35822">
        <ele>832.8</ele>
        <time>2025-09-10T07:12:11Z</time>
      </trkpt>
      <trkpt lat="45.85327" lon="4.35823">
        <ele>832.8</ele>
        <time>2025-09-10T07:12:12Z</time>
      </trkpt>
      <trkpt lat="45.85329" lon="4.35826">
        <ele>832.8</ele>
        <time>2025-09-10T07:12:13Z</time>
      </trkpt>
      <trkpt lat="45.8533" lon="4.35828">
        <ele>832.8</ele>
        <time>2025-09-10T07:12:14Z</time>
      </trkpt>
      <trkpt lat="45.85332" lon="4.35831">
        <ele>832.8</ele>
        <time>2025-09-10T07:12:15Z</time>
      </trkpt>
      <trkpt lat="45.85333" lon="4.35833">
        <ele>833</ele>
        <time>2025-09-10T07:12:16Z</time>
      </trkpt>
      <trkpt lat="45.85334" lon="4.35835">
        <ele>833</ele>
        <time>2025-09-10T07:12:17Z</time>
      </trkpt>
      <trkpt lat="45.85336" lon="4.35838">
        <ele>833.2</ele>
        <time>2025-09-10T07:12:18Z</time>
      </trkpt>
      <trkpt lat="45.85338" lon="4.3584">
        <ele>833.2</ele>
        <time>2025-09-10T07:12:19Z</time>
      </trkpt>
      <trkpt lat="45.85339" lon="4.35842">
        <ele>833.6</ele>
        <time>2025-09-10T07:12:20Z</time>
      </trkpt>
      <trkpt lat="45.85341" lon="4.35844">
        <ele>833.6</ele>
        <time>2025-09-10T07:12:21Z</time>
      </trkpt>
      <trkpt lat="45.85342" lon="4.35846">
        <ele>834</ele>
        <time>2025-09-10T07:12:22Z</time>
      </trkpt>
      <trkpt lat="45.85343" lon="4.35848">
        <ele>834</ele>
        <time>2025-09-10T07:12:23Z</time>
      </trkpt>
      <trkpt lat="45.85345" lon="4.35851">
        <ele>834</ele>
        <time>2025-09-10T07:12:24Z</time>
      </trkpt>
      <trkpt lat="45.85347" lon="4.35853">
        <ele>834.4</ele>
        <time>2025-09-10T07:12:25Z</time>
      </trkpt>
      <trkpt lat="45.85349" lon="4.35854">
        <ele>834.6</ele>
        <time>2025-09-10T07:12:26Z</time>
      </trkpt>
      <trkpt lat="45.8535" lon="4.35856">
        <ele>834.6</ele>
        <time>2025-09-10T07:12:27Z</time>
      </trkpt>
      <trkpt lat="45.85352" lon="4.35858">
        <ele>835</ele>
        <time>2025-09-10T07:12:28Z</time>
      </trkpt>
      <trkpt lat="45.85353" lon="4.3586">
        <ele>835</ele>
        <time>2025-09-10T07:12:29Z</time>
      </trkpt>
      <trkpt lat="45.85354" lon="4.35861">
        <ele>835.4</ele>
        <time>2025-09-10T07:12:30Z</time>
      </trkpt>
      <trkpt lat="45.85355" lon="4.35862">
        <ele>835.6</ele>
        <time>2025-09-10T07:12:31Z</time>
      </trkpt>
      <trkpt lat="45.85357" lon="4.35863">
        <ele>835.8</ele>
        <time>2025-09-10T07:12:32Z</time>
      </trkpt>
      <trkpt lat="45.85359" lon="4.35864">
        <ele>836</ele>
        <time>2025-09-10T07:12:33Z</time>
      </trkpt>
      <trkpt lat="45.8536" lon="4.35865">
        <ele>836</ele>
        <time>2025-09-10T07:12:34Z</time>
      </trkpt>
      <trkpt lat="45.85362" lon="4.35866">
        <ele>836</ele>
        <time>2025-09-10T07:12:35Z</time>
      </trkpt>
      <trkpt lat="45.85363" lon="4.35868">
        <ele>836</ele>
        <time>2025-09-10T07:12:36Z</time>
      </trkpt>
      <trkpt lat="45.85365" lon="4.35869">
        <ele>836.2</ele>
        <time>2025-09-10T07:12:37Z</time>
      </trkpt>
      <trkpt lat="45.85366" lon="4.35871">
        <ele>836.6</ele>
        <time>2025-09-10T07:12:38Z</time>
      </trkpt>
      <trkpt lat="45.85367" lon="4.35872">
        <ele>836.6</ele>
        <time>2025-09-10T07:12:39Z</time>
      </trkpt>
      <trkpt lat="45.85369" lon="4.35874">
        <ele>836.8</ele>
        <time>2025-09-10T07:12:40Z</time>
      </trkpt>
      <trkpt lat="45.8537" lon="4.35875">
        <ele>836.8</ele>
        <time>2025-09-10T07:12:41Z</time>
      </trkpt>
      <trkpt lat="45.85371" lon="4.35878">
        <ele>836.8</ele>
        <time>2025-09-10T07:12:42Z</time>
      </trkpt>
      <trkpt lat="45.85371" lon="4.3588">
        <ele>836.8</ele>
        <time>2025-09-10T07:12:43Z</time>
      </trkpt>
      <trkpt lat="45.85372" lon="4.35883">
        <ele>837</ele>
        <time>2025-09-10T07:12:44Z</time>
      </trkpt>
      <trkpt lat="45.85372" lon="4.35885">
        <ele>837</ele>
        <time>2025-09-10T07:12:45Z</time>
      </trkpt>
      <trkpt lat="45.85372" lon="4.35888">
        <ele>837.4</ele>
        <time>2025-09-10T07:12:46Z</time>
      </trkpt>
      <trkpt lat="45.85371" lon="4.35891">
        <ele>837.4</ele>
        <time>2025-09-10T07:12:47Z</time>
      </trkpt>
      <trkpt lat="45.85371" lon="4.35893">
        <ele>837.8</ele>
        <time>2025-09-10T07:12:48Z</time>
      </trkpt>
      <trkpt lat="45.85372" lon="4.35895">
        <ele>837.8</ele>
        <time>2025-09-10T07:12:49Z</time>
      </trkpt>
      <trkpt lat="45.85372" lon="4.35897">
        <ele>837.8</ele>
        <time>2025-09-10T07:12:50Z</time>
      </trkpt>
      <trkpt lat="45.85373" lon="4.35899">
        <ele>838</ele>
        <time>2025-09-10T07:12:51Z</time>
      </trkpt>
      <trkpt lat="45.85374" lon="4.35902">
        <ele>838</ele>
        <time>2025-09-10T07:12:52Z</time>
      </trkpt>
      <trkpt lat="45.85374" lon="4.35904">
        <ele>838.4</ele>
        <time>2025-09-10T07:12:53Z</time>
      </trkpt>
      <trkpt lat="45.85374" lon="4.35906">
        <ele>838.6</ele>
        <time>2025-09-10T07:12:54Z</time>
      </trkpt>
      <trkpt lat="45.85375" lon="4.35908">
        <ele>838.6</ele>
        <time>2025-09-10T07:12:55Z</time>
      </trkpt>
      <trkpt lat="45.85375" lon="4.3591">
        <ele>838.8</ele>
        <time>2025-09-10T07:12:56Z</time>
      </trkpt>
      <trkpt lat="45.85376" lon="4.35912">
        <ele>838.8</ele>
        <time>2025-09-10T07:12:57Z</time>
      </trkpt>
      <trkpt lat="45.85377" lon="4.35914">
        <ele>839.2</ele>
        <time>2025-09-10T07:12:58Z</time>
      </trkpt>
      <trkpt lat="45.85379" lon="4.35918">
        <ele>839.2</ele>
        <time>2025-09-10T07:12:59Z</time>
      </trkpt>
      <trkpt lat="45.85379" lon="4.35918">
        <ele>839.4</ele>
        <time>2025-09-10T07:13:00Z</time>
      </trkpt>
      <trkpt lat="45.85379" lon="4.35918">
        <ele>839.4</ele>
        <time>2025-09-10T07:13:01Z</time>
      </trkpt>
      <trkpt lat="45.85379" lon="4.35918">
        <ele>839.4</ele>
        <time>2025-09-10T07:13:02Z</time>
      </trkpt>
      <trkpt lat="45.85381" lon="4.35927">
        <ele>839.8</ele>
        <time>2025-09-10T07:13:04Z</time>
      </trkpt>
      <trkpt lat="45.85382" lon="4.35929">
        <ele>839.8</ele>
        <time>2025-09-10T07:13:05Z</time>
      </trkpt>
      <trkpt lat="45.85382" lon="4.35932">
        <ele>840.2</ele>
        <time>2025-09-10T07:13:06Z</time>
      </trkpt>
      <trkpt lat="45.85383" lon="4.35934">
        <ele>840.2</ele>
        <time>2025-09-10T07:13:07Z</time>
      </trkpt>
      <trkpt lat="45.85384" lon="4.35936">
        <ele>840.6</ele>
        <time>2025-09-10T07:13:08Z</time>
      </trkpt>
      <trkpt lat="45.85384" lon="4.35938">
        <ele>840.6</ele>
        <time>2025-09-10T07:13:09Z</time>
      </trkpt>
      <trkpt lat="45.85385" lon="4.3594">
        <ele>840.8</ele>
        <time>2025-09-10T07:13:10Z</time>
      </trkpt>
      <trkpt lat="45.85385" lon="4.35942">
        <ele>840.8</ele>
        <time>2025-09-10T07:13:11Z</time>
      </trkpt>
      <trkpt lat="45.85386" lon="4.35944">
        <ele>841</ele>
        <time>2025-09-10T07:13:12Z</time>
      </trkpt>
      <trkpt lat="45.85387" lon="4.35946">
        <ele>841</ele>
        <time>2025-09-10T07:13:13Z</time>
      </trkpt>
      <trkpt lat="45.85388" lon="4.35949">
        <ele>841</ele>
        <time>2025-09-10T07:13:14Z</time>
      </trkpt>
      <trkpt lat="45.85389" lon="4.35951">
        <ele>841.4</ele>
        <time>2025-09-10T07:13:15Z</time>
      </trkpt>
      <trkpt lat="45.8539" lon="4.35953">
        <ele>841.4</ele>
        <time>2025-09-10T07:13:16Z</time>
      </trkpt>
      <trkpt lat="45.85391" lon="4.35955">
        <ele>841.6</ele>
        <time>2025-09-10T07:13:17Z</time>
      </trkpt>
      <trkpt lat="45.85392" lon="4.35957">
        <ele>841.6</ele>
        <time>2025-09-10T07:13:18Z</time>
      </trkpt>
      <trkpt lat="45.85393" lon="4.35958">
        <ele>841.6</ele>
        <time>2025-09-10T07:13:19Z</time>
      </trkpt>
      <trkpt lat="45.85394" lon="4.3596">
        <ele>841.6</ele>
        <time>2025-09-10T07:13:20Z</time>
      </trkpt>
      <trkpt lat="45.85395" lon="4.35961">
        <ele>842</ele>
        <time>2025-09-10T07:13:21Z</time>
      </trkpt>
      <trkpt lat="45.85395" lon="4.35963">
        <ele>842</ele>
        <time>2025-09-10T07:13:22Z</time>
      </trkpt>
      <trkpt lat="45.85396" lon="4.35965">
        <ele>842.4</ele>
        <time>2025-09-10T07:13:23Z</time>
      </trkpt>
      <trkpt lat="45.85397" lon="4.35967">
        <ele>842.4</ele>
        <time>2025-09-10T07:13:24Z</time>
      </trkpt>
      <trkpt lat="45.85397" lon="4.35967">
        <ele>842.6</ele>
        <time>2025-09-10T07:13:25Z</time>
      </trkpt>
      <trkpt lat="45.85399" lon="4.35971">
        <ele>842.6</ele>
        <time>2025-09-10T07:13:26Z</time>
      </trkpt>
      <trkpt lat="45.854" lon="4.35973">
        <ele>842.6</ele>
        <time>2025-09-10T07:13:27Z</time>
      </trkpt>
      <trkpt lat="45.85401" lon="4.35974">
        <ele>843</ele>
        <time>2025-09-10T07:13:28Z</time>
      </trkpt>
      <trkpt lat="45.85402" lon="4.35976">
        <ele>843</ele>
        <time>2025-09-10T07:13:29Z</time>
      </trkpt>
      <trkpt lat="45.85403" lon="4.35977">
        <ele>843</ele>
        <time>2025-09-10T07:13:30Z</time>
      </trkpt>
      <trkpt lat="45.85404" lon="4.35979">
        <ele>843</ele>
        <time>2025-09-10T07:13:31Z</time>
      </trkpt>
      <trkpt lat="45.85405" lon="4.3598">
        <ele>843.2</ele>
        <time>2025-09-10T07:13:32Z</time>
      </trkpt>
      <trkpt lat="45.85406" lon="4.35981">
        <ele>843.2</ele>
        <time>2025-09-10T07:13:33Z</time>
      </trkpt>
      <trkpt lat="45.85407" lon="4.35983">
        <ele>843.2</ele>
        <time>2025-09-10T07:13:34Z</time>
      </trkpt>
      <trkpt lat="45.85409" lon="4.35985">
        <ele>843.4</ele>
        <time>2025-09-10T07:13:35Z</time>
      </trkpt>
      <trkpt lat="45.8541" lon="4.35986">
        <ele>843.4</ele>
        <time>2025-09-10T07:13:36Z</time>
      </trkpt>
      <trkpt lat="45.85411" lon="4.35988">
        <ele>843.4</ele>
        <time>2025-09-10T07:13:37Z</time>
      </trkpt>
      <trkpt lat="45.85412" lon="4.35989">
        <ele>843.8</ele>
        <time>2025-09-10T07:13:38Z</time>
      </trkpt>
      <trkpt lat="45.85413" lon="4.35991">
        <ele>843.8</ele>
        <time>2025-09-10T07:13:39Z</time>
      </trkpt>
      <trkpt lat="45.85414" lon="4.35992">
        <ele>844</ele>
        <time>2025-09-10T07:13:40Z</time>
      </trkpt>
      <trkpt lat="45.85415" lon="4.35994">
        <ele>844</ele>
        <time>2025-09-10T07:13:41Z</time>
      </trkpt>
      <trkpt lat="45.85416" lon="4.35996">
        <ele>844</ele>
        <time>2025-09-10T07:13:42Z</time>
      </trkpt>
      <trkpt lat="45.85417" lon="4.35998">
        <ele>844.2</ele>
        <time>2025-09-10T07:13:43Z</time>
      </trkpt>
      <trkpt lat="45.85418" lon="4.35999">
        <ele>844.2</ele>
        <time>2025-09-10T07:13:44Z</time>
      </trkpt>
      <trkpt lat="45.85419" lon="4.36001">
        <ele>844.2</ele>
        <time>2025-09-10T07:13:45Z</time>
      </trkpt>
      <trkpt lat="45.8542" lon="4.36002">
        <ele>844.4</ele>
        <time>2025-09-10T07:13:46Z</time>
      </trkpt>
      <trkpt lat="45.85422" lon="4.36004">
        <ele>844.4</ele>
        <time>2025-09-10T07:13:47Z</time>
      </trkpt>
      <trkpt lat="45.85423" lon="4.36005">
        <ele>844.4</ele>
        <time>2025-09-10T07:13:48Z</time>
      </trkpt>
      <trkpt lat="45.85424" lon="4.36007">
        <ele>844.8</ele>
        <time>2025-09-10T07:13:49Z</time>
      </trkpt>
      <trkpt lat="45.85425" lon="4.36008">
        <ele>844.8</ele>
        <time>2025-09-10T07:13:50Z</time>
      </trkpt>
      <trkpt lat="45.85426" lon="4.3601">
        <ele>845</ele>
        <time>2025-09-10T07:13:51Z</time>
      </trkpt>
      <trkpt lat="45.85427" lon="4.36012">
        <ele>845</ele>
        <time>2025-09-10T07:13:52Z</time>
      </trkpt>
      <trkpt lat="45.85428" lon="4.36013">
        <ele>845</ele>
        <time>2025-09-10T07:13:53Z</time>
      </trkpt>
      <trkpt lat="45.8543" lon="4.36015">
        <ele>845</ele>
        <time>2025-09-10T07:13:54Z</time>
      </trkpt>
      <trkpt lat="45.85431" lon="4.36016">
        <ele>845</ele>
        <time>2025-09-10T07:13:55Z</time>
      </trkpt>
      <trkpt lat="45.85432" lon="4.36018">
        <ele>845.4</ele>
        <time>2025-09-10T07:13:56Z</time>
      </trkpt>
      <trkpt lat="45.85433" lon="4.3602">
        <ele>845.4</ele>
        <time>2025-09-10T07:13:57Z</time>
      </trkpt>
      <trkpt lat="45.85434" lon="4.36021">
        <ele>845.6</ele>
        <time>2025-09-10T07:13:58Z</time>
      </trkpt>
      <trkpt lat="45.85435" lon="4.36023">
        <ele>845.6</ele>
        <time>2025-09-10T07:13:59Z</time>
      </trkpt>
      <trkpt lat="45.85436" lon="4.36024">
        <ele>845.6</ele>
        <time>2025-09-10T07:14:00Z</time>
      </trkpt>
      <trkpt lat="45.85438" lon="4.36025">
        <ele>845.8</ele>
        <time>2025-09-10T07:14:01Z</time>
      </trkpt>
      <trkpt lat="45.85439" lon="4.36026">
        <ele>845.8</ele>
        <time>2025-09-10T07:14:02Z</time>
      </trkpt>
      <trkpt lat="45.85439" lon="4.36026">
        <ele>846</ele>
        <time>2025-09-10T07:14:03Z</time>
      </trkpt>
      <trkpt lat="45.8544" lon="4.36027">
        <ele>846</ele>
        <time>2025-09-10T07:14:04Z</time>
      </trkpt>
      <trkpt lat="45.8544" lon="4.36028">
        <ele>846</ele>
        <time>2025-09-10T07:14:05Z</time>
      </trkpt>
      <trkpt lat="45.8544" lon="4.36031">
        <ele>846</ele>
        <time>2025-09-10T07:15:07Z</time>
      </trkpt>
      <trkpt lat="45.85442" lon="4.36032">
        <ele>846</ele>
        <time>2025-09-10T07:15:08Z</time>
      </trkpt>
      <trkpt lat="45.85443" lon="4.36033">
        <ele>846</ele>
        <time>2025-09-10T07:15:09Z</time>
      </trkpt>
      <trkpt lat="45.85445" lon="4.36034">
        <ele>846</ele>
        <time>2025-09-10T07:15:10Z</time>
      </trkpt>
      <trkpt lat="45.85446" lon="4.36036">
        <ele>846</ele>
        <time>2025-09-10T07:15:11Z</time>
      </trkpt>
      <trkpt lat="45.85448" lon="4.36037">
        <ele>846.4</ele>
        <time>2025-09-10T07:15:12Z</time>
      </trkpt>
      <trkpt lat="45.85449" lon="4.36039">
        <ele>846.4</ele>
        <time>2025-09-10T07:15:13Z</time>
      </trkpt>
      <trkpt lat="45.8545" lon="4.3604">
        <ele>846.4</ele>
        <time>2025-09-10T07:15:14Z</time>
      </trkpt>
      <trkpt lat="45.85451" lon="4.36042">
        <ele>846.4</ele>
        <time>2025-09-10T07:15:15Z</time>
      </trkpt>
      <trkpt lat="45.85453" lon="4.36044">
        <ele>846.4</ele>
        <time>2025-09-10T07:15:16Z</time>
      </trkpt>
      <trkpt lat="45.85454" lon="4.36046">
        <ele>846.4</ele>
        <time>2025-09-10T07:15:17Z</time>
      </trkpt>
      <trkpt lat="45.85455" lon="4.36048">
        <ele>846.8</ele>
        <time>2025-09-10T07:15:18Z</time>
      </trkpt>
      <trkpt lat="45.85456" lon="4.3605">
        <ele>846.8</ele>
        <time>2025-09-10T07:15:19Z</time>
      </trkpt>
      <trkpt lat="45.85457" lon="4.36052">
        <ele>847</ele>
        <time>2025-09-10T07:15:20Z</time>
      </trkpt>
      <trkpt lat="45.85459" lon="4.36053">
        <ele>847</ele>
        <time>2025-09-10T07:15:21Z</time>
      </trkpt>
      <trkpt lat="45.8546" lon="4.36055">
        <ele>847</ele>
        <time>2025-09-10T07:15:22Z</time>
      </trkpt>
      <trkpt lat="45.85461" lon="4.36056">
        <ele>847.2</ele>
        <time>2025-09-10T07:15:23Z</time>
      </trkpt>
      <trkpt lat="45.85462" lon="4.36058">
        <ele>847.8</ele>
        <time>2025-09-10T07:15:24Z</time>
      </trkpt>
      <trkpt lat="45.85463" lon="4.3606">
        <ele>847.8</ele>
        <time>2025-09-10T07:15:25Z</time>
      </trkpt>
      <trkpt lat="45.85464" lon="4.36061">
        <ele>848.2</ele>
        <time>2025-09-10T07:15:26Z</time>
      </trkpt>
      <trkpt lat="45.85465" lon="4.36062">
        <ele>848.2</ele>
        <time>2025-09-10T07:15:27Z</time>
      </trkpt>
      <trkpt lat="45.85466" lon="4.36064">
        <ele>848.6</ele>
        <time>2025-09-10T07:15:28Z</time>
      </trkpt>
      <trkpt lat="45.85467" lon="4.36066">
        <ele>848.6</ele>
        <time>2025-09-10T07:15:29Z</time>
      </trkpt>
      <trkpt lat="45.85469" lon="4.36068">
        <ele>848.8</ele>
        <time>2025-09-10T07:15:30Z</time>
      </trkpt>
      <trkpt lat="45.8547" lon="4.36071">
        <ele>848.8</ele>
        <time>2025-09-10T07:15:31Z</time>
      </trkpt>
      <trkpt lat="45.85471" lon="4.36073">
        <ele>848.8</ele>
        <time>2025-09-10T07:15:32Z</time>
      </trkpt>
      <trkpt lat="45.85472" lon="4.36075">
        <ele>848.8</ele>
        <time>2025-09-10T07:15:33Z</time>
      </trkpt>
      <trkpt lat="45.85472" lon="4.36076">
        <ele>848.8</ele>
        <time>2025-09-10T07:15:34Z</time>
      </trkpt>
      <trkpt lat="45.85473" lon="4.36076">
        <ele>848.8</ele>
        <time>2025-09-10T07:15:35Z</time>
      </trkpt>
      <trkpt lat="45.85473" lon="4.36077">
        <ele>849</ele>
        <time>2025-09-10T07:15:36Z</time>
      </trkpt>
      <trkpt lat="45.85473" lon="4.36077">
        <ele>849</ele>
        <time>2025-09-10T07:15:37Z</time>
      </trkpt>
      <trkpt lat="45.85473" lon="4.36077">
        <ele>848.4</ele>
        <time>2025-09-10T07:15:38Z</time>
      </trkpt>
      <trkpt lat="45.85477" lon="4.36079">
        <ele>849.6</ele>
        <time>2025-09-10T07:17:59Z</time>
      </trkpt>
      <trkpt lat="45.85477" lon="4.36081">
        <ele>849.6</ele>
        <time>2025-09-10T07:18:00Z</time>
      </trkpt>
      <trkpt lat="45.85477" lon="4.36084">
        <ele>849.6</ele>
        <time>2025-09-10T07:18:01Z</time>
      </trkpt>
      <trkpt lat="45.85478" lon="4.36086">
        <ele>849.6</ele>
        <time>2025-09-10T07:18:02Z</time>
      </trkpt>
      <trkpt lat="45.85479" lon="4.3609">
        <ele>849.6</ele>
        <time>2025-09-10T07:18:03Z</time>
      </trkpt>
      <trkpt lat="45.8548" lon="4.36094">
        <ele>849.6</ele>
        <time>2025-09-10T07:18:04Z</time>
      </trkpt>
      <trkpt lat="45.85481" lon="4.36099">
        <ele>849.4</ele>
        <time>2025-09-10T07:18:05Z</time>
      </trkpt>
      <trkpt lat="45.85482" lon="4.36106">
        <ele>849</ele>
        <time>2025-09-10T07:18:06Z</time>
      </trkpt>
      <trkpt lat="45.85483" lon="4.36112">
        <ele>849</ele>
        <time>2025-09-10T07:18:07Z</time>
      </trkpt>
      <trkpt lat="45.85484" lon="4.36119">
        <ele>849</ele>
        <time>2025-09-10T07:18:08Z</time>
      </trkpt>
      <trkpt lat="45.85486" lon="4.36127">
        <ele>848.2</ele>
        <time>2025-09-10T07:18:09Z</time>
      </trkpt>
      <trkpt lat="45.85486" lon="4.36134">
        <ele>848</ele>
        <time>2025-09-10T07:18:10Z</time>
      </trkpt>
      <trkpt lat="45.85485" lon="4.36141">
        <ele>848</ele>
        <time>2025-09-10T07:18:11Z</time>
      </trkpt>
      <trkpt lat="45.85485" lon="4.36148">
        <ele>848</ele>
        <time>2025-09-10T07:18:12Z</time>
      </trkpt>
      <trkpt lat="45.85484" lon="4.36155">
        <ele>848</ele>
        <time>2025-09-10T07:18:13Z</time>
      </trkpt>
      <trkpt lat="45.85485" lon="4.36161">
        <ele>848</ele>
        <time>2025-09-10T07:18:14Z</time>
      </trkpt>
      <trkpt lat="45.85484" lon="4.36167">
        <ele>847.8</ele>
        <time>2025-09-10T07:18:15Z</time>
      </trkpt>
      <trkpt lat="45.85483" lon="4.36172">
        <ele>847</ele>
        <time>2025-09-10T07:18:16Z</time>
      </trkpt>
      <trkpt lat="45.85483" lon="4.36177">
        <ele>848.4</ele>
        <time>2025-09-10T07:18:17Z</time>
      </trkpt>
      <trkpt lat="45.85483" lon="4.3618">
        <ele>848.6</ele>
        <time>2025-09-10T07:18:18Z</time>
      </trkpt>
      <trkpt lat="45.85483" lon="4.36183">
        <ele>848.6</ele>
        <time>2025-09-10T07:18:19Z</time>
      </trkpt>
      <trkpt lat="45.85482" lon="4.36187">
        <ele>849</ele>
        <time>2025-09-10T07:18:20Z</time>
      </trkpt>
      <trkpt lat="45.85482" lon="4.3619">
        <ele>849</ele>
        <time>2025-09-10T07:18:21Z</time>
      </trkpt>
      <trkpt lat="45.85481" lon="4.36193">
        <ele>849</ele>
        <time>2025-09-10T07:18:22Z</time>
      </trkpt>
      <trkpt lat="45.85482" lon="4.36197">
        <ele>849</ele>
        <time>2025-09-10T07:18:23Z</time>
      </trkpt>
      <trkpt lat="45.85481" lon="4.362">
        <ele>849.2</ele>
        <time>2025-09-10T07:18:24Z</time>
      </trkpt>
      <trkpt lat="45.8548" lon="4.36203">
        <ele>849.2</ele>
        <time>2025-09-10T07:18:25Z</time>
      </trkpt>
      <trkpt lat="45.8548" lon="4.36206">
        <ele>849.8</ele>
        <time>2025-09-10T07:18:26Z</time>
      </trkpt>
      <trkpt lat="45.8548" lon="4.36209">
        <ele>850.2</ele>
        <time>2025-09-10T07:18:27Z</time>
      </trkpt>
      <trkpt lat="45.85479" lon="4.36212">
        <ele>850.2</ele>
        <time>2025-09-10T07:18:28Z</time>
      </trkpt>
      <trkpt lat="45.85479" lon="4.36215">
        <ele>850.2</ele>
        <time>2025-09-10T07:18:29Z</time>
      </trkpt>
      <trkpt lat="45.85479" lon="4.36217">
        <ele>850.2</ele>
        <time>2025-09-10T07:18:30Z</time>
      </trkpt>
      <trkpt lat="45.85478" lon="4.36219">
        <ele>850.2</ele>
        <time>2025-09-10T07:18:31Z</time>
      </trkpt>
      <trkpt lat="45.85478" lon="4.36222">
        <ele>850.6</ele>
        <time>2025-09-10T07:18:32Z</time>
      </trkpt>
      <trkpt lat="45.85477" lon="4.36224">
        <ele>850.8</ele>
        <time>2025-09-10T07:18:33Z</time>
      </trkpt>
      <trkpt lat="45.85478" lon="4.36227">
        <ele>850.8</ele>
        <time>2025-09-10T07:18:34Z</time>
      </trkpt>
      <trkpt lat="45.85477" lon="4.36229">
        <ele>851.2</ele>
        <time>2025-09-10T07:18:35Z</time>
      </trkpt>
      <trkpt lat="45.85477" lon="4.36232">
        <ele>851.4</ele>
        <time>2025-09-10T07:18:36Z</time>
      </trkpt>
      <trkpt lat="45.85476" lon="4.36234">
        <ele>851.4</ele>
        <time>2025-09-10T07:18:37Z</time>
      </trkpt>
      <trkpt lat="45.85476" lon="4.36235">
        <ele>851.8</ele>
        <time>2025-09-10T07:18:38Z</time>
      </trkpt>
      <trkpt lat="45.85475" lon="4.36237">
        <ele>851.8</ele>
        <time>2025-09-10T07:18:39Z</time>
      </trkpt>
      <trkpt lat="45.85474" lon="4.3624">
        <ele>852</ele>
        <time>2025-09-10T07:18:40Z</time>
      </trkpt>
      <trkpt lat="45.85473" lon="4.36242">
        <ele>852</ele>
        <time>2025-09-10T07:18:41Z</time>
      </trkpt>
      <trkpt lat="45.85473" lon="4.36244">
        <ele>852.4</ele>
        <time>2025-09-10T07:18:42Z</time>
      </trkpt>
      <trkpt lat="45.85472" lon="4.36246">
        <ele>852.6</ele>
        <time>2025-09-10T07:18:43Z</time>
      </trkpt>
      <trkpt lat="45.85472" lon="4.36248">
        <ele>852.6</ele>
        <time>2025-09-10T07:18:44Z</time>
      </trkpt>
      <trkpt lat="45.85471" lon="4.3625">
        <ele>852.6</ele>
        <time>2025-09-10T07:18:45Z</time>
      </trkpt>
      <trkpt lat="45.85471" lon="4.36254">
        <ele>852.6</ele>
        <time>2025-09-10T07:18:46Z</time>
      </trkpt>
      <trkpt lat="45.8547" lon="4.36256">
        <ele>852.8</ele>
        <time>2025-09-10T07:18:47Z</time>
      </trkpt>
      <trkpt lat="45.8547" lon="4.36259">
        <ele>852.8</ele>
        <time>2025-09-10T07:18:48Z</time>
      </trkpt>
      <trkpt lat="45.85469" lon="4.36262">
        <ele>852.8</ele>
        <time>2025-09-10T07:18:49Z</time>
      </trkpt>
      <trkpt lat="45.85469" lon="4.36264">
        <ele>852.8</ele>
        <time>2025-09-10T07:18:50Z</time>
      </trkpt>
      <trkpt lat="45.85468" lon="4.36267">
        <ele>852.8</ele>
        <time>2025-09-10T07:18:51Z</time>
      </trkpt>
      <trkpt lat="45.85467" lon="4.3627">
        <ele>853.2</ele>
        <time>2025-09-10T07:18:52Z</time>
      </trkpt>
      <trkpt lat="45.85466" lon="4.36272">
        <ele>853.2</ele>
        <time>2025-09-10T07:18:53Z</time>
      </trkpt>
      <trkpt lat="45.85466" lon="4.36275">
        <ele>853.2</ele>
        <time>2025-09-10T07:18:54Z</time>
      </trkpt>
      <trkpt lat="45.85466" lon="4.36278">
        <ele>853.4</ele>
        <time>2025-09-10T07:18:55Z</time>
      </trkpt>
      <trkpt lat="45.85466" lon="4.36281">
        <ele>853.4</ele>
        <time>2025-09-10T07:18:56Z</time>
      </trkpt>
      <trkpt lat="45.85466" lon="4.36284">
        <ele>853.4</ele>
        <time>2025-09-10T07:18:57Z</time>
      </trkpt>
      <trkpt lat="45.85466" lon="4.36287">
        <ele>853.8</ele>
        <time>2025-09-10T07:18:58Z</time>
      </trkpt>
      <trkpt lat="45.85466" lon="4.36289">
        <ele>853.8</ele>
        <time>2025-09-10T07:18:59Z</time>
      </trkpt>
      <trkpt lat="45.85466" lon="4.36292">
        <ele>854</ele>
        <time>2025-09-10T07:19:00Z</time>
      </trkpt>
      <trkpt lat="45.85466" lon="4.36294">
        <ele>854</ele>
        <time>2025-09-10T07:19:01Z</time>
      </trkpt>
      <trkpt lat="45.85466" lon="4.36297">
        <ele>854</ele>
        <time>2025-09-10T07:19:02Z</time>
      </trkpt>
      <trkpt lat="45.85466" lon="4.36299">
        <ele>854.4</ele>
        <time>2025-09-10T07:19:03Z</time>
      </trkpt>
      <trkpt lat="45.85466" lon="4.36301">
        <ele>854.4</ele>
        <time>2025-09-10T07:19:04Z</time>
      </trkpt>
      <trkpt lat="45.85465" lon="4.36302">
        <ele>854.8</ele>
        <time>2025-09-10T07:19:05Z</time>
      </trkpt>
      <trkpt lat="45.85465" lon="4.36302">
        <ele>854.8</ele>
        <time>2025-09-10T07:19:06Z</time>
      </trkpt>
      <trkpt lat="45.85465" lon="4.36303">
        <ele>854.8</ele>
        <time>2025-09-10T07:19:07Z</time>
      </trkpt>
      <trkpt lat="45.85465" lon="4.36305">
        <ele>855.2</ele>
        <time>2025-09-10T07:19:08Z</time>
      </trkpt>
      <trkpt lat="45.85464" lon="4.36306">
        <ele>855.4</ele>
        <time>2025-09-10T07:19:09Z</time>
      </trkpt>
      <trkpt lat="45.85464" lon="4.36308">
        <ele>855.4</ele>
        <time>2025-09-10T07:19:10Z</time>
      </trkpt>
      <trkpt lat="45.85463" lon="4.3631">
        <ele>855.4</ele>
        <time>2025-09-10T07:19:11Z</time>
      </trkpt>
      <trkpt lat="45.85463" lon="4.36312">
        <ele>855.4</ele>
        <time>2025-09-10T07:19:12Z</time>
      </trkpt>
      <trkpt lat="45.85463" lon="4.36315">
        <ele>856</ele>
        <time>2025-09-10T07:19:13Z</time>
      </trkpt>
      <trkpt lat="45.85463" lon="4.36317">
        <ele>856</ele>
        <time>2025-09-10T07:19:14Z</time>
      </trkpt>
      <trkpt lat="45.85463" lon="4.36318">
        <ele>856.2</ele>
        <time>2025-09-10T07:19:15Z</time>
      </trkpt>
      <trkpt lat="45.85463" lon="4.3632">
        <ele>856.4</ele>
        <time>2025-09-10T07:19:16Z</time>
      </trkpt>
      <trkpt lat="45.85462" lon="4.36321">
        <ele>856.4</ele>
        <time>2025-09-10T07:19:17Z</time>
      </trkpt>
      <trkpt lat="45.85462" lon="4.36323">
        <ele>856.6</ele>
        <time>2025-09-10T07:19:18Z</time>
      </trkpt>
      <trkpt lat="45.85462" lon="4.36324">
        <ele>857</ele>
        <time>2025-09-10T07:19:19Z</time>
      </trkpt>
      <trkpt lat="45.85462" lon="4.36325">
        <ele>857.2</ele>
        <time>2025-09-10T07:19:20Z</time>
      </trkpt>
      <trkpt lat="45.85462" lon="4.36327">
        <ele>857.4</ele>
        <time>2025-09-10T07:19:21Z</time>
      </trkpt>
      <trkpt lat="45.85462" lon="4.36328">
        <ele>857.6</ele>
        <time>2025-09-10T07:19:22Z</time>
      </trkpt>
      <trkpt lat="45.85462" lon="4.3633">
        <ele>857.6</ele>
        <time>2025-09-10T07:19:23Z</time>
      </trkpt>
      <trkpt lat="45.85462" lon="4.36331">
        <ele>858</ele>
        <time>2025-09-10T07:19:24Z</time>
      </trkpt>
      <trkpt lat="45.85461" lon="4.36332">
        <ele>858.2</ele>
        <time>2025-09-10T07:19:25Z</time>
      </trkpt>
      <trkpt lat="45.8546" lon="4.36334">
        <ele>858.2</ele>
        <time>2025-09-10T07:19:26Z</time>
      </trkpt>
      <trkpt lat="45.8546" lon="4.36335">
        <ele>858.4</ele>
        <time>2025-09-10T07:19:27Z</time>
      </trkpt>
      <trkpt lat="45.85459" lon="4.36336">
        <ele>858.4</ele>
        <time>2025-09-10T07:19:28Z</time>
      </trkpt>
      <trkpt lat="45.85458" lon="4.36337">
        <ele>858.8</ele>
        <time>2025-09-10T07:19:29Z</time>
      </trkpt>
      <trkpt lat="45.85458" lon="4.36338">
        <ele>858.8</ele>
        <time>2025-09-10T07:19:30Z</time>
      </trkpt>
      <trkpt lat="45.85457" lon="4.3634">
        <ele>859</ele>
        <time>2025-09-10T07:19:31Z</time>
      </trkpt>
      <trkpt lat="45.85457" lon="4.36341">
        <ele>859</ele>
        <time>2025-09-10T07:19:32Z</time>
      </trkpt>
      <trkpt lat="45.85455" lon="4.36343">
        <ele>859.2</ele>
        <time>2025-09-10T07:19:33Z</time>
      </trkpt>
      <trkpt lat="45.85455" lon="4.36344">
        <ele>859.4</ele>
        <time>2025-09-10T07:19:34Z</time>
      </trkpt>
      <trkpt lat="45.85454" lon="4.36346">
        <ele>859.4</ele>
        <time>2025-09-10T07:19:35Z</time>
      </trkpt>
      <trkpt lat="45.85454" lon="4.36347">
        <ele>859.4</ele>
        <time>2025-09-10T07:19:36Z</time>
      </trkpt>
      <trkpt lat="45.85455" lon="4.36349">
        <ele>860</ele>
        <time>2025-09-10T07:19:37Z</time>
      </trkpt>
      <trkpt lat="45.85455" lon="4.3635">
        <ele>860.2</ele>
        <time>2025-09-10T07:19:38Z</time>
      </trkpt>
      <trkpt lat="45.85455" lon="4.36352">
        <ele>860.6</ele>
        <time>2025-09-10T07:19:39Z</time>
      </trkpt>
      <trkpt lat="45.85455" lon="4.36354">
        <ele>860.8</ele>
        <time>2025-09-10T07:19:40Z</time>
      </trkpt>
      <trkpt lat="45.85455" lon="4.36355">
        <ele>860.8</ele>
        <time>2025-09-10T07:19:41Z</time>
      </trkpt>
      <trkpt lat="45.85455" lon="4.36357">
        <ele>861</ele>
        <time>2025-09-10T07:19:42Z</time>
      </trkpt>
      <trkpt lat="45.85455" lon="4.36359">
        <ele>861</ele>
        <time>2025-09-10T07:19:43Z</time>
      </trkpt>
      <trkpt lat="45.85456" lon="4.3636">
        <ele>861</ele>
        <time>2025-09-10T07:19:44Z</time>
      </trkpt>
      <trkpt lat="45.85456" lon="4.36362">
        <ele>861</ele>
        <time>2025-09-10T07:19:45Z</time>
      </trkpt>
      <trkpt lat="45.85456" lon="4.36363">
        <ele>861</ele>
        <time>2025-09-10T07:19:46Z</time>
      </trkpt>
      <trkpt lat="45.85456" lon="4.36365">
        <ele>861.6</ele>
        <time>2025-09-10T07:19:47Z</time>
      </trkpt>
      <trkpt lat="45.85456" lon="4.36366">
        <ele>861.8</ele>
        <time>2025-09-10T07:19:48Z</time>
      </trkpt>
      <trkpt lat="45.85457" lon="4.36368">
        <ele>862</ele>
        <time>2025-09-10T07:19:49Z</time>
      </trkpt>
      <trkpt lat="45.85458" lon="4.3637">
        <ele>862.4</ele>
        <time>2025-09-10T07:19:50Z</time>
      </trkpt>
      <trkpt lat="45.85459" lon="4.36371">
        <ele>862.4</ele>
        <time>2025-09-10T07:19:51Z</time>
      </trkpt>
      <trkpt lat="45.8546" lon="4.36372">
        <ele>862.6</ele>
        <time>2025-09-10T07:19:52Z</time>
      </trkpt>
      <trkpt lat="45.85462" lon="4.36373">
        <ele>862.6</ele>
        <time>2025-09-10T07:19:53Z</time>
      </trkpt>
      <trkpt lat="45.85463" lon="4.36373">
        <ele>862.6</ele>
        <time>2025-09-10T07:19:54Z</time>
      </trkpt>
      <trkpt lat="45.85464" lon="4.36373">
        <ele>862.6</ele>
        <time>2025-09-10T07:19:55Z</time>
      </trkpt>
      <trkpt lat="45.85466" lon="4.36373">
        <ele>863</ele>
        <time>2025-09-10T07:19:56Z</time>
      </trkpt>
      <trkpt lat="45.85466" lon="4.36373">
        <ele>863</ele>
        <time>2025-09-10T07:19:57Z</time>
      </trkpt>
      <trkpt lat="45.85467" lon="4.36372">
        <ele>863.2</ele>
        <time>2025-09-10T07:19:58Z</time>
      </trkpt>
      <trkpt lat="45.85468" lon="4.3637">
        <ele>863.2</ele>
        <time>2025-09-10T07:19:59Z</time>
      </trkpt>
      <trkpt lat="45.85469" lon="4.36369">
        <ele>863.6</ele>
        <time>2025-09-10T07:20:00Z</time>
      </trkpt>
      <trkpt lat="45.8547" lon="4.36369">
        <ele>863.6</ele>
        <time>2025-09-10T07:20:01Z</time>
      </trkpt>
      <trkpt lat="45.85471" lon="4.36369">
        <ele>863.6</ele>
        <time>2025-09-10T07:20:02Z</time>
      </trkpt>
      <trkpt lat="45.85472" lon="4.36369">
        <ele>863.6</ele>
        <time>2025-09-10T07:20:03Z</time>
      </trkpt>
      <trkpt lat="45.85472" lon="4.3637">
        <ele>863.8</ele>
        <time>2025-09-10T07:20:04Z</time>
      </trkpt>
      <trkpt lat="45.85473" lon="4.3637">
        <ele>863.8</ele>
        <time>2025-09-10T07:20:05Z</time>
      </trkpt>
      <trkpt lat="45.85474" lon="4.36371">
        <ele>864</ele>
        <time>2025-09-10T07:20:06Z</time>
      </trkpt>
      <trkpt lat="45.85476" lon="4.36372">
        <ele>864</ele>
        <time>2025-09-10T07:20:07Z</time>
      </trkpt>
      <trkpt lat="45.85477" lon="4.36373">
        <ele>864.2</ele>
        <time>2025-09-10T07:20:08Z</time>
      </trkpt>
      <trkpt lat="45.85478" lon="4.36374">
        <ele>864.2</ele>
        <time>2025-09-10T07:20:09Z</time>
      </trkpt>
      <trkpt lat="45.8548" lon="4.36375">
        <ele>864.6</ele>
        <time>2025-09-10T07:20:10Z</time>
      </trkpt>
      <trkpt lat="45.85481" lon="4.36375">
        <ele>864.6</ele>
        <time>2025-09-10T07:20:11Z</time>
      </trkpt>
      <trkpt lat="45.85483" lon="4.36376">
        <ele>864.8</ele>
        <time>2025-09-10T07:20:12Z</time>
      </trkpt>
      <trkpt lat="45.85483" lon="4.36377">
        <ele>864.8</ele>
        <time>2025-09-10T07:20:13Z</time>
      </trkpt>
      <trkpt lat="45.85484" lon="4.36378">
        <ele>864.8</ele>
        <time>2025-09-10T07:20:14Z</time>
      </trkpt>
      <trkpt lat="45.85484" lon="4.3638">
        <ele>865</ele>
        <time>2025-09-10T07:20:15Z</time>
      </trkpt>
      <trkpt lat="45.85484" lon="4.36381">
        <ele>865.2</ele>
        <time>2025-09-10T07:20:16Z</time>
      </trkpt>
      <trkpt lat="45.85485" lon="4.36382">
        <ele>865.2</ele>
        <time>2025-09-10T07:20:17Z</time>
      </trkpt>
      <trkpt lat="45.85485" lon="4.36384">
        <ele>865.2</ele>
        <time>2025-09-10T07:20:18Z</time>
      </trkpt>
      <trkpt lat="45.85485" lon="4.36386">
        <ele>865.4</ele>
        <time>2025-09-10T07:20:19Z</time>
      </trkpt>
      <trkpt lat="45.85485" lon="4.36387">
        <ele>865.4</ele>
        <time>2025-09-10T07:20:20Z</time>
      </trkpt>
      <trkpt lat="45.85485" lon="4.36389">
        <ele>865.8</ele>
        <time>2025-09-10T07:20:21Z</time>
      </trkpt>
      <trkpt lat="45.85485" lon="4.36391">
        <ele>865.8</ele>
        <time>2025-09-10T07:20:22Z</time>
      </trkpt>
      <trkpt lat="45.85485" lon="4.36393">
        <ele>866</ele>
        <time>2025-09-10T07:20:23Z</time>
      </trkpt>
      <trkpt lat="45.85485" lon="4.36395">
        <ele>866</ele>
        <time>2025-09-10T07:20:24Z</time>
      </trkpt>
      <trkpt lat="45.85485" lon="4.36397">
        <ele>866.2</ele>
        <time>2025-09-10T07:20:25Z</time>
      </trkpt>
      <trkpt lat="45.85485" lon="4.36398">
        <ele>866.2</ele>
        <time>2025-09-10T07:20:26Z</time>
      </trkpt>
      <trkpt lat="45.85484" lon="4.364">
        <ele>866.2</ele>
        <time>2025-09-10T07:20:27Z</time>
      </trkpt>
      <trkpt lat="45.85484" lon="4.36401">
        <ele>866.6</ele>
        <time>2025-09-10T07:20:28Z</time>
      </trkpt>
      <trkpt lat="45.85483" lon="4.36403">
        <ele>866.8</ele>
        <time>2025-09-10T07:20:29Z</time>
      </trkpt>
      <trkpt lat="45.85482" lon="4.36405">
        <ele>866.8</ele>
        <time>2025-09-10T07:20:30Z</time>
      </trkpt>
      <trkpt lat="45.85482" lon="4.36406">
        <ele>866.8</ele>
        <time>2025-09-10T07:20:31Z</time>
      </trkpt>
      <trkpt lat="45.85481" lon="4.36407">
        <ele>867.2</ele>
        <time>2025-09-10T07:20:32Z</time>
      </trkpt>
      <trkpt lat="45.8548" lon="4.36409">
        <ele>867.2</ele>
        <time>2025-09-10T07:20:33Z</time>
      </trkpt>
      <trkpt lat="45.85479" lon="4.36411">
        <ele>867.2</ele>
        <time>2025-09-10T07:20:34Z</time>
      </trkpt>
      <trkpt lat="45.85479" lon="4.36412">
        <ele>867.2</ele>
        <time>2025-09-10T07:20:35Z</time>
      </trkpt>
      <trkpt lat="45.85478" lon="4.36414">
        <ele>867.4</ele>
        <time>2025-09-10T07:20:36Z</time>
      </trkpt>
      <trkpt lat="45.85478" lon="4.36415">
        <ele>867.4</ele>
        <time>2025-09-10T07:20:37Z</time>
      </trkpt>
      <trkpt lat="45.85478" lon="4.36417">
        <ele>867.4</ele>
        <time>2025-09-10T07:20:38Z</time>
      </trkpt>
      <trkpt lat="45.85477" lon="4.36418">
        <ele>867.8</ele>
        <time>2025-09-10T07:20:39Z</time>
      </trkpt>
      <trkpt lat="45.85477" lon="4.3642">
        <ele>867.8</ele>
        <time>2025-09-10T07:20:40Z</time>
      </trkpt>
      <trkpt lat="45.85477" lon="4.36422">
        <ele>867.8</ele>
        <time>2025-09-10T07:20:41Z</time>
      </trkpt>
      <trkpt lat="45.85477" lon="4.36423">
        <ele>867.8</ele>
        <time>2025-09-10T07:20:42Z</time>
      </trkpt>
      <trkpt lat="45.85477" lon="4.36424">
        <ele>867.8</ele>
        <time>2025-09-10T07:20:43Z</time>
      </trkpt>
      <trkpt lat="45.85476" lon="4.36426">
        <ele>868.2</ele>
        <time>2025-09-10T07:20:44Z</time>
      </trkpt>
      <trkpt lat="45.85475" lon="4.36427">
        <ele>868.2</ele>
        <time>2025-09-10T07:20:45Z</time>
      </trkpt>
      <trkpt lat="45.85475" lon="4.36429">
        <ele>868.6</ele>
        <time>2025-09-10T07:20:46Z</time>
      </trkpt>
      <trkpt lat="45.85475" lon="4.3643">
        <ele>868.6</ele>
        <time>2025-09-10T07:20:47Z</time>
      </trkpt>
      <trkpt lat="45.85475" lon="4.36432">
        <ele>868.6</ele>
        <time>2025-09-10T07:20:48Z</time>
      </trkpt>
      <trkpt lat="45.85475" lon="4.36433">
        <ele>868.6</ele>
        <time>2025-09-10T07:20:49Z</time>
      </trkpt>
      <trkpt lat="45.85475" lon="4.36435">
        <ele>868.8</ele>
        <time>2025-09-10T07:20:50Z</time>
      </trkpt>
      <trkpt lat="45.85474" lon="4.36436">
        <ele>868.8</ele>
        <time>2025-09-10T07:20:51Z</time>
      </trkpt>
      <trkpt lat="45.85474" lon="4.36437">
        <ele>869</ele>
        <time>2025-09-10T07:20:52Z</time>
      </trkpt>
      <trkpt lat="45.85474" lon="4.36439">
        <ele>869.4</ele>
        <time>2025-09-10T07:20:53Z</time>
      </trkpt>
      <trkpt lat="45.85473" lon="4.3644">
        <ele>869.6</ele>
        <time>2025-09-10T07:20:54Z</time>
      </trkpt>
      <trkpt lat="45.85473" lon="4.36442">
        <ele>869.8</ele>
        <time>2025-09-10T07:20:55Z</time>
      </trkpt>
      <trkpt lat="45.85472" lon="4.36443">
        <ele>869.8</ele>
        <time>2025-09-10T07:20:56Z</time>
      </trkpt>
      <trkpt lat="45.85472" lon="4.36445">
        <ele>870</ele>
        <time>2025-09-10T07:20:57Z</time>
      </trkpt>
      <trkpt lat="45.85472" lon="4.36446">
        <ele>870</ele>
        <time>2025-09-10T07:20:58Z</time>
      </trkpt>
      <trkpt lat="45.85471" lon="4.36448">
        <ele>870.4</ele>
        <time>2025-09-10T07:20:59Z</time>
      </trkpt>
      <trkpt lat="45.85471" lon="4.36449">
        <ele>870.4</ele>
        <time>2025-09-10T07:21:00Z</time>
      </trkpt>
      <trkpt lat="45.8547" lon="4.36451">
        <ele>870.6</ele>
        <time>2025-09-10T07:21:01Z</time>
      </trkpt>
      <trkpt lat="45.8547" lon="4.36453">
        <ele>870.6</ele>
        <time>2025-09-10T07:21:02Z</time>
      </trkpt>
      <trkpt lat="45.85469" lon="4.36454">
        <ele>870.8</ele>
        <time>2025-09-10T07:21:03Z</time>
      </trkpt>
      <trkpt lat="45.85469" lon="4.36456">
        <ele>870.8</ele>
        <time>2025-09-10T07:21:04Z</time>
      </trkpt>
      <trkpt lat="45.85468" lon="4.36457">
        <ele>871</ele>
        <time>2025-09-10T07:21:05Z</time>
      </trkpt>
      <trkpt lat="45.85468" lon="4.36459">
        <ele>871</ele>
        <time>2025-09-10T07:21:06Z</time>
      </trkpt>
      <trkpt lat="45.85468" lon="4.3646">
        <ele>871.2</ele>
        <time>2025-09-10T07:21:07Z</time>
      </trkpt>
      <trkpt lat="45.85467" lon="4.36462">
        <ele>871.2</ele>
        <time>2025-09-10T07:21:08Z</time>
      </trkpt>
      <trkpt lat="45.85467" lon="4.36463">
        <ele>871.6</ele>
        <time>2025-09-10T07:21:09Z</time>
      </trkpt>
      <trkpt lat="45.85467" lon="4.36465">
        <ele>871.6</ele>
        <time>2025-09-10T07:21:10Z</time>
      </trkpt>
      <trkpt lat="45.85467" lon="4.36467">
        <ele>871.6</ele>
        <time>2025-09-10T07:21:11Z</time>
      </trkpt>
      <trkpt lat="45.85467" lon="4.36468">
        <ele>871.8</ele>
        <time>2025-09-10T07:21:12Z</time>
      </trkpt>
      <trkpt lat="45.85466" lon="4.36469">
        <ele>871.8</ele>
        <time>2025-09-10T07:21:13Z</time>
      </trkpt>
      <trkpt lat="45.85466" lon="4.36471">
        <ele>871.8</ele>
        <time>2025-09-10T07:21:14Z</time>
      </trkpt>
      <trkpt lat="45.85466" lon="4.36472">
        <ele>871.8</ele>
        <time>2025-09-10T07:21:15Z</time>
      </trkpt>
      <trkpt lat="45.85465" lon="4.36474">
        <ele>872.2</ele>
        <time>2025-09-10T07:21:16Z</time>
      </trkpt>
      <trkpt lat="45.85465" lon="4.36475">
        <ele>872.4</ele>
        <time>2025-09-10T07:21:17Z</time>
      </trkpt>
      <trkpt lat="45.85464" lon="4.36476">
        <ele>872.4</ele>
        <time>2025-09-10T07:21:18Z</time>
      </trkpt>
      <trkpt lat="45.85464" lon="4.36478">
        <ele>872.4</ele>
        <time>2025-09-10T07:21:19Z</time>
      </trkpt>
      <trkpt lat="45.85464" lon="4.36479">
        <ele>872.4</ele>
        <time>2025-09-10T07:21:20Z</time>
      </trkpt>
      <trkpt lat="45.85463" lon="4.3648">
        <ele>872.6</ele>
        <time>2025-09-10T07:21:21Z</time>
      </trkpt>
      <trkpt lat="45.85463" lon="4.36481">
        <ele>872.6</ele>
        <time>2025-09-10T07:21:22Z</time>
      </trkpt>
      <trkpt lat="45.85463" lon="4.36483">
        <ele>873</ele>
        <time>2025-09-10T07:21:23Z</time>
      </trkpt>
      <trkpt lat="45.85463" lon="4.36484">
        <ele>873</ele>
        <time>2025-09-10T07:21:24Z</time>
      </trkpt>
      <trkpt lat="45.85463" lon="4.36485">
        <ele>873.4</ele>
        <time>2025-09-10T07:21:25Z</time>
      </trkpt>
      <trkpt lat="45.85462" lon="4.36487">
        <ele>873.4</ele>
        <time>2025-09-10T07:21:26Z</time>
      </trkpt>
      <trkpt lat="45.85462" lon="4.36488">
        <ele>873.6</ele>
        <time>2025-09-10T07:21:27Z</time>
      </trkpt>
      <trkpt lat="45.85462" lon="4.36489">
        <ele>873.6</ele>
        <time>2025-09-10T07:21:28Z</time>
      </trkpt>
      <trkpt lat="45.85462" lon="4.3649">
        <ele>873.8</ele>
        <time>2025-09-10T07:21:29Z</time>
      </trkpt>
      <trkpt lat="45.85461" lon="4.36491">
        <ele>873.8</ele>
        <time>2025-09-10T07:21:30Z</time>
      </trkpt>
      <trkpt lat="45.85461" lon="4.36492">
        <ele>873.8</ele>
        <time>2025-09-10T07:21:31Z</time>
      </trkpt>
      <trkpt lat="45.85461" lon="4.36493">
        <ele>873.8</ele>
        <time>2025-09-10T07:21:32Z</time>
      </trkpt>
      <trkpt lat="45.8546" lon="4.36495">
        <ele>874.2</ele>
        <time>2025-09-10T07:21:33Z</time>
      </trkpt>
      <trkpt lat="45.8546" lon="4.36496">
        <ele>874.2</ele>
        <time>2025-09-10T07:21:34Z</time>
      </trkpt>
      <trkpt lat="45.8546" lon="4.36497">
        <ele>874.4</ele>
        <time>2025-09-10T07:21:35Z</time>
      </trkpt>
      <trkpt lat="45.8546" lon="4.36499">
        <ele>874.4</ele>
        <time>2025-09-10T07:21:36Z</time>
      </trkpt>
      <trkpt lat="45.85459" lon="4.365">
        <ele>874.6</ele>
        <time>2025-09-10T07:21:37Z</time>
      </trkpt>
      <trkpt lat="45.85458" lon="4.36501">
        <ele>874.6</ele>
        <time>2025-09-10T07:21:38Z</time>
      </trkpt>
      <trkpt lat="45.85458" lon="4.36503">
        <ele>874.8</ele>
        <time>2025-09-10T07:21:39Z</time>
      </trkpt>
      <trkpt lat="45.85457" lon="4.36504">
        <ele>874.8</ele>
        <time>2025-09-10T07:21:40Z</time>
      </trkpt>
      <trkpt lat="45.85457" lon="4.36505">
        <ele>875.4</ele>
        <time>2025-09-10T07:21:41Z</time>
      </trkpt>
      <trkpt lat="45.85457" lon="4.36506">
        <ele>875.4</ele>
        <time>2025-09-10T07:21:42Z</time>
      </trkpt>
      <trkpt lat="45.85457" lon="4.36508">
        <ele>875.8</ele>
        <time>2025-09-10T07:21:43Z</time>
      </trkpt>
      <trkpt lat="45.85457" lon="4.36509">
        <ele>875.8</ele>
        <time>2025-09-10T07:21:44Z</time>
      </trkpt>
      <trkpt lat="45.85456" lon="4.3651">
        <ele>876.2</ele>
        <time>2025-09-10T07:21:45Z</time>
      </trkpt>
      <trkpt lat="45.85456" lon="4.36512">
        <ele>876.4</ele>
        <time>2025-09-10T07:21:46Z</time>
      </trkpt>
      <trkpt lat="45.85456" lon="4.36513">
        <ele>876.6</ele>
        <time>2025-09-10T07:21:47Z</time>
      </trkpt>
      <trkpt lat="45.85456" lon="4.36515">
        <ele>876.6</ele>
        <time>2025-09-10T07:21:48Z</time>
      </trkpt>
      <trkpt lat="45.85456" lon="4.36516">
        <ele>877</ele>
        <time>2025-09-10T07:21:49Z</time>
      </trkpt>
      <trkpt lat="45.85456" lon="4.36518">
        <ele>877</ele>
        <time>2025-09-10T07:21:50Z</time>
      </trkpt>
      <trkpt lat="45.85456" lon="4.3652">
        <ele>877</ele>
        <time>2025-09-10T07:21:51Z</time>
      </trkpt>
      <trkpt lat="45.85456" lon="4.36521">
        <ele>877</ele>
        <time>2025-09-10T07:21:52Z</time>
      </trkpt>
      <trkpt lat="45.85456" lon="4.36523">
        <ele>877.4</ele>
        <time>2025-09-10T07:21:53Z</time>
      </trkpt>
      <trkpt lat="45.85455" lon="4.36524">
        <ele>877.4</ele>
        <time>2025-09-10T07:21:54Z</time>
      </trkpt>
      <trkpt lat="45.85455" lon="4.36525">
        <ele>877.6</ele>
        <time>2025-09-10T07:21:55Z</time>
      </trkpt>
      <trkpt lat="45.85454" lon="4.36526">
        <ele>877.6</ele>
        <time>2025-09-10T07:21:56Z</time>
      </trkpt>
      <trkpt lat="45.85453" lon="4.36527">
        <ele>878</ele>
        <time>2025-09-10T07:21:57Z</time>
      </trkpt>
      <trkpt lat="45.85453" lon="4.36529">
        <ele>878</ele>
        <time>2025-09-10T07:21:58Z</time>
      </trkpt>
      <trkpt lat="45.85453" lon="4.3653">
        <ele>878</ele>
        <time>2025-09-10T07:21:59Z</time>
      </trkpt>
      <trkpt lat="45.85453" lon="4.36531">
        <ele>878.4</ele>
        <time>2025-09-10T07:22:00Z</time>
      </trkpt>
      <trkpt lat="45.85452" lon="4.36532">
        <ele>878.4</ele>
        <time>2025-09-10T07:22:01Z</time>
      </trkpt>
      <trkpt lat="45.85452" lon="4.36534">
        <ele>878.8</ele>
        <time>2025-09-10T07:22:02Z</time>
      </trkpt>
      <trkpt lat="45.85451" lon="4.36535">
        <ele>878.8</ele>
        <time>2025-09-10T07:22:03Z</time>
      </trkpt>
      <trkpt lat="45.85451" lon="4.36536">
        <ele>879.2</ele>
        <time>2025-09-10T07:22:04Z</time>
      </trkpt>
      <trkpt lat="45.85451" lon="4.36537">
        <ele>879.6</ele>
        <time>2025-09-10T07:22:05Z</time>
      </trkpt>
      <trkpt lat="45.8545" lon="4.36538">
        <ele>879.6</ele>
        <time>2025-09-10T07:22:06Z</time>
      </trkpt>
      <trkpt lat="45.8545" lon="4.3654">
        <ele>879.8</ele>
        <time>2025-09-10T07:22:07Z</time>
      </trkpt>
      <trkpt lat="45.8545" lon="4.36541">
        <ele>879.8</ele>
        <time>2025-09-10T07:22:08Z</time>
      </trkpt>
      <trkpt lat="45.8545" lon="4.36542">
        <ele>880</ele>
        <time>2025-09-10T07:22:09Z</time>
      </trkpt>
      <trkpt lat="45.8545" lon="4.36543">
        <ele>880</ele>
        <time>2025-09-10T07:22:10Z</time>
      </trkpt>
      <trkpt lat="45.85449" lon="4.36545">
        <ele>880.4</ele>
        <time>2025-09-10T07:22:11Z</time>
      </trkpt>
      <trkpt lat="45.85448" lon="4.36546">
        <ele>880.4</ele>
        <time>2025-09-10T07:22:12Z</time>
      </trkpt>
      <trkpt lat="45.85448" lon="4.36547">
        <ele>880.6</ele>
        <time>2025-09-10T07:22:13Z</time>
      </trkpt>
      <trkpt lat="45.85448" lon="4.36548">
        <ele>880.6</ele>
        <time>2025-09-10T07:22:14Z</time>
      </trkpt>
      <trkpt lat="45.85447" lon="4.3655">
        <ele>880.6</ele>
        <time>2025-09-10T07:22:15Z</time>
      </trkpt>
      <trkpt lat="45.85446" lon="4.36551">
        <ele>881</ele>
        <time>2025-09-10T07:22:16Z</time>
      </trkpt>
      <trkpt lat="45.85446" lon="4.36552">
        <ele>881</ele>
        <time>2025-09-10T07:22:17Z</time>
      </trkpt>
      <trkpt lat="45.85445" lon="4.36553">
        <ele>881</ele>
        <time>2025-09-10T07:22:18Z</time>
      </trkpt>
      <trkpt lat="45.85445" lon="4.36555">
        <ele>881.2</ele>
        <time>2025-09-10T07:22:19Z</time>
      </trkpt>
      <trkpt lat="45.85445" lon="4.36556">
        <ele>881.2</ele>
        <time>2025-09-10T07:22:20Z</time>
      </trkpt>
      <trkpt lat="45.85444" lon="4.36557">
        <ele>881.4</ele>
        <time>2025-09-10T07:22:21Z</time>
      </trkpt>
      <trkpt lat="45.85444" lon="4.36559">
        <ele>881.4</ele>
        <time>2025-09-10T07:22:22Z</time>
      </trkpt>
      <trkpt lat="45.85443" lon="4.36562">
        <ele>881.8</ele>
        <time>2025-09-10T07:22:23Z</time>
      </trkpt>
      <trkpt lat="45.85443" lon="4.36564">
        <ele>881.8</ele>
        <time>2025-09-10T07:22:24Z</time>
      </trkpt>
      <trkpt lat="45.85442" lon="4.36564">
        <ele>882.2</ele>
        <time>2025-09-10T07:22:25Z</time>
      </trkpt>
      <trkpt lat="45.85442" lon="4.36566">
        <ele>882.2</ele>
        <time>2025-09-10T07:22:26Z</time>
      </trkpt>
      <trkpt lat="45.85441" lon="4.36567">
        <ele>882.4</ele>
        <time>2025-09-10T07:22:27Z</time>
      </trkpt>
      <trkpt lat="45.85441" lon="4.36568">
        <ele>882.4</ele>
        <time>2025-09-10T07:22:28Z</time>
      </trkpt>
      <trkpt lat="45.85441" lon="4.3657">
        <ele>882.6</ele>
        <time>2025-09-10T07:22:29Z</time>
      </trkpt>
      <trkpt lat="45.8544" lon="4.36571">
        <ele>882.6</ele>
        <time>2025-09-10T07:22:30Z</time>
      </trkpt>
      <trkpt lat="45.85439" lon="4.36572">
        <ele>882.6</ele>
        <time>2025-09-10T07:22:31Z</time>
      </trkpt>
      <trkpt lat="45.85439" lon="4.36574">
        <ele>882.8</ele>
        <time>2025-09-10T07:22:32Z</time>
      </trkpt>
      <trkpt lat="45.85438" lon="4.36575">
        <ele>882.8</ele>
        <time>2025-09-10T07:22:33Z</time>
      </trkpt>
      <trkpt lat="45.85437" lon="4.36576">
        <ele>883.2</ele>
        <time>2025-09-10T07:22:34Z</time>
      </trkpt>
      <trkpt lat="45.85436" lon="4.36577">
        <ele>883.2</ele>
        <time>2025-09-10T07:22:35Z</time>
      </trkpt>
      <trkpt lat="45.85436" lon="4.36578">
        <ele>883.4</ele>
        <time>2025-09-10T07:22:36Z</time>
      </trkpt>
      <trkpt lat="45.85434" lon="4.36579">
        <ele>883.4</ele>
        <time>2025-09-10T07:22:37Z</time>
      </trkpt>
      <trkpt lat="45.85434" lon="4.3658">
        <ele>883.4</ele>
        <time>2025-09-10T07:22:38Z</time>
      </trkpt>
      <trkpt lat="45.85433" lon="4.36581">
        <ele>883.4</ele>
        <time>2025-09-10T07:22:39Z</time>
      </trkpt>
      <trkpt lat="45.85432" lon="4.36583">
        <ele>883.6</ele>
        <time>2025-09-10T07:22:40Z</time>
      </trkpt>
      <trkpt lat="45.85431" lon="4.36584">
        <ele>883.6</ele>
        <time>2025-09-10T07:22:41Z</time>
      </trkpt>
      <trkpt lat="45.85431" lon="4.36585">
        <ele>883.6</ele>
        <time>2025-09-10T07:22:42Z</time>
      </trkpt>
      <trkpt lat="45.8543" lon="4.36586">
        <ele>884</ele>
        <time>2025-09-10T07:22:43Z</time>
      </trkpt>
      <trkpt lat="45.85429" lon="4.36587">
        <ele>884</ele>
        <time>2025-09-10T07:22:44Z</time>
      </trkpt>
      <trkpt lat="45.85429" lon="4.36587">
        <ele>884</ele>
        <time>2025-09-10T07:22:45Z</time>
      </trkpt>
      <trkpt lat="45.85429" lon="4.36588">
        <ele>884</ele>
        <time>2025-09-10T07:22:46Z</time>
      </trkpt>
      <trkpt lat="45.85428" lon="4.36589">
        <ele>884</ele>
        <time>2025-09-10T07:22:47Z</time>
      </trkpt>
      <trkpt lat="45.85427" lon="4.3659">
        <ele>884</ele>
        <time>2025-09-10T07:22:48Z</time>
      </trkpt>
      <trkpt lat="45.85426" lon="4.36592">
        <ele>884.4</ele>
        <time>2025-09-10T07:22:49Z</time>
      </trkpt>
      <trkpt lat="45.85426" lon="4.36593">
        <ele>884.6</ele>
        <time>2025-09-10T07:22:50Z</time>
      </trkpt>
      <trkpt lat="45.85425" lon="4.36594">
        <ele>884.6</ele>
        <time>2025-09-10T07:22:51Z</time>
      </trkpt>
      <trkpt lat="45.85425" lon="4.36596">
        <ele>884.8</ele>
        <time>2025-09-10T07:22:52Z</time>
      </trkpt>
      <trkpt lat="45.85424" lon="4.36598">
        <ele>885.2</ele>
        <time>2025-09-10T07:22:53Z</time>
      </trkpt>
      <trkpt lat="45.85423" lon="4.36599">
        <ele>885.2</ele>
        <time>2025-09-10T07:22:54Z</time>
      </trkpt>
      <trkpt lat="45.85423" lon="4.366">
        <ele>885.4</ele>
        <time>2025-09-10T07:22:55Z</time>
      </trkpt>
      <trkpt lat="45.85422" lon="4.36601">
        <ele>885.4</ele>
        <time>2025-09-10T07:22:56Z</time>
      </trkpt>
      <trkpt lat="45.85422" lon="4.36602">
        <ele>885.4</ele>
        <time>2025-09-10T07:22:57Z</time>
      </trkpt>
      <trkpt lat="45.85421" lon="4.36603">
        <ele>885.4</ele>
        <time>2025-09-10T07:22:58Z</time>
      </trkpt>
      <trkpt lat="45.85421" lon="4.36604">
        <ele>885.6</ele>
        <time>2025-09-10T07:22:59Z</time>
      </trkpt>
      <trkpt lat="45.8542" lon="4.36606">
        <ele>885.6</ele>
        <time>2025-09-10T07:23:00Z</time>
      </trkpt>
      <trkpt lat="45.85419" lon="4.36607">
        <ele>885.8</ele>
        <time>2025-09-10T07:23:01Z</time>
      </trkpt>
      <trkpt lat="45.85418" lon="4.36608">
        <ele>885.8</ele>
        <time>2025-09-10T07:23:02Z</time>
      </trkpt>
      <trkpt lat="45.85418" lon="4.36609">
        <ele>886.2</ele>
        <time>2025-09-10T07:23:03Z</time>
      </trkpt>
      <trkpt lat="45.85417" lon="4.3661">
        <ele>886.2</ele>
        <time>2025-09-10T07:23:04Z</time>
      </trkpt>
      <trkpt lat="45.85417" lon="4.36611">
        <ele>886.2</ele>
        <time>2025-09-10T07:23:05Z</time>
      </trkpt>
      <trkpt lat="45.85416" lon="4.36612">
        <ele>886.2</ele>
        <time>2025-09-10T07:23:06Z</time>
      </trkpt>
      <trkpt lat="45.85415" lon="4.36613">
        <ele>886.2</ele>
        <time>2025-09-10T07:23:07Z</time>
      </trkpt>
      <trkpt lat="45.85414" lon="4.36614">
        <ele>886.2</ele>
        <time>2025-09-10T07:23:08Z</time>
      </trkpt>
      <trkpt lat="45.85413" lon="4.36616">
        <ele>886.6</ele>
        <time>2025-09-10T07:23:09Z</time>
      </trkpt>
      <trkpt lat="45.85412" lon="4.36617">
        <ele>886.6</ele>
        <time>2025-09-10T07:23:10Z</time>
      </trkpt>
      <trkpt lat="45.85412" lon="4.36619">
        <ele>886.6</ele>
        <time>2025-09-10T07:23:11Z</time>
      </trkpt>
      <trkpt lat="45.85411" lon="4.3662">
        <ele>886.6</ele>
        <time>2025-09-10T07:23:12Z</time>
      </trkpt>
      <trkpt lat="45.8541" lon="4.36622">
        <ele>886.8</ele>
        <time>2025-09-10T07:23:13Z</time>
      </trkpt>
      <trkpt lat="45.85409" lon="4.36623">
        <ele>886.8</ele>
        <time>2025-09-10T07:23:14Z</time>
      </trkpt>
      <trkpt lat="45.85408" lon="4.36624">
        <ele>887</ele>
        <time>2025-09-10T07:23:15Z</time>
      </trkpt>
      <trkpt lat="45.85407" lon="4.36626">
        <ele>887</ele>
        <time>2025-09-10T07:23:16Z</time>
      </trkpt>
      <trkpt lat="45.85406" lon="4.36628">
        <ele>887.2</ele>
        <time>2025-09-10T07:23:17Z</time>
      </trkpt>
      <trkpt lat="45.85405" lon="4.36629">
        <ele>887.2</ele>
        <time>2025-09-10T07:23:18Z</time>
      </trkpt>
      <trkpt lat="45.85404" lon="4.36631">
        <ele>887.4</ele>
        <time>2025-09-10T07:23:19Z</time>
      </trkpt>
      <trkpt lat="45.85403" lon="4.36632">
        <ele>887.4</ele>
        <time>2025-09-10T07:23:20Z</time>
      </trkpt>
      <trkpt lat="45.85402" lon="4.36633">
        <ele>887.4</ele>
        <time>2025-09-10T07:23:21Z</time>
      </trkpt>
      <trkpt lat="45.85401" lon="4.36635">
        <ele>887.6</ele>
        <time>2025-09-10T07:23:22Z</time>
      </trkpt>
      <trkpt lat="45.85401" lon="4.36637">
        <ele>887.6</ele>
        <time>2025-09-10T07:23:23Z</time>
      </trkpt>
      <trkpt lat="45.854" lon="4.36638">
        <ele>887.8</ele>
        <time>2025-09-10T07:23:24Z</time>
      </trkpt>
      <trkpt lat="45.854" lon="4.3664">
        <ele>887.8</ele>
        <time>2025-09-10T07:23:25Z</time>
      </trkpt>
      <trkpt lat="45.85399" lon="4.36641">
        <ele>887.8</ele>
        <time>2025-09-10T07:23:26Z</time>
      </trkpt>
      <trkpt lat="45.85398" lon="4.36642">
        <ele>888.2</ele>
        <time>2025-09-10T07:23:27Z</time>
      </trkpt>
      <trkpt lat="45.85397" lon="4.36644">
        <ele>888.2</ele>
        <time>2025-09-10T07:23:28Z</time>
      </trkpt>
      <trkpt lat="45.85396" lon="4.36645">
        <ele>888.4</ele>
        <time>2025-09-10T07:23:29Z</time>
      </trkpt>
      <trkpt lat="45.85396" lon="4.36646">
        <ele>888.4</ele>
        <time>2025-09-10T07:23:30Z</time>
      </trkpt>
      <trkpt lat="45.85395" lon="4.36648">
        <ele>888.4</ele>
        <time>2025-09-10T07:23:31Z</time>
      </trkpt>
      <trkpt lat="45.85394" lon="4.36649">
        <ele>888.6</ele>
        <time>2025-09-10T07:23:32Z</time>
      </trkpt>
      <trkpt lat="45.85393" lon="4.3665">
        <ele>888.6</ele>
        <time>2025-09-10T07:23:33Z</time>
      </trkpt>
      <trkpt lat="45.85392" lon="4.36651">
        <ele>888.6</ele>
        <time>2025-09-10T07:23:34Z</time>
      </trkpt>
      <trkpt lat="45.85391" lon="4.36652">
        <ele>888.8</ele>
        <time>2025-09-10T07:23:35Z</time>
      </trkpt>
      <trkpt lat="45.8539" lon="4.36654">
        <ele>888.8</ele>
        <time>2025-09-10T07:23:36Z</time>
      </trkpt>
      <trkpt lat="45.85389" lon="4.36655">
        <ele>889</ele>
        <time>2025-09-10T07:23:37Z</time>
      </trkpt>
      <trkpt lat="45.85387" lon="4.36657">
        <ele>889</ele>
        <time>2025-09-10T07:23:38Z</time>
      </trkpt>
      <trkpt lat="45.85386" lon="4.36658">
        <ele>889</ele>
        <time>2025-09-10T07:23:39Z</time>
      </trkpt>
      <trkpt lat="45.85386" lon="4.36659">
        <ele>889</ele>
        <time>2025-09-10T07:23:40Z</time>
      </trkpt>
      <trkpt lat="45.85385" lon="4.3666">
        <ele>889.4</ele>
        <time>2025-09-10T07:23:41Z</time>
      </trkpt>
      <trkpt lat="45.85385" lon="4.36661">
        <ele>889.4</ele>
        <time>2025-09-10T07:23:42Z</time>
      </trkpt>
      <trkpt lat="45.85385" lon="4.36662">
        <ele>889.4</ele>
        <time>2025-09-10T07:23:43Z</time>
      </trkpt>
      <trkpt lat="45.85385" lon="4.36664">
        <ele>889.6</ele>
        <time>2025-09-10T07:23:44Z</time>
      </trkpt>
      <trkpt lat="45.85384" lon="4.36665">
        <ele>889.6</ele>
        <time>2025-09-10T07:23:45Z</time>
      </trkpt>
      <trkpt lat="45.85383" lon="4.36666">
        <ele>889.8</ele>
        <time>2025-09-10T07:23:46Z</time>
      </trkpt>
      <trkpt lat="45.85383" lon="4.36666">
        <ele>889.8</ele>
        <time>2025-09-10T07:23:47Z</time>
      </trkpt>
      <trkpt lat="45.85383" lon="4.36666">
        <ele>890.2</ele>
        <time>2025-09-10T07:23:48Z</time>
      </trkpt>
      <trkpt lat="45.8538" lon="4.36672">
        <ele>890.2</ele>
        <time>2025-09-10T07:23:50Z</time>
      </trkpt>
      <trkpt lat="45.85379" lon="4.36673">
        <ele>890.2</ele>
        <time>2025-09-10T07:23:51Z</time>
      </trkpt>
      <trkpt lat="45.85379" lon="4.36675">
        <ele>890.2</ele>
        <time>2025-09-10T07:23:52Z</time>
      </trkpt>
      <trkpt lat="45.85378" lon="4.36677">
        <ele>890.2</ele>
        <time>2025-09-10T07:23:53Z</time>
      </trkpt>
      <trkpt lat="45.85378" lon="4.36679">
        <ele>890.6</ele>
        <time>2025-09-10T07:23:54Z</time>
      </trkpt>
      <trkpt lat="45.85378" lon="4.3668">
        <ele>890.6</ele>
        <time>2025-09-10T07:23:55Z</time>
      </trkpt>
      <trkpt lat="45.85377" lon="4.36682">
        <ele>890.6</ele>
        <time>2025-09-10T07:23:56Z</time>
      </trkpt>
      <trkpt lat="45.85377" lon="4.36683">
        <ele>891</ele>
        <time>2025-09-10T07:23:57Z</time>
      </trkpt>
      <trkpt lat="45.85376" lon="4.36685">
        <ele>891</ele>
        <time>2025-09-10T07:23:58Z</time>
      </trkpt>
      <trkpt lat="45.85375" lon="4.36687">
        <ele>891.2</ele>
        <time>2025-09-10T07:23:59Z</time>
      </trkpt>
      <trkpt lat="45.85375" lon="4.36689">
        <ele>891.2</ele>
        <time>2025-09-10T07:24:00Z</time>
      </trkpt>
      <trkpt lat="45.85374" lon="4.3669">
        <ele>891.4</ele>
        <time>2025-09-10T07:24:01Z</time>
      </trkpt>
      <trkpt lat="45.85372" lon="4.36692">
        <ele>891.4</ele>
        <time>2025-09-10T07:24:02Z</time>
      </trkpt>
      <trkpt lat="45.85372" lon="4.36693">
        <ele>891.6</ele>
        <time>2025-09-10T07:24:03Z</time>
      </trkpt>
      <trkpt lat="45.85371" lon="4.36694">
        <ele>891.6</ele>
        <time>2025-09-10T07:24:04Z</time>
      </trkpt>
      <trkpt lat="45.8537" lon="4.36696">
        <ele>891.6</ele>
        <time>2025-09-10T07:24:05Z</time>
      </trkpt>
      <trkpt lat="45.85369" lon="4.36697">
        <ele>892</ele>
        <time>2025-09-10T07:24:06Z</time>
      </trkpt>
      <trkpt lat="45.85368" lon="4.36699">
        <ele>892.2</ele>
        <time>2025-09-10T07:24:07Z</time>
      </trkpt>
      <trkpt lat="45.85366" lon="4.36701">
        <ele>892.2</ele>
        <time>2025-09-10T07:24:08Z</time>
      </trkpt>
      <trkpt lat="45.85364" lon="4.36703">
        <ele>892.2</ele>
        <time>2025-09-10T07:24:09Z</time>
      </trkpt>
      <trkpt lat="45.85363" lon="4.36704">
        <ele>892.4</ele>
        <time>2025-09-10T07:24:10Z</time>
      </trkpt>
      <trkpt lat="45.85363" lon="4.36706">
        <ele>892.4</ele>
        <time>2025-09-10T07:24:11Z</time>
      </trkpt>
      <trkpt lat="45.85363" lon="4.36707">
        <ele>892.4</ele>
        <time>2025-09-10T07:24:12Z</time>
      </trkpt>
      <trkpt lat="45.85363" lon="4.36707">
        <ele>892.4</ele>
        <time>2025-09-10T07:24:13Z</time>
      </trkpt>
      <trkpt lat="45.85362" lon="4.36711">
        <ele>892.6</ele>
        <time>2025-09-10T07:24:14Z</time>
      </trkpt>
      <trkpt lat="45.85362" lon="4.36714">
        <ele>892.6</ele>
        <time>2025-09-10T07:24:15Z</time>
      </trkpt>
      <trkpt lat="45.85361" lon="4.36716">
        <ele>892.6</ele>
        <time>2025-09-10T07:24:16Z</time>
      </trkpt>
      <trkpt lat="45.8536" lon="4.36717">
        <ele>892.8</ele>
        <time>2025-09-10T07:24:17Z</time>
      </trkpt>
      <trkpt lat="45.85359" lon="4.36718">
        <ele>892.8</ele>
        <time>2025-09-10T07:24:18Z</time>
      </trkpt>
      <trkpt lat="45.85357" lon="4.3672">
        <ele>893.2</ele>
        <time>2025-09-10T07:24:19Z</time>
      </trkpt>
      <trkpt lat="45.85356" lon="4.3672">
        <ele>893.2</ele>
        <time>2025-09-10T07:24:20Z</time>
      </trkpt>
      <trkpt lat="45.85356" lon="4.36721">
        <ele>893.4</ele>
        <time>2025-09-10T07:24:21Z</time>
      </trkpt>
      <trkpt lat="45.85355" lon="4.36724">
        <ele>893.6</ele>
        <time>2025-09-10T07:24:22Z</time>
      </trkpt>
      <trkpt lat="45.85354" lon="4.36726">
        <ele>893.6</ele>
        <time>2025-09-10T07:24:23Z</time>
      </trkpt>
      <trkpt lat="45.85353" lon="4.36727">
        <ele>894</ele>
        <time>2025-09-10T07:24:24Z</time>
      </trkpt>
      <trkpt lat="45.85351" lon="4.36728">
        <ele>894</ele>
        <time>2025-09-10T07:24:25Z</time>
      </trkpt>
      <trkpt lat="45.85348" lon="4.36729">
        <ele>894</ele>
        <time>2025-09-10T07:24:26Z</time>
      </trkpt>
      <trkpt lat="45.85345" lon="4.3673">
        <ele>894</ele>
        <time>2025-09-10T07:24:27Z</time>
      </trkpt>
      <trkpt lat="45.85343" lon="4.36732">
        <ele>894</ele>
        <time>2025-09-10T07:24:28Z</time>
      </trkpt>
      <trkpt lat="45.85341" lon="4.36733">
        <ele>894.2</ele>
        <time>2025-09-10T07:24:29Z</time>
      </trkpt>
      <trkpt lat="45.8534" lon="4.36734">
        <ele>894.4</ele>
        <time>2025-09-10T07:24:30Z</time>
      </trkpt>
      <trkpt lat="45.85338" lon="4.36735">
        <ele>894.4</ele>
        <time>2025-09-10T07:24:31Z</time>
      </trkpt>
      <trkpt lat="45.85336" lon="4.36736">
        <ele>894.4</ele>
        <time>2025-09-10T07:24:32Z</time>
      </trkpt>
      <trkpt lat="45.85334" lon="4.36737">
        <ele>894.6</ele>
        <time>2025-09-10T07:24:33Z</time>
      </trkpt>
      <trkpt lat="45.85332" lon="4.36738">
        <ele>894.6</ele>
        <time>2025-09-10T07:24:34Z</time>
      </trkpt>
      <trkpt lat="45.8533" lon="4.36739">
        <ele>894.6</ele>
        <time>2025-09-10T07:24:35Z</time>
      </trkpt>
      <trkpt lat="45.85329" lon="4.36739">
        <ele>894.6</ele>
        <time>2025-09-10T07:24:36Z</time>
      </trkpt>
      <trkpt lat="45.85327" lon="4.36741">
        <ele>895</ele>
        <time>2025-09-10T07:24:37Z</time>
      </trkpt>
      <trkpt lat="45.85326" lon="4.36742">
        <ele>895</ele>
        <time>2025-09-10T07:24:38Z</time>
      </trkpt>
      <trkpt lat="45.85325" lon="4.36744">
        <ele>895</ele>
        <time>2025-09-10T07:24:39Z</time>
      </trkpt>
      <trkpt lat="45.85325" lon="4.36745">
        <ele>895</ele>
        <time>2025-09-10T07:24:40Z</time>
      </trkpt>
      <trkpt lat="45.85325" lon="4.36746">
        <ele>895</ele>
        <time>2025-09-10T07:24:41Z</time>
      </trkpt>
      <trkpt lat="45.85324" lon="4.36748">
        <ele>895.2</ele>
        <time>2025-09-10T07:24:42Z</time>
      </trkpt>
      <trkpt lat="45.85324" lon="4.3675">
        <ele>895.2</ele>
        <time>2025-09-10T07:24:43Z</time>
      </trkpt>
      <trkpt lat="45.85324" lon="4.36752">
        <ele>895.4</ele>
        <time>2025-09-10T07:24:44Z</time>
      </trkpt>
      <trkpt lat="45.85324" lon="4.36754">
        <ele>895.8</ele>
        <time>2025-09-10T07:24:45Z</time>
      </trkpt>
      <trkpt lat="45.85323" lon="4.36756">
        <ele>895.8</ele>
        <time>2025-09-10T07:24:46Z</time>
      </trkpt>
      <trkpt lat="45.85322" lon="4.36758">
        <ele>895.8</ele>
        <time>2025-09-10T07:24:47Z</time>
      </trkpt>
      <trkpt lat="45.85321" lon="4.36759">
        <ele>896</ele>
        <time>2025-09-10T07:24:48Z</time>
      </trkpt>
      <trkpt lat="45.8532" lon="4.36761">
        <ele>896</ele>
        <time>2025-09-10T07:24:49Z</time>
      </trkpt>
      <trkpt lat="45.85319" lon="4.36762">
        <ele>896.2</ele>
        <time>2025-09-10T07:24:50Z</time>
      </trkpt>
      <trkpt lat="45.85318" lon="4.36764">
        <ele>896.2</ele>
        <time>2025-09-10T07:24:51Z</time>
      </trkpt>
      <trkpt lat="45.85317" lon="4.36765">
        <ele>896.2</ele>
        <time>2025-09-10T07:24:52Z</time>
      </trkpt>
      <trkpt lat="45.85316" lon="4.36766">
        <ele>896.6</ele>
        <time>2025-09-10T07:24:53Z</time>
      </trkpt>
      <trkpt lat="45.85315" lon="4.36768">
        <ele>896.6</ele>
        <time>2025-09-10T07:24:54Z</time>
      </trkpt>
      <trkpt lat="45.85314" lon="4.3677">
        <ele>896.6</ele>
        <time>2025-09-10T07:24:55Z</time>
      </trkpt>
      <trkpt lat="45.85313" lon="4.36771">
        <ele>897</ele>
        <time>2025-09-10T07:24:56Z</time>
      </trkpt>
      <trkpt lat="45.85312" lon="4.36773">
        <ele>897</ele>
        <time>2025-09-10T07:24:57Z</time>
      </trkpt>
      <trkpt lat="45.85311" lon="4.36774">
        <ele>897.2</ele>
        <time>2025-09-10T07:24:58Z</time>
      </trkpt>
      <trkpt lat="45.8531" lon="4.36776">
        <ele>897.2</ele>
        <time>2025-09-10T07:24:59Z</time>
      </trkpt>
      <trkpt lat="45.85309" lon="4.36778">
        <ele>897.2</ele>
        <time>2025-09-10T07:25:00Z</time>
      </trkpt>
      <trkpt lat="45.85308" lon="4.3678">
        <ele>897.2</ele>
        <time>2025-09-10T07:25:01Z</time>
      </trkpt>
      <trkpt lat="45.85307" lon="4.36782">
        <ele>897.2</ele>
        <time>2025-09-10T07:25:02Z</time>
      </trkpt>
      <trkpt lat="45.85305" lon="4.36784">
        <ele>897.2</ele>
        <time>2025-09-10T07:25:03Z</time>
      </trkpt>
      <trkpt lat="45.85304" lon="4.36785">
        <ele>897.2</ele>
        <time>2025-09-10T07:25:04Z</time>
      </trkpt>
      <trkpt lat="45.85303" lon="4.36786">
        <ele>897.4</ele>
        <time>2025-09-10T07:25:05Z</time>
      </trkpt>
      <trkpt lat="45.85301" lon="4.36788">
        <ele>897.4</ele>
        <time>2025-09-10T07:25:06Z</time>
      </trkpt>
      <trkpt lat="45.853" lon="4.36789">
        <ele>897.8</ele>
        <time>2025-09-10T07:25:07Z</time>
      </trkpt>
      <trkpt lat="45.853" lon="4.36791">
        <ele>897.8</ele>
        <time>2025-09-10T07:25:08Z</time>
      </trkpt>
      <trkpt lat="45.85299" lon="4.36792">
        <ele>898</ele>
        <time>2025-09-10T07:25:09Z</time>
      </trkpt>
      <trkpt lat="45.85298" lon="4.36793">
        <ele>898</ele>
        <time>2025-09-10T07:25:10Z</time>
      </trkpt>
      <trkpt lat="45.85298" lon="4.36794">
        <ele>898.4</ele>
        <time>2025-09-10T07:25:11Z</time>
      </trkpt>
      <trkpt lat="45.85297" lon="4.36796">
        <ele>898.4</ele>
        <time>2025-09-10T07:25:12Z</time>
      </trkpt>
      <trkpt lat="45.85296" lon="4.36797">
        <ele>898.6</ele>
        <time>2025-09-10T07:25:13Z</time>
      </trkpt>
      <trkpt lat="45.85295" lon="4.36798">
        <ele>898.6</ele>
        <time>2025-09-10T07:25:14Z</time>
      </trkpt>
      <trkpt lat="45.85294" lon="4.36799">
        <ele>899</ele>
        <time>2025-09-10T07:25:15Z</time>
      </trkpt>
      <trkpt lat="45.85293" lon="4.368">
        <ele>899</ele>
        <time>2025-09-10T07:25:16Z</time>
      </trkpt>
      <trkpt lat="45.85292" lon="4.36801">
        <ele>899</ele>
        <time>2025-09-10T07:25:17Z</time>
      </trkpt>
      <trkpt lat="45.85291" lon="4.36802">
        <ele>899.2</ele>
        <time>2025-09-10T07:25:18Z</time>
      </trkpt>
      <trkpt lat="45.8529" lon="4.36803">
        <ele>899.2</ele>
        <time>2025-09-10T07:25:19Z</time>
      </trkpt>
      <trkpt lat="45.85289" lon="4.36804">
        <ele>899.2</ele>
        <time>2025-09-10T07:25:20Z</time>
      </trkpt>
      <trkpt lat="45.85288" lon="4.36805">
        <ele>899.6</ele>
        <time>2025-09-10T07:25:21Z</time>
      </trkpt>
      <trkpt lat="45.85287" lon="4.36806">
        <ele>899.6</ele>
        <time>2025-09-10T07:25:22Z</time>
      </trkpt>
      <trkpt lat="45.85286" lon="4.36807">
        <ele>899.6</ele>
        <time>2025-09-10T07:25:23Z</time>
      </trkpt>
      <trkpt lat="45.85285" lon="4.36808">
        <ele>899.8</ele>
        <time>2025-09-10T07:25:24Z</time>
      </trkpt>
      <trkpt lat="45.85284" lon="4.36809">
        <ele>899.8</ele>
        <time>2025-09-10T07:25:25Z</time>
      </trkpt>
      <trkpt lat="45.85283" lon="4.3681">
        <ele>899.8</ele>
        <time>2025-09-10T07:25:26Z</time>
      </trkpt>
      <trkpt lat="45.85282" lon="4.36811">
        <ele>900</ele>
        <time>2025-09-10T07:25:27Z</time>
      </trkpt>
      <trkpt lat="45.85281" lon="4.36813">
        <ele>900</ele>
        <time>2025-09-10T07:25:28Z</time>
      </trkpt>
      <trkpt lat="45.8528" lon="4.36814">
        <ele>900.4</ele>
        <time>2025-09-10T07:25:29Z</time>
      </trkpt>
      <trkpt lat="45.85279" lon="4.36815">
        <ele>900.4</ele>
        <time>2025-09-10T07:25:30Z</time>
      </trkpt>
      <trkpt lat="45.85278" lon="4.36817">
        <ele>900.4</ele>
        <time>2025-09-10T07:25:31Z</time>
      </trkpt>
      <trkpt lat="45.85278" lon="4.36818">
        <ele>900.4</ele>
        <time>2025-09-10T07:25:32Z</time>
      </trkpt>
      <trkpt lat="45.85277" lon="4.3682">
        <ele>900.4</ele>
        <time>2025-09-10T07:25:33Z</time>
      </trkpt>
      <trkpt lat="45.85276" lon="4.36821">
        <ele>900.6</ele>
        <time>2025-09-10T07:25:34Z</time>
      </trkpt>
      <trkpt lat="45.85275" lon="4.36823">
        <ele>900.6</ele>
        <time>2025-09-10T07:25:35Z</time>
      </trkpt>
      <trkpt lat="45.85274" lon="4.36824">
        <ele>900.6</ele>
        <time>2025-09-10T07:25:36Z</time>
      </trkpt>
      <trkpt lat="45.85273" lon="4.36825">
        <ele>900.8</ele>
        <time>2025-09-10T07:25:37Z</time>
      </trkpt>
      <trkpt lat="45.85272" lon="4.36826">
        <ele>900.8</ele>
        <time>2025-09-10T07:25:38Z</time>
      </trkpt>
      <trkpt lat="45.85272" lon="4.36828">
        <ele>901.2</ele>
        <time>2025-09-10T07:25:39Z</time>
      </trkpt>
      <trkpt lat="45.85271" lon="4.36829">
        <ele>901.2</ele>
        <time>2025-09-10T07:25:40Z</time>
      </trkpt>
      <trkpt lat="45.8527" lon="4.3683">
        <ele>901.4</ele>
        <time>2025-09-10T07:25:41Z</time>
      </trkpt>
      <trkpt lat="45.8527" lon="4.36831">
        <ele>901.6</ele>
        <time>2025-09-10T07:25:42Z</time>
      </trkpt>
      <trkpt lat="45.85269" lon="4.36832">
        <ele>901.6</ele>
        <time>2025-09-10T07:25:43Z</time>
      </trkpt>
      <trkpt lat="45.85267" lon="4.36833">
        <ele>901.6</ele>
        <time>2025-09-10T07:25:44Z</time>
      </trkpt>
      <trkpt lat="45.85266" lon="4.36834">
        <ele>901.6</ele>
        <time>2025-09-10T07:25:45Z</time>
      </trkpt>
      <trkpt lat="45.85266" lon="4.36835">
        <ele>901.6</ele>
        <time>2025-09-10T07:25:46Z</time>
      </trkpt>
      <trkpt lat="45.85265" lon="4.36837">
        <ele>901.8</ele>
        <time>2025-09-10T07:25:47Z</time>
      </trkpt>
      <trkpt lat="45.85264" lon="4.36838">
        <ele>901.8</ele>
        <time>2025-09-10T07:25:48Z</time>
      </trkpt>
      <trkpt lat="45.85263" lon="4.36839">
        <ele>902.2</ele>
        <time>2025-09-10T07:25:49Z</time>
      </trkpt>
      <trkpt lat="45.85262" lon="4.36841">
        <ele>902.4</ele>
        <time>2025-09-10T07:25:50Z</time>
      </trkpt>
      <trkpt lat="45.85261" lon="4.36842">
        <ele>902.4</ele>
        <time>2025-09-10T07:25:51Z</time>
      </trkpt>
      <trkpt lat="45.8526" lon="4.36843">
        <ele>902.4</ele>
        <time>2025-09-10T07:25:52Z</time>
      </trkpt>
      <trkpt lat="45.8526" lon="4.36844">
        <ele>902.4</ele>
        <time>2025-09-10T07:25:53Z</time>
      </trkpt>
      <trkpt lat="45.85259" lon="4.36845">
        <ele>902.6</ele>
        <time>2025-09-10T07:25:54Z</time>
      </trkpt>
      <trkpt lat="45.85258" lon="4.36846">
        <ele>902.8</ele>
        <time>2025-09-10T07:25:55Z</time>
      </trkpt>
      <trkpt lat="45.85257" lon="4.36847">
        <ele>902.8</ele>
        <time>2025-09-10T07:25:56Z</time>
      </trkpt>
      <trkpt lat="45.85256" lon="4.3685">
        <ele>903.2</ele>
        <time>2025-09-10T07:25:57Z</time>
      </trkpt>
      <trkpt lat="45.85255" lon="4.36851">
        <ele>903.2</ele>
        <time>2025-09-10T07:25:58Z</time>
      </trkpt>
      <trkpt lat="45.85254" lon="4.36852">
        <ele>903.4</ele>
        <time>2025-09-10T07:25:59Z</time>
      </trkpt>
      <trkpt lat="45.85254" lon="4.36853">
        <ele>903.4</ele>
        <time>2025-09-10T07:26:00Z</time>
      </trkpt>
      <trkpt lat="45.85254" lon="4.36854">
        <ele>903.8</ele>
        <time>2025-09-10T07:26:01Z</time>
      </trkpt>
      <trkpt lat="45.85254" lon="4.36856">
        <ele>903.8</ele>
        <time>2025-09-10T07:26:02Z</time>
      </trkpt>
      <trkpt lat="45.85253" lon="4.36857">
        <ele>904.2</ele>
        <time>2025-09-10T07:26:03Z</time>
      </trkpt>
      <trkpt lat="45.85252" lon="4.36858">
        <ele>904.2</ele>
        <time>2025-09-10T07:26:04Z</time>
      </trkpt>
      <trkpt lat="45.85251" lon="4.36859">
        <ele>904.2</ele>
        <time>2025-09-10T07:26:05Z</time>
      </trkpt>
      <trkpt lat="45.8525" lon="4.36861">
        <ele>904.2</ele>
        <time>2025-09-10T07:26:06Z</time>
      </trkpt>
      <trkpt lat="45.85249" lon="4.36862">
        <ele>904.6</ele>
        <time>2025-09-10T07:26:07Z</time>
      </trkpt>
      <trkpt lat="45.85249" lon="4.36863">
        <ele>904.6</ele>
        <time>2025-09-10T07:26:08Z</time>
      </trkpt>
      <trkpt lat="45.85248" lon="4.36865">
        <ele>904.8</ele>
        <time>2025-09-10T07:26:09Z</time>
      </trkpt>
      <trkpt lat="45.85247" lon="4.36866">
        <ele>904.8</ele>
        <time>2025-09-10T07:26:10Z</time>
      </trkpt>
      <trkpt lat="45.85246" lon="4.36868">
        <ele>905.2</ele>
        <time>2025-09-10T07:26:11Z</time>
      </trkpt>
      <trkpt lat="45.85245" lon="4.36869">
        <ele>905.2</ele>
        <time>2025-09-10T07:26:12Z</time>
      </trkpt>
      <trkpt lat="45.85245" lon="4.3687">
        <ele>905.2</ele>
        <time>2025-09-10T07:26:13Z</time>
      </trkpt>
      <trkpt lat="45.85244" lon="4.36872">
        <ele>905.4</ele>
        <time>2025-09-10T07:26:14Z</time>
      </trkpt>
      <trkpt lat="45.85244" lon="4.36873">
        <ele>905.4</ele>
        <time>2025-09-10T07:26:15Z</time>
      </trkpt>
      <trkpt lat="45.85243" lon="4.36874">
        <ele>905.6</ele>
        <time>2025-09-10T07:26:16Z</time>
      </trkpt>
      <trkpt lat="45.85242" lon="4.36875">
        <ele>905.6</ele>
        <time>2025-09-10T07:26:17Z</time>
      </trkpt>
      <trkpt lat="45.85242" lon="4.36875">
        <ele>906</ele>
        <time>2025-09-10T07:26:18Z</time>
      </trkpt>
      <trkpt lat="45.85241" lon="4.36876">
        <ele>906</ele>
        <time>2025-09-10T07:26:19Z</time>
      </trkpt>
      <trkpt lat="45.85241" lon="4.36877">
        <ele>906</ele>
        <time>2025-09-10T07:26:20Z</time>
      </trkpt>
      <trkpt lat="45.8524" lon="4.36878">
        <ele>906</ele>
        <time>2025-09-10T07:26:21Z</time>
      </trkpt>
      <trkpt lat="45.85239" lon="4.3688">
        <ele>906.2</ele>
        <time>2025-09-10T07:26:22Z</time>
      </trkpt>
      <trkpt lat="45.85239" lon="4.36881">
        <ele>906.2</ele>
        <time>2025-09-10T07:26:23Z</time>
      </trkpt>
      <trkpt lat="45.85238" lon="4.36882">
        <ele>906.6</ele>
        <time>2025-09-10T07:26:24Z</time>
      </trkpt>
      <trkpt lat="45.85237" lon="4.36883">
        <ele>906.6</ele>
        <time>2025-09-10T07:26:25Z</time>
      </trkpt>
      <trkpt lat="45.85236" lon="4.36884">
        <ele>906.8</ele>
        <time>2025-09-10T07:26:26Z</time>
      </trkpt>
      <trkpt lat="45.85235" lon="4.36884">
        <ele>906.8</ele>
        <time>2025-09-10T07:26:27Z</time>
      </trkpt>
      <trkpt lat="45.85234" lon="4.36885">
        <ele>907</ele>
        <time>2025-09-10T07:26:28Z</time>
      </trkpt>
      <trkpt lat="45.85234" lon="4.36886">
        <ele>907</ele>
        <time>2025-09-10T07:26:29Z</time>
      </trkpt>
      <trkpt lat="45.85233" lon="4.36888">
        <ele>907</ele>
        <time>2025-09-10T07:26:30Z</time>
      </trkpt>
      <trkpt lat="45.85232" lon="4.36889">
        <ele>907</ele>
        <time>2025-09-10T07:26:31Z</time>
      </trkpt>
      <trkpt lat="45.85231" lon="4.36891">
        <ele>907</ele>
        <time>2025-09-10T07:26:32Z</time>
      </trkpt>
      <trkpt lat="45.85231" lon="4.36892">
        <ele>907.4</ele>
        <time>2025-09-10T07:26:33Z</time>
      </trkpt>
      <trkpt lat="45.8523" lon="4.36893">
        <ele>907.4</ele>
        <time>2025-09-10T07:26:34Z</time>
      </trkpt>
      <trkpt lat="45.8523" lon="4.36895">
        <ele>907.4</ele>
        <time>2025-09-10T07:26:35Z</time>
      </trkpt>
      <trkpt lat="45.85229" lon="4.36896">
        <ele>907.6</ele>
        <time>2025-09-10T07:26:36Z</time>
      </trkpt>
      <trkpt lat="45.85228" lon="4.36897">
        <ele>907.6</ele>
        <time>2025-09-10T07:26:37Z</time>
      </trkpt>
      <trkpt lat="45.85227" lon="4.36898">
        <ele>907.8</ele>
        <time>2025-09-10T07:26:38Z</time>
      </trkpt>
      <trkpt lat="45.85226" lon="4.36899">
        <ele>907.8</ele>
        <time>2025-09-10T07:26:39Z</time>
      </trkpt>
      <trkpt lat="45.85225" lon="4.369">
        <ele>907.8</ele>
        <time>2025-09-10T07:26:40Z</time>
      </trkpt>
      <trkpt lat="45.85225" lon="4.36901">
        <ele>908.2</ele>
        <time>2025-09-10T07:26:41Z</time>
      </trkpt>
      <trkpt lat="45.85224" lon="4.36903">
        <ele>908.2</ele>
        <time>2025-09-10T07:26:42Z</time>
      </trkpt>
      <trkpt lat="45.85224" lon="4.36904">
        <ele>908.2</ele>
        <time>2025-09-10T07:26:43Z</time>
      </trkpt>
      <trkpt lat="45.85223" lon="4.36905">
        <ele>908.4</ele>
        <time>2025-09-10T07:26:44Z</time>
      </trkpt>
      <trkpt lat="45.85223" lon="4.36907">
        <ele>908.6</ele>
        <time>2025-09-10T07:26:45Z</time>
      </trkpt>
      <trkpt lat="45.85222" lon="4.36908">
        <ele>908.6</ele>
        <time>2025-09-10T07:26:46Z</time>
      </trkpt>
      <trkpt lat="45.85222" lon="4.3691">
        <ele>909</ele>
        <time>2025-09-10T07:26:47Z</time>
      </trkpt>
      <trkpt lat="45.85221" lon="4.36912">
        <ele>909</ele>
        <time>2025-09-10T07:26:48Z</time>
      </trkpt>
      <trkpt lat="45.8522" lon="4.36913">
        <ele>909.4</ele>
        <time>2025-09-10T07:26:49Z</time>
      </trkpt>
      <trkpt lat="45.85219" lon="4.36915">
        <ele>909.4</ele>
        <time>2025-09-10T07:26:50Z</time>
      </trkpt>
      <trkpt lat="45.85218" lon="4.36917">
        <ele>909.6</ele>
        <time>2025-09-10T07:26:51Z</time>
      </trkpt>
      <trkpt lat="45.85217" lon="4.36919">
        <ele>909.6</ele>
        <time>2025-09-10T07:26:52Z</time>
      </trkpt>
      <trkpt lat="45.85216" lon="4.36921">
        <ele>909.8</ele>
        <time>2025-09-10T07:26:53Z</time>
      </trkpt>
      <trkpt lat="45.85215" lon="4.36922">
        <ele>910</ele>
        <time>2025-09-10T07:26:54Z</time>
      </trkpt>
      <trkpt lat="45.85214" lon="4.36924">
        <ele>910</ele>
        <time>2025-09-10T07:26:55Z</time>
      </trkpt>
      <trkpt lat="45.85213" lon="4.36925">
        <ele>910</ele>
        <time>2025-09-10T07:26:56Z</time>
      </trkpt>
      <trkpt lat="45.85212" lon="4.36927">
        <ele>910.4</ele>
        <time>2025-09-10T07:26:57Z</time>
      </trkpt>
      <trkpt lat="45.85211" lon="4.36929">
        <ele>910.4</ele>
        <time>2025-09-10T07:26:58Z</time>
      </trkpt>
      <trkpt lat="45.85211" lon="4.3693">
        <ele>910.6</ele>
        <time>2025-09-10T07:26:59Z</time>
      </trkpt>
      <trkpt lat="45.8521" lon="4.36932">
        <ele>910.6</ele>
        <time>2025-09-10T07:27:00Z</time>
      </trkpt>
      <trkpt lat="45.85209" lon="4.36933">
        <ele>910.6</ele>
        <time>2025-09-10T07:27:01Z</time>
      </trkpt>
      <trkpt lat="45.85209" lon="4.36935">
        <ele>910.8</ele>
        <time>2025-09-10T07:27:02Z</time>
      </trkpt>
      <trkpt lat="45.85208" lon="4.36936">
        <ele>910.8</ele>
        <time>2025-09-10T07:27:03Z</time>
      </trkpt>
      <trkpt lat="45.85207" lon="4.36937">
        <ele>910.8</ele>
        <time>2025-09-10T07:27:04Z</time>
      </trkpt>
      <trkpt lat="45.85207" lon="4.36938">
        <ele>911.2</ele>
        <time>2025-09-10T07:27:05Z</time>
      </trkpt>
      <trkpt lat="45.85206" lon="4.36939">
        <ele>911.2</ele>
        <time>2025-09-10T07:27:06Z</time>
      </trkpt>
      <trkpt lat="45.85206" lon="4.36941">
        <ele>911.2</ele>
        <time>2025-09-10T07:27:07Z</time>
      </trkpt>
      <trkpt lat="45.85205" lon="4.36942">
        <ele>911.2</ele>
        <time>2025-09-10T07:27:08Z</time>
      </trkpt>
      <trkpt lat="45.85205" lon="4.36944">
        <ele>911.4</ele>
        <time>2025-09-10T07:27:09Z</time>
      </trkpt>
      <trkpt lat="45.85204" lon="4.36945">
        <ele>911.4</ele>
        <time>2025-09-10T07:27:10Z</time>
      </trkpt>
      <trkpt lat="45.85202" lon="4.36946">
        <ele>911.8</ele>
        <time>2025-09-10T07:27:11Z</time>
      </trkpt>
      <trkpt lat="45.85201" lon="4.36948">
        <ele>911.8</ele>
        <time>2025-09-10T07:27:12Z</time>
      </trkpt>
      <trkpt lat="45.852" lon="4.3695">
        <ele>912</ele>
        <time>2025-09-10T07:27:13Z</time>
      </trkpt>
      <trkpt lat="45.85199" lon="4.36952">
        <ele>912.4</ele>
        <time>2025-09-10T07:27:14Z</time>
      </trkpt>
      <trkpt lat="45.85198" lon="4.36954">
        <ele>912.4</ele>
        <time>2025-09-10T07:27:15Z</time>
      </trkpt>
      <trkpt lat="45.85197" lon="4.36956">
        <ele>912.6</ele>
        <time>2025-09-10T07:27:16Z</time>
      </trkpt>
      <trkpt lat="45.85196" lon="4.36958">
        <ele>912.8</ele>
        <time>2025-09-10T07:27:17Z</time>
      </trkpt>
      <trkpt lat="45.85195" lon="4.3696">
        <ele>912.8</ele>
        <time>2025-09-10T07:27:18Z</time>
      </trkpt>
      <trkpt lat="45.85194" lon="4.36962">
        <ele>913.2</ele>
        <time>2025-09-10T07:27:19Z</time>
      </trkpt>
      <trkpt lat="45.85193" lon="4.36964">
        <ele>913.2</ele>
        <time>2025-09-10T07:27:20Z</time>
      </trkpt>
      <trkpt lat="45.85192" lon="4.36965">
        <ele>913.2</ele>
        <time>2025-09-10T07:27:21Z</time>
      </trkpt>
      <trkpt lat="45.85191" lon="4.36967">
        <ele>913.2</ele>
        <time>2025-09-10T07:27:22Z</time>
      </trkpt>
      <trkpt lat="45.8519" lon="4.36969">
        <ele>913.4</ele>
        <time>2025-09-10T07:27:23Z</time>
      </trkpt>
      <trkpt lat="45.85189" lon="4.3697">
        <ele>913.4</ele>
        <time>2025-09-10T07:27:24Z</time>
      </trkpt>
      <trkpt lat="45.85188" lon="4.36972">
        <ele>913.4</ele>
        <time>2025-09-10T07:27:25Z</time>
      </trkpt>
      <trkpt lat="45.85187" lon="4.36974">
        <ele>913.8</ele>
        <time>2025-09-10T07:27:26Z</time>
      </trkpt>
      <trkpt lat="45.85187" lon="4.36976">
        <ele>913.8</ele>
        <time>2025-09-10T07:27:27Z</time>
      </trkpt>
      <trkpt lat="45.85186" lon="4.36978">
        <ele>913.8</ele>
        <time>2025-09-10T07:27:28Z</time>
      </trkpt>
      <trkpt lat="45.85184" lon="4.3698">
        <ele>914.2</ele>
        <time>2025-09-10T07:27:29Z</time>
      </trkpt>
      <trkpt lat="45.85183" lon="4.36981">
        <ele>914.2</ele>
        <time>2025-09-10T07:27:30Z</time>
      </trkpt>
      <trkpt lat="45.85182" lon="4.36983">
        <ele>914.2</ele>
        <time>2025-09-10T07:27:31Z</time>
      </trkpt>
      <trkpt lat="45.85181" lon="4.36985">
        <ele>914.4</ele>
        <time>2025-09-10T07:27:32Z</time>
      </trkpt>
      <trkpt lat="45.85181" lon="4.36988">
        <ele>914.4</ele>
        <time>2025-09-10T07:27:33Z</time>
      </trkpt>
      <trkpt lat="45.8518" lon="4.3699">
        <ele>914.4</ele>
        <time>2025-09-10T07:27:34Z</time>
      </trkpt>
      <trkpt lat="45.85179" lon="4.36992">
        <ele>914.4</ele>
        <time>2025-09-10T07:27:35Z</time>
      </trkpt>
      <trkpt lat="45.85178" lon="4.36994">
        <ele>914.6</ele>
        <time>2025-09-10T07:27:36Z</time>
      </trkpt>
      <trkpt lat="45.85177" lon="4.36996">
        <ele>914.6</ele>
        <time>2025-09-10T07:27:37Z</time>
      </trkpt>
      <trkpt lat="45.85176" lon="4.36998">
        <ele>914.8</ele>
        <time>2025-09-10T07:27:38Z</time>
      </trkpt>
      <trkpt lat="45.85175" lon="4.37">
        <ele>914.8</ele>
        <time>2025-09-10T07:27:39Z</time>
      </trkpt>
      <trkpt lat="45.85174" lon="4.37002">
        <ele>915</ele>
        <time>2025-09-10T07:27:40Z</time>
      </trkpt>
      <trkpt lat="45.85174" lon="4.37004">
        <ele>915</ele>
        <time>2025-09-10T07:27:41Z</time>
      </trkpt>
      <trkpt lat="45.85173" lon="4.37006">
        <ele>915</ele>
        <time>2025-09-10T07:27:42Z</time>
      </trkpt>
      <trkpt lat="45.85172" lon="4.37008">
        <ele>915</ele>
        <time>2025-09-10T07:27:43Z</time>
      </trkpt>
      <trkpt lat="45.85171" lon="4.3701">
        <ele>915</ele>
        <time>2025-09-10T07:27:44Z</time>
      </trkpt>
      <trkpt lat="45.8517" lon="4.37012">
        <ele>915.4</ele>
        <time>2025-09-10T07:27:45Z</time>
      </trkpt>
      <trkpt lat="45.8517" lon="4.37015">
        <ele>915.4</ele>
        <time>2025-09-10T07:27:46Z</time>
      </trkpt>
      <trkpt lat="45.85169" lon="4.37017">
        <ele>915.6</ele>
        <time>2025-09-10T07:27:47Z</time>
      </trkpt>
      <trkpt lat="45.85168" lon="4.37019">
        <ele>915.6</ele>
        <time>2025-09-10T07:27:48Z</time>
      </trkpt>
      <trkpt lat="45.85168" lon="4.37021">
        <ele>915.8</ele>
        <time>2025-09-10T07:27:49Z</time>
      </trkpt>
      <trkpt lat="45.85167" lon="4.37023">
        <ele>915.8</ele>
        <time>2025-09-10T07:27:50Z</time>
      </trkpt>
      <trkpt lat="45.85167" lon="4.37025">
        <ele>916</ele>
        <time>2025-09-10T07:27:51Z</time>
      </trkpt>
      <trkpt lat="45.85166" lon="4.37027">
        <ele>916</ele>
        <time>2025-09-10T07:27:52Z</time>
      </trkpt>
      <trkpt lat="45.85165" lon="4.3703">
        <ele>916</ele>
        <time>2025-09-10T07:27:53Z</time>
      </trkpt>
      <trkpt lat="45.85165" lon="4.37032">
        <ele>916.4</ele>
        <time>2025-09-10T07:27:54Z</time>
      </trkpt>
      <trkpt lat="45.85164" lon="4.37034">
        <ele>916.4</ele>
        <time>2025-09-10T07:27:55Z</time>
      </trkpt>
      <trkpt lat="45.85163" lon="4.37036">
        <ele>916.6</ele>
        <time>2025-09-10T07:27:56Z</time>
      </trkpt>
      <trkpt lat="45.85162" lon="4.37039">
        <ele>916.6</ele>
        <time>2025-09-10T07:27:57Z</time>
      </trkpt>
      <trkpt lat="45.85161" lon="4.37041">
        <ele>916.6</ele>
        <time>2025-09-10T07:27:58Z</time>
      </trkpt>
      <trkpt lat="45.8516" lon="4.37044">
        <ele>916.6</ele>
        <time>2025-09-10T07:27:59Z</time>
      </trkpt>
      <trkpt lat="45.8516" lon="4.37046">
        <ele>916.6</ele>
        <time>2025-09-10T07:28:00Z</time>
      </trkpt>
      <trkpt lat="45.85159" lon="4.37049">
        <ele>916.6</ele>
        <time>2025-09-10T07:28:01Z</time>
      </trkpt>
      <trkpt lat="45.85158" lon="4.37052">
        <ele>916.6</ele>
        <time>2025-09-10T07:28:02Z</time>
      </trkpt>
      <trkpt lat="45.85158" lon="4.37055">
        <ele>916.6</ele>
        <time>2025-09-10T07:28:03Z</time>
      </trkpt>
      <trkpt lat="45.85158" lon="4.37057">
        <ele>916.8</ele>
        <time>2025-09-10T07:28:04Z</time>
      </trkpt>
      <trkpt lat="45.85158" lon="4.3706">
        <ele>916.8</ele>
        <time>2025-09-10T07:28:05Z</time>
      </trkpt>
      <trkpt lat="45.85158" lon="4.37063">
        <ele>916.8</ele>
        <time>2025-09-10T07:28:06Z</time>
      </trkpt>
      <trkpt lat="45.85157" lon="4.37065">
        <ele>916.8</ele>
        <time>2025-09-10T07:28:07Z</time>
      </trkpt>
      <trkpt lat="45.85157" lon="4.37068">
        <ele>916.8</ele>
        <time>2025-09-10T07:28:08Z</time>
      </trkpt>
      <trkpt lat="45.85157" lon="4.37071">
        <ele>916.8</ele>
        <time>2025-09-10T07:28:09Z</time>
      </trkpt>
      <trkpt lat="45.85157" lon="4.37073">
        <ele>916.8</ele>
        <time>2025-09-10T07:28:10Z</time>
      </trkpt>
      <trkpt lat="45.85156" lon="4.37076">
        <ele>916.8</ele>
        <time>2025-09-10T07:28:11Z</time>
      </trkpt>
      <trkpt lat="45.85155" lon="4.37078">
        <ele>917</ele>
        <time>2025-09-10T07:28:12Z</time>
      </trkpt>
      <trkpt lat="45.85154" lon="4.3708">
        <ele>916.6</ele>
        <time>2025-09-10T07:28:13Z</time>
      </trkpt>
      <trkpt lat="45.85153" lon="4.37082">
        <ele>916.4</ele>
        <time>2025-09-10T07:28:14Z</time>
      </trkpt>
      <trkpt lat="45.85152" lon="4.37084">
        <ele>916.8</ele>
        <time>2025-09-10T07:28:15Z</time>
      </trkpt>
      <trkpt lat="45.85151" lon="4.37086">
        <ele>917</ele>
        <time>2025-09-10T07:28:16Z</time>
      </trkpt>
      <trkpt lat="45.8515" lon="4.37088">
        <ele>917</ele>
        <time>2025-09-10T07:28:17Z</time>
      </trkpt>
      <trkpt lat="45.8515" lon="4.3709">
        <ele>917.4</ele>
        <time>2025-09-10T07:28:18Z</time>
      </trkpt>
      <trkpt lat="45.85149" lon="4.37092">
        <ele>917.4</ele>
        <time>2025-09-10T07:28:19Z</time>
      </trkpt>
      <trkpt lat="45.85149" lon="4.37094">
        <ele>917.4</ele>
        <time>2025-09-10T07:28:20Z</time>
      </trkpt>
      <trkpt lat="45.85149" lon="4.37097">
        <ele>917.4</ele>
        <time>2025-09-10T07:28:21Z</time>
      </trkpt>
      <trkpt lat="45.85149" lon="4.37099">
        <ele>917</ele>
        <time>2025-09-10T07:28:22Z</time>
      </trkpt>
      <trkpt lat="45.85148" lon="4.37102">
        <ele>917.2</ele>
        <time>2025-09-10T07:28:23Z</time>
      </trkpt>
      <trkpt lat="45.85147" lon="4.37103">
        <ele>916.6</ele>
        <time>2025-09-10T07:28:24Z</time>
      </trkpt>
      <trkpt lat="45.85147" lon="4.37105">
        <ele>917.4</ele>
        <time>2025-09-10T07:28:25Z</time>
      </trkpt>
      <trkpt lat="45.85146" lon="4.37108">
        <ele>917</ele>
        <time>2025-09-10T07:28:26Z</time>
      </trkpt>
      <trkpt lat="45.85145" lon="4.3711">
        <ele>917</ele>
        <time>2025-09-10T07:28:27Z</time>
      </trkpt>
      <trkpt lat="45.85144" lon="4.37112">
        <ele>917.6</ele>
        <time>2025-09-10T07:28:28Z</time>
      </trkpt>
      <trkpt lat="45.85143" lon="4.37115">
        <ele>917.6</ele>
        <time>2025-09-10T07:28:29Z</time>
      </trkpt>
      <trkpt lat="45.85143" lon="4.37117">
        <ele>917.8</ele>
        <time>2025-09-10T07:28:30Z</time>
      </trkpt>
      <trkpt lat="45.85142" lon="4.3712">
        <ele>918.2</ele>
        <time>2025-09-10T07:28:31Z</time>
      </trkpt>
      <trkpt lat="45.85141" lon="4.37122">
        <ele>918.2</ele>
        <time>2025-09-10T07:28:32Z</time>
      </trkpt>
      <trkpt lat="45.85139" lon="4.37124">
        <ele>918.2</ele>
        <time>2025-09-10T07:28:33Z</time>
      </trkpt>
      <trkpt lat="45.85137" lon="4.37126">
        <ele>918.2</ele>
        <time>2025-09-10T07:28:34Z</time>
      </trkpt>
      <trkpt lat="45.85135" lon="4.37128">
        <ele>918.2</ele>
        <time>2025-09-10T07:28:35Z</time>
      </trkpt>
      <trkpt lat="45.85134" lon="4.3713">
        <ele>918.2</ele>
        <time>2025-09-10T07:28:36Z</time>
      </trkpt>
      <trkpt lat="45.85133" lon="4.37132">
        <ele>918.2</ele>
        <time>2025-09-10T07:28:37Z</time>
      </trkpt>
      <trkpt lat="45.85132" lon="4.37134">
        <ele>918.2</ele>
        <time>2025-09-10T07:28:38Z</time>
      </trkpt>
      <trkpt lat="45.85132" lon="4.37137">
        <ele>918.2</ele>
        <time>2025-09-10T07:28:39Z</time>
      </trkpt>
      <trkpt lat="45.85131" lon="4.37139">
        <ele>918.6</ele>
        <time>2025-09-10T07:28:40Z</time>
      </trkpt>
      <trkpt lat="45.85131" lon="4.37142">
        <ele>918.6</ele>
        <time>2025-09-10T07:28:41Z</time>
      </trkpt>
      <trkpt lat="45.85131" lon="4.37144">
        <ele>918.6</ele>
        <time>2025-09-10T07:28:42Z</time>
      </trkpt>
      <trkpt lat="45.8513" lon="4.37147">
        <ele>918.6</ele>
        <time>2025-09-10T07:28:43Z</time>
      </trkpt>
      <trkpt lat="45.8513" lon="4.37149">
        <ele>918.6</ele>
        <time>2025-09-10T07:28:44Z</time>
      </trkpt>
      <trkpt lat="45.85129" lon="4.37151">
        <ele>918.4</ele>
        <time>2025-09-10T07:28:45Z</time>
      </trkpt>
      <trkpt lat="45.85128" lon="4.37153">
        <ele>918.4</ele>
        <time>2025-09-10T07:28:46Z</time>
      </trkpt>
      <trkpt lat="45.85128" lon="4.37155">
        <ele>918.4</ele>
        <time>2025-09-10T07:28:47Z</time>
      </trkpt>
      <trkpt lat="45.85127" lon="4.37157">
        <ele>918.4</ele>
        <time>2025-09-10T07:28:48Z</time>
      </trkpt>
      <trkpt lat="45.85126" lon="4.37159">
        <ele>918.6</ele>
        <time>2025-09-10T07:28:49Z</time>
      </trkpt>
      <trkpt lat="45.85126" lon="4.37161">
        <ele>919</ele>
        <time>2025-09-10T07:28:50Z</time>
      </trkpt>
      <trkpt lat="45.85125" lon="4.37163">
        <ele>919.4</ele>
        <time>2025-09-10T07:28:51Z</time>
      </trkpt>
      <trkpt lat="45.85124" lon="4.37165">
        <ele>919.6</ele>
        <time>2025-09-10T07:28:52Z</time>
      </trkpt>
      <trkpt lat="45.85123" lon="4.37167">
        <ele>920</ele>
        <time>2025-09-10T07:28:53Z</time>
      </trkpt>
      <trkpt lat="45.85123" lon="4.37169">
        <ele>920</ele>
        <time>2025-09-10T07:28:54Z</time>
      </trkpt>
      <trkpt lat="45.85122" lon="4.37172">
        <ele>920</ele>
        <time>2025-09-10T07:28:55Z</time>
      </trkpt>
      <trkpt lat="45.85121" lon="4.37174">
        <ele>920</ele>
        <time>2025-09-10T07:28:56Z</time>
      </trkpt>
      <trkpt lat="45.8512" lon="4.37176">
        <ele>920</ele>
        <time>2025-09-10T07:28:57Z</time>
      </trkpt>
      <trkpt lat="45.85119" lon="4.37177">
        <ele>920</ele>
        <time>2025-09-10T07:28:58Z</time>
      </trkpt>
      <trkpt lat="45.85118" lon="4.37179">
        <ele>920.2</ele>
        <time>2025-09-10T07:28:59Z</time>
      </trkpt>
      <trkpt lat="45.85118" lon="4.37181">
        <ele>920.2</ele>
        <time>2025-09-10T07:29:00Z</time>
      </trkpt>
      <trkpt lat="45.85118" lon="4.37183">
        <ele>920.6</ele>
        <time>2025-09-10T07:29:01Z</time>
      </trkpt>
      <trkpt lat="45.85118" lon="4.37184">
        <ele>920.6</ele>
        <time>2025-09-10T07:29:02Z</time>
      </trkpt>
      <trkpt lat="45.85118" lon="4.37185">
        <ele>920.6</ele>
        <time>2025-09-10T07:29:03Z</time>
      </trkpt>
      <trkpt lat="45.85118" lon="4.37187">
        <ele>920.6</ele>
        <time>2025-09-10T07:29:04Z</time>
      </trkpt>
      <trkpt lat="45.85118" lon="4.3719">
        <ele>921</ele>
        <time>2025-09-10T07:29:05Z</time>
      </trkpt>
      <trkpt lat="45.85119" lon="4.37192">
        <ele>921</ele>
        <time>2025-09-10T07:29:06Z</time>
      </trkpt>
      <trkpt lat="45.85119" lon="4.37195">
        <ele>921.2</ele>
        <time>2025-09-10T07:29:07Z</time>
      </trkpt>
      <trkpt lat="45.85119" lon="4.37198">
        <ele>921.2</ele>
        <time>2025-09-10T07:29:08Z</time>
      </trkpt>
      <trkpt lat="45.85119" lon="4.372">
        <ele>921.6</ele>
        <time>2025-09-10T07:29:09Z</time>
      </trkpt>
      <trkpt lat="45.85119" lon="4.37202">
        <ele>921.6</ele>
        <time>2025-09-10T07:29:10Z</time>
      </trkpt>
      <trkpt lat="45.85118" lon="4.37203">
        <ele>922</ele>
        <time>2025-09-10T07:29:11Z</time>
      </trkpt>
      <trkpt lat="45.85118" lon="4.37205">
        <ele>922</ele>
        <time>2025-09-10T07:29:12Z</time>
      </trkpt>
      <trkpt lat="45.85117" lon="4.37207">
        <ele>922.4</ele>
        <time>2025-09-10T07:29:13Z</time>
      </trkpt>
      <trkpt lat="45.85117" lon="4.37209">
        <ele>922.8</ele>
        <time>2025-09-10T07:29:14Z</time>
      </trkpt>
      <trkpt lat="45.85117" lon="4.3721">
        <ele>922.8</ele>
        <time>2025-09-10T07:29:15Z</time>
      </trkpt>
      <trkpt lat="45.85118" lon="4.37212">
        <ele>922.8</ele>
        <time>2025-09-10T07:29:16Z</time>
      </trkpt>
      <trkpt lat="45.85118" lon="4.37215">
        <ele>922.8</ele>
        <time>2025-09-10T07:29:17Z</time>
      </trkpt>
      <trkpt lat="45.85118" lon="4.37217">
        <ele>922.8</ele>
        <time>2025-09-10T07:29:18Z</time>
      </trkpt>
      <trkpt lat="45.85118" lon="4.37219">
        <ele>923.2</ele>
        <time>2025-09-10T07:29:19Z</time>
      </trkpt>
      <trkpt lat="45.85118" lon="4.37221">
        <ele>923.2</ele>
        <time>2025-09-10T07:29:20Z</time>
      </trkpt>
      <trkpt lat="45.85118" lon="4.37223">
        <ele>923.6</ele>
        <time>2025-09-10T07:29:21Z</time>
      </trkpt>
      <trkpt lat="45.85118" lon="4.37225">
        <ele>923.6</ele>
        <time>2025-09-10T07:29:22Z</time>
      </trkpt>
      <trkpt lat="45.85118" lon="4.37227">
        <ele>923.6</ele>
        <time>2025-09-10T07:29:23Z</time>
      </trkpt>
      <trkpt lat="45.85117" lon="4.37229">
        <ele>924</ele>
        <time>2025-09-10T07:29:24Z</time>
      </trkpt>
      <trkpt lat="45.85116" lon="4.3723">
        <ele>924</ele>
        <time>2025-09-10T07:29:25Z</time>
      </trkpt>
      <trkpt lat="45.85115" lon="4.37231">
        <ele>924.4</ele>
        <time>2025-09-10T07:29:26Z</time>
      </trkpt>
      <trkpt lat="45.85114" lon="4.37233">
        <ele>924.4</ele>
        <time>2025-09-10T07:29:27Z</time>
      </trkpt>
      <trkpt lat="45.85114" lon="4.37234">
        <ele>924.4</ele>
        <time>2025-09-10T07:29:28Z</time>
      </trkpt>
      <trkpt lat="45.85114" lon="4.37236">
        <ele>924.4</ele>
        <time>2025-09-10T07:29:29Z</time>
      </trkpt>
      <trkpt lat="45.85114" lon="4.37238">
        <ele>924.6</ele>
        <time>2025-09-10T07:29:30Z</time>
      </trkpt>
      <trkpt lat="45.85115" lon="4.37241">
        <ele>924.6</ele>
        <time>2025-09-10T07:29:31Z</time>
      </trkpt>
      <trkpt lat="45.85115" lon="4.37243">
        <ele>925</ele>
        <time>2025-09-10T07:29:32Z</time>
      </trkpt>
      <trkpt lat="45.85115" lon="4.37245">
        <ele>925</ele>
        <time>2025-09-10T07:29:33Z</time>
      </trkpt>
      <trkpt lat="45.85114" lon="4.37246">
        <ele>925.4</ele>
        <time>2025-09-10T07:29:34Z</time>
      </trkpt>
      <trkpt lat="45.85113" lon="4.37246">
        <ele>925.6</ele>
        <time>2025-09-10T07:29:35Z</time>
      </trkpt>
      <trkpt lat="45.85113" lon="4.37248">
        <ele>925.6</ele>
        <time>2025-09-10T07:29:36Z</time>
      </trkpt>
      <trkpt lat="45.85112" lon="4.3725">
        <ele>925.6</ele>
        <time>2025-09-10T07:29:37Z</time>
      </trkpt>
      <trkpt lat="45.85111" lon="4.37252">
        <ele>925.8</ele>
        <time>2025-09-10T07:29:38Z</time>
      </trkpt>
      <trkpt lat="45.85111" lon="4.37253">
        <ele>925.8</ele>
        <time>2025-09-10T07:29:39Z</time>
      </trkpt>
      <trkpt lat="45.8511" lon="4.37254">
        <ele>925.8</ele>
        <time>2025-09-10T07:29:40Z</time>
      </trkpt>
      <trkpt lat="45.8511" lon="4.37255">
        <ele>926</ele>
        <time>2025-09-10T07:29:41Z</time>
      </trkpt>
      <trkpt lat="45.8511" lon="4.37256">
        <ele>926</ele>
        <time>2025-09-10T07:29:42Z</time>
      </trkpt>
      <trkpt lat="45.8511" lon="4.37259">
        <ele>926.4</ele>
        <time>2025-09-10T07:29:43Z</time>
      </trkpt>
      <trkpt lat="45.85109" lon="4.3726">
        <ele>926.6</ele>
        <time>2025-09-10T07:29:44Z</time>
      </trkpt>
      <trkpt lat="45.85106" lon="4.37263">
        <ele>926.6</ele>
        <time>2025-09-10T07:29:45Z</time>
      </trkpt>
      <trkpt lat="45.85105" lon="4.37265">
        <ele>926.8</ele>
        <time>2025-09-10T07:29:46Z</time>
      </trkpt>
      <trkpt lat="45.85105" lon="4.37266">
        <ele>926.8</ele>
        <time>2025-09-10T07:29:47Z</time>
      </trkpt>
      <trkpt lat="45.85104" lon="4.37266">
        <ele>926.8</ele>
        <time>2025-09-10T07:29:48Z</time>
      </trkpt>
      <trkpt lat="45.85104" lon="4.37268">
        <ele>927.2</ele>
        <time>2025-09-10T07:29:49Z</time>
      </trkpt>
      <trkpt lat="45.85103" lon="4.3727">
        <ele>927.2</ele>
        <time>2025-09-10T07:29:50Z</time>
      </trkpt>
      <trkpt lat="45.85103" lon="4.37271">
        <ele>927.2</ele>
        <time>2025-09-10T07:29:51Z</time>
      </trkpt>
      <trkpt lat="45.85102" lon="4.37273">
        <ele>927.4</ele>
        <time>2025-09-10T07:29:52Z</time>
      </trkpt>
      <trkpt lat="45.85101" lon="4.37274">
        <ele>927.4</ele>
        <time>2025-09-10T07:29:53Z</time>
      </trkpt>
      <trkpt lat="45.85101" lon="4.37276">
        <ele>927.6</ele>
        <time>2025-09-10T07:29:54Z</time>
      </trkpt>
      <trkpt lat="45.851" lon="4.37277">
        <ele>927.6</ele>
        <time>2025-09-10T07:29:55Z</time>
      </trkpt>
      <trkpt lat="45.851" lon="4.37279">
        <ele>928</ele>
        <time>2025-09-10T07:29:56Z</time>
      </trkpt>
      <trkpt lat="45.85099" lon="4.37281">
        <ele>928</ele>
        <time>2025-09-10T07:29:57Z</time>
      </trkpt>
      <trkpt lat="45.85099" lon="4.37282">
        <ele>928</ele>
        <time>2025-09-10T07:29:58Z</time>
      </trkpt>
      <trkpt lat="45.85099" lon="4.37283">
        <ele>928</ele>
        <time>2025-09-10T07:29:59Z</time>
      </trkpt>
      <trkpt lat="45.85099" lon="4.37284">
        <ele>928.2</ele>
        <time>2025-09-10T07:30:00Z</time>
      </trkpt>
      <trkpt lat="45.85099" lon="4.37286">
        <ele>928.6</ele>
        <time>2025-09-10T07:30:01Z</time>
      </trkpt>
      <trkpt lat="45.85099" lon="4.37287">
        <ele>928.6</ele>
        <time>2025-09-10T07:30:02Z</time>
      </trkpt>
      <trkpt lat="45.85099" lon="4.37289">
        <ele>928.6</ele>
        <time>2025-09-10T07:30:03Z</time>
      </trkpt>
      <trkpt lat="45.85098" lon="4.37291">
        <ele>928.6</ele>
        <time>2025-09-10T07:30:04Z</time>
      </trkpt>
      <trkpt lat="45.85098" lon="4.37292">
        <ele>928.6</ele>
        <time>2025-09-10T07:30:05Z</time>
      </trkpt>
      <trkpt lat="45.85098" lon="4.37292">
        <ele>928.8</ele>
        <time>2025-09-10T07:30:06Z</time>
      </trkpt>
      <trkpt lat="45.85097" lon="4.37292">
        <ele>928.8</ele>
        <time>2025-09-10T07:30:07Z</time>
      </trkpt>
      <trkpt lat="45.85096" lon="4.37293">
        <ele>928.8</ele>
        <time>2025-09-10T07:30:08Z</time>
      </trkpt>
      <trkpt lat="45.85095" lon="4.37294">
        <ele>929.2</ele>
        <time>2025-09-10T07:30:09Z</time>
      </trkpt>
      <trkpt lat="45.85094" lon="4.37296">
        <ele>929.4</ele>
        <time>2025-09-10T07:30:10Z</time>
      </trkpt>
      <trkpt lat="45.85094" lon="4.37297">
        <ele>929.4</ele>
        <time>2025-09-10T07:30:11Z</time>
      </trkpt>
      <trkpt lat="45.85093" lon="4.37299">
        <ele>929.4</ele>
        <time>2025-09-10T07:30:12Z</time>
      </trkpt>
      <trkpt lat="45.85093" lon="4.37299">
        <ele>929.6</ele>
        <time>2025-09-10T07:30:13Z</time>
      </trkpt>
      <trkpt lat="45.85093" lon="4.373">
        <ele>930</ele>
        <time>2025-09-10T07:30:14Z</time>
      </trkpt>
      <trkpt lat="45.85092" lon="4.37302">
        <ele>930</ele>
        <time>2025-09-10T07:30:15Z</time>
      </trkpt>
      <trkpt lat="45.85091" lon="4.37303">
        <ele>930</ele>
        <time>2025-09-10T07:30:16Z</time>
      </trkpt>
      <trkpt lat="45.8509" lon="4.37304">
        <ele>930</ele>
        <time>2025-09-10T07:30:17Z</time>
      </trkpt>
      <trkpt lat="45.85089" lon="4.37305">
        <ele>930.2</ele>
        <time>2025-09-10T07:30:18Z</time>
      </trkpt>
      <trkpt lat="45.85088" lon="4.37307">
        <ele>930.4</ele>
        <time>2025-09-10T07:30:19Z</time>
      </trkpt>
      <trkpt lat="45.85087" lon="4.37308">
        <ele>930.6</ele>
        <time>2025-09-10T07:30:20Z</time>
      </trkpt>
      <trkpt lat="45.85086" lon="4.3731">
        <ele>930.6</ele>
        <time>2025-09-10T07:30:21Z</time>
      </trkpt>
      <trkpt lat="45.85086" lon="4.37312">
        <ele>930.6</ele>
        <time>2025-09-10T07:30:22Z</time>
      </trkpt>
      <trkpt lat="45.85086" lon="4.37314">
        <ele>930.6</ele>
        <time>2025-09-10T07:30:23Z</time>
      </trkpt>
      <trkpt lat="45.85085" lon="4.37316">
        <ele>931</ele>
        <time>2025-09-10T07:30:24Z</time>
      </trkpt>
      <trkpt lat="45.85085" lon="4.37317">
        <ele>931</ele>
        <time>2025-09-10T07:30:25Z</time>
      </trkpt>
      <trkpt lat="45.85084" lon="4.37318">
        <ele>931</ele>
        <time>2025-09-10T07:30:26Z</time>
      </trkpt>
      <trkpt lat="45.85084" lon="4.37319">
        <ele>931</ele>
        <time>2025-09-10T07:30:27Z</time>
      </trkpt>
      <trkpt lat="45.85084" lon="4.37322">
        <ele>931.4</ele>
        <time>2025-09-10T07:30:28Z</time>
      </trkpt>
      <trkpt lat="45.85084" lon="4.37324">
        <ele>931.6</ele>
        <time>2025-09-10T07:30:29Z</time>
      </trkpt>
      <trkpt lat="45.85084" lon="4.37326">
        <ele>931.6</ele>
        <time>2025-09-10T07:30:30Z</time>
      </trkpt>
      <trkpt lat="45.85083" lon="4.37328">
        <ele>932.2</ele>
        <time>2025-09-10T07:30:31Z</time>
      </trkpt>
      <trkpt lat="45.85083" lon="4.37329">
        <ele>932.2</ele>
        <time>2025-09-10T07:30:32Z</time>
      </trkpt>
      <trkpt lat="45.85082" lon="4.37331">
        <ele>932.2</ele>
        <time>2025-09-10T07:30:33Z</time>
      </trkpt>
      <trkpt lat="45.85081" lon="4.37332">
        <ele>932.6</ele>
        <time>2025-09-10T07:30:34Z</time>
      </trkpt>
      <trkpt lat="45.8508" lon="4.37333">
        <ele>932.6</ele>
        <time>2025-09-10T07:30:35Z</time>
      </trkpt>
      <trkpt lat="45.85079" lon="4.37333">
        <ele>932.8</ele>
        <time>2025-09-10T07:30:36Z</time>
      </trkpt>
      <trkpt lat="45.85078" lon="4.37334">
        <ele>932.8</ele>
        <time>2025-09-10T07:30:37Z</time>
      </trkpt>
      <trkpt lat="45.85077" lon="4.37336">
        <ele>933</ele>
        <time>2025-09-10T07:30:38Z</time>
      </trkpt>
      <trkpt lat="45.85077" lon="4.37337">
        <ele>933</ele>
        <time>2025-09-10T07:30:39Z</time>
      </trkpt>
      <trkpt lat="45.85077" lon="4.37339">
        <ele>933</ele>
        <time>2025-09-10T07:30:40Z</time>
      </trkpt>
      <trkpt lat="45.85077" lon="4.37341">
        <ele>933.2</ele>
        <time>2025-09-10T07:30:41Z</time>
      </trkpt>
      <trkpt lat="45.85076" lon="4.37343">
        <ele>933.6</ele>
        <time>2025-09-10T07:30:42Z</time>
      </trkpt>
      <trkpt lat="45.85076" lon="4.37344">
        <ele>933.6</ele>
        <time>2025-09-10T07:30:43Z</time>
      </trkpt>
      <trkpt lat="45.85076" lon="4.37345">
        <ele>933.6</ele>
        <time>2025-09-10T07:30:44Z</time>
      </trkpt>
      <trkpt lat="45.85075" lon="4.37346">
        <ele>933.8</ele>
        <time>2025-09-10T07:30:45Z</time>
      </trkpt>
      <trkpt lat="45.85074" lon="4.37348">
        <ele>933.8</ele>
        <time>2025-09-10T07:30:46Z</time>
      </trkpt>
      <trkpt lat="45.85072" lon="4.37349">
        <ele>934</ele>
        <time>2025-09-10T07:30:47Z</time>
      </trkpt>
      <trkpt lat="45.85071" lon="4.3735">
        <ele>934</ele>
        <time>2025-09-10T07:30:48Z</time>
      </trkpt>
      <trkpt lat="45.8507" lon="4.37351">
        <ele>934.2</ele>
        <time>2025-09-10T07:30:49Z</time>
      </trkpt>
      <trkpt lat="45.8507" lon="4.37352">
        <ele>934.2</ele>
        <time>2025-09-10T07:30:50Z</time>
      </trkpt>
      <trkpt lat="45.85069" lon="4.37354">
        <ele>934.6</ele>
        <time>2025-09-10T07:30:51Z</time>
      </trkpt>
      <trkpt lat="45.85069" lon="4.37355">
        <ele>935</ele>
        <time>2025-09-10T07:30:52Z</time>
      </trkpt>
      <trkpt lat="45.85069" lon="4.37355">
        <ele>935.4</ele>
        <time>2025-09-10T07:30:53Z</time>
      </trkpt>
      <trkpt lat="45.85068" lon="4.37358">
        <ele>935.6</ele>
        <time>2025-09-10T07:30:56Z</time>
      </trkpt>
      <trkpt lat="45.85067" lon="4.37358">
        <ele>935.6</ele>
        <time>2025-09-10T07:30:57Z</time>
      </trkpt>
      <trkpt lat="45.85066" lon="4.37359">
        <ele>936</ele>
        <time>2025-09-10T07:30:58Z</time>
      </trkpt>
      <trkpt lat="45.85065" lon="4.3736">
        <ele>936</ele>
        <time>2025-09-10T07:30:59Z</time>
      </trkpt>
      <trkpt lat="45.85065" lon="4.37362">
        <ele>936.4</ele>
        <time>2025-09-10T07:31:00Z</time>
      </trkpt>
      <trkpt lat="45.85063" lon="4.37362">
        <ele>936.4</ele>
        <time>2025-09-10T07:31:01Z</time>
      </trkpt>
      <trkpt lat="45.8506" lon="4.37359">
        <ele>936.6</ele>
        <time>2025-09-10T07:31:02Z</time>
      </trkpt>
      <trkpt lat="45.85059" lon="4.37358">
        <ele>936.8</ele>
        <time>2025-09-10T07:31:03Z</time>
      </trkpt>
      <trkpt lat="45.85058" lon="4.37358">
        <ele>936.8</ele>
        <time>2025-09-10T07:31:04Z</time>
      </trkpt>
      <trkpt lat="45.85058" lon="4.3736">
        <ele>936.8</ele>
        <time>2025-09-10T07:31:05Z</time>
      </trkpt>
      <trkpt lat="45.85057" lon="4.37362">
        <ele>937.2</ele>
        <time>2025-09-10T07:31:06Z</time>
      </trkpt>
      <trkpt lat="45.85057" lon="4.37364">
        <ele>937.2</ele>
        <time>2025-09-10T07:31:07Z</time>
      </trkpt>
      <trkpt lat="45.85057" lon="4.37366">
        <ele>937.2</ele>
        <time>2025-09-10T07:31:08Z</time>
      </trkpt>
      <trkpt lat="45.85056" lon="4.37368">
        <ele>937.6</ele>
        <time>2025-09-10T07:31:09Z</time>
      </trkpt>
      <trkpt lat="45.85056" lon="4.37369">
        <ele>937.6</ele>
        <time>2025-09-10T07:31:10Z</time>
      </trkpt>
      <trkpt lat="45.85055" lon="4.37371">
        <ele>937.8</ele>
        <time>2025-09-10T07:31:11Z</time>
      </trkpt>
      <trkpt lat="45.85055" lon="4.37373">
        <ele>938.2</ele>
        <time>2025-09-10T07:31:12Z</time>
      </trkpt>
      <trkpt lat="45.85055" lon="4.37374">
        <ele>938.2</ele>
        <time>2025-09-10T07:31:13Z</time>
      </trkpt>
      <trkpt lat="45.85056" lon="4.37375">
        <ele>938.4</ele>
        <time>2025-09-10T07:31:14Z</time>
      </trkpt>
      <trkpt lat="45.85056" lon="4.37377">
        <ele>938.6</ele>
        <time>2025-09-10T07:31:15Z</time>
      </trkpt>
      <trkpt lat="45.85056" lon="4.37379">
        <ele>939</ele>
        <time>2025-09-10T07:31:16Z</time>
      </trkpt>
      <trkpt lat="45.85056" lon="4.3738">
        <ele>939</ele>
        <time>2025-09-10T07:31:17Z</time>
      </trkpt>
      <trkpt lat="45.85055" lon="4.37382">
        <ele>939</ele>
        <time>2025-09-10T07:31:18Z</time>
      </trkpt>
      <trkpt lat="45.85054" lon="4.37383">
        <ele>939</ele>
        <time>2025-09-10T07:31:19Z</time>
      </trkpt>
      <trkpt lat="45.85054" lon="4.37385">
        <ele>939.4</ele>
        <time>2025-09-10T07:31:20Z</time>
      </trkpt>
      <trkpt lat="45.85054" lon="4.37388">
        <ele>939.6</ele>
        <time>2025-09-10T07:31:21Z</time>
      </trkpt>
      <trkpt lat="45.85053" lon="4.3739">
        <ele>939.8</ele>
        <time>2025-09-10T07:31:22Z</time>
      </trkpt>
      <trkpt lat="45.85053" lon="4.37391">
        <ele>940</ele>
        <time>2025-09-10T07:31:23Z</time>
      </trkpt>
      <trkpt lat="45.85052" lon="4.37393">
        <ele>940</ele>
        <time>2025-09-10T07:31:24Z</time>
      </trkpt>
      <trkpt lat="45.85053" lon="4.37393">
        <ele>940</ele>
        <time>2025-09-10T07:31:25Z</time>
      </trkpt>
      <trkpt lat="45.85043" lon="4.37391">
        <ele>940.4</ele>
        <time>2025-09-10T07:31:47Z</time>
      </trkpt>
      <trkpt lat="45.85043" lon="4.37392">
        <ele>940.6</ele>
        <time>2025-09-10T07:31:48Z</time>
      </trkpt>
      <trkpt lat="45.85043" lon="4.37393">
        <ele>940.6</ele>
        <time>2025-09-10T07:31:49Z</time>
      </trkpt>
      <trkpt lat="45.85042" lon="4.37394">
        <ele>940.8</ele>
        <time>2025-09-10T07:31:50Z</time>
      </trkpt>
      <trkpt lat="45.85042" lon="4.37396">
        <ele>941.2</ele>
        <time>2025-09-10T07:31:51Z</time>
      </trkpt>
      <trkpt lat="45.85042" lon="4.37398">
        <ele>941.2</ele>
        <time>2025-09-10T07:31:52Z</time>
      </trkpt>
      <trkpt lat="45.85042" lon="4.37399">
        <ele>941.2</ele>
        <time>2025-09-10T07:31:53Z</time>
      </trkpt>
      <trkpt lat="45.85042" lon="4.37401">
        <ele>941.4</ele>
        <time>2025-09-10T07:31:54Z</time>
      </trkpt>
      <trkpt lat="45.8504" lon="4.37401">
        <ele>941.4</ele>
        <time>2025-09-10T07:31:55Z</time>
      </trkpt>
      <trkpt lat="45.85038" lon="4.37402">
        <ele>941.8</ele>
        <time>2025-09-10T07:31:56Z</time>
      </trkpt>
      <trkpt lat="45.85038" lon="4.37402">
        <ele>942</ele>
        <time>2025-09-10T07:31:57Z</time>
      </trkpt>
      <trkpt lat="45.85038" lon="4.37403">
        <ele>942</ele>
        <time>2025-09-10T07:31:58Z</time>
      </trkpt>
      <trkpt lat="45.85038" lon="4.37405">
        <ele>942</ele>
        <time>2025-09-10T07:31:59Z</time>
      </trkpt>
      <trkpt lat="45.85038" lon="4.37407">
        <ele>942.4</ele>
        <time>2025-09-10T07:32:00Z</time>
      </trkpt>
      <trkpt lat="45.85038" lon="4.37408">
        <ele>942.4</ele>
        <time>2025-09-10T07:32:01Z</time>
      </trkpt>
      <trkpt lat="45.85038" lon="4.3741">
        <ele>942.6</ele>
        <time>2025-09-10T07:32:02Z</time>
      </trkpt>
      <trkpt lat="45.85039" lon="4.37411">
        <ele>942.6</ele>
        <time>2025-09-10T07:32:03Z</time>
      </trkpt>
      <trkpt lat="45.85039" lon="4.37413">
        <ele>942.8</ele>
        <time>2025-09-10T07:32:04Z</time>
      </trkpt>
      <trkpt lat="45.85038" lon="4.37414">
        <ele>942.8</ele>
        <time>2025-09-10T07:32:05Z</time>
      </trkpt>
      <trkpt lat="45.85038" lon="4.37416">
        <ele>942.8</ele>
        <time>2025-09-10T07:32:06Z</time>
      </trkpt>
      <trkpt lat="45.85037" lon="4.37416">
        <ele>943.2</ele>
        <time>2025-09-10T07:32:07Z</time>
      </trkpt>
      <trkpt lat="45.85036" lon="4.37416">
        <ele>943.2</ele>
        <time>2025-09-10T07:32:08Z</time>
      </trkpt>
      <trkpt lat="45.85035" lon="4.37417">
        <ele>943.2</ele>
        <time>2025-09-10T07:32:09Z</time>
      </trkpt>
      <trkpt lat="45.85035" lon="4.37417">
        <ele>943.4</ele>
        <time>2025-09-10T07:32:10Z</time>
      </trkpt>
      <trkpt lat="45.85034" lon="4.37418">
        <ele>943.4</ele>
        <time>2025-09-10T07:32:11Z</time>
      </trkpt>
      <trkpt lat="45.85035" lon="4.37419">
        <ele>943.8</ele>
        <time>2025-09-10T07:32:12Z</time>
      </trkpt>
      <trkpt lat="45.85035" lon="4.3742">
        <ele>943.8</ele>
        <time>2025-09-10T07:32:13Z</time>
      </trkpt>
      <trkpt lat="45.85034" lon="4.37421">
        <ele>944</ele>
        <time>2025-09-10T07:32:14Z</time>
      </trkpt>
      <trkpt lat="45.85034" lon="4.37422">
        <ele>944</ele>
        <time>2025-09-10T07:32:15Z</time>
      </trkpt>
      <trkpt lat="45.85034" lon="4.37423">
        <ele>944.4</ele>
        <time>2025-09-10T07:32:16Z</time>
      </trkpt>
      <trkpt lat="45.85034" lon="4.37424">
        <ele>944.8</ele>
        <time>2025-09-10T07:32:17Z</time>
      </trkpt>
      <trkpt lat="45.85033" lon="4.37425">
        <ele>944.8</ele>
        <time>2025-09-10T07:32:18Z</time>
      </trkpt>
      <trkpt lat="45.85033" lon="4.37426">
        <ele>945</ele>
        <time>2025-09-10T07:32:19Z</time>
      </trkpt>
      <trkpt lat="45.85032" lon="4.37427">
        <ele>945</ele>
        <time>2025-09-10T07:32:20Z</time>
      </trkpt>
      <trkpt lat="45.85031" lon="4.37427">
        <ele>945</ele>
        <time>2025-09-10T07:32:21Z</time>
      </trkpt>
      <trkpt lat="45.85031" lon="4.37428">
        <ele>945.2</ele>
        <time>2025-09-10T07:32:22Z</time>
      </trkpt>
      <trkpt lat="45.85031" lon="4.37429">
        <ele>945.2</ele>
        <time>2025-09-10T07:32:23Z</time>
      </trkpt>
      <trkpt lat="45.85031" lon="4.3743">
        <ele>945.4</ele>
        <time>2025-09-10T07:32:24Z</time>
      </trkpt>
      <trkpt lat="45.85031" lon="4.37431">
        <ele>945.6</ele>
        <time>2025-09-10T07:32:25Z</time>
      </trkpt>
      <trkpt lat="45.8503" lon="4.37432">
        <ele>946</ele>
        <time>2025-09-10T07:32:26Z</time>
      </trkpt>
      <trkpt lat="45.8503" lon="4.37433">
        <ele>946.2</ele>
        <time>2025-09-10T07:32:27Z</time>
      </trkpt>
      <trkpt lat="45.8503" lon="4.37434">
        <ele>946.2</ele>
        <time>2025-09-10T07:32:28Z</time>
      </trkpt>
      <trkpt lat="45.85029" lon="4.37435">
        <ele>946.2</ele>
        <time>2025-09-10T07:32:29Z</time>
      </trkpt>
      <trkpt lat="45.85028" lon="4.37436">
        <ele>946.4</ele>
        <time>2025-09-10T07:32:30Z</time>
      </trkpt>
      <trkpt lat="45.85027" lon="4.37436">
        <ele>946.4</ele>
        <time>2025-09-10T07:32:31Z</time>
      </trkpt>
      <trkpt lat="45.85026" lon="4.37436">
        <ele>946.4</ele>
        <time>2025-09-10T07:32:32Z</time>
      </trkpt>
      <trkpt lat="45.85026" lon="4.37437">
        <ele>946.6</ele>
        <time>2025-09-10T07:32:33Z</time>
      </trkpt>
      <trkpt lat="45.85025" lon="4.37437">
        <ele>946.6</ele>
        <time>2025-09-10T07:32:34Z</time>
      </trkpt>
      <trkpt lat="45.85024" lon="4.37438">
        <ele>946.6</ele>
        <time>2025-09-10T07:32:35Z</time>
      </trkpt>
      <trkpt lat="45.85024" lon="4.37439">
        <ele>947.2</ele>
        <time>2025-09-10T07:32:36Z</time>
      </trkpt>
      <trkpt lat="45.85024" lon="4.3744">
        <ele>947.4</ele>
        <time>2025-09-10T07:32:37Z</time>
      </trkpt>
      <trkpt lat="45.85022" lon="4.37441">
        <ele>947.6</ele>
        <time>2025-09-10T07:32:38Z</time>
      </trkpt>
      <trkpt lat="45.85021" lon="4.37441">
        <ele>947.6</ele>
        <time>2025-09-10T07:32:39Z</time>
      </trkpt>
      <trkpt lat="45.8502" lon="4.37441">
        <ele>948</ele>
        <time>2025-09-10T07:32:40Z</time>
      </trkpt>
      <trkpt lat="45.85019" lon="4.37442">
        <ele>948</ele>
        <time>2025-09-10T07:32:41Z</time>
      </trkpt>
      <trkpt lat="45.85019" lon="4.37442">
        <ele>948</ele>
        <time>2025-09-10T07:32:42Z</time>
      </trkpt>
      <trkpt lat="45.85019" lon="4.37443">
        <ele>948.4</ele>
        <time>2025-09-10T07:32:43Z</time>
      </trkpt>
      <trkpt lat="45.85019" lon="4.37445">
        <ele>948.4</ele>
        <time>2025-09-10T07:32:44Z</time>
      </trkpt>
      <trkpt lat="45.85019" lon="4.37446">
        <ele>948.4</ele>
        <time>2025-09-10T07:32:45Z</time>
      </trkpt>
      <trkpt lat="45.85019" lon="4.37448">
        <ele>948.8</ele>
        <time>2025-09-10T07:32:46Z</time>
      </trkpt>
      <trkpt lat="45.8502" lon="4.37451">
        <ele>948.8</ele>
        <time>2025-09-10T07:32:47Z</time>
      </trkpt>
      <trkpt lat="45.85021" lon="4.37452">
        <ele>949.2</ele>
        <time>2025-09-10T07:32:48Z</time>
      </trkpt>
      <trkpt lat="45.85022" lon="4.37454">
        <ele>949.2</ele>
        <time>2025-09-10T07:32:49Z</time>
      </trkpt>
      <trkpt lat="45.85021" lon="4.37454">
        <ele>949.2</ele>
        <time>2025-09-10T07:32:50Z</time>
      </trkpt>
      <trkpt lat="45.85021" lon="4.37455">
        <ele>949.6</ele>
        <time>2025-09-10T07:32:51Z</time>
      </trkpt>
      <trkpt lat="45.8502" lon="4.37455">
        <ele>949.8</ele>
        <time>2025-09-10T07:32:52Z</time>
      </trkpt>
      <trkpt lat="45.85022" lon="4.37457">
        <ele>949.8</ele>
        <time>2025-09-10T07:32:53Z</time>
      </trkpt>
      <trkpt lat="45.85022" lon="4.37458">
        <ele>949.8</ele>
        <time>2025-09-10T07:32:54Z</time>
      </trkpt>
      <trkpt lat="45.85022" lon="4.37459">
        <ele>950</ele>
        <time>2025-09-10T07:32:55Z</time>
      </trkpt>
      <trkpt lat="45.85022" lon="4.37459">
        <ele>950</ele>
        <time>2025-09-10T07:32:56Z</time>
      </trkpt>
      <trkpt lat="45.85021" lon="4.3746">
        <ele>950</ele>
        <time>2025-09-10T07:32:57Z</time>
      </trkpt>
      <trkpt lat="45.85021" lon="4.37461">
        <ele>950.4</ele>
        <time>2025-09-10T07:32:58Z</time>
      </trkpt>
      <trkpt lat="45.8502" lon="4.37462">
        <ele>950.4</ele>
        <time>2025-09-10T07:32:59Z</time>
      </trkpt>
      <trkpt lat="45.8502" lon="4.37462">
        <ele>950.8</ele>
        <time>2025-09-10T07:33:00Z</time>
      </trkpt>
      <trkpt lat="45.85019" lon="4.37463">
        <ele>950.8</ele>
        <time>2025-09-10T07:33:01Z</time>
      </trkpt>
      <trkpt lat="45.85017" lon="4.37463">
        <ele>951</ele>
        <time>2025-09-10T07:33:02Z</time>
      </trkpt>
      <trkpt lat="45.85016" lon="4.37464">
        <ele>951.2</ele>
        <time>2025-09-10T07:33:03Z</time>
      </trkpt>
      <trkpt lat="45.85016" lon="4.37464">
        <ele>951.2</ele>
        <time>2025-09-10T07:33:04Z</time>
      </trkpt>
      <trkpt lat="45.85015" lon="4.37465">
        <ele>951.2</ele>
        <time>2025-09-10T07:33:05Z</time>
      </trkpt>
      <trkpt lat="45.85014" lon="4.37466">
        <ele>951.6</ele>
        <time>2025-09-10T07:33:06Z</time>
      </trkpt>
      <trkpt lat="45.85013" lon="4.37467">
        <ele>951.6</ele>
        <time>2025-09-10T07:33:07Z</time>
      </trkpt>
      <trkpt lat="45.85012" lon="4.37467">
        <ele>952</ele>
        <time>2025-09-10T07:33:08Z</time>
      </trkpt>
      <trkpt lat="45.85012" lon="4.37468">
        <ele>952</ele>
        <time>2025-09-10T07:33:09Z</time>
      </trkpt>
      <trkpt lat="45.85011" lon="4.37469">
        <ele>952</ele>
        <time>2025-09-10T07:33:10Z</time>
      </trkpt>
      <trkpt lat="45.8501" lon="4.37469">
        <ele>952.2</ele>
        <time>2025-09-10T07:33:11Z</time>
      </trkpt>
      <trkpt lat="45.85008" lon="4.37469">
        <ele>952.2</ele>
        <time>2025-09-10T07:33:12Z</time>
      </trkpt>
      <trkpt lat="45.85007" lon="4.37469">
        <ele>952.2</ele>
        <time>2025-09-10T07:33:13Z</time>
      </trkpt>
      <trkpt lat="45.85008" lon="4.37469">
        <ele>952.4</ele>
        <time>2025-09-10T07:33:14Z</time>
      </trkpt>
      <trkpt lat="45.85007" lon="4.3747">
        <ele>952.4</ele>
        <time>2025-09-10T07:33:29Z</time>
      </trkpt>
      <trkpt lat="45.85006" lon="4.3747">
        <ele>952.4</ele>
        <time>2025-09-10T07:33:30Z</time>
      </trkpt>
      <trkpt lat="45.85005" lon="4.3747">
        <ele>952.6</ele>
        <time>2025-09-10T07:33:31Z</time>
      </trkpt>
      <trkpt lat="45.85005" lon="4.37471">
        <ele>952.6</ele>
        <time>2025-09-10T07:33:32Z</time>
      </trkpt>
      <trkpt lat="45.85004" lon="4.37473">
        <ele>953</ele>
        <time>2025-09-10T07:33:33Z</time>
      </trkpt>
      <trkpt lat="45.85004" lon="4.37474">
        <ele>953</ele>
        <time>2025-09-10T07:33:34Z</time>
      </trkpt>
      <trkpt lat="45.85003" lon="4.37475">
        <ele>953.2</ele>
        <time>2025-09-10T07:33:35Z</time>
      </trkpt>
      <trkpt lat="45.85003" lon="4.37475">
        <ele>953.6</ele>
        <time>2025-09-10T07:33:36Z</time>
      </trkpt>
      <trkpt lat="45.85002" lon="4.37476">
        <ele>953.8</ele>
        <time>2025-09-10T07:33:37Z</time>
      </trkpt>
      <trkpt lat="45.85001" lon="4.37476">
        <ele>953.8</ele>
        <time>2025-09-10T07:33:38Z</time>
      </trkpt>
      <trkpt lat="45.85" lon="4.37476">
        <ele>954</ele>
        <time>2025-09-10T07:33:39Z</time>
      </trkpt>
      <trkpt lat="45.85" lon="4.37477">
        <ele>954</ele>
        <time>2025-09-10T07:33:40Z</time>
      </trkpt>
      <trkpt lat="45.85" lon="4.37477">
        <ele>954.4</ele>
        <time>2025-09-10T07:33:41Z</time>
      </trkpt>
      <trkpt lat="45.85" lon="4.37479">
        <ele>954.4</ele>
        <time>2025-09-10T07:33:42Z</time>
      </trkpt>
      <trkpt lat="45.84998" lon="4.37478">
        <ele>954.4</ele>
        <time>2025-09-10T07:33:43Z</time>
      </trkpt>
      <trkpt lat="45.84998" lon="4.37478">
        <ele>954.4</ele>
        <time>2025-09-10T07:33:44Z</time>
      </trkpt>
      <trkpt lat="45.84997" lon="4.37478">
        <ele>954.4</ele>
        <time>2025-09-10T07:33:45Z</time>
      </trkpt>
      <trkpt lat="45.84997" lon="4.37479">
        <ele>954.8</ele>
        <time>2025-09-10T07:33:46Z</time>
      </trkpt>
      <trkpt lat="45.84997" lon="4.37481">
        <ele>954.8</ele>
        <time>2025-09-10T07:33:47Z</time>
      </trkpt>
      <trkpt lat="45.84997" lon="4.37482">
        <ele>955</ele>
        <time>2025-09-10T07:33:48Z</time>
      </trkpt>
      <trkpt lat="45.84997" lon="4.37483">
        <ele>955</ele>
        <time>2025-09-10T07:33:49Z</time>
      </trkpt>
      <trkpt lat="45.84996" lon="4.37484">
        <ele>955</ele>
        <time>2025-09-10T07:33:50Z</time>
      </trkpt>
      <trkpt lat="45.84996" lon="4.37484">
        <ele>955.4</ele>
        <time>2025-09-10T07:33:51Z</time>
      </trkpt>
      <trkpt lat="45.84996" lon="4.37485">
        <ele>955.4</ele>
        <time>2025-09-10T07:33:52Z</time>
      </trkpt>
      <trkpt lat="45.84996" lon="4.37486">
        <ele>955.6</ele>
        <time>2025-09-10T07:33:53Z</time>
      </trkpt>
      <trkpt lat="45.84995" lon="4.37487">
        <ele>955.6</ele>
        <time>2025-09-10T07:33:54Z</time>
      </trkpt>
      <trkpt lat="45.84995" lon="4.37487">
        <ele>955.6</ele>
        <time>2025-09-10T07:33:55Z</time>
      </trkpt>
      <trkpt lat="45.84994" lon="4.37488">
        <ele>956</ele>
        <time>2025-09-10T07:33:56Z</time>
      </trkpt>
      <trkpt lat="45.84993" lon="4.37489">
        <ele>956</ele>
        <time>2025-09-10T07:33:57Z</time>
      </trkpt>
      <trkpt lat="45.84993" lon="4.3749">
        <ele>956</ele>
        <time>2025-09-10T07:33:58Z</time>
      </trkpt>
      <trkpt lat="45.84992" lon="4.37491">
        <ele>956.6</ele>
        <time>2025-09-10T07:33:59Z</time>
      </trkpt>
      <trkpt lat="45.84991" lon="4.37492">
        <ele>956.6</ele>
        <time>2025-09-10T07:34:00Z</time>
      </trkpt>
      <trkpt lat="45.8499" lon="4.37493">
        <ele>956.8</ele>
        <time>2025-09-10T07:34:01Z</time>
      </trkpt>
      <trkpt lat="45.8499" lon="4.37494">
        <ele>956.8</ele>
        <time>2025-09-10T07:34:02Z</time>
      </trkpt>
      <trkpt lat="45.84988" lon="4.37495">
        <ele>956.8</ele>
        <time>2025-09-10T07:34:03Z</time>
      </trkpt>
      <trkpt lat="45.84987" lon="4.37497">
        <ele>956.8</ele>
        <time>2025-09-10T07:34:04Z</time>
      </trkpt>
      <trkpt lat="45.84987" lon="4.37497">
        <ele>957</ele>
        <time>2025-09-10T07:34:05Z</time>
      </trkpt>
      <trkpt lat="45.84987" lon="4.37497">
        <ele>957.2</ele>
        <time>2025-09-10T07:34:06Z</time>
      </trkpt>
      <trkpt lat="45.84987" lon="4.37497">
        <ele>957.2</ele>
        <time>2025-09-10T07:34:07Z</time>
      </trkpt>
      <trkpt lat="45.84987" lon="4.37501">
        <ele>957.8</ele>
        <time>2025-09-10T07:34:09Z</time>
      </trkpt>
      <trkpt lat="45.84987" lon="4.37502">
        <ele>957.8</ele>
        <time>2025-09-10T07:34:10Z</time>
      </trkpt>
      <trkpt lat="45.84987" lon="4.37503">
        <ele>958.4</ele>
        <time>2025-09-10T07:34:11Z</time>
      </trkpt>
      <trkpt lat="45.84986" lon="4.37503">
        <ele>958.4</ele>
        <time>2025-09-10T07:34:12Z</time>
      </trkpt>
      <trkpt lat="45.84986" lon="4.37505">
        <ele>958.6</ele>
        <time>2025-09-10T07:34:13Z</time>
      </trkpt>
      <trkpt lat="45.84986" lon="4.37505">
        <ele>958.6</ele>
        <time>2025-09-10T07:34:14Z</time>
      </trkpt>
      <trkpt lat="45.84984" lon="4.37506">
        <ele>958.8</ele>
        <time>2025-09-10T07:34:15Z</time>
      </trkpt>
      <trkpt lat="45.84983" lon="4.37506">
        <ele>958.8</ele>
        <time>2025-09-10T07:34:16Z</time>
      </trkpt>
      <trkpt lat="45.84982" lon="4.37506">
        <ele>959</ele>
        <time>2025-09-10T07:34:17Z</time>
      </trkpt>
      <trkpt lat="45.84981" lon="4.37506">
        <ele>959</ele>
        <time>2025-09-10T07:34:18Z</time>
      </trkpt>
      <trkpt lat="45.8498" lon="4.37506">
        <ele>959.6</ele>
        <time>2025-09-10T07:34:19Z</time>
      </trkpt>
      <trkpt lat="45.84978" lon="4.37505">
        <ele>959.8</ele>
        <time>2025-09-10T07:34:20Z</time>
      </trkpt>
      <trkpt lat="45.84977" lon="4.37506">
        <ele>959.8</ele>
        <time>2025-09-10T07:34:21Z</time>
      </trkpt>
      <trkpt lat="45.84976" lon="4.37506">
        <ele>960</ele>
        <time>2025-09-10T07:34:22Z</time>
      </trkpt>
      <trkpt lat="45.84975" lon="4.37506">
        <ele>960</ele>
        <time>2025-09-10T07:34:23Z</time>
      </trkpt>
      <trkpt lat="45.84974" lon="4.37507">
        <ele>960.2</ele>
        <time>2025-09-10T07:34:24Z</time>
      </trkpt>
      <trkpt lat="45.84974" lon="4.37507">
        <ele>960.2</ele>
        <time>2025-09-10T07:34:25Z</time>
      </trkpt>
      <trkpt lat="45.84973" lon="4.37508">
        <ele>960.6</ele>
        <time>2025-09-10T07:34:26Z</time>
      </trkpt>
      <trkpt lat="45.84973" lon="4.3751">
        <ele>960.6</ele>
        <time>2025-09-10T07:34:27Z</time>
      </trkpt>
      <trkpt lat="45.84972" lon="4.3751">
        <ele>960.6</ele>
        <time>2025-09-10T07:34:28Z</time>
      </trkpt>
      <trkpt lat="45.84971" lon="4.37511">
        <ele>960.8</ele>
        <time>2025-09-10T07:34:29Z</time>
      </trkpt>
      <trkpt lat="45.84971" lon="4.37512">
        <ele>960.8</ele>
        <time>2025-09-10T07:34:30Z</time>
      </trkpt>
      <trkpt lat="45.8497" lon="4.37513">
        <ele>961.2</ele>
        <time>2025-09-10T07:34:31Z</time>
      </trkpt>
      <trkpt lat="45.84969" lon="4.37514">
        <ele>961.2</ele>
        <time>2025-09-10T07:34:32Z</time>
      </trkpt>
      <trkpt lat="45.84969" lon="4.37515">
        <ele>961.4</ele>
        <time>2025-09-10T07:34:33Z</time>
      </trkpt>
      <trkpt lat="45.84969" lon="4.37515">
        <ele>961.4</ele>
        <time>2025-09-10T07:34:34Z</time>
      </trkpt>
      <trkpt lat="45.84969" lon="4.37517">
        <ele>961.6</ele>
        <time>2025-09-10T07:34:35Z</time>
      </trkpt>
      <trkpt lat="45.84968" lon="4.37518">
        <ele>962</ele>
        <time>2025-09-10T07:34:36Z</time>
      </trkpt>
      <trkpt lat="45.84968" lon="4.3752">
        <ele>962</ele>
        <time>2025-09-10T07:34:37Z</time>
      </trkpt>
      <trkpt lat="45.84967" lon="4.37521">
        <ele>962.2</ele>
        <time>2025-09-10T07:34:38Z</time>
      </trkpt>
      <trkpt lat="45.84967" lon="4.37522">
        <ele>962.4</ele>
        <time>2025-09-10T07:34:39Z</time>
      </trkpt>
      <trkpt lat="45.84967" lon="4.37523">
        <ele>962.4</ele>
        <time>2025-09-10T07:34:40Z</time>
      </trkpt>
      <trkpt lat="45.84966" lon="4.37524">
        <ele>962.4</ele>
        <time>2025-09-10T07:34:41Z</time>
      </trkpt>
      <trkpt lat="45.84966" lon="4.37526">
        <ele>962.4</ele>
        <time>2025-09-10T07:34:42Z</time>
      </trkpt>
      <trkpt lat="45.84966" lon="4.37527">
        <ele>963</ele>
        <time>2025-09-10T07:34:43Z</time>
      </trkpt>
      <trkpt lat="45.84965" lon="4.37528">
        <ele>963.2</ele>
        <time>2025-09-10T07:34:44Z</time>
      </trkpt>
      <trkpt lat="45.84966" lon="4.37529">
        <ele>963.2</ele>
        <time>2025-09-10T07:34:45Z</time>
      </trkpt>
      <trkpt lat="45.84966" lon="4.3753">
        <ele>963.4</ele>
        <time>2025-09-10T07:34:46Z</time>
      </trkpt>
      <trkpt lat="45.84966" lon="4.37531">
        <ele>963.4</ele>
        <time>2025-09-10T07:34:47Z</time>
      </trkpt>
      <trkpt lat="45.84966" lon="4.37532">
        <ele>963.4</ele>
        <time>2025-09-10T07:34:48Z</time>
      </trkpt>
      <trkpt lat="45.84966" lon="4.37532">
        <ele>963.8</ele>
        <time>2025-09-10T07:34:49Z</time>
      </trkpt>
      <trkpt lat="45.84966" lon="4.37532">
        <ele>963.4</ele>
        <time>2025-09-10T07:34:50Z</time>
      </trkpt>
      <trkpt lat="45.84966" lon="4.37533">
        <ele>963.4</ele>
        <time>2025-09-10T07:34:51Z</time>
      </trkpt>
      <trkpt lat="45.84965" lon="4.37534">
        <ele>963.4</ele>
        <time>2025-09-10T07:34:52Z</time>
      </trkpt>
      <trkpt lat="45.84964" lon="4.37536">
        <ele>963.4</ele>
        <time>2025-09-10T07:34:53Z</time>
      </trkpt>
      <trkpt lat="45.84961" lon="4.37538">
        <ele>962.8</ele>
        <time>2025-09-10T07:34:54Z</time>
      </trkpt>
      <trkpt lat="45.84959" lon="4.3754">
        <ele>962.8</ele>
        <time>2025-09-10T07:34:55Z</time>
      </trkpt>
      <trkpt lat="45.84957" lon="4.37541">
        <ele>963.2</ele>
        <time>2025-09-10T07:34:56Z</time>
      </trkpt>
      <trkpt lat="45.84957" lon="4.37542">
        <ele>963.4</ele>
        <time>2025-09-10T07:34:57Z</time>
      </trkpt>
      <trkpt lat="45.84957" lon="4.37541">
        <ele>963.4</ele>
        <time>2025-09-10T07:34:58Z</time>
      </trkpt>
      <trkpt lat="45.84957" lon="4.37541">
        <ele>963</ele>
        <time>2025-09-10T07:34:59Z</time>
      </trkpt>
      <trkpt lat="45.84957" lon="4.3754">
        <ele>963.4</ele>
        <time>2025-09-10T07:35:00Z</time>
      </trkpt>
      <trkpt lat="45.84956" lon="4.37538">
        <ele>963.4</ele>
        <time>2025-09-10T07:35:01Z</time>
      </trkpt>
      <trkpt lat="45.84956" lon="4.37537">
        <ele>963.4</ele>
        <time>2025-09-10T07:35:02Z</time>
      </trkpt>
      <trkpt lat="45.84957" lon="4.37537">
        <ele>963.4</ele>
        <time>2025-09-10T07:35:03Z</time>
      </trkpt>
      <trkpt lat="45.84957" lon="4.37537">
        <ele>963.4</ele>
        <time>2025-09-10T07:35:04Z</time>
      </trkpt>
      <trkpt lat="45.84958" lon="4.37539">
        <ele>963.8</ele>
        <time>2025-09-10T07:35:05Z</time>
      </trkpt>
      <trkpt lat="45.84958" lon="4.3754">
        <ele>963.8</ele>
        <time>2025-09-10T07:35:06Z</time>
      </trkpt>
      <trkpt lat="45.84958" lon="4.37541">
        <ele>964</ele>
        <time>2025-09-10T07:35:07Z</time>
      </trkpt>
      <trkpt lat="45.84958" lon="4.37542">
        <ele>964</ele>
        <time>2025-09-10T07:35:08Z</time>
      </trkpt>
      <trkpt lat="45.84958" lon="4.37543">
        <ele>964.2</ele>
        <time>2025-09-10T07:35:09Z</time>
      </trkpt>
      <trkpt lat="45.84958" lon="4.37543">
        <ele>964.2</ele>
        <time>2025-09-10T07:35:10Z</time>
      </trkpt>
      <trkpt lat="45.84957" lon="4.37543">
        <ele>964.4</ele>
        <time>2025-09-10T07:35:11Z</time>
      </trkpt>
      <trkpt lat="45.84957" lon="4.37545">
        <ele>964.4</ele>
        <time>2025-09-10T07:35:12Z</time>
      </trkpt>
      <trkpt lat="45.84957" lon="4.37546">
        <ele>964.4</ele>
        <time>2025-09-10T07:35:13Z</time>
      </trkpt>
      <trkpt lat="45.84957" lon="4.37547">
        <ele>964.4</ele>
        <time>2025-09-10T07:35:14Z</time>
      </trkpt>
      <trkpt lat="45.84957" lon="4.37548">
        <ele>964.6</ele>
        <time>2025-09-10T07:35:15Z</time>
      </trkpt>
      <trkpt lat="45.84957" lon="4.3755">
        <ele>964.6</ele>
        <time>2025-09-10T07:35:16Z</time>
      </trkpt>
      <trkpt lat="45.84958" lon="4.37551">
        <ele>965</ele>
        <time>2025-09-10T07:35:17Z</time>
      </trkpt>
      <trkpt lat="45.84958" lon="4.37553">
        <ele>965</ele>
        <time>2025-09-10T07:35:18Z</time>
      </trkpt>
      <trkpt lat="45.84959" lon="4.37554">
        <ele>965</ele>
        <time>2025-09-10T07:35:19Z</time>
      </trkpt>
      <trkpt lat="45.8496" lon="4.37555">
        <ele>965</ele>
        <time>2025-09-10T07:35:20Z</time>
      </trkpt>
      <trkpt lat="45.8496" lon="4.37556">
        <ele>965.2</ele>
        <time>2025-09-10T07:35:23Z</time>
      </trkpt>
      <trkpt lat="45.8496" lon="4.37557">
        <ele>965.6</ele>
        <time>2025-09-10T07:35:24Z</time>
      </trkpt>
      <trkpt lat="45.84959" lon="4.37557">
        <ele>965.6</ele>
        <time>2025-09-10T07:35:25Z</time>
      </trkpt>
      <trkpt lat="45.84958" lon="4.37557">
        <ele>965.6</ele>
        <time>2025-09-10T07:35:26Z</time>
      </trkpt>
      <trkpt lat="45.84956" lon="4.37556">
        <ele>966</ele>
        <time>2025-09-10T07:35:27Z</time>
      </trkpt>
      <trkpt lat="45.84954" lon="4.37556">
        <ele>966.2</ele>
        <time>2025-09-10T07:35:28Z</time>
      </trkpt>
      <trkpt lat="45.84952" lon="4.37556">
        <ele>966.6</ele>
        <time>2025-09-10T07:35:29Z</time>
      </trkpt>
      <trkpt lat="45.8495" lon="4.37557">
        <ele>966.6</ele>
        <time>2025-09-10T07:35:30Z</time>
      </trkpt>
      <trkpt lat="45.84949" lon="4.37557">
        <ele>966.8</ele>
        <time>2025-09-10T07:35:31Z</time>
      </trkpt>
      <trkpt lat="45.84948" lon="4.37559">
        <ele>966.8</ele>
        <time>2025-09-10T07:35:32Z</time>
      </trkpt>
      <trkpt lat="45.84947" lon="4.3756">
        <ele>967.2</ele>
        <time>2025-09-10T07:35:33Z</time>
      </trkpt>
      <trkpt lat="45.84947" lon="4.37561">
        <ele>967.2</ele>
        <time>2025-09-10T07:35:34Z</time>
      </trkpt>
      <trkpt lat="45.84946" lon="4.37563">
        <ele>967.4</ele>
        <time>2025-09-10T07:35:35Z</time>
      </trkpt>
      <trkpt lat="45.84946" lon="4.37564">
        <ele>967.4</ele>
        <time>2025-09-10T07:35:36Z</time>
      </trkpt>
      <trkpt lat="45.84946" lon="4.37566">
        <ele>967.6</ele>
        <time>2025-09-10T07:35:37Z</time>
      </trkpt>
      <trkpt lat="45.84947" lon="4.3757">
        <ele>967.6</ele>
        <time>2025-09-10T07:35:38Z</time>
      </trkpt>
      <trkpt lat="45.84948" lon="4.37572">
        <ele>967.6</ele>
        <time>2025-09-10T07:35:39Z</time>
      </trkpt>
      <trkpt lat="45.84949" lon="4.37574">
        <ele>968</ele>
        <time>2025-09-10T07:35:40Z</time>
      </trkpt>
      <trkpt lat="45.84949" lon="4.37574">
        <ele>968</ele>
        <time>2025-09-10T07:35:41Z</time>
      </trkpt>
      <trkpt lat="45.84948" lon="4.37575">
        <ele>968</ele>
        <time>2025-09-10T07:35:42Z</time>
      </trkpt>
      <trkpt lat="45.84948" lon="4.37576">
        <ele>968</ele>
        <time>2025-09-10T07:35:43Z</time>
      </trkpt>
      <trkpt lat="45.84948" lon="4.37578">
        <ele>968.2</ele>
        <time>2025-09-10T07:35:44Z</time>
      </trkpt>
      <trkpt lat="45.84948" lon="4.3758">
        <ele>968.2</ele>
        <time>2025-09-10T07:35:45Z</time>
      </trkpt>
      <trkpt lat="45.84948" lon="4.37582">
        <ele>968.4</ele>
        <time>2025-09-10T07:35:46Z</time>
      </trkpt>
      <trkpt lat="45.84949" lon="4.37583">
        <ele>968.4</ele>
        <time>2025-09-10T07:35:47Z</time>
      </trkpt>
      <trkpt lat="45.84949" lon="4.37584">
        <ele>968.6</ele>
        <time>2025-09-10T07:35:48Z</time>
      </trkpt>
      <trkpt lat="45.84948" lon="4.37585">
        <ele>968.6</ele>
        <time>2025-09-10T07:35:49Z</time>
      </trkpt>
      <trkpt lat="45.84946" lon="4.37587">
        <ele>968.6</ele>
        <time>2025-09-10T07:35:50Z</time>
      </trkpt>
      <trkpt lat="45.84944" lon="4.37587">
        <ele>969</ele>
        <time>2025-09-10T07:35:51Z</time>
      </trkpt>
      <trkpt lat="45.84942" lon="4.37587">
        <ele>969</ele>
        <time>2025-09-10T07:35:52Z</time>
      </trkpt>
      <trkpt lat="45.8494" lon="4.37587">
        <ele>969</ele>
        <time>2025-09-10T07:35:53Z</time>
      </trkpt>
      <trkpt lat="45.84938" lon="4.37587">
        <ele>969.4</ele>
        <time>2025-09-10T07:35:54Z</time>
      </trkpt>
      <trkpt lat="45.84937" lon="4.37587">
        <ele>969.4</ele>
        <time>2025-09-10T07:35:55Z</time>
      </trkpt>
      <trkpt lat="45.84935" lon="4.37587">
        <ele>969.4</ele>
        <time>2025-09-10T07:35:56Z</time>
      </trkpt>
      <trkpt lat="45.84935" lon="4.37587">
        <ele>969.6</ele>
        <time>2025-09-10T07:35:57Z</time>
      </trkpt>
      <trkpt lat="45.84934" lon="4.37587">
        <ele>969.6</ele>
        <time>2025-09-10T07:35:58Z</time>
      </trkpt>
      <trkpt lat="45.84933" lon="4.37588">
        <ele>969.6</ele>
        <time>2025-09-10T07:35:59Z</time>
      </trkpt>
      <trkpt lat="45.84933" lon="4.37589">
        <ele>969.6</ele>
        <time>2025-09-10T07:36:00Z</time>
      </trkpt>
      <trkpt lat="45.84932" lon="4.3759">
        <ele>970.2</ele>
        <time>2025-09-10T07:36:01Z</time>
      </trkpt>
      <trkpt lat="45.84932" lon="4.37592">
        <ele>970.2</ele>
        <time>2025-09-10T07:36:02Z</time>
      </trkpt>
      <trkpt lat="45.84931" lon="4.37593">
        <ele>970.2</ele>
        <time>2025-09-10T07:36:03Z</time>
      </trkpt>
      <trkpt lat="45.8493" lon="4.37595">
        <ele>970.4</ele>
        <time>2025-09-10T07:36:04Z</time>
      </trkpt>
      <trkpt lat="45.8493" lon="4.37598">
        <ele>970.4</ele>
        <time>2025-09-10T07:36:05Z</time>
      </trkpt>
      <trkpt lat="45.8493" lon="4.376">
        <ele>970.4</ele>
        <time>2025-09-10T07:36:06Z</time>
      </trkpt>
      <trkpt lat="45.8493" lon="4.37601">
        <ele>970.4</ele>
        <time>2025-09-10T07:36:07Z</time>
      </trkpt>
      <trkpt lat="45.8493" lon="4.37602">
        <ele>970.4</ele>
        <time>2025-09-10T07:36:08Z</time>
      </trkpt>
      <trkpt lat="45.84931" lon="4.37603">
        <ele>970.6</ele>
        <time>2025-09-10T07:36:09Z</time>
      </trkpt>
      <trkpt lat="45.84931" lon="4.37604">
        <ele>970.6</ele>
        <time>2025-09-10T07:36:10Z</time>
      </trkpt>
      <trkpt lat="45.84931" lon="4.37605">
        <ele>970.6</ele>
        <time>2025-09-10T07:36:11Z</time>
      </trkpt>
      <trkpt lat="45.8493" lon="4.37607">
        <ele>970.8</ele>
        <time>2025-09-10T07:36:12Z</time>
      </trkpt>
      <trkpt lat="45.8493" lon="4.37608">
        <ele>970.8</ele>
        <time>2025-09-10T07:36:13Z</time>
      </trkpt>
      <trkpt lat="45.84929" lon="4.37609">
        <ele>970.8</ele>
        <time>2025-09-10T07:36:14Z</time>
      </trkpt>
      <trkpt lat="45.84928" lon="4.3761">
        <ele>970.8</ele>
        <time>2025-09-10T07:36:15Z</time>
      </trkpt>
      <trkpt lat="45.84928" lon="4.37611">
        <ele>971.2</ele>
        <time>2025-09-10T07:36:16Z</time>
      </trkpt>
      <trkpt lat="45.84927" lon="4.37612">
        <ele>971.4</ele>
        <time>2025-09-10T07:36:17Z</time>
      </trkpt>
      <trkpt lat="45.84926" lon="4.37612">
        <ele>971.4</ele>
        <time>2025-09-10T07:36:18Z</time>
      </trkpt>
      <trkpt lat="45.84925" lon="4.37613">
        <ele>971.4</ele>
        <time>2025-09-10T07:36:19Z</time>
      </trkpt>
      <trkpt lat="45.84924" lon="4.37614">
        <ele>971.4</ele>
        <time>2025-09-10T07:36:20Z</time>
      </trkpt>
      <trkpt lat="45.84924" lon="4.37614">
        <ele>971.4</ele>
        <time>2025-09-10T07:36:21Z</time>
      </trkpt>
      <trkpt lat="45.84925" lon="4.37615">
        <ele>971.4</ele>
        <time>2025-09-10T07:36:22Z</time>
      </trkpt>
      <trkpt lat="45.84925" lon="4.37615">
        <ele>971.4</ele>
        <time>2025-09-10T07:36:23Z</time>
      </trkpt>
      <trkpt lat="45.84926" lon="4.37617">
        <ele>971.2</ele>
        <time>2025-09-10T07:36:28Z</time>
      </trkpt>
      <trkpt lat="45.84926" lon="4.37618">
        <ele>971.2</ele>
        <time>2025-09-10T07:36:29Z</time>
      </trkpt>
      <trkpt lat="45.84925" lon="4.37617">
        <ele>971.2</ele>
        <time>2025-09-10T07:36:30Z</time>
      </trkpt>
      <trkpt lat="45.84924" lon="4.37617">
        <ele>971.2</ele>
        <time>2025-09-10T07:36:31Z</time>
      </trkpt>
      <trkpt lat="45.84922" lon="4.37619">
        <ele>971.2</ele>
        <time>2025-09-10T07:36:36Z</time>
      </trkpt>
      <trkpt lat="45.8492" lon="4.37621">
        <ele>971.2</ele>
        <time>2025-09-10T07:36:37Z</time>
      </trkpt>
      <trkpt lat="45.84919" lon="4.37622">
        <ele>971.2</ele>
        <time>2025-09-10T07:36:38Z</time>
      </trkpt>
      <trkpt lat="45.84918" lon="4.37625">
        <ele>970.8</ele>
        <time>2025-09-10T07:36:39Z</time>
      </trkpt>
      <trkpt lat="45.84916" lon="4.37628">
        <ele>970.8</ele>
        <time>2025-09-10T07:36:40Z</time>
      </trkpt>
      <trkpt lat="45.84914" lon="4.37632">
        <ele>970.4</ele>
        <time>2025-09-10T07:36:41Z</time>
      </trkpt>
      <trkpt lat="45.84913" lon="4.37635">
        <ele>970.4</ele>
        <time>2025-09-10T07:36:42Z</time>
      </trkpt>
      <trkpt lat="45.84913" lon="4.37638">
        <ele>970.4</ele>
        <time>2025-09-10T07:36:43Z</time>
      </trkpt>
      <trkpt lat="45.84912" lon="4.3764">
        <ele>970.2</ele>
        <time>2025-09-10T07:36:44Z</time>
      </trkpt>
      <trkpt lat="45.84911" lon="4.37644">
        <ele>970.2</ele>
        <time>2025-09-10T07:36:45Z</time>
      </trkpt>
      <trkpt lat="45.84911" lon="4.37647">
        <ele>969.8</ele>
        <time>2025-09-10T07:36:46Z</time>
      </trkpt>
      <trkpt lat="45.8491" lon="4.37651">
        <ele>969.8</ele>
        <time>2025-09-10T07:36:47Z</time>
      </trkpt>
      <trkpt lat="45.8491" lon="4.37655">
        <ele>969.6</ele>
        <time>2025-09-10T07:36:48Z</time>
      </trkpt>
      <trkpt lat="45.84909" lon="4.3766">
        <ele>969.6</ele>
        <time>2025-09-10T07:36:49Z</time>
      </trkpt>
      <trkpt lat="45.84908" lon="4.37664">
        <ele>969</ele>
        <time>2025-09-10T07:36:50Z</time>
      </trkpt>
      <trkpt lat="45.84906" lon="4.37667">
        <ele>969</ele>
        <time>2025-09-10T07:36:51Z</time>
      </trkpt>
      <trkpt lat="45.84903" lon="4.3767">
        <ele>968.6</ele>
        <time>2025-09-10T07:36:52Z</time>
      </trkpt>
      <trkpt lat="45.84901" lon="4.37673">
        <ele>968.2</ele>
        <time>2025-09-10T07:36:53Z</time>
      </trkpt>
      <trkpt lat="45.849" lon="4.37676">
        <ele>968.2</ele>
        <time>2025-09-10T07:36:54Z</time>
      </trkpt>
      <trkpt lat="45.84899" lon="4.3768">
        <ele>967.8</ele>
        <time>2025-09-10T07:36:55Z</time>
      </trkpt>
      <trkpt lat="45.84898" lon="4.37685">
        <ele>967.8</ele>
        <time>2025-09-10T07:36:56Z</time>
      </trkpt>
      <trkpt lat="45.84898" lon="4.37691">
        <ele>967.4</ele>
        <time>2025-09-10T07:36:57Z</time>
      </trkpt>
      <trkpt lat="45.84898" lon="4.37696">
        <ele>967.4</ele>
        <time>2025-09-10T07:36:58Z</time>
      </trkpt>
      <trkpt lat="45.84897" lon="4.37702">
        <ele>967.4</ele>
        <time>2025-09-10T07:36:59Z</time>
      </trkpt>
      <trkpt lat="45.84896" lon="4.37706">
        <ele>967</ele>
        <time>2025-09-10T07:37:00Z</time>
      </trkpt>
      <trkpt lat="45.84896" lon="4.37711">
        <ele>966.8</ele>
        <time>2025-09-10T07:37:01Z</time>
      </trkpt>
      <trkpt lat="45.84895" lon="4.37717">
        <ele>966.2</ele>
        <time>2025-09-10T07:37:02Z</time>
      </trkpt>
      <trkpt lat="45.84894" lon="4.37722">
        <ele>965.8</ele>
        <time>2025-09-10T07:37:03Z</time>
      </trkpt>
      <trkpt lat="45.84893" lon="4.37728">
        <ele>965.2</ele>
        <time>2025-09-10T07:37:04Z</time>
      </trkpt>
      <trkpt lat="45.84887" lon="4.37731">
        <ele>964.6</ele>
        <time>2025-09-10T07:37:05Z</time>
      </trkpt>
      <trkpt lat="45.84887" lon="4.37736">
        <ele>964.4</ele>
        <time>2025-09-10T07:37:06Z</time>
      </trkpt>
      <trkpt lat="45.84885" lon="4.37741">
        <ele>964.2</ele>
        <time>2025-09-10T07:37:07Z</time>
      </trkpt>
      <trkpt lat="45.84884" lon="4.37745">
        <ele>963.8</ele>
        <time>2025-09-10T07:37:08Z</time>
      </trkpt>
      <trkpt lat="45.84883" lon="4.3775">
        <ele>963.6</ele>
        <time>2025-09-10T07:37:09Z</time>
      </trkpt>
      <trkpt lat="45.84881" lon="4.37755">
        <ele>963.4</ele>
        <time>2025-09-10T07:37:10Z</time>
      </trkpt>
      <trkpt lat="45.84883" lon="4.37763">
        <ele>963.4</ele>
        <time>2025-09-10T07:37:11Z</time>
      </trkpt>
      <trkpt lat="45.84881" lon="4.37766">
        <ele>963.4</ele>
        <time>2025-09-10T07:37:12Z</time>
      </trkpt>
      <trkpt lat="45.84884" lon="4.37771">
        <ele>963.4</ele>
        <time>2025-09-10T07:37:13Z</time>
      </trkpt>
      <trkpt lat="45.84884" lon="4.37775">
        <ele>963.4</ele>
        <time>2025-09-10T07:37:14Z</time>
      </trkpt>
      <trkpt lat="45.84885" lon="4.37779">
        <ele>963.4</ele>
        <time>2025-09-10T07:37:15Z</time>
      </trkpt>
      <trkpt lat="45.84886" lon="4.37779">
        <ele>963.4</ele>
        <time>2025-09-10T07:37:16Z</time>
      </trkpt>
      <trkpt lat="45.84888" lon="4.3778">
        <ele>963.8</ele>
        <time>2025-09-10T07:37:17Z</time>
      </trkpt>
      <trkpt lat="45.84889" lon="4.37781">
        <ele>964</ele>
        <time>2025-09-10T07:37:18Z</time>
      </trkpt>
      <trkpt lat="45.8489" lon="4.37783">
        <ele>964.2</ele>
        <time>2025-09-10T07:37:19Z</time>
      </trkpt>
      <trkpt lat="45.84891" lon="4.37786">
        <ele>964.4</ele>
        <time>2025-09-10T07:37:20Z</time>
      </trkpt>
      <trkpt lat="45.84892" lon="4.37788">
        <ele>964.4</ele>
        <time>2025-09-10T07:37:21Z</time>
      </trkpt>
      <trkpt lat="45.84893" lon="4.37789">
        <ele>964.8</ele>
        <time>2025-09-10T07:37:22Z</time>
      </trkpt>
      <trkpt lat="45.84894" lon="4.3779">
        <ele>965</ele>
        <time>2025-09-10T07:37:23Z</time>
      </trkpt>
      <trkpt lat="45.84895" lon="4.37792">
        <ele>965</ele>
        <time>2025-09-10T07:37:24Z</time>
      </trkpt>
      <trkpt lat="45.84896" lon="4.37793">
        <ele>965.4</ele>
        <time>2025-09-10T07:37:25Z</time>
      </trkpt>
      <trkpt lat="45.84897" lon="4.37796">
        <ele>965.6</ele>
        <time>2025-09-10T07:37:26Z</time>
      </trkpt>
      <trkpt lat="45.84899" lon="4.37798">
        <ele>965.8</ele>
        <time>2025-09-10T07:37:27Z</time>
      </trkpt>
      <trkpt lat="45.84899" lon="4.378">
        <ele>966</ele>
        <time>2025-09-10T07:37:28Z</time>
      </trkpt>
      <trkpt lat="45.849" lon="4.37801">
        <ele>966</ele>
        <time>2025-09-10T07:37:29Z</time>
      </trkpt>
      <trkpt lat="45.849" lon="4.37803">
        <ele>966.4</ele>
        <time>2025-09-10T07:37:30Z</time>
      </trkpt>
      <trkpt lat="45.849" lon="4.37805">
        <ele>966.4</ele>
        <time>2025-09-10T07:37:31Z</time>
      </trkpt>
      <trkpt lat="45.84901" lon="4.37807">
        <ele>966.8</ele>
        <time>2025-09-10T07:37:32Z</time>
      </trkpt>
      <trkpt lat="45.84903" lon="4.37809">
        <ele>967</ele>
        <time>2025-09-10T07:37:33Z</time>
      </trkpt>
      <trkpt lat="45.84904" lon="4.3781">
        <ele>967</ele>
        <time>2025-09-10T07:37:34Z</time>
      </trkpt>
      <trkpt lat="45.84904" lon="4.37812">
        <ele>967.2</ele>
        <time>2025-09-10T07:37:35Z</time>
      </trkpt>
      <trkpt lat="45.84904" lon="4.37813">
        <ele>967.2</ele>
        <time>2025-09-10T07:37:36Z</time>
      </trkpt>
      <trkpt lat="45.84903" lon="4.37813">
        <ele>967.6</ele>
        <time>2025-09-10T07:37:37Z</time>
      </trkpt>
      <trkpt lat="45.84902" lon="4.37814">
        <ele>967.6</ele>
        <time>2025-09-10T07:37:38Z</time>
      </trkpt>
      <trkpt lat="45.84903" lon="4.37816">
        <ele>967.8</ele>
        <time>2025-09-10T07:37:39Z</time>
      </trkpt>
      <trkpt lat="45.84905" lon="4.37817">
        <ele>967.8</ele>
        <time>2025-09-10T07:37:40Z</time>
      </trkpt>
      <trkpt lat="45.84906" lon="4.37818">
        <ele>968</ele>
        <time>2025-09-10T07:37:41Z</time>
      </trkpt>
      <trkpt lat="45.84906" lon="4.37819">
        <ele>968</ele>
        <time>2025-09-10T07:37:42Z</time>
      </trkpt>
      <trkpt lat="45.84907" lon="4.37821">
        <ele>968</ele>
        <time>2025-09-10T07:37:43Z</time>
      </trkpt>
      <trkpt lat="45.84908" lon="4.37823">
        <ele>968.4</ele>
        <time>2025-09-10T07:37:44Z</time>
      </trkpt>
      <trkpt lat="45.84909" lon="4.37825">
        <ele>968.4</ele>
        <time>2025-09-10T07:37:45Z</time>
      </trkpt>
      <trkpt lat="45.84911" lon="4.37827">
        <ele>968.6</ele>
        <time>2025-09-10T07:37:46Z</time>
      </trkpt>
      <trkpt lat="45.84912" lon="4.37828">
        <ele>968.6</ele>
        <time>2025-09-10T07:37:47Z</time>
      </trkpt>
      <trkpt lat="45.84913" lon="4.37829">
        <ele>969</ele>
        <time>2025-09-10T07:37:48Z</time>
      </trkpt>
      <trkpt lat="45.84913" lon="4.37831">
        <ele>969</ele>
        <time>2025-09-10T07:37:49Z</time>
      </trkpt>
      <trkpt lat="45.84914" lon="4.37833">
        <ele>969.2</ele>
        <time>2025-09-10T07:37:50Z</time>
      </trkpt>
      <trkpt lat="45.84914" lon="4.37835">
        <ele>969.2</ele>
        <time>2025-09-10T07:37:51Z</time>
      </trkpt>
      <trkpt lat="45.84915" lon="4.37836">
        <ele>969.2</ele>
        <time>2025-09-10T07:37:52Z</time>
      </trkpt>
      <trkpt lat="45.84916" lon="4.37837">
        <ele>969.6</ele>
        <time>2025-09-10T07:37:53Z</time>
      </trkpt>
      <trkpt lat="45.84916" lon="4.37837">
        <ele>969.6</ele>
        <time>2025-09-10T07:37:54Z</time>
      </trkpt>
      <trkpt lat="45.84916" lon="4.37839">
        <ele>969.8</ele>
        <time>2025-09-10T07:37:55Z</time>
      </trkpt>
      <trkpt lat="45.84917" lon="4.3784">
        <ele>970</ele>
        <time>2025-09-10T07:37:56Z</time>
      </trkpt>
      <trkpt lat="45.84917" lon="4.37842">
        <ele>970</ele>
        <time>2025-09-10T07:37:57Z</time>
      </trkpt>
      <trkpt lat="45.84918" lon="4.37843">
        <ele>970</ele>
        <time>2025-09-10T07:37:58Z</time>
      </trkpt>
      <trkpt lat="45.84919" lon="4.37844">
        <ele>970</ele>
        <time>2025-09-10T07:37:59Z</time>
      </trkpt>
      <trkpt lat="45.84919" lon="4.37844">
        <ele>970.6</ele>
        <time>2025-09-10T07:38:00Z</time>
      </trkpt>
      <trkpt lat="45.84919" lon="4.37845">
        <ele>970.6</ele>
        <time>2025-09-10T07:38:01Z</time>
      </trkpt>
      <trkpt lat="45.84919" lon="4.37846">
        <ele>971</ele>
        <time>2025-09-10T07:38:02Z</time>
      </trkpt>
      <trkpt lat="45.8492" lon="4.37847">
        <ele>971</ele>
        <time>2025-09-10T07:38:03Z</time>
      </trkpt>
      <trkpt lat="45.84921" lon="4.37849">
        <ele>971.2</ele>
        <time>2025-09-10T07:38:04Z</time>
      </trkpt>
      <trkpt lat="45.84923" lon="4.37851">
        <ele>971.2</ele>
        <time>2025-09-10T07:38:05Z</time>
      </trkpt>
      <trkpt lat="45.84924" lon="4.37853">
        <ele>971.2</ele>
        <time>2025-09-10T07:38:06Z</time>
      </trkpt>
      <trkpt lat="45.84924" lon="4.37854">
        <ele>971.2</ele>
        <time>2025-09-10T07:38:07Z</time>
      </trkpt>
      <trkpt lat="45.84923" lon="4.37855">
        <ele>971.8</ele>
        <time>2025-09-10T07:38:08Z</time>
      </trkpt>
      <trkpt lat="45.84923" lon="4.37856">
        <ele>971.8</ele>
        <time>2025-09-10T07:38:09Z</time>
      </trkpt>
      <trkpt lat="45.84923" lon="4.37858">
        <ele>971.8</ele>
        <time>2025-09-10T07:38:10Z</time>
      </trkpt>
      <trkpt lat="45.84923" lon="4.3786">
        <ele>972</ele>
        <time>2025-09-10T07:38:11Z</time>
      </trkpt>
      <trkpt lat="45.84923" lon="4.37861">
        <ele>972</ele>
        <time>2025-09-10T07:38:12Z</time>
      </trkpt>
      <trkpt lat="45.84923" lon="4.37862">
        <ele>972.4</ele>
        <time>2025-09-10T07:38:13Z</time>
      </trkpt>
      <trkpt lat="45.84924" lon="4.37864">
        <ele>972.4</ele>
        <time>2025-09-10T07:38:14Z</time>
      </trkpt>
      <trkpt lat="45.84924" lon="4.37865">
        <ele>972.4</ele>
        <time>2025-09-10T07:38:15Z</time>
      </trkpt>
      <trkpt lat="45.84925" lon="4.37866">
        <ele>972.8</ele>
        <time>2025-09-10T07:38:16Z</time>
      </trkpt>
      <trkpt lat="45.84926" lon="4.37867">
        <ele>973</ele>
        <time>2025-09-10T07:38:17Z</time>
      </trkpt>
      <trkpt lat="45.84926" lon="4.37869">
        <ele>973</ele>
        <time>2025-09-10T07:38:18Z</time>
      </trkpt>
      <trkpt lat="45.84927" lon="4.3787">
        <ele>973</ele>
        <time>2025-09-10T07:38:19Z</time>
      </trkpt>
      <trkpt lat="45.84928" lon="4.37872">
        <ele>973.2</ele>
        <time>2025-09-10T07:38:20Z</time>
      </trkpt>
      <trkpt lat="45.84928" lon="4.37874">
        <ele>973.2</ele>
        <time>2025-09-10T07:38:21Z</time>
      </trkpt>
      <trkpt lat="45.84929" lon="4.37875">
        <ele>973.4</ele>
        <time>2025-09-10T07:38:22Z</time>
      </trkpt>
      <trkpt lat="45.84929" lon="4.37877">
        <ele>973.4</ele>
        <time>2025-09-10T07:38:23Z</time>
      </trkpt>
      <trkpt lat="45.8493" lon="4.37878">
        <ele>973.4</ele>
        <time>2025-09-10T07:38:24Z</time>
      </trkpt>
      <trkpt lat="45.8493" lon="4.37879">
        <ele>973.6</ele>
        <time>2025-09-10T07:38:25Z</time>
      </trkpt>
      <trkpt lat="45.84931" lon="4.3788">
        <ele>973.6</ele>
        <time>2025-09-10T07:38:26Z</time>
      </trkpt>
      <trkpt lat="45.84932" lon="4.37882">
        <ele>974</ele>
        <time>2025-09-10T07:38:27Z</time>
      </trkpt>
      <trkpt lat="45.84933" lon="4.37883">
        <ele>974</ele>
        <time>2025-09-10T07:38:28Z</time>
      </trkpt>
      <trkpt lat="45.84933" lon="4.37884">
        <ele>974.2</ele>
        <time>2025-09-10T07:38:29Z</time>
      </trkpt>
      <trkpt lat="45.84934" lon="4.37885">
        <ele>974.2</ele>
        <time>2025-09-10T07:38:30Z</time>
      </trkpt>
      <trkpt lat="45.84934" lon="4.37886">
        <ele>974.2</ele>
        <time>2025-09-10T07:38:31Z</time>
      </trkpt>
      <trkpt lat="45.84934" lon="4.37887">
        <ele>974.4</ele>
        <time>2025-09-10T07:38:32Z</time>
      </trkpt>
      <trkpt lat="45.84934" lon="4.37888">
        <ele>974.4</ele>
        <time>2025-09-10T07:38:33Z</time>
      </trkpt>
      <trkpt lat="45.84935" lon="4.37889">
        <ele>974.4</ele>
        <time>2025-09-10T07:38:34Z</time>
      </trkpt>
      <trkpt lat="45.84935" lon="4.3789">
        <ele>974.4</ele>
        <time>2025-09-10T07:38:35Z</time>
      </trkpt>
      <trkpt lat="45.84936" lon="4.37891">
        <ele>974.6</ele>
        <time>2025-09-10T07:38:36Z</time>
      </trkpt>
      <trkpt lat="45.84936" lon="4.37892">
        <ele>974.6</ele>
        <time>2025-09-10T07:38:37Z</time>
      </trkpt>
      <trkpt lat="45.84936" lon="4.37893">
        <ele>974.6</ele>
        <time>2025-09-10T07:38:38Z</time>
      </trkpt>
      <trkpt lat="45.84937" lon="4.37894">
        <ele>975</ele>
        <time>2025-09-10T07:38:39Z</time>
      </trkpt>
      <trkpt lat="45.84937" lon="4.37895">
        <ele>975</ele>
        <time>2025-09-10T07:38:40Z</time>
      </trkpt>
      <trkpt lat="45.84937" lon="4.37895">
        <ele>975.4</ele>
        <time>2025-09-10T07:38:41Z</time>
      </trkpt>
      <trkpt lat="45.84938" lon="4.37897">
        <ele>975.4</ele>
        <time>2025-09-10T07:38:42Z</time>
      </trkpt>
      <trkpt lat="45.84938" lon="4.37898">
        <ele>975.4</ele>
        <time>2025-09-10T07:38:43Z</time>
      </trkpt>
      <trkpt lat="45.84939" lon="4.37899">
        <ele>975.6</ele>
        <time>2025-09-10T07:38:44Z</time>
      </trkpt>
      <trkpt lat="45.84939" lon="4.379">
        <ele>975.6</ele>
        <time>2025-09-10T07:38:45Z</time>
      </trkpt>
      <trkpt lat="45.8494" lon="4.37901">
        <ele>975.8</ele>
        <time>2025-09-10T07:38:46Z</time>
      </trkpt>
      <trkpt lat="45.84941" lon="4.37903">
        <ele>975.8</ele>
        <time>2025-09-10T07:38:47Z</time>
      </trkpt>
      <trkpt lat="45.84942" lon="4.37904">
        <ele>976.2</ele>
        <time>2025-09-10T07:38:48Z</time>
      </trkpt>
      <trkpt lat="45.84944" lon="4.37905">
        <ele>976.2</ele>
        <time>2025-09-10T07:38:49Z</time>
      </trkpt>
      <trkpt lat="45.84945" lon="4.37905">
        <ele>976.2</ele>
        <time>2025-09-10T07:38:50Z</time>
      </trkpt>
      <trkpt lat="45.84945" lon="4.37906">
        <ele>976.4</ele>
        <time>2025-09-10T07:38:51Z</time>
      </trkpt>
      <trkpt lat="45.84946" lon="4.37907">
        <ele>976.4</ele>
        <time>2025-09-10T07:38:52Z</time>
      </trkpt>
      <trkpt lat="45.84946" lon="4.37908">
        <ele>976.6</ele>
        <time>2025-09-10T07:38:53Z</time>
      </trkpt>
      <trkpt lat="45.84947" lon="4.37909">
        <ele>976.6</ele>
        <time>2025-09-10T07:38:54Z</time>
      </trkpt>
      <trkpt lat="45.84947" lon="4.37911">
        <ele>976.8</ele>
        <time>2025-09-10T07:38:55Z</time>
      </trkpt>
      <trkpt lat="45.84948" lon="4.37912">
        <ele>976.8</ele>
        <time>2025-09-10T07:38:56Z</time>
      </trkpt>
      <trkpt lat="45.84948" lon="4.37914">
        <ele>976.8</ele>
        <time>2025-09-10T07:38:57Z</time>
      </trkpt>
      <trkpt lat="45.84949" lon="4.37916">
        <ele>976.8</ele>
        <time>2025-09-10T07:38:58Z</time>
      </trkpt>
      <trkpt lat="45.84949" lon="4.37917">
        <ele>977.2</ele>
        <time>2025-09-10T07:38:59Z</time>
      </trkpt>
      <trkpt lat="45.8495" lon="4.37918">
        <ele>977.2</ele>
        <time>2025-09-10T07:39:00Z</time>
      </trkpt>
      <trkpt lat="45.8495" lon="4.37919">
        <ele>977.2</ele>
        <time>2025-09-10T07:39:01Z</time>
      </trkpt>
      <trkpt lat="45.84951" lon="4.3792">
        <ele>977.6</ele>
        <time>2025-09-10T07:39:02Z</time>
      </trkpt>
      <trkpt lat="45.84952" lon="4.37921">
        <ele>977.8</ele>
        <time>2025-09-10T07:39:03Z</time>
      </trkpt>
      <trkpt lat="45.84952" lon="4.37922">
        <ele>977.8</ele>
        <time>2025-09-10T07:39:04Z</time>
      </trkpt>
      <trkpt lat="45.84953" lon="4.37923">
        <ele>978</ele>
        <time>2025-09-10T07:39:05Z</time>
      </trkpt>
      <trkpt lat="45.84953" lon="4.37924">
        <ele>978</ele>
        <time>2025-09-10T07:39:06Z</time>
      </trkpt>
      <trkpt lat="45.84954" lon="4.37926">
        <ele>978.4</ele>
        <time>2025-09-10T07:39:07Z</time>
      </trkpt>
      <trkpt lat="45.84955" lon="4.37927">
        <ele>978.4</ele>
        <time>2025-09-10T07:39:08Z</time>
      </trkpt>
      <trkpt lat="45.84955" lon="4.37928">
        <ele>978.4</ele>
        <time>2025-09-10T07:39:09Z</time>
      </trkpt>
      <trkpt lat="45.84956" lon="4.37929">
        <ele>978.6</ele>
        <time>2025-09-10T07:39:10Z</time>
      </trkpt>
      <trkpt lat="45.84956" lon="4.37931">
        <ele>978.6</ele>
        <time>2025-09-10T07:39:11Z</time>
      </trkpt>
      <trkpt lat="45.84957" lon="4.37933">
        <ele>978.6</ele>
        <time>2025-09-10T07:39:12Z</time>
      </trkpt>
      <trkpt lat="45.84957" lon="4.37935">
        <ele>978.8</ele>
        <time>2025-09-10T07:39:13Z</time>
      </trkpt>
      <trkpt lat="45.84957" lon="4.37937">
        <ele>978.8</ele>
        <time>2025-09-10T07:39:14Z</time>
      </trkpt>
      <trkpt lat="45.84957" lon="4.37937">
        <ele>979.2</ele>
        <time>2025-09-10T07:39:15Z</time>
      </trkpt>
      <trkpt lat="45.84958" lon="4.37938">
        <ele>979.2</ele>
        <time>2025-09-10T07:39:16Z</time>
      </trkpt>
      <trkpt lat="45.84958" lon="4.3794">
        <ele>979.2</ele>
        <time>2025-09-10T07:39:17Z</time>
      </trkpt>
      <trkpt lat="45.84959" lon="4.37941">
        <ele>979.4</ele>
        <time>2025-09-10T07:39:18Z</time>
      </trkpt>
      <trkpt lat="45.84959" lon="4.37943">
        <ele>979.4</ele>
        <time>2025-09-10T07:39:19Z</time>
      </trkpt>
      <trkpt lat="45.84959" lon="4.37944">
        <ele>979.4</ele>
        <time>2025-09-10T07:39:20Z</time>
      </trkpt>
      <trkpt lat="45.8496" lon="4.37945">
        <ele>979.6</ele>
        <time>2025-09-10T07:39:21Z</time>
      </trkpt>
      <trkpt lat="45.84961" lon="4.37948">
        <ele>979.6</ele>
        <time>2025-09-10T07:39:22Z</time>
      </trkpt>
      <trkpt lat="45.84962" lon="4.37949">
        <ele>979.6</ele>
        <time>2025-09-10T07:39:23Z</time>
      </trkpt>
      <trkpt lat="45.84962" lon="4.37951">
        <ele>979.6</ele>
        <time>2025-09-10T07:39:24Z</time>
      </trkpt>
      <trkpt lat="45.84963" lon="4.37952">
        <ele>979.6</ele>
        <time>2025-09-10T07:39:25Z</time>
      </trkpt>
      <trkpt lat="45.84963" lon="4.37953">
        <ele>980</ele>
        <time>2025-09-10T07:39:26Z</time>
      </trkpt>
      <trkpt lat="45.84963" lon="4.37954">
        <ele>980</ele>
        <time>2025-09-10T07:39:27Z</time>
      </trkpt>
      <trkpt lat="45.84964" lon="4.37956">
        <ele>980.2</ele>
        <time>2025-09-10T07:39:28Z</time>
      </trkpt>
      <trkpt lat="45.84964" lon="4.37957">
        <ele>980.2</ele>
        <time>2025-09-10T07:39:29Z</time>
      </trkpt>
      <trkpt lat="45.84965" lon="4.37958">
        <ele>980.2</ele>
        <time>2025-09-10T07:39:30Z</time>
      </trkpt>
      <trkpt lat="45.84965" lon="4.37959">
        <ele>980.6</ele>
        <time>2025-09-10T07:39:31Z</time>
      </trkpt>
      <trkpt lat="45.84966" lon="4.3796">
        <ele>980.6</ele>
        <time>2025-09-10T07:39:32Z</time>
      </trkpt>
      <trkpt lat="45.84966" lon="4.37961">
        <ele>980.8</ele>
        <time>2025-09-10T07:39:33Z</time>
      </trkpt>
      <trkpt lat="45.84967" lon="4.37963">
        <ele>980.8</ele>
        <time>2025-09-10T07:39:34Z</time>
      </trkpt>
      <trkpt lat="45.84968" lon="4.37965">
        <ele>981</ele>
        <time>2025-09-10T07:39:35Z</time>
      </trkpt>
      <trkpt lat="45.84969" lon="4.37966">
        <ele>981.4</ele>
        <time>2025-09-10T07:39:36Z</time>
      </trkpt>
      <trkpt lat="45.84969" lon="4.37968">
        <ele>981.4</ele>
        <time>2025-09-10T07:39:37Z</time>
      </trkpt>
      <trkpt lat="45.8497" lon="4.37969">
        <ele>981.4</ele>
        <time>2025-09-10T07:39:38Z</time>
      </trkpt>
      <trkpt lat="45.84971" lon="4.3797">
        <ele>981.6</ele>
        <time>2025-09-10T07:39:39Z</time>
      </trkpt>
      <trkpt lat="45.84972" lon="4.3797">
        <ele>981.6</ele>
        <time>2025-09-10T07:39:40Z</time>
      </trkpt>
      <trkpt lat="45.84972" lon="4.3797">
        <ele>982</ele>
        <time>2025-09-10T07:39:41Z</time>
      </trkpt>
      <trkpt lat="45.84972" lon="4.37971">
        <ele>982</ele>
        <time>2025-09-10T07:39:42Z</time>
      </trkpt>
      <trkpt lat="45.84973" lon="4.37972">
        <ele>982.2</ele>
        <time>2025-09-10T07:39:43Z</time>
      </trkpt>
      <trkpt lat="45.84973" lon="4.37973">
        <ele>982.2</ele>
        <time>2025-09-10T07:39:44Z</time>
      </trkpt>
      <trkpt lat="45.84974" lon="4.37974">
        <ele>982.2</ele>
        <time>2025-09-10T07:39:45Z</time>
      </trkpt>
      <trkpt lat="45.84975" lon="4.37975">
        <ele>982.4</ele>
        <time>2025-09-10T07:39:46Z</time>
      </trkpt>
      <trkpt lat="45.84976" lon="4.37976">
        <ele>982.4</ele>
        <time>2025-09-10T07:39:47Z</time>
      </trkpt>
      <trkpt lat="45.84977" lon="4.37978">
        <ele>982.6</ele>
        <time>2025-09-10T07:39:48Z</time>
      </trkpt>
      <trkpt lat="45.84977" lon="4.37979">
        <ele>982.6</ele>
        <time>2025-09-10T07:39:49Z</time>
      </trkpt>
      <trkpt lat="45.84978" lon="4.3798">
        <ele>982.6</ele>
        <time>2025-09-10T07:39:50Z</time>
      </trkpt>
      <trkpt lat="45.84978" lon="4.37981">
        <ele>982.8</ele>
        <time>2025-09-10T07:39:51Z</time>
      </trkpt>
      <trkpt lat="45.8498" lon="4.37982">
        <ele>982.8</ele>
        <time>2025-09-10T07:39:52Z</time>
      </trkpt>
      <trkpt lat="45.84981" lon="4.37983">
        <ele>983.2</ele>
        <time>2025-09-10T07:39:53Z</time>
      </trkpt>
      <trkpt lat="45.84982" lon="4.37985">
        <ele>983.2</ele>
        <time>2025-09-10T07:39:54Z</time>
      </trkpt>
      <trkpt lat="45.84983" lon="4.37986">
        <ele>983.4</ele>
        <time>2025-09-10T07:39:55Z</time>
      </trkpt>
      <trkpt lat="45.84984" lon="4.37987">
        <ele>983.4</ele>
        <time>2025-09-10T07:39:56Z</time>
      </trkpt>
      <trkpt lat="45.84985" lon="4.37987">
        <ele>983.4</ele>
        <time>2025-09-10T07:39:57Z</time>
      </trkpt>
      <trkpt lat="45.84986" lon="4.37988">
        <ele>983.6</ele>
        <time>2025-09-10T07:39:58Z</time>
      </trkpt>
      <trkpt lat="45.84988" lon="4.37988">
        <ele>983.8</ele>
        <time>2025-09-10T07:39:59Z</time>
      </trkpt>
      <trkpt lat="45.84989" lon="4.37989">
        <ele>984</ele>
        <time>2025-09-10T07:40:00Z</time>
      </trkpt>
      <trkpt lat="45.8499" lon="4.3799">
        <ele>984</ele>
        <time>2025-09-10T07:40:01Z</time>
      </trkpt>
      <trkpt lat="45.8499" lon="4.3799">
        <ele>984.4</ele>
        <time>2025-09-10T07:40:02Z</time>
      </trkpt>
      <trkpt lat="45.84991" lon="4.37991">
        <ele>984.4</ele>
        <time>2025-09-10T07:40:03Z</time>
      </trkpt>
      <trkpt lat="45.84991" lon="4.37991">
        <ele>984.8</ele>
        <time>2025-09-10T07:40:04Z</time>
      </trkpt>
      <trkpt lat="45.84992" lon="4.37991">
        <ele>985</ele>
        <time>2025-09-10T07:40:05Z</time>
      </trkpt>
      <trkpt lat="45.84993" lon="4.37992">
        <ele>985.2</ele>
        <time>2025-09-10T07:40:06Z</time>
      </trkpt>
      <trkpt lat="45.84994" lon="4.37993">
        <ele>985.4</ele>
        <time>2025-09-10T07:40:07Z</time>
      </trkpt>
      <trkpt lat="45.84995" lon="4.37993">
        <ele>985.8</ele>
        <time>2025-09-10T07:40:08Z</time>
      </trkpt>
      <trkpt lat="45.84996" lon="4.37994">
        <ele>986</ele>
        <time>2025-09-10T07:40:09Z</time>
      </trkpt>
      <trkpt lat="45.84997" lon="4.37994">
        <ele>986.2</ele>
        <time>2025-09-10T07:40:10Z</time>
      </trkpt>
      <trkpt lat="45.84997" lon="4.37995">
        <ele>986.2</ele>
        <time>2025-09-10T07:40:11Z</time>
      </trkpt>
      <trkpt lat="45.84998" lon="4.37995">
        <ele>986.6</ele>
        <time>2025-09-10T07:40:12Z</time>
      </trkpt>
      <trkpt lat="45.84999" lon="4.37996">
        <ele>987</ele>
        <time>2025-09-10T07:40:13Z</time>
      </trkpt>
      <trkpt lat="45.84999" lon="4.37996">
        <ele>987.2</ele>
        <time>2025-09-10T07:40:14Z</time>
      </trkpt>
      <trkpt lat="45.85" lon="4.37997">
        <ele>987.2</ele>
        <time>2025-09-10T07:40:15Z</time>
      </trkpt>
      <trkpt lat="45.85" lon="4.37998">
        <ele>987.4</ele>
        <time>2025-09-10T07:40:16Z</time>
      </trkpt>
      <trkpt lat="45.85001" lon="4.37998">
        <ele>987.4</ele>
        <time>2025-09-10T07:40:17Z</time>
      </trkpt>
      <trkpt lat="45.85002" lon="4.37999">
        <ele>987.4</ele>
        <time>2025-09-10T07:40:18Z</time>
      </trkpt>
      <trkpt lat="45.85002" lon="4.37999">
        <ele>987.4</ele>
        <time>2025-09-10T07:40:19Z</time>
      </trkpt>
      <trkpt lat="45.85003" lon="4.38">
        <ele>987.8</ele>
        <time>2025-09-10T07:40:20Z</time>
      </trkpt>
      <trkpt lat="45.85004" lon="4.38">
        <ele>987.8</ele>
        <time>2025-09-10T07:40:21Z</time>
      </trkpt>
      <trkpt lat="45.85005" lon="4.38001">
        <ele>987.8</ele>
        <time>2025-09-10T07:40:22Z</time>
      </trkpt>
      <trkpt lat="45.85005" lon="4.38002">
        <ele>988.2</ele>
        <time>2025-09-10T07:40:23Z</time>
      </trkpt>
      <trkpt lat="45.85006" lon="4.38002">
        <ele>988.2</ele>
        <time>2025-09-10T07:40:24Z</time>
      </trkpt>
      <trkpt lat="45.85007" lon="4.38002">
        <ele>988.2</ele>
        <time>2025-09-10T07:40:25Z</time>
      </trkpt>
      <trkpt lat="45.85007" lon="4.38003">
        <ele>988.2</ele>
        <time>2025-09-10T07:40:26Z</time>
      </trkpt>
      <trkpt lat="45.85007" lon="4.38003">
        <ele>988.6</ele>
        <time>2025-09-10T07:40:27Z</time>
      </trkpt>
      <trkpt lat="45.85008" lon="4.38004">
        <ele>988.6</ele>
        <time>2025-09-10T07:40:28Z</time>
      </trkpt>
      <trkpt lat="45.85009" lon="4.38004">
        <ele>988.6</ele>
        <time>2025-09-10T07:40:29Z</time>
      </trkpt>
      <trkpt lat="45.85009" lon="4.38005">
        <ele>988.8</ele>
        <time>2025-09-10T07:40:30Z</time>
      </trkpt>
      <trkpt lat="45.8501" lon="4.38006">
        <ele>988.8</ele>
        <time>2025-09-10T07:40:31Z</time>
      </trkpt>
      <trkpt lat="45.85011" lon="4.38006">
        <ele>989.2</ele>
        <time>2025-09-10T07:40:32Z</time>
      </trkpt>
      <trkpt lat="45.85012" lon="4.38007">
        <ele>989.2</ele>
        <time>2025-09-10T07:40:33Z</time>
      </trkpt>
      <trkpt lat="45.85013" lon="4.38007">
        <ele>989.2</ele>
        <time>2025-09-10T07:40:34Z</time>
      </trkpt>
      <trkpt lat="45.85014" lon="4.38007">
        <ele>989.4</ele>
        <time>2025-09-10T07:40:35Z</time>
      </trkpt>
      <trkpt lat="45.85015" lon="4.38008">
        <ele>989.4</ele>
        <time>2025-09-10T07:40:36Z</time>
      </trkpt>
      <trkpt lat="45.85016" lon="4.38009">
        <ele>989.8</ele>
        <time>2025-09-10T07:40:37Z</time>
      </trkpt>
      <trkpt lat="45.85016" lon="4.38009">
        <ele>989.8</ele>
        <time>2025-09-10T07:40:38Z</time>
      </trkpt>
      <trkpt lat="45.85017" lon="4.38009">
        <ele>990.2</ele>
        <time>2025-09-10T07:40:39Z</time>
      </trkpt>
      <trkpt lat="45.85019" lon="4.38009">
        <ele>990.2</ele>
        <time>2025-09-10T07:40:40Z</time>
      </trkpt>
      <trkpt lat="45.8502" lon="4.38009">
        <ele>990.4</ele>
        <time>2025-09-10T07:40:41Z</time>
      </trkpt>
      <trkpt lat="45.85021" lon="4.38011">
        <ele>990.4</ele>
        <time>2025-09-10T07:40:42Z</time>
      </trkpt>
      <trkpt lat="45.85022" lon="4.38012">
        <ele>990.6</ele>
        <time>2025-09-10T07:40:43Z</time>
      </trkpt>
      <trkpt lat="45.85024" lon="4.38014">
        <ele>990.6</ele>
        <time>2025-09-10T07:40:44Z</time>
      </trkpt>
      <trkpt lat="45.85025" lon="4.38015">
        <ele>990.6</ele>
        <time>2025-09-10T07:40:45Z</time>
      </trkpt>
      <trkpt lat="45.85025" lon="4.38014">
        <ele>991</ele>
        <time>2025-09-10T07:40:46Z</time>
      </trkpt>
      <trkpt lat="45.85025" lon="4.38014">
        <ele>991</ele>
        <time>2025-09-10T07:40:47Z</time>
      </trkpt>
      <trkpt lat="45.85026" lon="4.38014">
        <ele>991.2</ele>
        <time>2025-09-10T07:40:48Z</time>
      </trkpt>
      <trkpt lat="45.85028" lon="4.38014">
        <ele>991.2</ele>
        <time>2025-09-10T07:40:49Z</time>
      </trkpt>
      <trkpt lat="45.85029" lon="4.38014">
        <ele>991.2</ele>
        <time>2025-09-10T07:40:50Z</time>
      </trkpt>
      <trkpt lat="45.8503" lon="4.38014">
        <ele>991.6</ele>
        <time>2025-09-10T07:40:51Z</time>
      </trkpt>
      <trkpt lat="45.85031" lon="4.38015">
        <ele>991.6</ele>
        <time>2025-09-10T07:40:52Z</time>
      </trkpt>
      <trkpt lat="45.85033" lon="4.38015">
        <ele>991.8</ele>
        <time>2025-09-10T07:40:53Z</time>
      </trkpt>
      <trkpt lat="45.85034" lon="4.38015">
        <ele>991.8</ele>
        <time>2025-09-10T07:40:54Z</time>
      </trkpt>
      <trkpt lat="45.85035" lon="4.38016">
        <ele>992</ele>
        <time>2025-09-10T07:40:55Z</time>
      </trkpt>
      <trkpt lat="45.85035" lon="4.38017">
        <ele>992</ele>
        <time>2025-09-10T07:40:56Z</time>
      </trkpt>
      <trkpt lat="45.85036" lon="4.38018">
        <ele>992.2</ele>
        <time>2025-09-10T07:40:57Z</time>
      </trkpt>
      <trkpt lat="45.85037" lon="4.38019">
        <ele>992.2</ele>
        <time>2025-09-10T07:40:58Z</time>
      </trkpt>
      <trkpt lat="45.85038" lon="4.38019">
        <ele>992.2</ele>
        <time>2025-09-10T07:40:59Z</time>
      </trkpt>
      <trkpt lat="45.8504" lon="4.3802">
        <ele>992.6</ele>
        <time>2025-09-10T07:41:00Z</time>
      </trkpt>
      <trkpt lat="45.85041" lon="4.3802">
        <ele>993</ele>
        <time>2025-09-10T07:41:01Z</time>
      </trkpt>
      <trkpt lat="45.85041" lon="4.38021">
        <ele>993</ele>
        <time>2025-09-10T07:41:02Z</time>
      </trkpt>
      <trkpt lat="45.85043" lon="4.38023">
        <ele>993.2</ele>
        <time>2025-09-10T07:41:03Z</time>
      </trkpt>
      <trkpt lat="45.85044" lon="4.38023">
        <ele>993.2</ele>
        <time>2025-09-10T07:41:04Z</time>
      </trkpt>
      <trkpt lat="45.85044" lon="4.38024">
        <ele>993.4</ele>
        <time>2025-09-10T07:41:05Z</time>
      </trkpt>
      <trkpt lat="45.85046" lon="4.38025">
        <ele>993.4</ele>
        <time>2025-09-10T07:41:06Z</time>
      </trkpt>
      <trkpt lat="45.85047" lon="4.38026">
        <ele>993.4</ele>
        <time>2025-09-10T07:41:07Z</time>
      </trkpt>
      <trkpt lat="45.85048" lon="4.38027">
        <ele>993.4</ele>
        <time>2025-09-10T07:41:08Z</time>
      </trkpt>
      <trkpt lat="45.85049" lon="4.38028">
        <ele>993.8</ele>
        <time>2025-09-10T07:41:09Z</time>
      </trkpt>
      <trkpt lat="45.8505" lon="4.38029">
        <ele>993.8</ele>
        <time>2025-09-10T07:41:10Z</time>
      </trkpt>
      <trkpt lat="45.85051" lon="4.3803">
        <ele>994.2</ele>
        <time>2025-09-10T07:41:11Z</time>
      </trkpt>
      <trkpt lat="45.85052" lon="4.38031">
        <ele>994.2</ele>
        <time>2025-09-10T07:41:12Z</time>
      </trkpt>
      <trkpt lat="45.85053" lon="4.38032">
        <ele>994.4</ele>
        <time>2025-09-10T07:41:13Z</time>
      </trkpt>
      <trkpt lat="45.85054" lon="4.38033">
        <ele>994.4</ele>
        <time>2025-09-10T07:41:14Z</time>
      </trkpt>
      <trkpt lat="45.85055" lon="4.38034">
        <ele>994.4</ele>
        <time>2025-09-10T07:41:15Z</time>
      </trkpt>
      <trkpt lat="45.85056" lon="4.38036">
        <ele>994.6</ele>
        <time>2025-09-10T07:41:16Z</time>
      </trkpt>
      <trkpt lat="45.85057" lon="4.38038">
        <ele>994.6</ele>
        <time>2025-09-10T07:41:17Z</time>
      </trkpt>
      <trkpt lat="45.85057" lon="4.38039">
        <ele>994.6</ele>
        <time>2025-09-10T07:41:18Z</time>
      </trkpt>
      <trkpt lat="45.85058" lon="4.38041">
        <ele>995</ele>
        <time>2025-09-10T07:41:19Z</time>
      </trkpt>
      <trkpt lat="45.85059" lon="4.38042">
        <ele>995</ele>
        <time>2025-09-10T07:41:20Z</time>
      </trkpt>
      <trkpt lat="45.8506" lon="4.38043">
        <ele>995.2</ele>
        <time>2025-09-10T07:41:21Z</time>
      </trkpt>
      <trkpt lat="45.8506" lon="4.38045">
        <ele>995.2</ele>
        <time>2025-09-10T07:41:22Z</time>
      </trkpt>
      <trkpt lat="45.85061" lon="4.38047">
        <ele>995.4</ele>
        <time>2025-09-10T07:41:23Z</time>
      </trkpt>
      <trkpt lat="45.85062" lon="4.38048">
        <ele>995.4</ele>
        <time>2025-09-10T07:41:24Z</time>
      </trkpt>
      <trkpt lat="45.85062" lon="4.3805">
        <ele>995.4</ele>
        <time>2025-09-10T07:41:25Z</time>
      </trkpt>
      <trkpt lat="45.85063" lon="4.38052">
        <ele>995.4</ele>
        <time>2025-09-10T07:41:26Z</time>
      </trkpt>
      <trkpt lat="45.85064" lon="4.38054">
        <ele>995.8</ele>
        <time>2025-09-10T07:41:27Z</time>
      </trkpt>
      <trkpt lat="45.85065" lon="4.38055">
        <ele>995.8</ele>
        <time>2025-09-10T07:41:28Z</time>
      </trkpt>
      <trkpt lat="45.85066" lon="4.38057">
        <ele>996</ele>
        <time>2025-09-10T07:41:29Z</time>
      </trkpt>
      <trkpt lat="45.85067" lon="4.38058">
        <ele>996</ele>
        <time>2025-09-10T07:41:30Z</time>
      </trkpt>
      <trkpt lat="45.85068" lon="4.38059">
        <ele>996</ele>
        <time>2025-09-10T07:41:31Z</time>
      </trkpt>
      <trkpt lat="45.85069" lon="4.3806">
        <ele>996.2</ele>
        <time>2025-09-10T07:41:32Z</time>
      </trkpt>
      <trkpt lat="45.8507" lon="4.38061">
        <ele>996.2</ele>
        <time>2025-09-10T07:41:33Z</time>
      </trkpt>
      <trkpt lat="45.85071" lon="4.38062">
        <ele>996.2</ele>
        <time>2025-09-10T07:41:34Z</time>
      </trkpt>
      <trkpt lat="45.85072" lon="4.38063">
        <ele>996.2</ele>
        <time>2025-09-10T07:41:35Z</time>
      </trkpt>
      <trkpt lat="45.85073" lon="4.38064">
        <ele>996.2</ele>
        <time>2025-09-10T07:41:36Z</time>
      </trkpt>
      <trkpt lat="45.85074" lon="4.38065">
        <ele>996.4</ele>
        <time>2025-09-10T07:41:37Z</time>
      </trkpt>
      <trkpt lat="45.85076" lon="4.38065">
        <ele>996.4</ele>
        <time>2025-09-10T07:41:38Z</time>
      </trkpt>
      <trkpt lat="45.85077" lon="4.38065">
        <ele>996.8</ele>
        <time>2025-09-10T07:41:39Z</time>
      </trkpt>
      <trkpt lat="45.85078" lon="4.38066">
        <ele>996.8</ele>
        <time>2025-09-10T07:41:40Z</time>
      </trkpt>
      <trkpt lat="45.85079" lon="4.38067">
        <ele>996.8</ele>
        <time>2025-09-10T07:41:41Z</time>
      </trkpt>
      <trkpt lat="45.8508" lon="4.38068">
        <ele>996.8</ele>
        <time>2025-09-10T07:41:42Z</time>
      </trkpt>
      <trkpt lat="45.85081" lon="4.38069">
        <ele>997</ele>
        <time>2025-09-10T07:41:43Z</time>
      </trkpt>
      <trkpt lat="45.85083" lon="4.3807">
        <ele>997</ele>
        <time>2025-09-10T07:41:44Z</time>
      </trkpt>
      <trkpt lat="45.85084" lon="4.38071">
        <ele>997</ele>
        <time>2025-09-10T07:41:45Z</time>
      </trkpt>
      <trkpt lat="45.85086" lon="4.38071">
        <ele>997</ele>
        <time>2025-09-10T07:41:46Z</time>
      </trkpt>
      <trkpt lat="45.85087" lon="4.38072">
        <ele>997</ele>
        <time>2025-09-10T07:41:47Z</time>
      </trkpt>
      <trkpt lat="45.85089" lon="4.38072">
        <ele>997.4</ele>
        <time>2025-09-10T07:41:48Z</time>
      </trkpt>
      <trkpt lat="45.8509" lon="4.38073">
        <ele>997.4</ele>
        <time>2025-09-10T07:41:49Z</time>
      </trkpt>
      <trkpt lat="45.85092" lon="4.38073">
        <ele>997.6</ele>
        <time>2025-09-10T07:41:50Z</time>
      </trkpt>
      <trkpt lat="45.85093" lon="4.38073">
        <ele>997.6</ele>
        <time>2025-09-10T07:41:51Z</time>
      </trkpt>
      <trkpt lat="45.85095" lon="4.38073">
        <ele>998</ele>
        <time>2025-09-10T07:41:52Z</time>
      </trkpt>
      <trkpt lat="45.85096" lon="4.38074">
        <ele>998</ele>
        <time>2025-09-10T07:41:53Z</time>
      </trkpt>
      <trkpt lat="45.85098" lon="4.38074">
        <ele>998</ele>
        <time>2025-09-10T07:41:54Z</time>
      </trkpt>
      <trkpt lat="45.85099" lon="4.38075">
        <ele>998</ele>
        <time>2025-09-10T07:41:55Z</time>
      </trkpt>
      <trkpt lat="45.85101" lon="4.38076">
        <ele>998</ele>
        <time>2025-09-10T07:41:56Z</time>
      </trkpt>
      <trkpt lat="45.85103" lon="4.38077">
        <ele>998</ele>
        <time>2025-09-10T07:41:57Z</time>
      </trkpt>
      <trkpt lat="45.85104" lon="4.38078">
        <ele>998.4</ele>
        <time>2025-09-10T07:41:58Z</time>
      </trkpt>
      <trkpt lat="45.85106" lon="4.38079">
        <ele>998.4</ele>
        <time>2025-09-10T07:41:59Z</time>
      </trkpt>
      <trkpt lat="45.85106" lon="4.38079">
        <ele>998.6</ele>
        <time>2025-09-10T07:42:00Z</time>
      </trkpt>
      <trkpt lat="45.85107" lon="4.3808">
        <ele>998.8</ele>
        <time>2025-09-10T07:42:01Z</time>
      </trkpt>
      <trkpt lat="45.85108" lon="4.38081">
        <ele>998.8</ele>
        <time>2025-09-10T07:42:02Z</time>
      </trkpt>
      <trkpt lat="45.85109" lon="4.38083">
        <ele>999</ele>
        <time>2025-09-10T07:42:03Z</time>
      </trkpt>
      <trkpt lat="45.8511" lon="4.38084">
        <ele>999</ele>
        <time>2025-09-10T07:42:04Z</time>
      </trkpt>
      <trkpt lat="45.8511" lon="4.38084">
        <ele>999</ele>
        <time>2025-09-10T07:42:05Z</time>
      </trkpt>
      <trkpt lat="45.8511" lon="4.38084">
        <ele>999</ele>
        <time>2025-09-10T07:42:06Z</time>
      </trkpt>
      <trkpt lat="45.85107" lon="4.38082">
        <ele>999.4</ele>
        <time>2025-09-10T07:42:35Z</time>
      </trkpt>
      <trkpt lat="45.85107" lon="4.38081">
        <ele>999.4</ele>
        <time>2025-09-10T07:42:36Z</time>
      </trkpt>
      <trkpt lat="45.85107" lon="4.3808">
        <ele>999.4</ele>
        <time>2025-09-10T07:42:37Z</time>
      </trkpt>
      <trkpt lat="45.85107" lon="4.38079">
        <ele>999.4</ele>
        <time>2025-09-10T07:42:38Z</time>
      </trkpt>
      <trkpt lat="45.85108" lon="4.38078">
        <ele>999.4</ele>
        <time>2025-09-10T07:42:39Z</time>
      </trkpt>
      <trkpt lat="45.85108" lon="4.38077">
        <ele>999.4</ele>
        <time>2025-09-10T07:42:40Z</time>
      </trkpt>
      <trkpt lat="45.85109" lon="4.38076">
        <ele>999.4</ele>
        <time>2025-09-10T07:42:41Z</time>
      </trkpt>
      <trkpt lat="45.85109" lon="4.38076">
        <ele>999.4</ele>
        <time>2025-09-10T07:42:42Z</time>
      </trkpt>
      <trkpt lat="45.85109" lon="4.38076">
        <ele>999.4</ele>
        <time>2025-09-10T07:42:43Z</time>
      </trkpt>
      <trkpt lat="45.8511" lon="4.38075">
        <ele>999.4</ele>
        <time>2025-09-10T07:42:47Z</time>
      </trkpt>
      <trkpt lat="45.8511" lon="4.38075">
        <ele>999.4</ele>
        <time>2025-09-10T07:42:48Z</time>
      </trkpt>
      <trkpt lat="45.8511" lon="4.38074">
        <ele>999.4</ele>
        <time>2025-09-10T07:42:49Z</time>
      </trkpt>
      <trkpt lat="45.8511" lon="4.38074">
        <ele>999.4</ele>
        <time>2025-09-10T07:42:50Z</time>
      </trkpt>
      <trkpt lat="45.85043" lon="4.38023">
        <ele>998.6</ele>
        <time>2025-09-10T08:05:19Z</time>
      </trkpt>
      <trkpt lat="45.85042" lon="4.38022">
        <ele>997.4</ele>
        <time>2025-09-10T08:05:20Z</time>
      </trkpt>
      <trkpt lat="45.85042" lon="4.3802">
        <ele>997.8</ele>
        <time>2025-09-10T08:05:21Z</time>
      </trkpt>
      <trkpt lat="45.85041" lon="4.38018">
        <ele>997.8</ele>
        <time>2025-09-10T08:05:22Z</time>
      </trkpt>
      <trkpt lat="45.85039" lon="4.38017">
        <ele>997.8</ele>
        <time>2025-09-10T08:05:23Z</time>
      </trkpt>
      <trkpt lat="45.85037" lon="4.38017">
        <ele>997.8</ele>
        <time>2025-09-10T08:05:24Z</time>
      </trkpt>
      <trkpt lat="45.85034" lon="4.38015">
        <ele>997.6</ele>
        <time>2025-09-10T08:05:25Z</time>
      </trkpt>
      <trkpt lat="45.85031" lon="4.38014">
        <ele>997.6</ele>
        <time>2025-09-10T08:05:26Z</time>
      </trkpt>
      <trkpt lat="45.85027" lon="4.38013">
        <ele>997.2</ele>
        <time>2025-09-10T08:05:27Z</time>
      </trkpt>
      <trkpt lat="45.85023" lon="4.38013">
        <ele>997</ele>
        <time>2025-09-10T08:05:28Z</time>
      </trkpt>
      <trkpt lat="45.8502" lon="4.38012">
        <ele>996.6</ele>
        <time>2025-09-10T08:05:29Z</time>
      </trkpt>
      <trkpt lat="45.85016" lon="4.38011">
        <ele>996.6</ele>
        <time>2025-09-10T08:05:30Z</time>
      </trkpt>
      <trkpt lat="45.85012" lon="4.38009">
        <ele>996.4</ele>
        <time>2025-09-10T08:05:31Z</time>
      </trkpt>
      <trkpt lat="45.85009" lon="4.38008">
        <ele>996</ele>
        <time>2025-09-10T08:05:32Z</time>
      </trkpt>
      <trkpt lat="45.85006" lon="4.38006">
        <ele>995.4</ele>
        <time>2025-09-10T08:05:33Z</time>
      </trkpt>
      <trkpt lat="45.85002" lon="4.38004">
        <ele>994.8</ele>
        <time>2025-09-10T08:05:34Z</time>
      </trkpt>
      <trkpt lat="45.84998" lon="4.38">
        <ele>994.4</ele>
        <time>2025-09-10T08:05:35Z</time>
      </trkpt>
      <trkpt lat="45.84994" lon="4.37997">
        <ele>994</ele>
        <time>2025-09-10T08:05:36Z</time>
      </trkpt>
      <trkpt lat="45.8499" lon="4.37993">
        <ele>993.6</ele>
        <time>2025-09-10T08:05:37Z</time>
      </trkpt>
      <trkpt lat="45.84986" lon="4.3799">
        <ele>993</ele>
        <time>2025-09-10T08:05:38Z</time>
      </trkpt>
      <trkpt lat="45.84981" lon="4.37986">
        <ele>992.6</ele>
        <time>2025-09-10T08:05:39Z</time>
      </trkpt>
      <trkpt lat="45.84977" lon="4.37983">
        <ele>992</ele>
        <time>2025-09-10T08:05:40Z</time>
      </trkpt>
      <trkpt lat="45.84973" lon="4.37978">
        <ele>991.4</ele>
        <time>2025-09-10T08:05:41Z</time>
      </trkpt>
      <trkpt lat="45.8497" lon="4.37975">
        <ele>991</ele>
        <time>2025-09-10T08:05:42Z</time>
      </trkpt>
      <trkpt lat="45.84967" lon="4.3797">
        <ele>990.6</ele>
        <time>2025-09-10T08:05:43Z</time>
      </trkpt>
      <trkpt lat="45.84964" lon="4.37965">
        <ele>989.8</ele>
        <time>2025-09-10T08:05:44Z</time>
      </trkpt>
      <trkpt lat="45.84962" lon="4.37961">
        <ele>989.6</ele>
        <time>2025-09-10T08:05:45Z</time>
      </trkpt>
      <trkpt lat="45.84958" lon="4.37956">
        <ele>988.6</ele>
        <time>2025-09-10T08:05:46Z</time>
      </trkpt>
      <trkpt lat="45.84956" lon="4.37949">
        <ele>987.8</ele>
        <time>2025-09-10T08:05:47Z</time>
      </trkpt>
      <trkpt lat="45.84955" lon="4.37943">
        <ele>987.2</ele>
        <time>2025-09-10T08:05:48Z</time>
      </trkpt>
      <trkpt lat="45.84953" lon="4.37937">
        <ele>986.4</ele>
        <time>2025-09-10T08:05:49Z</time>
      </trkpt>
      <trkpt lat="45.84952" lon="4.37932">
        <ele>985.8</ele>
        <time>2025-09-10T08:05:50Z</time>
      </trkpt>
      <trkpt lat="45.84949" lon="4.37925">
        <ele>985.2</ele>
        <time>2025-09-10T08:05:51Z</time>
      </trkpt>
      <trkpt lat="45.84946" lon="4.3792">
        <ele>984.6</ele>
        <time>2025-09-10T08:05:52Z</time>
      </trkpt>
      <trkpt lat="45.84944" lon="4.37914">
        <ele>984</ele>
        <time>2025-09-10T08:05:53Z</time>
      </trkpt>
      <trkpt lat="45.84942" lon="4.3791">
        <ele>983.8</ele>
        <time>2025-09-10T08:05:54Z</time>
      </trkpt>
      <trkpt lat="45.8494" lon="4.37905">
        <ele>983.4</ele>
        <time>2025-09-10T08:05:55Z</time>
      </trkpt>
      <trkpt lat="45.84939" lon="4.37904">
        <ele>982.8</ele>
        <time>2025-09-10T08:05:56Z</time>
      </trkpt>
      <trkpt lat="45.84937" lon="4.37903">
        <ele>982.4</ele>
        <time>2025-09-10T08:05:57Z</time>
      </trkpt>
      <trkpt lat="45.84936" lon="4.37899">
        <ele>982.2</ele>
        <time>2025-09-10T08:05:58Z</time>
      </trkpt>
      <trkpt lat="45.84937" lon="4.37894">
        <ele>981.8</ele>
        <time>2025-09-10T08:05:59Z</time>
      </trkpt>
      <trkpt lat="45.84936" lon="4.37893">
        <ele>981.8</ele>
        <time>2025-09-10T08:06:00Z</time>
      </trkpt>
      <trkpt lat="45.84936" lon="4.3789">
        <ele>981.4</ele>
        <time>2025-09-10T08:06:01Z</time>
      </trkpt>
      <trkpt lat="45.84934" lon="4.37888">
        <ele>980.8</ele>
        <time>2025-09-10T08:06:02Z</time>
      </trkpt>
      <trkpt lat="45.84933" lon="4.37886">
        <ele>980.6</ele>
        <time>2025-09-10T08:06:03Z</time>
      </trkpt>
      <trkpt lat="45.84931" lon="4.37884">
        <ele>980.6</ele>
        <time>2025-09-10T08:06:04Z</time>
      </trkpt>
      <trkpt lat="45.8493" lon="4.37882">
        <ele>980.4</ele>
        <time>2025-09-10T08:06:05Z</time>
      </trkpt>
      <trkpt lat="45.84929" lon="4.37881">
        <ele>980.4</ele>
        <time>2025-09-10T08:06:06Z</time>
      </trkpt>
      <trkpt lat="45.84928" lon="4.3788">
        <ele>980</ele>
        <time>2025-09-10T08:06:07Z</time>
      </trkpt>
      <trkpt lat="45.84928" lon="4.3788">
        <ele>980</ele>
        <time>2025-09-10T08:06:08Z</time>
      </trkpt>
      <trkpt lat="45.84929" lon="4.3788">
        <ele>979.6</ele>
        <time>2025-09-10T08:06:09Z</time>
      </trkpt>
      <trkpt lat="45.84931" lon="4.3788">
        <ele>979.6</ele>
        <time>2025-09-10T08:07:18Z</time>
      </trkpt>
      <trkpt lat="45.8493" lon="4.37877">
        <ele>979.6</ele>
        <time>2025-09-10T08:07:19Z</time>
      </trkpt>
      <trkpt lat="45.84929" lon="4.37874">
        <ele>979.2</ele>
        <time>2025-09-10T08:07:20Z</time>
      </trkpt>
      <trkpt lat="45.84928" lon="4.37871">
        <ele>979</ele>
        <time>2025-09-10T08:07:21Z</time>
      </trkpt>
      <trkpt lat="45.84926" lon="4.37867">
        <ele>978.8</ele>
        <time>2025-09-10T08:07:22Z</time>
      </trkpt>
      <trkpt lat="45.84923" lon="4.37862">
        <ele>978.8</ele>
        <time>2025-09-10T08:07:23Z</time>
      </trkpt>
      <trkpt lat="45.8492" lon="4.37857">
        <ele>978.2</ele>
        <time>2025-09-10T08:07:24Z</time>
      </trkpt>
      <trkpt lat="45.84918" lon="4.37852">
        <ele>978</ele>
        <time>2025-09-10T08:07:25Z</time>
      </trkpt>
      <trkpt lat="45.84915" lon="4.37848">
        <ele>977.4</ele>
        <time>2025-09-10T08:07:26Z</time>
      </trkpt>
      <trkpt lat="45.84913" lon="4.37843">
        <ele>977</ele>
        <time>2025-09-10T08:07:27Z</time>
      </trkpt>
      <trkpt lat="45.84911" lon="4.3784">
        <ele>976.8</ele>
        <time>2025-09-10T08:07:28Z</time>
      </trkpt>
      <trkpt lat="45.84909" lon="4.37837">
        <ele>976.4</ele>
        <time>2025-09-10T08:07:29Z</time>
      </trkpt>
      <trkpt lat="45.84908" lon="4.37835">
        <ele>976</ele>
        <time>2025-09-10T08:07:30Z</time>
      </trkpt>
      <trkpt lat="45.84907" lon="4.37833">
        <ele>975.6</ele>
        <time>2025-09-10T08:07:31Z</time>
      </trkpt>
      <trkpt lat="45.84906" lon="4.37832">
        <ele>975.2</ele>
        <time>2025-09-10T08:07:32Z</time>
      </trkpt>
      <trkpt lat="45.84905" lon="4.3783">
        <ele>975</ele>
        <time>2025-09-10T08:07:33Z</time>
      </trkpt>
      <trkpt lat="45.84905" lon="4.37828">
        <ele>974.8</ele>
        <time>2025-09-10T08:07:34Z</time>
      </trkpt>
      <trkpt lat="45.84905" lon="4.37826">
        <ele>974.4</ele>
        <time>2025-09-10T08:07:35Z</time>
      </trkpt>
      <trkpt lat="45.84905" lon="4.37825">
        <ele>974.2</ele>
        <time>2025-09-10T08:07:36Z</time>
      </trkpt>
      <trkpt lat="45.84904" lon="4.37824">
        <ele>974.2</ele>
        <time>2025-09-10T08:07:37Z</time>
      </trkpt>
      <trkpt lat="45.84904" lon="4.37823">
        <ele>974</ele>
        <time>2025-09-10T08:07:38Z</time>
      </trkpt>
      <trkpt lat="45.84903" lon="4.37821">
        <ele>973.8</ele>
        <time>2025-09-10T08:07:39Z</time>
      </trkpt>
      <trkpt lat="45.84903" lon="4.3782">
        <ele>973.8</ele>
        <time>2025-09-10T08:07:40Z</time>
      </trkpt>
      <trkpt lat="45.84902" lon="4.3782">
        <ele>973.8</ele>
        <time>2025-09-10T08:07:41Z</time>
      </trkpt>
      <trkpt lat="45.84902" lon="4.3782">
        <ele>973.4</ele>
        <time>2025-09-10T08:07:42Z</time>
      </trkpt>
      <trkpt lat="45.849" lon="4.37818">
        <ele>972.6</ele>
        <time>2025-09-10T08:08:00Z</time>
      </trkpt>
      <trkpt lat="45.84899" lon="4.37817">
        <ele>972.6</ele>
        <time>2025-09-10T08:08:01Z</time>
      </trkpt>
      <trkpt lat="45.84898" lon="4.37816">
        <ele>972.4</ele>
        <time>2025-09-10T08:08:02Z</time>
      </trkpt>
      <trkpt lat="45.84895" lon="4.37813">
        <ele>972.4</ele>
        <time>2025-09-10T08:08:03Z</time>
      </trkpt>
      <trkpt lat="45.84893" lon="4.37809">
        <ele>972</ele>
        <time>2025-09-10T08:08:04Z</time>
      </trkpt>
      <trkpt lat="45.84892" lon="4.37806">
        <ele>971.8</ele>
        <time>2025-09-10T08:08:05Z</time>
      </trkpt>
      <trkpt lat="45.84893" lon="4.37798">
        <ele>971.4</ele>
        <time>2025-09-10T08:08:06Z</time>
      </trkpt>
      <trkpt lat="45.84891" lon="4.37793">
        <ele>971</ele>
        <time>2025-09-10T08:08:07Z</time>
      </trkpt>
      <trkpt lat="45.84889" lon="4.37789">
        <ele>970.6</ele>
        <time>2025-09-10T08:08:08Z</time>
      </trkpt>
      <trkpt lat="45.84886" lon="4.37785">
        <ele>970.2</ele>
        <time>2025-09-10T08:08:09Z</time>
      </trkpt>
      <trkpt lat="45.84885" lon="4.37781">
        <ele>969.8</ele>
        <time>2025-09-10T08:08:10Z</time>
      </trkpt>
      <trkpt lat="45.84883" lon="4.37778">
        <ele>969.4</ele>
        <time>2025-09-10T08:08:11Z</time>
      </trkpt>
      <trkpt lat="45.8488" lon="4.37776">
        <ele>969.2</ele>
        <time>2025-09-10T08:08:12Z</time>
      </trkpt>
      <trkpt lat="45.84876" lon="4.37778">
        <ele>968.8</ele>
        <time>2025-09-10T08:08:13Z</time>
      </trkpt>
      <trkpt lat="45.84877" lon="4.37778">
        <ele>968.6</ele>
        <time>2025-09-10T08:08:14Z</time>
      </trkpt>
      <trkpt lat="45.84876" lon="4.37781">
        <ele>968.2</ele>
        <time>2025-09-10T08:08:15Z</time>
      </trkpt>
      <trkpt lat="45.84873" lon="4.37783">
        <ele>967.8</ele>
        <time>2025-09-10T08:08:16Z</time>
      </trkpt>
      <trkpt lat="45.8487" lon="4.37786">
        <ele>967.4</ele>
        <time>2025-09-10T08:08:17Z</time>
      </trkpt>
      <trkpt lat="45.84867" lon="4.37789">
        <ele>967</ele>
        <time>2025-09-10T08:08:18Z</time>
      </trkpt>
      <trkpt lat="45.84868" lon="4.3779">
        <ele>966.8</ele>
        <time>2025-09-10T08:08:19Z</time>
      </trkpt>
      <trkpt lat="45.84867" lon="4.37794">
        <ele>966.4</ele>
        <time>2025-09-10T08:08:20Z</time>
      </trkpt>
      <trkpt lat="45.84865" lon="4.37797">
        <ele>966.2</ele>
        <time>2025-09-10T08:08:21Z</time>
      </trkpt>
      <trkpt lat="45.84861" lon="4.37801">
        <ele>966</ele>
        <time>2025-09-10T08:08:22Z</time>
      </trkpt>
      <trkpt lat="45.84861" lon="4.37809">
        <ele>966</ele>
        <time>2025-09-10T08:08:23Z</time>
      </trkpt>
      <trkpt lat="45.8486" lon="4.37814">
        <ele>966</ele>
        <time>2025-09-10T08:08:24Z</time>
      </trkpt>
      <trkpt lat="45.84858" lon="4.37819">
        <ele>965.8</ele>
        <time>2025-09-10T08:08:25Z</time>
      </trkpt>
      <trkpt lat="45.84856" lon="4.37824">
        <ele>965.2</ele>
        <time>2025-09-10T08:08:26Z</time>
      </trkpt>
      <trkpt lat="45.84855" lon="4.37829">
        <ele>964.8</ele>
        <time>2025-09-10T08:08:27Z</time>
      </trkpt>
      <trkpt lat="45.84853" lon="4.37832">
        <ele>964.4</ele>
        <time>2025-09-10T08:08:28Z</time>
      </trkpt>
      <trkpt lat="45.8485" lon="4.37837">
        <ele>964.2</ele>
        <time>2025-09-10T08:08:29Z</time>
      </trkpt>
      <trkpt lat="45.84849" lon="4.37843">
        <ele>964</ele>
        <time>2025-09-10T08:08:30Z</time>
      </trkpt>
      <trkpt lat="45.84847" lon="4.37848">
        <ele>964</ele>
        <time>2025-09-10T08:08:31Z</time>
      </trkpt>
      <trkpt lat="45.84844" lon="4.37853">
        <ele>963.8</ele>
        <time>2025-09-10T08:08:32Z</time>
      </trkpt>
      <trkpt lat="45.84843" lon="4.37856">
        <ele>963.4</ele>
        <time>2025-09-10T08:08:33Z</time>
      </trkpt>
      <trkpt lat="45.84841" lon="4.3786">
        <ele>963.4</ele>
        <time>2025-09-10T08:08:34Z</time>
      </trkpt>
      <trkpt lat="45.84839" lon="4.37867">
        <ele>963</ele>
        <time>2025-09-10T08:08:35Z</time>
      </trkpt>
      <trkpt lat="45.84838" lon="4.37873">
        <ele>963.4</ele>
        <time>2025-09-10T08:08:36Z</time>
      </trkpt>
      <trkpt lat="45.84835" lon="4.37878">
        <ele>963.4</ele>
        <time>2025-09-10T08:08:37Z</time>
      </trkpt>
      <trkpt lat="45.84834" lon="4.37883">
        <ele>963.2</ele>
        <time>2025-09-10T08:08:38Z</time>
      </trkpt>
      <trkpt lat="45.84831" lon="4.37888">
        <ele>963</ele>
        <time>2025-09-10T08:08:39Z</time>
      </trkpt>
      <trkpt lat="45.84828" lon="4.37893">
        <ele>963</ele>
        <time>2025-09-10T08:08:40Z</time>
      </trkpt>
      <trkpt lat="45.84826" lon="4.37899">
        <ele>962.6</ele>
        <time>2025-09-10T08:08:41Z</time>
      </trkpt>
      <trkpt lat="45.84824" lon="4.37904">
        <ele>962.6</ele>
        <time>2025-09-10T08:08:42Z</time>
      </trkpt>
      <trkpt lat="45.84822" lon="4.37909">
        <ele>962.2</ele>
        <time>2025-09-10T08:08:43Z</time>
      </trkpt>
      <trkpt lat="45.84819" lon="4.37918">
        <ele>962.2</ele>
        <time>2025-09-10T08:08:44Z</time>
      </trkpt>
      <trkpt lat="45.84818" lon="4.37923">
        <ele>962.2</ele>
        <time>2025-09-10T08:08:45Z</time>
      </trkpt>
      <trkpt lat="45.84815" lon="4.37925">
        <ele>962</ele>
        <time>2025-09-10T08:08:46Z</time>
      </trkpt>
      <trkpt lat="45.84815" lon="4.37935">
        <ele>961.4</ele>
        <time>2025-09-10T08:08:47Z</time>
      </trkpt>
      <trkpt lat="45.84814" lon="4.37942">
        <ele>961.4</ele>
        <time>2025-09-10T08:08:48Z</time>
      </trkpt>
      <trkpt lat="45.84814" lon="4.37948">
        <ele>961.2</ele>
        <time>2025-09-10T08:08:49Z</time>
      </trkpt>
      <trkpt lat="45.84813" lon="4.37954">
        <ele>960.8</ele>
        <time>2025-09-10T08:08:50Z</time>
      </trkpt>
      <trkpt lat="45.84813" lon="4.3796">
        <ele>960.8</ele>
        <time>2025-09-10T08:08:51Z</time>
      </trkpt>
      <trkpt lat="45.84812" lon="4.37965">
        <ele>960.2</ele>
        <time>2025-09-10T08:08:52Z</time>
      </trkpt>
      <trkpt lat="45.84809" lon="4.37969">
        <ele>960.2</ele>
        <time>2025-09-10T08:08:53Z</time>
      </trkpt>
      <trkpt lat="45.84807" lon="4.37974">
        <ele>959.8</ele>
        <time>2025-09-10T08:08:54Z</time>
      </trkpt>
      <trkpt lat="45.84807" lon="4.3798">
        <ele>959.4</ele>
        <time>2025-09-10T08:08:55Z</time>
      </trkpt>
      <trkpt lat="45.84805" lon="4.37986">
        <ele>959.4</ele>
        <time>2025-09-10T08:08:56Z</time>
      </trkpt>
      <trkpt lat="45.84804" lon="4.37992">
        <ele>959</ele>
        <time>2025-09-10T08:08:57Z</time>
      </trkpt>
      <trkpt lat="45.84803" lon="4.37998">
        <ele>959</ele>
        <time>2025-09-10T08:08:58Z</time>
      </trkpt>
      <trkpt lat="45.84802" lon="4.38004">
        <ele>958.6</ele>
        <time>2025-09-10T08:08:59Z</time>
      </trkpt>
      <trkpt lat="45.848" lon="4.3801">
        <ele>958.6</ele>
        <time>2025-09-10T08:09:00Z</time>
      </trkpt>
      <trkpt lat="45.84799" lon="4.38016">
        <ele>958.2</ele>
        <time>2025-09-10T08:09:01Z</time>
      </trkpt>
      <trkpt lat="45.84798" lon="4.38023">
        <ele>958.2</ele>
        <time>2025-09-10T08:09:02Z</time>
      </trkpt>
      <trkpt lat="45.84797" lon="4.38029">
        <ele>958.2</ele>
        <time>2025-09-10T08:09:03Z</time>
      </trkpt>
      <trkpt lat="45.84798" lon="4.38036">
        <ele>957.8</ele>
        <time>2025-09-10T08:09:04Z</time>
      </trkpt>
      <trkpt lat="45.84797" lon="4.38042">
        <ele>957.8</ele>
        <time>2025-09-10T08:09:05Z</time>
      </trkpt>
      <trkpt lat="45.84796" lon="4.3805">
        <ele>957.4</ele>
        <time>2025-09-10T08:09:06Z</time>
      </trkpt>
      <trkpt lat="45.84796" lon="4.38056">
        <ele>957.4</ele>
        <time>2025-09-10T08:09:07Z</time>
      </trkpt>
      <trkpt lat="45.84794" lon="4.38069">
        <ele>957</ele>
        <time>2025-09-10T08:09:08Z</time>
      </trkpt>
      <trkpt lat="45.84793" lon="4.38077">
        <ele>956.6</ele>
        <time>2025-09-10T08:09:09Z</time>
      </trkpt>
      <trkpt lat="45.84793" lon="4.38084">
        <ele>956.2</ele>
        <time>2025-09-10T08:09:10Z</time>
      </trkpt>
      <trkpt lat="45.84793" lon="4.38091">
        <ele>956</ele>
        <time>2025-09-10T08:09:11Z</time>
      </trkpt>
      <trkpt lat="45.84791" lon="4.38097">
        <ele>956</ele>
        <time>2025-09-10T08:09:12Z</time>
      </trkpt>
      <trkpt lat="45.84791" lon="4.38103">
        <ele>955.8</ele>
        <time>2025-09-10T08:09:13Z</time>
      </trkpt>
      <trkpt lat="45.8479" lon="4.38107">
        <ele>954.8</ele>
        <time>2025-09-10T08:09:14Z</time>
      </trkpt>
      <trkpt lat="45.84791" lon="4.38116">
        <ele>954.6</ele>
        <time>2025-09-10T08:09:15Z</time>
      </trkpt>
      <trkpt lat="45.84791" lon="4.38122">
        <ele>954.4</ele>
        <time>2025-09-10T08:09:16Z</time>
      </trkpt>
      <trkpt lat="45.84791" lon="4.38127">
        <ele>954.4</ele>
        <time>2025-09-10T08:09:17Z</time>
      </trkpt>
      <trkpt lat="45.8479" lon="4.38128">
        <ele>954</ele>
        <time>2025-09-10T08:09:18Z</time>
      </trkpt>
      <trkpt lat="45.8479" lon="4.38131">
        <ele>954</ele>
        <time>2025-09-10T08:09:19Z</time>
      </trkpt>
      <trkpt lat="45.8479" lon="4.38134">
        <ele>953.8</ele>
        <time>2025-09-10T08:09:20Z</time>
      </trkpt>
      <trkpt lat="45.84791" lon="4.38135">
        <ele>953.8</ele>
        <time>2025-09-10T08:09:21Z</time>
      </trkpt>
      <trkpt lat="45.84791" lon="4.38137">
        <ele>953.8</ele>
        <time>2025-09-10T08:09:22Z</time>
      </trkpt>
      <trkpt lat="45.84791" lon="4.38137">
        <ele>953.8</ele>
        <time>2025-09-10T08:09:23Z</time>
      </trkpt>
      <trkpt lat="45.84792" lon="4.38145">
        <ele>953.4</ele>
        <time>2025-09-10T08:09:31Z</time>
      </trkpt>
      <trkpt lat="45.84792" lon="4.38145">
        <ele>953.4</ele>
        <time>2025-09-10T08:09:32Z</time>
      </trkpt>
      <trkpt lat="45.84793" lon="4.38147">
        <ele>953.4</ele>
        <time>2025-09-10T08:09:33Z</time>
      </trkpt>
      <trkpt lat="45.84792" lon="4.38149">
        <ele>953.4</ele>
        <time>2025-09-10T08:09:34Z</time>
      </trkpt>
      <trkpt lat="45.84791" lon="4.38152">
        <ele>953.4</ele>
        <time>2025-09-10T08:09:35Z</time>
      </trkpt>
      <trkpt lat="45.84791" lon="4.38155">
        <ele>953.4</ele>
        <time>2025-09-10T08:09:36Z</time>
      </trkpt>
      <trkpt lat="45.84791" lon="4.38159">
        <ele>953.4</ele>
        <time>2025-09-10T08:09:37Z</time>
      </trkpt>
      <trkpt lat="45.84791" lon="4.38163">
        <ele>953.2</ele>
        <time>2025-09-10T08:09:38Z</time>
      </trkpt>
      <trkpt lat="45.84793" lon="4.38171">
        <ele>953.2</ele>
        <time>2025-09-10T08:09:39Z</time>
      </trkpt>
      <trkpt lat="45.84794" lon="4.38177">
        <ele>953.2</ele>
        <time>2025-09-10T08:09:40Z</time>
      </trkpt>
      <trkpt lat="45.84794" lon="4.38184">
        <ele>952.8</ele>
        <time>2025-09-10T08:09:41Z</time>
      </trkpt>
      <trkpt lat="45.84795" lon="4.38191">
        <ele>952.8</ele>
        <time>2025-09-10T08:09:42Z</time>
      </trkpt>
      <trkpt lat="45.84796" lon="4.38198">
        <ele>952.6</ele>
        <time>2025-09-10T08:09:43Z</time>
      </trkpt>
      <trkpt lat="45.84798" lon="4.38204">
        <ele>953</ele>
        <time>2025-09-10T08:09:44Z</time>
      </trkpt>
      <trkpt lat="45.84798" lon="4.38211">
        <ele>952.2</ele>
        <time>2025-09-10T08:09:45Z</time>
      </trkpt>
      <trkpt lat="45.84801" lon="4.38217">
        <ele>951.8</ele>
        <time>2025-09-10T08:09:46Z</time>
      </trkpt>
      <trkpt lat="45.84801" lon="4.38224">
        <ele>951.8</ele>
        <time>2025-09-10T08:09:47Z</time>
      </trkpt>
      <trkpt lat="45.84802" lon="4.38231">
        <ele>951.8</ele>
        <time>2025-09-10T08:09:48Z</time>
      </trkpt>
      <trkpt lat="45.84803" lon="4.38237">
        <ele>951.8</ele>
        <time>2025-09-10T08:09:49Z</time>
      </trkpt>
      <trkpt lat="45.84804" lon="4.38244">
        <ele>951.6</ele>
        <time>2025-09-10T08:09:50Z</time>
      </trkpt>
      <trkpt lat="45.84805" lon="4.3825">
        <ele>951.6</ele>
        <time>2025-09-10T08:09:51Z</time>
      </trkpt>
      <trkpt lat="45.84807" lon="4.38258">
        <ele>951.6</ele>
        <time>2025-09-10T08:09:52Z</time>
      </trkpt>
      <trkpt lat="45.84807" lon="4.38266">
        <ele>951.4</ele>
        <time>2025-09-10T08:09:53Z</time>
      </trkpt>
      <trkpt lat="45.84809" lon="4.38273">
        <ele>951.4</ele>
        <time>2025-09-10T08:09:54Z</time>
      </trkpt>
      <trkpt lat="45.84812" lon="4.3828">
        <ele>951.4</ele>
        <time>2025-09-10T08:09:55Z</time>
      </trkpt>
      <trkpt lat="45.84813" lon="4.38287">
        <ele>951.4</ele>
        <time>2025-09-10T08:09:56Z</time>
      </trkpt>
      <trkpt lat="45.84813" lon="4.38293">
        <ele>951.6</ele>
        <time>2025-09-10T08:09:57Z</time>
      </trkpt>
      <trkpt lat="45.84814" lon="4.38299">
        <ele>951.8</ele>
        <time>2025-09-10T08:09:58Z</time>
      </trkpt>
      <trkpt lat="45.84814" lon="4.38305">
        <ele>951.6</ele>
        <time>2025-09-10T08:09:59Z</time>
      </trkpt>
      <trkpt lat="45.84816" lon="4.38311">
        <ele>951.6</ele>
        <time>2025-09-10T08:10:00Z</time>
      </trkpt>
      <trkpt lat="45.84817" lon="4.38319">
        <ele>951.2</ele>
        <time>2025-09-10T08:10:01Z</time>
      </trkpt>
      <trkpt lat="45.84814" lon="4.38327">
        <ele>951.2</ele>
        <time>2025-09-10T08:10:02Z</time>
      </trkpt>
      <trkpt lat="45.84815" lon="4.38335">
        <ele>951.2</ele>
        <time>2025-09-10T08:10:03Z</time>
      </trkpt>
      <trkpt lat="45.84813" lon="4.3834">
        <ele>950.8</ele>
        <time>2025-09-10T08:10:04Z</time>
      </trkpt>
      <trkpt lat="45.84813" lon="4.38347">
        <ele>950.8</ele>
        <time>2025-09-10T08:10:05Z</time>
      </trkpt>
      <trkpt lat="45.84811" lon="4.38355">
        <ele>950.8</ele>
        <time>2025-09-10T08:10:06Z</time>
      </trkpt>
      <trkpt lat="45.84812" lon="4.3836">
        <ele>951.4</ele>
        <time>2025-09-10T08:10:07Z</time>
      </trkpt>
      <trkpt lat="45.84812" lon="4.38361">
        <ele>951.4</ele>
        <time>2025-09-10T08:10:08Z</time>
      </trkpt>
      <trkpt lat="45.8481" lon="4.38364">
        <ele>951.4</ele>
        <time>2025-09-10T08:10:09Z</time>
      </trkpt>
      <trkpt lat="45.84811" lon="4.38369">
        <ele>951</ele>
        <time>2025-09-10T08:10:10Z</time>
      </trkpt>
      <trkpt lat="45.8481" lon="4.38375">
        <ele>951</ele>
        <time>2025-09-10T08:10:11Z</time>
      </trkpt>
      <trkpt lat="45.84809" lon="4.38379">
        <ele>951</ele>
        <time>2025-09-10T08:10:12Z</time>
      </trkpt>
      <trkpt lat="45.84806" lon="4.38382">
        <ele>951</ele>
        <time>2025-09-10T08:10:13Z</time>
      </trkpt>
      <trkpt lat="45.84807" lon="4.38384">
        <ele>951</ele>
        <time>2025-09-10T08:10:14Z</time>
      </trkpt>
      <trkpt lat="45.84806" lon="4.38386">
        <ele>951.4</ele>
        <time>2025-09-10T08:10:15Z</time>
      </trkpt>
      <trkpt lat="45.84805" lon="4.38389">
        <ele>951</ele>
        <time>2025-09-10T08:10:16Z</time>
      </trkpt>
      <trkpt lat="45.84805" lon="4.38392">
        <ele>951</ele>
        <time>2025-09-10T08:10:17Z</time>
      </trkpt>
      <trkpt lat="45.84804" lon="4.38395">
        <ele>951</ele>
        <time>2025-09-10T08:10:18Z</time>
      </trkpt>
      <trkpt lat="45.84803" lon="4.38397">
        <ele>950.8</ele>
        <time>2025-09-10T08:10:19Z</time>
      </trkpt>
      <trkpt lat="45.84801" lon="4.38401">
        <ele>950.8</ele>
        <time>2025-09-10T08:10:20Z</time>
      </trkpt>
      <trkpt lat="45.848" lon="4.38405">
        <ele>950.8</ele>
        <time>2025-09-10T08:10:21Z</time>
      </trkpt>
      <trkpt lat="45.84799" lon="4.38409">
        <ele>950.8</ele>
        <time>2025-09-10T08:10:22Z</time>
      </trkpt>
      <trkpt lat="45.84798" lon="4.38414">
        <ele>950.8</ele>
        <time>2025-09-10T08:10:23Z</time>
      </trkpt>
      <trkpt lat="45.84797" lon="4.38419">
        <ele>950.8</ele>
        <time>2025-09-10T08:10:24Z</time>
      </trkpt>
      <trkpt lat="45.84796" lon="4.38423">
        <ele>951.2</ele>
        <time>2025-09-10T08:10:25Z</time>
      </trkpt>
      <trkpt lat="45.84795" lon="4.38428">
        <ele>951.2</ele>
        <time>2025-09-10T08:10:26Z</time>
      </trkpt>
      <trkpt lat="45.84793" lon="4.38431">
        <ele>951.4</ele>
        <time>2025-09-10T08:10:27Z</time>
      </trkpt>
      <trkpt lat="45.84791" lon="4.38435">
        <ele>951.4</ele>
        <time>2025-09-10T08:10:28Z</time>
      </trkpt>
      <trkpt lat="45.8479" lon="4.38439">
        <ele>951.8</ele>
        <time>2025-09-10T08:10:29Z</time>
      </trkpt>
      <trkpt lat="45.84789" lon="4.38442">
        <ele>951.8</ele>
        <time>2025-09-10T08:10:30Z</time>
      </trkpt>
      <trkpt lat="45.84788" lon="4.38445">
        <ele>951.8</ele>
        <time>2025-09-10T08:10:31Z</time>
      </trkpt>
      <trkpt lat="45.84788" lon="4.38448">
        <ele>952</ele>
        <time>2025-09-10T08:10:32Z</time>
      </trkpt>
      <trkpt lat="45.84788" lon="4.3845">
        <ele>952.2</ele>
        <time>2025-09-10T08:10:33Z</time>
      </trkpt>
      <trkpt lat="45.84787" lon="4.38452">
        <ele>952.2</ele>
        <time>2025-09-10T08:10:34Z</time>
      </trkpt>
      <trkpt lat="45.84787" lon="4.38455">
        <ele>952.6</ele>
        <time>2025-09-10T08:10:35Z</time>
      </trkpt>
      <trkpt lat="45.84785" lon="4.38458">
        <ele>952.6</ele>
        <time>2025-09-10T08:10:36Z</time>
      </trkpt>
      <trkpt lat="45.84783" lon="4.3846">
        <ele>952.2</ele>
        <time>2025-09-10T08:10:37Z</time>
      </trkpt>
      <trkpt lat="45.84782" lon="4.38463">
        <ele>952.2</ele>
        <time>2025-09-10T08:10:38Z</time>
      </trkpt>
      <trkpt lat="45.84781" lon="4.38466">
        <ele>952.2</ele>
        <time>2025-09-10T08:10:39Z</time>
      </trkpt>
      <trkpt lat="45.8478" lon="4.38469">
        <ele>952.2</ele>
        <time>2025-09-10T08:10:40Z</time>
      </trkpt>
      <trkpt lat="45.84779" lon="4.38472">
        <ele>952.2</ele>
        <time>2025-09-10T08:10:41Z</time>
      </trkpt>
      <trkpt lat="45.84778" lon="4.38475">
        <ele>952.8</ele>
        <time>2025-09-10T08:10:42Z</time>
      </trkpt>
      <trkpt lat="45.84777" lon="4.38477">
        <ele>952.8</ele>
        <time>2025-09-10T08:10:43Z</time>
      </trkpt>
      <trkpt lat="45.84776" lon="4.3848">
        <ele>953</ele>
        <time>2025-09-10T08:10:44Z</time>
      </trkpt>
      <trkpt lat="45.84774" lon="4.38483">
        <ele>953</ele>
        <time>2025-09-10T08:10:45Z</time>
      </trkpt>
      <trkpt lat="45.84773" lon="4.38487">
        <ele>953</ele>
        <time>2025-09-10T08:10:46Z</time>
      </trkpt>
      <trkpt lat="45.84773" lon="4.3849">
        <ele>953</ele>
        <time>2025-09-10T08:10:47Z</time>
      </trkpt>
      <trkpt lat="45.84772" lon="4.38493">
        <ele>953</ele>
        <time>2025-09-10T08:10:48Z</time>
      </trkpt>
      <trkpt lat="45.84772" lon="4.38497">
        <ele>953.2</ele>
        <time>2025-09-10T08:10:49Z</time>
      </trkpt>
      <trkpt lat="45.84771" lon="4.38502">
        <ele>953.2</ele>
        <time>2025-09-10T08:10:50Z</time>
      </trkpt>
      <trkpt lat="45.8477" lon="4.38506">
        <ele>952.4</ele>
        <time>2025-09-10T08:10:51Z</time>
      </trkpt>
      <trkpt lat="45.84769" lon="4.3851">
        <ele>952.8</ele>
        <time>2025-09-10T08:10:52Z</time>
      </trkpt>
      <trkpt lat="45.84769" lon="4.38513">
        <ele>952.8</ele>
        <time>2025-09-10T08:10:53Z</time>
      </trkpt>
      <trkpt lat="45.84768" lon="4.38516">
        <ele>952.6</ele>
        <time>2025-09-10T08:10:54Z</time>
      </trkpt>
      <trkpt lat="45.84768" lon="4.38519">
        <ele>952.6</ele>
        <time>2025-09-10T08:10:55Z</time>
      </trkpt>
      <trkpt lat="45.84767" lon="4.38522">
        <ele>952.6</ele>
        <time>2025-09-10T08:10:56Z</time>
      </trkpt>
      <trkpt lat="45.84766" lon="4.38524">
        <ele>952.6</ele>
        <time>2025-09-10T08:10:57Z</time>
      </trkpt>
      <trkpt lat="45.84766" lon="4.38526">
        <ele>952.6</ele>
        <time>2025-09-10T08:10:58Z</time>
      </trkpt>
      <trkpt lat="45.84765" lon="4.3853">
        <ele>952.4</ele>
        <time>2025-09-10T08:10:59Z</time>
      </trkpt>
      <trkpt lat="45.84765" lon="4.38533">
        <ele>952.4</ele>
        <time>2025-09-10T08:11:00Z</time>
      </trkpt>
      <trkpt lat="45.84765" lon="4.38535">
        <ele>952.4</ele>
        <time>2025-09-10T08:11:01Z</time>
      </trkpt>
      <trkpt lat="45.84765" lon="4.38537">
        <ele>952.4</ele>
        <time>2025-09-10T08:11:02Z</time>
      </trkpt>
      <trkpt lat="45.84766" lon="4.3854">
        <ele>952.4</ele>
        <time>2025-09-10T08:11:03Z</time>
      </trkpt>
      <trkpt lat="45.84766" lon="4.38542">
        <ele>952</ele>
        <time>2025-09-10T08:11:04Z</time>
      </trkpt>
      <trkpt lat="45.84767" lon="4.38544">
        <ele>952</ele>
        <time>2025-09-10T08:11:05Z</time>
      </trkpt>
      <trkpt lat="45.84768" lon="4.38545">
        <ele>952</ele>
        <time>2025-09-10T08:11:06Z</time>
      </trkpt>
      <trkpt lat="45.84768" lon="4.38545">
        <ele>951.8</ele>
        <time>2025-09-10T08:11:07Z</time>
      </trkpt>
      <trkpt lat="45.84768" lon="4.38546">
        <ele>951.8</ele>
        <time>2025-09-10T08:11:42Z</time>
      </trkpt>
      <trkpt lat="45.84767" lon="4.38548">
        <ele>951.8</ele>
        <time>2025-09-10T08:11:43Z</time>
      </trkpt>
      <trkpt lat="45.84766" lon="4.38551">
        <ele>951.8</ele>
        <time>2025-09-10T08:11:44Z</time>
      </trkpt>
      <trkpt lat="45.84766" lon="4.38555">
        <ele>951.6</ele>
        <time>2025-09-10T08:11:45Z</time>
      </trkpt>
      <trkpt lat="45.84765" lon="4.38557">
        <ele>951.6</ele>
        <time>2025-09-10T08:11:46Z</time>
      </trkpt>
      <trkpt lat="45.84765" lon="4.38558">
        <ele>951.6</ele>
        <time>2025-09-10T08:11:47Z</time>
      </trkpt>
      <trkpt lat="45.84764" lon="4.38561">
        <ele>951.6</ele>
        <time>2025-09-10T08:11:52Z</time>
      </trkpt>
      <trkpt lat="45.84763" lon="4.38564">
        <ele>951.4</ele>
        <time>2025-09-10T08:11:53Z</time>
      </trkpt>
      <trkpt lat="45.84763" lon="4.38568">
        <ele>951.4</ele>
        <time>2025-09-10T08:11:54Z</time>
      </trkpt>
      <trkpt lat="45.84763" lon="4.38572">
        <ele>951.2</ele>
        <time>2025-09-10T08:11:55Z</time>
      </trkpt>
      <trkpt lat="45.84763" lon="4.38577">
        <ele>951.2</ele>
        <time>2025-09-10T08:11:56Z</time>
      </trkpt>
      <trkpt lat="45.84763" lon="4.38583">
        <ele>950.8</ele>
        <time>2025-09-10T08:11:57Z</time>
      </trkpt>
      <trkpt lat="45.84762" lon="4.38587">
        <ele>950.6</ele>
        <time>2025-09-10T08:11:58Z</time>
      </trkpt>
      <trkpt lat="45.84762" lon="4.38592">
        <ele>950.2</ele>
        <time>2025-09-10T08:11:59Z</time>
      </trkpt>
      <trkpt lat="45.8476" lon="4.38597">
        <ele>949.8</ele>
        <time>2025-09-10T08:12:00Z</time>
      </trkpt>
      <trkpt lat="45.84759" lon="4.38601">
        <ele>949.8</ele>
        <time>2025-09-10T08:12:01Z</time>
      </trkpt>
      <trkpt lat="45.84759" lon="4.38605">
        <ele>949.2</ele>
        <time>2025-09-10T08:12:02Z</time>
      </trkpt>
      <trkpt lat="45.84757" lon="4.38614">
        <ele>949.2</ele>
        <time>2025-09-10T08:12:03Z</time>
      </trkpt>
      <trkpt lat="45.84759" lon="4.38618">
        <ele>948.8</ele>
        <time>2025-09-10T08:12:04Z</time>
      </trkpt>
      <trkpt lat="45.84758" lon="4.38622">
        <ele>948.8</ele>
        <time>2025-09-10T08:12:05Z</time>
      </trkpt>
      <trkpt lat="45.84757" lon="4.38624">
        <ele>948.4</ele>
        <time>2025-09-10T08:12:06Z</time>
      </trkpt>
      <trkpt lat="45.84757" lon="4.38628">
        <ele>948</ele>
        <time>2025-09-10T08:12:07Z</time>
      </trkpt>
      <trkpt lat="45.84758" lon="4.38631">
        <ele>947.6</ele>
        <time>2025-09-10T08:12:08Z</time>
      </trkpt>
      <trkpt lat="45.84758" lon="4.38635">
        <ele>947.2</ele>
        <time>2025-09-10T08:12:09Z</time>
      </trkpt>
      <trkpt lat="45.84758" lon="4.38638">
        <ele>947.2</ele>
        <time>2025-09-10T08:12:10Z</time>
      </trkpt>
      <trkpt lat="45.84759" lon="4.38641">
        <ele>947.2</ele>
        <time>2025-09-10T08:12:11Z</time>
      </trkpt>
      <trkpt lat="45.84759" lon="4.38644">
        <ele>947</ele>
        <time>2025-09-10T08:12:12Z</time>
      </trkpt>
      <trkpt lat="45.84754" lon="4.38647">
        <ele>947</ele>
        <time>2025-09-10T08:12:13Z</time>
      </trkpt>
      <trkpt lat="45.84754" lon="4.38649">
        <ele>946.4</ele>
        <time>2025-09-10T08:12:14Z</time>
      </trkpt>
      <trkpt lat="45.84753" lon="4.38651">
        <ele>946.4</ele>
        <time>2025-09-10T08:12:15Z</time>
      </trkpt>
      <trkpt lat="45.84753" lon="4.38654">
        <ele>946.4</ele>
        <time>2025-09-10T08:12:16Z</time>
      </trkpt>
      <trkpt lat="45.84752" lon="4.38656">
        <ele>946.4</ele>
        <time>2025-09-10T08:12:17Z</time>
      </trkpt>
      <trkpt lat="45.84752" lon="4.38658">
        <ele>946.4</ele>
        <time>2025-09-10T08:12:18Z</time>
      </trkpt>
      <trkpt lat="45.84752" lon="4.38662">
        <ele>946</ele>
        <time>2025-09-10T08:12:19Z</time>
      </trkpt>
      <trkpt lat="45.84751" lon="4.38667">
        <ele>945.6</ele>
        <time>2025-09-10T08:12:20Z</time>
      </trkpt>
      <trkpt lat="45.84751" lon="4.38672">
        <ele>945.4</ele>
        <time>2025-09-10T08:12:21Z</time>
      </trkpt>
      <trkpt lat="45.84752" lon="4.38677">
        <ele>945.2</ele>
        <time>2025-09-10T08:12:22Z</time>
      </trkpt>
      <trkpt lat="45.84753" lon="4.38683">
        <ele>944.8</ele>
        <time>2025-09-10T08:12:23Z</time>
      </trkpt>
      <trkpt lat="45.84754" lon="4.38689">
        <ele>944.8</ele>
        <time>2025-09-10T08:12:24Z</time>
      </trkpt>
      <trkpt lat="45.84754" lon="4.38695">
        <ele>944.4</ele>
        <time>2025-09-10T08:12:25Z</time>
      </trkpt>
      <trkpt lat="45.84755" lon="4.38703">
        <ele>944</ele>
        <time>2025-09-10T08:12:26Z</time>
      </trkpt>
      <trkpt lat="45.84755" lon="4.38709">
        <ele>944</ele>
        <time>2025-09-10T08:12:27Z</time>
      </trkpt>
      <trkpt lat="45.84755" lon="4.38716">
        <ele>943.8</ele>
        <time>2025-09-10T08:12:28Z</time>
      </trkpt>
      <trkpt lat="45.84754" lon="4.38722">
        <ele>943.4</ele>
        <time>2025-09-10T08:12:29Z</time>
      </trkpt>
      <trkpt lat="45.84755" lon="4.38727">
        <ele>943.4</ele>
        <time>2025-09-10T08:12:30Z</time>
      </trkpt>
      <trkpt lat="45.84752" lon="4.3873">
        <ele>943.8</ele>
        <time>2025-09-10T08:12:31Z</time>
      </trkpt>
      <trkpt lat="45.84752" lon="4.38733">
        <ele>943.4</ele>
        <time>2025-09-10T08:12:32Z</time>
      </trkpt>
      <trkpt lat="45.84751" lon="4.38736">
        <ele>943</ele>
        <time>2025-09-10T08:12:33Z</time>
      </trkpt>
      <trkpt lat="45.84751" lon="4.3874">
        <ele>943</ele>
        <time>2025-09-10T08:12:34Z</time>
      </trkpt>
      <trkpt lat="45.84749" lon="4.38745">
        <ele>942.8</ele>
        <time>2025-09-10T08:12:35Z</time>
      </trkpt>
      <trkpt lat="45.84751" lon="4.38749">
        <ele>942.4</ele>
        <time>2025-09-10T08:12:36Z</time>
      </trkpt>
      <trkpt lat="45.84751" lon="4.38753">
        <ele>942</ele>
        <time>2025-09-10T08:12:37Z</time>
      </trkpt>
      <trkpt lat="45.84752" lon="4.38755">
        <ele>941.8</ele>
        <time>2025-09-10T08:12:38Z</time>
      </trkpt>
      <trkpt lat="45.84752" lon="4.38759">
        <ele>941.6</ele>
        <time>2025-09-10T08:12:39Z</time>
      </trkpt>
      <trkpt lat="45.84753" lon="4.38762">
        <ele>941</ele>
        <time>2025-09-10T08:12:40Z</time>
      </trkpt>
      <trkpt lat="45.84753" lon="4.38765">
        <ele>940.8</ele>
        <time>2025-09-10T08:12:41Z</time>
      </trkpt>
      <trkpt lat="45.84753" lon="4.38768">
        <ele>940.8</ele>
        <time>2025-09-10T08:12:42Z</time>
      </trkpt>
      <trkpt lat="45.84753" lon="4.38772">
        <ele>940.4</ele>
        <time>2025-09-10T08:12:43Z</time>
      </trkpt>
      <trkpt lat="45.84753" lon="4.38776">
        <ele>939.6</ele>
        <time>2025-09-10T08:12:44Z</time>
      </trkpt>
      <trkpt lat="45.84753" lon="4.3878">
        <ele>939.6</ele>
        <time>2025-09-10T08:12:45Z</time>
      </trkpt>
      <trkpt lat="45.84753" lon="4.38785">
        <ele>939</ele>
        <time>2025-09-10T08:12:46Z</time>
      </trkpt>
      <trkpt lat="45.84754" lon="4.38789">
        <ele>938.6</ele>
        <time>2025-09-10T08:12:47Z</time>
      </trkpt>
      <trkpt lat="45.84754" lon="4.38792">
        <ele>938.2</ele>
        <time>2025-09-10T08:12:48Z</time>
      </trkpt>
      <trkpt lat="45.84754" lon="4.38795">
        <ele>937.8</ele>
        <time>2025-09-10T08:12:49Z</time>
      </trkpt>
      <trkpt lat="45.84754" lon="4.38798">
        <ele>937.6</ele>
        <time>2025-09-10T08:12:50Z</time>
      </trkpt>
      <trkpt lat="45.84754" lon="4.38801">
        <ele>937.6</ele>
        <time>2025-09-10T08:12:51Z</time>
      </trkpt>
      <trkpt lat="45.84754" lon="4.38803">
        <ele>937.2</ele>
        <time>2025-09-10T08:12:52Z</time>
      </trkpt>
      <trkpt lat="45.84753" lon="4.38805">
        <ele>937</ele>
        <time>2025-09-10T08:12:53Z</time>
      </trkpt>
      <trkpt lat="45.84753" lon="4.38808">
        <ele>936.6</ele>
        <time>2025-09-10T08:12:54Z</time>
      </trkpt>
      <trkpt lat="45.84753" lon="4.38811">
        <ele>936.2</ele>
        <time>2025-09-10T08:12:55Z</time>
      </trkpt>
      <trkpt lat="45.84753" lon="4.38813">
        <ele>936</ele>
        <time>2025-09-10T08:12:56Z</time>
      </trkpt>
      <trkpt lat="45.84752" lon="4.38815">
        <ele>935.4</ele>
        <time>2025-09-10T08:12:57Z</time>
      </trkpt>
      <trkpt lat="45.84752" lon="4.38817">
        <ele>935.4</ele>
        <time>2025-09-10T08:12:58Z</time>
      </trkpt>
      <trkpt lat="45.84751" lon="4.38819">
        <ele>935.2</ele>
        <time>2025-09-10T08:12:59Z</time>
      </trkpt>
      <trkpt lat="45.8475" lon="4.38821">
        <ele>935.2</ele>
        <time>2025-09-10T08:13:00Z</time>
      </trkpt>
      <trkpt lat="45.8475" lon="4.38824">
        <ele>935.2</ele>
        <time>2025-09-10T08:13:01Z</time>
      </trkpt>
      <trkpt lat="45.84751" lon="4.38826">
        <ele>934.8</ele>
        <time>2025-09-10T08:13:02Z</time>
      </trkpt>
      <trkpt lat="45.84751" lon="4.38829">
        <ele>934.8</ele>
        <time>2025-09-10T08:13:03Z</time>
      </trkpt>
      <trkpt lat="45.84751" lon="4.38832">
        <ele>934.4</ele>
        <time>2025-09-10T08:13:04Z</time>
      </trkpt>
      <trkpt lat="45.84751" lon="4.38834">
        <ele>934</ele>
        <time>2025-09-10T08:13:05Z</time>
      </trkpt>
      <trkpt lat="45.84751" lon="4.38837">
        <ele>933.6</ele>
        <time>2025-09-10T08:13:06Z</time>
      </trkpt>
      <trkpt lat="45.84751" lon="4.38838">
        <ele>933.2</ele>
        <time>2025-09-10T08:13:07Z</time>
      </trkpt>
      <trkpt lat="45.8475" lon="4.3884">
        <ele>933</ele>
        <time>2025-09-10T08:13:08Z</time>
      </trkpt>
      <trkpt lat="45.8475" lon="4.38843">
        <ele>933</ele>
        <time>2025-09-10T08:13:09Z</time>
      </trkpt>
      <trkpt lat="45.84749" lon="4.38847">
        <ele>932.8</ele>
        <time>2025-09-10T08:13:10Z</time>
      </trkpt>
      <trkpt lat="45.84749" lon="4.38851">
        <ele>932.2</ele>
        <time>2025-09-10T08:13:11Z</time>
      </trkpt>
      <trkpt lat="45.84749" lon="4.38855">
        <ele>931.8</ele>
        <time>2025-09-10T08:13:12Z</time>
      </trkpt>
      <trkpt lat="45.84749" lon="4.38859">
        <ele>931.4</ele>
        <time>2025-09-10T08:13:13Z</time>
      </trkpt>
      <trkpt lat="45.84748" lon="4.38863">
        <ele>931</ele>
        <time>2025-09-10T08:13:14Z</time>
      </trkpt>
      <trkpt lat="45.84748" lon="4.38867">
        <ele>930.4</ele>
        <time>2025-09-10T08:13:15Z</time>
      </trkpt>
      <trkpt lat="45.84748" lon="4.38872">
        <ele>930</ele>
        <time>2025-09-10T08:13:16Z</time>
      </trkpt>
      <trkpt lat="45.84748" lon="4.38876">
        <ele>929.8</ele>
        <time>2025-09-10T08:13:17Z</time>
      </trkpt>
      <trkpt lat="45.84748" lon="4.38878">
        <ele>929.4</ele>
        <time>2025-09-10T08:13:18Z</time>
      </trkpt>
      <trkpt lat="45.84748" lon="4.3888">
        <ele>929.4</ele>
        <time>2025-09-10T08:13:19Z</time>
      </trkpt>
      <trkpt lat="45.84748" lon="4.38882">
        <ele>928.8</ele>
        <time>2025-09-10T08:13:20Z</time>
      </trkpt>
      <trkpt lat="45.84748" lon="4.38883">
        <ele>928.8</ele>
        <time>2025-09-10T08:13:21Z</time>
      </trkpt>
      <trkpt lat="45.84748" lon="4.38886">
        <ele>928.4</ele>
        <time>2025-09-10T08:13:22Z</time>
      </trkpt>
      <trkpt lat="45.84747" lon="4.3889">
        <ele>928.4</ele>
        <time>2025-09-10T08:13:23Z</time>
      </trkpt>
      <trkpt lat="45.84747" lon="4.38895">
        <ele>928.2</ele>
        <time>2025-09-10T08:13:24Z</time>
      </trkpt>
      <trkpt lat="45.84748" lon="4.38901">
        <ele>927.8</ele>
        <time>2025-09-10T08:13:25Z</time>
      </trkpt>
      <trkpt lat="45.84748" lon="4.38907">
        <ele>927.4</ele>
        <time>2025-09-10T08:13:26Z</time>
      </trkpt>
      <trkpt lat="45.84748" lon="4.38912">
        <ele>927</ele>
        <time>2025-09-10T08:13:27Z</time>
      </trkpt>
      <trkpt lat="45.84749" lon="4.38917">
        <ele>926.8</ele>
        <time>2025-09-10T08:13:28Z</time>
      </trkpt>
      <trkpt lat="45.84748" lon="4.38921">
        <ele>926.2</ele>
        <time>2025-09-10T08:13:29Z</time>
      </trkpt>
      <trkpt lat="45.84748" lon="4.38924">
        <ele>926.2</ele>
        <time>2025-09-10T08:13:30Z</time>
      </trkpt>
      <trkpt lat="45.84747" lon="4.38928">
        <ele>925.8</ele>
        <time>2025-09-10T08:13:31Z</time>
      </trkpt>
      <trkpt lat="45.84747" lon="4.38933">
        <ele>925.4</ele>
        <time>2025-09-10T08:13:32Z</time>
      </trkpt>
      <trkpt lat="45.84747" lon="4.38938">
        <ele>925</ele>
        <time>2025-09-10T08:13:33Z</time>
      </trkpt>
      <trkpt lat="45.84748" lon="4.38942">
        <ele>924.2</ele>
        <time>2025-09-10T08:13:34Z</time>
      </trkpt>
      <trkpt lat="45.84748" lon="4.38947">
        <ele>924</ele>
        <time>2025-09-10T08:13:35Z</time>
      </trkpt>
      <trkpt lat="45.84748" lon="4.38951">
        <ele>923.4</ele>
        <time>2025-09-10T08:13:36Z</time>
      </trkpt>
      <trkpt lat="45.84748" lon="4.38955">
        <ele>923</ele>
        <time>2025-09-10T08:13:37Z</time>
      </trkpt>
      <trkpt lat="45.84747" lon="4.38959">
        <ele>922.6</ele>
        <time>2025-09-10T08:13:38Z</time>
      </trkpt>
      <trkpt lat="45.84747" lon="4.38961">
        <ele>922.6</ele>
        <time>2025-09-10T08:13:39Z</time>
      </trkpt>
      <trkpt lat="45.84747" lon="4.38964">
        <ele>922.2</ele>
        <time>2025-09-10T08:13:40Z</time>
      </trkpt>
      <trkpt lat="45.84746" lon="4.38967">
        <ele>922.2</ele>
        <time>2025-09-10T08:13:41Z</time>
      </trkpt>
      <trkpt lat="45.84745" lon="4.3897">
        <ele>922</ele>
        <time>2025-09-10T08:13:42Z</time>
      </trkpt>
      <trkpt lat="45.84745" lon="4.38972">
        <ele>921.6</ele>
        <time>2025-09-10T08:13:43Z</time>
      </trkpt>
      <trkpt lat="45.84744" lon="4.38975">
        <ele>921.6</ele>
        <time>2025-09-10T08:13:44Z</time>
      </trkpt>
      <trkpt lat="45.84744" lon="4.38977">
        <ele>921.2</ele>
        <time>2025-09-10T08:13:45Z</time>
      </trkpt>
      <trkpt lat="45.84744" lon="4.3898">
        <ele>920.8</ele>
        <time>2025-09-10T08:13:46Z</time>
      </trkpt>
      <trkpt lat="45.84744" lon="4.38982">
        <ele>920.4</ele>
        <time>2025-09-10T08:13:47Z</time>
      </trkpt>
      <trkpt lat="45.84744" lon="4.38983">
        <ele>920</ele>
        <time>2025-09-10T08:13:48Z</time>
      </trkpt>
      <trkpt lat="45.84744" lon="4.38984">
        <ele>920</ele>
        <time>2025-09-10T08:13:49Z</time>
      </trkpt>
      <trkpt lat="45.84744" lon="4.38987">
        <ele>919.8</ele>
        <time>2025-09-10T08:13:50Z</time>
      </trkpt>
      <trkpt lat="45.84744" lon="4.3899">
        <ele>919.4</ele>
        <time>2025-09-10T08:13:51Z</time>
      </trkpt>
      <trkpt lat="45.84743" lon="4.38992">
        <ele>919.4</ele>
        <time>2025-09-10T08:13:52Z</time>
      </trkpt>
      <trkpt lat="45.84744" lon="4.38995">
        <ele>919.4</ele>
        <time>2025-09-10T08:13:53Z</time>
      </trkpt>
      <trkpt lat="45.84744" lon="4.38996">
        <ele>919</ele>
        <time>2025-09-10T08:13:54Z</time>
      </trkpt>
      <trkpt lat="45.84744" lon="4.38998">
        <ele>918.8</ele>
        <time>2025-09-10T08:13:55Z</time>
      </trkpt>
      <trkpt lat="45.84744" lon="4.39">
        <ele>918.4</ele>
        <time>2025-09-10T08:13:56Z</time>
      </trkpt>
      <trkpt lat="45.84745" lon="4.39002">
        <ele>918.2</ele>
        <time>2025-09-10T08:13:57Z</time>
      </trkpt>
      <trkpt lat="45.84746" lon="4.39004">
        <ele>918</ele>
        <time>2025-09-10T08:13:58Z</time>
      </trkpt>
      <trkpt lat="45.84747" lon="4.39005">
        <ele>917.8</ele>
        <time>2025-09-10T08:13:59Z</time>
      </trkpt>
      <trkpt lat="45.84748" lon="4.39005">
        <ele>917.6</ele>
        <time>2025-09-10T08:14:00Z</time>
      </trkpt>
      <trkpt lat="45.84749" lon="4.39006">
        <ele>917.6</ele>
        <time>2025-09-10T08:14:01Z</time>
      </trkpt>
      <trkpt lat="45.8475" lon="4.39007">
        <ele>917.6</ele>
        <time>2025-09-10T08:14:02Z</time>
      </trkpt>
      <trkpt lat="45.84751" lon="4.3901">
        <ele>917.6</ele>
        <time>2025-09-10T08:14:03Z</time>
      </trkpt>
      <trkpt lat="45.84751" lon="4.39012">
        <ele>916.8</ele>
        <time>2025-09-10T08:14:04Z</time>
      </trkpt>
      <trkpt lat="45.84751" lon="4.39014">
        <ele>916.8</ele>
        <time>2025-09-10T08:14:05Z</time>
      </trkpt>
      <trkpt lat="45.84752" lon="4.39016">
        <ele>916.6</ele>
        <time>2025-09-10T08:14:06Z</time>
      </trkpt>
      <trkpt lat="45.84752" lon="4.39019">
        <ele>916.6</ele>
        <time>2025-09-10T08:14:07Z</time>
      </trkpt>
      <trkpt lat="45.84752" lon="4.39021">
        <ele>916.2</ele>
        <time>2025-09-10T08:14:08Z</time>
      </trkpt>
      <trkpt lat="45.84751" lon="4.39023">
        <ele>916.2</ele>
        <time>2025-09-10T08:14:09Z</time>
      </trkpt>
      <trkpt lat="45.84751" lon="4.39024">
        <ele>915.6</ele>
        <time>2025-09-10T08:14:10Z</time>
      </trkpt>
      <trkpt lat="45.8475" lon="4.39026">
        <ele>915.4</ele>
        <time>2025-09-10T08:14:11Z</time>
      </trkpt>
      <trkpt lat="45.84749" lon="4.39028">
        <ele>915.4</ele>
        <time>2025-09-10T08:14:12Z</time>
      </trkpt>
      <trkpt lat="45.84748" lon="4.39031">
        <ele>915</ele>
        <time>2025-09-10T08:14:13Z</time>
      </trkpt>
      <trkpt lat="45.84748" lon="4.39033">
        <ele>914.6</ele>
        <time>2025-09-10T08:14:14Z</time>
      </trkpt>
      <trkpt lat="45.84748" lon="4.39035">
        <ele>914.6</ele>
        <time>2025-09-10T08:14:15Z</time>
      </trkpt>
      <trkpt lat="45.84748" lon="4.39037">
        <ele>914.4</ele>
        <time>2025-09-10T08:14:16Z</time>
      </trkpt>
      <trkpt lat="45.84748" lon="4.39039">
        <ele>914.4</ele>
        <time>2025-09-10T08:14:17Z</time>
      </trkpt>
      <trkpt lat="45.84748" lon="4.39042">
        <ele>914.4</ele>
        <time>2025-09-10T08:14:18Z</time>
      </trkpt>
      <trkpt lat="45.84748" lon="4.39045">
        <ele>914</ele>
        <time>2025-09-10T08:14:19Z</time>
      </trkpt>
      <trkpt lat="45.84749" lon="4.39048">
        <ele>914</ele>
        <time>2025-09-10T08:14:20Z</time>
      </trkpt>
      <trkpt lat="45.84749" lon="4.39051">
        <ele>913.8</ele>
        <time>2025-09-10T08:14:21Z</time>
      </trkpt>
      <trkpt lat="45.8475" lon="4.39055">
        <ele>913.4</ele>
        <time>2025-09-10T08:14:22Z</time>
      </trkpt>
      <trkpt lat="45.8475" lon="4.39058">
        <ele>913.2</ele>
        <time>2025-09-10T08:14:23Z</time>
      </trkpt>
      <trkpt lat="45.84751" lon="4.3906">
        <ele>912.8</ele>
        <time>2025-09-10T08:14:24Z</time>
      </trkpt>
      <trkpt lat="45.84751" lon="4.39062">
        <ele>912.4</ele>
        <time>2025-09-10T08:14:25Z</time>
      </trkpt>
      <trkpt lat="45.84751" lon="4.39064">
        <ele>912</ele>
        <time>2025-09-10T08:14:26Z</time>
      </trkpt>
      <trkpt lat="45.84751" lon="4.39066">
        <ele>911.6</ele>
        <time>2025-09-10T08:14:27Z</time>
      </trkpt>
      <trkpt lat="45.84752" lon="4.39069">
        <ele>911.6</ele>
        <time>2025-09-10T08:14:28Z</time>
      </trkpt>
      <trkpt lat="45.84752" lon="4.39071">
        <ele>911.4</ele>
        <time>2025-09-10T08:14:29Z</time>
      </trkpt>
      <trkpt lat="45.84752" lon="4.39073">
        <ele>911.4</ele>
        <time>2025-09-10T08:14:30Z</time>
      </trkpt>
      <trkpt lat="45.84752" lon="4.39076">
        <ele>911</ele>
        <time>2025-09-10T08:14:31Z</time>
      </trkpt>
      <trkpt lat="45.84751" lon="4.39079">
        <ele>910.8</ele>
        <time>2025-09-10T08:14:32Z</time>
      </trkpt>
      <trkpt lat="45.84751" lon="4.39082">
        <ele>910.6</ele>
        <time>2025-09-10T08:14:33Z</time>
      </trkpt>
      <trkpt lat="45.84752" lon="4.39086">
        <ele>910.2</ele>
        <time>2025-09-10T08:14:34Z</time>
      </trkpt>
      <trkpt lat="45.84753" lon="4.39089">
        <ele>910.2</ele>
        <time>2025-09-10T08:14:35Z</time>
      </trkpt>
      <trkpt lat="45.84753" lon="4.39092">
        <ele>910.2</ele>
        <time>2025-09-10T08:14:36Z</time>
      </trkpt>
      <trkpt lat="45.84753" lon="4.39093">
        <ele>910.2</ele>
        <time>2025-09-10T08:14:37Z</time>
      </trkpt>
      <trkpt lat="45.84754" lon="4.39096">
        <ele>910.2</ele>
        <time>2025-09-10T08:14:38Z</time>
      </trkpt>
      <trkpt lat="45.84755" lon="4.39098">
        <ele>909.8</ele>
        <time>2025-09-10T08:14:39Z</time>
      </trkpt>
      <trkpt lat="45.84756" lon="4.39102">
        <ele>909.6</ele>
        <time>2025-09-10T08:14:40Z</time>
      </trkpt>
      <trkpt lat="45.84757" lon="4.39106">
        <ele>909.6</ele>
        <time>2025-09-10T08:14:41Z</time>
      </trkpt>
      <trkpt lat="45.84758" lon="4.3911">
        <ele>909.2</ele>
        <time>2025-09-10T08:14:42Z</time>
      </trkpt>
      <trkpt lat="45.84759" lon="4.39115">
        <ele>909</ele>
        <time>2025-09-10T08:14:43Z</time>
      </trkpt>
      <trkpt lat="45.84762" lon="4.39123">
        <ele>908.6</ele>
        <time>2025-09-10T08:14:44Z</time>
      </trkpt>
      <trkpt lat="45.84764" lon="4.39127">
        <ele>908.6</ele>
        <time>2025-09-10T08:14:45Z</time>
      </trkpt>
      <trkpt lat="45.84766" lon="4.39131">
        <ele>908</ele>
        <time>2025-09-10T08:14:46Z</time>
      </trkpt>
      <trkpt lat="45.84768" lon="4.39135">
        <ele>907.6</ele>
        <time>2025-09-10T08:14:47Z</time>
      </trkpt>
      <trkpt lat="45.84769" lon="4.39139">
        <ele>907.4</ele>
        <time>2025-09-10T08:14:48Z</time>
      </trkpt>
      <trkpt lat="45.8477" lon="4.39143">
        <ele>907.2</ele>
        <time>2025-09-10T08:14:49Z</time>
      </trkpt>
      <trkpt lat="45.84771" lon="4.39146">
        <ele>906.8</ele>
        <time>2025-09-10T08:14:50Z</time>
      </trkpt>
      <trkpt lat="45.84772" lon="4.3915">
        <ele>906.6</ele>
        <time>2025-09-10T08:14:51Z</time>
      </trkpt>
      <trkpt lat="45.84772" lon="4.3915">
        <ele>906.2</ele>
        <time>2025-09-10T08:14:52Z</time>
      </trkpt>
      <trkpt lat="45.84773" lon="4.39155">
        <ele>906.2</ele>
        <time>2025-09-10T08:14:53Z</time>
      </trkpt>
      <trkpt lat="45.84774" lon="4.39159">
        <ele>905.8</ele>
        <time>2025-09-10T08:14:54Z</time>
      </trkpt>
      <trkpt lat="45.84776" lon="4.39162">
        <ele>905.4</ele>
        <time>2025-09-10T08:14:55Z</time>
      </trkpt>
      <trkpt lat="45.84778" lon="4.39165">
        <ele>905.4</ele>
        <time>2025-09-10T08:14:56Z</time>
      </trkpt>
      <trkpt lat="45.84779" lon="4.39167">
        <ele>905</ele>
        <time>2025-09-10T08:14:57Z</time>
      </trkpt>
      <trkpt lat="45.84779" lon="4.39167">
        <ele>905</ele>
        <time>2025-09-10T08:14:58Z</time>
      </trkpt>
      <trkpt lat="45.84779" lon="4.39167">
        <ele>904.6</ele>
        <time>2025-09-10T08:14:59Z</time>
      </trkpt>
      <trkpt lat="45.84783" lon="4.39171">
        <ele>903.8</ele>
        <time>2025-09-10T08:15:01Z</time>
      </trkpt>
      <trkpt lat="45.84784" lon="4.39173">
        <ele>903.8</ele>
        <time>2025-09-10T08:15:02Z</time>
      </trkpt>
      <trkpt lat="45.84784" lon="4.39175">
        <ele>903.6</ele>
        <time>2025-09-10T08:15:03Z</time>
      </trkpt>
      <trkpt lat="45.84783" lon="4.39176">
        <ele>902.8</ele>
        <time>2025-09-10T08:15:04Z</time>
      </trkpt>
      <trkpt lat="45.84782" lon="4.39178">
        <ele>902.8</ele>
        <time>2025-09-10T08:15:05Z</time>
      </trkpt>
      <trkpt lat="45.84782" lon="4.39179">
        <ele>902.6</ele>
        <time>2025-09-10T08:15:27Z</time>
      </trkpt>
      <trkpt lat="45.84784" lon="4.39181">
        <ele>902.6</ele>
        <time>2025-09-10T08:15:28Z</time>
      </trkpt>
      <trkpt lat="45.84785" lon="4.39184">
        <ele>902.6</ele>
        <time>2025-09-10T08:15:29Z</time>
      </trkpt>
      <trkpt lat="45.84786" lon="4.39187">
        <ele>902.6</ele>
        <time>2025-09-10T08:15:30Z</time>
      </trkpt>
      <trkpt lat="45.84787" lon="4.39191">
        <ele>902.4</ele>
        <time>2025-09-10T08:15:31Z</time>
      </trkpt>
      <trkpt lat="45.84788" lon="4.39196">
        <ele>902.4</ele>
        <time>2025-09-10T08:15:32Z</time>
      </trkpt>
      <trkpt lat="45.84789" lon="4.39201">
        <ele>902</ele>
        <time>2025-09-10T08:15:33Z</time>
      </trkpt>
      <trkpt lat="45.8479" lon="4.39206">
        <ele>901.8</ele>
        <time>2025-09-10T08:15:34Z</time>
      </trkpt>
      <trkpt lat="45.84791" lon="4.3921">
        <ele>901.4</ele>
        <time>2025-09-10T08:15:35Z</time>
      </trkpt>
      <trkpt lat="45.84792" lon="4.39215">
        <ele>901.2</ele>
        <time>2025-09-10T08:15:36Z</time>
      </trkpt>
      <trkpt lat="45.84794" lon="4.39219">
        <ele>900.6</ele>
        <time>2025-09-10T08:15:37Z</time>
      </trkpt>
      <trkpt lat="45.84796" lon="4.39224">
        <ele>899.6</ele>
        <time>2025-09-10T08:15:38Z</time>
      </trkpt>
      <trkpt lat="45.84797" lon="4.39228">
        <ele>899.6</ele>
        <time>2025-09-10T08:15:39Z</time>
      </trkpt>
      <trkpt lat="45.84798" lon="4.39233">
        <ele>899.6</ele>
        <time>2025-09-10T08:15:40Z</time>
      </trkpt>
      <trkpt lat="45.84799" lon="4.39238">
        <ele>899</ele>
        <time>2025-09-10T08:15:41Z</time>
      </trkpt>
      <trkpt lat="45.848" lon="4.39244">
        <ele>898.4</ele>
        <time>2025-09-10T08:15:42Z</time>
      </trkpt>
      <trkpt lat="45.848" lon="4.39251">
        <ele>898.2</ele>
        <time>2025-09-10T08:15:43Z</time>
      </trkpt>
      <trkpt lat="45.84801" lon="4.39256">
        <ele>897</ele>
        <time>2025-09-10T08:15:44Z</time>
      </trkpt>
      <trkpt lat="45.84802" lon="4.39262">
        <ele>897.4</ele>
        <time>2025-09-10T08:15:45Z</time>
      </trkpt>
      <trkpt lat="45.84802" lon="4.39266">
        <ele>897</ele>
        <time>2025-09-10T08:15:46Z</time>
      </trkpt>
      <trkpt lat="45.84801" lon="4.3927">
        <ele>897</ele>
        <time>2025-09-10T08:15:47Z</time>
      </trkpt>
      <trkpt lat="45.84803" lon="4.39274">
        <ele>897</ele>
        <time>2025-09-10T08:15:48Z</time>
      </trkpt>
      <trkpt lat="45.84805" lon="4.39278">
        <ele>896.2</ele>
        <time>2025-09-10T08:15:49Z</time>
      </trkpt>
      <trkpt lat="45.84805" lon="4.39283">
        <ele>896</ele>
        <time>2025-09-10T08:15:50Z</time>
      </trkpt>
      <trkpt lat="45.84806" lon="4.39287">
        <ele>896</ele>
        <time>2025-09-10T08:15:51Z</time>
      </trkpt>
      <trkpt lat="45.84806" lon="4.3929">
        <ele>895.6</ele>
        <time>2025-09-10T08:15:52Z</time>
      </trkpt>
      <trkpt lat="45.84807" lon="4.39295">
        <ele>894.8</ele>
        <time>2025-09-10T08:15:53Z</time>
      </trkpt>
      <trkpt lat="45.84808" lon="4.39299">
        <ele>894.4</ele>
        <time>2025-09-10T08:15:54Z</time>
      </trkpt>
      <trkpt lat="45.84808" lon="4.39303">
        <ele>893.8</ele>
        <time>2025-09-10T08:15:55Z</time>
      </trkpt>
      <trkpt lat="45.84809" lon="4.39307">
        <ele>893.4</ele>
        <time>2025-09-10T08:15:56Z</time>
      </trkpt>
      <trkpt lat="45.84809" lon="4.39313">
        <ele>892.8</ele>
        <time>2025-09-10T08:15:57Z</time>
      </trkpt>
      <trkpt lat="45.8481" lon="4.39318">
        <ele>892.2</ele>
        <time>2025-09-10T08:15:58Z</time>
      </trkpt>
      <trkpt lat="45.84811" lon="4.39322">
        <ele>891.4</ele>
        <time>2025-09-10T08:15:59Z</time>
      </trkpt>
      <trkpt lat="45.84812" lon="4.39326">
        <ele>891.2</ele>
        <time>2025-09-10T08:16:00Z</time>
      </trkpt>
      <trkpt lat="45.84813" lon="4.39331">
        <ele>890.8</ele>
        <time>2025-09-10T08:16:01Z</time>
      </trkpt>
      <trkpt lat="45.84814" lon="4.39337">
        <ele>890.8</ele>
        <time>2025-09-10T08:16:02Z</time>
      </trkpt>
      <trkpt lat="45.84814" lon="4.39342">
        <ele>890</ele>
        <time>2025-09-10T08:16:03Z</time>
      </trkpt>
      <trkpt lat="45.84815" lon="4.39347">
        <ele>889.6</ele>
        <time>2025-09-10T08:16:04Z</time>
      </trkpt>
      <trkpt lat="45.84815" lon="4.39353">
        <ele>889.6</ele>
        <time>2025-09-10T08:16:05Z</time>
      </trkpt>
      <trkpt lat="45.84815" lon="4.39359">
        <ele>889.2</ele>
        <time>2025-09-10T08:16:06Z</time>
      </trkpt>
      <trkpt lat="45.84816" lon="4.39364">
        <ele>888.8</ele>
        <time>2025-09-10T08:16:07Z</time>
      </trkpt>
      <trkpt lat="45.84817" lon="4.39369">
        <ele>888.4</ele>
        <time>2025-09-10T08:16:08Z</time>
      </trkpt>
      <trkpt lat="45.84817" lon="4.39375">
        <ele>887.8</ele>
        <time>2025-09-10T08:16:09Z</time>
      </trkpt>
      <trkpt lat="45.84817" lon="4.39381">
        <ele>887.2</ele>
        <time>2025-09-10T08:16:10Z</time>
      </trkpt>
      <trkpt lat="45.84818" lon="4.39386">
        <ele>887</ele>
        <time>2025-09-10T08:16:11Z</time>
      </trkpt>
      <trkpt lat="45.84818" lon="4.39391">
        <ele>886</ele>
        <time>2025-09-10T08:16:12Z</time>
      </trkpt>
      <trkpt lat="45.84819" lon="4.39397">
        <ele>885.8</ele>
        <time>2025-09-10T08:16:13Z</time>
      </trkpt>
      <trkpt lat="45.8482" lon="4.39403">
        <ele>885.2</ele>
        <time>2025-09-10T08:16:14Z</time>
      </trkpt>
      <trkpt lat="45.8482" lon="4.39408">
        <ele>884.6</ele>
        <time>2025-09-10T08:16:15Z</time>
      </trkpt>
      <trkpt lat="45.84821" lon="4.39413">
        <ele>884</ele>
        <time>2025-09-10T08:16:16Z</time>
      </trkpt>
      <trkpt lat="45.84822" lon="4.39418">
        <ele>883.6</ele>
        <time>2025-09-10T08:16:17Z</time>
      </trkpt>
      <trkpt lat="45.84823" lon="4.39423">
        <ele>883</ele>
        <time>2025-09-10T08:16:18Z</time>
      </trkpt>
      <trkpt lat="45.84824" lon="4.39428">
        <ele>883</ele>
        <time>2025-09-10T08:16:19Z</time>
      </trkpt>
      <trkpt lat="45.84826" lon="4.39432">
        <ele>882.6</ele>
        <time>2025-09-10T08:16:20Z</time>
      </trkpt>
      <trkpt lat="45.84828" lon="4.39435">
        <ele>882.4</ele>
        <time>2025-09-10T08:16:21Z</time>
      </trkpt>
      <trkpt lat="45.8483" lon="4.39439">
        <ele>882</ele>
        <time>2025-09-10T08:16:22Z</time>
      </trkpt>
      <trkpt lat="45.84831" lon="4.39444">
        <ele>882</ele>
        <time>2025-09-10T08:16:23Z</time>
      </trkpt>
      <trkpt lat="45.84831" lon="4.39448">
        <ele>881.4</ele>
        <time>2025-09-10T08:16:24Z</time>
      </trkpt>
      <trkpt lat="45.84832" lon="4.39452">
        <ele>881</ele>
        <time>2025-09-10T08:16:25Z</time>
      </trkpt>
      <trkpt lat="45.84832" lon="4.39456">
        <ele>880.6</ele>
        <time>2025-09-10T08:16:26Z</time>
      </trkpt>
      <trkpt lat="45.84833" lon="4.3946">
        <ele>880.2</ele>
        <time>2025-09-10T08:16:27Z</time>
      </trkpt>
      <trkpt lat="45.84833" lon="4.39463">
        <ele>879.8</ele>
        <time>2025-09-10T08:16:28Z</time>
      </trkpt>
      <trkpt lat="45.84834" lon="4.39466">
        <ele>879.6</ele>
        <time>2025-09-10T08:16:29Z</time>
      </trkpt>
      <trkpt lat="45.84835" lon="4.39471">
        <ele>879.4</ele>
        <time>2025-09-10T08:16:30Z</time>
      </trkpt>
      <trkpt lat="45.84836" lon="4.39475">
        <ele>879</ele>
        <time>2025-09-10T08:16:31Z</time>
      </trkpt>
      <trkpt lat="45.84836" lon="4.39479">
        <ele>878.2</ele>
        <time>2025-09-10T08:16:32Z</time>
      </trkpt>
      <trkpt lat="45.84836" lon="4.39483">
        <ele>877.6</ele>
        <time>2025-09-10T08:16:33Z</time>
      </trkpt>
      <trkpt lat="45.84836" lon="4.39487">
        <ele>877.2</ele>
        <time>2025-09-10T08:16:34Z</time>
      </trkpt>
      <trkpt lat="45.84836" lon="4.3949">
        <ele>877.2</ele>
        <time>2025-09-10T08:16:35Z</time>
      </trkpt>
      <trkpt lat="45.84836" lon="4.39494">
        <ele>876.6</ele>
        <time>2025-09-10T08:16:36Z</time>
      </trkpt>
      <trkpt lat="45.84835" lon="4.39496">
        <ele>876.2</ele>
        <time>2025-09-10T08:16:37Z</time>
      </trkpt>
      <trkpt lat="45.84834" lon="4.39497">
        <ele>876.2</ele>
        <time>2025-09-10T08:16:38Z</time>
      </trkpt>
      <trkpt lat="45.84833" lon="4.39498">
        <ele>875.8</ele>
        <time>2025-09-10T08:16:39Z</time>
      </trkpt>
      <trkpt lat="45.84833" lon="4.39499">
        <ele>875.4</ele>
        <time>2025-09-10T08:16:40Z</time>
      </trkpt>
      <trkpt lat="45.84833" lon="4.39498">
        <ele>875.4</ele>
        <time>2025-09-10T08:16:41Z</time>
      </trkpt>
      <trkpt lat="45.84833" lon="4.39498">
        <ele>874.2</ele>
        <time>2025-09-10T08:16:47Z</time>
      </trkpt>
      <trkpt lat="45.84833" lon="4.39499">
        <ele>874.2</ele>
        <time>2025-09-10T08:16:48Z</time>
      </trkpt>
      <trkpt lat="45.84833" lon="4.39499">
        <ele>874.2</ele>
        <time>2025-09-10T08:16:49Z</time>
      </trkpt>
      <trkpt lat="45.84833" lon="4.39499">
        <ele>873.8</ele>
        <time>2025-09-10T08:16:50Z</time>
      </trkpt>
      <trkpt lat="45.84833" lon="4.39501">
        <ele>873.4</ele>
        <time>2025-09-10T08:16:51Z</time>
      </trkpt>
      <trkpt lat="45.84833" lon="4.39502">
        <ele>873.4</ele>
        <time>2025-09-10T08:16:52Z</time>
      </trkpt>
      <trkpt lat="45.84832" lon="4.39503">
        <ele>873.4</ele>
        <time>2025-09-10T08:16:53Z</time>
      </trkpt>
      <trkpt lat="45.84832" lon="4.39504">
        <ele>873</ele>
        <time>2025-09-10T08:16:54Z</time>
      </trkpt>
      <trkpt lat="45.84832" lon="4.39506">
        <ele>873</ele>
        <time>2025-09-10T08:16:55Z</time>
      </trkpt>
      <trkpt lat="45.84832" lon="4.39507">
        <ele>872.8</ele>
        <time>2025-09-10T08:16:56Z</time>
      </trkpt>
      <trkpt lat="45.84832" lon="4.39508">
        <ele>872.8</ele>
        <time>2025-09-10T08:16:57Z</time>
      </trkpt>
      <trkpt lat="45.84831" lon="4.39509">
        <ele>872.4</ele>
        <time>2025-09-10T08:16:58Z</time>
      </trkpt>
      <trkpt lat="45.84831" lon="4.39509">
        <ele>872.4</ele>
        <time>2025-09-10T08:16:59Z</time>
      </trkpt>
      <trkpt lat="45.84831" lon="4.39511">
        <ele>872</ele>
        <time>2025-09-10T08:17:00Z</time>
      </trkpt>
      <trkpt lat="45.84831" lon="4.39512">
        <ele>872</ele>
        <time>2025-09-10T08:17:01Z</time>
      </trkpt>
      <trkpt lat="45.84831" lon="4.39513">
        <ele>871.6</ele>
        <time>2025-09-10T08:17:02Z</time>
      </trkpt>
      <trkpt lat="45.84831" lon="4.39515">
        <ele>871.4</ele>
        <time>2025-09-10T08:17:03Z</time>
      </trkpt>
      <trkpt lat="45.84831" lon="4.39516">
        <ele>871</ele>
        <time>2025-09-10T08:17:04Z</time>
      </trkpt>
      <trkpt lat="45.84831" lon="4.39518">
        <ele>871</ele>
        <time>2025-09-10T08:17:05Z</time>
      </trkpt>
      <trkpt lat="45.8483" lon="4.39519">
        <ele>870.8</ele>
        <time>2025-09-10T08:17:06Z</time>
      </trkpt>
      <trkpt lat="45.8483" lon="4.39521">
        <ele>870.8</ele>
        <time>2025-09-10T08:17:07Z</time>
      </trkpt>
      <trkpt lat="45.84829" lon="4.39522">
        <ele>870.4</ele>
        <time>2025-09-10T08:17:08Z</time>
      </trkpt>
      <trkpt lat="45.84828" lon="4.39523">
        <ele>870.4</ele>
        <time>2025-09-10T08:17:09Z</time>
      </trkpt>
      <trkpt lat="45.84827" lon="4.39524">
        <ele>870.4</ele>
        <time>2025-09-10T08:17:10Z</time>
      </trkpt>
      <trkpt lat="45.84827" lon="4.39526">
        <ele>870.2</ele>
        <time>2025-09-10T08:17:11Z</time>
      </trkpt>
      <trkpt lat="45.84826" lon="4.39528">
        <ele>870</ele>
        <time>2025-09-10T08:17:12Z</time>
      </trkpt>
      <trkpt lat="45.84826" lon="4.39529">
        <ele>869.6</ele>
        <time>2025-09-10T08:17:13Z</time>
      </trkpt>
      <trkpt lat="45.84826" lon="4.39531">
        <ele>869.6</ele>
        <time>2025-09-10T08:17:14Z</time>
      </trkpt>
      <trkpt lat="45.84826" lon="4.39532">
        <ele>868.8</ele>
        <time>2025-09-10T08:17:15Z</time>
      </trkpt>
      <trkpt lat="45.84826" lon="4.39533">
        <ele>868.8</ele>
        <time>2025-09-10T08:17:16Z</time>
      </trkpt>
      <trkpt lat="45.84826" lon="4.39534">
        <ele>868.4</ele>
        <time>2025-09-10T08:17:17Z</time>
      </trkpt>
      <trkpt lat="45.84826" lon="4.39536">
        <ele>868</ele>
        <time>2025-09-10T08:17:18Z</time>
      </trkpt>
      <trkpt lat="45.84826" lon="4.39537">
        <ele>868</ele>
        <time>2025-09-10T08:17:19Z</time>
      </trkpt>
      <trkpt lat="45.84826" lon="4.39539">
        <ele>867.6</ele>
        <time>2025-09-10T08:17:20Z</time>
      </trkpt>
      <trkpt lat="45.84826" lon="4.39539">
        <ele>867.6</ele>
        <time>2025-09-10T08:17:21Z</time>
      </trkpt>
      <trkpt lat="45.84826" lon="4.3954">
        <ele>867.2</ele>
        <time>2025-09-10T08:17:22Z</time>
      </trkpt>
      <trkpt lat="45.84826" lon="4.39542">
        <ele>866.8</ele>
        <time>2025-09-10T08:17:23Z</time>
      </trkpt>
      <trkpt lat="45.84825" lon="4.39543">
        <ele>866.8</ele>
        <time>2025-09-10T08:17:24Z</time>
      </trkpt>
      <trkpt lat="45.84825" lon="4.39546">
        <ele>866.4</ele>
        <time>2025-09-10T08:17:25Z</time>
      </trkpt>
      <trkpt lat="45.84825" lon="4.39546">
        <ele>866.4</ele>
        <time>2025-09-10T08:17:26Z</time>
      </trkpt>
      <trkpt lat="45.84825" lon="4.39547">
        <ele>866.2</ele>
        <time>2025-09-10T08:17:27Z</time>
      </trkpt>
      <trkpt lat="45.84824" lon="4.39549">
        <ele>866.2</ele>
        <time>2025-09-10T08:17:28Z</time>
      </trkpt>
      <trkpt lat="45.84824" lon="4.3955">
        <ele>866.2</ele>
        <time>2025-09-10T08:17:29Z</time>
      </trkpt>
      <trkpt lat="45.84824" lon="4.39552">
        <ele>866</ele>
        <time>2025-09-10T08:17:30Z</time>
      </trkpt>
      <trkpt lat="45.84824" lon="4.39552">
        <ele>866</ele>
        <time>2025-09-10T08:17:31Z</time>
      </trkpt>
      <trkpt lat="45.84824" lon="4.39553">
        <ele>866</ele>
        <time>2025-09-10T08:17:32Z</time>
      </trkpt>
      <trkpt lat="45.84825" lon="4.39553">
        <ele>866</ele>
        <time>2025-09-10T08:17:33Z</time>
      </trkpt>
      <trkpt lat="45.84825" lon="4.39554">
        <ele>865.8</ele>
        <time>2025-09-10T08:17:34Z</time>
      </trkpt>
      <trkpt lat="45.84825" lon="4.39557">
        <ele>864.4</ele>
        <time>2025-09-10T08:17:47Z</time>
      </trkpt>
      <trkpt lat="45.84824" lon="4.39561">
        <ele>864.4</ele>
        <time>2025-09-10T08:17:48Z</time>
      </trkpt>
      <trkpt lat="45.84822" lon="4.39565">
        <ele>864</ele>
        <time>2025-09-10T08:17:49Z</time>
      </trkpt>
      <trkpt lat="45.84821" lon="4.39568">
        <ele>863.6</ele>
        <time>2025-09-10T08:17:50Z</time>
      </trkpt>
      <trkpt lat="45.8482" lon="4.39572">
        <ele>863.2</ele>
        <time>2025-09-10T08:17:51Z</time>
      </trkpt>
      <trkpt lat="45.84818" lon="4.39575">
        <ele>863</ele>
        <time>2025-09-10T08:17:52Z</time>
      </trkpt>
      <trkpt lat="45.84817" lon="4.39578">
        <ele>862.6</ele>
        <time>2025-09-10T08:17:53Z</time>
      </trkpt>
      <trkpt lat="45.84816" lon="4.39581">
        <ele>862</ele>
        <time>2025-09-10T08:17:54Z</time>
      </trkpt>
      <trkpt lat="45.84815" lon="4.39584">
        <ele>861.6</ele>
        <time>2025-09-10T08:17:55Z</time>
      </trkpt>
      <trkpt lat="45.84814" lon="4.39587">
        <ele>861.4</ele>
        <time>2025-09-10T08:17:56Z</time>
      </trkpt>
      <trkpt lat="45.84813" lon="4.39589">
        <ele>861.2</ele>
        <time>2025-09-10T08:17:57Z</time>
      </trkpt>
      <trkpt lat="45.84813" lon="4.39591">
        <ele>860.8</ele>
        <time>2025-09-10T08:17:58Z</time>
      </trkpt>
      <trkpt lat="45.84812" lon="4.39594">
        <ele>860.4</ele>
        <time>2025-09-10T08:17:59Z</time>
      </trkpt>
      <trkpt lat="45.8481" lon="4.39596">
        <ele>860</ele>
        <time>2025-09-10T08:18:00Z</time>
      </trkpt>
      <trkpt lat="45.84809" lon="4.39599">
        <ele>859.8</ele>
        <time>2025-09-10T08:18:01Z</time>
      </trkpt>
      <trkpt lat="45.84807" lon="4.39602">
        <ele>859.8</ele>
        <time>2025-09-10T08:18:02Z</time>
      </trkpt>
      <trkpt lat="45.84806" lon="4.39605">
        <ele>859</ele>
        <time>2025-09-10T08:18:03Z</time>
      </trkpt>
      <trkpt lat="45.84804" lon="4.39607">
        <ele>858.6</ele>
        <time>2025-09-10T08:18:04Z</time>
      </trkpt>
      <trkpt lat="45.84802" lon="4.39609">
        <ele>858.2</ele>
        <time>2025-09-10T08:18:05Z</time>
      </trkpt>
      <trkpt lat="45.84801" lon="4.3961">
        <ele>857.8</ele>
        <time>2025-09-10T08:18:06Z</time>
      </trkpt>
      <trkpt lat="45.84799" lon="4.39612">
        <ele>857.4</ele>
        <time>2025-09-10T08:18:07Z</time>
      </trkpt>
      <trkpt lat="45.84798" lon="4.39613">
        <ele>857.2</ele>
        <time>2025-09-10T08:18:08Z</time>
      </trkpt>
      <trkpt lat="45.84797" lon="4.39615">
        <ele>856.4</ele>
        <time>2025-09-10T08:18:09Z</time>
      </trkpt>
      <trkpt lat="45.84795" lon="4.39617">
        <ele>856</ele>
        <time>2025-09-10T08:18:10Z</time>
      </trkpt>
      <trkpt lat="45.84793" lon="4.39619">
        <ele>855.6</ele>
        <time>2025-09-10T08:18:11Z</time>
      </trkpt>
      <trkpt lat="45.84791" lon="4.39622">
        <ele>855.4</ele>
        <time>2025-09-10T08:18:12Z</time>
      </trkpt>
      <trkpt lat="45.84788" lon="4.39625">
        <ele>855.4</ele>
        <time>2025-09-10T08:18:13Z</time>
      </trkpt>
      <trkpt lat="45.84786" lon="4.39628">
        <ele>855</ele>
        <time>2025-09-10T08:18:14Z</time>
      </trkpt>
      <trkpt lat="45.84784" lon="4.3963">
        <ele>854.6</ele>
        <time>2025-09-10T08:18:15Z</time>
      </trkpt>
      <trkpt lat="45.84782" lon="4.39631">
        <ele>854.2</ele>
        <time>2025-09-10T08:18:16Z</time>
      </trkpt>
      <trkpt lat="45.84779" lon="4.39634">
        <ele>853.8</ele>
        <time>2025-09-10T08:18:17Z</time>
      </trkpt>
      <trkpt lat="45.84777" lon="4.39636">
        <ele>853.4</ele>
        <time>2025-09-10T08:18:18Z</time>
      </trkpt>
      <trkpt lat="45.84776" lon="4.39639">
        <ele>853</ele>
        <time>2025-09-10T08:18:19Z</time>
      </trkpt>
      <trkpt lat="45.84774" lon="4.39642">
        <ele>852.4</ele>
        <time>2025-09-10T08:18:20Z</time>
      </trkpt>
      <trkpt lat="45.84772" lon="4.39645">
        <ele>852.2</ele>
        <time>2025-09-10T08:18:21Z</time>
      </trkpt>
      <trkpt lat="45.8477" lon="4.39648">
        <ele>851.8</ele>
        <time>2025-09-10T08:18:22Z</time>
      </trkpt>
      <trkpt lat="45.84768" lon="4.3965">
        <ele>851.4</ele>
        <time>2025-09-10T08:18:23Z</time>
      </trkpt>
      <trkpt lat="45.84766" lon="4.39652">
        <ele>851</ele>
        <time>2025-09-10T08:18:24Z</time>
      </trkpt>
      <trkpt lat="45.84764" lon="4.39653">
        <ele>850.6</ele>
        <time>2025-09-10T08:18:25Z</time>
      </trkpt>
      <trkpt lat="45.84763" lon="4.39655">
        <ele>850.2</ele>
        <time>2025-09-10T08:18:26Z</time>
      </trkpt>
      <trkpt lat="45.84762" lon="4.39658">
        <ele>849.8</ele>
        <time>2025-09-10T08:18:27Z</time>
      </trkpt>
      <trkpt lat="45.84761" lon="4.3966">
        <ele>849.2</ele>
        <time>2025-09-10T08:18:28Z</time>
      </trkpt>
      <trkpt lat="45.84761" lon="4.39661">
        <ele>848.6</ele>
        <time>2025-09-10T08:18:29Z</time>
      </trkpt>
      <trkpt lat="45.84762" lon="4.39664">
        <ele>848</ele>
        <time>2025-09-10T08:18:30Z</time>
      </trkpt>
      <trkpt lat="45.84762" lon="4.39667">
        <ele>847.6</ele>
        <time>2025-09-10T08:18:31Z</time>
      </trkpt>
      <trkpt lat="45.84761" lon="4.39671">
        <ele>847.2</ele>
        <time>2025-09-10T08:18:32Z</time>
      </trkpt>
      <trkpt lat="45.8476" lon="4.39675">
        <ele>846.4</ele>
        <time>2025-09-10T08:18:33Z</time>
      </trkpt>
      <trkpt lat="45.84759" lon="4.3968">
        <ele>846.2</ele>
        <time>2025-09-10T08:18:34Z</time>
      </trkpt>
      <trkpt lat="45.84757" lon="4.39684">
        <ele>845.6</ele>
        <time>2025-09-10T08:18:35Z</time>
      </trkpt>
      <trkpt lat="45.84755" lon="4.39687">
        <ele>845.2</ele>
        <time>2025-09-10T08:18:36Z</time>
      </trkpt>
      <trkpt lat="45.84752" lon="4.39691">
        <ele>844.6</ele>
        <time>2025-09-10T08:18:37Z</time>
      </trkpt>
      <trkpt lat="45.84749" lon="4.39695">
        <ele>844</ele>
        <time>2025-09-10T08:18:38Z</time>
      </trkpt>
      <trkpt lat="45.84746" lon="4.397">
        <ele>843.6</ele>
        <time>2025-09-10T08:18:39Z</time>
      </trkpt>
      <trkpt lat="45.84744" lon="4.39705">
        <ele>843</ele>
        <time>2025-09-10T08:18:40Z</time>
      </trkpt>
      <trkpt lat="45.84742" lon="4.39709">
        <ele>842.8</ele>
        <time>2025-09-10T08:18:41Z</time>
      </trkpt>
      <trkpt lat="45.84742" lon="4.39711">
        <ele>842.4</ele>
        <time>2025-09-10T08:18:42Z</time>
      </trkpt>
      <trkpt lat="45.84741" lon="4.39713">
        <ele>841.8</ele>
        <time>2025-09-10T08:18:43Z</time>
      </trkpt>
      <trkpt lat="45.8474" lon="4.39717">
        <ele>841.4</ele>
        <time>2025-09-10T08:18:44Z</time>
      </trkpt>
      <trkpt lat="45.84738" lon="4.3972">
        <ele>840.8</ele>
        <time>2025-09-10T08:18:45Z</time>
      </trkpt>
      <trkpt lat="45.84737" lon="4.39723">
        <ele>839.6</ele>
        <time>2025-09-10T08:18:46Z</time>
      </trkpt>
      <trkpt lat="45.84735" lon="4.39727">
        <ele>839.6</ele>
        <time>2025-09-10T08:18:47Z</time>
      </trkpt>
      <trkpt lat="45.84733" lon="4.39731">
        <ele>839.2</ele>
        <time>2025-09-10T08:18:48Z</time>
      </trkpt>
      <trkpt lat="45.84731" lon="4.39734">
        <ele>838.6</ele>
        <time>2025-09-10T08:18:49Z</time>
      </trkpt>
      <trkpt lat="45.84729" lon="4.39737">
        <ele>838</ele>
        <time>2025-09-10T08:18:50Z</time>
      </trkpt>
      <trkpt lat="45.84728" lon="4.39739">
        <ele>837.6</ele>
        <time>2025-09-10T08:18:51Z</time>
      </trkpt>
      <trkpt lat="45.84727" lon="4.39741">
        <ele>837.2</ele>
        <time>2025-09-10T08:18:52Z</time>
      </trkpt>
      <trkpt lat="45.84726" lon="4.39744">
        <ele>836.6</ele>
        <time>2025-09-10T08:18:53Z</time>
      </trkpt>
      <trkpt lat="45.84726" lon="4.39747">
        <ele>836.4</ele>
        <time>2025-09-10T08:18:54Z</time>
      </trkpt>
      <trkpt lat="45.84725" lon="4.39749">
        <ele>836</ele>
        <time>2025-09-10T08:18:55Z</time>
      </trkpt>
      <trkpt lat="45.84725" lon="4.3975">
        <ele>835.8</ele>
        <time>2025-09-10T08:18:56Z</time>
      </trkpt>
      <trkpt lat="45.84725" lon="4.39752">
        <ele>835.4</ele>
        <time>2025-09-10T08:18:57Z</time>
      </trkpt>
      <trkpt lat="45.84725" lon="4.39753">
        <ele>835.2</ele>
        <time>2025-09-10T08:18:58Z</time>
      </trkpt>
      <trkpt lat="45.84725" lon="4.39753">
        <ele>835.2</ele>
        <time>2025-09-10T08:18:59Z</time>
      </trkpt>
      <trkpt lat="45.84725" lon="4.39757">
        <ele>834.2</ele>
        <time>2025-09-10T08:19:11Z</time>
      </trkpt>
      <trkpt lat="45.84723" lon="4.39758">
        <ele>834</ele>
        <time>2025-09-10T08:19:12Z</time>
      </trkpt>
      <trkpt lat="45.84722" lon="4.39761">
        <ele>833.8</ele>
        <time>2025-09-10T08:19:13Z</time>
      </trkpt>
      <trkpt lat="45.8472" lon="4.39763">
        <ele>833.8</ele>
        <time>2025-09-10T08:19:14Z</time>
      </trkpt>
      <trkpt lat="45.84719" lon="4.39765">
        <ele>833.4</ele>
        <time>2025-09-10T08:19:15Z</time>
      </trkpt>
      <trkpt lat="45.84717" lon="4.39767">
        <ele>833</ele>
        <time>2025-09-10T08:19:16Z</time>
      </trkpt>
      <trkpt lat="45.84716" lon="4.3977">
        <ele>833</ele>
        <time>2025-09-10T08:19:17Z</time>
      </trkpt>
      <trkpt lat="45.84715" lon="4.39774">
        <ele>832.4</ele>
        <time>2025-09-10T08:19:18Z</time>
      </trkpt>
      <trkpt lat="45.84714" lon="4.39777">
        <ele>832</ele>
        <time>2025-09-10T08:19:19Z</time>
      </trkpt>
      <trkpt lat="45.84713" lon="4.39781">
        <ele>831.6</ele>
        <time>2025-09-10T08:19:20Z</time>
      </trkpt>
      <trkpt lat="45.84712" lon="4.39784">
        <ele>831.2</ele>
        <time>2025-09-10T08:19:21Z</time>
      </trkpt>
      <trkpt lat="45.84711" lon="4.39787">
        <ele>830.8</ele>
        <time>2025-09-10T08:19:22Z</time>
      </trkpt>
      <trkpt lat="45.8471" lon="4.39791">
        <ele>830.2</ele>
        <time>2025-09-10T08:19:23Z</time>
      </trkpt>
      <trkpt lat="45.84709" lon="4.39795">
        <ele>829.6</ele>
        <time>2025-09-10T08:19:24Z</time>
      </trkpt>
      <trkpt lat="45.84708" lon="4.39799">
        <ele>828.8</ele>
        <time>2025-09-10T08:19:25Z</time>
      </trkpt>
      <trkpt lat="45.84707" lon="4.39802">
        <ele>828.2</ele>
        <time>2025-09-10T08:19:26Z</time>
      </trkpt>
      <trkpt lat="45.84707" lon="4.39806">
        <ele>827.6</ele>
        <time>2025-09-10T08:19:27Z</time>
      </trkpt>
      <trkpt lat="45.84706" lon="4.3981">
        <ele>827.2</ele>
        <time>2025-09-10T08:19:28Z</time>
      </trkpt>
      <trkpt lat="45.84706" lon="4.39813">
        <ele>827</ele>
        <time>2025-09-10T08:19:29Z</time>
      </trkpt>
      <trkpt lat="45.84706" lon="4.39816">
        <ele>826.6</ele>
        <time>2025-09-10T08:19:30Z</time>
      </trkpt>
      <trkpt lat="45.84706" lon="4.39819">
        <ele>826.2</ele>
        <time>2025-09-10T08:19:31Z</time>
      </trkpt>
      <trkpt lat="45.84706" lon="4.39822">
        <ele>826.2</ele>
        <time>2025-09-10T08:19:32Z</time>
      </trkpt>
      <trkpt lat="45.84706" lon="4.39823">
        <ele>826</ele>
        <time>2025-09-10T08:19:33Z</time>
      </trkpt>
      <trkpt lat="45.84707" lon="4.39826">
        <ele>825.6</ele>
        <time>2025-09-10T08:19:34Z</time>
      </trkpt>
      <trkpt lat="45.84707" lon="4.39829">
        <ele>825.6</ele>
        <time>2025-09-10T08:19:35Z</time>
      </trkpt>
      <trkpt lat="45.84707" lon="4.39832">
        <ele>825.2</ele>
        <time>2025-09-10T08:19:36Z</time>
      </trkpt>
      <trkpt lat="45.84707" lon="4.39835">
        <ele>825</ele>
        <time>2025-09-10T08:19:37Z</time>
      </trkpt>
      <trkpt lat="45.84707" lon="4.39838">
        <ele>825</ele>
        <time>2025-09-10T08:19:38Z</time>
      </trkpt>
      <trkpt lat="45.84707" lon="4.3984">
        <ele>825</ele>
        <time>2025-09-10T08:19:39Z</time>
      </trkpt>
      <trkpt lat="45.84707" lon="4.39841">
        <ele>824.8</ele>
        <time>2025-09-10T08:19:40Z</time>
      </trkpt>
      <trkpt lat="45.84707" lon="4.39842">
        <ele>824.8</ele>
        <time>2025-09-10T08:19:41Z</time>
      </trkpt>
      <trkpt lat="45.84706" lon="4.39841">
        <ele>824.4</ele>
        <time>2025-09-10T08:19:42Z</time>
      </trkpt>
      <trkpt lat="45.84705" lon="4.39842">
        <ele>824.2</ele>
        <time>2025-09-10T08:19:49Z</time>
      </trkpt>
      <trkpt lat="45.84704" lon="4.39844">
        <ele>824</ele>
        <time>2025-09-10T08:19:50Z</time>
      </trkpt>
      <trkpt lat="45.84704" lon="4.39848">
        <ele>824</ele>
        <time>2025-09-10T08:19:51Z</time>
      </trkpt>
      <trkpt lat="45.84704" lon="4.39852">
        <ele>823.8</ele>
        <time>2025-09-10T08:19:52Z</time>
      </trkpt>
      <trkpt lat="45.84703" lon="4.39856">
        <ele>823.8</ele>
        <time>2025-09-10T08:19:53Z</time>
      </trkpt>
      <trkpt lat="45.84704" lon="4.3986">
        <ele>823.8</ele>
        <time>2025-09-10T08:19:54Z</time>
      </trkpt>
      <trkpt lat="45.84706" lon="4.39864">
        <ele>823.8</ele>
        <time>2025-09-10T08:19:55Z</time>
      </trkpt>
      <trkpt lat="45.84709" lon="4.39868">
        <ele>823.8</ele>
        <time>2025-09-10T08:19:56Z</time>
      </trkpt>
      <trkpt lat="45.84712" lon="4.39872">
        <ele>823.8</ele>
        <time>2025-09-10T08:19:57Z</time>
      </trkpt>
      <trkpt lat="45.84715" lon="4.39875">
        <ele>823.8</ele>
        <time>2025-09-10T08:19:58Z</time>
      </trkpt>
      <trkpt lat="45.84718" lon="4.39879">
        <ele>823.8</ele>
        <time>2025-09-10T08:19:59Z</time>
      </trkpt>
      <trkpt lat="45.84721" lon="4.39883">
        <ele>823.6</ele>
        <time>2025-09-10T08:20:00Z</time>
      </trkpt>
      <trkpt lat="45.84724" lon="4.39887">
        <ele>823.6</ele>
        <time>2025-09-10T08:20:01Z</time>
      </trkpt>
      <trkpt lat="45.84726" lon="4.39892">
        <ele>823.6</ele>
        <time>2025-09-10T08:20:02Z</time>
      </trkpt>
      <trkpt lat="45.84726" lon="4.39897">
        <ele>823.2</ele>
        <time>2025-09-10T08:20:03Z</time>
      </trkpt>
      <trkpt lat="45.84725" lon="4.39903">
        <ele>823.2</ele>
        <time>2025-09-10T08:20:04Z</time>
      </trkpt>
      <trkpt lat="45.84723" lon="4.39908">
        <ele>823.4</ele>
        <time>2025-09-10T08:20:05Z</time>
      </trkpt>
      <trkpt lat="45.8472" lon="4.39912">
        <ele>823.4</ele>
        <time>2025-09-10T08:20:06Z</time>
      </trkpt>
      <trkpt lat="45.84717" lon="4.39916">
        <ele>823.4</ele>
        <time>2025-09-10T08:20:07Z</time>
      </trkpt>
      <trkpt lat="45.84714" lon="4.39919">
        <ele>823</ele>
        <time>2025-09-10T08:20:08Z</time>
      </trkpt>
      <trkpt lat="45.84711" lon="4.39923">
        <ele>823</ele>
        <time>2025-09-10T08:20:09Z</time>
      </trkpt>
      <trkpt lat="45.84708" lon="4.39927">
        <ele>823</ele>
        <time>2025-09-10T08:20:10Z</time>
      </trkpt>
      <trkpt lat="45.84705" lon="4.39931">
        <ele>823</ele>
        <time>2025-09-10T08:20:11Z</time>
      </trkpt>
      <trkpt lat="45.84702" lon="4.39934">
        <ele>823</ele>
        <time>2025-09-10T08:20:12Z</time>
      </trkpt>
      <trkpt lat="45.84699" lon="4.39938">
        <ele>823</ele>
        <time>2025-09-10T08:20:13Z</time>
      </trkpt>
      <trkpt lat="45.84697" lon="4.39943">
        <ele>823</ele>
        <time>2025-09-10T08:20:14Z</time>
      </trkpt>
      <trkpt lat="45.84694" lon="4.39947">
        <ele>823</ele>
        <time>2025-09-10T08:20:15Z</time>
      </trkpt>
      <trkpt lat="45.84691" lon="4.39951">
        <ele>823</ele>
        <time>2025-09-10T08:20:16Z</time>
      </trkpt>
      <trkpt lat="45.84688" lon="4.39954">
        <ele>823</ele>
        <time>2025-09-10T08:20:17Z</time>
      </trkpt>
      <trkpt lat="45.84684" lon="4.39957">
        <ele>823.2</ele>
        <time>2025-09-10T08:20:18Z</time>
      </trkpt>
      <trkpt lat="45.84681" lon="4.3996">
        <ele>823.2</ele>
        <time>2025-09-10T08:20:19Z</time>
      </trkpt>
      <trkpt lat="45.84678" lon="4.39963">
        <ele>823.2</ele>
        <time>2025-09-10T08:20:20Z</time>
      </trkpt>
      <trkpt lat="45.84675" lon="4.39965">
        <ele>823.2</ele>
        <time>2025-09-10T08:20:21Z</time>
      </trkpt>
      <trkpt lat="45.84671" lon="4.39968">
        <ele>823.2</ele>
        <time>2025-09-10T08:20:22Z</time>
      </trkpt>
      <trkpt lat="45.84669" lon="4.3997">
        <ele>823.2</ele>
        <time>2025-09-10T08:20:23Z</time>
      </trkpt>
      <trkpt lat="45.84666" lon="4.39972">
        <ele>823.2</ele>
        <time>2025-09-10T08:20:24Z</time>
      </trkpt>
      <trkpt lat="45.84664" lon="4.39975">
        <ele>823.6</ele>
        <time>2025-09-10T08:20:25Z</time>
      </trkpt>
      <trkpt lat="45.84662" lon="4.39979">
        <ele>823.6</ele>
        <time>2025-09-10T08:20:26Z</time>
      </trkpt>
      <trkpt lat="45.8466" lon="4.39982">
        <ele>823.6</ele>
        <time>2025-09-10T08:20:27Z</time>
      </trkpt>
      <trkpt lat="45.84658" lon="4.39985">
        <ele>824.2</ele>
        <time>2025-09-10T08:20:28Z</time>
      </trkpt>
      <trkpt lat="45.84657" lon="4.39987">
        <ele>824.4</ele>
        <time>2025-09-10T08:20:29Z</time>
      </trkpt>
      <trkpt lat="45.84656" lon="4.39989">
        <ele>824.8</ele>
        <time>2025-09-10T08:20:30Z</time>
      </trkpt>
      <trkpt lat="45.84655" lon="4.39991">
        <ele>825</ele>
        <time>2025-09-10T08:20:31Z</time>
      </trkpt>
      <trkpt lat="45.84655" lon="4.39993">
        <ele>825.4</ele>
        <time>2025-09-10T08:20:32Z</time>
      </trkpt>
      <trkpt lat="45.84654" lon="4.39994">
        <ele>825.4</ele>
        <time>2025-09-10T08:20:33Z</time>
      </trkpt>
      <trkpt lat="45.84653" lon="4.39996">
        <ele>825.8</ele>
        <time>2025-09-10T08:20:34Z</time>
      </trkpt>
      <trkpt lat="45.84652" lon="4.39998">
        <ele>825.8</ele>
        <time>2025-09-10T08:20:35Z</time>
      </trkpt>
      <trkpt lat="45.84651" lon="4.39999">
        <ele>826.2</ele>
        <time>2025-09-10T08:20:36Z</time>
      </trkpt>
      <trkpt lat="45.8465" lon="4.40001">
        <ele>826.2</ele>
        <time>2025-09-10T08:20:37Z</time>
      </trkpt>
      <trkpt lat="45.84649" lon="4.40003">
        <ele>826.6</ele>
        <time>2025-09-10T08:20:38Z</time>
      </trkpt>
      <trkpt lat="45.84648" lon="4.40005">
        <ele>826.6</ele>
        <time>2025-09-10T08:20:39Z</time>
      </trkpt>
      <trkpt lat="45.84648" lon="4.40007">
        <ele>826.8</ele>
        <time>2025-09-10T08:20:40Z</time>
      </trkpt>
      <trkpt lat="45.84647" lon="4.40009">
        <ele>826.8</ele>
        <time>2025-09-10T08:20:41Z</time>
      </trkpt>
      <trkpt lat="45.84647" lon="4.40011">
        <ele>827.4</ele>
        <time>2025-09-10T08:20:42Z</time>
      </trkpt>
      <trkpt lat="45.84647" lon="4.40012">
        <ele>827.4</ele>
        <time>2025-09-10T08:20:43Z</time>
      </trkpt>
      <trkpt lat="45.84647" lon="4.40014">
        <ele>827.8</ele>
        <time>2025-09-10T08:20:44Z</time>
      </trkpt>
      <trkpt lat="45.84647" lon="4.40016">
        <ele>828.2</ele>
        <time>2025-09-10T08:20:45Z</time>
      </trkpt>
      <trkpt lat="45.84647" lon="4.40018">
        <ele>828.2</ele>
        <time>2025-09-10T08:20:46Z</time>
      </trkpt>
      <trkpt lat="45.84646" lon="4.4002">
        <ele>828.2</ele>
        <time>2025-09-10T08:20:47Z</time>
      </trkpt>
      <trkpt lat="45.84646" lon="4.40022">
        <ele>828.2</ele>
        <time>2025-09-10T08:20:48Z</time>
      </trkpt>
      <trkpt lat="45.84646" lon="4.40024">
        <ele>828.2</ele>
        <time>2025-09-10T08:20:49Z</time>
      </trkpt>
      <trkpt lat="45.84645" lon="4.40026">
        <ele>828.4</ele>
        <time>2025-09-10T08:20:50Z</time>
      </trkpt>
      <trkpt lat="45.84646" lon="4.40027">
        <ele>828.4</ele>
        <time>2025-09-10T08:20:51Z</time>
      </trkpt>
      <trkpt lat="45.84646" lon="4.40029">
        <ele>828.6</ele>
        <time>2025-09-10T08:20:52Z</time>
      </trkpt>
      <trkpt lat="45.84646" lon="4.40031">
        <ele>828.6</ele>
        <time>2025-09-10T08:20:53Z</time>
      </trkpt>
      <trkpt lat="45.84646" lon="4.40033">
        <ele>829.2</ele>
        <time>2025-09-10T08:20:54Z</time>
      </trkpt>
      <trkpt lat="45.84646" lon="4.40035">
        <ele>829.2</ele>
        <time>2025-09-10T08:20:55Z</time>
      </trkpt>
      <trkpt lat="45.84645" lon="4.40037">
        <ele>829.2</ele>
        <time>2025-09-10T08:20:56Z</time>
      </trkpt>
      <trkpt lat="45.84645" lon="4.40038">
        <ele>829.4</ele>
        <time>2025-09-10T08:20:57Z</time>
      </trkpt>
      <trkpt lat="45.84645" lon="4.40041">
        <ele>829.4</ele>
        <time>2025-09-10T08:20:58Z</time>
      </trkpt>
      <trkpt lat="45.84644" lon="4.40042">
        <ele>829.4</ele>
        <time>2025-09-10T08:20:59Z</time>
      </trkpt>
      <trkpt lat="45.84644" lon="4.40044">
        <ele>829.4</ele>
        <time>2025-09-10T08:21:00Z</time>
      </trkpt>
      <trkpt lat="45.84644" lon="4.40046">
        <ele>829.4</ele>
        <time>2025-09-10T08:21:01Z</time>
      </trkpt>
      <trkpt lat="45.84645" lon="4.40048">
        <ele>829.8</ele>
        <time>2025-09-10T08:21:02Z</time>
      </trkpt>
      <trkpt lat="45.84645" lon="4.4005">
        <ele>829.8</ele>
        <time>2025-09-10T08:21:03Z</time>
      </trkpt>
      <trkpt lat="45.84646" lon="4.40051">
        <ele>830.2</ele>
        <time>2025-09-10T08:21:04Z</time>
      </trkpt>
      <trkpt lat="45.84646" lon="4.40052">
        <ele>830.2</ele>
        <time>2025-09-10T08:21:05Z</time>
      </trkpt>
      <trkpt lat="45.84646" lon="4.40054">
        <ele>830.2</ele>
        <time>2025-09-10T08:21:06Z</time>
      </trkpt>
      <trkpt lat="45.84645" lon="4.40055">
        <ele>830.4</ele>
        <time>2025-09-10T08:21:07Z</time>
      </trkpt>
      <trkpt lat="45.84645" lon="4.40057">
        <ele>830.4</ele>
        <time>2025-09-10T08:21:08Z</time>
      </trkpt>
      <trkpt lat="45.84645" lon="4.40058">
        <ele>830.6</ele>
        <time>2025-09-10T08:21:09Z</time>
      </trkpt>
      <trkpt lat="45.84645" lon="4.4006">
        <ele>830.6</ele>
        <time>2025-09-10T08:21:10Z</time>
      </trkpt>
      <trkpt lat="45.84646" lon="4.40061">
        <ele>831</ele>
        <time>2025-09-10T08:21:11Z</time>
      </trkpt>
      <trkpt lat="45.84646" lon="4.40063">
        <ele>831</ele>
        <time>2025-09-10T08:21:12Z</time>
      </trkpt>
      <trkpt lat="45.84646" lon="4.40064">
        <ele>831.2</ele>
        <time>2025-09-10T08:21:13Z</time>
      </trkpt>
      <trkpt lat="45.84646" lon="4.40066">
        <ele>831.2</ele>
        <time>2025-09-10T08:21:14Z</time>
      </trkpt>
      <trkpt lat="45.84647" lon="4.40067">
        <ele>831.6</ele>
        <time>2025-09-10T08:21:15Z</time>
      </trkpt>
      <trkpt lat="45.84647" lon="4.40069">
        <ele>831.6</ele>
        <time>2025-09-10T08:21:16Z</time>
      </trkpt>
      <trkpt lat="45.84648" lon="4.4007">
        <ele>832</ele>
        <time>2025-09-10T08:21:17Z</time>
      </trkpt>
      <trkpt lat="45.84648" lon="4.40071">
        <ele>832</ele>
        <time>2025-09-10T08:21:18Z</time>
      </trkpt>
      <trkpt lat="45.84648" lon="4.40072">
        <ele>832</ele>
        <time>2025-09-10T08:21:19Z</time>
      </trkpt>
      <trkpt lat="45.84648" lon="4.40074">
        <ele>832.2</ele>
        <time>2025-09-10T08:21:20Z</time>
      </trkpt>
      <trkpt lat="45.84649" lon="4.40075">
        <ele>832.2</ele>
        <time>2025-09-10T08:21:21Z</time>
      </trkpt>
      <trkpt lat="45.84649" lon="4.40076">
        <ele>832.6</ele>
        <time>2025-09-10T08:21:22Z</time>
      </trkpt>
      <trkpt lat="45.8465" lon="4.40076">
        <ele>832.6</ele>
        <time>2025-09-10T08:21:23Z</time>
      </trkpt>
      <trkpt lat="45.84651" lon="4.40078">
        <ele>833</ele>
        <time>2025-09-10T08:21:24Z</time>
      </trkpt>
      <trkpt lat="45.84651" lon="4.40079">
        <ele>833</ele>
        <time>2025-09-10T08:21:25Z</time>
      </trkpt>
      <trkpt lat="45.84651" lon="4.40081">
        <ele>833.2</ele>
        <time>2025-09-10T08:21:26Z</time>
      </trkpt>
      <trkpt lat="45.84651" lon="4.40082">
        <ele>833.4</ele>
        <time>2025-09-10T08:21:27Z</time>
      </trkpt>
      <trkpt lat="45.84651" lon="4.40084">
        <ele>833.8</ele>
        <time>2025-09-10T08:21:28Z</time>
      </trkpt>
      <trkpt lat="45.84651" lon="4.40085">
        <ele>833.8</ele>
        <time>2025-09-10T08:21:29Z</time>
      </trkpt>
      <trkpt lat="45.84651" lon="4.40086">
        <ele>834</ele>
        <time>2025-09-10T08:21:30Z</time>
      </trkpt>
      <trkpt lat="45.84652" lon="4.40088">
        <ele>834.2</ele>
        <time>2025-09-10T08:21:31Z</time>
      </trkpt>
      <trkpt lat="45.84653" lon="4.40089">
        <ele>834.4</ele>
        <time>2025-09-10T08:21:32Z</time>
      </trkpt>
      <trkpt lat="45.84654" lon="4.4009">
        <ele>834.6</ele>
        <time>2025-09-10T08:21:33Z</time>
      </trkpt>
      <trkpt lat="45.84655" lon="4.40091">
        <ele>834.8</ele>
        <time>2025-09-10T08:21:34Z</time>
      </trkpt>
      <trkpt lat="45.84654" lon="4.40091">
        <ele>835</ele>
        <time>2025-09-10T08:21:35Z</time>
      </trkpt>
      <trkpt lat="45.84654" lon="4.40091">
        <ele>835</ele>
        <time>2025-09-10T08:21:36Z</time>
      </trkpt>
      <trkpt lat="45.84654" lon="4.40095">
        <ele>835</ele>
        <time>2025-09-10T08:21:41Z</time>
      </trkpt>
      <trkpt lat="45.84654" lon="4.40097">
        <ele>835</ele>
        <time>2025-09-10T08:21:42Z</time>
      </trkpt>
      <trkpt lat="45.84655" lon="4.40099">
        <ele>835</ele>
        <time>2025-09-10T08:21:43Z</time>
      </trkpt>
      <trkpt lat="45.84655" lon="4.40101">
        <ele>835</ele>
        <time>2025-09-10T08:21:44Z</time>
      </trkpt>
      <trkpt lat="45.84656" lon="4.40103">
        <ele>835</ele>
        <time>2025-09-10T08:21:45Z</time>
      </trkpt>
      <trkpt lat="45.84656" lon="4.40105">
        <ele>835</ele>
        <time>2025-09-10T08:21:46Z</time>
      </trkpt>
      <trkpt lat="45.84657" lon="4.40107">
        <ele>835.4</ele>
        <time>2025-09-10T08:21:47Z</time>
      </trkpt>
      <trkpt lat="45.84657" lon="4.40109">
        <ele>835.4</ele>
        <time>2025-09-10T08:21:48Z</time>
      </trkpt>
      <trkpt lat="45.84658" lon="4.4011">
        <ele>835.6</ele>
        <time>2025-09-10T08:21:49Z</time>
      </trkpt>
      <trkpt lat="45.84658" lon="4.40112">
        <ele>835.6</ele>
        <time>2025-09-10T08:21:50Z</time>
      </trkpt>
      <trkpt lat="45.84658" lon="4.40113">
        <ele>836</ele>
        <time>2025-09-10T08:21:51Z</time>
      </trkpt>
      <trkpt lat="45.84659" lon="4.40115">
        <ele>836.2</ele>
        <time>2025-09-10T08:21:52Z</time>
      </trkpt>
      <trkpt lat="45.84659" lon="4.40117">
        <ele>836.2</ele>
        <time>2025-09-10T08:21:53Z</time>
      </trkpt>
      <trkpt lat="45.84659" lon="4.40118">
        <ele>836.2</ele>
        <time>2025-09-10T08:21:54Z</time>
      </trkpt>
      <trkpt lat="45.84659" lon="4.4012">
        <ele>836.2</ele>
        <time>2025-09-10T08:21:55Z</time>
      </trkpt>
      <trkpt lat="45.8466" lon="4.40122">
        <ele>836.6</ele>
        <time>2025-09-10T08:21:56Z</time>
      </trkpt>
      <trkpt lat="45.84661" lon="4.40123">
        <ele>836.6</ele>
        <time>2025-09-10T08:21:57Z</time>
      </trkpt>
      <trkpt lat="45.84662" lon="4.40124">
        <ele>836.6</ele>
        <time>2025-09-10T08:21:58Z</time>
      </trkpt>
      <trkpt lat="45.84663" lon="4.40125">
        <ele>837</ele>
        <time>2025-09-10T08:21:59Z</time>
      </trkpt>
      <trkpt lat="45.84664" lon="4.40126">
        <ele>837</ele>
        <time>2025-09-10T08:22:00Z</time>
      </trkpt>
      <trkpt lat="45.84664" lon="4.40128">
        <ele>837.2</ele>
        <time>2025-09-10T08:22:01Z</time>
      </trkpt>
      <trkpt lat="45.84664" lon="4.4013">
        <ele>837.2</ele>
        <time>2025-09-10T08:22:02Z</time>
      </trkpt>
      <trkpt lat="45.84664" lon="4.40132">
        <ele>837.2</ele>
        <time>2025-09-10T08:22:03Z</time>
      </trkpt>
      <trkpt lat="45.84664" lon="4.40133">
        <ele>837.4</ele>
        <time>2025-09-10T08:22:04Z</time>
      </trkpt>
      <trkpt lat="45.84664" lon="4.40135">
        <ele>837.4</ele>
        <time>2025-09-10T08:22:05Z</time>
      </trkpt>
      <trkpt lat="45.84665" lon="4.40136">
        <ele>837.6</ele>
        <time>2025-09-10T08:22:06Z</time>
      </trkpt>
      <trkpt lat="45.84666" lon="4.40137">
        <ele>837.8</ele>
        <time>2025-09-10T08:22:07Z</time>
      </trkpt>
      <trkpt lat="45.84666" lon="4.40139">
        <ele>837.8</ele>
        <time>2025-09-10T08:22:08Z</time>
      </trkpt>
      <trkpt lat="45.84666" lon="4.4014">
        <ele>838.2</ele>
        <time>2025-09-10T08:22:09Z</time>
      </trkpt>
      <trkpt lat="45.84667" lon="4.40142">
        <ele>838.2</ele>
        <time>2025-09-10T08:22:10Z</time>
      </trkpt>
      <trkpt lat="45.84667" lon="4.40143">
        <ele>838.6</ele>
        <time>2025-09-10T08:22:11Z</time>
      </trkpt>
      <trkpt lat="45.84667" lon="4.40145">
        <ele>838.6</ele>
        <time>2025-09-10T08:22:12Z</time>
      </trkpt>
      <trkpt lat="45.84667" lon="4.40146">
        <ele>839</ele>
        <time>2025-09-10T08:22:13Z</time>
      </trkpt>
      <trkpt lat="45.84667" lon="4.40148">
        <ele>839</ele>
        <time>2025-09-10T08:22:14Z</time>
      </trkpt>
      <trkpt lat="45.84668" lon="4.40149">
        <ele>839.2</ele>
        <time>2025-09-10T08:22:15Z</time>
      </trkpt>
      <trkpt lat="45.84668" lon="4.40151">
        <ele>839.2</ele>
        <time>2025-09-10T08:22:16Z</time>
      </trkpt>
      <trkpt lat="45.84669" lon="4.40152">
        <ele>839.4</ele>
        <time>2025-09-10T08:22:17Z</time>
      </trkpt>
      <trkpt lat="45.84669" lon="4.40154">
        <ele>839.4</ele>
        <time>2025-09-10T08:22:18Z</time>
      </trkpt>
      <trkpt lat="45.84669" lon="4.40155">
        <ele>839.6</ele>
        <time>2025-09-10T08:22:19Z</time>
      </trkpt>
      <trkpt lat="45.84669" lon="4.40155">
        <ele>839.6</ele>
        <time>2025-09-10T08:22:20Z</time>
      </trkpt>
      <trkpt lat="45.8467" lon="4.40156">
        <ele>839.6</ele>
        <time>2025-09-10T08:22:21Z</time>
      </trkpt>
      <trkpt lat="45.8467" lon="4.40158">
        <ele>840</ele>
        <time>2025-09-10T08:22:22Z</time>
      </trkpt>
      <trkpt lat="45.84671" lon="4.40159">
        <ele>840</ele>
        <time>2025-09-10T08:22:23Z</time>
      </trkpt>
      <trkpt lat="45.84672" lon="4.4016">
        <ele>840.2</ele>
        <time>2025-09-10T08:22:24Z</time>
      </trkpt>
      <trkpt lat="45.84672" lon="4.40162">
        <ele>840.2</ele>
        <time>2025-09-10T08:22:25Z</time>
      </trkpt>
      <trkpt lat="45.84673" lon="4.40164">
        <ele>840.6</ele>
        <time>2025-09-10T08:22:26Z</time>
      </trkpt>
      <trkpt lat="45.84673" lon="4.40165">
        <ele>840.6</ele>
        <time>2025-09-10T08:22:27Z</time>
      </trkpt>
      <trkpt lat="45.84674" lon="4.40167">
        <ele>841</ele>
        <time>2025-09-10T08:22:28Z</time>
      </trkpt>
      <trkpt lat="45.84675" lon="4.40168">
        <ele>841.2</ele>
        <time>2025-09-10T08:22:29Z</time>
      </trkpt>
      <trkpt lat="45.84675" lon="4.4017">
        <ele>841.2</ele>
        <time>2025-09-10T08:22:30Z</time>
      </trkpt>
      <trkpt lat="45.84676" lon="4.40172">
        <ele>841.2</ele>
        <time>2025-09-10T08:22:31Z</time>
      </trkpt>
      <trkpt lat="45.84676" lon="4.40174">
        <ele>841.4</ele>
        <time>2025-09-10T08:22:32Z</time>
      </trkpt>
      <trkpt lat="45.84676" lon="4.40176">
        <ele>841.4</ele>
        <time>2025-09-10T08:22:33Z</time>
      </trkpt>
      <trkpt lat="45.84677" lon="4.40177">
        <ele>841.4</ele>
        <time>2025-09-10T08:22:34Z</time>
      </trkpt>
      <trkpt lat="45.84677" lon="4.40179">
        <ele>841.8</ele>
        <time>2025-09-10T08:22:35Z</time>
      </trkpt>
      <trkpt lat="45.84678" lon="4.40181">
        <ele>841.8</ele>
        <time>2025-09-10T08:22:36Z</time>
      </trkpt>
      <trkpt lat="45.84678" lon="4.40182">
        <ele>841.8</ele>
        <time>2025-09-10T08:22:37Z</time>
      </trkpt>
      <trkpt lat="45.84678" lon="4.40184">
        <ele>842</ele>
        <time>2025-09-10T08:22:38Z</time>
      </trkpt>
      <trkpt lat="45.84679" lon="4.40186">
        <ele>842</ele>
        <time>2025-09-10T08:22:39Z</time>
      </trkpt>
      <trkpt lat="45.84679" lon="4.40187">
        <ele>842.4</ele>
        <time>2025-09-10T08:22:40Z</time>
      </trkpt>
      <trkpt lat="45.8468" lon="4.40189">
        <ele>842.4</ele>
        <time>2025-09-10T08:22:41Z</time>
      </trkpt>
      <trkpt lat="45.84681" lon="4.40191">
        <ele>842.6</ele>
        <time>2025-09-10T08:22:42Z</time>
      </trkpt>
      <trkpt lat="45.84682" lon="4.40193">
        <ele>842.6</ele>
        <time>2025-09-10T08:22:43Z</time>
      </trkpt>
      <trkpt lat="45.84682" lon="4.40195">
        <ele>842.6</ele>
        <time>2025-09-10T08:22:44Z</time>
      </trkpt>
      <trkpt lat="45.84682" lon="4.40197">
        <ele>842.8</ele>
        <time>2025-09-10T08:22:45Z</time>
      </trkpt>
      <trkpt lat="45.84682" lon="4.40198">
        <ele>842.8</ele>
        <time>2025-09-10T08:22:46Z</time>
      </trkpt>
      <trkpt lat="45.84682" lon="4.402">
        <ele>842.8</ele>
        <time>2025-09-10T08:22:47Z</time>
      </trkpt>
      <trkpt lat="45.84683" lon="4.40202">
        <ele>842.8</ele>
        <time>2025-09-10T08:22:48Z</time>
      </trkpt>
      <trkpt lat="45.84683" lon="4.40204">
        <ele>842.8</ele>
        <time>2025-09-10T08:22:49Z</time>
      </trkpt>
      <trkpt lat="45.84684" lon="4.40205">
        <ele>842.8</ele>
        <time>2025-09-10T08:22:50Z</time>
      </trkpt>
      <trkpt lat="45.84684" lon="4.40206">
        <ele>843.2</ele>
        <time>2025-09-10T08:22:51Z</time>
      </trkpt>
      <trkpt lat="45.84685" lon="4.40208">
        <ele>843.4</ele>
        <time>2025-09-10T08:22:52Z</time>
      </trkpt>
      <trkpt lat="45.84685" lon="4.4021">
        <ele>843.4</ele>
        <time>2025-09-10T08:22:53Z</time>
      </trkpt>
      <trkpt lat="45.84685" lon="4.40212">
        <ele>843.4</ele>
        <time>2025-09-10T08:22:54Z</time>
      </trkpt>
      <trkpt lat="45.84686" lon="4.40213">
        <ele>843.4</ele>
        <time>2025-09-10T08:22:55Z</time>
      </trkpt>
      <trkpt lat="45.84686" lon="4.40215">
        <ele>843.6</ele>
        <time>2025-09-10T08:22:56Z</time>
      </trkpt>
      <trkpt lat="45.84687" lon="4.40216">
        <ele>843.6</ele>
        <time>2025-09-10T08:22:57Z</time>
      </trkpt>
      <trkpt lat="45.84688" lon="4.40218">
        <ele>843.6</ele>
        <time>2025-09-10T08:22:58Z</time>
      </trkpt>
      <trkpt lat="45.84688" lon="4.40219">
        <ele>844</ele>
        <time>2025-09-10T08:22:59Z</time>
      </trkpt>
      <trkpt lat="45.84688" lon="4.40221">
        <ele>844</ele>
        <time>2025-09-10T08:23:00Z</time>
      </trkpt>
      <trkpt lat="45.84689" lon="4.40223">
        <ele>844.2</ele>
        <time>2025-09-10T08:23:01Z</time>
      </trkpt>
      <trkpt lat="45.84689" lon="4.40225">
        <ele>844.2</ele>
        <time>2025-09-10T08:23:02Z</time>
      </trkpt>
      <trkpt lat="45.84689" lon="4.40227">
        <ele>844.2</ele>
        <time>2025-09-10T08:23:03Z</time>
      </trkpt>
      <trkpt lat="45.8469" lon="4.40229">
        <ele>844.2</ele>
        <time>2025-09-10T08:23:04Z</time>
      </trkpt>
      <trkpt lat="45.8469" lon="4.40231">
        <ele>844.6</ele>
        <time>2025-09-10T08:23:05Z</time>
      </trkpt>
      <trkpt lat="45.8469" lon="4.40233">
        <ele>844.6</ele>
        <time>2025-09-10T08:23:06Z</time>
      </trkpt>
      <trkpt lat="45.84691" lon="4.40236">
        <ele>844.8</ele>
        <time>2025-09-10T08:23:07Z</time>
      </trkpt>
      <trkpt lat="45.84692" lon="4.40238">
        <ele>844.8</ele>
        <time>2025-09-10T08:23:08Z</time>
      </trkpt>
      <trkpt lat="45.84692" lon="4.4024">
        <ele>844.8</ele>
        <time>2025-09-10T08:23:09Z</time>
      </trkpt>
      <trkpt lat="45.84693" lon="4.40243">
        <ele>845</ele>
        <time>2025-09-10T08:23:10Z</time>
      </trkpt>
      <trkpt lat="45.84694" lon="4.40245">
        <ele>845</ele>
        <time>2025-09-10T08:23:11Z</time>
      </trkpt>
      <trkpt lat="45.84694" lon="4.40248">
        <ele>845</ele>
        <time>2025-09-10T08:23:12Z</time>
      </trkpt>
      <trkpt lat="45.84695" lon="4.4025">
        <ele>845.4</ele>
        <time>2025-09-10T08:23:13Z</time>
      </trkpt>
      <trkpt lat="45.84695" lon="4.40252">
        <ele>845.4</ele>
        <time>2025-09-10T08:23:14Z</time>
      </trkpt>
      <trkpt lat="45.84695" lon="4.40255">
        <ele>845.4</ele>
        <time>2025-09-10T08:23:15Z</time>
      </trkpt>
      <trkpt lat="45.84695" lon="4.40257">
        <ele>845.4</ele>
        <time>2025-09-10T08:23:16Z</time>
      </trkpt>
      <trkpt lat="45.84695" lon="4.40259">
        <ele>845.6</ele>
        <time>2025-09-10T08:23:17Z</time>
      </trkpt>
      <trkpt lat="45.84696" lon="4.40262">
        <ele>845.6</ele>
        <time>2025-09-10T08:23:18Z</time>
      </trkpt>
      <trkpt lat="45.84697" lon="4.40264">
        <ele>845.6</ele>
        <time>2025-09-10T08:23:19Z</time>
      </trkpt>
      <trkpt lat="45.84697" lon="4.40266">
        <ele>845.8</ele>
        <time>2025-09-10T08:23:20Z</time>
      </trkpt>
      <trkpt lat="45.84698" lon="4.40269">
        <ele>845.8</ele>
        <time>2025-09-10T08:23:21Z</time>
      </trkpt>
      <trkpt lat="45.84698" lon="4.40271">
        <ele>845.8</ele>
        <time>2025-09-10T08:23:22Z</time>
      </trkpt>
      <trkpt lat="45.84698" lon="4.40273">
        <ele>846</ele>
        <time>2025-09-10T08:23:23Z</time>
      </trkpt>
      <trkpt lat="45.84699" lon="4.40276">
        <ele>846</ele>
        <time>2025-09-10T08:23:24Z</time>
      </trkpt>
      <trkpt lat="45.84699" lon="4.40278">
        <ele>846</ele>
        <time>2025-09-10T08:23:25Z</time>
      </trkpt>
      <trkpt lat="45.847" lon="4.4028">
        <ele>846.4</ele>
        <time>2025-09-10T08:23:26Z</time>
      </trkpt>
      <trkpt lat="45.847" lon="4.40282">
        <ele>846.4</ele>
        <time>2025-09-10T08:23:27Z</time>
      </trkpt>
      <trkpt lat="45.84701" lon="4.40284">
        <ele>846.4</ele>
        <time>2025-09-10T08:23:28Z</time>
      </trkpt>
      <trkpt lat="45.84702" lon="4.40287">
        <ele>846.6</ele>
        <time>2025-09-10T08:23:29Z</time>
      </trkpt>
      <trkpt lat="45.84702" lon="4.40289">
        <ele>847</ele>
        <time>2025-09-10T08:23:30Z</time>
      </trkpt>
      <trkpt lat="45.84702" lon="4.40291">
        <ele>847.4</ele>
        <time>2025-09-10T08:23:31Z</time>
      </trkpt>
      <trkpt lat="45.84703" lon="4.40293">
        <ele>847.4</ele>
        <time>2025-09-10T08:23:32Z</time>
      </trkpt>
      <trkpt lat="45.84703" lon="4.40295">
        <ele>847.4</ele>
        <time>2025-09-10T08:23:33Z</time>
      </trkpt>
      <trkpt lat="45.84704" lon="4.40297">
        <ele>847.6</ele>
        <time>2025-09-10T08:23:34Z</time>
      </trkpt>
      <trkpt lat="45.84704" lon="4.40299">
        <ele>847.6</ele>
        <time>2025-09-10T08:23:35Z</time>
      </trkpt>
      <trkpt lat="45.84704" lon="4.40301">
        <ele>847.8</ele>
        <time>2025-09-10T08:23:36Z</time>
      </trkpt>
      <trkpt lat="45.84705" lon="4.40303">
        <ele>847.8</ele>
        <time>2025-09-10T08:23:37Z</time>
      </trkpt>
      <trkpt lat="45.84705" lon="4.40305">
        <ele>848.2</ele>
        <time>2025-09-10T08:23:38Z</time>
      </trkpt>
      <trkpt lat="45.84705" lon="4.40306">
        <ele>848.4</ele>
        <time>2025-09-10T08:23:39Z</time>
      </trkpt>
      <trkpt lat="45.84706" lon="4.40308">
        <ele>848.8</ele>
        <time>2025-09-10T08:23:40Z</time>
      </trkpt>
      <trkpt lat="45.84706" lon="4.4031">
        <ele>849</ele>
        <time>2025-09-10T08:23:41Z</time>
      </trkpt>
      <trkpt lat="45.84706" lon="4.40312">
        <ele>849.2</ele>
        <time>2025-09-10T08:23:42Z</time>
      </trkpt>
      <trkpt lat="45.84706" lon="4.40313">
        <ele>849.2</ele>
        <time>2025-09-10T08:23:43Z</time>
      </trkpt>
      <trkpt lat="45.84707" lon="4.40315">
        <ele>849.4</ele>
        <time>2025-09-10T08:23:44Z</time>
      </trkpt>
      <trkpt lat="45.84707" lon="4.40317">
        <ele>849.4</ele>
        <time>2025-09-10T08:23:45Z</time>
      </trkpt>
      <trkpt lat="45.84707" lon="4.40319">
        <ele>849.6</ele>
        <time>2025-09-10T08:23:46Z</time>
      </trkpt>
      <trkpt lat="45.84708" lon="4.40321">
        <ele>849.6</ele>
        <time>2025-09-10T08:23:47Z</time>
      </trkpt>
      <trkpt lat="45.84708" lon="4.40323">
        <ele>850</ele>
        <time>2025-09-10T08:23:48Z</time>
      </trkpt>
      <trkpt lat="45.84708" lon="4.40325">
        <ele>850</ele>
        <time>2025-09-10T08:23:49Z</time>
      </trkpt>
      <trkpt lat="45.84708" lon="4.40327">
        <ele>850</ele>
        <time>2025-09-10T08:23:50Z</time>
      </trkpt>
      <trkpt lat="45.84709" lon="4.40329">
        <ele>850.2</ele>
        <time>2025-09-10T08:23:51Z</time>
      </trkpt>
      <trkpt lat="45.84709" lon="4.40331">
        <ele>850.2</ele>
        <time>2025-09-10T08:23:52Z</time>
      </trkpt>
      <trkpt lat="45.84709" lon="4.40332">
        <ele>850.2</ele>
        <time>2025-09-10T08:23:53Z</time>
      </trkpt>
      <trkpt lat="45.8471" lon="4.40334">
        <ele>850.2</ele>
        <time>2025-09-10T08:23:54Z</time>
      </trkpt>
      <trkpt lat="45.8471" lon="4.40336">
        <ele>850.2</ele>
        <time>2025-09-10T08:23:55Z</time>
      </trkpt>
      <trkpt lat="45.84711" lon="4.40338">
        <ele>850.2</ele>
        <time>2025-09-10T08:23:56Z</time>
      </trkpt>
      <trkpt lat="45.84711" lon="4.40341">
        <ele>850.4</ele>
        <time>2025-09-10T08:23:57Z</time>
      </trkpt>
      <trkpt lat="45.84711" lon="4.40343">
        <ele>850.4</ele>
        <time>2025-09-10T08:23:58Z</time>
      </trkpt>
      <trkpt lat="45.84712" lon="4.40346">
        <ele>850.4</ele>
        <time>2025-09-10T08:23:59Z</time>
      </trkpt>
      <trkpt lat="45.84712" lon="4.40348">
        <ele>850.4</ele>
        <time>2025-09-10T08:24:00Z</time>
      </trkpt>
      <trkpt lat="45.84712" lon="4.40351">
        <ele>850.4</ele>
        <time>2025-09-10T08:24:01Z</time>
      </trkpt>
      <trkpt lat="45.84713" lon="4.40353">
        <ele>850.4</ele>
        <time>2025-09-10T08:24:02Z</time>
      </trkpt>
      <trkpt lat="45.84713" lon="4.40356">
        <ele>850.6</ele>
        <time>2025-09-10T08:24:03Z</time>
      </trkpt>
      <trkpt lat="45.84713" lon="4.40358">
        <ele>850.6</ele>
        <time>2025-09-10T08:24:04Z</time>
      </trkpt>
      <trkpt lat="45.84713" lon="4.40361">
        <ele>850.6</ele>
        <time>2025-09-10T08:24:05Z</time>
      </trkpt>
      <trkpt lat="45.84714" lon="4.40363">
        <ele>850.6</ele>
        <time>2025-09-10T08:24:06Z</time>
      </trkpt>
      <trkpt lat="45.84714" lon="4.40365">
        <ele>851</ele>
        <time>2025-09-10T08:24:07Z</time>
      </trkpt>
      <trkpt lat="45.84714" lon="4.40368">
        <ele>851</ele>
        <time>2025-09-10T08:24:08Z</time>
      </trkpt>
      <trkpt lat="45.84714" lon="4.40371">
        <ele>851</ele>
        <time>2025-09-10T08:24:09Z</time>
      </trkpt>
      <trkpt lat="45.84714" lon="4.40373">
        <ele>851</ele>
        <time>2025-09-10T08:24:10Z</time>
      </trkpt>
      <trkpt lat="45.84714" lon="4.40376">
        <ele>851</ele>
        <time>2025-09-10T08:24:11Z</time>
      </trkpt>
      <trkpt lat="45.84715" lon="4.40378">
        <ele>851</ele>
        <time>2025-09-10T08:24:12Z</time>
      </trkpt>
      <trkpt lat="45.84715" lon="4.40381">
        <ele>851.2</ele>
        <time>2025-09-10T08:24:13Z</time>
      </trkpt>
      <trkpt lat="45.84716" lon="4.40383">
        <ele>851.2</ele>
        <time>2025-09-10T08:24:14Z</time>
      </trkpt>
      <trkpt lat="45.84716" lon="4.40385">
        <ele>851.2</ele>
        <time>2025-09-10T08:24:15Z</time>
      </trkpt>
      <trkpt lat="45.84716" lon="4.40388">
        <ele>851.6</ele>
        <time>2025-09-10T08:24:16Z</time>
      </trkpt>
      <trkpt lat="45.84717" lon="4.4039">
        <ele>851.6</ele>
        <time>2025-09-10T08:24:17Z</time>
      </trkpt>
      <trkpt lat="45.84717" lon="4.40393">
        <ele>851.8</ele>
        <time>2025-09-10T08:24:18Z</time>
      </trkpt>
      <trkpt lat="45.84718" lon="4.40395">
        <ele>851.8</ele>
        <time>2025-09-10T08:24:19Z</time>
      </trkpt>
      <trkpt lat="45.84718" lon="4.40397">
        <ele>851.8</ele>
        <time>2025-09-10T08:24:20Z</time>
      </trkpt>
      <trkpt lat="45.84719" lon="4.40399">
        <ele>851.8</ele>
        <time>2025-09-10T08:24:21Z</time>
      </trkpt>
      <trkpt lat="45.84719" lon="4.40402">
        <ele>851.8</ele>
        <time>2025-09-10T08:24:22Z</time>
      </trkpt>
      <trkpt lat="45.8472" lon="4.40404">
        <ele>851.8</ele>
        <time>2025-09-10T08:24:23Z</time>
      </trkpt>
      <trkpt lat="45.8472" lon="4.40406">
        <ele>851.8</ele>
        <time>2025-09-10T08:24:24Z</time>
      </trkpt>
      <trkpt lat="45.8472" lon="4.40408">
        <ele>852</ele>
        <time>2025-09-10T08:24:25Z</time>
      </trkpt>
      <trkpt lat="45.84721" lon="4.4041">
        <ele>852</ele>
        <time>2025-09-10T08:24:26Z</time>
      </trkpt>
      <trkpt lat="45.84722" lon="4.40412">
        <ele>852.2</ele>
        <time>2025-09-10T08:24:27Z</time>
      </trkpt>
      <trkpt lat="45.84722" lon="4.40413">
        <ele>852.2</ele>
        <time>2025-09-10T08:24:28Z</time>
      </trkpt>
      <trkpt lat="45.84722" lon="4.40415">
        <ele>852.4</ele>
        <time>2025-09-10T08:24:29Z</time>
      </trkpt>
      <trkpt lat="45.84723" lon="4.40416">
        <ele>852.4</ele>
        <time>2025-09-10T08:24:30Z</time>
      </trkpt>
      <trkpt lat="45.84723" lon="4.40418">
        <ele>852.4</ele>
        <time>2025-09-10T08:24:31Z</time>
      </trkpt>
      <trkpt lat="45.84723" lon="4.40419">
        <ele>852.4</ele>
        <time>2025-09-10T08:24:32Z</time>
      </trkpt>
      <trkpt lat="45.84724" lon="4.4042">
        <ele>852.4</ele>
        <time>2025-09-10T08:24:33Z</time>
      </trkpt>
      <trkpt lat="45.84724" lon="4.40422">
        <ele>852.4</ele>
        <time>2025-09-10T08:24:34Z</time>
      </trkpt>
      <trkpt lat="45.84724" lon="4.40424">
        <ele>852.4</ele>
        <time>2025-09-10T08:24:35Z</time>
      </trkpt>
      <trkpt lat="45.84724" lon="4.40426">
        <ele>852.4</ele>
        <time>2025-09-10T08:24:36Z</time>
      </trkpt>
      <trkpt lat="45.84724" lon="4.40427">
        <ele>852.4</ele>
        <time>2025-09-10T08:24:37Z</time>
      </trkpt>
      <trkpt lat="45.84725" lon="4.40429">
        <ele>852.4</ele>
        <time>2025-09-10T08:24:38Z</time>
      </trkpt>
      <trkpt lat="45.84725" lon="4.4043">
        <ele>852.4</ele>
        <time>2025-09-10T08:24:39Z</time>
      </trkpt>
      <trkpt lat="45.84726" lon="4.40432">
        <ele>852.4</ele>
        <time>2025-09-10T08:24:40Z</time>
      </trkpt>
      <trkpt lat="45.84727" lon="4.40433">
        <ele>852.4</ele>
        <time>2025-09-10T08:24:41Z</time>
      </trkpt>
      <trkpt lat="45.84728" lon="4.40434">
        <ele>852.4</ele>
        <time>2025-09-10T08:24:42Z</time>
      </trkpt>
      <trkpt lat="45.84729" lon="4.40435">
        <ele>852.2</ele>
        <time>2025-09-10T08:24:43Z</time>
      </trkpt>
      <trkpt lat="45.8473" lon="4.40437">
        <ele>852.2</ele>
        <time>2025-09-10T08:24:44Z</time>
      </trkpt>
      <trkpt lat="45.8473" lon="4.40439">
        <ele>852.2</ele>
        <time>2025-09-10T08:24:45Z</time>
      </trkpt>
      <trkpt lat="45.84729" lon="4.4044">
        <ele>852.2</ele>
        <time>2025-09-10T08:24:46Z</time>
      </trkpt>
      <trkpt lat="45.84728" lon="4.40441">
        <ele>852.2</ele>
        <time>2025-09-10T08:24:47Z</time>
      </trkpt>
      <trkpt lat="45.84726" lon="4.40441">
        <ele>852.2</ele>
        <time>2025-09-10T08:24:48Z</time>
      </trkpt>
      <trkpt lat="45.84725" lon="4.40441">
        <ele>852.2</ele>
        <time>2025-09-10T08:24:49Z</time>
      </trkpt>
      <trkpt lat="45.84724" lon="4.4044">
        <ele>852.4</ele>
        <time>2025-09-10T08:24:50Z</time>
      </trkpt>
      <trkpt lat="45.84723" lon="4.4044">
        <ele>852.4</ele>
        <time>2025-09-10T08:24:51Z</time>
      </trkpt>
      <trkpt lat="45.84722" lon="4.40441">
        <ele>852.4</ele>
        <time>2025-09-10T08:24:52Z</time>
      </trkpt>
      <trkpt lat="45.84723" lon="4.40443">
        <ele>852.4</ele>
        <time>2025-09-10T08:24:53Z</time>
      </trkpt>
      <trkpt lat="45.84723" lon="4.40444">
        <ele>852.4</ele>
        <time>2025-09-10T08:24:54Z</time>
      </trkpt>
      <trkpt lat="45.84724" lon="4.40446">
        <ele>852.4</ele>
        <time>2025-09-10T08:24:55Z</time>
      </trkpt>
      <trkpt lat="45.84724" lon="4.40446">
        <ele>852.4</ele>
        <time>2025-09-10T08:24:56Z</time>
      </trkpt>
      <trkpt lat="45.84724" lon="4.40446">
        <ele>852.4</ele>
        <time>2025-09-10T08:24:57Z</time>
      </trkpt>
      <trkpt lat="45.84725" lon="4.40443">
        <ele>853</ele>
        <time>2025-09-10T08:26:00Z</time>
      </trkpt>
      <trkpt lat="45.84726" lon="4.40442">
        <ele>852.8</ele>
        <time>2025-09-10T08:27:04Z</time>
      </trkpt>
      <trkpt lat="45.84727" lon="4.40443">
        <ele>852.8</ele>
        <time>2025-09-10T08:27:05Z</time>
      </trkpt>
      <trkpt lat="45.84729" lon="4.40445">
        <ele>852.8</ele>
        <time>2025-09-10T08:27:06Z</time>
      </trkpt>
      <trkpt lat="45.8473" lon="4.40447">
        <ele>852.8</ele>
        <time>2025-09-10T08:27:07Z</time>
      </trkpt>
      <trkpt lat="45.84731" lon="4.40449">
        <ele>852.4</ele>
        <time>2025-09-10T08:27:08Z</time>
      </trkpt>
      <trkpt lat="45.84732" lon="4.40451">
        <ele>852.4</ele>
        <time>2025-09-10T08:27:09Z</time>
      </trkpt>
      <trkpt lat="45.84733" lon="4.40454">
        <ele>852.4</ele>
        <time>2025-09-10T08:27:10Z</time>
      </trkpt>
      <trkpt lat="45.84734" lon="4.40456">
        <ele>852.4</ele>
        <time>2025-09-10T08:27:11Z</time>
      </trkpt>
      <trkpt lat="45.84735" lon="4.40459">
        <ele>852.4</ele>
        <time>2025-09-10T08:27:12Z</time>
      </trkpt>
      <trkpt lat="45.84737" lon="4.40462">
        <ele>852.4</ele>
        <time>2025-09-10T08:27:13Z</time>
      </trkpt>
      <trkpt lat="45.84738" lon="4.40465">
        <ele>852.4</ele>
        <time>2025-09-10T08:27:14Z</time>
      </trkpt>
      <trkpt lat="45.84739" lon="4.40468">
        <ele>852.2</ele>
        <time>2025-09-10T08:27:15Z</time>
      </trkpt>
      <trkpt lat="45.84741" lon="4.4047">
        <ele>852.2</ele>
        <time>2025-09-10T08:27:16Z</time>
      </trkpt>
      <trkpt lat="45.84742" lon="4.40473">
        <ele>852.2</ele>
        <time>2025-09-10T08:27:17Z</time>
      </trkpt>
      <trkpt lat="45.84743" lon="4.40476">
        <ele>852.4</ele>
        <time>2025-09-10T08:27:18Z</time>
      </trkpt>
      <trkpt lat="45.84744" lon="4.40479">
        <ele>852.4</ele>
        <time>2025-09-10T08:27:19Z</time>
      </trkpt>
      <trkpt lat="45.84745" lon="4.40482">
        <ele>852.4</ele>
        <time>2025-09-10T08:27:20Z</time>
      </trkpt>
      <trkpt lat="45.84745" lon="4.40485">
        <ele>852.6</ele>
        <time>2025-09-10T08:27:21Z</time>
      </trkpt>
      <trkpt lat="45.84746" lon="4.40488">
        <ele>852.8</ele>
        <time>2025-09-10T08:27:22Z</time>
      </trkpt>
      <trkpt lat="45.84746" lon="4.40491">
        <ele>853.2</ele>
        <time>2025-09-10T08:27:23Z</time>
      </trkpt>
      <trkpt lat="45.84747" lon="4.40494">
        <ele>853.2</ele>
        <time>2025-09-10T08:27:24Z</time>
      </trkpt>
      <trkpt lat="45.84748" lon="4.40496">
        <ele>853.4</ele>
        <time>2025-09-10T08:27:25Z</time>
      </trkpt>
      <trkpt lat="45.84748" lon="4.40498">
        <ele>853.4</ele>
        <time>2025-09-10T08:27:26Z</time>
      </trkpt>
      <trkpt lat="45.84749" lon="4.405">
        <ele>853.8</ele>
        <time>2025-09-10T08:27:27Z</time>
      </trkpt>
      <trkpt lat="45.84749" lon="4.40503">
        <ele>854</ele>
        <time>2025-09-10T08:27:28Z</time>
      </trkpt>
      <trkpt lat="45.84749" lon="4.40505">
        <ele>854.4</ele>
        <time>2025-09-10T08:27:29Z</time>
      </trkpt>
      <trkpt lat="45.8475" lon="4.40507">
        <ele>854.4</ele>
        <time>2025-09-10T08:27:30Z</time>
      </trkpt>
      <trkpt lat="45.8475" lon="4.40509">
        <ele>854.8</ele>
        <time>2025-09-10T08:27:31Z</time>
      </trkpt>
      <trkpt lat="45.8475" lon="4.4051">
        <ele>854.8</ele>
        <time>2025-09-10T08:27:32Z</time>
      </trkpt>
      <trkpt lat="45.8475" lon="4.40513">
        <ele>854.8</ele>
        <time>2025-09-10T08:27:33Z</time>
      </trkpt>
      <trkpt lat="45.84751" lon="4.40514">
        <ele>855</ele>
        <time>2025-09-10T08:27:34Z</time>
      </trkpt>
      <trkpt lat="45.84751" lon="4.40516">
        <ele>855</ele>
        <time>2025-09-10T08:27:35Z</time>
      </trkpt>
      <trkpt lat="45.84752" lon="4.40517">
        <ele>855.4</ele>
        <time>2025-09-10T08:27:36Z</time>
      </trkpt>
      <trkpt lat="45.84752" lon="4.40519">
        <ele>855.8</ele>
        <time>2025-09-10T08:27:37Z</time>
      </trkpt>
      <trkpt lat="45.84752" lon="4.40521">
        <ele>856</ele>
        <time>2025-09-10T08:27:38Z</time>
      </trkpt>
      <trkpt lat="45.84752" lon="4.40522">
        <ele>856</ele>
        <time>2025-09-10T08:27:39Z</time>
      </trkpt>
      <trkpt lat="45.84753" lon="4.40524">
        <ele>856.2</ele>
        <time>2025-09-10T08:27:40Z</time>
      </trkpt>
      <trkpt lat="45.84753" lon="4.40526">
        <ele>856.2</ele>
        <time>2025-09-10T08:27:41Z</time>
      </trkpt>
      <trkpt lat="45.84753" lon="4.40528">
        <ele>856.2</ele>
        <time>2025-09-10T08:27:42Z</time>
      </trkpt>
      <trkpt lat="45.84754" lon="4.40529">
        <ele>856.2</ele>
        <time>2025-09-10T08:27:43Z</time>
      </trkpt>
      <trkpt lat="45.84755" lon="4.40531">
        <ele>856.6</ele>
        <time>2025-09-10T08:27:44Z</time>
      </trkpt>
      <trkpt lat="45.84755" lon="4.40532">
        <ele>856.6</ele>
        <time>2025-09-10T08:27:45Z</time>
      </trkpt>
      <trkpt lat="45.84755" lon="4.40534">
        <ele>856.8</ele>
        <time>2025-09-10T08:27:46Z</time>
      </trkpt>
      <trkpt lat="45.84755" lon="4.40536">
        <ele>856.8</ele>
        <time>2025-09-10T08:27:47Z</time>
      </trkpt>
      <trkpt lat="45.84755" lon="4.40537">
        <ele>856.4</ele>
        <time>2025-09-10T08:27:48Z</time>
      </trkpt>
      <trkpt lat="45.84755" lon="4.40539">
        <ele>856.4</ele>
        <time>2025-09-10T08:27:49Z</time>
      </trkpt>
      <trkpt lat="45.84756" lon="4.4054">
        <ele>857.2</ele>
        <time>2025-09-10T08:27:50Z</time>
      </trkpt>
      <trkpt lat="45.84757" lon="4.40542">
        <ele>857.2</ele>
        <time>2025-09-10T08:27:51Z</time>
      </trkpt>
      <trkpt lat="45.84757" lon="4.40543">
        <ele>857.4</ele>
        <time>2025-09-10T08:27:52Z</time>
      </trkpt>
      <trkpt lat="45.84758" lon="4.40546">
        <ele>857.4</ele>
        <time>2025-09-10T08:27:53Z</time>
      </trkpt>
      <trkpt lat="45.84759" lon="4.40547">
        <ele>857.8</ele>
        <time>2025-09-10T08:27:54Z</time>
      </trkpt>
      <trkpt lat="45.84759" lon="4.40549">
        <ele>857.8</ele>
        <time>2025-09-10T08:27:55Z</time>
      </trkpt>
      <trkpt lat="45.8476" lon="4.4055">
        <ele>857.8</ele>
        <time>2025-09-10T08:27:56Z</time>
      </trkpt>
      <trkpt lat="45.8476" lon="4.40552">
        <ele>857.8</ele>
        <time>2025-09-10T08:27:57Z</time>
      </trkpt>
      <trkpt lat="45.8476" lon="4.40554">
        <ele>858</ele>
        <time>2025-09-10T08:27:58Z</time>
      </trkpt>
      <trkpt lat="45.8476" lon="4.40556">
        <ele>858</ele>
        <time>2025-09-10T08:27:59Z</time>
      </trkpt>
      <trkpt lat="45.8476" lon="4.40557">
        <ele>858</ele>
        <time>2025-09-10T08:28:00Z</time>
      </trkpt>
      <trkpt lat="45.8476" lon="4.40559">
        <ele>858.4</ele>
        <time>2025-09-10T08:28:01Z</time>
      </trkpt>
      <trkpt lat="45.8476" lon="4.40561">
        <ele>858.4</ele>
        <time>2025-09-10T08:28:02Z</time>
      </trkpt>
      <trkpt lat="45.84761" lon="4.40564">
        <ele>858.4</ele>
        <time>2025-09-10T08:28:03Z</time>
      </trkpt>
      <trkpt lat="45.84761" lon="4.40566">
        <ele>858.4</ele>
        <time>2025-09-10T08:28:04Z</time>
      </trkpt>
      <trkpt lat="45.84761" lon="4.40568">
        <ele>858.6</ele>
        <time>2025-09-10T08:28:05Z</time>
      </trkpt>
      <trkpt lat="45.84762" lon="4.40569">
        <ele>858.6</ele>
        <time>2025-09-10T08:28:06Z</time>
      </trkpt>
      <trkpt lat="45.84762" lon="4.40571">
        <ele>858.8</ele>
        <time>2025-09-10T08:28:07Z</time>
      </trkpt>
      <trkpt lat="45.84762" lon="4.40572">
        <ele>858.8</ele>
        <time>2025-09-10T08:28:08Z</time>
      </trkpt>
      <trkpt lat="45.84763" lon="4.40574">
        <ele>858.8</ele>
        <time>2025-09-10T08:28:09Z</time>
      </trkpt>
      <trkpt lat="45.84763" lon="4.40576">
        <ele>858.8</ele>
        <time>2025-09-10T08:28:10Z</time>
      </trkpt>
      <trkpt lat="45.84763" lon="4.40578">
        <ele>858.8</ele>
        <time>2025-09-10T08:28:11Z</time>
      </trkpt>
      <trkpt lat="45.84763" lon="4.4058">
        <ele>858.8</ele>
        <time>2025-09-10T08:28:12Z</time>
      </trkpt>
      <trkpt lat="45.84762" lon="4.40581">
        <ele>858.8</ele>
        <time>2025-09-10T08:28:13Z</time>
      </trkpt>
      <trkpt lat="45.84762" lon="4.40583">
        <ele>859</ele>
        <time>2025-09-10T08:28:14Z</time>
      </trkpt>
      <trkpt lat="45.84761" lon="4.40585">
        <ele>859</ele>
        <time>2025-09-10T08:28:15Z</time>
      </trkpt>
      <trkpt lat="45.8476" lon="4.40588">
        <ele>859</ele>
        <time>2025-09-10T08:28:16Z</time>
      </trkpt>
      <trkpt lat="45.8476" lon="4.4059">
        <ele>859.4</ele>
        <time>2025-09-10T08:28:17Z</time>
      </trkpt>
      <trkpt lat="45.8476" lon="4.40592">
        <ele>859.4</ele>
        <time>2025-09-10T08:28:18Z</time>
      </trkpt>
      <trkpt lat="45.8476" lon="4.40594">
        <ele>859.4</ele>
        <time>2025-09-10T08:28:19Z</time>
      </trkpt>
      <trkpt lat="45.84759" lon="4.40596">
        <ele>859.6</ele>
        <time>2025-09-10T08:28:20Z</time>
      </trkpt>
      <trkpt lat="45.84759" lon="4.40598">
        <ele>859.6</ele>
        <time>2025-09-10T08:28:21Z</time>
      </trkpt>
      <trkpt lat="45.84759" lon="4.406">
        <ele>859.6</ele>
        <time>2025-09-10T08:28:22Z</time>
      </trkpt>
      <trkpt lat="45.84758" lon="4.40602">
        <ele>860</ele>
        <time>2025-09-10T08:28:23Z</time>
      </trkpt>
      <trkpt lat="45.84758" lon="4.40604">
        <ele>860</ele>
        <time>2025-09-10T08:28:24Z</time>
      </trkpt>
      <trkpt lat="45.84758" lon="4.40606">
        <ele>860.2</ele>
        <time>2025-09-10T08:28:25Z</time>
      </trkpt>
      <trkpt lat="45.84757" lon="4.40608">
        <ele>860.2</ele>
        <time>2025-09-10T08:28:26Z</time>
      </trkpt>
      <trkpt lat="45.84757" lon="4.4061">
        <ele>860.6</ele>
        <time>2025-09-10T08:28:27Z</time>
      </trkpt>
      <trkpt lat="45.84756" lon="4.40612">
        <ele>860.6</ele>
        <time>2025-09-10T08:28:28Z</time>
      </trkpt>
      <trkpt lat="45.84756" lon="4.40614">
        <ele>860.6</ele>
        <time>2025-09-10T08:28:29Z</time>
      </trkpt>
      <trkpt lat="45.84756" lon="4.40616">
        <ele>860.8</ele>
        <time>2025-09-10T08:28:30Z</time>
      </trkpt>
      <trkpt lat="45.84755" lon="4.40617">
        <ele>860.8</ele>
        <time>2025-09-10T08:28:31Z</time>
      </trkpt>
      <trkpt lat="45.84755" lon="4.40619">
        <ele>861</ele>
        <time>2025-09-10T08:28:32Z</time>
      </trkpt>
      <trkpt lat="45.84754" lon="4.40621">
        <ele>861</ele>
        <time>2025-09-10T08:28:33Z</time>
      </trkpt>
      <trkpt lat="45.84754" lon="4.40623">
        <ele>861</ele>
        <time>2025-09-10T08:28:34Z</time>
      </trkpt>
      <trkpt lat="45.84753" lon="4.40625">
        <ele>861.4</ele>
        <time>2025-09-10T08:28:35Z</time>
      </trkpt>
      <trkpt lat="45.84753" lon="4.40626">
        <ele>861.4</ele>
        <time>2025-09-10T08:28:36Z</time>
      </trkpt>
      <trkpt lat="45.84753" lon="4.40628">
        <ele>861.4</ele>
        <time>2025-09-10T08:28:37Z</time>
      </trkpt>
      <trkpt lat="45.84752" lon="4.4063">
        <ele>861.6</ele>
        <time>2025-09-10T08:28:38Z</time>
      </trkpt>
      <trkpt lat="45.84752" lon="4.40632">
        <ele>861.6</ele>
        <time>2025-09-10T08:28:39Z</time>
      </trkpt>
      <trkpt lat="45.84751" lon="4.40634">
        <ele>861.6</ele>
        <time>2025-09-10T08:28:40Z</time>
      </trkpt>
      <trkpt lat="45.84751" lon="4.40635">
        <ele>861.8</ele>
        <time>2025-09-10T08:28:41Z</time>
      </trkpt>
      <trkpt lat="45.8475" lon="4.40637">
        <ele>861.8</ele>
        <time>2025-09-10T08:28:42Z</time>
      </trkpt>
      <trkpt lat="45.84749" lon="4.4064">
        <ele>861.8</ele>
        <time>2025-09-10T08:28:43Z</time>
      </trkpt>
      <trkpt lat="45.84748" lon="4.40642">
        <ele>861.8</ele>
        <time>2025-09-10T08:28:44Z</time>
      </trkpt>
      <trkpt lat="45.84748" lon="4.40644">
        <ele>861.8</ele>
        <time>2025-09-10T08:28:45Z</time>
      </trkpt>
      <trkpt lat="45.84747" lon="4.40646">
        <ele>862</ele>
        <time>2025-09-10T08:28:46Z</time>
      </trkpt>
      <trkpt lat="45.84747" lon="4.40648">
        <ele>862</ele>
        <time>2025-09-10T08:28:47Z</time>
      </trkpt>
      <trkpt lat="45.84747" lon="4.40651">
        <ele>862.4</ele>
        <time>2025-09-10T08:28:48Z</time>
      </trkpt>
      <trkpt lat="45.84746" lon="4.40653">
        <ele>862.4</ele>
        <time>2025-09-10T08:28:49Z</time>
      </trkpt>
      <trkpt lat="45.84745" lon="4.40655">
        <ele>862.4</ele>
        <time>2025-09-10T08:28:50Z</time>
      </trkpt>
      <trkpt lat="45.84745" lon="4.40657">
        <ele>862.6</ele>
        <time>2025-09-10T08:28:51Z</time>
      </trkpt>
      <trkpt lat="45.84744" lon="4.4066">
        <ele>862.6</ele>
        <time>2025-09-10T08:28:52Z</time>
      </trkpt>
      <trkpt lat="45.84744" lon="4.40662">
        <ele>862.6</ele>
        <time>2025-09-10T08:28:53Z</time>
      </trkpt>
      <trkpt lat="45.84744" lon="4.40664">
        <ele>862.6</ele>
        <time>2025-09-10T08:28:54Z</time>
      </trkpt>
      <trkpt lat="45.84744" lon="4.40667">
        <ele>862.6</ele>
        <time>2025-09-10T08:28:55Z</time>
      </trkpt>
      <trkpt lat="45.84744" lon="4.40669">
        <ele>862.8</ele>
        <time>2025-09-10T08:28:56Z</time>
      </trkpt>
      <trkpt lat="45.84743" lon="4.40671">
        <ele>862.8</ele>
        <time>2025-09-10T08:28:57Z</time>
      </trkpt>
      <trkpt lat="45.84743" lon="4.40674">
        <ele>862.8</ele>
        <time>2025-09-10T08:28:58Z</time>
      </trkpt>
      <trkpt lat="45.84743" lon="4.40676">
        <ele>862.8</ele>
        <time>2025-09-10T08:28:59Z</time>
      </trkpt>
      <trkpt lat="45.84742" lon="4.40679">
        <ele>862.8</ele>
        <time>2025-09-10T08:29:00Z</time>
      </trkpt>
      <trkpt lat="45.84742" lon="4.40681">
        <ele>862.8</ele>
        <time>2025-09-10T08:29:01Z</time>
      </trkpt>
      <trkpt lat="45.84742" lon="4.40683">
        <ele>862.8</ele>
        <time>2025-09-10T08:29:02Z</time>
      </trkpt>
      <trkpt lat="45.84742" lon="4.40685">
        <ele>862.8</ele>
        <time>2025-09-10T08:29:03Z</time>
      </trkpt>
      <trkpt lat="45.84742" lon="4.40687">
        <ele>862.8</ele>
        <time>2025-09-10T08:29:04Z</time>
      </trkpt>
      <trkpt lat="45.84741" lon="4.4069">
        <ele>862.8</ele>
        <time>2025-09-10T08:29:05Z</time>
      </trkpt>
      <trkpt lat="45.84741" lon="4.40693">
        <ele>862.8</ele>
        <time>2025-09-10T08:29:06Z</time>
      </trkpt>
      <trkpt lat="45.84741" lon="4.40696">
        <ele>862.8</ele>
        <time>2025-09-10T08:29:07Z</time>
      </trkpt>
      <trkpt lat="45.84741" lon="4.40699">
        <ele>862.8</ele>
        <time>2025-09-10T08:29:08Z</time>
      </trkpt>
      <trkpt lat="45.84741" lon="4.40701">
        <ele>862.8</ele>
        <time>2025-09-10T08:29:09Z</time>
      </trkpt>
      <trkpt lat="45.84741" lon="4.40705">
        <ele>862.8</ele>
        <time>2025-09-10T08:29:10Z</time>
      </trkpt>
      <trkpt lat="45.84741" lon="4.40707">
        <ele>863.2</ele>
        <time>2025-09-10T08:29:11Z</time>
      </trkpt>
      <trkpt lat="45.84741" lon="4.4071">
        <ele>863.2</ele>
        <time>2025-09-10T08:29:12Z</time>
      </trkpt>
      <trkpt lat="45.8474" lon="4.40713">
        <ele>863.2</ele>
        <time>2025-09-10T08:29:13Z</time>
      </trkpt>
      <trkpt lat="45.8474" lon="4.40716">
        <ele>863.2</ele>
        <time>2025-09-10T08:29:14Z</time>
      </trkpt>
      <trkpt lat="45.8474" lon="4.40719">
        <ele>863.6</ele>
        <time>2025-09-10T08:29:15Z</time>
      </trkpt>
      <trkpt lat="45.8474" lon="4.40723">
        <ele>863.6</ele>
        <time>2025-09-10T08:29:16Z</time>
      </trkpt>
      <trkpt lat="45.8474" lon="4.40726">
        <ele>863.6</ele>
        <time>2025-09-10T08:29:17Z</time>
      </trkpt>
      <trkpt lat="45.84739" lon="4.4073">
        <ele>863.6</ele>
        <time>2025-09-10T08:29:18Z</time>
      </trkpt>
      <trkpt lat="45.84739" lon="4.40734">
        <ele>863.6</ele>
        <time>2025-09-10T08:29:19Z</time>
      </trkpt>
      <trkpt lat="45.84739" lon="4.40739">
        <ele>863.6</ele>
        <time>2025-09-10T08:29:20Z</time>
      </trkpt>
      <trkpt lat="45.84738" lon="4.40743">
        <ele>863.6</ele>
        <time>2025-09-10T08:29:21Z</time>
      </trkpt>
      <trkpt lat="45.84738" lon="4.40747">
        <ele>863.6</ele>
        <time>2025-09-10T08:29:22Z</time>
      </trkpt>
      <trkpt lat="45.84738" lon="4.40751">
        <ele>863.8</ele>
        <time>2025-09-10T08:29:23Z</time>
      </trkpt>
      <trkpt lat="45.84737" lon="4.40755">
        <ele>863.8</ele>
        <time>2025-09-10T08:29:24Z</time>
      </trkpt>
      <trkpt lat="45.84737" lon="4.40758">
        <ele>864</ele>
        <time>2025-09-10T08:29:25Z</time>
      </trkpt>
      <trkpt lat="45.84737" lon="4.40762">
        <ele>864</ele>
        <time>2025-09-10T08:29:26Z</time>
      </trkpt>
      <trkpt lat="45.84736" lon="4.40766">
        <ele>864</ele>
        <time>2025-09-10T08:29:27Z</time>
      </trkpt>
      <trkpt lat="45.84735" lon="4.4077">
        <ele>864</ele>
        <time>2025-09-10T08:29:28Z</time>
      </trkpt>
      <trkpt lat="45.84734" lon="4.40775">
        <ele>864</ele>
        <time>2025-09-10T08:29:29Z</time>
      </trkpt>
      <trkpt lat="45.84732" lon="4.40779">
        <ele>864</ele>
        <time>2025-09-10T08:29:30Z</time>
      </trkpt>
      <trkpt lat="45.84731" lon="4.40784">
        <ele>864</ele>
        <time>2025-09-10T08:29:31Z</time>
      </trkpt>
      <trkpt lat="45.84729" lon="4.40788">
        <ele>864</ele>
        <time>2025-09-10T08:29:32Z</time>
      </trkpt>
      <trkpt lat="45.84726" lon="4.40793">
        <ele>864</ele>
        <time>2025-09-10T08:29:33Z</time>
      </trkpt>
      <trkpt lat="45.84724" lon="4.40797">
        <ele>864</ele>
        <time>2025-09-10T08:29:34Z</time>
      </trkpt>
      <trkpt lat="45.84723" lon="4.40802">
        <ele>864</ele>
        <time>2025-09-10T08:29:35Z</time>
      </trkpt>
      <trkpt lat="45.84721" lon="4.40807">
        <ele>864</ele>
        <time>2025-09-10T08:29:36Z</time>
      </trkpt>
      <trkpt lat="45.84719" lon="4.40812">
        <ele>863.6</ele>
        <time>2025-09-10T08:29:37Z</time>
      </trkpt>
      <trkpt lat="45.84718" lon="4.40817">
        <ele>863.6</ele>
        <time>2025-09-10T08:29:38Z</time>
      </trkpt>
      <trkpt lat="45.84716" lon="4.40821">
        <ele>863.2</ele>
        <time>2025-09-10T08:29:39Z</time>
      </trkpt>
      <trkpt lat="45.84715" lon="4.40826">
        <ele>863.4</ele>
        <time>2025-09-10T08:29:40Z</time>
      </trkpt>
      <trkpt lat="45.84713" lon="4.4083">
        <ele>863.4</ele>
        <time>2025-09-10T08:29:41Z</time>
      </trkpt>
      <trkpt lat="45.84711" lon="4.40835">
        <ele>863.8</ele>
        <time>2025-09-10T08:29:42Z</time>
      </trkpt>
      <trkpt lat="45.84709" lon="4.40839">
        <ele>864</ele>
        <time>2025-09-10T08:29:43Z</time>
      </trkpt>
      <trkpt lat="45.84708" lon="4.40844">
        <ele>864</ele>
        <time>2025-09-10T08:29:44Z</time>
      </trkpt>
      <trkpt lat="45.84706" lon="4.40849">
        <ele>864</ele>
        <time>2025-09-10T08:29:45Z</time>
      </trkpt>
      <trkpt lat="45.84704" lon="4.40854">
        <ele>864</ele>
        <time>2025-09-10T08:29:46Z</time>
      </trkpt>
      <trkpt lat="45.84702" lon="4.40858">
        <ele>864</ele>
        <time>2025-09-10T08:29:47Z</time>
      </trkpt>
      <trkpt lat="45.847" lon="4.40863">
        <ele>864</ele>
        <time>2025-09-10T08:29:48Z</time>
      </trkpt>
      <trkpt lat="45.84698" lon="4.40868">
        <ele>864</ele>
        <time>2025-09-10T08:29:49Z</time>
      </trkpt>
      <trkpt lat="45.84695" lon="4.40873">
        <ele>864</ele>
        <time>2025-09-10T08:29:50Z</time>
      </trkpt>
      <trkpt lat="45.84693" lon="4.40878">
        <ele>864</ele>
        <time>2025-09-10T08:29:51Z</time>
      </trkpt>
      <trkpt lat="45.84691" lon="4.40883">
        <ele>864</ele>
        <time>2025-09-10T08:29:52Z</time>
      </trkpt>
      <trkpt lat="45.84689" lon="4.40888">
        <ele>864</ele>
        <time>2025-09-10T08:29:53Z</time>
      </trkpt>
      <trkpt lat="45.84687" lon="4.40892">
        <ele>864</ele>
        <time>2025-09-10T08:29:54Z</time>
      </trkpt>
      <trkpt lat="45.84685" lon="4.40896">
        <ele>864.4</ele>
        <time>2025-09-10T08:29:55Z</time>
      </trkpt>
      <trkpt lat="45.84683" lon="4.409">
        <ele>864.4</ele>
        <time>2025-09-10T08:29:56Z</time>
      </trkpt>
      <trkpt lat="45.8468" lon="4.40904">
        <ele>864.4</ele>
        <time>2025-09-10T08:29:57Z</time>
      </trkpt>
      <trkpt lat="45.84678" lon="4.40908">
        <ele>864.4</ele>
        <time>2025-09-10T08:29:58Z</time>
      </trkpt>
      <trkpt lat="45.84676" lon="4.40912">
        <ele>864.6</ele>
        <time>2025-09-10T08:29:59Z</time>
      </trkpt>
      <trkpt lat="45.84674" lon="4.40916">
        <ele>864.6</ele>
        <time>2025-09-10T08:30:00Z</time>
      </trkpt>
      <trkpt lat="45.84672" lon="4.4092">
        <ele>864.6</ele>
        <time>2025-09-10T08:30:01Z</time>
      </trkpt>
      <trkpt lat="45.8467" lon="4.40924">
        <ele>864.6</ele>
        <time>2025-09-10T08:30:02Z</time>
      </trkpt>
      <trkpt lat="45.84668" lon="4.40928">
        <ele>865</ele>
        <time>2025-09-10T08:30:03Z</time>
      </trkpt>
      <trkpt lat="45.84667" lon="4.40932">
        <ele>865</ele>
        <time>2025-09-10T08:30:04Z</time>
      </trkpt>
      <trkpt lat="45.84665" lon="4.40935">
        <ele>865.4</ele>
        <time>2025-09-10T08:30:05Z</time>
      </trkpt>
      <trkpt lat="45.84664" lon="4.40938">
        <ele>865.6</ele>
        <time>2025-09-10T08:30:06Z</time>
      </trkpt>
      <trkpt lat="45.84663" lon="4.40942">
        <ele>865.6</ele>
        <time>2025-09-10T08:30:07Z</time>
      </trkpt>
      <trkpt lat="45.84662" lon="4.40944">
        <ele>865.6</ele>
        <time>2025-09-10T08:30:08Z</time>
      </trkpt>
      <trkpt lat="45.84661" lon="4.40948">
        <ele>865.6</ele>
        <time>2025-09-10T08:30:09Z</time>
      </trkpt>
      <trkpt lat="45.84659" lon="4.40952">
        <ele>865.6</ele>
        <time>2025-09-10T08:30:10Z</time>
      </trkpt>
      <trkpt lat="45.84659" lon="4.40954">
        <ele>865.8</ele>
        <time>2025-09-10T08:30:11Z</time>
      </trkpt>
      <trkpt lat="45.84658" lon="4.40958">
        <ele>865.8</ele>
        <time>2025-09-10T08:30:12Z</time>
      </trkpt>
      <trkpt lat="45.84657" lon="4.40961">
        <ele>866.2</ele>
        <time>2025-09-10T08:30:13Z</time>
      </trkpt>
      <trkpt lat="45.84655" lon="4.40965">
        <ele>866.4</ele>
        <time>2025-09-10T08:30:14Z</time>
      </trkpt>
      <trkpt lat="45.84653" lon="4.40968">
        <ele>866.4</ele>
        <time>2025-09-10T08:30:15Z</time>
      </trkpt>
      <trkpt lat="45.84652" lon="4.40971">
        <ele>866.8</ele>
        <time>2025-09-10T08:30:16Z</time>
      </trkpt>
      <trkpt lat="45.8465" lon="4.40975">
        <ele>867</ele>
        <time>2025-09-10T08:30:17Z</time>
      </trkpt>
      <trkpt lat="45.84649" lon="4.40978">
        <ele>867</ele>
        <time>2025-09-10T08:30:18Z</time>
      </trkpt>
      <trkpt lat="45.84646" lon="4.40982">
        <ele>867.2</ele>
        <time>2025-09-10T08:30:19Z</time>
      </trkpt>
      <trkpt lat="45.84644" lon="4.40984">
        <ele>867.2</ele>
        <time>2025-09-10T08:30:20Z</time>
      </trkpt>
      <trkpt lat="45.84642" lon="4.40986">
        <ele>867.6</ele>
        <time>2025-09-10T08:30:21Z</time>
      </trkpt>
      <trkpt lat="45.84641" lon="4.40989">
        <ele>867.8</ele>
        <time>2025-09-10T08:30:22Z</time>
      </trkpt>
      <trkpt lat="45.8464" lon="4.40991">
        <ele>867.8</ele>
        <time>2025-09-10T08:30:23Z</time>
      </trkpt>
      <trkpt lat="45.84639" lon="4.40994">
        <ele>867.8</ele>
        <time>2025-09-10T08:30:24Z</time>
      </trkpt>
      <trkpt lat="45.84637" lon="4.40996">
        <ele>868</ele>
        <time>2025-09-10T08:30:25Z</time>
      </trkpt>
      <trkpt lat="45.84636" lon="4.40998">
        <ele>868</ele>
        <time>2025-09-10T08:30:26Z</time>
      </trkpt>
      <trkpt lat="45.84636" lon="4.40999">
        <ele>868.6</ele>
        <time>2025-09-10T08:30:27Z</time>
      </trkpt>
      <trkpt lat="45.84635" lon="4.41001">
        <ele>868.8</ele>
        <time>2025-09-10T08:30:28Z</time>
      </trkpt>
      <trkpt lat="45.84634" lon="4.41002">
        <ele>868.8</ele>
        <time>2025-09-10T08:30:29Z</time>
      </trkpt>
      <trkpt lat="45.84634" lon="4.41004">
        <ele>869</ele>
        <time>2025-09-10T08:30:30Z</time>
      </trkpt>
      <trkpt lat="45.84633" lon="4.41005">
        <ele>869</ele>
        <time>2025-09-10T08:30:31Z</time>
      </trkpt>
      <trkpt lat="45.84632" lon="4.41007">
        <ele>869.2</ele>
        <time>2025-09-10T08:30:32Z</time>
      </trkpt>
      <trkpt lat="45.84631" lon="4.41009">
        <ele>869.2</ele>
        <time>2025-09-10T08:30:33Z</time>
      </trkpt>
      <trkpt lat="45.8463" lon="4.4101">
        <ele>869.2</ele>
        <time>2025-09-10T08:30:34Z</time>
      </trkpt>
      <trkpt lat="45.8463" lon="4.41011">
        <ele>869.4</ele>
        <time>2025-09-10T08:30:35Z</time>
      </trkpt>
      <trkpt lat="45.84628" lon="4.41014">
        <ele>869.4</ele>
        <time>2025-09-10T08:30:36Z</time>
      </trkpt>
      <trkpt lat="45.84628" lon="4.41015">
        <ele>869.4</ele>
        <time>2025-09-10T08:30:37Z</time>
      </trkpt>
      <trkpt lat="45.84627" lon="4.41016">
        <ele>869.8</ele>
        <time>2025-09-10T08:30:38Z</time>
      </trkpt>
      <trkpt lat="45.84626" lon="4.41017">
        <ele>869.8</ele>
        <time>2025-09-10T08:30:39Z</time>
      </trkpt>
      <trkpt lat="45.84625" lon="4.41019">
        <ele>870</ele>
        <time>2025-09-10T08:30:40Z</time>
      </trkpt>
      <trkpt lat="45.84623" lon="4.41022">
        <ele>870</ele>
        <time>2025-09-10T08:30:41Z</time>
      </trkpt>
      <trkpt lat="45.84622" lon="4.41024">
        <ele>870</ele>
        <time>2025-09-10T08:30:42Z</time>
      </trkpt>
      <trkpt lat="45.84621" lon="4.41026">
        <ele>870.4</ele>
        <time>2025-09-10T08:30:43Z</time>
      </trkpt>
      <trkpt lat="45.8462" lon="4.41027">
        <ele>870.4</ele>
        <time>2025-09-10T08:30:44Z</time>
      </trkpt>
      <trkpt lat="45.84618" lon="4.41029">
        <ele>870.6</ele>
        <time>2025-09-10T08:30:45Z</time>
      </trkpt>
      <trkpt lat="45.84616" lon="4.41032">
        <ele>870.6</ele>
        <time>2025-09-10T08:30:46Z</time>
      </trkpt>
      <trkpt lat="45.84615" lon="4.41034">
        <ele>870.6</ele>
        <time>2025-09-10T08:30:47Z</time>
      </trkpt>
      <trkpt lat="45.84614" lon="4.41036">
        <ele>870.8</ele>
        <time>2025-09-10T08:30:48Z</time>
      </trkpt>
      <trkpt lat="45.84612" lon="4.41038">
        <ele>870.8</ele>
        <time>2025-09-10T08:30:49Z</time>
      </trkpt>
      <trkpt lat="45.84611" lon="4.4104">
        <ele>870.8</ele>
        <time>2025-09-10T08:30:50Z</time>
      </trkpt>
      <trkpt lat="45.8461" lon="4.41042">
        <ele>870.8</ele>
        <time>2025-09-10T08:30:51Z</time>
      </trkpt>
      <trkpt lat="45.84608" lon="4.41043">
        <ele>871</ele>
        <time>2025-09-10T08:30:52Z</time>
      </trkpt>
      <trkpt lat="45.84606" lon="4.41045">
        <ele>871</ele>
        <time>2025-09-10T08:30:53Z</time>
      </trkpt>
      <trkpt lat="45.84604" lon="4.41047">
        <ele>871</ele>
        <time>2025-09-10T08:30:54Z</time>
      </trkpt>
      <trkpt lat="45.84601" lon="4.41051">
        <ele>871.2</ele>
        <time>2025-09-10T08:30:55Z</time>
      </trkpt>
      <trkpt lat="45.84599" lon="4.41053">
        <ele>871.2</ele>
        <time>2025-09-10T08:30:56Z</time>
      </trkpt>
      <trkpt lat="45.84597" lon="4.41055">
        <ele>871.6</ele>
        <time>2025-09-10T08:30:57Z</time>
      </trkpt>
      <trkpt lat="45.84596" lon="4.41057">
        <ele>871.6</ele>
        <time>2025-09-10T08:30:58Z</time>
      </trkpt>
      <trkpt lat="45.84594" lon="4.41058">
        <ele>872</ele>
        <time>2025-09-10T08:30:59Z</time>
      </trkpt>
      <trkpt lat="45.84593" lon="4.41061">
        <ele>872</ele>
        <time>2025-09-10T08:31:00Z</time>
      </trkpt>
      <trkpt lat="45.84592" lon="4.41063">
        <ele>872</ele>
        <time>2025-09-10T08:31:01Z</time>
      </trkpt>
      <trkpt lat="45.8459" lon="4.41065">
        <ele>872.2</ele>
        <time>2025-09-10T08:31:02Z</time>
      </trkpt>
      <trkpt lat="45.84589" lon="4.41067">
        <ele>872.2</ele>
        <time>2025-09-10T08:31:03Z</time>
      </trkpt>
      <trkpt lat="45.84587" lon="4.41068">
        <ele>872.2</ele>
        <time>2025-09-10T08:31:04Z</time>
      </trkpt>
      <trkpt lat="45.84585" lon="4.41069">
        <ele>872.2</ele>
        <time>2025-09-10T08:31:05Z</time>
      </trkpt>
      <trkpt lat="45.84583" lon="4.4107">
        <ele>872.2</ele>
        <time>2025-09-10T08:31:06Z</time>
      </trkpt>
      <trkpt lat="45.84582" lon="4.41071">
        <ele>872.2</ele>
        <time>2025-09-10T08:31:07Z</time>
      </trkpt>
      <trkpt lat="45.8458" lon="4.41073">
        <ele>872.2</ele>
        <time>2025-09-10T08:31:08Z</time>
      </trkpt>
      <trkpt lat="45.84579" lon="4.41075">
        <ele>872.2</ele>
        <time>2025-09-10T08:31:09Z</time>
      </trkpt>
      <trkpt lat="45.84578" lon="4.41078">
        <ele>872.2</ele>
        <time>2025-09-10T08:31:10Z</time>
      </trkpt>
      <trkpt lat="45.84577" lon="4.4108">
        <ele>872.2</ele>
        <time>2025-09-10T08:31:11Z</time>
      </trkpt>
      <trkpt lat="45.84575" lon="4.41082">
        <ele>872.4</ele>
        <time>2025-09-10T08:31:12Z</time>
      </trkpt>
      <trkpt lat="45.84574" lon="4.41085">
        <ele>872.4</ele>
        <time>2025-09-10T08:31:13Z</time>
      </trkpt>
      <trkpt lat="45.84573" lon="4.41087">
        <ele>872.4</ele>
        <time>2025-09-10T08:31:14Z</time>
      </trkpt>
      <trkpt lat="45.84571" lon="4.41089">
        <ele>872.4</ele>
        <time>2025-09-10T08:31:15Z</time>
      </trkpt>
      <trkpt lat="45.8457" lon="4.41091">
        <ele>872.6</ele>
        <time>2025-09-10T08:31:16Z</time>
      </trkpt>
      <trkpt lat="45.84568" lon="4.41093">
        <ele>872.6</ele>
        <time>2025-09-10T08:31:17Z</time>
      </trkpt>
      <trkpt lat="45.84567" lon="4.41095">
        <ele>873</ele>
        <time>2025-09-10T08:31:18Z</time>
      </trkpt>
      <trkpt lat="45.84566" lon="4.41097">
        <ele>873.2</ele>
        <time>2025-09-10T08:31:19Z</time>
      </trkpt>
      <trkpt lat="45.84565" lon="4.41099">
        <ele>873.4</ele>
        <time>2025-09-10T08:31:20Z</time>
      </trkpt>
      <trkpt lat="45.84565" lon="4.41101">
        <ele>873.4</ele>
        <time>2025-09-10T08:31:21Z</time>
      </trkpt>
      <trkpt lat="45.84564" lon="4.41104">
        <ele>873.8</ele>
        <time>2025-09-10T08:31:22Z</time>
      </trkpt>
      <trkpt lat="45.84563" lon="4.41105">
        <ele>873.8</ele>
        <time>2025-09-10T08:31:23Z</time>
      </trkpt>
      <trkpt lat="45.84563" lon="4.41106">
        <ele>873.8</ele>
        <time>2025-09-10T08:31:24Z</time>
      </trkpt>
      <trkpt lat="45.84563" lon="4.41107">
        <ele>874</ele>
        <time>2025-09-10T08:31:25Z</time>
      </trkpt>
      <trkpt lat="45.84563" lon="4.41107">
        <ele>874</ele>
        <time>2025-09-10T08:31:26Z</time>
      </trkpt>
      <trkpt lat="45.84563" lon="4.41107">
        <ele>874.4</ele>
        <time>2025-09-10T08:31:27Z</time>
      </trkpt>
      <trkpt lat="45.84562" lon="4.41109">
        <ele>874.4</ele>
        <time>2025-09-10T08:31:28Z</time>
      </trkpt>
      <trkpt lat="45.84559" lon="4.41112">
        <ele>874.4</ele>
        <time>2025-09-10T08:31:29Z</time>
      </trkpt>
      <trkpt lat="45.84558" lon="4.41114">
        <ele>874.4</ele>
        <time>2025-09-10T08:31:30Z</time>
      </trkpt>
      <trkpt lat="45.84556" lon="4.41114">
        <ele>874.6</ele>
        <time>2025-09-10T08:31:31Z</time>
      </trkpt>
      <trkpt lat="45.84555" lon="4.41116">
        <ele>874.6</ele>
        <time>2025-09-10T08:31:32Z</time>
      </trkpt>
      <trkpt lat="45.84554" lon="4.41118">
        <ele>874.6</ele>
        <time>2025-09-10T08:31:33Z</time>
      </trkpt>
      <trkpt lat="45.84552" lon="4.41121">
        <ele>875</ele>
        <time>2025-09-10T08:31:34Z</time>
      </trkpt>
      <trkpt lat="45.84551" lon="4.41124">
        <ele>875</ele>
        <time>2025-09-10T08:31:35Z</time>
      </trkpt>
      <trkpt lat="45.8455" lon="4.41126">
        <ele>875</ele>
        <time>2025-09-10T08:31:36Z</time>
      </trkpt>
      <trkpt lat="45.84549" lon="4.41128">
        <ele>875</ele>
        <time>2025-09-10T08:31:37Z</time>
      </trkpt>
      <trkpt lat="45.84548" lon="4.41131">
        <ele>875</ele>
        <time>2025-09-10T08:31:38Z</time>
      </trkpt>
      <trkpt lat="45.84547" lon="4.41133">
        <ele>875</ele>
        <time>2025-09-10T08:31:39Z</time>
      </trkpt>
      <trkpt lat="45.84546" lon="4.41136">
        <ele>875</ele>
        <time>2025-09-10T08:31:40Z</time>
      </trkpt>
      <trkpt lat="45.84545" lon="4.41138">
        <ele>875</ele>
        <time>2025-09-10T08:31:41Z</time>
      </trkpt>
      <trkpt lat="45.84544" lon="4.4114">
        <ele>875</ele>
        <time>2025-09-10T08:31:42Z</time>
      </trkpt>
      <trkpt lat="45.84543" lon="4.41142">
        <ele>875</ele>
        <time>2025-09-10T08:31:43Z</time>
      </trkpt>
      <trkpt lat="45.84542" lon="4.41145">
        <ele>875</ele>
        <time>2025-09-10T08:31:44Z</time>
      </trkpt>
      <trkpt lat="45.84541" lon="4.41147">
        <ele>874.4</ele>
        <time>2025-09-10T08:31:45Z</time>
      </trkpt>
      <trkpt lat="45.8454" lon="4.4115">
        <ele>874.4</ele>
        <time>2025-09-10T08:31:46Z</time>
      </trkpt>
      <trkpt lat="45.84538" lon="4.41153">
        <ele>874.4</ele>
        <time>2025-09-10T08:31:47Z</time>
      </trkpt>
      <trkpt lat="45.84537" lon="4.41156">
        <ele>875</ele>
        <time>2025-09-10T08:31:48Z</time>
      </trkpt>
      <trkpt lat="45.84536" lon="4.41159">
        <ele>875</ele>
        <time>2025-09-10T08:31:49Z</time>
      </trkpt>
      <trkpt lat="45.84534" lon="4.41162">
        <ele>875</ele>
        <time>2025-09-10T08:31:50Z</time>
      </trkpt>
      <trkpt lat="45.84533" lon="4.41165">
        <ele>875</ele>
        <time>2025-09-10T08:31:51Z</time>
      </trkpt>
      <trkpt lat="45.84532" lon="4.41168">
        <ele>875</ele>
        <time>2025-09-10T08:31:52Z</time>
      </trkpt>
      <trkpt lat="45.8453" lon="4.41171">
        <ele>875</ele>
        <time>2025-09-10T08:31:53Z</time>
      </trkpt>
      <trkpt lat="45.84529" lon="4.41175">
        <ele>875</ele>
        <time>2025-09-10T08:31:54Z</time>
      </trkpt>
      <trkpt lat="45.84527" lon="4.41179">
        <ele>874.6</ele>
        <time>2025-09-10T08:31:55Z</time>
      </trkpt>
      <trkpt lat="45.84525" lon="4.41183">
        <ele>874.6</ele>
        <time>2025-09-10T08:31:56Z</time>
      </trkpt>
      <trkpt lat="45.84524" lon="4.41187">
        <ele>874.6</ele>
        <time>2025-09-10T08:31:57Z</time>
      </trkpt>
      <trkpt lat="45.84523" lon="4.41191">
        <ele>874.6</ele>
        <time>2025-09-10T08:31:58Z</time>
      </trkpt>
      <trkpt lat="45.84521" lon="4.41195">
        <ele>874.6</ele>
        <time>2025-09-10T08:31:59Z</time>
      </trkpt>
      <trkpt lat="45.8452" lon="4.41199">
        <ele>874.6</ele>
        <time>2025-09-10T08:32:00Z</time>
      </trkpt>
      <trkpt lat="45.8452" lon="4.41203">
        <ele>874.6</ele>
        <time>2025-09-10T08:32:01Z</time>
      </trkpt>
      <trkpt lat="45.84519" lon="4.41208">
        <ele>874.6</ele>
        <time>2025-09-10T08:32:02Z</time>
      </trkpt>
      <trkpt lat="45.84518" lon="4.41211">
        <ele>874.6</ele>
        <time>2025-09-10T08:32:03Z</time>
      </trkpt>
      <trkpt lat="45.84517" lon="4.41213">
        <ele>874.6</ele>
        <time>2025-09-10T08:32:04Z</time>
      </trkpt>
      <trkpt lat="45.84517" lon="4.41215">
        <ele>874.2</ele>
        <time>2025-09-10T08:32:05Z</time>
      </trkpt>
      <trkpt lat="45.84516" lon="4.41216">
        <ele>874.2</ele>
        <time>2025-09-10T08:32:06Z</time>
      </trkpt>
      <trkpt lat="45.84516" lon="4.41216">
        <ele>874.2</ele>
        <time>2025-09-10T08:32:07Z</time>
      </trkpt>
      <trkpt lat="45.84515" lon="4.41216">
        <ele>873.8</ele>
        <time>2025-09-10T08:32:12Z</time>
      </trkpt>
      <trkpt lat="45.84514" lon="4.41215">
        <ele>873.8</ele>
        <time>2025-09-10T08:32:13Z</time>
      </trkpt>
      <trkpt lat="45.84513" lon="4.41213">
        <ele>873.8</ele>
        <time>2025-09-10T08:32:14Z</time>
      </trkpt>
      <trkpt lat="45.84513" lon="4.41211">
        <ele>873.8</ele>
        <time>2025-09-10T08:32:15Z</time>
      </trkpt>
      <trkpt lat="45.84512" lon="4.41208">
        <ele>873.8</ele>
        <time>2025-09-10T08:32:16Z</time>
      </trkpt>
      <trkpt lat="45.84512" lon="4.41206">
        <ele>873.4</ele>
        <time>2025-09-10T08:32:17Z</time>
      </trkpt>
      <trkpt lat="45.84511" lon="4.41202">
        <ele>872.8</ele>
        <time>2025-09-10T08:32:18Z</time>
      </trkpt>
      <trkpt lat="45.84511" lon="4.41199">
        <ele>872.8</ele>
        <time>2025-09-10T08:32:19Z</time>
      </trkpt>
      <trkpt lat="45.8451" lon="4.41197">
        <ele>872.8</ele>
        <time>2025-09-10T08:32:20Z</time>
      </trkpt>
      <trkpt lat="45.8451" lon="4.41195">
        <ele>872.8</ele>
        <time>2025-09-10T08:32:21Z</time>
      </trkpt>
      <trkpt lat="45.84509" lon="4.41193">
        <ele>872.4</ele>
        <time>2025-09-10T08:32:22Z</time>
      </trkpt>
      <trkpt lat="45.84508" lon="4.4119">
        <ele>872</ele>
        <time>2025-09-10T08:32:23Z</time>
      </trkpt>
      <trkpt lat="45.84507" lon="4.41187">
        <ele>871.4</ele>
        <time>2025-09-10T08:32:24Z</time>
      </trkpt>
      <trkpt lat="45.84506" lon="4.41185">
        <ele>871</ele>
        <time>2025-09-10T08:32:25Z</time>
      </trkpt>
      <trkpt lat="45.84505" lon="4.41183">
        <ele>870.6</ele>
        <time>2025-09-10T08:32:26Z</time>
      </trkpt>
      <trkpt lat="45.84504" lon="4.4118">
        <ele>870.2</ele>
        <time>2025-09-10T08:32:27Z</time>
      </trkpt>
      <trkpt lat="45.84503" lon="4.41178">
        <ele>870.2</ele>
        <time>2025-09-10T08:32:28Z</time>
      </trkpt>
      <trkpt lat="45.84503" lon="4.41176">
        <ele>870.2</ele>
        <time>2025-09-10T08:32:29Z</time>
      </trkpt>
      <trkpt lat="45.84502" lon="4.41174">
        <ele>869.8</ele>
        <time>2025-09-10T08:32:30Z</time>
      </trkpt>
      <trkpt lat="45.84501" lon="4.41172">
        <ele>869.6</ele>
        <time>2025-09-10T08:32:31Z</time>
      </trkpt>
      <trkpt lat="45.84499" lon="4.41171">
        <ele>869.6</ele>
        <time>2025-09-10T08:32:32Z</time>
      </trkpt>
      <trkpt lat="45.84498" lon="4.41169">
        <ele>869</ele>
        <time>2025-09-10T08:32:33Z</time>
      </trkpt>
      <trkpt lat="45.84497" lon="4.41168">
        <ele>868.6</ele>
        <time>2025-09-10T08:32:34Z</time>
      </trkpt>
      <trkpt lat="45.84496" lon="4.41166">
        <ele>868.4</ele>
        <time>2025-09-10T08:32:35Z</time>
      </trkpt>
      <trkpt lat="45.84495" lon="4.41165">
        <ele>868</ele>
        <time>2025-09-10T08:32:36Z</time>
      </trkpt>
      <trkpt lat="45.84495" lon="4.41162">
        <ele>867.4</ele>
        <time>2025-09-10T08:32:37Z</time>
      </trkpt>
      <trkpt lat="45.84494" lon="4.41159">
        <ele>867.2</ele>
        <time>2025-09-10T08:32:38Z</time>
      </trkpt>
      <trkpt lat="45.84493" lon="4.41157">
        <ele>866.8</ele>
        <time>2025-09-10T08:32:39Z</time>
      </trkpt>
      <trkpt lat="45.84493" lon="4.41155">
        <ele>866.6</ele>
        <time>2025-09-10T08:32:40Z</time>
      </trkpt>
      <trkpt lat="45.84493" lon="4.41153">
        <ele>866.2</ele>
        <time>2025-09-10T08:32:41Z</time>
      </trkpt>
      <trkpt lat="45.84493" lon="4.4115">
        <ele>865.8</ele>
        <time>2025-09-10T08:32:42Z</time>
      </trkpt>
      <trkpt lat="45.84493" lon="4.41148">
        <ele>865.6</ele>
        <time>2025-09-10T08:32:43Z</time>
      </trkpt>
      <trkpt lat="45.84492" lon="4.41146">
        <ele>865.4</ele>
        <time>2025-09-10T08:32:44Z</time>
      </trkpt>
      <trkpt lat="45.84492" lon="4.41144">
        <ele>865.2</ele>
        <time>2025-09-10T08:32:45Z</time>
      </trkpt>
      <trkpt lat="45.84492" lon="4.41141">
        <ele>864.8</ele>
        <time>2025-09-10T08:32:46Z</time>
      </trkpt>
      <trkpt lat="45.84492" lon="4.41139">
        <ele>864.4</ele>
        <time>2025-09-10T08:32:47Z</time>
      </trkpt>
      <trkpt lat="45.84492" lon="4.41138">
        <ele>864.4</ele>
        <time>2025-09-10T08:32:48Z</time>
      </trkpt>
      <trkpt lat="45.84492" lon="4.41137">
        <ele>864</ele>
        <time>2025-09-10T08:32:49Z</time>
      </trkpt>
      <trkpt lat="45.84492" lon="4.41138">
        <ele>863.8</ele>
        <time>2025-09-10T08:32:50Z</time>
      </trkpt>
      <trkpt lat="45.84491" lon="4.41136">
        <ele>863.2</ele>
        <time>2025-09-10T08:33:03Z</time>
      </trkpt>
      <trkpt lat="45.8449" lon="4.41133">
        <ele>863.2</ele>
        <time>2025-09-10T08:33:04Z</time>
      </trkpt>
      <trkpt lat="45.84489" lon="4.4113">
        <ele>863.2</ele>
        <time>2025-09-10T08:33:05Z</time>
      </trkpt>
      <trkpt lat="45.84489" lon="4.41126">
        <ele>862.8</ele>
        <time>2025-09-10T08:33:06Z</time>
      </trkpt>
      <trkpt lat="45.84489" lon="4.41123">
        <ele>862.6</ele>
        <time>2025-09-10T08:33:07Z</time>
      </trkpt>
      <trkpt lat="45.84488" lon="4.4112">
        <ele>862.2</ele>
        <time>2025-09-10T08:33:08Z</time>
      </trkpt>
      <trkpt lat="45.84487" lon="4.41117">
        <ele>861.8</ele>
        <time>2025-09-10T08:33:09Z</time>
      </trkpt>
      <trkpt lat="45.84487" lon="4.41115">
        <ele>861.8</ele>
        <time>2025-09-10T08:33:10Z</time>
      </trkpt>
      <trkpt lat="45.84486" lon="4.41113">
        <ele>861.2</ele>
        <time>2025-09-10T08:33:11Z</time>
      </trkpt>
      <trkpt lat="45.84485" lon="4.41111">
        <ele>861</ele>
        <time>2025-09-10T08:33:12Z</time>
      </trkpt>
      <trkpt lat="45.84485" lon="4.41108">
        <ele>860.6</ele>
        <time>2025-09-10T08:33:13Z</time>
      </trkpt>
      <trkpt lat="45.84484" lon="4.41105">
        <ele>860.4</ele>
        <time>2025-09-10T08:33:14Z</time>
      </trkpt>
      <trkpt lat="45.84483" lon="4.41102">
        <ele>860.2</ele>
        <time>2025-09-10T08:33:15Z</time>
      </trkpt>
      <trkpt lat="45.84482" lon="4.41098">
        <ele>859.6</ele>
        <time>2025-09-10T08:33:16Z</time>
      </trkpt>
      <trkpt lat="45.84481" lon="4.41094">
        <ele>859</ele>
        <time>2025-09-10T08:33:17Z</time>
      </trkpt>
      <trkpt lat="45.8448" lon="4.41091">
        <ele>858.6</ele>
        <time>2025-09-10T08:33:18Z</time>
      </trkpt>
      <trkpt lat="45.8448" lon="4.41088">
        <ele>858.6</ele>
        <time>2025-09-10T08:33:19Z</time>
      </trkpt>
      <trkpt lat="45.84479" lon="4.41084">
        <ele>857.8</ele>
        <time>2025-09-10T08:33:20Z</time>
      </trkpt>
      <trkpt lat="45.84478" lon="4.41081">
        <ele>857.4</ele>
        <time>2025-09-10T08:33:21Z</time>
      </trkpt>
      <trkpt lat="45.84478" lon="4.41079">
        <ele>857</ele>
        <time>2025-09-10T08:33:22Z</time>
      </trkpt>
      <trkpt lat="45.84477" lon="4.41078">
        <ele>856.8</ele>
        <time>2025-09-10T08:33:23Z</time>
      </trkpt>
      <trkpt lat="45.84477" lon="4.41076">
        <ele>856.4</ele>
        <time>2025-09-10T08:33:24Z</time>
      </trkpt>
      <trkpt lat="45.84476" lon="4.41074">
        <ele>856.2</ele>
        <time>2025-09-10T08:33:25Z</time>
      </trkpt>
      <trkpt lat="45.84476" lon="4.41071">
        <ele>855.6</ele>
        <time>2025-09-10T08:33:26Z</time>
      </trkpt>
      <trkpt lat="45.84476" lon="4.41069">
        <ele>855.2</ele>
        <time>2025-09-10T08:33:27Z</time>
      </trkpt>
      <trkpt lat="45.84476" lon="4.41066">
        <ele>854.6</ele>
        <time>2025-09-10T08:33:28Z</time>
      </trkpt>
      <trkpt lat="45.84476" lon="4.41064">
        <ele>854.4</ele>
        <time>2025-09-10T08:33:29Z</time>
      </trkpt>
      <trkpt lat="45.84477" lon="4.41062">
        <ele>854</ele>
        <time>2025-09-10T08:33:30Z</time>
      </trkpt>
      <trkpt lat="45.84477" lon="4.41059">
        <ele>853.6</ele>
        <time>2025-09-10T08:33:31Z</time>
      </trkpt>
      <trkpt lat="45.84477" lon="4.41058">
        <ele>853.2</ele>
        <time>2025-09-10T08:33:32Z</time>
      </trkpt>
      <trkpt lat="45.84477" lon="4.41056">
        <ele>852.8</ele>
        <time>2025-09-10T08:33:33Z</time>
      </trkpt>
      <trkpt lat="45.84477" lon="4.41054">
        <ele>852.6</ele>
        <time>2025-09-10T08:33:34Z</time>
      </trkpt>
      <trkpt lat="45.84477" lon="4.41053">
        <ele>852.2</ele>
        <time>2025-09-10T08:33:35Z</time>
      </trkpt>
      <trkpt lat="45.84477" lon="4.41052">
        <ele>851.8</ele>
        <time>2025-09-10T08:33:36Z</time>
      </trkpt>
      <trkpt lat="45.84478" lon="4.41052">
        <ele>851.6</ele>
        <time>2025-09-10T08:33:37Z</time>
      </trkpt>
      <trkpt lat="45.84478" lon="4.4105">
        <ele>850.4</ele>
        <time>2025-09-10T08:33:49Z</time>
      </trkpt>
      <trkpt lat="45.84478" lon="4.41049">
        <ele>850.4</ele>
        <time>2025-09-10T08:33:50Z</time>
      </trkpt>
      <trkpt lat="45.84477" lon="4.41048">
        <ele>850.4</ele>
        <time>2025-09-10T08:33:51Z</time>
      </trkpt>
      <trkpt lat="45.84476" lon="4.41046">
        <ele>850</ele>
        <time>2025-09-10T08:33:52Z</time>
      </trkpt>
      <trkpt lat="45.84475" lon="4.41045">
        <ele>849.8</ele>
        <time>2025-09-10T08:33:53Z</time>
      </trkpt>
      <trkpt lat="45.84474" lon="4.41044">
        <ele>849.8</ele>
        <time>2025-09-10T08:33:54Z</time>
      </trkpt>
      <trkpt lat="45.84474" lon="4.41042">
        <ele>849.4</ele>
        <time>2025-09-10T08:33:55Z</time>
      </trkpt>
      <trkpt lat="45.84474" lon="4.4104">
        <ele>849.4</ele>
        <time>2025-09-10T08:33:56Z</time>
      </trkpt>
      <trkpt lat="45.84473" lon="4.41038">
        <ele>849</ele>
        <time>2025-09-10T08:33:57Z</time>
      </trkpt>
      <trkpt lat="45.84473" lon="4.41037">
        <ele>848.8</ele>
        <time>2025-09-10T08:33:58Z</time>
      </trkpt>
      <trkpt lat="45.84474" lon="4.41035">
        <ele>848.8</ele>
        <time>2025-09-10T08:33:59Z</time>
      </trkpt>
      <trkpt lat="45.84474" lon="4.41033">
        <ele>848.4</ele>
        <time>2025-09-10T08:34:00Z</time>
      </trkpt>
      <trkpt lat="45.84474" lon="4.41032">
        <ele>847.8</ele>
        <time>2025-09-10T08:34:01Z</time>
      </trkpt>
      <trkpt lat="45.84474" lon="4.41031">
        <ele>847.8</ele>
        <time>2025-09-10T08:34:02Z</time>
      </trkpt>
      <trkpt lat="45.84474" lon="4.41029">
        <ele>847.2</ele>
        <time>2025-09-10T08:34:03Z</time>
      </trkpt>
      <trkpt lat="45.84474" lon="4.41027">
        <ele>847.2</ele>
        <time>2025-09-10T08:34:04Z</time>
      </trkpt>
      <trkpt lat="45.84475" lon="4.41025">
        <ele>846.8</ele>
        <time>2025-09-10T08:34:05Z</time>
      </trkpt>
      <trkpt lat="45.84476" lon="4.41023">
        <ele>846.6</ele>
        <time>2025-09-10T08:34:06Z</time>
      </trkpt>
      <trkpt lat="45.84476" lon="4.41021">
        <ele>846.2</ele>
        <time>2025-09-10T08:34:07Z</time>
      </trkpt>
      <trkpt lat="45.84476" lon="4.41018">
        <ele>845.8</ele>
        <time>2025-09-10T08:34:08Z</time>
      </trkpt>
      <trkpt lat="45.84476" lon="4.41015">
        <ele>845.6</ele>
        <time>2025-09-10T08:34:09Z</time>
      </trkpt>
      <trkpt lat="45.84476" lon="4.41013">
        <ele>845.2</ele>
        <time>2025-09-10T08:34:10Z</time>
      </trkpt>
      <trkpt lat="45.84476" lon="4.4101">
        <ele>844.8</ele>
        <time>2025-09-10T08:34:11Z</time>
      </trkpt>
      <trkpt lat="45.84476" lon="4.41007">
        <ele>844.4</ele>
        <time>2025-09-10T08:34:12Z</time>
      </trkpt>
      <trkpt lat="45.84476" lon="4.41005">
        <ele>844</ele>
        <time>2025-09-10T08:34:13Z</time>
      </trkpt>
      <trkpt lat="45.84476" lon="4.41002">
        <ele>844</ele>
        <time>2025-09-10T08:34:14Z</time>
      </trkpt>
      <trkpt lat="45.84475" lon="4.40999">
        <ele>843.6</ele>
        <time>2025-09-10T08:34:15Z</time>
      </trkpt>
      <trkpt lat="45.84476" lon="4.40997">
        <ele>842.6</ele>
        <time>2025-09-10T08:34:16Z</time>
      </trkpt>
      <trkpt lat="45.84476" lon="4.40993">
        <ele>842.4</ele>
        <time>2025-09-10T08:34:17Z</time>
      </trkpt>
      <trkpt lat="45.84477" lon="4.4099">
        <ele>841.8</ele>
        <time>2025-09-10T08:34:18Z</time>
      </trkpt>
      <trkpt lat="45.84478" lon="4.40988">
        <ele>841.6</ele>
        <time>2025-09-10T08:34:19Z</time>
      </trkpt>
      <trkpt lat="45.84479" lon="4.40986">
        <ele>841.4</ele>
        <time>2025-09-10T08:34:20Z</time>
      </trkpt>
      <trkpt lat="45.84479" lon="4.40984">
        <ele>841.2</ele>
        <time>2025-09-10T08:34:21Z</time>
      </trkpt>
      <trkpt lat="45.8448" lon="4.40981">
        <ele>841.2</ele>
        <time>2025-09-10T08:34:22Z</time>
      </trkpt>
      <trkpt lat="45.8448" lon="4.40978">
        <ele>840.6</ele>
        <time>2025-09-10T08:34:23Z</time>
      </trkpt>
      <trkpt lat="45.84481" lon="4.40974">
        <ele>839.8</ele>
        <time>2025-09-10T08:34:24Z</time>
      </trkpt>
      <trkpt lat="45.84482" lon="4.40971">
        <ele>839.4</ele>
        <time>2025-09-10T08:34:25Z</time>
      </trkpt>
      <trkpt lat="45.84483" lon="4.40968">
        <ele>839</ele>
        <time>2025-09-10T08:34:26Z</time>
      </trkpt>
      <trkpt lat="45.84483" lon="4.40965">
        <ele>838.6</ele>
        <time>2025-09-10T08:34:27Z</time>
      </trkpt>
      <trkpt lat="45.84484" lon="4.40962">
        <ele>838.4</ele>
        <time>2025-09-10T08:34:28Z</time>
      </trkpt>
      <trkpt lat="45.84485" lon="4.4096">
        <ele>838.4</ele>
        <time>2025-09-10T08:34:29Z</time>
      </trkpt>
      <trkpt lat="45.84486" lon="4.40956">
        <ele>837.8</ele>
        <time>2025-09-10T08:34:30Z</time>
      </trkpt>
      <trkpt lat="45.84487" lon="4.40953">
        <ele>837.4</ele>
        <time>2025-09-10T08:34:31Z</time>
      </trkpt>
      <trkpt lat="45.84488" lon="4.4095">
        <ele>837</ele>
        <time>2025-09-10T08:34:32Z</time>
      </trkpt>
      <trkpt lat="45.84489" lon="4.40947">
        <ele>836.4</ele>
        <time>2025-09-10T08:34:33Z</time>
      </trkpt>
      <trkpt lat="45.84489" lon="4.40944">
        <ele>835.8</ele>
        <time>2025-09-10T08:34:34Z</time>
      </trkpt>
      <trkpt lat="45.8449" lon="4.40942">
        <ele>835.2</ele>
        <time>2025-09-10T08:34:35Z</time>
      </trkpt>
      <trkpt lat="45.84491" lon="4.40938">
        <ele>835.2</ele>
        <time>2025-09-10T08:34:36Z</time>
      </trkpt>
      <trkpt lat="45.84492" lon="4.40935">
        <ele>834.8</ele>
        <time>2025-09-10T08:34:37Z</time>
      </trkpt>
      <trkpt lat="45.84493" lon="4.40932">
        <ele>834.2</ele>
        <time>2025-09-10T08:34:38Z</time>
      </trkpt>
      <trkpt lat="45.84493" lon="4.40929">
        <ele>833.8</ele>
        <time>2025-09-10T08:34:39Z</time>
      </trkpt>
      <trkpt lat="45.84494" lon="4.40926">
        <ele>833.4</ele>
        <time>2025-09-10T08:34:40Z</time>
      </trkpt>
      <trkpt lat="45.84495" lon="4.40924">
        <ele>832.8</ele>
        <time>2025-09-10T08:34:41Z</time>
      </trkpt>
      <trkpt lat="45.84495" lon="4.40922">
        <ele>832.6</ele>
        <time>2025-09-10T08:34:42Z</time>
      </trkpt>
      <trkpt lat="45.84496" lon="4.40919">
        <ele>832</ele>
        <time>2025-09-10T08:34:43Z</time>
      </trkpt>
      <trkpt lat="45.84497" lon="4.40915">
        <ele>831.6</ele>
        <time>2025-09-10T08:34:44Z</time>
      </trkpt>
      <trkpt lat="45.84497" lon="4.40912">
        <ele>831.2</ele>
        <time>2025-09-10T08:34:45Z</time>
      </trkpt>
      <trkpt lat="45.84497" lon="4.40907">
        <ele>830.6</ele>
        <time>2025-09-10T08:34:46Z</time>
      </trkpt>
      <trkpt lat="45.84497" lon="4.40903">
        <ele>830.4</ele>
        <time>2025-09-10T08:34:47Z</time>
      </trkpt>
      <trkpt lat="45.84497" lon="4.409">
        <ele>830</ele>
        <time>2025-09-10T08:34:48Z</time>
      </trkpt>
      <trkpt lat="45.84496" lon="4.40896">
        <ele>829.4</ele>
        <time>2025-09-10T08:34:49Z</time>
      </trkpt>
      <trkpt lat="45.84496" lon="4.40892">
        <ele>828.8</ele>
        <time>2025-09-10T08:34:50Z</time>
      </trkpt>
      <trkpt lat="45.84496" lon="4.40888">
        <ele>828.2</ele>
        <time>2025-09-10T08:34:51Z</time>
      </trkpt>
      <trkpt lat="45.84496" lon="4.40884">
        <ele>828.2</ele>
        <time>2025-09-10T08:34:52Z</time>
      </trkpt>
      <trkpt lat="45.84497" lon="4.4088">
        <ele>827.8</ele>
        <time>2025-09-10T08:34:53Z</time>
      </trkpt>
      <trkpt lat="45.84498" lon="4.40877">
        <ele>827.2</ele>
        <time>2025-09-10T08:34:54Z</time>
      </trkpt>
      <trkpt lat="45.84499" lon="4.40873">
        <ele>826.8</ele>
        <time>2025-09-10T08:34:55Z</time>
      </trkpt>
      <trkpt lat="45.84499" lon="4.40869">
        <ele>826.4</ele>
        <time>2025-09-10T08:34:56Z</time>
      </trkpt>
      <trkpt lat="45.845" lon="4.40867">
        <ele>826.2</ele>
        <time>2025-09-10T08:34:57Z</time>
      </trkpt>
      <trkpt lat="45.845" lon="4.40864">
        <ele>825.6</ele>
        <time>2025-09-10T08:34:58Z</time>
      </trkpt>
      <trkpt lat="45.845" lon="4.40861">
        <ele>825.2</ele>
        <time>2025-09-10T08:34:59Z</time>
      </trkpt>
      <trkpt lat="45.845" lon="4.40859">
        <ele>824.8</ele>
        <time>2025-09-10T08:35:00Z</time>
      </trkpt>
      <trkpt lat="45.845" lon="4.40856">
        <ele>824.8</ele>
        <time>2025-09-10T08:35:01Z</time>
      </trkpt>
      <trkpt lat="45.845" lon="4.40853">
        <ele>824.4</ele>
        <time>2025-09-10T08:35:02Z</time>
      </trkpt>
      <trkpt lat="45.845" lon="4.4085">
        <ele>823.8</ele>
        <time>2025-09-10T08:35:03Z</time>
      </trkpt>
      <trkpt lat="45.845" lon="4.40849">
        <ele>823.4</ele>
        <time>2025-09-10T08:35:04Z</time>
      </trkpt>
      <trkpt lat="45.845" lon="4.40847">
        <ele>823</ele>
        <time>2025-09-10T08:35:05Z</time>
      </trkpt>
      <trkpt lat="45.845" lon="4.40846">
        <ele>822.8</ele>
        <time>2025-09-10T08:35:06Z</time>
      </trkpt>
      <trkpt lat="45.84499" lon="4.40844">
        <ele>822.4</ele>
        <time>2025-09-10T08:35:07Z</time>
      </trkpt>
      <trkpt lat="45.84499" lon="4.40844">
        <ele>822.4</ele>
        <time>2025-09-10T08:35:08Z</time>
      </trkpt>
      <trkpt lat="45.84499" lon="4.40844">
        <ele>822</ele>
        <time>2025-09-10T08:35:16Z</time>
      </trkpt>
      <trkpt lat="45.84499" lon="4.40842">
        <ele>822</ele>
        <time>2025-09-10T08:35:17Z</time>
      </trkpt>
      <trkpt lat="45.84499" lon="4.40839">
        <ele>822</ele>
        <time>2025-09-10T08:35:18Z</time>
      </trkpt>
      <trkpt lat="45.845" lon="4.40836">
        <ele>821.6</ele>
        <time>2025-09-10T08:35:19Z</time>
      </trkpt>
      <trkpt lat="45.845" lon="4.40834">
        <ele>821.4</ele>
        <time>2025-09-10T08:35:20Z</time>
      </trkpt>
      <trkpt lat="45.845" lon="4.40831">
        <ele>821</ele>
        <time>2025-09-10T08:35:21Z</time>
      </trkpt>
      <trkpt lat="45.84499" lon="4.40827">
        <ele>820.6</ele>
        <time>2025-09-10T08:35:22Z</time>
      </trkpt>
      <trkpt lat="45.84498" lon="4.40824">
        <ele>820.2</ele>
        <time>2025-09-10T08:35:23Z</time>
      </trkpt>
      <trkpt lat="45.84498" lon="4.40821">
        <ele>820</ele>
        <time>2025-09-10T08:35:24Z</time>
      </trkpt>
      <trkpt lat="45.84497" lon="4.40816">
        <ele>819.6</ele>
        <time>2025-09-10T08:35:25Z</time>
      </trkpt>
      <trkpt lat="45.84497" lon="4.40812">
        <ele>819.4</ele>
        <time>2025-09-10T08:35:26Z</time>
      </trkpt>
      <trkpt lat="45.84497" lon="4.40809">
        <ele>818.6</ele>
        <time>2025-09-10T08:35:27Z</time>
      </trkpt>
      <trkpt lat="45.84498" lon="4.40805">
        <ele>818.6</ele>
        <time>2025-09-10T08:35:28Z</time>
      </trkpt>
      <trkpt lat="45.84497" lon="4.40801">
        <ele>818.2</ele>
        <time>2025-09-10T08:35:29Z</time>
      </trkpt>
      <trkpt lat="45.84497" lon="4.40797">
        <ele>817.8</ele>
        <time>2025-09-10T08:35:30Z</time>
      </trkpt>
      <trkpt lat="45.84496" lon="4.40795">
        <ele>817.4</ele>
        <time>2025-09-10T08:35:31Z</time>
      </trkpt>
      <trkpt lat="45.84496" lon="4.40793">
        <ele>816.8</ele>
        <time>2025-09-10T08:35:32Z</time>
      </trkpt>
      <trkpt lat="45.84496" lon="4.40789">
        <ele>816.4</ele>
        <time>2025-09-10T08:35:33Z</time>
      </trkpt>
      <trkpt lat="45.84495" lon="4.40785">
        <ele>816</ele>
        <time>2025-09-10T08:35:34Z</time>
      </trkpt>
      <trkpt lat="45.84493" lon="4.40782">
        <ele>815.4</ele>
        <time>2025-09-10T08:35:35Z</time>
      </trkpt>
      <trkpt lat="45.84492" lon="4.40779">
        <ele>815.2</ele>
        <time>2025-09-10T08:35:36Z</time>
      </trkpt>
      <trkpt lat="45.8449" lon="4.40776">
        <ele>814.2</ele>
        <time>2025-09-10T08:35:37Z</time>
      </trkpt>
      <trkpt lat="45.84489" lon="4.40772">
        <ele>813.6</ele>
        <time>2025-09-10T08:35:38Z</time>
      </trkpt>
      <trkpt lat="45.84488" lon="4.40769">
        <ele>813.6</ele>
        <time>2025-09-10T08:35:39Z</time>
      </trkpt>
      <trkpt lat="45.84487" lon="4.40766">
        <ele>813</ele>
        <time>2025-09-10T08:35:40Z</time>
      </trkpt>
      <trkpt lat="45.84487" lon="4.40763">
        <ele>812.2</ele>
        <time>2025-09-10T08:35:41Z</time>
      </trkpt>
      <trkpt lat="45.84487" lon="4.4076">
        <ele>811.8</ele>
        <time>2025-09-10T08:35:42Z</time>
      </trkpt>
      <trkpt lat="45.84486" lon="4.40758">
        <ele>811.4</ele>
        <time>2025-09-10T08:35:43Z</time>
      </trkpt>
      <trkpt lat="45.84486" lon="4.40757">
        <ele>810.8</ele>
        <time>2025-09-10T08:35:44Z</time>
      </trkpt>
      <trkpt lat="45.84486" lon="4.40755">
        <ele>810.4</ele>
        <time>2025-09-10T08:35:45Z</time>
      </trkpt>
      <trkpt lat="45.84485" lon="4.40753">
        <ele>810.2</ele>
        <time>2025-09-10T08:35:46Z</time>
      </trkpt>
      <trkpt lat="45.84485" lon="4.4075">
        <ele>810</ele>
        <time>2025-09-10T08:35:47Z</time>
      </trkpt>
      <trkpt lat="45.84484" lon="4.40746">
        <ele>809.6</ele>
        <time>2025-09-10T08:35:48Z</time>
      </trkpt>
      <trkpt lat="45.84483" lon="4.4074">
        <ele>809.2</ele>
        <time>2025-09-10T08:35:49Z</time>
      </trkpt>
      <trkpt lat="45.84482" lon="4.40735">
        <ele>808.6</ele>
        <time>2025-09-10T08:35:50Z</time>
      </trkpt>
      <trkpt lat="45.84482" lon="4.40729">
        <ele>808.2</ele>
        <time>2025-09-10T08:35:51Z</time>
      </trkpt>
      <trkpt lat="45.84482" lon="4.40723">
        <ele>807.4</ele>
        <time>2025-09-10T08:35:52Z</time>
      </trkpt>
      <trkpt lat="45.84482" lon="4.40716">
        <ele>806.6</ele>
        <time>2025-09-10T08:35:53Z</time>
      </trkpt>
      <trkpt lat="45.84481" lon="4.4071">
        <ele>806</ele>
        <time>2025-09-10T08:35:54Z</time>
      </trkpt>
      <trkpt lat="45.84481" lon="4.40704">
        <ele>805.2</ele>
        <time>2025-09-10T08:35:55Z</time>
      </trkpt>
      <trkpt lat="45.8448" lon="4.407">
        <ele>804.6</ele>
        <time>2025-09-10T08:35:56Z</time>
      </trkpt>
      <trkpt lat="45.84479" lon="4.40694">
        <ele>804.2</ele>
        <time>2025-09-10T08:35:57Z</time>
      </trkpt>
      <trkpt lat="45.84477" lon="4.40688">
        <ele>803.6</ele>
        <time>2025-09-10T08:35:58Z</time>
      </trkpt>
      <trkpt lat="45.84477" lon="4.40681">
        <ele>803.2</ele>
        <time>2025-09-10T08:35:59Z</time>
      </trkpt>
      <trkpt lat="45.84478" lon="4.40672">
        <ele>802.6</ele>
        <time>2025-09-10T08:36:00Z</time>
      </trkpt>
      <trkpt lat="45.84479" lon="4.40666">
        <ele>802.2</ele>
        <time>2025-09-10T08:36:01Z</time>
      </trkpt>
      <trkpt lat="45.84481" lon="4.40661">
        <ele>801.4</ele>
        <time>2025-09-10T08:36:02Z</time>
      </trkpt>
      <trkpt lat="45.84481" lon="4.40656">
        <ele>801.2</ele>
        <time>2025-09-10T08:36:03Z</time>
      </trkpt>
      <trkpt lat="45.84483" lon="4.40652">
        <ele>800.8</ele>
        <time>2025-09-10T08:36:04Z</time>
      </trkpt>
      <trkpt lat="45.84483" lon="4.40649">
        <ele>800.4</ele>
        <time>2025-09-10T08:36:05Z</time>
      </trkpt>
      <trkpt lat="45.84483" lon="4.40647">
        <ele>800</ele>
        <time>2025-09-10T08:36:06Z</time>
      </trkpt>
      <trkpt lat="45.84479" lon="4.40647">
        <ele>800</ele>
        <time>2025-09-10T08:36:07Z</time>
      </trkpt>
      <trkpt lat="45.84478" lon="4.40649">
        <ele>799.6</ele>
        <time>2025-09-10T08:36:08Z</time>
      </trkpt>
      <trkpt lat="45.84476" lon="4.40652">
        <ele>799.4</ele>
        <time>2025-09-10T08:36:09Z</time>
      </trkpt>
      <trkpt lat="45.84476" lon="4.40655">
        <ele>799.4</ele>
        <time>2025-09-10T08:36:10Z</time>
      </trkpt>
      <trkpt lat="45.84474" lon="4.40658">
        <ele>799.4</ele>
        <time>2025-09-10T08:36:11Z</time>
      </trkpt>
      <trkpt lat="45.84473" lon="4.40662">
        <ele>799.2</ele>
        <time>2025-09-10T08:36:12Z</time>
      </trkpt>
      <trkpt lat="45.84471" lon="4.40665">
        <ele>799.2</ele>
        <time>2025-09-10T08:36:13Z</time>
      </trkpt>
      <trkpt lat="45.8447" lon="4.40668">
        <ele>799.2</ele>
        <time>2025-09-10T08:36:14Z</time>
      </trkpt>
      <trkpt lat="45.84468" lon="4.40671">
        <ele>798.8</ele>
        <time>2025-09-10T08:36:15Z</time>
      </trkpt>
      <trkpt lat="45.84466" lon="4.40674">
        <ele>798.8</ele>
        <time>2025-09-10T08:36:16Z</time>
      </trkpt>
      <trkpt lat="45.84464" lon="4.40677">
        <ele>798.6</ele>
        <time>2025-09-10T08:36:17Z</time>
      </trkpt>
      <trkpt lat="45.84461" lon="4.4068">
        <ele>798.6</ele>
        <time>2025-09-10T08:36:18Z</time>
      </trkpt>
      <trkpt lat="45.84459" lon="4.40683">
        <ele>798.6</ele>
        <time>2025-09-10T08:36:19Z</time>
      </trkpt>
      <trkpt lat="45.84456" lon="4.40686">
        <ele>798.6</ele>
        <time>2025-09-10T08:36:20Z</time>
      </trkpt>
      <trkpt lat="45.84453" lon="4.4069">
        <ele>798.4</ele>
        <time>2025-09-10T08:36:21Z</time>
      </trkpt>
      <trkpt lat="45.84451" lon="4.40696">
        <ele>798.4</ele>
        <time>2025-09-10T08:36:22Z</time>
      </trkpt>
      <trkpt lat="45.84448" lon="4.40701">
        <ele>798.4</ele>
        <time>2025-09-10T08:36:23Z</time>
      </trkpt>
      <trkpt lat="45.84448" lon="4.40701">
        <ele>798.2</ele>
        <time>2025-09-10T08:36:24Z</time>
      </trkpt>
      <trkpt lat="45.84448" lon="4.40701">
        <ele>798.2</ele>
        <time>2025-09-10T08:36:25Z</time>
      </trkpt>
      <trkpt lat="45.84435" lon="4.40721">
        <ele>798</ele>
        <time>2025-09-10T08:36:27Z</time>
      </trkpt>
      <trkpt lat="45.84432" lon="4.40726">
        <ele>798</ele>
        <time>2025-09-10T08:36:28Z</time>
      </trkpt>
      <trkpt lat="45.84428" lon="4.40731">
        <ele>797.6</ele>
        <time>2025-09-10T08:36:29Z</time>
      </trkpt>
      <trkpt lat="45.84424" lon="4.40736">
        <ele>797.6</ele>
        <time>2025-09-10T08:36:30Z</time>
      </trkpt>
      <trkpt lat="45.8442" lon="4.4074">
        <ele>797.4</ele>
        <time>2025-09-10T08:36:31Z</time>
      </trkpt>
      <trkpt lat="45.84417" lon="4.40746">
        <ele>797.4</ele>
        <time>2025-09-10T08:36:32Z</time>
      </trkpt>
      <trkpt lat="45.84413" lon="4.40751">
        <ele>797</ele>
        <time>2025-09-10T08:36:33Z</time>
      </trkpt>
      <trkpt lat="45.84409" lon="4.40756">
        <ele>797</ele>
        <time>2025-09-10T08:36:34Z</time>
      </trkpt>
      <trkpt lat="45.84405" lon="4.40762">
        <ele>796.8</ele>
        <time>2025-09-10T08:36:35Z</time>
      </trkpt>
      <trkpt lat="45.84401" lon="4.40767">
        <ele>796.8</ele>
        <time>2025-09-10T08:36:36Z</time>
      </trkpt>
      <trkpt lat="45.84397" lon="4.40773">
        <ele>796.4</ele>
        <time>2025-09-10T08:36:37Z</time>
      </trkpt>
      <trkpt lat="45.84393" lon="4.40779">
        <ele>796.4</ele>
        <time>2025-09-10T08:36:38Z</time>
      </trkpt>
      <trkpt lat="45.84389" lon="4.40786">
        <ele>796.4</ele>
        <time>2025-09-10T08:36:39Z</time>
      </trkpt>
      <trkpt lat="45.84385" lon="4.40793">
        <ele>796.2</ele>
        <time>2025-09-10T08:36:40Z</time>
      </trkpt>
      <trkpt lat="45.84381" lon="4.408">
        <ele>796.2</ele>
        <time>2025-09-10T08:36:41Z</time>
      </trkpt>
      <trkpt lat="45.84378" lon="4.40807">
        <ele>796</ele>
        <time>2025-09-10T08:36:42Z</time>
      </trkpt>
      <trkpt lat="45.84374" lon="4.40813">
        <ele>796</ele>
        <time>2025-09-10T08:36:43Z</time>
      </trkpt>
      <trkpt lat="45.84371" lon="4.4082">
        <ele>796</ele>
        <time>2025-09-10T08:36:44Z</time>
      </trkpt>
      <trkpt lat="45.84367" lon="4.40827">
        <ele>795.6</ele>
        <time>2025-09-10T08:36:45Z</time>
      </trkpt>
      <trkpt lat="45.84364" lon="4.40834">
        <ele>795.6</ele>
        <time>2025-09-10T08:36:46Z</time>
      </trkpt>
      <trkpt lat="45.8436" lon="4.40841">
        <ele>795.6</ele>
        <time>2025-09-10T08:36:47Z</time>
      </trkpt>
      <trkpt lat="45.84357" lon="4.40848">
        <ele>795.6</ele>
        <time>2025-09-10T08:36:48Z</time>
      </trkpt>
      <trkpt lat="45.84354" lon="4.40854">
        <ele>795.4</ele>
        <time>2025-09-10T08:36:49Z</time>
      </trkpt>
      <trkpt lat="45.8435" lon="4.4086">
        <ele>795.4</ele>
        <time>2025-09-10T08:36:50Z</time>
      </trkpt>
      <trkpt lat="45.84346" lon="4.40867">
        <ele>795.4</ele>
        <time>2025-09-10T08:36:51Z</time>
      </trkpt>
      <trkpt lat="45.84342" lon="4.40874">
        <ele>795.2</ele>
        <time>2025-09-10T08:36:52Z</time>
      </trkpt>
      <trkpt lat="45.84339" lon="4.40881">
        <ele>795.2</ele>
        <time>2025-09-10T08:36:53Z</time>
      </trkpt>
      <trkpt lat="45.84335" lon="4.40888">
        <ele>795.2</ele>
        <time>2025-09-10T08:36:54Z</time>
      </trkpt>
      <trkpt lat="45.84332" lon="4.40894">
        <ele>795.2</ele>
        <time>2025-09-10T08:36:55Z</time>
      </trkpt>
      <trkpt lat="45.84329" lon="4.40899">
        <ele>795.2</ele>
        <time>2025-09-10T08:36:56Z</time>
      </trkpt>
      <trkpt lat="45.84326" lon="4.40906">
        <ele>795.4</ele>
        <time>2025-09-10T08:36:57Z</time>
      </trkpt>
      <trkpt lat="45.84323" lon="4.40913">
        <ele>795.4</ele>
        <time>2025-09-10T08:36:58Z</time>
      </trkpt>
      <trkpt lat="45.84319" lon="4.40919">
        <ele>795.4</ele>
        <time>2025-09-10T08:36:59Z</time>
      </trkpt>
      <trkpt lat="45.84316" lon="4.40927">
        <ele>795.4</ele>
        <time>2025-09-10T08:37:00Z</time>
      </trkpt>
      <trkpt lat="45.84313" lon="4.40934">
        <ele>795.6</ele>
        <time>2025-09-10T08:37:01Z</time>
      </trkpt>
      <trkpt lat="45.84309" lon="4.40939">
        <ele>795.6</ele>
        <time>2025-09-10T08:37:02Z</time>
      </trkpt>
      <trkpt lat="45.84305" lon="4.40945">
        <ele>795.6</ele>
        <time>2025-09-10T08:37:03Z</time>
      </trkpt>
      <trkpt lat="45.843" lon="4.40951">
        <ele>795.6</ele>
        <time>2025-09-10T08:37:04Z</time>
      </trkpt>
      <trkpt lat="45.84296" lon="4.40957">
        <ele>795.6</ele>
        <time>2025-09-10T08:37:05Z</time>
      </trkpt>
      <trkpt lat="45.84292" lon="4.40963">
        <ele>795.6</ele>
        <time>2025-09-10T08:37:06Z</time>
      </trkpt>
      <trkpt lat="45.84288" lon="4.40969">
        <ele>795.6</ele>
        <time>2025-09-10T08:37:07Z</time>
      </trkpt>
      <trkpt lat="45.84284" lon="4.40974">
        <ele>795.6</ele>
        <time>2025-09-10T08:37:08Z</time>
      </trkpt>
      <trkpt lat="45.8428" lon="4.4098">
        <ele>795.6</ele>
        <time>2025-09-10T08:37:09Z</time>
      </trkpt>
      <trkpt lat="45.84276" lon="4.40985">
        <ele>795.8</ele>
        <time>2025-09-10T08:37:10Z</time>
      </trkpt>
      <trkpt lat="45.84272" lon="4.4099">
        <ele>795.8</ele>
        <time>2025-09-10T08:37:11Z</time>
      </trkpt>
      <trkpt lat="45.84268" lon="4.40995">
        <ele>795.8</ele>
        <time>2025-09-10T08:37:12Z</time>
      </trkpt>
      <trkpt lat="45.84264" lon="4.41002">
        <ele>795.8</ele>
        <time>2025-09-10T08:37:13Z</time>
      </trkpt>
      <trkpt lat="45.84259" lon="4.41008">
        <ele>796.2</ele>
        <time>2025-09-10T08:37:14Z</time>
      </trkpt>
      <trkpt lat="45.84256" lon="4.41013">
        <ele>796.2</ele>
        <time>2025-09-10T08:37:15Z</time>
      </trkpt>
      <trkpt lat="45.84251" lon="4.41016">
        <ele>796.2</ele>
        <time>2025-09-10T08:37:16Z</time>
      </trkpt>
      <trkpt lat="45.84248" lon="4.4102">
        <ele>796.2</ele>
        <time>2025-09-10T08:37:17Z</time>
      </trkpt>
      <trkpt lat="45.84244" lon="4.41025">
        <ele>796.2</ele>
        <time>2025-09-10T08:37:18Z</time>
      </trkpt>
      <trkpt lat="45.8424" lon="4.4103">
        <ele>796.2</ele>
        <time>2025-09-10T08:37:19Z</time>
      </trkpt>
      <trkpt lat="45.84239" lon="4.41034">
        <ele>796.4</ele>
        <time>2025-09-10T08:37:20Z</time>
      </trkpt>
      <trkpt lat="45.84235" lon="4.41038">
        <ele>796.4</ele>
        <time>2025-09-10T08:37:21Z</time>
      </trkpt>
      <trkpt lat="45.84228" lon="4.41046">
        <ele>796.4</ele>
        <time>2025-09-10T08:37:22Z</time>
      </trkpt>
      <trkpt lat="45.84225" lon="4.41051">
        <ele>796.4</ele>
        <time>2025-09-10T08:37:23Z</time>
      </trkpt>
      <trkpt lat="45.84221" lon="4.41055">
        <ele>796.6</ele>
        <time>2025-09-10T08:37:24Z</time>
      </trkpt>
      <trkpt lat="45.84219" lon="4.4106">
        <ele>796.6</ele>
        <time>2025-09-10T08:37:25Z</time>
      </trkpt>
      <trkpt lat="45.84216" lon="4.41063">
        <ele>796.6</ele>
        <time>2025-09-10T08:37:26Z</time>
      </trkpt>
      <trkpt lat="45.84213" lon="4.41067">
        <ele>797</ele>
        <time>2025-09-10T08:37:27Z</time>
      </trkpt>
      <trkpt lat="45.8421" lon="4.4107">
        <ele>797</ele>
        <time>2025-09-10T08:37:28Z</time>
      </trkpt>
      <trkpt lat="45.84208" lon="4.41073">
        <ele>797</ele>
        <time>2025-09-10T08:37:29Z</time>
      </trkpt>
      <trkpt lat="45.84205" lon="4.41077">
        <ele>797.4</ele>
        <time>2025-09-10T08:37:30Z</time>
      </trkpt>
      <trkpt lat="45.84204" lon="4.41081">
        <ele>797.4</ele>
        <time>2025-09-10T08:37:31Z</time>
      </trkpt>
      <trkpt lat="45.84202" lon="4.41084">
        <ele>797.6</ele>
        <time>2025-09-10T08:37:32Z</time>
      </trkpt>
      <trkpt lat="45.842" lon="4.41087">
        <ele>797.6</ele>
        <time>2025-09-10T08:37:33Z</time>
      </trkpt>
      <trkpt lat="45.84197" lon="4.41089">
        <ele>797.8</ele>
        <time>2025-09-10T08:37:34Z</time>
      </trkpt>
      <trkpt lat="45.84194" lon="4.41093">
        <ele>797.8</ele>
        <time>2025-09-10T08:37:35Z</time>
      </trkpt>
      <trkpt lat="45.84192" lon="4.41097">
        <ele>797.8</ele>
        <time>2025-09-10T08:37:36Z</time>
      </trkpt>
      <trkpt lat="45.84189" lon="4.411">
        <ele>797.8</ele>
        <time>2025-09-10T08:37:37Z</time>
      </trkpt>
      <trkpt lat="45.84187" lon="4.41104">
        <ele>798.2</ele>
        <time>2025-09-10T08:37:38Z</time>
      </trkpt>
      <trkpt lat="45.84187" lon="4.41104">
        <ele>798.2</ele>
        <time>2025-09-10T08:37:39Z</time>
      </trkpt>
      <trkpt lat="45.84184" lon="4.41107">
        <ele>798.2</ele>
        <time>2025-09-10T08:37:40Z</time>
      </trkpt>
      <trkpt lat="45.84182" lon="4.41111">
        <ele>798.4</ele>
        <time>2025-09-10T08:37:41Z</time>
      </trkpt>
      <trkpt lat="45.84179" lon="4.41114">
        <ele>798.4</ele>
        <time>2025-09-10T08:37:42Z</time>
      </trkpt>
      <trkpt lat="45.84176" lon="4.41117">
        <ele>798.8</ele>
        <time>2025-09-10T08:37:43Z</time>
      </trkpt>
      <trkpt lat="45.84174" lon="4.4112">
        <ele>798.8</ele>
        <time>2025-09-10T08:37:44Z</time>
      </trkpt>
      <trkpt lat="45.84171" lon="4.41123">
        <ele>799</ele>
        <time>2025-09-10T08:37:45Z</time>
      </trkpt>
      <trkpt lat="45.84169" lon="4.41126">
        <ele>799</ele>
        <time>2025-09-10T08:37:46Z</time>
      </trkpt>
      <trkpt lat="45.84166" lon="4.41129">
        <ele>799.2</ele>
        <time>2025-09-10T08:37:47Z</time>
      </trkpt>
      <trkpt lat="45.84164" lon="4.41133">
        <ele>799.2</ele>
        <time>2025-09-10T08:37:48Z</time>
      </trkpt>
      <trkpt lat="45.84161" lon="4.41136">
        <ele>799.2</ele>
        <time>2025-09-10T08:37:49Z</time>
      </trkpt>
      <trkpt lat="45.84158" lon="4.41139">
        <ele>799.6</ele>
        <time>2025-09-10T08:37:50Z</time>
      </trkpt>
      <trkpt lat="45.84156" lon="4.41141">
        <ele>799.6</ele>
        <time>2025-09-10T08:37:51Z</time>
      </trkpt>
      <trkpt lat="45.84153" lon="4.41144">
        <ele>799.8</ele>
        <time>2025-09-10T08:37:52Z</time>
      </trkpt>
      <trkpt lat="45.8415" lon="4.41147">
        <ele>799.8</ele>
        <time>2025-09-10T08:37:53Z</time>
      </trkpt>
      <trkpt lat="45.84148" lon="4.4115">
        <ele>799.8</ele>
        <time>2025-09-10T08:37:54Z</time>
      </trkpt>
      <trkpt lat="45.84145" lon="4.41153">
        <ele>799.8</ele>
        <time>2025-09-10T08:37:55Z</time>
      </trkpt>
      <trkpt lat="45.84142" lon="4.41156">
        <ele>799.8</ele>
        <time>2025-09-10T08:37:56Z</time>
      </trkpt>
      <trkpt lat="45.8414" lon="4.41159">
        <ele>800</ele>
        <time>2025-09-10T08:37:57Z</time>
      </trkpt>
      <trkpt lat="45.84138" lon="4.41162">
        <ele>800</ele>
        <time>2025-09-10T08:37:58Z</time>
      </trkpt>
      <trkpt lat="45.84136" lon="4.41165">
        <ele>800</ele>
        <time>2025-09-10T08:37:59Z</time>
      </trkpt>
      <trkpt lat="45.84134" lon="4.41168">
        <ele>800</ele>
        <time>2025-09-10T08:38:00Z</time>
      </trkpt>
      <trkpt lat="45.84133" lon="4.41172">
        <ele>800</ele>
        <time>2025-09-10T08:38:01Z</time>
      </trkpt>
      <trkpt lat="45.84132" lon="4.41175">
        <ele>800.2</ele>
        <time>2025-09-10T08:38:02Z</time>
      </trkpt>
      <trkpt lat="45.8413" lon="4.41179">
        <ele>800.2</ele>
        <time>2025-09-10T08:38:03Z</time>
      </trkpt>
      <trkpt lat="45.84129" lon="4.41184">
        <ele>800.2</ele>
        <time>2025-09-10T08:38:04Z</time>
      </trkpt>
      <trkpt lat="45.84127" lon="4.41188">
        <ele>800.2</ele>
        <time>2025-09-10T08:38:05Z</time>
      </trkpt>
      <trkpt lat="45.84126" lon="4.41192">
        <ele>800.4</ele>
        <time>2025-09-10T08:38:06Z</time>
      </trkpt>
      <trkpt lat="45.84125" lon="4.41195">
        <ele>800.4</ele>
        <time>2025-09-10T08:38:07Z</time>
      </trkpt>
      <trkpt lat="45.84124" lon="4.41199">
        <ele>800.4</ele>
        <time>2025-09-10T08:38:08Z</time>
      </trkpt>
      <trkpt lat="45.84123" lon="4.41203">
        <ele>800.4</ele>
        <time>2025-09-10T08:38:09Z</time>
      </trkpt>
      <trkpt lat="45.84122" lon="4.41208">
        <ele>800.4</ele>
        <time>2025-09-10T08:38:10Z</time>
      </trkpt>
      <trkpt lat="45.84121" lon="4.41213">
        <ele>800.4</ele>
        <time>2025-09-10T08:38:11Z</time>
      </trkpt>
      <trkpt lat="45.8412" lon="4.41217">
        <ele>800.4</ele>
        <time>2025-09-10T08:38:12Z</time>
      </trkpt>
      <trkpt lat="45.84118" lon="4.41222">
        <ele>800.4</ele>
        <time>2025-09-10T08:38:13Z</time>
      </trkpt>
      <trkpt lat="45.84116" lon="4.41227">
        <ele>800.4</ele>
        <time>2025-09-10T08:38:14Z</time>
      </trkpt>
      <trkpt lat="45.84115" lon="4.41233">
        <ele>800.4</ele>
        <time>2025-09-10T08:38:15Z</time>
      </trkpt>
      <trkpt lat="45.84113" lon="4.41239">
        <ele>800.4</ele>
        <time>2025-09-10T08:38:16Z</time>
      </trkpt>
      <trkpt lat="45.84111" lon="4.41245">
        <ele>800.4</ele>
        <time>2025-09-10T08:38:17Z</time>
      </trkpt>
      <trkpt lat="45.84109" lon="4.41252">
        <ele>800.2</ele>
        <time>2025-09-10T08:38:18Z</time>
      </trkpt>
      <trkpt lat="45.84107" lon="4.41259">
        <ele>800.2</ele>
        <time>2025-09-10T08:38:19Z</time>
      </trkpt>
      <trkpt lat="45.84105" lon="4.41265">
        <ele>800.2</ele>
        <time>2025-09-10T08:38:20Z</time>
      </trkpt>
      <trkpt lat="45.84104" lon="4.41273">
        <ele>799.8</ele>
        <time>2025-09-10T08:38:21Z</time>
      </trkpt>
      <trkpt lat="45.84101" lon="4.4128">
        <ele>799.8</ele>
        <time>2025-09-10T08:38:22Z</time>
      </trkpt>
      <trkpt lat="45.84099" lon="4.41287">
        <ele>799.6</ele>
        <time>2025-09-10T08:38:23Z</time>
      </trkpt>
      <trkpt lat="45.84097" lon="4.41294">
        <ele>799.6</ele>
        <time>2025-09-10T08:38:24Z</time>
      </trkpt>
      <trkpt lat="45.84095" lon="4.41302">
        <ele>799.6</ele>
        <time>2025-09-10T08:38:25Z</time>
      </trkpt>
      <trkpt lat="45.84093" lon="4.4131">
        <ele>799.6</ele>
        <time>2025-09-10T08:38:26Z</time>
      </trkpt>
      <trkpt lat="45.8409" lon="4.41318">
        <ele>799.2</ele>
        <time>2025-09-10T08:38:27Z</time>
      </trkpt>
      <trkpt lat="45.84088" lon="4.41327">
        <ele>799.2</ele>
        <time>2025-09-10T08:38:28Z</time>
      </trkpt>
      <trkpt lat="45.84086" lon="4.41335">
        <ele>798.8</ele>
        <time>2025-09-10T08:38:29Z</time>
      </trkpt>
      <trkpt lat="45.84084" lon="4.41344">
        <ele>798.6</ele>
        <time>2025-09-10T08:38:30Z</time>
      </trkpt>
      <trkpt lat="45.84081" lon="4.41353">
        <ele>798.6</ele>
        <time>2025-09-10T08:38:31Z</time>
      </trkpt>
      <trkpt lat="45.84079" lon="4.41362">
        <ele>798.6</ele>
        <time>2025-09-10T08:38:32Z</time>
      </trkpt>
      <trkpt lat="45.84077" lon="4.4137">
        <ele>798</ele>
        <time>2025-09-10T08:38:33Z</time>
      </trkpt>
      <trkpt lat="45.84074" lon="4.41379">
        <ele>798</ele>
        <time>2025-09-10T08:38:34Z</time>
      </trkpt>
      <trkpt lat="45.84072" lon="4.41387">
        <ele>797.8</ele>
        <time>2025-09-10T08:38:35Z</time>
      </trkpt>
      <trkpt lat="45.84071" lon="4.41395">
        <ele>797.8</ele>
        <time>2025-09-10T08:38:36Z</time>
      </trkpt>
      <trkpt lat="45.84069" lon="4.41403">
        <ele>797.6</ele>
        <time>2025-09-10T08:38:37Z</time>
      </trkpt>
      <trkpt lat="45.84067" lon="4.41412">
        <ele>797.6</ele>
        <time>2025-09-10T08:38:38Z</time>
      </trkpt>
      <trkpt lat="45.84063" lon="4.41421">
        <ele>797.6</ele>
        <time>2025-09-10T08:38:39Z</time>
      </trkpt>
      <trkpt lat="45.84061" lon="4.4143">
        <ele>797.6</ele>
        <time>2025-09-10T08:38:40Z</time>
      </trkpt>
      <trkpt lat="45.8406" lon="4.41438">
        <ele>797.8</ele>
        <time>2025-09-10T08:38:41Z</time>
      </trkpt>
      <trkpt lat="45.84058" lon="4.41445">
        <ele>797.8</ele>
        <time>2025-09-10T08:38:42Z</time>
      </trkpt>
      <trkpt lat="45.84057" lon="4.41452">
        <ele>798.2</ele>
        <time>2025-09-10T08:38:43Z</time>
      </trkpt>
      <trkpt lat="45.84055" lon="4.41459">
        <ele>798.2</ele>
        <time>2025-09-10T08:38:44Z</time>
      </trkpt>
      <trkpt lat="45.84054" lon="4.41466">
        <ele>798.4</ele>
        <time>2025-09-10T08:38:45Z</time>
      </trkpt>
      <trkpt lat="45.84053" lon="4.41473">
        <ele>798.4</ele>
        <time>2025-09-10T08:38:46Z</time>
      </trkpt>
      <trkpt lat="45.84052" lon="4.4148">
        <ele>798.4</ele>
        <time>2025-09-10T08:38:47Z</time>
      </trkpt>
      <trkpt lat="45.84052" lon="4.41487">
        <ele>798.4</ele>
        <time>2025-09-10T08:38:48Z</time>
      </trkpt>
      <trkpt lat="45.84051" lon="4.41493">
        <ele>798.8</ele>
        <time>2025-09-10T08:38:49Z</time>
      </trkpt>
      <trkpt lat="45.84051" lon="4.415">
        <ele>798.8</ele>
        <time>2025-09-10T08:38:50Z</time>
      </trkpt>
      <trkpt lat="45.84051" lon="4.41506">
        <ele>798.8</ele>
        <time>2025-09-10T08:38:51Z</time>
      </trkpt>
      <trkpt lat="45.84052" lon="4.41512">
        <ele>798.8</ele>
        <time>2025-09-10T08:38:52Z</time>
      </trkpt>
      <trkpt lat="45.84053" lon="4.41518">
        <ele>799</ele>
        <time>2025-09-10T08:38:53Z</time>
      </trkpt>
      <trkpt lat="45.84055" lon="4.41523">
        <ele>799</ele>
        <time>2025-09-10T08:38:54Z</time>
      </trkpt>
      <trkpt lat="45.84057" lon="4.41528">
        <ele>799.4</ele>
        <time>2025-09-10T08:38:55Z</time>
      </trkpt>
      <trkpt lat="45.84059" lon="4.41532">
        <ele>799.4</ele>
        <time>2025-09-10T08:38:56Z</time>
      </trkpt>
      <trkpt lat="45.84062" lon="4.41537">
        <ele>799.4</ele>
        <time>2025-09-10T08:38:57Z</time>
      </trkpt>
      <trkpt lat="45.84066" lon="4.4154">
        <ele>799.6</ele>
        <time>2025-09-10T08:38:58Z</time>
      </trkpt>
      <trkpt lat="45.84069" lon="4.41543">
        <ele>799.6</ele>
        <time>2025-09-10T08:38:59Z</time>
      </trkpt>
      <trkpt lat="45.84073" lon="4.41546">
        <ele>799.6</ele>
        <time>2025-09-10T08:39:00Z</time>
      </trkpt>
      <trkpt lat="45.84076" lon="4.4155">
        <ele>799.6</ele>
        <time>2025-09-10T08:39:01Z</time>
      </trkpt>
      <trkpt lat="45.8408" lon="4.41554">
        <ele>799.6</ele>
        <time>2025-09-10T08:39:02Z</time>
      </trkpt>
      <trkpt lat="45.84083" lon="4.41559">
        <ele>799.6</ele>
        <time>2025-09-10T08:39:03Z</time>
      </trkpt>
      <trkpt lat="45.84086" lon="4.41563">
        <ele>799.6</ele>
        <time>2025-09-10T08:39:04Z</time>
      </trkpt>
      <trkpt lat="45.84088" lon="4.41568">
        <ele>799.6</ele>
        <time>2025-09-10T08:39:05Z</time>
      </trkpt>
      <trkpt lat="45.8409" lon="4.41573">
        <ele>799.6</ele>
        <time>2025-09-10T08:39:06Z</time>
      </trkpt>
      <trkpt lat="45.84092" lon="4.41578">
        <ele>799.6</ele>
        <time>2025-09-10T08:39:07Z</time>
      </trkpt>
      <trkpt lat="45.84094" lon="4.41583">
        <ele>800</ele>
        <time>2025-09-10T08:39:08Z</time>
      </trkpt>
      <trkpt lat="45.84096" lon="4.41588">
        <ele>800</ele>
        <time>2025-09-10T08:39:09Z</time>
      </trkpt>
      <trkpt lat="45.84097" lon="4.41592">
        <ele>800.2</ele>
        <time>2025-09-10T08:39:10Z</time>
      </trkpt>
      <trkpt lat="45.84099" lon="4.41597">
        <ele>800.2</ele>
        <time>2025-09-10T08:39:11Z</time>
      </trkpt>
      <trkpt lat="45.841" lon="4.41603">
        <ele>800.2</ele>
        <time>2025-09-10T08:39:12Z</time>
      </trkpt>
      <trkpt lat="45.84101" lon="4.41608">
        <ele>800.2</ele>
        <time>2025-09-10T08:39:13Z</time>
      </trkpt>
      <trkpt lat="45.84102" lon="4.41614">
        <ele>800.2</ele>
        <time>2025-09-10T08:39:14Z</time>
      </trkpt>
      <trkpt lat="45.84103" lon="4.41619">
        <ele>800.2</ele>
        <time>2025-09-10T08:39:15Z</time>
      </trkpt>
      <trkpt lat="45.84104" lon="4.41625">
        <ele>800.2</ele>
        <time>2025-09-10T08:39:16Z</time>
      </trkpt>
      <trkpt lat="45.84104" lon="4.4163">
        <ele>800.2</ele>
        <time>2025-09-10T08:39:17Z</time>
      </trkpt>
      <trkpt lat="45.84104" lon="4.41634">
        <ele>800.4</ele>
        <time>2025-09-10T08:39:18Z</time>
      </trkpt>
      <trkpt lat="45.84104" lon="4.41639">
        <ele>800.4</ele>
        <time>2025-09-10T08:39:19Z</time>
      </trkpt>
      <trkpt lat="45.84104" lon="4.41643">
        <ele>800.4</ele>
        <time>2025-09-10T08:39:20Z</time>
      </trkpt>
      <trkpt lat="45.84104" lon="4.41647">
        <ele>800.8</ele>
        <time>2025-09-10T08:39:21Z</time>
      </trkpt>
      <trkpt lat="45.84103" lon="4.41651">
        <ele>800.8</ele>
        <time>2025-09-10T08:39:22Z</time>
      </trkpt>
      <trkpt lat="45.84102" lon="4.41655">
        <ele>801.2</ele>
        <time>2025-09-10T08:39:23Z</time>
      </trkpt>
      <trkpt lat="45.84102" lon="4.41659">
        <ele>801.2</ele>
        <time>2025-09-10T08:39:24Z</time>
      </trkpt>
      <trkpt lat="45.84101" lon="4.41663">
        <ele>801.4</ele>
        <time>2025-09-10T08:39:25Z</time>
      </trkpt>
      <trkpt lat="45.841" lon="4.41667">
        <ele>801.4</ele>
        <time>2025-09-10T08:39:26Z</time>
      </trkpt>
      <trkpt lat="45.84099" lon="4.4167">
        <ele>801.6</ele>
        <time>2025-09-10T08:39:27Z</time>
      </trkpt>
      <trkpt lat="45.84098" lon="4.41674">
        <ele>801.6</ele>
        <time>2025-09-10T08:39:28Z</time>
      </trkpt>
      <trkpt lat="45.84097" lon="4.41677">
        <ele>802</ele>
        <time>2025-09-10T08:39:29Z</time>
      </trkpt>
      <trkpt lat="45.84097" lon="4.41679">
        <ele>802</ele>
        <time>2025-09-10T08:39:30Z</time>
      </trkpt>
      <trkpt lat="45.84096" lon="4.41682">
        <ele>802.2</ele>
        <time>2025-09-10T08:39:31Z</time>
      </trkpt>
      <trkpt lat="45.84095" lon="4.41685">
        <ele>802.2</ele>
        <time>2025-09-10T08:39:32Z</time>
      </trkpt>
      <trkpt lat="45.84094" lon="4.41687">
        <ele>802.4</ele>
        <time>2025-09-10T08:39:33Z</time>
      </trkpt>
      <trkpt lat="45.84094" lon="4.41689">
        <ele>802.4</ele>
        <time>2025-09-10T08:39:34Z</time>
      </trkpt>
      <trkpt lat="45.84092" lon="4.41692">
        <ele>802.6</ele>
        <time>2025-09-10T08:39:35Z</time>
      </trkpt>
      <trkpt lat="45.84091" lon="4.41695">
        <ele>802.6</ele>
        <time>2025-09-10T08:39:36Z</time>
      </trkpt>
      <trkpt lat="45.8409" lon="4.41697">
        <ele>802.6</ele>
        <time>2025-09-10T08:39:37Z</time>
      </trkpt>
      <trkpt lat="45.84089" lon="4.417">
        <ele>802.6</ele>
        <time>2025-09-10T08:39:38Z</time>
      </trkpt>
      <trkpt lat="45.84088" lon="4.41703">
        <ele>803</ele>
        <time>2025-09-10T08:39:39Z</time>
      </trkpt>
      <trkpt lat="45.84088" lon="4.41706">
        <ele>803</ele>
        <time>2025-09-10T08:39:40Z</time>
      </trkpt>
      <trkpt lat="45.84086" lon="4.41709">
        <ele>803</ele>
        <time>2025-09-10T08:39:41Z</time>
      </trkpt>
      <trkpt lat="45.84085" lon="4.41712">
        <ele>803.2</ele>
        <time>2025-09-10T08:39:42Z</time>
      </trkpt>
      <trkpt lat="45.84084" lon="4.41715">
        <ele>802.4</ele>
        <time>2025-09-10T08:39:43Z</time>
      </trkpt>
      <trkpt lat="45.84082" lon="4.41718">
        <ele>802.8</ele>
        <time>2025-09-10T08:39:44Z</time>
      </trkpt>
      <trkpt lat="45.84081" lon="4.41722">
        <ele>802.8</ele>
        <time>2025-09-10T08:39:45Z</time>
      </trkpt>
      <trkpt lat="45.8408" lon="4.41725">
        <ele>802.8</ele>
        <time>2025-09-10T08:39:46Z</time>
      </trkpt>
      <trkpt lat="45.84078" lon="4.41729">
        <ele>802.8</ele>
        <time>2025-09-10T08:39:47Z</time>
      </trkpt>
      <trkpt lat="45.84077" lon="4.41732">
        <ele>802.8</ele>
        <time>2025-09-10T08:39:48Z</time>
      </trkpt>
      <trkpt lat="45.84075" lon="4.41736">
        <ele>802.8</ele>
        <time>2025-09-10T08:39:49Z</time>
      </trkpt>
      <trkpt lat="45.84074" lon="4.4174">
        <ele>803</ele>
        <time>2025-09-10T08:39:50Z</time>
      </trkpt>
      <trkpt lat="45.84072" lon="4.41743">
        <ele>803</ele>
        <time>2025-09-10T08:39:51Z</time>
      </trkpt>
      <trkpt lat="45.84071" lon="4.41747">
        <ele>803</ele>
        <time>2025-09-10T08:39:52Z</time>
      </trkpt>
      <trkpt lat="45.8407" lon="4.41751">
        <ele>803.2</ele>
        <time>2025-09-10T08:39:53Z</time>
      </trkpt>
      <trkpt lat="45.84069" lon="4.41755">
        <ele>803.2</ele>
        <time>2025-09-10T08:39:54Z</time>
      </trkpt>
      <trkpt lat="45.84067" lon="4.41759">
        <ele>802.6</ele>
        <time>2025-09-10T08:39:55Z</time>
      </trkpt>
      <trkpt lat="45.84065" lon="4.41762">
        <ele>803.8</ele>
        <time>2025-09-10T08:39:56Z</time>
      </trkpt>
      <trkpt lat="45.84063" lon="4.41765">
        <ele>803.8</ele>
        <time>2025-09-10T08:39:57Z</time>
      </trkpt>
      <trkpt lat="45.84061" lon="4.41768">
        <ele>803.8</ele>
        <time>2025-09-10T08:39:58Z</time>
      </trkpt>
      <trkpt lat="45.84059" lon="4.4177">
        <ele>803.8</ele>
        <time>2025-09-10T08:39:59Z</time>
      </trkpt>
      <trkpt lat="45.84058" lon="4.41773">
        <ele>804</ele>
        <time>2025-09-10T08:40:00Z</time>
      </trkpt>
      <trkpt lat="45.84056" lon="4.41776">
        <ele>804</ele>
        <time>2025-09-10T08:40:01Z</time>
      </trkpt>
      <trkpt lat="45.84054" lon="4.41778">
        <ele>804</ele>
        <time>2025-09-10T08:40:02Z</time>
      </trkpt>
      <trkpt lat="45.84053" lon="4.4178">
        <ele>804.2</ele>
        <time>2025-09-10T08:40:03Z</time>
      </trkpt>
      <trkpt lat="45.84051" lon="4.41781">
        <ele>804.2</ele>
        <time>2025-09-10T08:40:04Z</time>
      </trkpt>
      <trkpt lat="45.84049" lon="4.41782">
        <ele>804.2</ele>
        <time>2025-09-10T08:40:05Z</time>
      </trkpt>
      <trkpt lat="45.84047" lon="4.41784">
        <ele>804.6</ele>
        <time>2025-09-10T08:40:06Z</time>
      </trkpt>
      <trkpt lat="45.84044" lon="4.41786">
        <ele>804.6</ele>
        <time>2025-09-10T08:40:07Z</time>
      </trkpt>
      <trkpt lat="45.84041" lon="4.41788">
        <ele>804.6</ele>
        <time>2025-09-10T08:40:08Z</time>
      </trkpt>
      <trkpt lat="45.84039" lon="4.41791">
        <ele>804.6</ele>
        <time>2025-09-10T08:40:09Z</time>
      </trkpt>
      <trkpt lat="45.84036" lon="4.41794">
        <ele>804.2</ele>
        <time>2025-09-10T08:40:10Z</time>
      </trkpt>
      <trkpt lat="45.84033" lon="4.41797">
        <ele>804</ele>
        <time>2025-09-10T08:40:11Z</time>
      </trkpt>
      <trkpt lat="45.84031" lon="4.418">
        <ele>805</ele>
        <time>2025-09-10T08:40:12Z</time>
      </trkpt>
      <trkpt lat="45.84028" lon="4.41802">
        <ele>805</ele>
        <time>2025-09-10T08:40:13Z</time>
      </trkpt>
      <trkpt lat="45.84025" lon="4.41804">
        <ele>805</ele>
        <time>2025-09-10T08:40:14Z</time>
      </trkpt>
      <trkpt lat="45.84023" lon="4.41807">
        <ele>805.4</ele>
        <time>2025-09-10T08:40:15Z</time>
      </trkpt>
      <trkpt lat="45.84021" lon="4.41809">
        <ele>804.2</ele>
        <time>2025-09-10T08:40:16Z</time>
      </trkpt>
      <trkpt lat="45.84019" lon="4.41811">
        <ele>805.2</ele>
        <time>2025-09-10T08:40:17Z</time>
      </trkpt>
      <trkpt lat="45.84016" lon="4.41813">
        <ele>805.4</ele>
        <time>2025-09-10T08:40:18Z</time>
      </trkpt>
      <trkpt lat="45.84013" lon="4.41815">
        <ele>805.4</ele>
        <time>2025-09-10T08:40:19Z</time>
      </trkpt>
      <trkpt lat="45.84011" lon="4.41818">
        <ele>805.8</ele>
        <time>2025-09-10T08:40:20Z</time>
      </trkpt>
      <trkpt lat="45.84008" lon="4.4182">
        <ele>805.8</ele>
        <time>2025-09-10T08:40:21Z</time>
      </trkpt>
      <trkpt lat="45.84006" lon="4.41823">
        <ele>806</ele>
        <time>2025-09-10T08:40:22Z</time>
      </trkpt>
      <trkpt lat="45.84004" lon="4.41825">
        <ele>806</ele>
        <time>2025-09-10T08:40:23Z</time>
      </trkpt>
      <trkpt lat="45.84002" lon="4.41827">
        <ele>806.2</ele>
        <time>2025-09-10T08:40:24Z</time>
      </trkpt>
      <trkpt lat="45.83999" lon="4.41829">
        <ele>806.2</ele>
        <time>2025-09-10T08:40:25Z</time>
      </trkpt>
      <trkpt lat="45.83997" lon="4.41831">
        <ele>806.2</ele>
        <time>2025-09-10T08:40:26Z</time>
      </trkpt>
      <trkpt lat="45.83995" lon="4.41833">
        <ele>806.2</ele>
        <time>2025-09-10T08:40:27Z</time>
      </trkpt>
      <trkpt lat="45.83993" lon="4.41835">
        <ele>806.4</ele>
        <time>2025-09-10T08:40:28Z</time>
      </trkpt>
      <trkpt lat="45.83991" lon="4.41837">
        <ele>806.4</ele>
        <time>2025-09-10T08:40:29Z</time>
      </trkpt>
      <trkpt lat="45.83989" lon="4.4184">
        <ele>806.4</ele>
        <time>2025-09-10T08:40:30Z</time>
      </trkpt>
      <trkpt lat="45.83986" lon="4.41843">
        <ele>806.4</ele>
        <time>2025-09-10T08:40:31Z</time>
      </trkpt>
      <trkpt lat="45.83983" lon="4.41846">
        <ele>806.6</ele>
        <time>2025-09-10T08:40:32Z</time>
      </trkpt>
      <trkpt lat="45.83981" lon="4.41848">
        <ele>806.6</ele>
        <time>2025-09-10T08:40:33Z</time>
      </trkpt>
      <trkpt lat="45.83978" lon="4.4185">
        <ele>806.6</ele>
        <time>2025-09-10T08:40:34Z</time>
      </trkpt>
      <trkpt lat="45.83975" lon="4.41853">
        <ele>806.6</ele>
        <time>2025-09-10T08:40:35Z</time>
      </trkpt>
      <trkpt lat="45.83972" lon="4.41856">
        <ele>806.6</ele>
        <time>2025-09-10T08:40:36Z</time>
      </trkpt>
      <trkpt lat="45.83968" lon="4.4186">
        <ele>806.6</ele>
        <time>2025-09-10T08:40:37Z</time>
      </trkpt>
      <trkpt lat="45.83964" lon="4.41864">
        <ele>806.6</ele>
        <time>2025-09-10T08:40:38Z</time>
      </trkpt>
      <trkpt lat="45.8396" lon="4.41868">
        <ele>806.4</ele>
        <time>2025-09-10T08:40:39Z</time>
      </trkpt>
      <trkpt lat="45.83955" lon="4.41872">
        <ele>806.4</ele>
        <time>2025-09-10T08:40:40Z</time>
      </trkpt>
      <trkpt lat="45.83952" lon="4.41876">
        <ele>806.4</ele>
        <time>2025-09-10T08:40:41Z</time>
      </trkpt>
      <trkpt lat="45.83949" lon="4.4188">
        <ele>806.2</ele>
        <time>2025-09-10T08:40:42Z</time>
      </trkpt>
      <trkpt lat="45.83945" lon="4.41884">
        <ele>806.2</ele>
        <time>2025-09-10T08:40:43Z</time>
      </trkpt>
      <trkpt lat="45.8394" lon="4.41889">
        <ele>805.8</ele>
        <time>2025-09-10T08:40:44Z</time>
      </trkpt>
      <trkpt lat="45.83938" lon="4.41895">
        <ele>805.4</ele>
        <time>2025-09-10T08:40:45Z</time>
      </trkpt>
      <trkpt lat="45.83934" lon="4.41901">
        <ele>805.2</ele>
        <time>2025-09-10T08:40:46Z</time>
      </trkpt>
      <trkpt lat="45.83932" lon="4.41908">
        <ele>805.2</ele>
        <time>2025-09-10T08:40:47Z</time>
      </trkpt>
      <trkpt lat="45.83929" lon="4.41915">
        <ele>804.8</ele>
        <time>2025-09-10T08:40:48Z</time>
      </trkpt>
      <trkpt lat="45.83931" lon="4.41925">
        <ele>804.4</ele>
        <time>2025-09-10T08:40:49Z</time>
      </trkpt>
      <trkpt lat="45.83929" lon="4.41935">
        <ele>804</ele>
        <time>2025-09-10T08:40:50Z</time>
      </trkpt>
      <trkpt lat="45.83928" lon="4.41944">
        <ele>803.6</ele>
        <time>2025-09-10T08:40:51Z</time>
      </trkpt>
      <trkpt lat="45.83927" lon="4.41954">
        <ele>803.4</ele>
        <time>2025-09-10T08:40:52Z</time>
      </trkpt>
      <trkpt lat="45.83923" lon="4.41977">
        <ele>802.8</ele>
        <time>2025-09-10T08:40:53Z</time>
      </trkpt>
      <trkpt lat="45.83921" lon="4.41989">
        <ele>802.2</ele>
        <time>2025-09-10T08:40:54Z</time>
      </trkpt>
      <trkpt lat="45.8392" lon="4.42002">
        <ele>801.6</ele>
        <time>2025-09-10T08:40:55Z</time>
      </trkpt>
      <trkpt lat="45.8392" lon="4.42015">
        <ele>801.2</ele>
        <time>2025-09-10T08:40:56Z</time>
      </trkpt>
      <trkpt lat="45.8392" lon="4.42029">
        <ele>800.6</ele>
        <time>2025-09-10T08:40:57Z</time>
      </trkpt>
      <trkpt lat="45.83921" lon="4.42043">
        <ele>799.8</ele>
        <time>2025-09-10T08:40:58Z</time>
      </trkpt>
      <trkpt lat="45.83923" lon="4.42058">
        <ele>799</ele>
        <time>2025-09-10T08:40:59Z</time>
      </trkpt>
      <trkpt lat="45.83924" lon="4.42074">
        <ele>798.2</ele>
        <time>2025-09-10T08:41:00Z</time>
      </trkpt>
      <trkpt lat="45.83925" lon="4.42089">
        <ele>797.2</ele>
        <time>2025-09-10T08:41:01Z</time>
      </trkpt>
      <trkpt lat="45.83927" lon="4.42106">
        <ele>796.4</ele>
        <time>2025-09-10T08:41:02Z</time>
      </trkpt>
      <trkpt lat="45.83927" lon="4.42122">
        <ele>795.6</ele>
        <time>2025-09-10T08:41:03Z</time>
      </trkpt>
      <trkpt lat="45.83929" lon="4.42139">
        <ele>794.6</ele>
        <time>2025-09-10T08:41:04Z</time>
      </trkpt>
      <trkpt lat="45.8393" lon="4.42155">
        <ele>793.8</ele>
        <time>2025-09-10T08:41:05Z</time>
      </trkpt>
      <trkpt lat="45.83931" lon="4.42171">
        <ele>793</ele>
        <time>2025-09-10T08:41:06Z</time>
      </trkpt>
      <trkpt lat="45.83933" lon="4.42186">
        <ele>792.2</ele>
        <time>2025-09-10T08:41:07Z</time>
      </trkpt>
      <trkpt lat="45.83933" lon="4.422">
        <ele>792.2</ele>
        <time>2025-09-10T08:41:08Z</time>
      </trkpt>
      <trkpt lat="45.83935" lon="4.42214">
        <ele>790.4</ele>
        <time>2025-09-10T08:41:09Z</time>
      </trkpt>
      <trkpt lat="45.83934" lon="4.42226">
        <ele>789.8</ele>
        <time>2025-09-10T08:41:10Z</time>
      </trkpt>
      <trkpt lat="45.83936" lon="4.4224">
        <ele>789.4</ele>
        <time>2025-09-10T08:41:11Z</time>
      </trkpt>
      <trkpt lat="45.83936" lon="4.4224">
        <ele>789.4</ele>
        <time>2025-09-10T08:41:12Z</time>
      </trkpt>
      <trkpt lat="45.83937" lon="4.42252">
        <ele>788.8</ele>
        <time>2025-09-10T08:41:13Z</time>
      </trkpt>
      <trkpt lat="45.83939" lon="4.42264">
        <ele>788.2</ele>
        <time>2025-09-10T08:41:14Z</time>
      </trkpt>
      <trkpt lat="45.83942" lon="4.42275">
        <ele>787.4</ele>
        <time>2025-09-10T08:41:15Z</time>
      </trkpt>
      <trkpt lat="45.83945" lon="4.42286">
        <ele>786.6</ele>
        <time>2025-09-10T08:41:16Z</time>
      </trkpt>
      <trkpt lat="45.83947" lon="4.42296">
        <ele>786</ele>
        <time>2025-09-10T08:41:17Z</time>
      </trkpt>
      <trkpt lat="45.83948" lon="4.42308">
        <ele>785.2</ele>
        <time>2025-09-10T08:41:18Z</time>
      </trkpt>
      <trkpt lat="45.83948" lon="4.4232">
        <ele>784.6</ele>
        <time>2025-09-10T08:41:19Z</time>
      </trkpt>
      <trkpt lat="45.83948" lon="4.42331">
        <ele>784.2</ele>
        <time>2025-09-10T08:41:20Z</time>
      </trkpt>
      <trkpt lat="45.83951" lon="4.42339">
        <ele>783.8</ele>
        <time>2025-09-10T08:41:21Z</time>
      </trkpt>
      <trkpt lat="45.83952" lon="4.42347">
        <ele>783.4</ele>
        <time>2025-09-10T08:41:22Z</time>
      </trkpt>
      <trkpt lat="45.83953" lon="4.42352">
        <ele>783</ele>
        <time>2025-09-10T08:41:23Z</time>
      </trkpt>
      <trkpt lat="45.83954" lon="4.42357">
        <ele>782.8</ele>
        <time>2025-09-10T08:41:24Z</time>
      </trkpt>
      <trkpt lat="45.83957" lon="4.42362">
        <ele>782.6</ele>
        <time>2025-09-10T08:41:25Z</time>
      </trkpt>
      <trkpt lat="45.83955" lon="4.42364">
        <ele>782.2</ele>
        <time>2025-09-10T08:41:26Z</time>
      </trkpt>
      <trkpt lat="45.83954" lon="4.42367">
        <ele>782</ele>
        <time>2025-09-10T08:41:27Z</time>
      </trkpt>
      <trkpt lat="45.83952" lon="4.42367">
        <ele>781.8</ele>
        <time>2025-09-10T08:41:28Z</time>
      </trkpt>
      <trkpt lat="45.83949" lon="4.42367">
        <ele>781.4</ele>
        <time>2025-09-10T08:41:29Z</time>
      </trkpt>
      <trkpt lat="45.83948" lon="4.42362">
        <ele>781.2</ele>
        <time>2025-09-10T08:41:30Z</time>
      </trkpt>
      <trkpt lat="45.83947" lon="4.42357">
        <ele>781.2</ele>
        <time>2025-09-10T08:41:31Z</time>
      </trkpt>
      <trkpt lat="45.83946" lon="4.42353">
        <ele>780.8</ele>
        <time>2025-09-10T08:41:32Z</time>
      </trkpt>
      <trkpt lat="45.83943" lon="4.42347">
        <ele>780.4</ele>
        <time>2025-09-10T08:41:33Z</time>
      </trkpt>
      <trkpt lat="45.8394" lon="4.42343">
        <ele>780.4</ele>
        <time>2025-09-10T08:41:34Z</time>
      </trkpt>
      <trkpt lat="45.83936" lon="4.42338">
        <ele>780</ele>
        <time>2025-09-10T08:41:35Z</time>
      </trkpt>
      <trkpt lat="45.83932" lon="4.42331">
        <ele>779.6</ele>
        <time>2025-09-10T08:41:36Z</time>
      </trkpt>
      <trkpt lat="45.83926" lon="4.42325">
        <ele>779</ele>
        <time>2025-09-10T08:41:37Z</time>
      </trkpt>
      <trkpt lat="45.83922" lon="4.42319">
        <ele>778.4</ele>
        <time>2025-09-10T08:41:38Z</time>
      </trkpt>
      <trkpt lat="45.83917" lon="4.42314">
        <ele>777.4</ele>
        <time>2025-09-10T08:41:39Z</time>
      </trkpt>
      <trkpt lat="45.83911" lon="4.42308">
        <ele>777</ele>
        <time>2025-09-10T08:41:40Z</time>
      </trkpt>
      <trkpt lat="45.83906" lon="4.42301">
        <ele>775.8</ele>
        <time>2025-09-10T08:41:41Z</time>
      </trkpt>
      <trkpt lat="45.83901" lon="4.42293">
        <ele>775.2</ele>
        <time>2025-09-10T08:41:42Z</time>
      </trkpt>
      <trkpt lat="45.83895" lon="4.42287">
        <ele>774.2</ele>
        <time>2025-09-10T08:41:43Z</time>
      </trkpt>
      <trkpt lat="45.83889" lon="4.42282">
        <ele>773.2</ele>
        <time>2025-09-10T08:41:44Z</time>
      </trkpt>
      <trkpt lat="45.83883" lon="4.42274">
        <ele>772.2</ele>
        <time>2025-09-10T08:41:45Z</time>
      </trkpt>
      <trkpt lat="45.83877" lon="4.42266">
        <ele>771.4</ele>
        <time>2025-09-10T08:41:46Z</time>
      </trkpt>
      <trkpt lat="45.83871" lon="4.42258">
        <ele>770.2</ele>
        <time>2025-09-10T08:41:47Z</time>
      </trkpt>
      <trkpt lat="45.83865" lon="4.42249">
        <ele>768.6</ele>
        <time>2025-09-10T08:41:48Z</time>
      </trkpt>
      <trkpt lat="45.83858" lon="4.42241">
        <ele>767.6</ele>
        <time>2025-09-10T08:41:49Z</time>
      </trkpt>
      <trkpt lat="45.83853" lon="4.42231">
        <ele>766.4</ele>
        <time>2025-09-10T08:41:50Z</time>
      </trkpt>
      <trkpt lat="45.83847" lon="4.42221">
        <ele>765.8</ele>
        <time>2025-09-10T08:41:51Z</time>
      </trkpt>
      <trkpt lat="45.83841" lon="4.42211">
        <ele>764.8</ele>
        <time>2025-09-10T08:41:52Z</time>
      </trkpt>
      <trkpt lat="45.83837" lon="4.42204">
        <ele>763.6</ele>
        <time>2025-09-10T08:41:53Z</time>
      </trkpt>
      <trkpt lat="45.83832" lon="4.4219">
        <ele>762.4</ele>
        <time>2025-09-10T08:41:54Z</time>
      </trkpt>
      <trkpt lat="45.83828" lon="4.42179">
        <ele>761.4</ele>
        <time>2025-09-10T08:41:55Z</time>
      </trkpt>
      <trkpt lat="45.83823" lon="4.42168">
        <ele>760.4</ele>
        <time>2025-09-10T08:41:56Z</time>
      </trkpt>
      <trkpt lat="45.8382" lon="4.42157">
        <ele>759.8</ele>
        <time>2025-09-10T08:41:57Z</time>
      </trkpt>
      <trkpt lat="45.83815" lon="4.42147">
        <ele>757.8</ele>
        <time>2025-09-10T08:41:58Z</time>
      </trkpt>
      <trkpt lat="45.83812" lon="4.42138">
        <ele>757.6</ele>
        <time>2025-09-10T08:41:59Z</time>
      </trkpt>
      <trkpt lat="45.83808" lon="4.42128">
        <ele>757.2</ele>
        <time>2025-09-10T08:42:00Z</time>
      </trkpt>
      <trkpt lat="45.83805" lon="4.42119">
        <ele>756.8</ele>
        <time>2025-09-10T08:42:01Z</time>
      </trkpt>
      <trkpt lat="45.83801" lon="4.42108">
        <ele>756.4</ele>
        <time>2025-09-10T08:42:02Z</time>
      </trkpt>
      <trkpt lat="45.83798" lon="4.42097">
        <ele>756</ele>
        <time>2025-09-10T08:42:03Z</time>
      </trkpt>
      <trkpt lat="45.83796" lon="4.42085">
        <ele>755.4</ele>
        <time>2025-09-10T08:42:04Z</time>
      </trkpt>
      <trkpt lat="45.83793" lon="4.42073">
        <ele>754.4</ele>
        <time>2025-09-10T08:42:05Z</time>
      </trkpt>
      <trkpt lat="45.83789" lon="4.42061">
        <ele>753.4</ele>
        <time>2025-09-10T08:42:06Z</time>
      </trkpt>
      <trkpt lat="45.83784" lon="4.42049">
        <ele>752.6</ele>
        <time>2025-09-10T08:42:07Z</time>
      </trkpt>
      <trkpt lat="45.83779" lon="4.42037">
        <ele>751.2</ele>
        <time>2025-09-10T08:42:08Z</time>
      </trkpt>
      <trkpt lat="45.83773" lon="4.42026">
        <ele>750.6</ele>
        <time>2025-09-10T08:42:09Z</time>
      </trkpt>
      <trkpt lat="45.83768" lon="4.42016">
        <ele>749.8</ele>
        <time>2025-09-10T08:42:10Z</time>
      </trkpt>
      <trkpt lat="45.83762" lon="4.42006">
        <ele>749</ele>
        <time>2025-09-10T08:42:11Z</time>
      </trkpt>
      <trkpt lat="45.83757" lon="4.41996">
        <ele>748</ele>
        <time>2025-09-10T08:42:12Z</time>
      </trkpt>
      <trkpt lat="45.83752" lon="4.41987">
        <ele>747.4</ele>
        <time>2025-09-10T08:42:13Z</time>
      </trkpt>
      <trkpt lat="45.83747" lon="4.41979">
        <ele>746.8</ele>
        <time>2025-09-10T08:42:14Z</time>
      </trkpt>
      <trkpt lat="45.83743" lon="4.41972">
        <ele>746.2</ele>
        <time>2025-09-10T08:42:15Z</time>
      </trkpt>
      <trkpt lat="45.83738" lon="4.41964">
        <ele>745.4</ele>
        <time>2025-09-10T08:42:16Z</time>
      </trkpt>
      <trkpt lat="45.83734" lon="4.41957">
        <ele>744.6</ele>
        <time>2025-09-10T08:42:17Z</time>
      </trkpt>
      <trkpt lat="45.8373" lon="4.41951">
        <ele>744</ele>
        <time>2025-09-10T08:42:18Z</time>
      </trkpt>
      <trkpt lat="45.83725" lon="4.41944">
        <ele>743.6</ele>
        <time>2025-09-10T08:42:19Z</time>
      </trkpt>
      <trkpt lat="45.8372" lon="4.41937">
        <ele>742.6</ele>
        <time>2025-09-10T08:42:20Z</time>
      </trkpt>
      <trkpt lat="45.83714" lon="4.4193">
        <ele>742</ele>
        <time>2025-09-10T08:42:21Z</time>
      </trkpt>
      <trkpt lat="45.83708" lon="4.41924">
        <ele>741</ele>
        <time>2025-09-10T08:42:22Z</time>
      </trkpt>
      <trkpt lat="45.83703" lon="4.41917">
        <ele>740.2</ele>
        <time>2025-09-10T08:42:23Z</time>
      </trkpt>
      <trkpt lat="45.83698" lon="4.41911">
        <ele>739.6</ele>
        <time>2025-09-10T08:42:24Z</time>
      </trkpt>
      <trkpt lat="45.83693" lon="4.41906">
        <ele>738.6</ele>
        <time>2025-09-10T08:42:25Z</time>
      </trkpt>
      <trkpt lat="45.8369" lon="4.41902">
        <ele>738.2</ele>
        <time>2025-09-10T08:42:26Z</time>
      </trkpt>
      <trkpt lat="45.83687" lon="4.41899">
        <ele>738</ele>
        <time>2025-09-10T08:42:27Z</time>
      </trkpt>
      <trkpt lat="45.83685" lon="4.41896">
        <ele>738</ele>
        <time>2025-09-10T08:42:28Z</time>
      </trkpt>
      <trkpt lat="45.83683" lon="4.41893">
        <ele>737.4</ele>
        <time>2025-09-10T08:42:29Z</time>
      </trkpt>
      <trkpt lat="45.8368" lon="4.4189">
        <ele>737.2</ele>
        <time>2025-09-10T08:42:30Z</time>
      </trkpt>
      <trkpt lat="45.83676" lon="4.41878">
        <ele>736.8</ele>
        <time>2025-09-10T08:42:31Z</time>
      </trkpt>
      <trkpt lat="45.83676" lon="4.41873">
        <ele>736.4</ele>
        <time>2025-09-10T08:42:32Z</time>
      </trkpt>
      <trkpt lat="45.83675" lon="4.41867">
        <ele>736</ele>
        <time>2025-09-10T08:42:33Z</time>
      </trkpt>
      <trkpt lat="45.83676" lon="4.41859">
        <ele>735.4</ele>
        <time>2025-09-10T08:42:34Z</time>
      </trkpt>
      <trkpt lat="45.83677" lon="4.41853">
        <ele>735.4</ele>
        <time>2025-09-10T08:42:35Z</time>
      </trkpt>
      <trkpt lat="45.83677" lon="4.41847">
        <ele>735.2</ele>
        <time>2025-09-10T08:42:36Z</time>
      </trkpt>
      <trkpt lat="45.83678" lon="4.4184">
        <ele>735.2</ele>
        <time>2025-09-10T08:42:37Z</time>
      </trkpt>
      <trkpt lat="45.83679" lon="4.41836">
        <ele>735.2</ele>
        <time>2025-09-10T08:42:38Z</time>
      </trkpt>
      <trkpt lat="45.8368" lon="4.41831">
        <ele>735.2</ele>
        <time>2025-09-10T08:42:39Z</time>
      </trkpt>
      <trkpt lat="45.83681" lon="4.41827">
        <ele>734.8</ele>
        <time>2025-09-10T08:42:40Z</time>
      </trkpt>
      <trkpt lat="45.83681" lon="4.41822">
        <ele>735.8</ele>
        <time>2025-09-10T08:42:41Z</time>
      </trkpt>
      <trkpt lat="45.83683" lon="4.41817">
        <ele>735.8</ele>
        <time>2025-09-10T08:42:42Z</time>
      </trkpt>
      <trkpt lat="45.83684" lon="4.41811">
        <ele>735.4</ele>
        <time>2025-09-10T08:42:43Z</time>
      </trkpt>
      <trkpt lat="45.83684" lon="4.41811">
        <ele>735.2</ele>
        <time>2025-09-10T08:42:44Z</time>
      </trkpt>
      <trkpt lat="45.83687" lon="4.41798">
        <ele>734.8</ele>
        <time>2025-09-10T08:42:45Z</time>
      </trkpt>
      <trkpt lat="45.83687" lon="4.41798">
        <ele>734.4</ele>
        <time>2025-09-10T08:42:46Z</time>
      </trkpt>
      <trkpt lat="45.83688" lon="4.41792">
        <ele>733.8</ele>
        <time>2025-09-10T08:42:47Z</time>
      </trkpt>
      <trkpt lat="45.83689" lon="4.41784">
        <ele>733.2</ele>
        <time>2025-09-10T08:42:48Z</time>
      </trkpt>
      <trkpt lat="45.8369" lon="4.41777">
        <ele>732.4</ele>
        <time>2025-09-10T08:42:49Z</time>
      </trkpt>
      <trkpt lat="45.83689" lon="4.4177">
        <ele>731.8</ele>
        <time>2025-09-10T08:42:50Z</time>
      </trkpt>
      <trkpt lat="45.83689" lon="4.41763">
        <ele>731.4</ele>
        <time>2025-09-10T08:42:51Z</time>
      </trkpt>
      <trkpt lat="45.83689" lon="4.41757">
        <ele>730.8</ele>
        <time>2025-09-10T08:42:52Z</time>
      </trkpt>
      <trkpt lat="45.83688" lon="4.41751">
        <ele>730.4</ele>
        <time>2025-09-10T08:42:53Z</time>
      </trkpt>
      <trkpt lat="45.8369" lon="4.41744">
        <ele>729.6</ele>
        <time>2025-09-10T08:42:54Z</time>
      </trkpt>
      <trkpt lat="45.83693" lon="4.41738">
        <ele>729</ele>
        <time>2025-09-10T08:42:55Z</time>
      </trkpt>
      <trkpt lat="45.83697" lon="4.41734">
        <ele>728.4</ele>
        <time>2025-09-10T08:42:56Z</time>
      </trkpt>
      <trkpt lat="45.83698" lon="4.41728">
        <ele>727.8</ele>
        <time>2025-09-10T08:42:57Z</time>
      </trkpt>
      <trkpt lat="45.837" lon="4.41724">
        <ele>727.4</ele>
        <time>2025-09-10T08:42:58Z</time>
      </trkpt>
      <trkpt lat="45.83699" lon="4.41719">
        <ele>726.6</ele>
        <time>2025-09-10T08:42:59Z</time>
      </trkpt>
      <trkpt lat="45.83697" lon="4.41714">
        <ele>726</ele>
        <time>2025-09-10T08:43:00Z</time>
      </trkpt>
      <trkpt lat="45.83694" lon="4.41711">
        <ele>725</ele>
        <time>2025-09-10T08:43:01Z</time>
      </trkpt>
      <trkpt lat="45.83691" lon="4.41709">
        <ele>724.2</ele>
        <time>2025-09-10T08:43:02Z</time>
      </trkpt>
      <trkpt lat="45.83687" lon="4.41707">
        <ele>723.2</ele>
        <time>2025-09-10T08:43:03Z</time>
      </trkpt>
      <trkpt lat="45.83682" lon="4.41703">
        <ele>722.4</ele>
        <time>2025-09-10T08:43:04Z</time>
      </trkpt>
      <trkpt lat="45.83678" lon="4.417">
        <ele>721.4</ele>
        <time>2025-09-10T08:43:05Z</time>
      </trkpt>
      <trkpt lat="45.83673" lon="4.41696">
        <ele>720.4</ele>
        <time>2025-09-10T08:43:06Z</time>
      </trkpt>
      <trkpt lat="45.83668" lon="4.41692">
        <ele>719.2</ele>
        <time>2025-09-10T08:43:07Z</time>
      </trkpt>
      <trkpt lat="45.83665" lon="4.41688">
        <ele>718.2</ele>
        <time>2025-09-10T08:43:08Z</time>
      </trkpt>
      <trkpt lat="45.8366" lon="4.41685">
        <ele>717.2</ele>
        <time>2025-09-10T08:43:09Z</time>
      </trkpt>
      <trkpt lat="45.83656" lon="4.41681">
        <ele>716.2</ele>
        <time>2025-09-10T08:43:10Z</time>
      </trkpt>
      <trkpt lat="45.83652" lon="4.41678">
        <ele>715.2</ele>
        <time>2025-09-10T08:43:11Z</time>
      </trkpt>
      <trkpt lat="45.83648" lon="4.41674">
        <ele>714.2</ele>
        <time>2025-09-10T08:43:12Z</time>
      </trkpt>
      <trkpt lat="45.83644" lon="4.41671">
        <ele>713.2</ele>
        <time>2025-09-10T08:43:13Z</time>
      </trkpt>
      <trkpt lat="45.83639" lon="4.41667">
        <ele>712</ele>
        <time>2025-09-10T08:43:14Z</time>
      </trkpt>
      <trkpt lat="45.83633" lon="4.41666">
        <ele>711</ele>
        <time>2025-09-10T08:43:15Z</time>
      </trkpt>
      <trkpt lat="45.83628" lon="4.41665">
        <ele>709.8</ele>
        <time>2025-09-10T08:43:16Z</time>
      </trkpt>
      <trkpt lat="45.83623" lon="4.41664">
        <ele>708.6</ele>
        <time>2025-09-10T08:43:17Z</time>
      </trkpt>
      <trkpt lat="45.83619" lon="4.41664">
        <ele>707.4</ele>
        <time>2025-09-10T08:43:18Z</time>
      </trkpt>
      <trkpt lat="45.83615" lon="4.41665">
        <ele>706.6</ele>
        <time>2025-09-10T08:43:19Z</time>
      </trkpt>
      <trkpt lat="45.83612" lon="4.41666">
        <ele>705.6</ele>
        <time>2025-09-10T08:43:20Z</time>
      </trkpt>
      <trkpt lat="45.83608" lon="4.41667">
        <ele>704.6</ele>
        <time>2025-09-10T08:43:21Z</time>
      </trkpt>
      <trkpt lat="45.83605" lon="4.41667">
        <ele>703.8</ele>
        <time>2025-09-10T08:43:22Z</time>
      </trkpt>
      <trkpt lat="45.83604" lon="4.41668">
        <ele>703</ele>
        <time>2025-09-10T08:43:23Z</time>
      </trkpt>
      <trkpt lat="45.83601" lon="4.41668">
        <ele>702.2</ele>
        <time>2025-09-10T08:43:24Z</time>
      </trkpt>
      <trkpt lat="45.83597" lon="4.41669">
        <ele>701.6</ele>
        <time>2025-09-10T08:43:25Z</time>
      </trkpt>
      <trkpt lat="45.83595" lon="4.4167">
        <ele>701</ele>
        <time>2025-09-10T08:43:26Z</time>
      </trkpt>
      <trkpt lat="45.83593" lon="4.4167">
        <ele>700.6</ele>
        <time>2025-09-10T08:43:27Z</time>
      </trkpt>
      <trkpt lat="45.83591" lon="4.4167">
        <ele>700.2</ele>
        <time>2025-09-10T08:43:28Z</time>
      </trkpt>
      <trkpt lat="45.8359" lon="4.4167">
        <ele>700</ele>
        <time>2025-09-10T08:43:29Z</time>
      </trkpt>
      <trkpt lat="45.8359" lon="4.4167">
        <ele>700</ele>
        <time>2025-09-10T08:43:30Z</time>
      </trkpt>
      <trkpt lat="45.8359" lon="4.4167">
        <ele>699.6</ele>
        <time>2025-09-10T08:43:31Z</time>
      </trkpt>
      <trkpt lat="45.83587" lon="4.4167">
        <ele>698.8</ele>
        <time>2025-09-10T08:43:46Z</time>
      </trkpt>
      <trkpt lat="45.83585" lon="4.41672">
        <ele>698.6</ele>
        <time>2025-09-10T08:43:47Z</time>
      </trkpt>
      <trkpt lat="45.83584" lon="4.41673">
        <ele>698.6</ele>
        <time>2025-09-10T08:43:48Z</time>
      </trkpt>
      <trkpt lat="45.83582" lon="4.41674">
        <ele>698.6</ele>
        <time>2025-09-10T08:43:49Z</time>
      </trkpt>
      <trkpt lat="45.83581" lon="4.41677">
        <ele>698.6</ele>
        <time>2025-09-10T08:43:50Z</time>
      </trkpt>
      <trkpt lat="45.83581" lon="4.41679">
        <ele>698.6</ele>
        <time>2025-09-10T08:43:51Z</time>
      </trkpt>
      <trkpt lat="45.8358" lon="4.41681">
        <ele>698.6</ele>
        <time>2025-09-10T08:43:52Z</time>
      </trkpt>
      <trkpt lat="45.83579" lon="4.41684">
        <ele>698.6</ele>
        <time>2025-09-10T08:43:53Z</time>
      </trkpt>
      <trkpt lat="45.83577" lon="4.41686">
        <ele>698.6</ele>
        <time>2025-09-10T08:43:54Z</time>
      </trkpt>
      <trkpt lat="45.83575" lon="4.41689">
        <ele>698.4</ele>
        <time>2025-09-10T08:43:55Z</time>
      </trkpt>
      <trkpt lat="45.83574" lon="4.41692">
        <ele>698.4</ele>
        <time>2025-09-10T08:43:56Z</time>
      </trkpt>
      <trkpt lat="45.83572" lon="4.41696">
        <ele>698.4</ele>
        <time>2025-09-10T08:43:57Z</time>
      </trkpt>
      <trkpt lat="45.8357" lon="4.41699">
        <ele>698.4</ele>
        <time>2025-09-10T08:43:58Z</time>
      </trkpt>
      <trkpt lat="45.83569" lon="4.41703">
        <ele>698.4</ele>
        <time>2025-09-10T08:43:59Z</time>
      </trkpt>
      <trkpt lat="45.83567" lon="4.41706">
        <ele>698.4</ele>
        <time>2025-09-10T08:44:00Z</time>
      </trkpt>
      <trkpt lat="45.83566" lon="4.41711">
        <ele>698.2</ele>
        <time>2025-09-10T08:44:01Z</time>
      </trkpt>
      <trkpt lat="45.83564" lon="4.41714">
        <ele>698.2</ele>
        <time>2025-09-10T08:44:02Z</time>
      </trkpt>
      <trkpt lat="45.83562" lon="4.41716">
        <ele>698</ele>
        <time>2025-09-10T08:44:03Z</time>
      </trkpt>
      <trkpt lat="45.83559" lon="4.41719">
        <ele>698</ele>
        <time>2025-09-10T08:44:04Z</time>
      </trkpt>
      <trkpt lat="45.83555" lon="4.41723">
        <ele>697.6</ele>
        <time>2025-09-10T08:44:05Z</time>
      </trkpt>
      <trkpt lat="45.83551" lon="4.41726">
        <ele>697.2</ele>
        <time>2025-09-10T08:44:06Z</time>
      </trkpt>
      <trkpt lat="45.83548" lon="4.41731">
        <ele>696.8</ele>
        <time>2025-09-10T08:44:07Z</time>
      </trkpt>
      <trkpt lat="45.83546" lon="4.41734">
        <ele>697</ele>
        <time>2025-09-10T08:44:08Z</time>
      </trkpt>
      <trkpt lat="45.83543" lon="4.41739">
        <ele>697</ele>
        <time>2025-09-10T08:44:09Z</time>
      </trkpt>
      <trkpt lat="45.8354" lon="4.41743">
        <ele>696.8</ele>
        <time>2025-09-10T08:44:10Z</time>
      </trkpt>
      <trkpt lat="45.83535" lon="4.41752">
        <ele>696.8</ele>
        <time>2025-09-10T08:44:11Z</time>
      </trkpt>
      <trkpt lat="45.83531" lon="4.41757">
        <ele>696.8</ele>
        <time>2025-09-10T08:44:12Z</time>
      </trkpt>
      <trkpt lat="45.83528" lon="4.41761">
        <ele>696.2</ele>
        <time>2025-09-10T08:44:13Z</time>
      </trkpt>
      <trkpt lat="45.83526" lon="4.41765">
        <ele>696.2</ele>
        <time>2025-09-10T08:44:14Z</time>
      </trkpt>
      <trkpt lat="45.83523" lon="4.4177">
        <ele>696.2</ele>
        <time>2025-09-10T08:44:15Z</time>
      </trkpt>
      <trkpt lat="45.8352" lon="4.41774">
        <ele>696.4</ele>
        <time>2025-09-10T08:44:16Z</time>
      </trkpt>
      <trkpt lat="45.83518" lon="4.41779">
        <ele>696.4</ele>
        <time>2025-09-10T08:44:17Z</time>
      </trkpt>
      <trkpt lat="45.83516" lon="4.41784">
        <ele>696.4</ele>
        <time>2025-09-10T08:44:18Z</time>
      </trkpt>
      <trkpt lat="45.83515" lon="4.41787">
        <ele>696.4</ele>
        <time>2025-09-10T08:44:19Z</time>
      </trkpt>
      <trkpt lat="45.83513" lon="4.41792">
        <ele>696.2</ele>
        <time>2025-09-10T08:44:20Z</time>
      </trkpt>
      <trkpt lat="45.83512" lon="4.41797">
        <ele>696.2</ele>
        <time>2025-09-10T08:44:21Z</time>
      </trkpt>
      <trkpt lat="45.83511" lon="4.41801">
        <ele>696</ele>
        <time>2025-09-10T08:44:22Z</time>
      </trkpt>
      <trkpt lat="45.8351" lon="4.41805">
        <ele>695.8</ele>
        <time>2025-09-10T08:44:23Z</time>
      </trkpt>
      <trkpt lat="45.83509" lon="4.41809">
        <ele>695.8</ele>
        <time>2025-09-10T08:44:24Z</time>
      </trkpt>
      <trkpt lat="45.83508" lon="4.41813">
        <ele>695.8</ele>
        <time>2025-09-10T08:44:25Z</time>
      </trkpt>
      <trkpt lat="45.83507" lon="4.41819">
        <ele>695.4</ele>
        <time>2025-09-10T08:44:26Z</time>
      </trkpt>
      <trkpt lat="45.83506" lon="4.41824">
        <ele>694.8</ele>
        <time>2025-09-10T08:44:27Z</time>
      </trkpt>
      <trkpt lat="45.83505" lon="4.4183">
        <ele>694.6</ele>
        <time>2025-09-10T08:44:28Z</time>
      </trkpt>
      <trkpt lat="45.83506" lon="4.41838">
        <ele>694</ele>
        <time>2025-09-10T08:44:29Z</time>
      </trkpt>
      <trkpt lat="45.83506" lon="4.41845">
        <ele>693.6</ele>
        <time>2025-09-10T08:44:30Z</time>
      </trkpt>
      <trkpt lat="45.83507" lon="4.41853">
        <ele>693.4</ele>
        <time>2025-09-10T08:44:31Z</time>
      </trkpt>
      <trkpt lat="45.83507" lon="4.41861">
        <ele>693.4</ele>
        <time>2025-09-10T08:44:32Z</time>
      </trkpt>
      <trkpt lat="45.83508" lon="4.41868">
        <ele>692.8</ele>
        <time>2025-09-10T08:44:33Z</time>
      </trkpt>
      <trkpt lat="45.83508" lon="4.41875">
        <ele>692.8</ele>
        <time>2025-09-10T08:44:34Z</time>
      </trkpt>
      <trkpt lat="45.83509" lon="4.41882">
        <ele>692.4</ele>
        <time>2025-09-10T08:44:35Z</time>
      </trkpt>
      <trkpt lat="45.83509" lon="4.41888">
        <ele>692.4</ele>
        <time>2025-09-10T08:44:36Z</time>
      </trkpt>
      <trkpt lat="45.83509" lon="4.41894">
        <ele>692</ele>
        <time>2025-09-10T08:44:37Z</time>
      </trkpt>
      <trkpt lat="45.83508" lon="4.419">
        <ele>692</ele>
        <time>2025-09-10T08:44:38Z</time>
      </trkpt>
      <trkpt lat="45.83509" lon="4.41907">
        <ele>691.6</ele>
        <time>2025-09-10T08:44:39Z</time>
      </trkpt>
      <trkpt lat="45.83508" lon="4.41913">
        <ele>691.4</ele>
        <time>2025-09-10T08:44:40Z</time>
      </trkpt>
      <trkpt lat="45.83508" lon="4.4192">
        <ele>691.2</ele>
        <time>2025-09-10T08:44:41Z</time>
      </trkpt>
      <trkpt lat="45.83509" lon="4.41927">
        <ele>691.2</ele>
        <time>2025-09-10T08:44:42Z</time>
      </trkpt>
      <trkpt lat="45.8351" lon="4.41934">
        <ele>690.8</ele>
        <time>2025-09-10T08:44:43Z</time>
      </trkpt>
      <trkpt lat="45.83511" lon="4.41941">
        <ele>690.8</ele>
        <time>2025-09-10T08:44:44Z</time>
      </trkpt>
      <trkpt lat="45.83512" lon="4.41948">
        <ele>690.8</ele>
        <time>2025-09-10T08:44:45Z</time>
      </trkpt>
      <trkpt lat="45.83514" lon="4.41956">
        <ele>690.8</ele>
        <time>2025-09-10T08:44:46Z</time>
      </trkpt>
      <trkpt lat="45.83516" lon="4.41963">
        <ele>690.2</ele>
        <time>2025-09-10T08:44:47Z</time>
      </trkpt>
      <trkpt lat="45.83519" lon="4.41972">
        <ele>689.8</ele>
        <time>2025-09-10T08:44:48Z</time>
      </trkpt>
      <trkpt lat="45.83523" lon="4.41981">
        <ele>689.4</ele>
        <time>2025-09-10T08:44:49Z</time>
      </trkpt>
      <trkpt lat="45.83527" lon="4.4199">
        <ele>688.8</ele>
        <time>2025-09-10T08:44:50Z</time>
      </trkpt>
      <trkpt lat="45.83531" lon="4.41999">
        <ele>688.4</ele>
        <time>2025-09-10T08:44:51Z</time>
      </trkpt>
      <trkpt lat="45.83536" lon="4.4201">
        <ele>688</ele>
        <time>2025-09-10T08:44:52Z</time>
      </trkpt>
      <trkpt lat="45.8354" lon="4.42019">
        <ele>687.6</ele>
        <time>2025-09-10T08:44:53Z</time>
      </trkpt>
      <trkpt lat="45.83544" lon="4.42029">
        <ele>687</ele>
        <time>2025-09-10T08:44:54Z</time>
      </trkpt>
      <trkpt lat="45.83549" lon="4.42039">
        <ele>686.8</ele>
        <time>2025-09-10T08:44:55Z</time>
      </trkpt>
      <trkpt lat="45.83553" lon="4.42048">
        <ele>686.8</ele>
        <time>2025-09-10T08:44:56Z</time>
      </trkpt>
      <trkpt lat="45.83556" lon="4.42058">
        <ele>686.8</ele>
        <time>2025-09-10T08:44:57Z</time>
      </trkpt>
      <trkpt lat="45.83558" lon="4.42067">
        <ele>686.8</ele>
        <time>2025-09-10T08:44:58Z</time>
      </trkpt>
      <trkpt lat="45.8356" lon="4.42077">
        <ele>686.8</ele>
        <time>2025-09-10T08:44:59Z</time>
      </trkpt>
      <trkpt lat="45.83561" lon="4.42086">
        <ele>686.8</ele>
        <time>2025-09-10T08:45:00Z</time>
      </trkpt>
      <trkpt lat="45.83561" lon="4.42096">
        <ele>686.4</ele>
        <time>2025-09-10T08:45:01Z</time>
      </trkpt>
      <trkpt lat="45.83561" lon="4.42104">
        <ele>686.4</ele>
        <time>2025-09-10T08:45:02Z</time>
      </trkpt>
      <trkpt lat="45.8356" lon="4.42113">
        <ele>686.4</ele>
        <time>2025-09-10T08:45:03Z</time>
      </trkpt>
      <trkpt lat="45.8356" lon="4.4212">
        <ele>686.4</ele>
        <time>2025-09-10T08:45:04Z</time>
      </trkpt>
      <trkpt lat="45.8356" lon="4.42128">
        <ele>686.8</ele>
        <time>2025-09-10T08:45:05Z</time>
      </trkpt>
      <trkpt lat="45.83559" lon="4.42136">
        <ele>686.8</ele>
        <time>2025-09-10T08:45:06Z</time>
      </trkpt>
      <trkpt lat="45.83559" lon="4.42143">
        <ele>687</ele>
        <time>2025-09-10T08:45:07Z</time>
      </trkpt>
      <trkpt lat="45.83559" lon="4.4215">
        <ele>687.2</ele>
        <time>2025-09-10T08:45:08Z</time>
      </trkpt>
      <trkpt lat="45.83558" lon="4.42157">
        <ele>687.2</ele>
        <time>2025-09-10T08:45:09Z</time>
      </trkpt>
      <trkpt lat="45.83558" lon="4.42164">
        <ele>687.2</ele>
        <time>2025-09-10T08:45:10Z</time>
      </trkpt>
      <trkpt lat="45.83557" lon="4.42171">
        <ele>687.6</ele>
        <time>2025-09-10T08:45:11Z</time>
      </trkpt>
      <trkpt lat="45.83558" lon="4.42177">
        <ele>687.6</ele>
        <time>2025-09-10T08:45:12Z</time>
      </trkpt>
      <trkpt lat="45.83558" lon="4.42183">
        <ele>687.8</ele>
        <time>2025-09-10T08:45:13Z</time>
      </trkpt>
      <trkpt lat="45.83559" lon="4.42188">
        <ele>687.8</ele>
        <time>2025-09-10T08:45:14Z</time>
      </trkpt>
      <trkpt lat="45.83558" lon="4.42195">
        <ele>688.2</ele>
        <time>2025-09-10T08:45:15Z</time>
      </trkpt>
      <trkpt lat="45.83558" lon="4.422">
        <ele>688.2</ele>
        <time>2025-09-10T08:45:16Z</time>
      </trkpt>
      <trkpt lat="45.83558" lon="4.42205">
        <ele>688.2</ele>
        <time>2025-09-10T08:45:17Z</time>
      </trkpt>
      <trkpt lat="45.83559" lon="4.42209">
        <ele>688.4</ele>
        <time>2025-09-10T08:45:18Z</time>
      </trkpt>
      <trkpt lat="45.83558" lon="4.42214">
        <ele>688.4</ele>
        <time>2025-09-10T08:45:19Z</time>
      </trkpt>
      <trkpt lat="45.83558" lon="4.42219">
        <ele>688.6</ele>
        <time>2025-09-10T08:45:20Z</time>
      </trkpt>
      <trkpt lat="45.83558" lon="4.42224">
        <ele>688.6</ele>
        <time>2025-09-10T08:45:21Z</time>
      </trkpt>
      <trkpt lat="45.83558" lon="4.42228">
        <ele>688.6</ele>
        <time>2025-09-10T08:45:22Z</time>
      </trkpt>
      <trkpt lat="45.83558" lon="4.42233">
        <ele>688.6</ele>
        <time>2025-09-10T08:45:23Z</time>
      </trkpt>
      <trkpt lat="45.83559" lon="4.42238">
        <ele>688.8</ele>
        <time>2025-09-10T08:45:24Z</time>
      </trkpt>
      <trkpt lat="45.8356" lon="4.42243">
        <ele>688.8</ele>
        <time>2025-09-10T08:45:25Z</time>
      </trkpt>
      <trkpt lat="45.8356" lon="4.42248">
        <ele>688.8</ele>
        <time>2025-09-10T08:45:26Z</time>
      </trkpt>
      <trkpt lat="45.83561" lon="4.42253">
        <ele>688.8</ele>
        <time>2025-09-10T08:45:27Z</time>
      </trkpt>
      <trkpt lat="45.83562" lon="4.42259">
        <ele>688.8</ele>
        <time>2025-09-10T08:45:28Z</time>
      </trkpt>
      <trkpt lat="45.83563" lon="4.42265">
        <ele>688.8</ele>
        <time>2025-09-10T08:45:29Z</time>
      </trkpt>
      <trkpt lat="45.83564" lon="4.42271">
        <ele>688.8</ele>
        <time>2025-09-10T08:45:30Z</time>
      </trkpt>
      <trkpt lat="45.83566" lon="4.42277">
        <ele>688.8</ele>
        <time>2025-09-10T08:45:31Z</time>
      </trkpt>
      <trkpt lat="45.83567" lon="4.42282">
        <ele>688.8</ele>
        <time>2025-09-10T08:45:32Z</time>
      </trkpt>
      <trkpt lat="45.83569" lon="4.42288">
        <ele>688.6</ele>
        <time>2025-09-10T08:45:33Z</time>
      </trkpt>
      <trkpt lat="45.83571" lon="4.42294">
        <ele>688.6</ele>
        <time>2025-09-10T08:45:34Z</time>
      </trkpt>
      <trkpt lat="45.83573" lon="4.42299">
        <ele>688.6</ele>
        <time>2025-09-10T08:45:35Z</time>
      </trkpt>
      <trkpt lat="45.83575" lon="4.42304">
        <ele>688.4</ele>
        <time>2025-09-10T08:45:36Z</time>
      </trkpt>
      <trkpt lat="45.83577" lon="4.4231">
        <ele>688.4</ele>
        <time>2025-09-10T08:45:37Z</time>
      </trkpt>
      <trkpt lat="45.83577" lon="4.42313">
        <ele>688.2</ele>
        <time>2025-09-10T08:45:38Z</time>
      </trkpt>
      <trkpt lat="45.8358" lon="4.42318">
        <ele>688.2</ele>
        <time>2025-09-10T08:45:39Z</time>
      </trkpt>
      <trkpt lat="45.8358" lon="4.42321">
        <ele>688</ele>
        <time>2025-09-10T08:45:40Z</time>
      </trkpt>
      <trkpt lat="45.83581" lon="4.42324">
        <ele>688</ele>
        <time>2025-09-10T08:45:41Z</time>
      </trkpt>
      <trkpt lat="45.83582" lon="4.42327">
        <ele>688</ele>
        <time>2025-09-10T08:45:42Z</time>
      </trkpt>
      <trkpt lat="45.83582" lon="4.42326">
        <ele>687.6</ele>
        <time>2025-09-10T08:45:43Z</time>
      </trkpt>
      <trkpt lat="45.83582" lon="4.42327">
        <ele>687.6</ele>
        <time>2025-09-10T08:45:44Z</time>
      </trkpt>
      <trkpt lat="45.83583" lon="4.42328">
        <ele>687</ele>
        <time>2025-09-10T08:46:01Z</time>
      </trkpt>
      <trkpt lat="45.83584" lon="4.4233">
        <ele>687</ele>
        <time>2025-09-10T08:46:02Z</time>
      </trkpt>
      <trkpt lat="45.83585" lon="4.42333">
        <ele>686.8</ele>
        <time>2025-09-10T08:46:03Z</time>
      </trkpt>
      <trkpt lat="45.83586" lon="4.42336">
        <ele>686.8</ele>
        <time>2025-09-10T08:46:04Z</time>
      </trkpt>
      <trkpt lat="45.83588" lon="4.4234">
        <ele>686.4</ele>
        <time>2025-09-10T08:46:05Z</time>
      </trkpt>
      <trkpt lat="45.8359" lon="4.42347">
        <ele>686.4</ele>
        <time>2025-09-10T08:46:06Z</time>
      </trkpt>
      <trkpt lat="45.83593" lon="4.42352">
        <ele>686</ele>
        <time>2025-09-10T08:46:07Z</time>
      </trkpt>
      <trkpt lat="45.83595" lon="4.4236">
        <ele>685.6</ele>
        <time>2025-09-10T08:46:08Z</time>
      </trkpt>
      <trkpt lat="45.83597" lon="4.42367">
        <ele>685.2</ele>
        <time>2025-09-10T08:46:09Z</time>
      </trkpt>
      <trkpt lat="45.836" lon="4.42375">
        <ele>684.6</ele>
        <time>2025-09-10T08:46:10Z</time>
      </trkpt>
      <trkpt lat="45.83602" lon="4.42382">
        <ele>684.2</ele>
        <time>2025-09-10T08:46:11Z</time>
      </trkpt>
      <trkpt lat="45.83607" lon="4.42388">
        <ele>683.2</ele>
        <time>2025-09-10T08:46:12Z</time>
      </trkpt>
      <trkpt lat="45.83613" lon="4.42396">
        <ele>682.6</ele>
        <time>2025-09-10T08:46:13Z</time>
      </trkpt>
      <trkpt lat="45.8362" lon="4.42402">
        <ele>681.6</ele>
        <time>2025-09-10T08:46:14Z</time>
      </trkpt>
      <trkpt lat="45.83625" lon="4.42407">
        <ele>680.8</ele>
        <time>2025-09-10T08:46:15Z</time>
      </trkpt>
      <trkpt lat="45.83631" lon="4.42413">
        <ele>680.2</ele>
        <time>2025-09-10T08:46:16Z</time>
      </trkpt>
      <trkpt lat="45.83635" lon="4.42418">
        <ele>680.2</ele>
        <time>2025-09-10T08:46:17Z</time>
      </trkpt>
      <trkpt lat="45.8364" lon="4.42423">
        <ele>679.4</ele>
        <time>2025-09-10T08:46:18Z</time>
      </trkpt>
      <trkpt lat="45.83645" lon="4.42429">
        <ele>678.8</ele>
        <time>2025-09-10T08:46:19Z</time>
      </trkpt>
      <trkpt lat="45.83648" lon="4.42433">
        <ele>678.2</ele>
        <time>2025-09-10T08:46:20Z</time>
      </trkpt>
      <trkpt lat="45.83652" lon="4.42436">
        <ele>677.4</ele>
        <time>2025-09-10T08:46:21Z</time>
      </trkpt>
      <trkpt lat="45.83655" lon="4.4244">
        <ele>676.8</ele>
        <time>2025-09-10T08:46:22Z</time>
      </trkpt>
      <trkpt lat="45.83658" lon="4.42443">
        <ele>676.2</ele>
        <time>2025-09-10T08:46:23Z</time>
      </trkpt>
      <trkpt lat="45.83662" lon="4.42448">
        <ele>675.8</ele>
        <time>2025-09-10T08:46:24Z</time>
      </trkpt>
      <trkpt lat="45.83665" lon="4.42452">
        <ele>675.2</ele>
        <time>2025-09-10T08:46:25Z</time>
      </trkpt>
      <trkpt lat="45.8367" lon="4.42458">
        <ele>674.2</ele>
        <time>2025-09-10T08:46:26Z</time>
      </trkpt>
      <trkpt lat="45.83675" lon="4.42464">
        <ele>673.4</ele>
        <time>2025-09-10T08:46:27Z</time>
      </trkpt>
      <trkpt lat="45.83679" lon="4.4247">
        <ele>672.4</ele>
        <time>2025-09-10T08:46:28Z</time>
      </trkpt>
      <trkpt lat="45.83683" lon="4.42475">
        <ele>671.4</ele>
        <time>2025-09-10T08:46:29Z</time>
      </trkpt>
      <trkpt lat="45.83687" lon="4.42482">
        <ele>670.4</ele>
        <time>2025-09-10T08:46:30Z</time>
      </trkpt>
      <trkpt lat="45.83693" lon="4.42489">
        <ele>669</ele>
        <time>2025-09-10T08:46:31Z</time>
      </trkpt>
      <trkpt lat="45.83695" lon="4.42495">
        <ele>668.2</ele>
        <time>2025-09-10T08:46:32Z</time>
      </trkpt>
      <trkpt lat="45.837" lon="4.42501">
        <ele>667.4</ele>
        <time>2025-09-10T08:46:33Z</time>
      </trkpt>
      <trkpt lat="45.83705" lon="4.42517">
        <ele>666.2</ele>
        <time>2025-09-10T08:46:34Z</time>
      </trkpt>
      <trkpt lat="45.83707" lon="4.42525">
        <ele>665</ele>
        <time>2025-09-10T08:46:35Z</time>
      </trkpt>
      <trkpt lat="45.83707" lon="4.42534">
        <ele>663.8</ele>
        <time>2025-09-10T08:46:36Z</time>
      </trkpt>
      <trkpt lat="45.83707" lon="4.42534">
        <ele>662.6</ele>
        <time>2025-09-10T08:46:37Z</time>
      </trkpt>
      <trkpt lat="45.83707" lon="4.42534">
        <ele>661.4</ele>
        <time>2025-09-10T08:46:38Z</time>
      </trkpt>
      <trkpt lat="45.83707" lon="4.42534">
        <ele>660.2</ele>
        <time>2025-09-10T08:46:39Z</time>
      </trkpt>
      <trkpt lat="45.83707" lon="4.42534">
        <ele>659</ele>
        <time>2025-09-10T08:46:40Z</time>
      </trkpt>
      <trkpt lat="45.8371" lon="4.42568">
        <ele>657.6</ele>
        <time>2025-09-10T08:46:41Z</time>
      </trkpt>
      <trkpt lat="45.83711" lon="4.42578">
        <ele>656.4</ele>
        <time>2025-09-10T08:46:42Z</time>
      </trkpt>
      <trkpt lat="45.83712" lon="4.42587">
        <ele>655.2</ele>
        <time>2025-09-10T08:46:43Z</time>
      </trkpt>
      <trkpt lat="45.83713" lon="4.42596">
        <ele>653.8</ele>
        <time>2025-09-10T08:46:44Z</time>
      </trkpt>
      <trkpt lat="45.83714" lon="4.42606">
        <ele>652.2</ele>
        <time>2025-09-10T08:46:45Z</time>
      </trkpt>
      <trkpt lat="45.83715" lon="4.42615">
        <ele>650.8</ele>
        <time>2025-09-10T08:46:46Z</time>
      </trkpt>
      <trkpt lat="45.83716" lon="4.42622">
        <ele>649.4</ele>
        <time>2025-09-10T08:46:47Z</time>
      </trkpt>
      <trkpt lat="45.83717" lon="4.42631">
        <ele>648.2</ele>
        <time>2025-09-10T08:46:48Z</time>
      </trkpt>
      <trkpt lat="45.83719" lon="4.42638">
        <ele>646.8</ele>
        <time>2025-09-10T08:46:49Z</time>
      </trkpt>
      <trkpt lat="45.83722" lon="4.42645">
        <ele>645.6</ele>
        <time>2025-09-10T08:46:50Z</time>
      </trkpt>
      <trkpt lat="45.83726" lon="4.42651">
        <ele>644.2</ele>
        <time>2025-09-10T08:46:51Z</time>
      </trkpt>
      <trkpt lat="45.83732" lon="4.42657">
        <ele>643.2</ele>
        <time>2025-09-10T08:46:52Z</time>
      </trkpt>
      <trkpt lat="45.83738" lon="4.42663">
        <ele>642.4</ele>
        <time>2025-09-10T08:46:53Z</time>
      </trkpt>
      <trkpt lat="45.83743" lon="4.42669">
        <ele>641.6</ele>
        <time>2025-09-10T08:46:54Z</time>
      </trkpt>
      <trkpt lat="45.83747" lon="4.42674">
        <ele>640.8</ele>
        <time>2025-09-10T08:46:55Z</time>
      </trkpt>
      <trkpt lat="45.83752" lon="4.42681">
        <ele>639.8</ele>
        <time>2025-09-10T08:46:56Z</time>
      </trkpt>
      <trkpt lat="45.83755" lon="4.42688">
        <ele>639</ele>
        <time>2025-09-10T08:46:57Z</time>
      </trkpt>
      <trkpt lat="45.83756" lon="4.42696">
        <ele>638.4</ele>
        <time>2025-09-10T08:46:58Z</time>
      </trkpt>
      <trkpt lat="45.83758" lon="4.42705">
        <ele>637.4</ele>
        <time>2025-09-10T08:46:59Z</time>
      </trkpt>
      <trkpt lat="45.83758" lon="4.42715">
        <ele>636.4</ele>
        <time>2025-09-10T08:47:00Z</time>
      </trkpt>
      <trkpt lat="45.83759" lon="4.42723">
        <ele>635.4</ele>
        <time>2025-09-10T08:47:01Z</time>
      </trkpt>
      <trkpt lat="45.83759" lon="4.42733">
        <ele>634.2</ele>
        <time>2025-09-10T08:47:02Z</time>
      </trkpt>
      <trkpt lat="45.8376" lon="4.42743">
        <ele>633.2</ele>
        <time>2025-09-10T08:47:03Z</time>
      </trkpt>
      <trkpt lat="45.8376" lon="4.42753">
        <ele>632.4</ele>
        <time>2025-09-10T08:47:04Z</time>
      </trkpt>
      <trkpt lat="45.83761" lon="4.42764">
        <ele>631.2</ele>
        <time>2025-09-10T08:47:05Z</time>
      </trkpt>
      <trkpt lat="45.83761" lon="4.42775">
        <ele>629.8</ele>
        <time>2025-09-10T08:47:06Z</time>
      </trkpt>
      <trkpt lat="45.8376" lon="4.42787">
        <ele>628.6</ele>
        <time>2025-09-10T08:47:07Z</time>
      </trkpt>
      <trkpt lat="45.8376" lon="4.42799">
        <ele>627.6</ele>
        <time>2025-09-10T08:47:08Z</time>
      </trkpt>
      <trkpt lat="45.83759" lon="4.4281">
        <ele>626.6</ele>
        <time>2025-09-10T08:47:09Z</time>
      </trkpt>
      <trkpt lat="45.83759" lon="4.42822">
        <ele>625.6</ele>
        <time>2025-09-10T08:47:10Z</time>
      </trkpt>
      <trkpt lat="45.83758" lon="4.42834">
        <ele>624.6</ele>
        <time>2025-09-10T08:47:11Z</time>
      </trkpt>
      <trkpt lat="45.83758" lon="4.42846">
        <ele>623.6</ele>
        <time>2025-09-10T08:47:12Z</time>
      </trkpt>
      <trkpt lat="45.83758" lon="4.42858">
        <ele>622.8</ele>
        <time>2025-09-10T08:47:13Z</time>
      </trkpt>
      <trkpt lat="45.83757" lon="4.42869">
        <ele>622.2</ele>
        <time>2025-09-10T08:47:14Z</time>
      </trkpt>
      <trkpt lat="45.83756" lon="4.42879">
        <ele>621.4</ele>
        <time>2025-09-10T08:47:15Z</time>
      </trkpt>
      <trkpt lat="45.83755" lon="4.4289">
        <ele>620.6</ele>
        <time>2025-09-10T08:47:16Z</time>
      </trkpt>
      <trkpt lat="45.83754" lon="4.429">
        <ele>619.4</ele>
        <time>2025-09-10T08:47:17Z</time>
      </trkpt>
      <trkpt lat="45.83753" lon="4.42908">
        <ele>618.2</ele>
        <time>2025-09-10T08:47:18Z</time>
      </trkpt>
      <trkpt lat="45.8375" lon="4.42918">
        <ele>617.2</ele>
        <time>2025-09-10T08:47:19Z</time>
      </trkpt>
      <trkpt lat="45.83748" lon="4.42927">
        <ele>616</ele>
        <time>2025-09-10T08:47:20Z</time>
      </trkpt>
      <trkpt lat="45.83744" lon="4.42935">
        <ele>615.2</ele>
        <time>2025-09-10T08:47:21Z</time>
      </trkpt>
      <trkpt lat="45.8374" lon="4.42942">
        <ele>614.2</ele>
        <time>2025-09-10T08:47:22Z</time>
      </trkpt>
      <trkpt lat="45.83735" lon="4.42949">
        <ele>613.4</ele>
        <time>2025-09-10T08:47:23Z</time>
      </trkpt>
      <trkpt lat="45.83731" lon="4.42956">
        <ele>612.8</ele>
        <time>2025-09-10T08:47:24Z</time>
      </trkpt>
      <trkpt lat="45.83726" lon="4.42965">
        <ele>612</ele>
        <time>2025-09-10T08:47:25Z</time>
      </trkpt>
      <trkpt lat="45.83723" lon="4.42974">
        <ele>611.4</ele>
        <time>2025-09-10T08:47:26Z</time>
      </trkpt>
      <trkpt lat="45.83719" lon="4.42984">
        <ele>610.6</ele>
        <time>2025-09-10T08:47:27Z</time>
      </trkpt>
      <trkpt lat="45.83716" lon="4.42993">
        <ele>609.8</ele>
        <time>2025-09-10T08:47:28Z</time>
      </trkpt>
      <trkpt lat="45.83713" lon="4.43002">
        <ele>609.2</ele>
        <time>2025-09-10T08:47:29Z</time>
      </trkpt>
      <trkpt lat="45.83711" lon="4.43012">
        <ele>609</ele>
        <time>2025-09-10T08:47:30Z</time>
      </trkpt>
      <trkpt lat="45.83708" lon="4.4302">
        <ele>608.6</ele>
        <time>2025-09-10T08:47:31Z</time>
      </trkpt>
      <trkpt lat="45.83705" lon="4.43028">
        <ele>608.2</ele>
        <time>2025-09-10T08:47:32Z</time>
      </trkpt>
      <trkpt lat="45.83704" lon="4.43035">
        <ele>607.8</ele>
        <time>2025-09-10T08:47:33Z</time>
      </trkpt>
      <trkpt lat="45.83701" lon="4.43043">
        <ele>607.4</ele>
        <time>2025-09-10T08:47:34Z</time>
      </trkpt>
      <trkpt lat="45.837" lon="4.43049">
        <ele>607</ele>
        <time>2025-09-10T08:47:35Z</time>
      </trkpt>
      <trkpt lat="45.83697" lon="4.43055">
        <ele>606.6</ele>
        <time>2025-09-10T08:47:36Z</time>
      </trkpt>
      <trkpt lat="45.83695" lon="4.43062">
        <ele>606.4</ele>
        <time>2025-09-10T08:47:37Z</time>
      </trkpt>
      <trkpt lat="45.83692" lon="4.4307">
        <ele>605.8</ele>
        <time>2025-09-10T08:47:38Z</time>
      </trkpt>
      <trkpt lat="45.83689" lon="4.43078">
        <ele>605.4</ele>
        <time>2025-09-10T08:47:39Z</time>
      </trkpt>
      <trkpt lat="45.83687" lon="4.43086">
        <ele>604.6</ele>
        <time>2025-09-10T08:47:40Z</time>
      </trkpt>
      <trkpt lat="45.83685" lon="4.43095">
        <ele>604</ele>
        <time>2025-09-10T08:47:41Z</time>
      </trkpt>
      <trkpt lat="45.83684" lon="4.43105">
        <ele>603</ele>
        <time>2025-09-10T08:47:42Z</time>
      </trkpt>
      <trkpt lat="45.83684" lon="4.43116">
        <ele>602.2</ele>
        <time>2025-09-10T08:47:43Z</time>
      </trkpt>
      <trkpt lat="45.83682" lon="4.43127">
        <ele>601.6</ele>
        <time>2025-09-10T08:47:44Z</time>
      </trkpt>
      <trkpt lat="45.8368" lon="4.43136">
        <ele>601.2</ele>
        <time>2025-09-10T08:47:45Z</time>
      </trkpt>
      <trkpt lat="45.83679" lon="4.43146">
        <ele>601</ele>
        <time>2025-09-10T08:47:46Z</time>
      </trkpt>
      <trkpt lat="45.83678" lon="4.43156">
        <ele>600.8</ele>
        <time>2025-09-10T08:47:47Z</time>
      </trkpt>
      <trkpt lat="45.83677" lon="4.43166">
        <ele>600.4</ele>
        <time>2025-09-10T08:47:48Z</time>
      </trkpt>
      <trkpt lat="45.83676" lon="4.43177">
        <ele>600</ele>
        <time>2025-09-10T08:47:49Z</time>
      </trkpt>
      <trkpt lat="45.83676" lon="4.43188">
        <ele>599.8</ele>
        <time>2025-09-10T08:47:50Z</time>
      </trkpt>
      <trkpt lat="45.83675" lon="4.43199">
        <ele>599.4</ele>
        <time>2025-09-10T08:47:51Z</time>
      </trkpt>
      <trkpt lat="45.83674" lon="4.4321">
        <ele>599.2</ele>
        <time>2025-09-10T08:47:52Z</time>
      </trkpt>
      <trkpt lat="45.83674" lon="4.4322">
        <ele>598.8</ele>
        <time>2025-09-10T08:47:53Z</time>
      </trkpt>
      <trkpt lat="45.83675" lon="4.43228">
        <ele>598.4</ele>
        <time>2025-09-10T08:47:54Z</time>
      </trkpt>
      <trkpt lat="45.83674" lon="4.43232">
        <ele>598.4</ele>
        <time>2025-09-10T08:47:55Z</time>
      </trkpt>
      <trkpt lat="45.83675" lon="4.43236">
        <ele>598.2</ele>
        <time>2025-09-10T08:47:56Z</time>
      </trkpt>
      <trkpt lat="45.83675" lon="4.43236">
        <ele>598.2</ele>
        <time>2025-09-10T08:47:57Z</time>
      </trkpt>
      <trkpt lat="45.83675" lon="4.43236">
        <ele>598.2</ele>
        <time>2025-09-10T08:47:58Z</time>
      </trkpt>
      <trkpt lat="45.83675" lon="4.43242">
        <ele>598.2</ele>
        <time>2025-09-10T08:47:59Z</time>
      </trkpt>
      <trkpt lat="45.83675" lon="4.43245">
        <ele>598</ele>
        <time>2025-09-10T08:48:00Z</time>
      </trkpt>
      <trkpt lat="45.83675" lon="4.43249">
        <ele>597.8</ele>
        <time>2025-09-10T08:48:01Z</time>
      </trkpt>
      <trkpt lat="45.83676" lon="4.43254">
        <ele>597.6</ele>
        <time>2025-09-10T08:48:02Z</time>
      </trkpt>
      <trkpt lat="45.83677" lon="4.43258">
        <ele>597.4</ele>
        <time>2025-09-10T08:48:03Z</time>
      </trkpt>
      <trkpt lat="45.83677" lon="4.43264">
        <ele>597</ele>
        <time>2025-09-10T08:48:04Z</time>
      </trkpt>
      <trkpt lat="45.83678" lon="4.4327">
        <ele>596.6</ele>
        <time>2025-09-10T08:48:05Z</time>
      </trkpt>
      <trkpt lat="45.83679" lon="4.43276">
        <ele>596.2</ele>
        <time>2025-09-10T08:48:06Z</time>
      </trkpt>
      <trkpt lat="45.8368" lon="4.43281">
        <ele>595.8</ele>
        <time>2025-09-10T08:48:07Z</time>
      </trkpt>
      <trkpt lat="45.83681" lon="4.43287">
        <ele>595.4</ele>
        <time>2025-09-10T08:48:08Z</time>
      </trkpt>
      <trkpt lat="45.83682" lon="4.43294">
        <ele>595</ele>
        <time>2025-09-10T08:48:09Z</time>
      </trkpt>
      <trkpt lat="45.83682" lon="4.43299">
        <ele>594.6</ele>
        <time>2025-09-10T08:48:10Z</time>
      </trkpt>
      <trkpt lat="45.83684" lon="4.43304">
        <ele>594.2</ele>
        <time>2025-09-10T08:48:11Z</time>
      </trkpt>
      <trkpt lat="45.83687" lon="4.43309">
        <ele>593.8</ele>
        <time>2025-09-10T08:48:12Z</time>
      </trkpt>
      <trkpt lat="45.8369" lon="4.43312">
        <ele>593.4</ele>
        <time>2025-09-10T08:48:13Z</time>
      </trkpt>
      <trkpt lat="45.83696" lon="4.43315">
        <ele>593</ele>
        <time>2025-09-10T08:48:14Z</time>
      </trkpt>
      <trkpt lat="45.83702" lon="4.4332">
        <ele>592.6</ele>
        <time>2025-09-10T08:48:15Z</time>
      </trkpt>
      <trkpt lat="45.83708" lon="4.43323">
        <ele>592.2</ele>
        <time>2025-09-10T08:48:16Z</time>
      </trkpt>
      <trkpt lat="45.83715" lon="4.43329">
        <ele>591.4</ele>
        <time>2025-09-10T08:48:17Z</time>
      </trkpt>
      <trkpt lat="45.83722" lon="4.43333">
        <ele>590.8</ele>
        <time>2025-09-10T08:48:18Z</time>
      </trkpt>
      <trkpt lat="45.83726" lon="4.43336">
        <ele>590</ele>
        <time>2025-09-10T08:48:19Z</time>
      </trkpt>
      <trkpt lat="45.8373" lon="4.43342">
        <ele>590</ele>
        <time>2025-09-10T08:48:20Z</time>
      </trkpt>
      <trkpt lat="45.83734" lon="4.43348">
        <ele>589.8</ele>
        <time>2025-09-10T08:48:21Z</time>
      </trkpt>
      <trkpt lat="45.83735" lon="4.43357">
        <ele>589.4</ele>
        <time>2025-09-10T08:48:22Z</time>
      </trkpt>
      <trkpt lat="45.83736" lon="4.43366">
        <ele>589</ele>
        <time>2025-09-10T08:48:23Z</time>
      </trkpt>
      <trkpt lat="45.83735" lon="4.43374">
        <ele>588.8</ele>
        <time>2025-09-10T08:48:24Z</time>
      </trkpt>
      <trkpt lat="45.83735" lon="4.43383">
        <ele>588.6</ele>
        <time>2025-09-10T08:48:25Z</time>
      </trkpt>
      <trkpt lat="45.83736" lon="4.43392">
        <ele>588.6</ele>
        <time>2025-09-10T08:48:26Z</time>
      </trkpt>
      <trkpt lat="45.83734" lon="4.43399">
        <ele>588.4</ele>
        <time>2025-09-10T08:48:27Z</time>
      </trkpt>
      <trkpt lat="45.83733" lon="4.43408">
        <ele>588.4</ele>
        <time>2025-09-10T08:48:28Z</time>
      </trkpt>
      <trkpt lat="45.83731" lon="4.43415">
        <ele>588.4</ele>
        <time>2025-09-10T08:48:29Z</time>
      </trkpt>
      <trkpt lat="45.8373" lon="4.43421">
        <ele>588.4</ele>
        <time>2025-09-10T08:48:30Z</time>
      </trkpt>
      <trkpt lat="45.83728" lon="4.43427">
        <ele>588.4</ele>
        <time>2025-09-10T08:48:31Z</time>
      </trkpt>
      <trkpt lat="45.83726" lon="4.43433">
        <ele>588.6</ele>
        <time>2025-09-10T08:48:32Z</time>
      </trkpt>
      <trkpt lat="45.83724" lon="4.43439">
        <ele>588.6</ele>
        <time>2025-09-10T08:48:33Z</time>
      </trkpt>
      <trkpt lat="45.83722" lon="4.43443">
        <ele>588.6</ele>
        <time>2025-09-10T08:48:34Z</time>
      </trkpt>
      <trkpt lat="45.8372" lon="4.43447">
        <ele>588.6</ele>
        <time>2025-09-10T08:48:35Z</time>
      </trkpt>
      <trkpt lat="45.83718" lon="4.43452">
        <ele>588.6</ele>
        <time>2025-09-10T08:48:36Z</time>
      </trkpt>
      <trkpt lat="45.83716" lon="4.43456">
        <ele>588.6</ele>
        <time>2025-09-10T08:48:37Z</time>
      </trkpt>
      <trkpt lat="45.83714" lon="4.43459">
        <ele>588.6</ele>
        <time>2025-09-10T08:48:38Z</time>
      </trkpt>
      <trkpt lat="45.83712" lon="4.43462">
        <ele>588.6</ele>
        <time>2025-09-10T08:48:39Z</time>
      </trkpt>
      <trkpt lat="45.83711" lon="4.43464">
        <ele>588.6</ele>
        <time>2025-09-10T08:48:40Z</time>
      </trkpt>
      <trkpt lat="45.83709" lon="4.43467">
        <ele>588.6</ele>
        <time>2025-09-10T08:48:41Z</time>
      </trkpt>
      <trkpt lat="45.83708" lon="4.43469">
        <ele>588.4</ele>
        <time>2025-09-10T08:48:42Z</time>
      </trkpt>
      <trkpt lat="45.83708" lon="4.43472">
        <ele>588.4</ele>
        <time>2025-09-10T08:48:43Z</time>
      </trkpt>
      <trkpt lat="45.83707" lon="4.43474">
        <ele>588.4</ele>
        <time>2025-09-10T08:48:44Z</time>
      </trkpt>
      <trkpt lat="45.83707" lon="4.43475">
        <ele>588.2</ele>
        <time>2025-09-10T08:48:45Z</time>
      </trkpt>
      <trkpt lat="45.83707" lon="4.43475">
        <ele>588</ele>
        <time>2025-09-10T08:48:46Z</time>
      </trkpt>
      <trkpt lat="45.83707" lon="4.43474">
        <ele>587.8</ele>
        <time>2025-09-10T08:49:41Z</time>
      </trkpt>
      <trkpt lat="45.83705" lon="4.43475">
        <ele>587.8</ele>
        <time>2025-09-10T08:49:42Z</time>
      </trkpt>
      <trkpt lat="45.83703" lon="4.43477">
        <ele>587.6</ele>
        <time>2025-09-10T08:49:43Z</time>
      </trkpt>
      <trkpt lat="45.837" lon="4.4348">
        <ele>587.4</ele>
        <time>2025-09-10T08:49:44Z</time>
      </trkpt>
      <trkpt lat="45.83698" lon="4.43484">
        <ele>587</ele>
        <time>2025-09-10T08:49:45Z</time>
      </trkpt>
      <trkpt lat="45.83695" lon="4.43489">
        <ele>586.8</ele>
        <time>2025-09-10T08:49:46Z</time>
      </trkpt>
      <trkpt lat="45.83692" lon="4.43495">
        <ele>586.4</ele>
        <time>2025-09-10T08:49:47Z</time>
      </trkpt>
      <trkpt lat="45.83689" lon="4.43501">
        <ele>586</ele>
        <time>2025-09-10T08:49:48Z</time>
      </trkpt>
      <trkpt lat="45.83685" lon="4.43507">
        <ele>585.6</ele>
        <time>2025-09-10T08:49:49Z</time>
      </trkpt>
      <trkpt lat="45.83682" lon="4.43513">
        <ele>585.2</ele>
        <time>2025-09-10T08:49:50Z</time>
      </trkpt>
      <trkpt lat="45.83678" lon="4.43519">
        <ele>584.8</ele>
        <time>2025-09-10T08:49:51Z</time>
      </trkpt>
      <trkpt lat="45.83674" lon="4.43526">
        <ele>584.2</ele>
        <time>2025-09-10T08:49:52Z</time>
      </trkpt>
      <trkpt lat="45.83671" lon="4.43533">
        <ele>583.6</ele>
        <time>2025-09-10T08:49:53Z</time>
      </trkpt>
      <trkpt lat="45.83667" lon="4.43539">
        <ele>583</ele>
        <time>2025-09-10T08:49:54Z</time>
      </trkpt>
      <trkpt lat="45.83663" lon="4.43546">
        <ele>582.6</ele>
        <time>2025-09-10T08:49:55Z</time>
      </trkpt>
      <trkpt lat="45.8366" lon="4.43553">
        <ele>582.2</ele>
        <time>2025-09-10T08:49:56Z</time>
      </trkpt>
      <trkpt lat="45.83657" lon="4.4356">
        <ele>581.4</ele>
        <time>2025-09-10T08:49:57Z</time>
      </trkpt>
      <trkpt lat="45.83653" lon="4.43567">
        <ele>580.6</ele>
        <time>2025-09-10T08:49:58Z</time>
      </trkpt>
      <trkpt lat="45.83649" lon="4.43575">
        <ele>580</ele>
        <time>2025-09-10T08:49:59Z</time>
      </trkpt>
      <trkpt lat="45.83644" lon="4.43582">
        <ele>579.2</ele>
        <time>2025-09-10T08:50:00Z</time>
      </trkpt>
      <trkpt lat="45.8364" lon="4.43589">
        <ele>578.4</ele>
        <time>2025-09-10T08:50:01Z</time>
      </trkpt>
      <trkpt lat="45.83636" lon="4.43597">
        <ele>577.6</ele>
        <time>2025-09-10T08:50:02Z</time>
      </trkpt>
      <trkpt lat="45.83632" lon="4.43604">
        <ele>576.8</ele>
        <time>2025-09-10T08:50:03Z</time>
      </trkpt>
      <trkpt lat="45.83628" lon="4.43612">
        <ele>576</ele>
        <time>2025-09-10T08:50:04Z</time>
      </trkpt>
      <trkpt lat="45.83624" lon="4.43619">
        <ele>575.2</ele>
        <time>2025-09-10T08:50:05Z</time>
      </trkpt>
      <trkpt lat="45.83622" lon="4.43628">
        <ele>574.4</ele>
        <time>2025-09-10T08:50:06Z</time>
      </trkpt>
      <trkpt lat="45.83619" lon="4.43636">
        <ele>573.6</ele>
        <time>2025-09-10T08:50:07Z</time>
      </trkpt>
      <trkpt lat="45.83617" lon="4.43643">
        <ele>573.2</ele>
        <time>2025-09-10T08:50:08Z</time>
      </trkpt>
      <trkpt lat="45.83615" lon="4.4365">
        <ele>572.6</ele>
        <time>2025-09-10T08:50:09Z</time>
      </trkpt>
      <trkpt lat="45.83613" lon="4.43659">
        <ele>571.6</ele>
        <time>2025-09-10T08:50:10Z</time>
      </trkpt>
      <trkpt lat="45.8361" lon="4.43668">
        <ele>570.8</ele>
        <time>2025-09-10T08:50:11Z</time>
      </trkpt>
      <trkpt lat="45.83608" lon="4.43677">
        <ele>570</ele>
        <time>2025-09-10T08:50:12Z</time>
      </trkpt>
      <trkpt lat="45.83606" lon="4.43686">
        <ele>569.2</ele>
        <time>2025-09-10T08:50:13Z</time>
      </trkpt>
      <trkpt lat="45.83603" lon="4.43695">
        <ele>568.4</ele>
        <time>2025-09-10T08:50:14Z</time>
      </trkpt>
      <trkpt lat="45.83602" lon="4.43701">
        <ele>567.4</ele>
        <time>2025-09-10T08:50:15Z</time>
      </trkpt>
      <trkpt lat="45.83598" lon="4.43708">
        <ele>566.4</ele>
        <time>2025-09-10T08:50:16Z</time>
      </trkpt>
      <trkpt lat="45.83596" lon="4.43715">
        <ele>565.8</ele>
        <time>2025-09-10T08:50:17Z</time>
      </trkpt>
      <trkpt lat="45.83591" lon="4.43723">
        <ele>564.6</ele>
        <time>2025-09-10T08:50:18Z</time>
      </trkpt>
      <trkpt lat="45.83589" lon="4.4373">
        <ele>563.4</ele>
        <time>2025-09-10T08:50:19Z</time>
      </trkpt>
      <trkpt lat="45.83585" lon="4.43738">
        <ele>562.4</ele>
        <time>2025-09-10T08:50:20Z</time>
      </trkpt>
      <trkpt lat="45.83583" lon="4.43746">
        <ele>561.6</ele>
        <time>2025-09-10T08:50:21Z</time>
      </trkpt>
      <trkpt lat="45.83581" lon="4.43753">
        <ele>560.6</ele>
        <time>2025-09-10T08:50:22Z</time>
      </trkpt>
      <trkpt lat="45.83578" lon="4.43761">
        <ele>559.6</ele>
        <time>2025-09-10T08:50:23Z</time>
      </trkpt>
      <trkpt lat="45.83576" lon="4.43768">
        <ele>558.4</ele>
        <time>2025-09-10T08:50:24Z</time>
      </trkpt>
      <trkpt lat="45.83574" lon="4.43777">
        <ele>557.4</ele>
        <time>2025-09-10T08:50:25Z</time>
      </trkpt>
      <trkpt lat="45.83571" lon="4.43784">
        <ele>556.2</ele>
        <time>2025-09-10T08:50:26Z</time>
      </trkpt>
      <trkpt lat="45.83568" lon="4.43792">
        <ele>555.2</ele>
        <time>2025-09-10T08:50:27Z</time>
      </trkpt>
      <trkpt lat="45.83566" lon="4.438">
        <ele>553.8</ele>
        <time>2025-09-10T08:50:28Z</time>
      </trkpt>
      <trkpt lat="45.83563" lon="4.4381">
        <ele>553</ele>
        <time>2025-09-10T08:50:29Z</time>
      </trkpt>
      <trkpt lat="45.83561" lon="4.43818">
        <ele>551.8</ele>
        <time>2025-09-10T08:50:30Z</time>
      </trkpt>
      <trkpt lat="45.83559" lon="4.43824">
        <ele>550.8</ele>
        <time>2025-09-10T08:50:31Z</time>
      </trkpt>
      <trkpt lat="45.83557" lon="4.43833">
        <ele>550</ele>
        <time>2025-09-10T08:50:32Z</time>
      </trkpt>
      <trkpt lat="45.83555" lon="4.43838">
        <ele>549</ele>
        <time>2025-09-10T08:50:33Z</time>
      </trkpt>
      <trkpt lat="45.83552" lon="4.43843">
        <ele>548.4</ele>
        <time>2025-09-10T08:50:34Z</time>
      </trkpt>
      <trkpt lat="45.83551" lon="4.43844">
        <ele>547.8</ele>
        <time>2025-09-10T08:50:35Z</time>
      </trkpt>
      <trkpt lat="45.83549" lon="4.43847">
        <ele>547.6</ele>
        <time>2025-09-10T08:50:36Z</time>
      </trkpt>
      <trkpt lat="45.83544" lon="4.43853">
        <ele>547</ele>
        <time>2025-09-10T08:50:37Z</time>
      </trkpt>
      <trkpt lat="45.83542" lon="4.43858">
        <ele>546.4</ele>
        <time>2025-09-10T08:50:38Z</time>
      </trkpt>
      <trkpt lat="45.83541" lon="4.43861">
        <ele>545.8</ele>
        <time>2025-09-10T08:50:39Z</time>
      </trkpt>
      <trkpt lat="45.83539" lon="4.43865">
        <ele>545.2</ele>
        <time>2025-09-10T08:50:40Z</time>
      </trkpt>
      <trkpt lat="45.83538" lon="4.4387">
        <ele>544.2</ele>
        <time>2025-09-10T08:50:41Z</time>
      </trkpt>
      <trkpt lat="45.83536" lon="4.43875">
        <ele>544.2</ele>
        <time>2025-09-10T08:50:42Z</time>
      </trkpt>
      <trkpt lat="45.83535" lon="4.43882">
        <ele>543.8</ele>
        <time>2025-09-10T08:50:43Z</time>
      </trkpt>
      <trkpt lat="45.83533" lon="4.43887">
        <ele>543.2</ele>
        <time>2025-09-10T08:50:44Z</time>
      </trkpt>
      <trkpt lat="45.83531" lon="4.43893">
        <ele>542.4</ele>
        <time>2025-09-10T08:50:45Z</time>
      </trkpt>
      <trkpt lat="45.83529" lon="4.43899">
        <ele>541.6</ele>
        <time>2025-09-10T08:50:46Z</time>
      </trkpt>
      <trkpt lat="45.83527" lon="4.43904">
        <ele>540.8</ele>
        <time>2025-09-10T08:50:47Z</time>
      </trkpt>
      <trkpt lat="45.83527" lon="4.43909">
        <ele>540</ele>
        <time>2025-09-10T08:50:48Z</time>
      </trkpt>
      <trkpt lat="45.83525" lon="4.43913">
        <ele>539.4</ele>
        <time>2025-09-10T08:50:49Z</time>
      </trkpt>
      <trkpt lat="45.83522" lon="4.43918">
        <ele>539.4</ele>
        <time>2025-09-10T08:50:50Z</time>
      </trkpt>
      <trkpt lat="45.8352" lon="4.43921">
        <ele>537.8</ele>
        <time>2025-09-10T08:50:51Z</time>
      </trkpt>
      <trkpt lat="45.83516" lon="4.43926">
        <ele>537</ele>
        <time>2025-09-10T08:50:52Z</time>
      </trkpt>
      <trkpt lat="45.83511" lon="4.43932">
        <ele>537</ele>
        <time>2025-09-10T08:50:53Z</time>
      </trkpt>
      <trkpt lat="45.83507" lon="4.43938">
        <ele>536</ele>
        <time>2025-09-10T08:50:54Z</time>
      </trkpt>
      <trkpt lat="45.83503" lon="4.43943">
        <ele>535.2</ele>
        <time>2025-09-10T08:50:55Z</time>
      </trkpt>
      <trkpt lat="45.83503" lon="4.43943">
        <ele>534.2</ele>
        <time>2025-09-10T08:50:56Z</time>
      </trkpt>
      <trkpt lat="45.83499" lon="4.43949">
        <ele>533.2</ele>
        <time>2025-09-10T08:50:57Z</time>
      </trkpt>
      <trkpt lat="45.83496" lon="4.43953">
        <ele>532.4</ele>
        <time>2025-09-10T08:50:58Z</time>
      </trkpt>
      <trkpt lat="45.83492" lon="4.43961">
        <ele>531.8</ele>
        <time>2025-09-10T08:50:59Z</time>
      </trkpt>
      <trkpt lat="45.83488" lon="4.43967">
        <ele>531</ele>
        <time>2025-09-10T08:51:00Z</time>
      </trkpt>
      <trkpt lat="45.83484" lon="4.43974">
        <ele>530</ele>
        <time>2025-09-10T08:51:01Z</time>
      </trkpt>
      <trkpt lat="45.8348" lon="4.43981">
        <ele>529</ele>
        <time>2025-09-10T08:51:02Z</time>
      </trkpt>
      <trkpt lat="45.83476" lon="4.43988">
        <ele>527.8</ele>
        <time>2025-09-10T08:51:03Z</time>
      </trkpt>
      <trkpt lat="45.83472" lon="4.43995">
        <ele>526.8</ele>
        <time>2025-09-10T08:51:04Z</time>
      </trkpt>
      <trkpt lat="45.83467" lon="4.44003">
        <ele>525.6</ele>
        <time>2025-09-10T08:51:05Z</time>
      </trkpt>
      <trkpt lat="45.83464" lon="4.44009">
        <ele>524.6</ele>
        <time>2025-09-10T08:51:06Z</time>
      </trkpt>
      <trkpt lat="45.83461" lon="4.44015">
        <ele>523.6</ele>
        <time>2025-09-10T08:51:07Z</time>
      </trkpt>
      <trkpt lat="45.83459" lon="4.44021">
        <ele>522.8</ele>
        <time>2025-09-10T08:51:08Z</time>
      </trkpt>
      <trkpt lat="45.83457" lon="4.44026">
        <ele>521.8</ele>
        <time>2025-09-10T08:51:09Z</time>
      </trkpt>
      <trkpt lat="45.83458" lon="4.44032">
        <ele>520.8</ele>
        <time>2025-09-10T08:51:10Z</time>
      </trkpt>
      <trkpt lat="45.83458" lon="4.44038">
        <ele>520</ele>
        <time>2025-09-10T08:51:11Z</time>
      </trkpt>
      <trkpt lat="45.83459" lon="4.44041">
        <ele>519.4</ele>
        <time>2025-09-10T08:51:12Z</time>
      </trkpt>
      <trkpt lat="45.83458" lon="4.44045">
        <ele>518.6</ele>
        <time>2025-09-10T08:51:13Z</time>
      </trkpt>
      <trkpt lat="45.83459" lon="4.44049">
        <ele>518</ele>
        <time>2025-09-10T08:51:14Z</time>
      </trkpt>
      <trkpt lat="45.8346" lon="4.44054">
        <ele>517.2</ele>
        <time>2025-09-10T08:51:15Z</time>
      </trkpt>
      <trkpt lat="45.83463" lon="4.44058">
        <ele>516.8</ele>
        <time>2025-09-10T08:51:16Z</time>
      </trkpt>
      <trkpt lat="45.83465" lon="4.44062">
        <ele>516.2</ele>
        <time>2025-09-10T08:51:17Z</time>
      </trkpt>
      <trkpt lat="45.83468" lon="4.44066">
        <ele>516</ele>
        <time>2025-09-10T08:51:18Z</time>
      </trkpt>
      <trkpt lat="45.8347" lon="4.44069">
        <ele>515.6</ele>
        <time>2025-09-10T08:51:19Z</time>
      </trkpt>
      <trkpt lat="45.83471" lon="4.44072">
        <ele>515.4</ele>
        <time>2025-09-10T08:51:20Z</time>
      </trkpt>
      <trkpt lat="45.83472" lon="4.44074">
        <ele>515.4</ele>
        <time>2025-09-10T08:51:21Z</time>
      </trkpt>
      <trkpt lat="45.83471" lon="4.44075">
        <ele>515.2</ele>
        <time>2025-09-10T08:51:22Z</time>
      </trkpt>
      <trkpt lat="45.83471" lon="4.44076">
        <ele>515.2</ele>
        <time>2025-09-10T08:51:23Z</time>
      </trkpt>
      <trkpt lat="45.8347" lon="4.44076">
        <ele>515.2</ele>
        <time>2025-09-10T08:51:24Z</time>
      </trkpt>
      <trkpt lat="45.83469" lon="4.44077">
        <ele>515.2</ele>
        <time>2025-09-10T08:51:25Z</time>
      </trkpt>
      <trkpt lat="45.83468" lon="4.44079">
        <ele>515.2</ele>
        <time>2025-09-10T08:51:26Z</time>
      </trkpt>
      <trkpt lat="45.83467" lon="4.44081">
        <ele>515.2</ele>
        <time>2025-09-10T08:51:27Z</time>
      </trkpt>
      <trkpt lat="45.83465" lon="4.44082">
        <ele>515.2</ele>
        <time>2025-09-10T08:51:28Z</time>
      </trkpt>
      <trkpt lat="45.83462" lon="4.44082">
        <ele>514.8</ele>
        <time>2025-09-10T08:51:29Z</time>
      </trkpt>
      <trkpt lat="45.83459" lon="4.44082">
        <ele>514.8</ele>
        <time>2025-09-10T08:51:30Z</time>
      </trkpt>
      <trkpt lat="45.83455" lon="4.4408">
        <ele>514.4</ele>
        <time>2025-09-10T08:51:31Z</time>
      </trkpt>
      <trkpt lat="45.83451" lon="4.44078">
        <ele>514</ele>
        <time>2025-09-10T08:51:32Z</time>
      </trkpt>
      <trkpt lat="45.83447" lon="4.44076">
        <ele>513.6</ele>
        <time>2025-09-10T08:51:33Z</time>
      </trkpt>
      <trkpt lat="45.83444" lon="4.44072">
        <ele>513</ele>
        <time>2025-09-10T08:51:34Z</time>
      </trkpt>
      <trkpt lat="45.83441" lon="4.44069">
        <ele>513</ele>
        <time>2025-09-10T08:51:35Z</time>
      </trkpt>
      <trkpt lat="45.83437" lon="4.44064">
        <ele>512.6</ele>
        <time>2025-09-10T08:51:36Z</time>
      </trkpt>
      <trkpt lat="45.83434" lon="4.44061">
        <ele>512.4</ele>
        <time>2025-09-10T08:51:37Z</time>
      </trkpt>
      <trkpt lat="45.83431" lon="4.44058">
        <ele>511.8</ele>
        <time>2025-09-10T08:51:38Z</time>
      </trkpt>
      <trkpt lat="45.83429" lon="4.44055">
        <ele>511.4</ele>
        <time>2025-09-10T08:51:39Z</time>
      </trkpt>
      <trkpt lat="45.83425" lon="4.44054">
        <ele>510.8</ele>
        <time>2025-09-10T08:51:40Z</time>
      </trkpt>
      <trkpt lat="45.83421" lon="4.44054">
        <ele>510.4</ele>
        <time>2025-09-10T08:51:41Z</time>
      </trkpt>
      <trkpt lat="45.83416" lon="4.44057">
        <ele>509.8</ele>
        <time>2025-09-10T08:51:42Z</time>
      </trkpt>
      <trkpt lat="45.83411" lon="4.44059">
        <ele>509.2</ele>
        <time>2025-09-10T08:51:43Z</time>
      </trkpt>
      <trkpt lat="45.83407" lon="4.44061">
        <ele>508.6</ele>
        <time>2025-09-10T08:51:44Z</time>
      </trkpt>
      <trkpt lat="45.83403" lon="4.44062">
        <ele>508.6</ele>
        <time>2025-09-10T08:51:45Z</time>
      </trkpt>
      <trkpt lat="45.83399" lon="4.44063">
        <ele>508</ele>
        <time>2025-09-10T08:51:46Z</time>
      </trkpt>
      <trkpt lat="45.83395" lon="4.44064">
        <ele>508</ele>
        <time>2025-09-10T08:51:47Z</time>
      </trkpt>
      <trkpt lat="45.83392" lon="4.44064">
        <ele>508</ele>
        <time>2025-09-10T08:51:48Z</time>
      </trkpt>
      <trkpt lat="45.83389" lon="4.44065">
        <ele>508</ele>
        <time>2025-09-10T08:51:49Z</time>
      </trkpt>
      <trkpt lat="45.83387" lon="4.44067">
        <ele>508</ele>
        <time>2025-09-10T08:51:50Z</time>
      </trkpt>
      <trkpt lat="45.83385" lon="4.44067">
        <ele>508</ele>
        <time>2025-09-10T08:51:51Z</time>
      </trkpt>
      <trkpt lat="45.83385" lon="4.44067">
        <ele>508</ele>
        <time>2025-09-10T08:51:52Z</time>
      </trkpt>
      <trkpt lat="45.83384" lon="4.44067">
        <ele>508.4</ele>
        <time>2025-09-10T08:51:53Z</time>
      </trkpt>
      <trkpt lat="45.83386" lon="4.44068">
        <ele>508.4</ele>
        <time>2025-09-10T08:51:54Z</time>
      </trkpt>
      <trkpt lat="45.83388" lon="4.44069">
        <ele>508.4</ele>
        <time>2025-09-10T08:52:15Z</time>
      </trkpt>
      <trkpt lat="45.8339" lon="4.44069">
        <ele>508.4</ele>
        <time>2025-09-10T08:52:16Z</time>
      </trkpt>
      <trkpt lat="45.83389" lon="4.44068">
        <ele>508.4</ele>
        <time>2025-09-10T08:52:17Z</time>
      </trkpt>
      <trkpt lat="45.83389" lon="4.44065">
        <ele>508</ele>
        <time>2025-09-10T08:52:23Z</time>
      </trkpt>
      <trkpt lat="45.83391" lon="4.44064">
        <ele>508</ele>
        <time>2025-09-10T08:52:24Z</time>
      </trkpt>
      <trkpt lat="45.83394" lon="4.44063">
        <ele>507.8</ele>
        <time>2025-09-10T08:52:25Z</time>
      </trkpt>
      <trkpt lat="45.83396" lon="4.44062">
        <ele>507.8</ele>
        <time>2025-09-10T08:52:26Z</time>
      </trkpt>
      <trkpt lat="45.83399" lon="4.44061">
        <ele>507.4</ele>
        <time>2025-09-10T08:52:27Z</time>
      </trkpt>
      <trkpt lat="45.83402" lon="4.4406">
        <ele>507.4</ele>
        <time>2025-09-10T08:52:28Z</time>
      </trkpt>
      <trkpt lat="45.83404" lon="4.44059">
        <ele>507.4</ele>
        <time>2025-09-10T08:52:29Z</time>
      </trkpt>
      <trkpt lat="45.83407" lon="4.44058">
        <ele>507.4</ele>
        <time>2025-09-10T08:52:30Z</time>
      </trkpt>
      <trkpt lat="45.8341" lon="4.44057">
        <ele>507.4</ele>
        <time>2025-09-10T08:52:31Z</time>
      </trkpt>
      <trkpt lat="45.83413" lon="4.44056">
        <ele>507.4</ele>
        <time>2025-09-10T08:52:32Z</time>
      </trkpt>
      <trkpt lat="45.83416" lon="4.44054">
        <ele>507.4</ele>
        <time>2025-09-10T08:52:33Z</time>
      </trkpt>
      <trkpt lat="45.83419" lon="4.44054">
        <ele>507.8</ele>
        <time>2025-09-10T08:52:34Z</time>
      </trkpt>
      <trkpt lat="45.83421" lon="4.44053">
        <ele>507.8</ele>
        <time>2025-09-10T08:52:35Z</time>
      </trkpt>
      <trkpt lat="45.83423" lon="4.44053">
        <ele>508.2</ele>
        <time>2025-09-10T08:52:36Z</time>
      </trkpt>
      <trkpt lat="45.83425" lon="4.44054">
        <ele>508.4</ele>
        <time>2025-09-10T08:52:37Z</time>
      </trkpt>
      <trkpt lat="45.83427" lon="4.44053">
        <ele>508.4</ele>
        <time>2025-09-10T08:52:38Z</time>
      </trkpt>
      <trkpt lat="45.83428" lon="4.44052">
        <ele>508.4</ele>
        <time>2025-09-10T08:52:39Z</time>
      </trkpt>
      <trkpt lat="45.83427" lon="4.4405">
        <ele>508.4</ele>
        <time>2025-09-10T08:52:40Z</time>
      </trkpt>
      <trkpt lat="45.83426" lon="4.4405">
        <ele>508.4</ele>
        <time>2025-09-10T08:52:41Z</time>
      </trkpt>
      <trkpt lat="45.83425" lon="4.4405">
        <ele>508.6</ele>
        <time>2025-09-10T08:52:42Z</time>
      </trkpt>
      <trkpt lat="45.83423" lon="4.4405">
        <ele>508.6</ele>
        <time>2025-09-10T08:52:43Z</time>
      </trkpt>
      <trkpt lat="45.83422" lon="4.44051">
        <ele>508.6</ele>
        <time>2025-09-10T08:52:44Z</time>
      </trkpt>
      <trkpt lat="45.8342" lon="4.44053">
        <ele>508.4</ele>
        <time>2025-09-10T08:52:45Z</time>
      </trkpt>
      <trkpt lat="45.83417" lon="4.44056">
        <ele>508.2</ele>
        <time>2025-09-10T08:52:46Z</time>
      </trkpt>
      <trkpt lat="45.83412" lon="4.44059">
        <ele>508.2</ele>
        <time>2025-09-10T08:52:47Z</time>
      </trkpt>
      <trkpt lat="45.83408" lon="4.4406">
        <ele>507.8</ele>
        <time>2025-09-10T08:52:48Z</time>
      </trkpt>
      <trkpt lat="45.83405" lon="4.44062">
        <ele>507.8</ele>
        <time>2025-09-10T08:52:49Z</time>
      </trkpt>
      <trkpt lat="45.834" lon="4.44063">
        <ele>507.8</ele>
        <time>2025-09-10T08:52:50Z</time>
      </trkpt>
      <trkpt lat="45.83396" lon="4.44063">
        <ele>507.8</ele>
        <time>2025-09-10T08:52:51Z</time>
      </trkpt>
      <trkpt lat="45.83391" lon="4.44066">
        <ele>507.8</ele>
        <time>2025-09-10T08:52:52Z</time>
      </trkpt>
      <trkpt lat="45.83387" lon="4.44067">
        <ele>507.8</ele>
        <time>2025-09-10T08:52:53Z</time>
      </trkpt>
      <trkpt lat="45.83384" lon="4.44069">
        <ele>507.8</ele>
        <time>2025-09-10T08:52:54Z</time>
      </trkpt>
      <trkpt lat="45.8338" lon="4.44072">
        <ele>508.2</ele>
        <time>2025-09-10T08:52:55Z</time>
      </trkpt>
      <trkpt lat="45.83379" lon="4.44072">
        <ele>508.2</ele>
        <time>2025-09-10T08:52:56Z</time>
      </trkpt>
      <trkpt lat="45.83377" lon="4.44073">
        <ele>508.8</ele>
        <time>2025-09-10T08:52:57Z</time>
      </trkpt>
      <trkpt lat="45.83375" lon="4.44074">
        <ele>509</ele>
        <time>2025-09-10T08:52:58Z</time>
      </trkpt>
      <trkpt lat="45.83375" lon="4.44073">
        <ele>509.2</ele>
        <time>2025-09-10T08:52:59Z</time>
      </trkpt>
      <trkpt lat="45.83373" lon="4.44073">
        <ele>509.6</ele>
        <time>2025-09-10T08:53:00Z</time>
      </trkpt>
      <trkpt lat="45.8337" lon="4.44075">
        <ele>509.8</ele>
        <time>2025-09-10T08:53:01Z</time>
      </trkpt>
      <trkpt lat="45.83369" lon="4.44075">
        <ele>510.2</ele>
        <time>2025-09-10T08:53:02Z</time>
      </trkpt>
      <trkpt lat="45.83368" lon="4.44075">
        <ele>510.6</ele>
        <time>2025-09-10T08:53:03Z</time>
      </trkpt>
      <trkpt lat="45.83367" lon="4.44075">
        <ele>510.8</ele>
        <time>2025-09-10T08:53:04Z</time>
      </trkpt>
      <trkpt lat="45.83365" lon="4.44074">
        <ele>510.8</ele>
        <time>2025-09-10T08:53:05Z</time>
      </trkpt>
      <trkpt lat="45.83364" lon="4.44074">
        <ele>511.2</ele>
        <time>2025-09-10T08:53:06Z</time>
      </trkpt>
      <trkpt lat="45.83362" lon="4.44075">
        <ele>511.2</ele>
        <time>2025-09-10T08:53:07Z</time>
      </trkpt>
      <trkpt lat="45.8336" lon="4.44075">
        <ele>511.6</ele>
        <time>2025-09-10T08:53:08Z</time>
      </trkpt>
      <trkpt lat="45.83359" lon="4.44076">
        <ele>511.6</ele>
        <time>2025-09-10T08:53:09Z</time>
      </trkpt>
      <trkpt lat="45.83357" lon="4.44077">
        <ele>511.6</ele>
        <time>2025-09-10T08:53:10Z</time>
      </trkpt>
      <trkpt lat="45.83355" lon="4.44077">
        <ele>511.6</ele>
        <time>2025-09-10T08:53:11Z</time>
      </trkpt>
      <trkpt lat="45.83352" lon="4.44078">
        <ele>511.6</ele>
        <time>2025-09-10T08:53:12Z</time>
      </trkpt>
      <trkpt lat="45.83348" lon="4.44078">
        <ele>511.6</ele>
        <time>2025-09-10T08:53:13Z</time>
      </trkpt>
      <trkpt lat="45.83345" lon="4.44079">
        <ele>511</ele>
        <time>2025-09-10T08:53:14Z</time>
      </trkpt>
      <trkpt lat="45.8334" lon="4.44079">
        <ele>510.8</ele>
        <time>2025-09-10T08:53:15Z</time>
      </trkpt>
      <trkpt lat="45.83335" lon="4.4408">
        <ele>510.8</ele>
        <time>2025-09-10T08:53:16Z</time>
      </trkpt>
      <trkpt lat="45.83331" lon="4.44082">
        <ele>510.8</ele>
        <time>2025-09-10T08:53:17Z</time>
      </trkpt>
      <trkpt lat="45.83326" lon="4.44083">
        <ele>510.4</ele>
        <time>2025-09-10T08:53:18Z</time>
      </trkpt>
      <trkpt lat="45.83321" lon="4.44086">
        <ele>510.4</ele>
        <time>2025-09-10T08:53:19Z</time>
      </trkpt>
      <trkpt lat="45.83317" lon="4.44088">
        <ele>510</ele>
        <time>2025-09-10T08:53:20Z</time>
      </trkpt>
      <trkpt lat="45.83313" lon="4.44092">
        <ele>510</ele>
        <time>2025-09-10T08:53:21Z</time>
      </trkpt>
      <trkpt lat="45.8331" lon="4.44094">
        <ele>510</ele>
        <time>2025-09-10T08:53:22Z</time>
      </trkpt>
      <trkpt lat="45.83306" lon="4.44096">
        <ele>510</ele>
        <time>2025-09-10T08:53:23Z</time>
      </trkpt>
      <trkpt lat="45.83304" lon="4.44096">
        <ele>510.4</ele>
        <time>2025-09-10T08:53:24Z</time>
      </trkpt>
      <trkpt lat="45.83302" lon="4.44096">
        <ele>510.4</ele>
        <time>2025-09-10T08:53:25Z</time>
      </trkpt>
      <trkpt lat="45.833" lon="4.44097">
        <ele>510.8</ele>
        <time>2025-09-10T08:53:26Z</time>
      </trkpt>
      <trkpt lat="45.83299" lon="4.44097">
        <ele>511</ele>
        <time>2025-09-10T08:53:27Z</time>
      </trkpt>
      <trkpt lat="45.83297" lon="4.44098">
        <ele>511.4</ele>
        <time>2025-09-10T08:53:28Z</time>
      </trkpt>
      <trkpt lat="45.83296" lon="4.44098">
        <ele>511.6</ele>
        <time>2025-09-10T08:53:29Z</time>
      </trkpt>
      <trkpt lat="45.83294" lon="4.44097">
        <ele>512</ele>
        <time>2025-09-10T08:53:30Z</time>
      </trkpt>
      <trkpt lat="45.83293" lon="4.44095">
        <ele>512.2</ele>
        <time>2025-09-10T08:53:31Z</time>
      </trkpt>
      <trkpt lat="45.83292" lon="4.44094">
        <ele>512.6</ele>
        <time>2025-09-10T08:53:32Z</time>
      </trkpt>
      <trkpt lat="45.83291" lon="4.44094">
        <ele>512.8</ele>
        <time>2025-09-10T08:53:33Z</time>
      </trkpt>
      <trkpt lat="45.83289" lon="4.44093">
        <ele>512.8</ele>
        <time>2025-09-10T08:53:34Z</time>
      </trkpt>
      <trkpt lat="45.83288" lon="4.44093">
        <ele>513.2</ele>
        <time>2025-09-10T08:53:35Z</time>
      </trkpt>
      <trkpt lat="45.83287" lon="4.44092">
        <ele>513.4</ele>
        <time>2025-09-10T08:53:36Z</time>
      </trkpt>
      <trkpt lat="45.83286" lon="4.44091">
        <ele>513.8</ele>
        <time>2025-09-10T08:53:37Z</time>
      </trkpt>
      <trkpt lat="45.83285" lon="4.44091">
        <ele>514.2</ele>
        <time>2025-09-10T08:53:38Z</time>
      </trkpt>
      <trkpt lat="45.83284" lon="4.44091">
        <ele>514.2</ele>
        <time>2025-09-10T08:53:39Z</time>
      </trkpt>
      <trkpt lat="45.83283" lon="4.44091">
        <ele>514.4</ele>
        <time>2025-09-10T08:53:40Z</time>
      </trkpt>
      <trkpt lat="45.83281" lon="4.4409">
        <ele>514.6</ele>
        <time>2025-09-10T08:53:41Z</time>
      </trkpt>
      <trkpt lat="45.8328" lon="4.4409">
        <ele>514.6</ele>
        <time>2025-09-10T08:53:42Z</time>
      </trkpt>
      <trkpt lat="45.83279" lon="4.44089">
        <ele>514.8</ele>
        <time>2025-09-10T08:53:43Z</time>
      </trkpt>
      <trkpt lat="45.83278" lon="4.44088">
        <ele>514.8</ele>
        <time>2025-09-10T08:53:44Z</time>
      </trkpt>
      <trkpt lat="45.83278" lon="4.44087">
        <ele>515.2</ele>
        <time>2025-09-10T08:53:45Z</time>
      </trkpt>
      <trkpt lat="45.83277" lon="4.44086">
        <ele>515.2</ele>
        <time>2025-09-10T08:53:46Z</time>
      </trkpt>
      <trkpt lat="45.83276" lon="4.44084">
        <ele>515.4</ele>
        <time>2025-09-10T08:53:47Z</time>
      </trkpt>
      <trkpt lat="45.83276" lon="4.44083">
        <ele>515.4</ele>
        <time>2025-09-10T08:53:48Z</time>
      </trkpt>
      <trkpt lat="45.83275" lon="4.44082">
        <ele>515.6</ele>
        <time>2025-09-10T08:53:49Z</time>
      </trkpt>
      <trkpt lat="45.83275" lon="4.44081">
        <ele>515.6</ele>
        <time>2025-09-10T08:53:50Z</time>
      </trkpt>
      <trkpt lat="45.83274" lon="4.44081">
        <ele>516.2</ele>
        <time>2025-09-10T08:54:13Z</time>
      </trkpt>
      <trkpt lat="45.83273" lon="4.44081">
        <ele>516.2</ele>
        <time>2025-09-10T08:54:14Z</time>
      </trkpt>
      <trkpt lat="45.83271" lon="4.44081">
        <ele>516.2</ele>
        <time>2025-09-10T08:54:15Z</time>
      </trkpt>
      <trkpt lat="45.8327" lon="4.44081">
        <ele>516.2</ele>
        <time>2025-09-10T08:54:16Z</time>
      </trkpt>
      <trkpt lat="45.83268" lon="4.44081">
        <ele>516.6</ele>
        <time>2025-09-10T08:54:17Z</time>
      </trkpt>
      <trkpt lat="45.83267" lon="4.4408">
        <ele>516.6</ele>
        <time>2025-09-10T08:54:18Z</time>
      </trkpt>
      <trkpt lat="45.83266" lon="4.44079">
        <ele>517</ele>
        <time>2025-09-10T08:54:19Z</time>
      </trkpt>
      <trkpt lat="45.83265" lon="4.44078">
        <ele>517.2</ele>
        <time>2025-09-10T08:54:20Z</time>
      </trkpt>
      <trkpt lat="45.83263" lon="4.44078">
        <ele>517.4</ele>
        <time>2025-09-10T08:54:21Z</time>
      </trkpt>
      <trkpt lat="45.83261" lon="4.44078">
        <ele>517.4</ele>
        <time>2025-09-10T08:54:22Z</time>
      </trkpt>
      <trkpt lat="45.8326" lon="4.44078">
        <ele>517.8</ele>
        <time>2025-09-10T08:54:23Z</time>
      </trkpt>
      <trkpt lat="45.83259" lon="4.44077">
        <ele>518.2</ele>
        <time>2025-09-10T08:54:24Z</time>
      </trkpt>
      <trkpt lat="45.83258" lon="4.44076">
        <ele>518.2</ele>
        <time>2025-09-10T08:54:25Z</time>
      </trkpt>
      <trkpt lat="45.83257" lon="4.44076">
        <ele>518.4</ele>
        <time>2025-09-10T08:54:26Z</time>
      </trkpt>
      <trkpt lat="45.83256" lon="4.44075">
        <ele>518.6</ele>
        <time>2025-09-10T08:54:27Z</time>
      </trkpt>
      <trkpt lat="45.83255" lon="4.44075">
        <ele>518.8</ele>
        <time>2025-09-10T08:54:28Z</time>
      </trkpt>
      <trkpt lat="45.83254" lon="4.44074">
        <ele>518.8</ele>
        <time>2025-09-10T08:54:29Z</time>
      </trkpt>
      <trkpt lat="45.83253" lon="4.44073">
        <ele>519.4</ele>
        <time>2025-09-10T08:54:30Z</time>
      </trkpt>
      <trkpt lat="45.83252" lon="4.44072">
        <ele>519.4</ele>
        <time>2025-09-10T08:54:31Z</time>
      </trkpt>
      <trkpt lat="45.83251" lon="4.44071">
        <ele>519.6</ele>
        <time>2025-09-10T08:54:32Z</time>
      </trkpt>
      <trkpt lat="45.83251" lon="4.4407">
        <ele>519.6</ele>
        <time>2025-09-10T08:54:33Z</time>
      </trkpt>
      <trkpt lat="45.8325" lon="4.44069">
        <ele>520</ele>
        <time>2025-09-10T08:54:34Z</time>
      </trkpt>
      <trkpt lat="45.83249" lon="4.44068">
        <ele>520</ele>
        <time>2025-09-10T08:54:35Z</time>
      </trkpt>
      <trkpt lat="45.83248" lon="4.44067">
        <ele>520</ele>
        <time>2025-09-10T08:54:36Z</time>
      </trkpt>
      <trkpt lat="45.83247" lon="4.44066">
        <ele>520.4</ele>
        <time>2025-09-10T08:54:37Z</time>
      </trkpt>
      <trkpt lat="45.83246" lon="4.44066">
        <ele>520.4</ele>
        <time>2025-09-10T08:54:38Z</time>
      </trkpt>
      <trkpt lat="45.83245" lon="4.44065">
        <ele>520.6</ele>
        <time>2025-09-10T08:54:39Z</time>
      </trkpt>
      <trkpt lat="45.83244" lon="4.44065">
        <ele>520.6</ele>
        <time>2025-09-10T08:54:40Z</time>
      </trkpt>
      <trkpt lat="45.83243" lon="4.44065">
        <ele>520.8</ele>
        <time>2025-09-10T08:54:41Z</time>
      </trkpt>
      <trkpt lat="45.83242" lon="4.44064">
        <ele>521.2</ele>
        <time>2025-09-10T08:54:42Z</time>
      </trkpt>
      <trkpt lat="45.83241" lon="4.44064">
        <ele>521.2</ele>
        <time>2025-09-10T08:54:43Z</time>
      </trkpt>
      <trkpt lat="45.8324" lon="4.44064">
        <ele>521.2</ele>
        <time>2025-09-10T08:54:44Z</time>
      </trkpt>
      <trkpt lat="45.83239" lon="4.44064">
        <ele>521.2</ele>
        <time>2025-09-10T08:54:45Z</time>
      </trkpt>
      <trkpt lat="45.83238" lon="4.44063">
        <ele>521.4</ele>
        <time>2025-09-10T08:54:46Z</time>
      </trkpt>
      <trkpt lat="45.83237" lon="4.44063">
        <ele>521.6</ele>
        <time>2025-09-10T08:54:47Z</time>
      </trkpt>
      <trkpt lat="45.83235" lon="4.44063">
        <ele>521.6</ele>
        <time>2025-09-10T08:54:48Z</time>
      </trkpt>
      <trkpt lat="45.83234" lon="4.44063">
        <ele>522</ele>
        <time>2025-09-10T08:54:49Z</time>
      </trkpt>
      <trkpt lat="45.83233" lon="4.44064">
        <ele>522.2</ele>
        <time>2025-09-10T08:54:50Z</time>
      </trkpt>
      <trkpt lat="45.83232" lon="4.44064">
        <ele>522.2</ele>
        <time>2025-09-10T08:54:51Z</time>
      </trkpt>
      <trkpt lat="45.83231" lon="4.44064">
        <ele>522.6</ele>
        <time>2025-09-10T08:54:52Z</time>
      </trkpt>
      <trkpt lat="45.83231" lon="4.44064">
        <ele>522.8</ele>
        <time>2025-09-10T08:54:53Z</time>
      </trkpt>
      <trkpt lat="45.83231" lon="4.44064">
        <ele>522.8</ele>
        <time>2025-09-10T08:54:54Z</time>
      </trkpt>
      <trkpt lat="45.8323" lon="4.44065">
        <ele>523.4</ele>
        <time>2025-09-10T08:55:01Z</time>
      </trkpt>
      <trkpt lat="45.8323" lon="4.44065">
        <ele>523.4</ele>
        <time>2025-09-10T08:55:02Z</time>
      </trkpt>
      <trkpt lat="45.83229" lon="4.44066">
        <ele>523.4</ele>
        <time>2025-09-10T08:55:03Z</time>
      </trkpt>
      <trkpt lat="45.83229" lon="4.44066">
        <ele>523.6</ele>
        <time>2025-09-10T08:55:04Z</time>
      </trkpt>
      <trkpt lat="45.83228" lon="4.44066">
        <ele>523.6</ele>
        <time>2025-09-10T08:55:05Z</time>
      </trkpt>
      <trkpt lat="45.83227" lon="4.44067">
        <ele>523.8</ele>
        <time>2025-09-10T08:55:06Z</time>
      </trkpt>
      <trkpt lat="45.83226" lon="4.44068">
        <ele>524.2</ele>
        <time>2025-09-10T08:55:07Z</time>
      </trkpt>
      <trkpt lat="45.83226" lon="4.44068">
        <ele>524.2</ele>
        <time>2025-09-10T08:55:08Z</time>
      </trkpt>
      <trkpt lat="45.83225" lon="4.44069">
        <ele>524.6</ele>
        <time>2025-09-10T08:55:09Z</time>
      </trkpt>
      <trkpt lat="45.83225" lon="4.44069">
        <ele>524.8</ele>
        <time>2025-09-10T08:55:10Z</time>
      </trkpt>
      <trkpt lat="45.83224" lon="4.4407">
        <ele>524.8</ele>
        <time>2025-09-10T08:55:11Z</time>
      </trkpt>
      <trkpt lat="45.83224" lon="4.4407">
        <ele>525</ele>
        <time>2025-09-10T08:55:12Z</time>
      </trkpt>
      <trkpt lat="45.83223" lon="4.4407">
        <ele>525</ele>
        <time>2025-09-10T08:55:13Z</time>
      </trkpt>
      <trkpt lat="45.83222" lon="4.4407">
        <ele>525.2</ele>
        <time>2025-09-10T08:55:14Z</time>
      </trkpt>
      <trkpt lat="45.83222" lon="4.4407">
        <ele>525.2</ele>
        <time>2025-09-10T08:55:15Z</time>
      </trkpt>
      <trkpt lat="45.83221" lon="4.4407">
        <ele>525.2</ele>
        <time>2025-09-10T08:55:16Z</time>
      </trkpt>
      <trkpt lat="45.83221" lon="4.4407">
        <ele>525.6</ele>
        <time>2025-09-10T08:55:17Z</time>
      </trkpt>
      <trkpt lat="45.8322" lon="4.4407">
        <ele>525.6</ele>
        <time>2025-09-10T08:55:18Z</time>
      </trkpt>
      <trkpt lat="45.83219" lon="4.4407">
        <ele>525.8</ele>
        <time>2025-09-10T08:55:19Z</time>
      </trkpt>
      <trkpt lat="45.83219" lon="4.4407">
        <ele>526</ele>
        <time>2025-09-10T08:55:20Z</time>
      </trkpt>
      <trkpt lat="45.83219" lon="4.4407">
        <ele>526</ele>
        <time>2025-09-10T08:55:21Z</time>
      </trkpt>
      <trkpt lat="45.83218" lon="4.4407">
        <ele>526.4</ele>
        <time>2025-09-10T08:55:22Z</time>
      </trkpt>
      <trkpt lat="45.83217" lon="4.4407">
        <ele>526.4</ele>
        <time>2025-09-10T08:55:23Z</time>
      </trkpt>
      <trkpt lat="45.83217" lon="4.4407">
        <ele>526.8</ele>
        <time>2025-09-10T08:55:24Z</time>
      </trkpt>
      <trkpt lat="45.83216" lon="4.44071">
        <ele>526.8</ele>
        <time>2025-09-10T08:55:25Z</time>
      </trkpt>
      <trkpt lat="45.83216" lon="4.44071">
        <ele>526.8</ele>
        <time>2025-09-10T08:55:26Z</time>
      </trkpt>
      <trkpt lat="45.83215" lon="4.44071">
        <ele>526.8</ele>
        <time>2025-09-10T08:55:27Z</time>
      </trkpt>
      <trkpt lat="45.83215" lon="4.44071">
        <ele>526.8</ele>
        <time>2025-09-10T08:55:28Z</time>
      </trkpt>
      <trkpt lat="45.83214" lon="4.44071">
        <ele>526.8</ele>
        <time>2025-09-10T08:55:29Z</time>
      </trkpt>
      <trkpt lat="45.83213" lon="4.44071">
        <ele>527.2</ele>
        <time>2025-09-10T08:55:30Z</time>
      </trkpt>
      <trkpt lat="45.83213" lon="4.44072">
        <ele>527.2</ele>
        <time>2025-09-10T08:55:31Z</time>
      </trkpt>
      <trkpt lat="45.83212" lon="4.44072">
        <ele>527.4</ele>
        <time>2025-09-10T08:55:32Z</time>
      </trkpt>
      <trkpt lat="45.83212" lon="4.44073">
        <ele>527.4</ele>
        <time>2025-09-10T08:55:33Z</time>
      </trkpt>
      <trkpt lat="45.83211" lon="4.44073">
        <ele>527.8</ele>
        <time>2025-09-10T08:55:34Z</time>
      </trkpt>
      <trkpt lat="45.83211" lon="4.44074">
        <ele>527.8</ele>
        <time>2025-09-10T08:55:35Z</time>
      </trkpt>
      <trkpt lat="45.8321" lon="4.44074">
        <ele>528</ele>
        <time>2025-09-10T08:55:36Z</time>
      </trkpt>
      <trkpt lat="45.83209" lon="4.44074">
        <ele>528</ele>
        <time>2025-09-10T08:55:37Z</time>
      </trkpt>
      <trkpt lat="45.83208" lon="4.44075">
        <ele>528</ele>
        <time>2025-09-10T08:55:38Z</time>
      </trkpt>
      <trkpt lat="45.83208" lon="4.44075">
        <ele>528.6</ele>
        <time>2025-09-10T08:55:39Z</time>
      </trkpt>
      <trkpt lat="45.83207" lon="4.44076">
        <ele>528.8</ele>
        <time>2025-09-10T08:55:40Z</time>
      </trkpt>
      <trkpt lat="45.83207" lon="4.44076">
        <ele>529</ele>
        <time>2025-09-10T08:55:41Z</time>
      </trkpt>
      <trkpt lat="45.83206" lon="4.44077">
        <ele>529.4</ele>
        <time>2025-09-10T08:55:42Z</time>
      </trkpt>
      <trkpt lat="45.83206" lon="4.44078">
        <ele>529.4</ele>
        <time>2025-09-10T08:55:43Z</time>
      </trkpt>
      <trkpt lat="45.83205" lon="4.44078">
        <ele>529.8</ele>
        <time>2025-09-10T08:55:44Z</time>
      </trkpt>
      <trkpt lat="45.83205" lon="4.44079">
        <ele>529.8</ele>
        <time>2025-09-10T08:55:45Z</time>
      </trkpt>
      <trkpt lat="45.83205" lon="4.4408">
        <ele>529.8</ele>
        <time>2025-09-10T08:55:46Z</time>
      </trkpt>
      <trkpt lat="45.83205" lon="4.44081">
        <ele>529.8</ele>
        <time>2025-09-10T08:55:47Z</time>
      </trkpt>
      <trkpt lat="45.83204" lon="4.44082">
        <ele>530</ele>
        <time>2025-09-10T08:55:48Z</time>
      </trkpt>
      <trkpt lat="45.83204" lon="4.44083">
        <ele>530</ele>
        <time>2025-09-10T08:55:49Z</time>
      </trkpt>
      <trkpt lat="45.83204" lon="4.44084">
        <ele>530.4</ele>
        <time>2025-09-10T08:55:50Z</time>
      </trkpt>
      <trkpt lat="45.83204" lon="4.44085">
        <ele>530.4</ele>
        <time>2025-09-10T08:55:51Z</time>
      </trkpt>
      <trkpt lat="45.83204" lon="4.44086">
        <ele>530.6</ele>
        <time>2025-09-10T08:55:52Z</time>
      </trkpt>
      <trkpt lat="45.83204" lon="4.44087">
        <ele>530.6</ele>
        <time>2025-09-10T08:55:53Z</time>
      </trkpt>
      <trkpt lat="45.83204" lon="4.44088">
        <ele>530.6</ele>
        <time>2025-09-10T08:55:54Z</time>
      </trkpt>
      <trkpt lat="45.83204" lon="4.44089">
        <ele>530.6</ele>
        <time>2025-09-10T08:55:55Z</time>
      </trkpt>
      <trkpt lat="45.83204" lon="4.4409">
        <ele>531</ele>
        <time>2025-09-10T08:55:56Z</time>
      </trkpt>
      <trkpt lat="45.83204" lon="4.44091">
        <ele>531</ele>
        <time>2025-09-10T08:55:57Z</time>
      </trkpt>
      <trkpt lat="45.83204" lon="4.44092">
        <ele>531.4</ele>
        <time>2025-09-10T08:55:58Z</time>
      </trkpt>
      <trkpt lat="45.83204" lon="4.44093">
        <ele>531.4</ele>
        <time>2025-09-10T08:55:59Z</time>
      </trkpt>
      <trkpt lat="45.83204" lon="4.44094">
        <ele>531.6</ele>
        <time>2025-09-10T08:56:00Z</time>
      </trkpt>
      <trkpt lat="45.83204" lon="4.44095">
        <ele>531.6</ele>
        <time>2025-09-10T08:56:01Z</time>
      </trkpt>
      <trkpt lat="45.83204" lon="4.44096">
        <ele>531.8</ele>
        <time>2025-09-10T08:56:02Z</time>
      </trkpt>
      <trkpt lat="45.83203" lon="4.44098">
        <ele>531.8</ele>
        <time>2025-09-10T08:56:03Z</time>
      </trkpt>
      <trkpt lat="45.83203" lon="4.44099">
        <ele>532.2</ele>
        <time>2025-09-10T08:56:04Z</time>
      </trkpt>
      <trkpt lat="45.83203" lon="4.44101">
        <ele>532.2</ele>
        <time>2025-09-10T08:56:05Z</time>
      </trkpt>
      <trkpt lat="45.83203" lon="4.44102">
        <ele>532.2</ele>
        <time>2025-09-10T08:56:06Z</time>
      </trkpt>
      <trkpt lat="45.83203" lon="4.44103">
        <ele>532.2</ele>
        <time>2025-09-10T08:56:07Z</time>
      </trkpt>
      <trkpt lat="45.83203" lon="4.44104">
        <ele>532.2</ele>
        <time>2025-09-10T08:56:08Z</time>
      </trkpt>
      <trkpt lat="45.83202" lon="4.44105">
        <ele>532.6</ele>
        <time>2025-09-10T08:56:09Z</time>
      </trkpt>
      <trkpt lat="45.83202" lon="4.44105">
        <ele>532.6</ele>
        <time>2025-09-10T08:56:10Z</time>
      </trkpt>
      <trkpt lat="45.83202" lon="4.44105">
        <ele>532.6</ele>
        <time>2025-09-10T08:56:11Z</time>
      </trkpt>
      <trkpt lat="45.83202" lon="4.44105">
        <ele>532.6</ele>
        <time>2025-09-10T08:56:12Z</time>
      </trkpt>
      <trkpt lat="45.83202" lon="4.44105">
        <ele>532.4</ele>
        <time>2025-09-10T08:56:25Z</time>
      </trkpt>
      <trkpt lat="45.83202" lon="4.44106">
        <ele>532.4</ele>
        <time>2025-09-10T08:56:26Z</time>
      </trkpt>
      <trkpt lat="45.83202" lon="4.44107">
        <ele>532.6</ele>
        <time>2025-09-10T08:56:27Z</time>
      </trkpt>
      <trkpt lat="45.83201" lon="4.44109">
        <ele>532.6</ele>
        <time>2025-09-10T08:56:28Z</time>
      </trkpt>
      <trkpt lat="45.83201" lon="4.4411">
        <ele>532.6</ele>
        <time>2025-09-10T08:56:29Z</time>
      </trkpt>
      <trkpt lat="45.83201" lon="4.44111">
        <ele>532.6</ele>
        <time>2025-09-10T08:56:30Z</time>
      </trkpt>
      <trkpt lat="45.83201" lon="4.44113">
        <ele>532.6</ele>
        <time>2025-09-10T08:56:31Z</time>
      </trkpt>
      <trkpt lat="45.83201" lon="4.44114">
        <ele>533</ele>
        <time>2025-09-10T08:56:32Z</time>
      </trkpt>
      <trkpt lat="45.83201" lon="4.44115">
        <ele>533</ele>
        <time>2025-09-10T08:56:33Z</time>
      </trkpt>
      <trkpt lat="45.83202" lon="4.44116">
        <ele>533</ele>
        <time>2025-09-10T08:56:34Z</time>
      </trkpt>
      <trkpt lat="45.83202" lon="4.44116">
        <ele>533</ele>
        <time>2025-09-10T08:56:35Z</time>
      </trkpt>
      <trkpt lat="45.83201" lon="4.44118">
        <ele>533.4</ele>
        <time>2025-09-10T08:56:52Z</time>
      </trkpt>
      <trkpt lat="45.83202" lon="4.44119">
        <ele>533.6</ele>
        <time>2025-09-10T08:56:53Z</time>
      </trkpt>
      <trkpt lat="45.83202" lon="4.4412">
        <ele>533.6</ele>
        <time>2025-09-10T08:56:54Z</time>
      </trkpt>
      <trkpt lat="45.83203" lon="4.44121">
        <ele>533.8</ele>
        <time>2025-09-10T08:56:55Z</time>
      </trkpt>
      <trkpt lat="45.83204" lon="4.44121">
        <ele>533.8</ele>
        <time>2025-09-10T08:56:56Z</time>
      </trkpt>
      <trkpt lat="45.83205" lon="4.44121">
        <ele>534.2</ele>
        <time>2025-09-10T08:56:57Z</time>
      </trkpt>
      <trkpt lat="45.83205" lon="4.44122">
        <ele>534.2</ele>
        <time>2025-09-10T08:56:58Z</time>
      </trkpt>
      <trkpt lat="45.83206" lon="4.44122">
        <ele>534.2</ele>
        <time>2025-09-10T08:56:59Z</time>
      </trkpt>
      <trkpt lat="45.83207" lon="4.44123">
        <ele>534.2</ele>
        <time>2025-09-10T08:57:00Z</time>
      </trkpt>
      <trkpt lat="45.83208" lon="4.44124">
        <ele>534.4</ele>
        <time>2025-09-10T08:57:01Z</time>
      </trkpt>
      <trkpt lat="45.83208" lon="4.44125">
        <ele>534.4</ele>
        <time>2025-09-10T08:57:02Z</time>
      </trkpt>
      <trkpt lat="45.83209" lon="4.44126">
        <ele>534.8</ele>
        <time>2025-09-10T08:57:03Z</time>
      </trkpt>
      <trkpt lat="45.8321" lon="4.44127">
        <ele>534.8</ele>
        <time>2025-09-10T08:57:04Z</time>
      </trkpt>
      <trkpt lat="45.8321" lon="4.44128">
        <ele>535.2</ele>
        <time>2025-09-10T08:57:05Z</time>
      </trkpt>
      <trkpt lat="45.83211" lon="4.44128">
        <ele>535.2</ele>
        <time>2025-09-10T08:57:06Z</time>
      </trkpt>
      <trkpt lat="45.83211" lon="4.44129">
        <ele>535.4</ele>
        <time>2025-09-10T08:57:07Z</time>
      </trkpt>
      <trkpt lat="45.83212" lon="4.4413">
        <ele>535.4</ele>
        <time>2025-09-10T08:57:08Z</time>
      </trkpt>
      <trkpt lat="45.83212" lon="4.44131">
        <ele>535.4</ele>
        <time>2025-09-10T08:57:09Z</time>
      </trkpt>
      <trkpt lat="45.83213" lon="4.44131">
        <ele>535.4</ele>
        <time>2025-09-10T08:57:10Z</time>
      </trkpt>
      <trkpt lat="45.83213" lon="4.44132">
        <ele>535.6</ele>
        <time>2025-09-10T08:57:11Z</time>
      </trkpt>
      <trkpt lat="45.83214" lon="4.44134">
        <ele>535.6</ele>
        <time>2025-09-10T08:57:12Z</time>
      </trkpt>
      <trkpt lat="45.83214" lon="4.44135">
        <ele>535.8</ele>
        <time>2025-09-10T08:57:13Z</time>
      </trkpt>
      <trkpt lat="45.83214" lon="4.44136">
        <ele>535.8</ele>
        <time>2025-09-10T08:57:14Z</time>
      </trkpt>
      <trkpt lat="45.83214" lon="4.44137">
        <ele>535.8</ele>
        <time>2025-09-10T08:57:15Z</time>
      </trkpt>
      <trkpt lat="45.83214" lon="4.44137">
        <ele>536.2</ele>
        <time>2025-09-10T08:57:16Z</time>
      </trkpt>
      <trkpt lat="45.83214" lon="4.44136">
        <ele>536.2</ele>
        <time>2025-09-10T08:57:17Z</time>
      </trkpt>
      <trkpt lat="45.83214" lon="4.44135">
        <ele>537</ele>
        <time>2025-09-10T08:59:58Z</time>
      </trkpt>
      <trkpt lat="45.83214" lon="4.44137">
        <ele>537</ele>
        <time>2025-09-10T08:59:59Z</time>
      </trkpt>
      <trkpt lat="45.83214" lon="4.44138">
        <ele>537</ele>
        <time>2025-09-10T09:00:00Z</time>
      </trkpt>
      <trkpt lat="45.83214" lon="4.4414">
        <ele>537</ele>
        <time>2025-09-10T09:00:01Z</time>
      </trkpt>
      <trkpt lat="45.83214" lon="4.44141">
        <ele>537</ele>
        <time>2025-09-10T09:00:02Z</time>
      </trkpt>
      <trkpt lat="45.83214" lon="4.44143">
        <ele>537</ele>
        <time>2025-09-10T09:00:03Z</time>
      </trkpt>
      <trkpt lat="45.83214" lon="4.44144">
        <ele>537</ele>
        <time>2025-09-10T09:00:04Z</time>
      </trkpt>
      <trkpt lat="45.83214" lon="4.44145">
        <ele>537.2</ele>
        <time>2025-09-10T09:00:05Z</time>
      </trkpt>
      <trkpt lat="45.83214" lon="4.44147">
        <ele>537.4</ele>
        <time>2025-09-10T09:00:06Z</time>
      </trkpt>
      <trkpt lat="45.83214" lon="4.44148">
        <ele>537.4</ele>
        <time>2025-09-10T09:00:07Z</time>
      </trkpt>
      <trkpt lat="45.83214" lon="4.44149">
        <ele>537.8</ele>
        <time>2025-09-10T09:00:08Z</time>
      </trkpt>
      <trkpt lat="45.83214" lon="4.44151">
        <ele>537.8</ele>
        <time>2025-09-10T09:00:09Z</time>
      </trkpt>
      <trkpt lat="45.83214" lon="4.44152">
        <ele>538.2</ele>
        <time>2025-09-10T09:00:10Z</time>
      </trkpt>
      <trkpt lat="45.83214" lon="4.44154">
        <ele>538.2</ele>
        <time>2025-09-10T09:00:11Z</time>
      </trkpt>
      <trkpt lat="45.83214" lon="4.44155">
        <ele>538.6</ele>
        <time>2025-09-10T09:00:12Z</time>
      </trkpt>
      <trkpt lat="45.83214" lon="4.44156">
        <ele>538.8</ele>
        <time>2025-09-10T09:00:13Z</time>
      </trkpt>
      <trkpt lat="45.83215" lon="4.44157">
        <ele>538.8</ele>
        <time>2025-09-10T09:00:14Z</time>
      </trkpt>
      <trkpt lat="45.83215" lon="4.44158">
        <ele>539</ele>
        <time>2025-09-10T09:00:15Z</time>
      </trkpt>
      <trkpt lat="45.83215" lon="4.44159">
        <ele>539</ele>
        <time>2025-09-10T09:00:16Z</time>
      </trkpt>
      <trkpt lat="45.83215" lon="4.4416">
        <ele>539</ele>
        <time>2025-09-10T09:00:17Z</time>
      </trkpt>
      <trkpt lat="45.83215" lon="4.44162">
        <ele>539</ele>
        <time>2025-09-10T09:00:18Z</time>
      </trkpt>
      <trkpt lat="45.83215" lon="4.44163">
        <ele>539</ele>
        <time>2025-09-10T09:00:19Z</time>
      </trkpt>
      <trkpt lat="45.83215" lon="4.44165">
        <ele>539.2</ele>
        <time>2025-09-10T09:00:20Z</time>
      </trkpt>
      <trkpt lat="45.83216" lon="4.44166">
        <ele>539.2</ele>
        <time>2025-09-10T09:00:21Z</time>
      </trkpt>
      <trkpt lat="45.83216" lon="4.44167">
        <ele>539.2</ele>
        <time>2025-09-10T09:00:22Z</time>
      </trkpt>
      <trkpt lat="45.83216" lon="4.44168">
        <ele>539.6</ele>
        <time>2025-09-10T09:00:23Z</time>
      </trkpt>
      <trkpt lat="45.83216" lon="4.44169">
        <ele>539.6</ele>
        <time>2025-09-10T09:00:24Z</time>
      </trkpt>
      <trkpt lat="45.83216" lon="4.44171">
        <ele>540</ele>
        <time>2025-09-10T09:00:25Z</time>
      </trkpt>
      <trkpt lat="45.83216" lon="4.44172">
        <ele>540</ele>
        <time>2025-09-10T09:00:26Z</time>
      </trkpt>
      <trkpt lat="45.83216" lon="4.44173">
        <ele>540.2</ele>
        <time>2025-09-10T09:00:27Z</time>
      </trkpt>
      <trkpt lat="45.83216" lon="4.44174">
        <ele>540.2</ele>
        <time>2025-09-10T09:00:28Z</time>
      </trkpt>
      <trkpt lat="45.83216" lon="4.44175">
        <ele>540.6</ele>
        <time>2025-09-10T09:00:29Z</time>
      </trkpt>
      <trkpt lat="45.83216" lon="4.44176">
        <ele>540.8</ele>
        <time>2025-09-10T09:00:30Z</time>
      </trkpt>
      <trkpt lat="45.83216" lon="4.44177">
        <ele>541</ele>
        <time>2025-09-10T09:00:31Z</time>
      </trkpt>
      <trkpt lat="45.83216" lon="4.44177">
        <ele>541.2</ele>
        <time>2025-09-10T09:00:32Z</time>
      </trkpt>
      <trkpt lat="45.83215" lon="4.44178">
        <ele>541.2</ele>
        <time>2025-09-10T09:00:33Z</time>
      </trkpt>
      <trkpt lat="45.83215" lon="4.44179">
        <ele>541.4</ele>
        <time>2025-09-10T09:00:34Z</time>
      </trkpt>
      <trkpt lat="45.83215" lon="4.4418">
        <ele>541.4</ele>
        <time>2025-09-10T09:00:35Z</time>
      </trkpt>
      <trkpt lat="45.83215" lon="4.44181">
        <ele>541.8</ele>
        <time>2025-09-10T09:00:36Z</time>
      </trkpt>
      <trkpt lat="45.83215" lon="4.44182">
        <ele>541.8</ele>
        <time>2025-09-10T09:00:37Z</time>
      </trkpt>
      <trkpt lat="45.83214" lon="4.44183">
        <ele>542.2</ele>
        <time>2025-09-10T09:00:38Z</time>
      </trkpt>
      <trkpt lat="45.83214" lon="4.44184">
        <ele>542.2</ele>
        <time>2025-09-10T09:00:39Z</time>
      </trkpt>
      <trkpt lat="45.83214" lon="4.44185">
        <ele>542.2</ele>
        <time>2025-09-10T09:00:40Z</time>
      </trkpt>
      <trkpt lat="45.83214" lon="4.44186">
        <ele>542.4</ele>
        <time>2025-09-10T09:00:41Z</time>
      </trkpt>
      <trkpt lat="45.83214" lon="4.44186">
        <ele>542.4</ele>
        <time>2025-09-10T09:00:42Z</time>
      </trkpt>
      <trkpt lat="45.83213" lon="4.44187">
        <ele>542.8</ele>
        <time>2025-09-10T09:00:53Z</time>
      </trkpt>
      <trkpt lat="45.83213" lon="4.44188">
        <ele>542.8</ele>
        <time>2025-09-10T09:00:54Z</time>
      </trkpt>
      <trkpt lat="45.83213" lon="4.44189">
        <ele>542.8</ele>
        <time>2025-09-10T09:00:55Z</time>
      </trkpt>
      <trkpt lat="45.83213" lon="4.4419">
        <ele>542.8</ele>
        <time>2025-09-10T09:00:56Z</time>
      </trkpt>
      <trkpt lat="45.83213" lon="4.44191">
        <ele>543</ele>
        <time>2025-09-10T09:00:57Z</time>
      </trkpt>
      <trkpt lat="45.83212" lon="4.44192">
        <ele>543</ele>
        <time>2025-09-10T09:00:58Z</time>
      </trkpt>
      <trkpt lat="45.83212" lon="4.44193">
        <ele>543</ele>
        <time>2025-09-10T09:00:59Z</time>
      </trkpt>
      <trkpt lat="45.83212" lon="4.44194">
        <ele>543</ele>
        <time>2025-09-10T09:01:00Z</time>
      </trkpt>
      <trkpt lat="45.83212" lon="4.44196">
        <ele>543</ele>
        <time>2025-09-10T09:01:01Z</time>
      </trkpt>
      <trkpt lat="45.83212" lon="4.44198">
        <ele>543.4</ele>
        <time>2025-09-10T09:01:02Z</time>
      </trkpt>
      <trkpt lat="45.83212" lon="4.44198">
        <ele>543.4</ele>
        <time>2025-09-10T09:01:03Z</time>
      </trkpt>
      <trkpt lat="45.83212" lon="4.44199">
        <ele>543.4</ele>
        <time>2025-09-10T09:01:04Z</time>
      </trkpt>
      <trkpt lat="45.83212" lon="4.442">
        <ele>543.6</ele>
        <time>2025-09-10T09:01:05Z</time>
      </trkpt>
      <trkpt lat="45.83212" lon="4.44201">
        <ele>543.6</ele>
        <time>2025-09-10T09:01:06Z</time>
      </trkpt>
      <trkpt lat="45.83212" lon="4.44201">
        <ele>543.8</ele>
        <time>2025-09-10T09:01:07Z</time>
      </trkpt>
      <trkpt lat="45.83211" lon="4.44203">
        <ele>544.4</ele>
        <time>2025-09-10T09:01:27Z</time>
      </trkpt>
      <trkpt lat="45.83211" lon="4.44204">
        <ele>544.4</ele>
        <time>2025-09-10T09:01:28Z</time>
      </trkpt>
      <trkpt lat="45.83211" lon="4.44205">
        <ele>544.4</ele>
        <time>2025-09-10T09:01:29Z</time>
      </trkpt>
      <trkpt lat="45.83211" lon="4.44206">
        <ele>544.4</ele>
        <time>2025-09-10T09:01:30Z</time>
      </trkpt>
      <trkpt lat="45.83211" lon="4.44207">
        <ele>544.6</ele>
        <time>2025-09-10T09:01:31Z</time>
      </trkpt>
      <trkpt lat="45.83211" lon="4.44208">
        <ele>544.6</ele>
        <time>2025-09-10T09:01:32Z</time>
      </trkpt>
      <trkpt lat="45.83211" lon="4.4421">
        <ele>545</ele>
        <time>2025-09-10T09:01:33Z</time>
      </trkpt>
      <trkpt lat="45.83211" lon="4.44211">
        <ele>545</ele>
        <time>2025-09-10T09:01:34Z</time>
      </trkpt>
      <trkpt lat="45.83211" lon="4.44212">
        <ele>545</ele>
        <time>2025-09-10T09:01:35Z</time>
      </trkpt>
      <trkpt lat="45.8321" lon="4.44213">
        <ele>545.4</ele>
        <time>2025-09-10T09:01:36Z</time>
      </trkpt>
      <trkpt lat="45.8321" lon="4.44214">
        <ele>545.4</ele>
        <time>2025-09-10T09:01:37Z</time>
      </trkpt>
      <trkpt lat="45.8321" lon="4.44215">
        <ele>545.4</ele>
        <time>2025-09-10T09:01:38Z</time>
      </trkpt>
      <trkpt lat="45.8321" lon="4.44217">
        <ele>545.6</ele>
        <time>2025-09-10T09:01:39Z</time>
      </trkpt>
      <trkpt lat="45.8321" lon="4.44218">
        <ele>545.6</ele>
        <time>2025-09-10T09:01:40Z</time>
      </trkpt>
      <trkpt lat="45.8321" lon="4.44219">
        <ele>546.2</ele>
        <time>2025-09-10T09:01:41Z</time>
      </trkpt>
      <trkpt lat="45.8321" lon="4.4422">
        <ele>546.4</ele>
        <time>2025-09-10T09:01:42Z</time>
      </trkpt>
      <trkpt lat="45.8321" lon="4.44221">
        <ele>546.6</ele>
        <time>2025-09-10T09:01:43Z</time>
      </trkpt>
      <trkpt lat="45.8321" lon="4.44222">
        <ele>546.6</ele>
        <time>2025-09-10T09:01:44Z</time>
      </trkpt>
      <trkpt lat="45.83209" lon="4.44223">
        <ele>546.8</ele>
        <time>2025-09-10T09:01:45Z</time>
      </trkpt>
      <trkpt lat="45.83209" lon="4.44224">
        <ele>546.8</ele>
        <time>2025-09-10T09:01:46Z</time>
      </trkpt>
      <trkpt lat="45.83209" lon="4.44225">
        <ele>547.2</ele>
        <time>2025-09-10T09:01:47Z</time>
      </trkpt>
      <trkpt lat="45.83209" lon="4.44226">
        <ele>547.2</ele>
        <time>2025-09-10T09:01:48Z</time>
      </trkpt>
      <trkpt lat="45.83209" lon="4.44227">
        <ele>547.2</ele>
        <time>2025-09-10T09:01:49Z</time>
      </trkpt>
      <trkpt lat="45.83208" lon="4.44228">
        <ele>547.6</ele>
        <time>2025-09-10T09:01:50Z</time>
      </trkpt>
      <trkpt lat="45.83208" lon="4.44229">
        <ele>547.6</ele>
        <time>2025-09-10T09:01:51Z</time>
      </trkpt>
      <trkpt lat="45.83208" lon="4.4423">
        <ele>547.8</ele>
        <time>2025-09-10T09:01:52Z</time>
      </trkpt>
      <trkpt lat="45.83208" lon="4.4423">
        <ele>547.8</ele>
        <time>2025-09-10T09:01:53Z</time>
      </trkpt>
      <trkpt lat="45.83207" lon="4.44231">
        <ele>547.8</ele>
        <time>2025-09-10T09:01:54Z</time>
      </trkpt>
      <trkpt lat="45.83207" lon="4.44232">
        <ele>548</ele>
        <time>2025-09-10T09:01:55Z</time>
      </trkpt>
      <trkpt lat="45.83207" lon="4.44232">
        <ele>548</ele>
        <time>2025-09-10T09:01:56Z</time>
      </trkpt>
      <trkpt lat="45.83207" lon="4.44233">
        <ele>548.4</ele>
        <time>2025-09-10T09:01:57Z</time>
      </trkpt>
      <trkpt lat="45.83207" lon="4.44234">
        <ele>548.4</ele>
        <time>2025-09-10T09:01:58Z</time>
      </trkpt>
      <trkpt lat="45.83206" lon="4.44235">
        <ele>548.8</ele>
        <time>2025-09-10T09:01:59Z</time>
      </trkpt>
      <trkpt lat="45.83206" lon="4.44236">
        <ele>548.8</ele>
        <time>2025-09-10T09:02:00Z</time>
      </trkpt>
      <trkpt lat="45.83206" lon="4.44236">
        <ele>548.8</ele>
        <time>2025-09-10T09:02:01Z</time>
      </trkpt>
      <trkpt lat="45.83206" lon="4.44237">
        <ele>548.8</ele>
        <time>2025-09-10T09:02:02Z</time>
      </trkpt>
      <trkpt lat="45.83206" lon="4.44238">
        <ele>549</ele>
        <time>2025-09-10T09:02:03Z</time>
      </trkpt>
      <trkpt lat="45.83205" lon="4.44239">
        <ele>549</ele>
        <time>2025-09-10T09:02:04Z</time>
      </trkpt>
      <trkpt lat="45.83205" lon="4.44239">
        <ele>549</ele>
        <time>2025-09-10T09:02:05Z</time>
      </trkpt>
      <trkpt lat="45.83205" lon="4.4424">
        <ele>549.4</ele>
        <time>2025-09-10T09:02:06Z</time>
      </trkpt>
      <trkpt lat="45.83204" lon="4.4424">
        <ele>549.4</ele>
        <time>2025-09-10T09:02:07Z</time>
      </trkpt>
      <trkpt lat="45.83204" lon="4.44241">
        <ele>549.6</ele>
        <time>2025-09-10T09:02:08Z</time>
      </trkpt>
      <trkpt lat="45.83204" lon="4.44241">
        <ele>549.6</ele>
        <time>2025-09-10T09:02:09Z</time>
      </trkpt>
      <trkpt lat="45.83203" lon="4.44242">
        <ele>550.2</ele>
        <time>2025-09-10T09:02:28Z</time>
      </trkpt>
      <trkpt lat="45.83203" lon="4.44242">
        <ele>550.2</ele>
        <time>2025-09-10T09:02:29Z</time>
      </trkpt>
      <trkpt lat="45.83203" lon="4.44243">
        <ele>550.6</ele>
        <time>2025-09-10T09:02:30Z</time>
      </trkpt>
      <trkpt lat="45.83203" lon="4.44244">
        <ele>550.6</ele>
        <time>2025-09-10T09:02:31Z</time>
      </trkpt>
      <trkpt lat="45.83203" lon="4.44244">
        <ele>550.6</ele>
        <time>2025-09-10T09:02:32Z</time>
      </trkpt>
      <trkpt lat="45.83203" lon="4.44245">
        <ele>550.6</ele>
        <time>2025-09-10T09:02:33Z</time>
      </trkpt>
      <trkpt lat="45.83203" lon="4.44246">
        <ele>550.8</ele>
        <time>2025-09-10T09:02:34Z</time>
      </trkpt>
      <trkpt lat="45.83203" lon="4.44247">
        <ele>550.8</ele>
        <time>2025-09-10T09:02:35Z</time>
      </trkpt>
      <trkpt lat="45.83203" lon="4.44248">
        <ele>550.8</ele>
        <time>2025-09-10T09:02:36Z</time>
      </trkpt>
      <trkpt lat="45.83203" lon="4.44248">
        <ele>550.8</ele>
        <time>2025-09-10T09:02:37Z</time>
      </trkpt>
      <trkpt lat="45.83202" lon="4.44248">
        <ele>551.2</ele>
        <time>2025-09-10T09:02:38Z</time>
      </trkpt>
      <trkpt lat="45.83202" lon="4.44249">
        <ele>551.2</ele>
        <time>2025-09-10T09:02:39Z</time>
      </trkpt>
      <trkpt lat="45.83202" lon="4.4425">
        <ele>551.4</ele>
        <time>2025-09-10T09:02:40Z</time>
      </trkpt>
      <trkpt lat="45.83202" lon="4.4425">
        <ele>551.4</ele>
        <time>2025-09-10T09:02:41Z</time>
      </trkpt>
      <trkpt lat="45.83201" lon="4.44251">
        <ele>551.4</ele>
        <time>2025-09-10T09:02:42Z</time>
      </trkpt>
      <trkpt lat="45.83201" lon="4.44251">
        <ele>551.8</ele>
        <time>2025-09-10T09:02:43Z</time>
      </trkpt>
      <trkpt lat="45.83201" lon="4.44252">
        <ele>552</ele>
        <time>2025-09-10T09:02:46Z</time>
      </trkpt>
      <trkpt lat="45.83201" lon="4.44253">
        <ele>552</ele>
        <time>2025-09-10T09:02:47Z</time>
      </trkpt>
      <trkpt lat="45.832" lon="4.44254">
        <ele>552</ele>
        <time>2025-09-10T09:02:48Z</time>
      </trkpt>
      <trkpt lat="45.832" lon="4.44254">
        <ele>552.2</ele>
        <time>2025-09-10T09:02:49Z</time>
      </trkpt>
      <trkpt lat="45.832" lon="4.44255">
        <ele>552.2</ele>
        <time>2025-09-10T09:02:50Z</time>
      </trkpt>
      <trkpt lat="45.83199" lon="4.44256">
        <ele>552.6</ele>
        <time>2025-09-10T09:02:51Z</time>
      </trkpt>
      <trkpt lat="45.83199" lon="4.44256">
        <ele>552.6</ele>
        <time>2025-09-10T09:02:52Z</time>
      </trkpt>
      <trkpt lat="45.83197" lon="4.44258">
        <ele>552.8</ele>
        <time>2025-09-10T09:02:53Z</time>
      </trkpt>
      <trkpt lat="45.83196" lon="4.44259">
        <ele>552.8</ele>
        <time>2025-09-10T09:02:54Z</time>
      </trkpt>
      <trkpt lat="45.83196" lon="4.4426">
        <ele>553.2</ele>
        <time>2025-09-10T09:02:55Z</time>
      </trkpt>
      <trkpt lat="45.83196" lon="4.44261">
        <ele>553.4</ele>
        <time>2025-09-10T09:02:56Z</time>
      </trkpt>
      <trkpt lat="45.83195" lon="4.44262">
        <ele>553.4</ele>
        <time>2025-09-10T09:02:57Z</time>
      </trkpt>
      <trkpt lat="45.83195" lon="4.44263">
        <ele>553.6</ele>
        <time>2025-09-10T09:02:58Z</time>
      </trkpt>
      <trkpt lat="45.83194" lon="4.44263">
        <ele>553.6</ele>
        <time>2025-09-10T09:02:59Z</time>
      </trkpt>
      <trkpt lat="45.83194" lon="4.44264">
        <ele>554</ele>
        <time>2025-09-10T09:03:00Z</time>
      </trkpt>
      <trkpt lat="45.83194" lon="4.44265">
        <ele>554.2</ele>
        <time>2025-09-10T09:03:01Z</time>
      </trkpt>
      <trkpt lat="45.83193" lon="4.44264">
        <ele>554.6</ele>
        <time>2025-09-10T09:03:02Z</time>
      </trkpt>
      <trkpt lat="45.83194" lon="4.44264">
        <ele>554.6</ele>
        <time>2025-09-10T09:03:03Z</time>
      </trkpt>
      <trkpt lat="45.83192" lon="4.44265">
        <ele>555.2</ele>
        <time>2025-09-10T09:03:12Z</time>
      </trkpt>
      <trkpt lat="45.83192" lon="4.44265">
        <ele>555.2</ele>
        <time>2025-09-10T09:03:13Z</time>
      </trkpt>
      <trkpt lat="45.83192" lon="4.44266">
        <ele>555.2</ele>
        <time>2025-09-10T09:03:14Z</time>
      </trkpt>
      <trkpt lat="45.83192" lon="4.44266">
        <ele>555.6</ele>
        <time>2025-09-10T09:03:15Z</time>
      </trkpt>
      <trkpt lat="45.83192" lon="4.44267">
        <ele>555.6</ele>
        <time>2025-09-10T09:03:16Z</time>
      </trkpt>
      <trkpt lat="45.83192" lon="4.44267">
        <ele>555.6</ele>
        <time>2025-09-10T09:03:17Z</time>
      </trkpt>
      <trkpt lat="45.83192" lon="4.44268">
        <ele>555.8</ele>
        <time>2025-09-10T09:03:18Z</time>
      </trkpt>
      <trkpt lat="45.83192" lon="4.44267">
        <ele>555.8</ele>
        <time>2025-09-10T09:03:19Z</time>
      </trkpt>
      <trkpt lat="45.83191" lon="4.44268">
        <ele>555.8</ele>
        <time>2025-09-10T09:03:20Z</time>
      </trkpt>
      <trkpt lat="45.83191" lon="4.4427">
        <ele>555.8</ele>
        <time>2025-09-10T09:03:21Z</time>
      </trkpt>
      <trkpt lat="45.83191" lon="4.4427">
        <ele>555.8</ele>
        <time>2025-09-10T09:03:22Z</time>
      </trkpt>
      <trkpt lat="45.8319" lon="4.4427">
        <ele>556</ele>
        <time>2025-09-10T09:03:23Z</time>
      </trkpt>
      <trkpt lat="45.8319" lon="4.44271">
        <ele>556</ele>
        <time>2025-09-10T09:03:24Z</time>
      </trkpt>
      <trkpt lat="45.8319" lon="4.44272">
        <ele>556.4</ele>
        <time>2025-09-10T09:03:25Z</time>
      </trkpt>
      <trkpt lat="45.8319" lon="4.44272">
        <ele>556.4</ele>
        <time>2025-09-10T09:03:26Z</time>
      </trkpt>
      <trkpt lat="45.8319" lon="4.44273">
        <ele>556.4</ele>
        <time>2025-09-10T09:03:27Z</time>
      </trkpt>
      <trkpt lat="45.8319" lon="4.44273">
        <ele>556.8</ele>
        <time>2025-09-10T09:03:28Z</time>
      </trkpt>
      <trkpt lat="45.8319" lon="4.44274">
        <ele>556.8</ele>
        <time>2025-09-10T09:03:29Z</time>
      </trkpt>
      <trkpt lat="45.8319" lon="4.44274">
        <ele>556.8</ele>
        <time>2025-09-10T09:03:30Z</time>
      </trkpt>
      <trkpt lat="45.83189" lon="4.44275">
        <ele>556.8</ele>
        <time>2025-09-10T09:03:31Z</time>
      </trkpt>
      <trkpt lat="45.83189" lon="4.44275">
        <ele>557</ele>
        <time>2025-09-10T09:03:32Z</time>
      </trkpt>
      <trkpt lat="45.83189" lon="4.44276">
        <ele>557</ele>
        <time>2025-09-10T09:03:33Z</time>
      </trkpt>
      <trkpt lat="45.83189" lon="4.44276">
        <ele>557</ele>
        <time>2025-09-10T09:03:34Z</time>
      </trkpt>
      <trkpt lat="45.83188" lon="4.44277">
        <ele>557.8</ele>
        <time>2025-09-10T09:03:57Z</time>
      </trkpt>
      <trkpt lat="45.83188" lon="4.44278">
        <ele>557.8</ele>
        <time>2025-09-10T09:03:58Z</time>
      </trkpt>
      <trkpt lat="45.83187" lon="4.44279">
        <ele>558</ele>
        <time>2025-09-10T09:03:59Z</time>
      </trkpt>
      <trkpt lat="45.83187" lon="4.4428">
        <ele>558</ele>
        <time>2025-09-10T09:04:00Z</time>
      </trkpt>
      <trkpt lat="45.83187" lon="4.44281">
        <ele>558.4</ele>
        <time>2025-09-10T09:04:01Z</time>
      </trkpt>
      <trkpt lat="45.83186" lon="4.44282">
        <ele>558.4</ele>
        <time>2025-09-10T09:04:02Z</time>
      </trkpt>
      <trkpt lat="45.83186" lon="4.44283">
        <ele>558.4</ele>
        <time>2025-09-10T09:04:03Z</time>
      </trkpt>
      <trkpt lat="45.83185" lon="4.44283">
        <ele>558.8</ele>
        <time>2025-09-10T09:04:04Z</time>
      </trkpt>
      <trkpt lat="45.83185" lon="4.44284">
        <ele>558.8</ele>
        <time>2025-09-10T09:04:05Z</time>
      </trkpt>
      <trkpt lat="45.83185" lon="4.44284">
        <ele>558.8</ele>
        <time>2025-09-10T09:04:06Z</time>
      </trkpt>
      <trkpt lat="45.83184" lon="4.44284">
        <ele>559</ele>
        <time>2025-09-10T09:04:16Z</time>
      </trkpt>
      <trkpt lat="45.83184" lon="4.44285">
        <ele>559</ele>
        <time>2025-09-10T09:04:17Z</time>
      </trkpt>
      <trkpt lat="45.83183" lon="4.44286">
        <ele>559.4</ele>
        <time>2025-09-10T09:04:18Z</time>
      </trkpt>
      <trkpt lat="45.83183" lon="4.44287">
        <ele>559.6</ele>
        <time>2025-09-10T09:04:19Z</time>
      </trkpt>
      <trkpt lat="45.83183" lon="4.44288">
        <ele>559.6</ele>
        <time>2025-09-10T09:04:20Z</time>
      </trkpt>
      <trkpt lat="45.83183" lon="4.44289">
        <ele>559.6</ele>
        <time>2025-09-10T09:04:21Z</time>
      </trkpt>
      <trkpt lat="45.83183" lon="4.4429">
        <ele>560</ele>
        <time>2025-09-10T09:04:22Z</time>
      </trkpt>
      <trkpt lat="45.83182" lon="4.44291">
        <ele>560.2</ele>
        <time>2025-09-10T09:04:23Z</time>
      </trkpt>
      <trkpt lat="45.83182" lon="4.44292">
        <ele>560.2</ele>
        <time>2025-09-10T09:04:24Z</time>
      </trkpt>
      <trkpt lat="45.83181" lon="4.44292">
        <ele>560.4</ele>
        <time>2025-09-10T09:04:25Z</time>
      </trkpt>
      <trkpt lat="45.83181" lon="4.44293">
        <ele>560.4</ele>
        <time>2025-09-10T09:04:26Z</time>
      </trkpt>
      <trkpt lat="45.83181" lon="4.44294">
        <ele>560.6</ele>
        <time>2025-09-10T09:04:27Z</time>
      </trkpt>
      <trkpt lat="45.83181" lon="4.44295">
        <ele>560.6</ele>
        <time>2025-09-10T09:04:28Z</time>
      </trkpt>
      <trkpt lat="45.83181" lon="4.44295">
        <ele>560.6</ele>
        <time>2025-09-10T09:04:29Z</time>
      </trkpt>
      <trkpt lat="45.8318" lon="4.44296">
        <ele>561.2</ele>
        <time>2025-09-10T09:04:30Z</time>
      </trkpt>
      <trkpt lat="45.8318" lon="4.44296">
        <ele>561.2</ele>
        <time>2025-09-10T09:04:31Z</time>
      </trkpt>
      <trkpt lat="45.8318" lon="4.44297">
        <ele>561.6</ele>
        <time>2025-09-10T09:04:32Z</time>
      </trkpt>
      <trkpt lat="45.8318" lon="4.44297">
        <ele>561.8</ele>
        <time>2025-09-10T09:04:33Z</time>
      </trkpt>
      <trkpt lat="45.83179" lon="4.44298">
        <ele>561.8</ele>
        <time>2025-09-10T09:04:34Z</time>
      </trkpt>
      <trkpt lat="45.83179" lon="4.44298">
        <ele>562.2</ele>
        <time>2025-09-10T09:04:35Z</time>
      </trkpt>
      <trkpt lat="45.83179" lon="4.44299">
        <ele>562.2</ele>
        <time>2025-09-10T09:04:36Z</time>
      </trkpt>
      <trkpt lat="45.83178" lon="4.44299">
        <ele>562.4</ele>
        <time>2025-09-10T09:04:37Z</time>
      </trkpt>
      <trkpt lat="45.83178" lon="4.443">
        <ele>562.4</ele>
        <time>2025-09-10T09:04:38Z</time>
      </trkpt>
      <trkpt lat="45.83178" lon="4.443">
        <ele>562.8</ele>
        <time>2025-09-10T09:04:39Z</time>
      </trkpt>
      <trkpt lat="45.83177" lon="4.44301">
        <ele>562.8</ele>
        <time>2025-09-10T09:04:40Z</time>
      </trkpt>
      <trkpt lat="45.83176" lon="4.44301">
        <ele>563</ele>
        <time>2025-09-10T09:04:41Z</time>
      </trkpt>
      <trkpt lat="45.83176" lon="4.44302">
        <ele>563</ele>
        <time>2025-09-10T09:04:42Z</time>
      </trkpt>
      <trkpt lat="45.83176" lon="4.44302">
        <ele>563.2</ele>
        <time>2025-09-10T09:04:43Z</time>
      </trkpt>
      <trkpt lat="45.83175" lon="4.44302">
        <ele>563.2</ele>
        <time>2025-09-10T09:04:44Z</time>
      </trkpt>
      <trkpt lat="45.83175" lon="4.44303">
        <ele>563.4</ele>
        <time>2025-09-10T09:04:45Z</time>
      </trkpt>
      <trkpt lat="45.83174" lon="4.44304">
        <ele>563.4</ele>
        <time>2025-09-10T09:04:46Z</time>
      </trkpt>
      <trkpt lat="45.83174" lon="4.44304">
        <ele>563.4</ele>
        <time>2025-09-10T09:04:47Z</time>
      </trkpt>
      <trkpt lat="45.83174" lon="4.44305">
        <ele>563.8</ele>
        <time>2025-09-10T09:04:48Z</time>
      </trkpt>
      <trkpt lat="45.83173" lon="4.44306">
        <ele>563.8</ele>
        <time>2025-09-10T09:04:49Z</time>
      </trkpt>
      <trkpt lat="45.83173" lon="4.44306">
        <ele>564</ele>
        <time>2025-09-10T09:04:50Z</time>
      </trkpt>
      <trkpt lat="45.83172" lon="4.44306">
        <ele>564</ele>
        <time>2025-09-10T09:04:51Z</time>
      </trkpt>
      <trkpt lat="45.83172" lon="4.44307">
        <ele>564</ele>
        <time>2025-09-10T09:04:52Z</time>
      </trkpt>
      <trkpt lat="45.83171" lon="4.44308">
        <ele>564.4</ele>
        <time>2025-09-10T09:04:53Z</time>
      </trkpt>
      <trkpt lat="45.8317" lon="4.44308">
        <ele>564.4</ele>
        <time>2025-09-10T09:04:54Z</time>
      </trkpt>
      <trkpt lat="45.8317" lon="4.44309">
        <ele>564.4</ele>
        <time>2025-09-10T09:04:55Z</time>
      </trkpt>
      <trkpt lat="45.83169" lon="4.4431">
        <ele>564.6</ele>
        <time>2025-09-10T09:04:56Z</time>
      </trkpt>
      <trkpt lat="45.83168" lon="4.44311">
        <ele>564.6</ele>
        <time>2025-09-10T09:04:57Z</time>
      </trkpt>
      <trkpt lat="45.83168" lon="4.44312">
        <ele>565</ele>
        <time>2025-09-10T09:04:58Z</time>
      </trkpt>
      <trkpt lat="45.83167" lon="4.44313">
        <ele>565</ele>
        <time>2025-09-10T09:04:59Z</time>
      </trkpt>
      <trkpt lat="45.83166" lon="4.44313">
        <ele>565</ele>
        <time>2025-09-10T09:05:00Z</time>
      </trkpt>
      <trkpt lat="45.83166" lon="4.44314">
        <ele>565.2</ele>
        <time>2025-09-10T09:05:01Z</time>
      </trkpt>
      <trkpt lat="45.83165" lon="4.44314">
        <ele>565.2</ele>
        <time>2025-09-10T09:05:02Z</time>
      </trkpt>
      <trkpt lat="45.83164" lon="4.44315">
        <ele>565.2</ele>
        <time>2025-09-10T09:05:03Z</time>
      </trkpt>
      <trkpt lat="45.83164" lon="4.44316">
        <ele>565.2</ele>
        <time>2025-09-10T09:05:04Z</time>
      </trkpt>
      <trkpt lat="45.83163" lon="4.44316">
        <ele>565.2</ele>
        <time>2025-09-10T09:05:05Z</time>
      </trkpt>
      <trkpt lat="45.83162" lon="4.44317">
        <ele>565.2</ele>
        <time>2025-09-10T09:05:06Z</time>
      </trkpt>
      <trkpt lat="45.83161" lon="4.44317">
        <ele>565.6</ele>
        <time>2025-09-10T09:05:07Z</time>
      </trkpt>
      <trkpt lat="45.8316" lon="4.44318">
        <ele>565.6</ele>
        <time>2025-09-10T09:05:08Z</time>
      </trkpt>
      <trkpt lat="45.83159" lon="4.44319">
        <ele>565.6</ele>
        <time>2025-09-10T09:05:09Z</time>
      </trkpt>
      <trkpt lat="45.83159" lon="4.4432">
        <ele>565.6</ele>
        <time>2025-09-10T09:05:10Z</time>
      </trkpt>
      <trkpt lat="45.83158" lon="4.44321">
        <ele>565.6</ele>
        <time>2025-09-10T09:05:11Z</time>
      </trkpt>
      <trkpt lat="45.83158" lon="4.44322">
        <ele>565.8</ele>
        <time>2025-09-10T09:05:12Z</time>
      </trkpt>
      <trkpt lat="45.83157" lon="4.44323">
        <ele>566</ele>
        <time>2025-09-10T09:05:13Z</time>
      </trkpt>
      <trkpt lat="45.83157" lon="4.44324">
        <ele>566</ele>
        <time>2025-09-10T09:05:14Z</time>
      </trkpt>
      <trkpt lat="45.83157" lon="4.44325">
        <ele>566.4</ele>
        <time>2025-09-10T09:05:15Z</time>
      </trkpt>
      <trkpt lat="45.83156" lon="4.44326">
        <ele>566.4</ele>
        <time>2025-09-10T09:05:16Z</time>
      </trkpt>
      <trkpt lat="45.83156" lon="4.44327">
        <ele>566.6</ele>
        <time>2025-09-10T09:05:17Z</time>
      </trkpt>
      <trkpt lat="45.83156" lon="4.44328">
        <ele>566.6</ele>
        <time>2025-09-10T09:05:18Z</time>
      </trkpt>
      <trkpt lat="45.83155" lon="4.44329">
        <ele>566.6</ele>
        <time>2025-09-10T09:05:19Z</time>
      </trkpt>
      <trkpt lat="45.83154" lon="4.4433">
        <ele>566.8</ele>
        <time>2025-09-10T09:05:20Z</time>
      </trkpt>
      <trkpt lat="45.83154" lon="4.44331">
        <ele>566.8</ele>
        <time>2025-09-10T09:05:21Z</time>
      </trkpt>
      <trkpt lat="45.83153" lon="4.44332">
        <ele>566.8</ele>
        <time>2025-09-10T09:05:22Z</time>
      </trkpt>
      <trkpt lat="45.83153" lon="4.44333">
        <ele>566.8</ele>
        <time>2025-09-10T09:05:23Z</time>
      </trkpt>
      <trkpt lat="45.83153" lon="4.44333">
        <ele>567</ele>
        <time>2025-09-10T09:05:24Z</time>
      </trkpt>
      <trkpt lat="45.83153" lon="4.44334">
        <ele>567</ele>
        <time>2025-09-10T09:05:52Z</time>
      </trkpt>
      <trkpt lat="45.83152" lon="4.44336">
        <ele>567</ele>
        <time>2025-09-10T09:05:53Z</time>
      </trkpt>
      <trkpt lat="45.83151" lon="4.44338">
        <ele>567.2</ele>
        <time>2025-09-10T09:05:54Z</time>
      </trkpt>
      <trkpt lat="45.8315" lon="4.4434">
        <ele>567.2</ele>
        <time>2025-09-10T09:05:55Z</time>
      </trkpt>
      <trkpt lat="45.83149" lon="4.44342">
        <ele>567.2</ele>
        <time>2025-09-10T09:05:56Z</time>
      </trkpt>
      <trkpt lat="45.83148" lon="4.44344">
        <ele>567.2</ele>
        <time>2025-09-10T09:05:57Z</time>
      </trkpt>
      <trkpt lat="45.83147" lon="4.44346">
        <ele>567.2</ele>
        <time>2025-09-10T09:05:58Z</time>
      </trkpt>
      <trkpt lat="45.83146" lon="4.44348">
        <ele>567.2</ele>
        <time>2025-09-10T09:05:59Z</time>
      </trkpt>
      <trkpt lat="45.83145" lon="4.4435">
        <ele>567.2</ele>
        <time>2025-09-10T09:06:00Z</time>
      </trkpt>
      <trkpt lat="45.83145" lon="4.44352">
        <ele>567.4</ele>
        <time>2025-09-10T09:06:01Z</time>
      </trkpt>
      <trkpt lat="45.83144" lon="4.44354">
        <ele>567.4</ele>
        <time>2025-09-10T09:06:02Z</time>
      </trkpt>
      <trkpt lat="45.83143" lon="4.44356">
        <ele>567.4</ele>
        <time>2025-09-10T09:06:03Z</time>
      </trkpt>
      <trkpt lat="45.83142" lon="4.44358">
        <ele>567.4</ele>
        <time>2025-09-10T09:06:04Z</time>
      </trkpt>
      <trkpt lat="45.83141" lon="4.44359">
        <ele>567.8</ele>
        <time>2025-09-10T09:06:05Z</time>
      </trkpt>
      <trkpt lat="45.8314" lon="4.44361">
        <ele>567.8</ele>
        <time>2025-09-10T09:06:06Z</time>
      </trkpt>
      <trkpt lat="45.83139" lon="4.44363">
        <ele>567.8</ele>
        <time>2025-09-10T09:06:07Z</time>
      </trkpt>
      <trkpt lat="45.83139" lon="4.44364">
        <ele>567.8</ele>
        <time>2025-09-10T09:06:08Z</time>
      </trkpt>
      <trkpt lat="45.83138" lon="4.44366">
        <ele>568</ele>
        <time>2025-09-10T09:06:09Z</time>
      </trkpt>
      <trkpt lat="45.83137" lon="4.44368">
        <ele>568</ele>
        <time>2025-09-10T09:06:10Z</time>
      </trkpt>
      <trkpt lat="45.83136" lon="4.44369">
        <ele>568.2</ele>
        <time>2025-09-10T09:06:11Z</time>
      </trkpt>
      <trkpt lat="45.83135" lon="4.4437">
        <ele>568.2</ele>
        <time>2025-09-10T09:06:12Z</time>
      </trkpt>
      <trkpt lat="45.83134" lon="4.44372">
        <ele>568.2</ele>
        <time>2025-09-10T09:06:13Z</time>
      </trkpt>
      <trkpt lat="45.83134" lon="4.44374">
        <ele>568.2</ele>
        <time>2025-09-10T09:06:14Z</time>
      </trkpt>
      <trkpt lat="45.83133" lon="4.44376">
        <ele>568.2</ele>
        <time>2025-09-10T09:06:15Z</time>
      </trkpt>
      <trkpt lat="45.83131" lon="4.44377">
        <ele>568.6</ele>
        <time>2025-09-10T09:06:16Z</time>
      </trkpt>
      <trkpt lat="45.8313" lon="4.44379">
        <ele>568.6</ele>
        <time>2025-09-10T09:06:17Z</time>
      </trkpt>
      <trkpt lat="45.83129" lon="4.4438">
        <ele>568.6</ele>
        <time>2025-09-10T09:06:18Z</time>
      </trkpt>
      <trkpt lat="45.83128" lon="4.44382">
        <ele>568.6</ele>
        <time>2025-09-10T09:06:19Z</time>
      </trkpt>
      <trkpt lat="45.83127" lon="4.44383">
        <ele>568.4</ele>
        <time>2025-09-10T09:06:20Z</time>
      </trkpt>
      <trkpt lat="45.83126" lon="4.44385">
        <ele>568.4</ele>
        <time>2025-09-10T09:06:21Z</time>
      </trkpt>
      <trkpt lat="45.83125" lon="4.44387">
        <ele>568.4</ele>
        <time>2025-09-10T09:06:22Z</time>
      </trkpt>
      <trkpt lat="45.83124" lon="4.44389">
        <ele>568.4</ele>
        <time>2025-09-10T09:06:23Z</time>
      </trkpt>
      <trkpt lat="45.83123" lon="4.4439">
        <ele>568.6</ele>
        <time>2025-09-10T09:06:24Z</time>
      </trkpt>
      <trkpt lat="45.83121" lon="4.44392">
        <ele>568.6</ele>
        <time>2025-09-10T09:06:25Z</time>
      </trkpt>
      <trkpt lat="45.8312" lon="4.44393">
        <ele>569</ele>
        <time>2025-09-10T09:06:26Z</time>
      </trkpt>
      <trkpt lat="45.83119" lon="4.44394">
        <ele>569</ele>
        <time>2025-09-10T09:06:27Z</time>
      </trkpt>
      <trkpt lat="45.83118" lon="4.44395">
        <ele>569</ele>
        <time>2025-09-10T09:06:28Z</time>
      </trkpt>
      <trkpt lat="45.83117" lon="4.44396">
        <ele>569.2</ele>
        <time>2025-09-10T09:06:29Z</time>
      </trkpt>
      <trkpt lat="45.83116" lon="4.44397">
        <ele>569.2</ele>
        <time>2025-09-10T09:06:30Z</time>
      </trkpt>
      <trkpt lat="45.83115" lon="4.44397">
        <ele>569.2</ele>
        <time>2025-09-10T09:06:31Z</time>
      </trkpt>
      <trkpt lat="45.83114" lon="4.44398">
        <ele>569.6</ele>
        <time>2025-09-10T09:06:32Z</time>
      </trkpt>
      <trkpt lat="45.83113" lon="4.44398">
        <ele>569.8</ele>
        <time>2025-09-10T09:06:33Z</time>
      </trkpt>
      <trkpt lat="45.83112" lon="4.44398">
        <ele>569.8</ele>
        <time>2025-09-10T09:06:34Z</time>
      </trkpt>
      <trkpt lat="45.83111" lon="4.44399">
        <ele>569.8</ele>
        <time>2025-09-10T09:06:35Z</time>
      </trkpt>
      <trkpt lat="45.83109" lon="4.44399">
        <ele>570.2</ele>
        <time>2025-09-10T09:06:36Z</time>
      </trkpt>
      <trkpt lat="45.83108" lon="4.44398">
        <ele>570.2</ele>
        <time>2025-09-10T09:06:37Z</time>
      </trkpt>
      <trkpt lat="45.83107" lon="4.44397">
        <ele>570.6</ele>
        <time>2025-09-10T09:06:38Z</time>
      </trkpt>
      <trkpt lat="45.83106" lon="4.44396">
        <ele>570.6</ele>
        <time>2025-09-10T09:06:39Z</time>
      </trkpt>
      <trkpt lat="45.83104" lon="4.44394">
        <ele>570.6</ele>
        <time>2025-09-10T09:06:40Z</time>
      </trkpt>
      <trkpt lat="45.83104" lon="4.44394">
        <ele>570.8</ele>
        <time>2025-09-10T09:06:41Z</time>
      </trkpt>
      <trkpt lat="45.83101" lon="4.44394">
        <ele>571</ele>
        <time>2025-09-10T09:06:42Z</time>
      </trkpt>
      <trkpt lat="45.831" lon="4.44393">
        <ele>571</ele>
        <time>2025-09-10T09:06:43Z</time>
      </trkpt>
      <trkpt lat="45.83098" lon="4.44393">
        <ele>571</ele>
        <time>2025-09-10T09:06:44Z</time>
      </trkpt>
      <trkpt lat="45.83097" lon="4.44393">
        <ele>571</ele>
        <time>2025-09-10T09:06:45Z</time>
      </trkpt>
      <trkpt lat="45.83096" lon="4.44393">
        <ele>571.4</ele>
        <time>2025-09-10T09:06:46Z</time>
      </trkpt>
      <trkpt lat="45.83094" lon="4.44393">
        <ele>571.4</ele>
        <time>2025-09-10T09:06:47Z</time>
      </trkpt>
      <trkpt lat="45.83094" lon="4.44393">
        <ele>571.6</ele>
        <time>2025-09-10T09:06:48Z</time>
      </trkpt>
      <trkpt lat="45.83093" lon="4.44393">
        <ele>571.8</ele>
        <time>2025-09-10T09:06:49Z</time>
      </trkpt>
      <trkpt lat="45.83092" lon="4.44393">
        <ele>571.8</ele>
        <time>2025-09-10T09:06:50Z</time>
      </trkpt>
      <trkpt lat="45.83091" lon="4.44393">
        <ele>571.8</ele>
        <time>2025-09-10T09:06:51Z</time>
      </trkpt>
      <trkpt lat="45.8309" lon="4.44392">
        <ele>572</ele>
        <time>2025-09-10T09:06:52Z</time>
      </trkpt>
      <trkpt lat="45.83089" lon="4.44392">
        <ele>572</ele>
        <time>2025-09-10T09:06:53Z</time>
      </trkpt>
      <trkpt lat="45.83088" lon="4.44391">
        <ele>572.4</ele>
        <time>2025-09-10T09:06:54Z</time>
      </trkpt>
      <trkpt lat="45.83086" lon="4.4439">
        <ele>572.4</ele>
        <time>2025-09-10T09:06:55Z</time>
      </trkpt>
      <trkpt lat="45.83085" lon="4.4439">
        <ele>572.6</ele>
        <time>2025-09-10T09:06:56Z</time>
      </trkpt>
      <trkpt lat="45.83084" lon="4.4439">
        <ele>572.6</ele>
        <time>2025-09-10T09:06:57Z</time>
      </trkpt>
      <trkpt lat="45.83082" lon="4.44391">
        <ele>572.8</ele>
        <time>2025-09-10T09:06:58Z</time>
      </trkpt>
      <trkpt lat="45.83081" lon="4.44391">
        <ele>572.8</ele>
        <time>2025-09-10T09:06:59Z</time>
      </trkpt>
      <trkpt lat="45.8308" lon="4.44391">
        <ele>572.8</ele>
        <time>2025-09-10T09:07:00Z</time>
      </trkpt>
      <trkpt lat="45.83078" lon="4.44391">
        <ele>572.8</ele>
        <time>2025-09-10T09:07:01Z</time>
      </trkpt>
      <trkpt lat="45.83076" lon="4.44391">
        <ele>573</ele>
        <time>2025-09-10T09:07:02Z</time>
      </trkpt>
      <trkpt lat="45.83074" lon="4.44391">
        <ele>573</ele>
        <time>2025-09-10T09:07:03Z</time>
      </trkpt>
      <trkpt lat="45.83073" lon="4.4439">
        <ele>573</ele>
        <time>2025-09-10T09:07:04Z</time>
      </trkpt>
      <trkpt lat="45.83072" lon="4.44389">
        <ele>573.2</ele>
        <time>2025-09-10T09:07:05Z</time>
      </trkpt>
      <trkpt lat="45.83071" lon="4.44388">
        <ele>573.2</ele>
        <time>2025-09-10T09:07:06Z</time>
      </trkpt>
      <trkpt lat="45.83069" lon="4.44387">
        <ele>573.2</ele>
        <time>2025-09-10T09:07:07Z</time>
      </trkpt>
      <trkpt lat="45.83068" lon="4.44386">
        <ele>573.4</ele>
        <time>2025-09-10T09:07:08Z</time>
      </trkpt>
      <trkpt lat="45.83066" lon="4.44386">
        <ele>573.4</ele>
        <time>2025-09-10T09:07:09Z</time>
      </trkpt>
      <trkpt lat="45.83065" lon="4.44385">
        <ele>573.8</ele>
        <time>2025-09-10T09:07:10Z</time>
      </trkpt>
      <trkpt lat="45.83064" lon="4.44385">
        <ele>573.8</ele>
        <time>2025-09-10T09:07:11Z</time>
      </trkpt>
      <trkpt lat="45.83062" lon="4.44384">
        <ele>573.8</ele>
        <time>2025-09-10T09:07:12Z</time>
      </trkpt>
      <trkpt lat="45.83061" lon="4.44383">
        <ele>573.8</ele>
        <time>2025-09-10T09:07:13Z</time>
      </trkpt>
      <trkpt lat="45.83059" lon="4.44383">
        <ele>573.8</ele>
        <time>2025-09-10T09:07:14Z</time>
      </trkpt>
      <trkpt lat="45.83058" lon="4.44382">
        <ele>573.8</ele>
        <time>2025-09-10T09:07:15Z</time>
      </trkpt>
      <trkpt lat="45.83057" lon="4.44381">
        <ele>573.8</ele>
        <time>2025-09-10T09:07:16Z</time>
      </trkpt>
      <trkpt lat="45.83056" lon="4.44381">
        <ele>574</ele>
        <time>2025-09-10T09:07:17Z</time>
      </trkpt>
      <trkpt lat="45.83054" lon="4.4438">
        <ele>574</ele>
        <time>2025-09-10T09:07:18Z</time>
      </trkpt>
      <trkpt lat="45.83052" lon="4.4438">
        <ele>574</ele>
        <time>2025-09-10T09:07:19Z</time>
      </trkpt>
      <trkpt lat="45.83051" lon="4.44379">
        <ele>574.2</ele>
        <time>2025-09-10T09:07:20Z</time>
      </trkpt>
      <trkpt lat="45.8305" lon="4.44379">
        <ele>574.2</ele>
        <time>2025-09-10T09:07:21Z</time>
      </trkpt>
      <trkpt lat="45.83048" lon="4.44379">
        <ele>574.2</ele>
        <time>2025-09-10T09:07:22Z</time>
      </trkpt>
      <trkpt lat="45.83047" lon="4.44378">
        <ele>574.2</ele>
        <time>2025-09-10T09:07:23Z</time>
      </trkpt>
      <trkpt lat="45.83045" lon="4.44378">
        <ele>574.4</ele>
        <time>2025-09-10T09:07:24Z</time>
      </trkpt>
      <trkpt lat="45.83043" lon="4.44377">
        <ele>574.4</ele>
        <time>2025-09-10T09:07:25Z</time>
      </trkpt>
      <trkpt lat="45.83042" lon="4.44377">
        <ele>574.4</ele>
        <time>2025-09-10T09:07:26Z</time>
      </trkpt>
      <trkpt lat="45.83041" lon="4.44376">
        <ele>574.8</ele>
        <time>2025-09-10T09:07:27Z</time>
      </trkpt>
      <trkpt lat="45.83039" lon="4.44376">
        <ele>574.8</ele>
        <time>2025-09-10T09:07:28Z</time>
      </trkpt>
      <trkpt lat="45.83037" lon="4.44376">
        <ele>575</ele>
        <time>2025-09-10T09:07:29Z</time>
      </trkpt>
      <trkpt lat="45.83036" lon="4.44376">
        <ele>575</ele>
        <time>2025-09-10T09:07:30Z</time>
      </trkpt>
      <trkpt lat="45.83035" lon="4.44376">
        <ele>575</ele>
        <time>2025-09-10T09:07:31Z</time>
      </trkpt>
      <trkpt lat="45.83033" lon="4.44375">
        <ele>575</ele>
        <time>2025-09-10T09:07:32Z</time>
      </trkpt>
      <trkpt lat="45.83032" lon="4.44374">
        <ele>575.6</ele>
        <time>2025-09-10T09:07:33Z</time>
      </trkpt>
      <trkpt lat="45.8303" lon="4.44374">
        <ele>575.6</ele>
        <time>2025-09-10T09:07:34Z</time>
      </trkpt>
      <trkpt lat="45.83029" lon="4.44374">
        <ele>575.8</ele>
        <time>2025-09-10T09:07:35Z</time>
      </trkpt>
      <trkpt lat="45.83028" lon="4.44374">
        <ele>575.8</ele>
        <time>2025-09-10T09:07:36Z</time>
      </trkpt>
      <trkpt lat="45.83026" lon="4.44374">
        <ele>575.8</ele>
        <time>2025-09-10T09:07:37Z</time>
      </trkpt>
      <trkpt lat="45.83025" lon="4.44374">
        <ele>575.8</ele>
        <time>2025-09-10T09:07:38Z</time>
      </trkpt>
      <trkpt lat="45.83024" lon="4.44374">
        <ele>576</ele>
        <time>2025-09-10T09:07:39Z</time>
      </trkpt>
      <trkpt lat="45.83022" lon="4.44374">
        <ele>576</ele>
        <time>2025-09-10T09:07:40Z</time>
      </trkpt>
      <trkpt lat="45.83021" lon="4.44374">
        <ele>576</ele>
        <time>2025-09-10T09:07:41Z</time>
      </trkpt>
      <trkpt lat="45.8302" lon="4.44374">
        <ele>576</ele>
        <time>2025-09-10T09:07:42Z</time>
      </trkpt>
      <trkpt lat="45.83018" lon="4.44374">
        <ele>576.4</ele>
        <time>2025-09-10T09:07:43Z</time>
      </trkpt>
      <trkpt lat="45.83017" lon="4.44375">
        <ele>576.4</ele>
        <time>2025-09-10T09:07:44Z</time>
      </trkpt>
      <trkpt lat="45.83015" lon="4.44375">
        <ele>576.4</ele>
        <time>2025-09-10T09:07:45Z</time>
      </trkpt>
      <trkpt lat="45.83014" lon="4.44375">
        <ele>576.8</ele>
        <time>2025-09-10T09:07:46Z</time>
      </trkpt>
      <trkpt lat="45.83013" lon="4.44375">
        <ele>576.8</ele>
        <time>2025-09-10T09:07:47Z</time>
      </trkpt>
      <trkpt lat="45.83012" lon="4.44375">
        <ele>576.8</ele>
        <time>2025-09-10T09:07:48Z</time>
      </trkpt>
      <trkpt lat="45.8301" lon="4.44376">
        <ele>576.8</ele>
        <time>2025-09-10T09:07:49Z</time>
      </trkpt>
      <trkpt lat="45.83009" lon="4.44376">
        <ele>577</ele>
        <time>2025-09-10T09:07:50Z</time>
      </trkpt>
      <trkpt lat="45.83008" lon="4.44377">
        <ele>577</ele>
        <time>2025-09-10T09:07:51Z</time>
      </trkpt>
      <trkpt lat="45.83007" lon="4.44377">
        <ele>577</ele>
        <time>2025-09-10T09:07:52Z</time>
      </trkpt>
      <trkpt lat="45.83005" lon="4.44377">
        <ele>577.2</ele>
        <time>2025-09-10T09:07:53Z</time>
      </trkpt>
      <trkpt lat="45.83004" lon="4.44377">
        <ele>577.2</ele>
        <time>2025-09-10T09:07:54Z</time>
      </trkpt>
      <trkpt lat="45.83003" lon="4.44377">
        <ele>577.4</ele>
        <time>2025-09-10T09:07:55Z</time>
      </trkpt>
      <trkpt lat="45.83001" lon="4.44376">
        <ele>577.4</ele>
        <time>2025-09-10T09:07:56Z</time>
      </trkpt>
      <trkpt lat="45.83" lon="4.44376">
        <ele>577.4</ele>
        <time>2025-09-10T09:07:57Z</time>
      </trkpt>
      <trkpt lat="45.82999" lon="4.44375">
        <ele>577.6</ele>
        <time>2025-09-10T09:07:58Z</time>
      </trkpt>
      <trkpt lat="45.82998" lon="4.44375">
        <ele>577.6</ele>
        <time>2025-09-10T09:07:59Z</time>
      </trkpt>
      <trkpt lat="45.82997" lon="4.44376">
        <ele>577.6</ele>
        <time>2025-09-10T09:08:00Z</time>
      </trkpt>
      <trkpt lat="45.82995" lon="4.44376">
        <ele>577.6</ele>
        <time>2025-09-10T09:08:01Z</time>
      </trkpt>
      <trkpt lat="45.82994" lon="4.44377">
        <ele>578</ele>
        <time>2025-09-10T09:08:02Z</time>
      </trkpt>
      <trkpt lat="45.82993" lon="4.44377">
        <ele>578</ele>
        <time>2025-09-10T09:08:03Z</time>
      </trkpt>
      <trkpt lat="45.82993" lon="4.44377">
        <ele>578.4</ele>
        <time>2025-09-10T09:08:04Z</time>
      </trkpt>
      <trkpt lat="45.82992" lon="4.44377">
        <ele>578.4</ele>
        <time>2025-09-10T09:08:05Z</time>
      </trkpt>
      <trkpt lat="45.82991" lon="4.44377">
        <ele>578.4</ele>
        <time>2025-09-10T09:08:06Z</time>
      </trkpt>
      <trkpt lat="45.8299" lon="4.44378">
        <ele>578.6</ele>
        <time>2025-09-10T09:08:07Z</time>
      </trkpt>
      <trkpt lat="45.82989" lon="4.44378">
        <ele>578.8</ele>
        <time>2025-09-10T09:08:08Z</time>
      </trkpt>
      <trkpt lat="45.82988" lon="4.44378">
        <ele>579</ele>
        <time>2025-09-10T09:08:09Z</time>
      </trkpt>
      <trkpt lat="45.82987" lon="4.44378">
        <ele>579.4</ele>
        <time>2025-09-10T09:08:10Z</time>
      </trkpt>
      <trkpt lat="45.82986" lon="4.44379">
        <ele>579.4</ele>
        <time>2025-09-10T09:08:11Z</time>
      </trkpt>
      <trkpt lat="45.82985" lon="4.44379">
        <ele>579.6</ele>
        <time>2025-09-10T09:08:12Z</time>
      </trkpt>
      <trkpt lat="45.82983" lon="4.44379">
        <ele>579.6</ele>
        <time>2025-09-10T09:08:13Z</time>
      </trkpt>
      <trkpt lat="45.82983" lon="4.44379">
        <ele>580</ele>
        <time>2025-09-10T09:08:14Z</time>
      </trkpt>
      <trkpt lat="45.82982" lon="4.44379">
        <ele>580</ele>
        <time>2025-09-10T09:08:15Z</time>
      </trkpt>
      <trkpt lat="45.82981" lon="4.44379">
        <ele>580</ele>
        <time>2025-09-10T09:08:16Z</time>
      </trkpt>
      <trkpt lat="45.82979" lon="4.4438">
        <ele>580.2</ele>
        <time>2025-09-10T09:08:17Z</time>
      </trkpt>
      <trkpt lat="45.82979" lon="4.4438">
        <ele>580.2</ele>
        <time>2025-09-10T09:08:18Z</time>
      </trkpt>
      <trkpt lat="45.82978" lon="4.4438">
        <ele>580.4</ele>
        <time>2025-09-10T09:08:19Z</time>
      </trkpt>
      <trkpt lat="45.82977" lon="4.44381">
        <ele>580.8</ele>
        <time>2025-09-10T09:08:20Z</time>
      </trkpt>
      <trkpt lat="45.82976" lon="4.44381">
        <ele>581.2</ele>
        <time>2025-09-10T09:08:21Z</time>
      </trkpt>
      <trkpt lat="45.82975" lon="4.44382">
        <ele>581.4</ele>
        <time>2025-09-10T09:08:22Z</time>
      </trkpt>
      <trkpt lat="45.82974" lon="4.44382">
        <ele>581.6</ele>
        <time>2025-09-10T09:08:23Z</time>
      </trkpt>
      <trkpt lat="45.82973" lon="4.44383">
        <ele>581.8</ele>
        <time>2025-09-10T09:08:24Z</time>
      </trkpt>
      <trkpt lat="45.82972" lon="4.44382">
        <ele>581.8</ele>
        <time>2025-09-10T09:08:25Z</time>
      </trkpt>
      <trkpt lat="45.82971" lon="4.44383">
        <ele>581.8</ele>
        <time>2025-09-10T09:08:26Z</time>
      </trkpt>
      <trkpt lat="45.8297" lon="4.44383">
        <ele>581.8</ele>
        <time>2025-09-10T09:08:27Z</time>
      </trkpt>
      <trkpt lat="45.8297" lon="4.44383">
        <ele>582.2</ele>
        <time>2025-09-10T09:08:28Z</time>
      </trkpt>
      <trkpt lat="45.82969" lon="4.44384">
        <ele>582.4</ele>
        <time>2025-09-10T09:08:29Z</time>
      </trkpt>
      <trkpt lat="45.82968" lon="4.44383">
        <ele>582.4</ele>
        <time>2025-09-10T09:08:30Z</time>
      </trkpt>
      <trkpt lat="45.82967" lon="4.44383">
        <ele>582.8</ele>
        <time>2025-09-10T09:08:31Z</time>
      </trkpt>
      <trkpt lat="45.82966" lon="4.44383">
        <ele>582.8</ele>
        <time>2025-09-10T09:08:32Z</time>
      </trkpt>
      <trkpt lat="45.82965" lon="4.44383">
        <ele>583</ele>
        <time>2025-09-10T09:08:33Z</time>
      </trkpt>
      <trkpt lat="45.82964" lon="4.44384">
        <ele>583</ele>
        <time>2025-09-10T09:08:34Z</time>
      </trkpt>
      <trkpt lat="45.82963" lon="4.44384">
        <ele>583.4</ele>
        <time>2025-09-10T09:08:35Z</time>
      </trkpt>
      <trkpt lat="45.82962" lon="4.44384">
        <ele>583.4</ele>
        <time>2025-09-10T09:08:36Z</time>
      </trkpt>
      <trkpt lat="45.82962" lon="4.44384">
        <ele>583.8</ele>
        <time>2025-09-10T09:08:37Z</time>
      </trkpt>
      <trkpt lat="45.82962" lon="4.44384">
        <ele>584</ele>
        <time>2025-09-10T09:08:38Z</time>
      </trkpt>
      <trkpt lat="45.82959" lon="4.44384">
        <ele>584.4</ele>
        <time>2025-09-10T09:08:40Z</time>
      </trkpt>
      <trkpt lat="45.82957" lon="4.44384">
        <ele>584.4</ele>
        <time>2025-09-10T09:08:41Z</time>
      </trkpt>
      <trkpt lat="45.82956" lon="4.44384">
        <ele>584.6</ele>
        <time>2025-09-10T09:08:42Z</time>
      </trkpt>
      <trkpt lat="45.82955" lon="4.44385">
        <ele>584.6</ele>
        <time>2025-09-10T09:08:43Z</time>
      </trkpt>
      <trkpt lat="45.82954" lon="4.44385">
        <ele>585</ele>
        <time>2025-09-10T09:08:44Z</time>
      </trkpt>
      <trkpt lat="45.82953" lon="4.44386">
        <ele>585</ele>
        <time>2025-09-10T09:08:45Z</time>
      </trkpt>
      <trkpt lat="45.82952" lon="4.44386">
        <ele>585.4</ele>
        <time>2025-09-10T09:08:46Z</time>
      </trkpt>
      <trkpt lat="45.82951" lon="4.44386">
        <ele>585.4</ele>
        <time>2025-09-10T09:08:47Z</time>
      </trkpt>
      <trkpt lat="45.8295" lon="4.44385">
        <ele>585.4</ele>
        <time>2025-09-10T09:08:48Z</time>
      </trkpt>
      <trkpt lat="45.82949" lon="4.44385">
        <ele>585.6</ele>
        <time>2025-09-10T09:08:49Z</time>
      </trkpt>
      <trkpt lat="45.82948" lon="4.44385">
        <ele>585.6</ele>
        <time>2025-09-10T09:08:50Z</time>
      </trkpt>
      <trkpt lat="45.82947" lon="4.44386">
        <ele>585.6</ele>
        <time>2025-09-10T09:08:51Z</time>
      </trkpt>
      <trkpt lat="45.82947" lon="4.44387">
        <ele>586</ele>
        <time>2025-09-10T09:08:52Z</time>
      </trkpt>
      <trkpt lat="45.82945" lon="4.44388">
        <ele>586</ele>
        <time>2025-09-10T09:08:53Z</time>
      </trkpt>
      <trkpt lat="45.82944" lon="4.44389">
        <ele>586.2</ele>
        <time>2025-09-10T09:08:54Z</time>
      </trkpt>
      <trkpt lat="45.82943" lon="4.44389">
        <ele>586.2</ele>
        <time>2025-09-10T09:08:55Z</time>
      </trkpt>
      <trkpt lat="45.82943" lon="4.44389">
        <ele>586.2</ele>
        <time>2025-09-10T09:08:56Z</time>
      </trkpt>
      <trkpt lat="45.82942" lon="4.44388">
        <ele>586.8</ele>
        <time>2025-09-10T09:08:57Z</time>
      </trkpt>
      <trkpt lat="45.82942" lon="4.44388">
        <ele>587</ele>
        <time>2025-09-10T09:08:58Z</time>
      </trkpt>
      <trkpt lat="45.82942" lon="4.44388">
        <ele>587</ele>
        <time>2025-09-10T09:08:59Z</time>
      </trkpt>
      <trkpt lat="45.8294" lon="4.44389">
        <ele>587.2</ele>
        <time>2025-09-10T09:09:00Z</time>
      </trkpt>
      <trkpt lat="45.82939" lon="4.4439">
        <ele>587.4</ele>
        <time>2025-09-10T09:09:01Z</time>
      </trkpt>
      <trkpt lat="45.82938" lon="4.4439">
        <ele>587.4</ele>
        <time>2025-09-10T09:09:02Z</time>
      </trkpt>
      <trkpt lat="45.82937" lon="4.44391">
        <ele>587.8</ele>
        <time>2025-09-10T09:09:03Z</time>
      </trkpt>
      <trkpt lat="45.82937" lon="4.44392">
        <ele>587.8</ele>
        <time>2025-09-10T09:09:04Z</time>
      </trkpt>
      <trkpt lat="45.82936" lon="4.44393">
        <ele>587.8</ele>
        <time>2025-09-10T09:09:05Z</time>
      </trkpt>
      <trkpt lat="45.82935" lon="4.44394">
        <ele>588</ele>
        <time>2025-09-10T09:09:06Z</time>
      </trkpt>
      <trkpt lat="45.82934" lon="4.44394">
        <ele>588</ele>
        <time>2025-09-10T09:09:07Z</time>
      </trkpt>
      <trkpt lat="45.82933" lon="4.44394">
        <ele>588.2</ele>
        <time>2025-09-10T09:09:08Z</time>
      </trkpt>
      <trkpt lat="45.82932" lon="4.44394">
        <ele>588.4</ele>
        <time>2025-09-10T09:09:09Z</time>
      </trkpt>
      <trkpt lat="45.82932" lon="4.44395">
        <ele>588.4</ele>
        <time>2025-09-10T09:09:10Z</time>
      </trkpt>
      <trkpt lat="45.82931" lon="4.44396">
        <ele>588.6</ele>
        <time>2025-09-10T09:09:11Z</time>
      </trkpt>
      <trkpt lat="45.8293" lon="4.44397">
        <ele>588.6</ele>
        <time>2025-09-10T09:09:12Z</time>
      </trkpt>
      <trkpt lat="45.8293" lon="4.44398">
        <ele>589</ele>
        <time>2025-09-10T09:09:13Z</time>
      </trkpt>
      <trkpt lat="45.82929" lon="4.44399">
        <ele>589</ele>
        <time>2025-09-10T09:09:14Z</time>
      </trkpt>
      <trkpt lat="45.82928" lon="4.444">
        <ele>589.2</ele>
        <time>2025-09-10T09:09:15Z</time>
      </trkpt>
      <trkpt lat="45.82928" lon="4.444">
        <ele>589.2</ele>
        <time>2025-09-10T09:09:16Z</time>
      </trkpt>
      <trkpt lat="45.82927" lon="4.444">
        <ele>589.2</ele>
        <time>2025-09-10T09:09:17Z</time>
      </trkpt>
      <trkpt lat="45.82926" lon="4.444">
        <ele>589.2</ele>
        <time>2025-09-10T09:09:18Z</time>
      </trkpt>
      <trkpt lat="45.82925" lon="4.44402">
        <ele>589.6</ele>
        <time>2025-09-10T09:09:19Z</time>
      </trkpt>
      <trkpt lat="45.82924" lon="4.44403">
        <ele>589.6</ele>
        <time>2025-09-10T09:09:20Z</time>
      </trkpt>
      <trkpt lat="45.82924" lon="4.44405">
        <ele>589.6</ele>
        <time>2025-09-10T09:09:21Z</time>
      </trkpt>
      <trkpt lat="45.82923" lon="4.44405">
        <ele>589.6</ele>
        <time>2025-09-10T09:09:22Z</time>
      </trkpt>
      <trkpt lat="45.82923" lon="4.44406">
        <ele>589.8</ele>
        <time>2025-09-10T09:09:23Z</time>
      </trkpt>
      <trkpt lat="45.82922" lon="4.44407">
        <ele>589.8</ele>
        <time>2025-09-10T09:09:24Z</time>
      </trkpt>
      <trkpt lat="45.82921" lon="4.44408">
        <ele>590</ele>
        <time>2025-09-10T09:09:25Z</time>
      </trkpt>
      <trkpt lat="45.8292" lon="4.44408">
        <ele>590</ele>
        <time>2025-09-10T09:09:26Z</time>
      </trkpt>
      <trkpt lat="45.82919" lon="4.44409">
        <ele>590</ele>
        <time>2025-09-10T09:09:27Z</time>
      </trkpt>
      <trkpt lat="45.82918" lon="4.4441">
        <ele>590.2</ele>
        <time>2025-09-10T09:09:28Z</time>
      </trkpt>
      <trkpt lat="45.82917" lon="4.44411">
        <ele>590.2</ele>
        <time>2025-09-10T09:09:29Z</time>
      </trkpt>
      <trkpt lat="45.82916" lon="4.44411">
        <ele>590.4</ele>
        <time>2025-09-10T09:09:30Z</time>
      </trkpt>
      <trkpt lat="45.82915" lon="4.44412">
        <ele>590.4</ele>
        <time>2025-09-10T09:09:31Z</time>
      </trkpt>
      <trkpt lat="45.82914" lon="4.44412">
        <ele>590.4</ele>
        <time>2025-09-10T09:09:32Z</time>
      </trkpt>
      <trkpt lat="45.82913" lon="4.44413">
        <ele>590.4</ele>
        <time>2025-09-10T09:09:33Z</time>
      </trkpt>
      <trkpt lat="45.82912" lon="4.44414">
        <ele>590.8</ele>
        <time>2025-09-10T09:09:34Z</time>
      </trkpt>
      <trkpt lat="45.82911" lon="4.44415">
        <ele>591</ele>
        <time>2025-09-10T09:09:35Z</time>
      </trkpt>
      <trkpt lat="45.8291" lon="4.44416">
        <ele>591.2</ele>
        <time>2025-09-10T09:09:36Z</time>
      </trkpt>
      <trkpt lat="45.8291" lon="4.44418">
        <ele>591.6</ele>
        <time>2025-09-10T09:09:37Z</time>
      </trkpt>
      <trkpt lat="45.82909" lon="4.44419">
        <ele>591.8</ele>
        <time>2025-09-10T09:09:38Z</time>
      </trkpt>
      <trkpt lat="45.82908" lon="4.4442">
        <ele>591.8</ele>
        <time>2025-09-10T09:09:39Z</time>
      </trkpt>
      <trkpt lat="45.82906" lon="4.44421">
        <ele>591.8</ele>
        <time>2025-09-10T09:09:40Z</time>
      </trkpt>
      <trkpt lat="45.82905" lon="4.44421">
        <ele>592.2</ele>
        <time>2025-09-10T09:09:41Z</time>
      </trkpt>
      <trkpt lat="45.82904" lon="4.44421">
        <ele>592.2</ele>
        <time>2025-09-10T09:09:42Z</time>
      </trkpt>
      <trkpt lat="45.82904" lon="4.44422">
        <ele>592.4</ele>
        <time>2025-09-10T09:09:43Z</time>
      </trkpt>
      <trkpt lat="45.82903" lon="4.44423">
        <ele>592.6</ele>
        <time>2025-09-10T09:09:44Z</time>
      </trkpt>
      <trkpt lat="45.82902" lon="4.44424">
        <ele>592.6</ele>
        <time>2025-09-10T09:09:45Z</time>
      </trkpt>
      <trkpt lat="45.82901" lon="4.44425">
        <ele>593</ele>
        <time>2025-09-10T09:09:46Z</time>
      </trkpt>
      <trkpt lat="45.829" lon="4.44425">
        <ele>593.2</ele>
        <time>2025-09-10T09:09:47Z</time>
      </trkpt>
      <trkpt lat="45.829" lon="4.44426">
        <ele>593.2</ele>
        <time>2025-09-10T09:09:48Z</time>
      </trkpt>
      <trkpt lat="45.82899" lon="4.44426">
        <ele>593.2</ele>
        <time>2025-09-10T09:09:49Z</time>
      </trkpt>
      <trkpt lat="45.82898" lon="4.44427">
        <ele>593.4</ele>
        <time>2025-09-10T09:09:50Z</time>
      </trkpt>
      <trkpt lat="45.82897" lon="4.44428">
        <ele>593.4</ele>
        <time>2025-09-10T09:09:51Z</time>
      </trkpt>
      <trkpt lat="45.82896" lon="4.44429">
        <ele>593.4</ele>
        <time>2025-09-10T09:09:52Z</time>
      </trkpt>
      <trkpt lat="45.82896" lon="4.4443">
        <ele>593.4</ele>
        <time>2025-09-10T09:09:53Z</time>
      </trkpt>
      <trkpt lat="45.82895" lon="4.44431">
        <ele>593.8</ele>
        <time>2025-09-10T09:09:54Z</time>
      </trkpt>
      <trkpt lat="45.82895" lon="4.44432">
        <ele>593.8</ele>
        <time>2025-09-10T09:09:55Z</time>
      </trkpt>
      <trkpt lat="45.82894" lon="4.44433">
        <ele>593.8</ele>
        <time>2025-09-10T09:09:56Z</time>
      </trkpt>
      <trkpt lat="45.82893" lon="4.44434">
        <ele>594</ele>
        <time>2025-09-10T09:09:57Z</time>
      </trkpt>
      <trkpt lat="45.82892" lon="4.44435">
        <ele>594</ele>
        <time>2025-09-10T09:09:58Z</time>
      </trkpt>
      <trkpt lat="45.82891" lon="4.44437">
        <ele>594</ele>
        <time>2025-09-10T09:09:59Z</time>
      </trkpt>
      <trkpt lat="45.82891" lon="4.44438">
        <ele>594</ele>
        <time>2025-09-10T09:10:00Z</time>
      </trkpt>
      <trkpt lat="45.8289" lon="4.44439">
        <ele>594.2</ele>
        <time>2025-09-10T09:10:01Z</time>
      </trkpt>
      <trkpt lat="45.82888" lon="4.4444">
        <ele>594.2</ele>
        <time>2025-09-10T09:10:02Z</time>
      </trkpt>
      <trkpt lat="45.82887" lon="4.4444">
        <ele>594.4</ele>
        <time>2025-09-10T09:10:03Z</time>
      </trkpt>
      <trkpt lat="45.82886" lon="4.44441">
        <ele>594.4</ele>
        <time>2025-09-10T09:10:04Z</time>
      </trkpt>
      <trkpt lat="45.82885" lon="4.44441">
        <ele>594.4</ele>
        <time>2025-09-10T09:10:05Z</time>
      </trkpt>
      <trkpt lat="45.82884" lon="4.44441">
        <ele>594.8</ele>
        <time>2025-09-10T09:10:06Z</time>
      </trkpt>
      <trkpt lat="45.82883" lon="4.44442">
        <ele>594.8</ele>
        <time>2025-09-10T09:10:07Z</time>
      </trkpt>
      <trkpt lat="45.82882" lon="4.44442">
        <ele>595</ele>
        <time>2025-09-10T09:10:08Z</time>
      </trkpt>
      <trkpt lat="45.8288" lon="4.44443">
        <ele>595</ele>
        <time>2025-09-10T09:10:09Z</time>
      </trkpt>
      <trkpt lat="45.82879" lon="4.44444">
        <ele>595.2</ele>
        <time>2025-09-10T09:10:10Z</time>
      </trkpt>
      <trkpt lat="45.82878" lon="4.44445">
        <ele>595.2</ele>
        <time>2025-09-10T09:10:11Z</time>
      </trkpt>
      <trkpt lat="45.82877" lon="4.44446">
        <ele>595.2</ele>
        <time>2025-09-10T09:10:12Z</time>
      </trkpt>
      <trkpt lat="45.82876" lon="4.44447">
        <ele>595.6</ele>
        <time>2025-09-10T09:10:13Z</time>
      </trkpt>
      <trkpt lat="45.82875" lon="4.44447">
        <ele>595.8</ele>
        <time>2025-09-10T09:10:14Z</time>
      </trkpt>
      <trkpt lat="45.82874" lon="4.44448">
        <ele>595.8</ele>
        <time>2025-09-10T09:10:15Z</time>
      </trkpt>
      <trkpt lat="45.82873" lon="4.44448">
        <ele>595.8</ele>
        <time>2025-09-10T09:10:16Z</time>
      </trkpt>
      <trkpt lat="45.82872" lon="4.44449">
        <ele>596</ele>
        <time>2025-09-10T09:10:17Z</time>
      </trkpt>
      <trkpt lat="45.82871" lon="4.4445">
        <ele>596</ele>
        <time>2025-09-10T09:10:18Z</time>
      </trkpt>
      <trkpt lat="45.82869" lon="4.44452">
        <ele>596</ele>
        <time>2025-09-10T09:10:19Z</time>
      </trkpt>
      <trkpt lat="45.82868" lon="4.44453">
        <ele>596</ele>
        <time>2025-09-10T09:10:20Z</time>
      </trkpt>
      <trkpt lat="45.82867" lon="4.44454">
        <ele>596</ele>
        <time>2025-09-10T09:10:21Z</time>
      </trkpt>
      <trkpt lat="45.82866" lon="4.44455">
        <ele>594.2</ele>
        <time>2025-09-10T09:10:22Z</time>
      </trkpt>
      <trkpt lat="45.82864" lon="4.44455">
        <ele>595</ele>
        <time>2025-09-10T09:10:23Z</time>
      </trkpt>
      <trkpt lat="45.82863" lon="4.44456">
        <ele>595.2</ele>
        <time>2025-09-10T09:10:24Z</time>
      </trkpt>
      <trkpt lat="45.82861" lon="4.44457">
        <ele>595.2</ele>
        <time>2025-09-10T09:10:25Z</time>
      </trkpt>
      <trkpt lat="45.82859" lon="4.44458">
        <ele>595.4</ele>
        <time>2025-09-10T09:10:26Z</time>
      </trkpt>
      <trkpt lat="45.82857" lon="4.44459">
        <ele>595.4</ele>
        <time>2025-09-10T09:10:27Z</time>
      </trkpt>
      <trkpt lat="45.82856" lon="4.44459">
        <ele>595.8</ele>
        <time>2025-09-10T09:10:28Z</time>
      </trkpt>
      <trkpt lat="45.82855" lon="4.44459">
        <ele>595.8</ele>
        <time>2025-09-10T09:10:29Z</time>
      </trkpt>
      <trkpt lat="45.82854" lon="4.4446">
        <ele>595.8</ele>
        <time>2025-09-10T09:10:30Z</time>
      </trkpt>
      <trkpt lat="45.82852" lon="4.44461">
        <ele>595.8</ele>
        <time>2025-09-10T09:10:31Z</time>
      </trkpt>
      <trkpt lat="45.8285" lon="4.44462">
        <ele>595.8</ele>
        <time>2025-09-10T09:10:32Z</time>
      </trkpt>
      <trkpt lat="45.82848" lon="4.44464">
        <ele>595.8</ele>
        <time>2025-09-10T09:10:33Z</time>
      </trkpt>
      <trkpt lat="45.82846" lon="4.44465">
        <ele>595.8</ele>
        <time>2025-09-10T09:10:34Z</time>
      </trkpt>
      <trkpt lat="45.82844" lon="4.44466">
        <ele>595.8</ele>
        <time>2025-09-10T09:10:35Z</time>
      </trkpt>
      <trkpt lat="45.82842" lon="4.44467">
        <ele>596.2</ele>
        <time>2025-09-10T09:10:36Z</time>
      </trkpt>
      <trkpt lat="45.8284" lon="4.44468">
        <ele>596.2</ele>
        <time>2025-09-10T09:10:37Z</time>
      </trkpt>
      <trkpt lat="45.82837" lon="4.44469">
        <ele>596.2</ele>
        <time>2025-09-10T09:10:38Z</time>
      </trkpt>
      <trkpt lat="45.82835" lon="4.44471">
        <ele>596.4</ele>
        <time>2025-09-10T09:10:39Z</time>
      </trkpt>
      <trkpt lat="45.82833" lon="4.44472">
        <ele>596.4</ele>
        <time>2025-09-10T09:10:40Z</time>
      </trkpt>
      <trkpt lat="45.82831" lon="4.44475">
        <ele>596.4</ele>
        <time>2025-09-10T09:10:41Z</time>
      </trkpt>
      <trkpt lat="45.82827" lon="4.44479">
        <ele>596.4</ele>
        <time>2025-09-10T09:10:42Z</time>
      </trkpt>
      <trkpt lat="45.82825" lon="4.44481">
        <ele>596.4</ele>
        <time>2025-09-10T09:10:43Z</time>
      </trkpt>
      <trkpt lat="45.82822" lon="4.44483">
        <ele>596.4</ele>
        <time>2025-09-10T09:10:44Z</time>
      </trkpt>
      <trkpt lat="45.82819" lon="4.44484">
        <ele>596.4</ele>
        <time>2025-09-10T09:10:45Z</time>
      </trkpt>
      <trkpt lat="45.82817" lon="4.44486">
        <ele>596.4</ele>
        <time>2025-09-10T09:10:46Z</time>
      </trkpt>
      <trkpt lat="45.82814" lon="4.44487">
        <ele>596.4</ele>
        <time>2025-09-10T09:10:47Z</time>
      </trkpt>
      <trkpt lat="45.82812" lon="4.44489">
        <ele>596.4</ele>
        <time>2025-09-10T09:10:48Z</time>
      </trkpt>
      <trkpt lat="45.8281" lon="4.44491">
        <ele>596.4</ele>
        <time>2025-09-10T09:10:49Z</time>
      </trkpt>
      <trkpt lat="45.82808" lon="4.44492">
        <ele>596.6</ele>
        <time>2025-09-10T09:10:50Z</time>
      </trkpt>
      <trkpt lat="45.82806" lon="4.44494">
        <ele>596.6</ele>
        <time>2025-09-10T09:10:51Z</time>
      </trkpt>
      <trkpt lat="45.82804" lon="4.44496">
        <ele>596.6</ele>
        <time>2025-09-10T09:10:52Z</time>
      </trkpt>
      <trkpt lat="45.82802" lon="4.44498">
        <ele>596.6</ele>
        <time>2025-09-10T09:10:53Z</time>
      </trkpt>
      <trkpt lat="45.828" lon="4.445">
        <ele>596.6</ele>
        <time>2025-09-10T09:10:54Z</time>
      </trkpt>
      <trkpt lat="45.82798" lon="4.44502">
        <ele>596.8</ele>
        <time>2025-09-10T09:10:55Z</time>
      </trkpt>
      <trkpt lat="45.82798" lon="4.44502">
        <ele>596.8</ele>
        <time>2025-09-10T09:10:56Z</time>
      </trkpt>
      <trkpt lat="45.82796" lon="4.44504">
        <ele>596.8</ele>
        <time>2025-09-10T09:10:57Z</time>
      </trkpt>
      <trkpt lat="45.82794" lon="4.44505">
        <ele>597</ele>
        <time>2025-09-10T09:10:58Z</time>
      </trkpt>
      <trkpt lat="45.82792" lon="4.44506">
        <ele>597</ele>
        <time>2025-09-10T09:10:59Z</time>
      </trkpt>
      <trkpt lat="45.8279" lon="4.44507">
        <ele>597</ele>
        <time>2025-09-10T09:11:00Z</time>
      </trkpt>
      <trkpt lat="45.82788" lon="4.44508">
        <ele>597</ele>
        <time>2025-09-10T09:11:01Z</time>
      </trkpt>
      <trkpt lat="45.82786" lon="4.44509">
        <ele>597.2</ele>
        <time>2025-09-10T09:11:02Z</time>
      </trkpt>
      <trkpt lat="45.82785" lon="4.4451">
        <ele>597.2</ele>
        <time>2025-09-10T09:11:03Z</time>
      </trkpt>
      <trkpt lat="45.82783" lon="4.44511">
        <ele>597.2</ele>
        <time>2025-09-10T09:11:04Z</time>
      </trkpt>
      <trkpt lat="45.82782" lon="4.44512">
        <ele>597.2</ele>
        <time>2025-09-10T09:11:05Z</time>
      </trkpt>
      <trkpt lat="45.8278" lon="4.44512">
        <ele>597.6</ele>
        <time>2025-09-10T09:11:06Z</time>
      </trkpt>
      <trkpt lat="45.82779" lon="4.44513">
        <ele>597.8</ele>
        <time>2025-09-10T09:11:07Z</time>
      </trkpt>
      <trkpt lat="45.82778" lon="4.44514">
        <ele>597.8</ele>
        <time>2025-09-10T09:11:08Z</time>
      </trkpt>
      <trkpt lat="45.82777" lon="4.44514">
        <ele>598.2</ele>
        <time>2025-09-10T09:11:09Z</time>
      </trkpt>
      <trkpt lat="45.82775" lon="4.44515">
        <ele>598.2</ele>
        <time>2025-09-10T09:11:10Z</time>
      </trkpt>
      <trkpt lat="45.82774" lon="4.44516">
        <ele>598.2</ele>
        <time>2025-09-10T09:11:11Z</time>
      </trkpt>
      <trkpt lat="45.82772" lon="4.44516">
        <ele>598.2</ele>
        <time>2025-09-10T09:11:12Z</time>
      </trkpt>
      <trkpt lat="45.82771" lon="4.44517">
        <ele>598.2</ele>
        <time>2025-09-10T09:11:13Z</time>
      </trkpt>
      <trkpt lat="45.82769" lon="4.44518">
        <ele>598.6</ele>
        <time>2025-09-10T09:11:14Z</time>
      </trkpt>
      <trkpt lat="45.82768" lon="4.44519">
        <ele>598.6</ele>
        <time>2025-09-10T09:11:15Z</time>
      </trkpt>
      <trkpt lat="45.82767" lon="4.4452">
        <ele>599</ele>
        <time>2025-09-10T09:11:16Z</time>
      </trkpt>
      <trkpt lat="45.82765" lon="4.44521">
        <ele>599.2</ele>
        <time>2025-09-10T09:11:17Z</time>
      </trkpt>
      <trkpt lat="45.82764" lon="4.44521">
        <ele>599.2</ele>
        <time>2025-09-10T09:11:18Z</time>
      </trkpt>
      <trkpt lat="45.82763" lon="4.44522">
        <ele>599.6</ele>
        <time>2025-09-10T09:11:19Z</time>
      </trkpt>
      <trkpt lat="45.82761" lon="4.44523">
        <ele>599.8</ele>
        <time>2025-09-10T09:11:20Z</time>
      </trkpt>
      <trkpt lat="45.8276" lon="4.44523">
        <ele>599.8</ele>
        <time>2025-09-10T09:11:21Z</time>
      </trkpt>
      <trkpt lat="45.82758" lon="4.44523">
        <ele>600</ele>
        <time>2025-09-10T09:11:22Z</time>
      </trkpt>
      <trkpt lat="45.82757" lon="4.44523">
        <ele>600</ele>
        <time>2025-09-10T09:11:23Z</time>
      </trkpt>
      <trkpt lat="45.82755" lon="4.44524">
        <ele>600</ele>
        <time>2025-09-10T09:11:24Z</time>
      </trkpt>
      <trkpt lat="45.82754" lon="4.44524">
        <ele>600.4</ele>
        <time>2025-09-10T09:11:25Z</time>
      </trkpt>
      <trkpt lat="45.82753" lon="4.44525">
        <ele>600.6</ele>
        <time>2025-09-10T09:11:26Z</time>
      </trkpt>
      <trkpt lat="45.82751" lon="4.44526">
        <ele>600.8</ele>
        <time>2025-09-10T09:11:27Z</time>
      </trkpt>
      <trkpt lat="45.8275" lon="4.44526">
        <ele>601</ele>
        <time>2025-09-10T09:11:28Z</time>
      </trkpt>
      <trkpt lat="45.82748" lon="4.44527">
        <ele>601.2</ele>
        <time>2025-09-10T09:11:29Z</time>
      </trkpt>
      <trkpt lat="45.82747" lon="4.44527">
        <ele>601.2</ele>
        <time>2025-09-10T09:11:30Z</time>
      </trkpt>
      <trkpt lat="45.82747" lon="4.44528">
        <ele>601.2</ele>
        <time>2025-09-10T09:11:31Z</time>
      </trkpt>
      <trkpt lat="45.82747" lon="4.44527">
        <ele>601.4</ele>
        <time>2025-09-10T09:11:32Z</time>
      </trkpt>
      <trkpt lat="45.82746" lon="4.44526">
        <ele>601.4</ele>
        <time>2025-09-10T09:12:20Z</time>
      </trkpt>
      <trkpt lat="45.82745" lon="4.44526">
        <ele>601.4</ele>
        <time>2025-09-10T09:12:21Z</time>
      </trkpt>
      <trkpt lat="45.82744" lon="4.44526">
        <ele>601.4</ele>
        <time>2025-09-10T09:12:22Z</time>
      </trkpt>
      <trkpt lat="45.82742" lon="4.44527">
        <ele>601.4</ele>
        <time>2025-09-10T09:12:23Z</time>
      </trkpt>
      <trkpt lat="45.82741" lon="4.44527">
        <ele>601.4</ele>
        <time>2025-09-10T09:12:24Z</time>
      </trkpt>
      <trkpt lat="45.82739" lon="4.44528">
        <ele>601.8</ele>
        <time>2025-09-10T09:12:25Z</time>
      </trkpt>
      <trkpt lat="45.82738" lon="4.44528">
        <ele>601.8</ele>
        <time>2025-09-10T09:12:26Z</time>
      </trkpt>
      <trkpt lat="45.82736" lon="4.44528">
        <ele>601.8</ele>
        <time>2025-09-10T09:12:27Z</time>
      </trkpt>
      <trkpt lat="45.82734" lon="4.44528">
        <ele>601.8</ele>
        <time>2025-09-10T09:12:28Z</time>
      </trkpt>
      <trkpt lat="45.82732" lon="4.44528">
        <ele>601.8</ele>
        <time>2025-09-10T09:12:29Z</time>
      </trkpt>
      <trkpt lat="45.82731" lon="4.44528">
        <ele>602</ele>
        <time>2025-09-10T09:12:30Z</time>
      </trkpt>
      <trkpt lat="45.82729" lon="4.44527">
        <ele>602</ele>
        <time>2025-09-10T09:12:31Z</time>
      </trkpt>
      <trkpt lat="45.82727" lon="4.44527">
        <ele>602.2</ele>
        <time>2025-09-10T09:12:32Z</time>
      </trkpt>
      <trkpt lat="45.82725" lon="4.44527">
        <ele>602.2</ele>
        <time>2025-09-10T09:12:33Z</time>
      </trkpt>
      <trkpt lat="45.82724" lon="4.44527">
        <ele>602.6</ele>
        <time>2025-09-10T09:12:34Z</time>
      </trkpt>
      <trkpt lat="45.82722" lon="4.44527">
        <ele>602.6</ele>
        <time>2025-09-10T09:12:35Z</time>
      </trkpt>
      <trkpt lat="45.8272" lon="4.44528">
        <ele>603</ele>
        <time>2025-09-10T09:12:36Z</time>
      </trkpt>
      <trkpt lat="45.82719" lon="4.44528">
        <ele>603</ele>
        <time>2025-09-10T09:12:37Z</time>
      </trkpt>
      <trkpt lat="45.82717" lon="4.44529">
        <ele>603.2</ele>
        <time>2025-09-10T09:12:38Z</time>
      </trkpt>
      <trkpt lat="45.82715" lon="4.44529">
        <ele>603.2</ele>
        <time>2025-09-10T09:12:39Z</time>
      </trkpt>
      <trkpt lat="45.82713" lon="4.44531">
        <ele>603.2</ele>
        <time>2025-09-10T09:12:40Z</time>
      </trkpt>
      <trkpt lat="45.82712" lon="4.44532">
        <ele>603.4</ele>
        <time>2025-09-10T09:12:41Z</time>
      </trkpt>
      <trkpt lat="45.82711" lon="4.44533">
        <ele>603.8</ele>
        <time>2025-09-10T09:12:42Z</time>
      </trkpt>
      <trkpt lat="45.8271" lon="4.44533">
        <ele>603.8</ele>
        <time>2025-09-10T09:12:43Z</time>
      </trkpt>
      <trkpt lat="45.8271" lon="4.44533">
        <ele>604</ele>
        <time>2025-09-10T09:12:44Z</time>
      </trkpt>
      <trkpt lat="45.82709" lon="4.44533">
        <ele>604</ele>
        <time>2025-09-10T09:12:47Z</time>
      </trkpt>
      <trkpt lat="45.82708" lon="4.44533">
        <ele>604</ele>
        <time>2025-09-10T09:12:48Z</time>
      </trkpt>
      <trkpt lat="45.82706" lon="4.44533">
        <ele>604</ele>
        <time>2025-09-10T09:12:49Z</time>
      </trkpt>
      <trkpt lat="45.82704" lon="4.44534">
        <ele>604.4</ele>
        <time>2025-09-10T09:12:50Z</time>
      </trkpt>
      <trkpt lat="45.82702" lon="4.44534">
        <ele>604.6</ele>
        <time>2025-09-10T09:12:51Z</time>
      </trkpt>
      <trkpt lat="45.82701" lon="4.44535">
        <ele>604.6</ele>
        <time>2025-09-10T09:12:52Z</time>
      </trkpt>
      <trkpt lat="45.82699" lon="4.44535">
        <ele>605</ele>
        <time>2025-09-10T09:12:53Z</time>
      </trkpt>
      <trkpt lat="45.82698" lon="4.44534">
        <ele>605.2</ele>
        <time>2025-09-10T09:12:54Z</time>
      </trkpt>
      <trkpt lat="45.82696" lon="4.44534">
        <ele>605.2</ele>
        <time>2025-09-10T09:12:55Z</time>
      </trkpt>
      <trkpt lat="45.82695" lon="4.44533">
        <ele>605.2</ele>
        <time>2025-09-10T09:12:56Z</time>
      </trkpt>
      <trkpt lat="45.82694" lon="4.44533">
        <ele>605.6</ele>
        <time>2025-09-10T09:12:57Z</time>
      </trkpt>
      <trkpt lat="45.82692" lon="4.44533">
        <ele>605.6</ele>
        <time>2025-09-10T09:12:58Z</time>
      </trkpt>
      <trkpt lat="45.82691" lon="4.44534">
        <ele>605.8</ele>
        <time>2025-09-10T09:12:59Z</time>
      </trkpt>
      <trkpt lat="45.8269" lon="4.44534">
        <ele>605.8</ele>
        <time>2025-09-10T09:13:00Z</time>
      </trkpt>
      <trkpt lat="45.82689" lon="4.44534">
        <ele>606.2</ele>
        <time>2025-09-10T09:13:01Z</time>
      </trkpt>
      <trkpt lat="45.82687" lon="4.44534">
        <ele>606.2</ele>
        <time>2025-09-10T09:13:02Z</time>
      </trkpt>
      <trkpt lat="45.82686" lon="4.44534">
        <ele>606.2</ele>
        <time>2025-09-10T09:13:03Z</time>
      </trkpt>
      <trkpt lat="45.82685" lon="4.44535">
        <ele>606.2</ele>
        <time>2025-09-10T09:13:04Z</time>
      </trkpt>
      <trkpt lat="45.82684" lon="4.44536">
        <ele>606.4</ele>
        <time>2025-09-10T09:13:05Z</time>
      </trkpt>
      <trkpt lat="45.82683" lon="4.44537">
        <ele>606.4</ele>
        <time>2025-09-10T09:13:06Z</time>
      </trkpt>
      <trkpt lat="45.82682" lon="4.44537">
        <ele>606.8</ele>
        <time>2025-09-10T09:13:07Z</time>
      </trkpt>
      <trkpt lat="45.82682" lon="4.44538">
        <ele>606.8</ele>
        <time>2025-09-10T09:13:08Z</time>
      </trkpt>
      <trkpt lat="45.82682" lon="4.44538">
        <ele>606.8</ele>
        <time>2025-09-10T09:13:09Z</time>
      </trkpt>
      <trkpt lat="45.8268" lon="4.44541">
        <ele>607.6</ele>
        <time>2025-09-10T09:17:46Z</time>
      </trkpt>
      <trkpt lat="45.82678" lon="4.44542">
        <ele>607.6</ele>
        <time>2025-09-10T09:17:47Z</time>
      </trkpt>
      <trkpt lat="45.82676" lon="4.44543">
        <ele>607</ele>
        <time>2025-09-10T09:17:48Z</time>
      </trkpt>
      <trkpt lat="45.82672" lon="4.44545">
        <ele>606.8</ele>
        <time>2025-09-10T09:17:49Z</time>
      </trkpt>
      <trkpt lat="45.82668" lon="4.44548">
        <ele>606.6</ele>
        <time>2025-09-10T09:17:50Z</time>
      </trkpt>
      <trkpt lat="45.82663" lon="4.4455">
        <ele>606.2</ele>
        <time>2025-09-10T09:17:51Z</time>
      </trkpt>
      <trkpt lat="45.82658" lon="4.44552">
        <ele>605.6</ele>
        <time>2025-09-10T09:17:52Z</time>
      </trkpt>
      <trkpt lat="45.82654" lon="4.44555">
        <ele>605.4</ele>
        <time>2025-09-10T09:17:53Z</time>
      </trkpt>
      <trkpt lat="45.82648" lon="4.44556">
        <ele>605</ele>
        <time>2025-09-10T09:17:54Z</time>
      </trkpt>
      <trkpt lat="45.82643" lon="4.44558">
        <ele>604.6</ele>
        <time>2025-09-10T09:17:55Z</time>
      </trkpt>
      <trkpt lat="45.82637" lon="4.44559">
        <ele>604</ele>
        <time>2025-09-10T09:17:56Z</time>
      </trkpt>
      <trkpt lat="45.82632" lon="4.44561">
        <ele>603.4</ele>
        <time>2025-09-10T09:17:57Z</time>
      </trkpt>
      <trkpt lat="45.82627" lon="4.44563">
        <ele>602.8</ele>
        <time>2025-09-10T09:17:58Z</time>
      </trkpt>
      <trkpt lat="45.82622" lon="4.44565">
        <ele>602</ele>
        <time>2025-09-10T09:17:59Z</time>
      </trkpt>
      <trkpt lat="45.82616" lon="4.44566">
        <ele>601.4</ele>
        <time>2025-09-10T09:18:00Z</time>
      </trkpt>
      <trkpt lat="45.82611" lon="4.44569">
        <ele>600.6</ele>
        <time>2025-09-10T09:18:01Z</time>
      </trkpt>
      <trkpt lat="45.82607" lon="4.44571">
        <ele>599.8</ele>
        <time>2025-09-10T09:18:02Z</time>
      </trkpt>
      <trkpt lat="45.82603" lon="4.44574">
        <ele>599.2</ele>
        <time>2025-09-10T09:18:03Z</time>
      </trkpt>
      <trkpt lat="45.82599" lon="4.44576">
        <ele>598.6</ele>
        <time>2025-09-10T09:18:04Z</time>
      </trkpt>
      <trkpt lat="45.82596" lon="4.44578">
        <ele>598.6</ele>
        <time>2025-09-10T09:18:05Z</time>
      </trkpt>
      <trkpt lat="45.82591" lon="4.44578">
        <ele>598.2</ele>
        <time>2025-09-10T09:18:06Z</time>
      </trkpt>
      <trkpt lat="45.82587" lon="4.44578">
        <ele>597.8</ele>
        <time>2025-09-10T09:18:07Z</time>
      </trkpt>
      <trkpt lat="45.82582" lon="4.44575">
        <ele>597.4</ele>
        <time>2025-09-10T09:18:08Z</time>
      </trkpt>
      <trkpt lat="45.82575" lon="4.44572">
        <ele>597.2</ele>
        <time>2025-09-10T09:18:09Z</time>
      </trkpt>
      <trkpt lat="45.82571" lon="4.44568">
        <ele>596.8</ele>
        <time>2025-09-10T09:18:10Z</time>
      </trkpt>
      <trkpt lat="45.82566" lon="4.44565">
        <ele>596.6</ele>
        <time>2025-09-10T09:18:11Z</time>
      </trkpt>
      <trkpt lat="45.82561" lon="4.44562">
        <ele>596.4</ele>
        <time>2025-09-10T09:18:12Z</time>
      </trkpt>
      <trkpt lat="45.82556" lon="4.44559">
        <ele>596</ele>
        <time>2025-09-10T09:18:13Z</time>
      </trkpt>
      <trkpt lat="45.82552" lon="4.44556">
        <ele>595.8</ele>
        <time>2025-09-10T09:18:14Z</time>
      </trkpt>
      <trkpt lat="45.82548" lon="4.44552">
        <ele>595.4</ele>
        <time>2025-09-10T09:18:15Z</time>
      </trkpt>
      <trkpt lat="45.82543" lon="4.4455">
        <ele>595.2</ele>
        <time>2025-09-10T09:18:16Z</time>
      </trkpt>
      <trkpt lat="45.82539" lon="4.44547">
        <ele>595.2</ele>
        <time>2025-09-10T09:18:17Z</time>
      </trkpt>
      <trkpt lat="45.82536" lon="4.44546">
        <ele>595.4</ele>
        <time>2025-09-10T09:18:18Z</time>
      </trkpt>
      <trkpt lat="45.82532" lon="4.44546">
        <ele>595.8</ele>
        <time>2025-09-10T09:18:19Z</time>
      </trkpt>
      <trkpt lat="45.82529" lon="4.44547">
        <ele>595.8</ele>
        <time>2025-09-10T09:18:20Z</time>
      </trkpt>
      <trkpt lat="45.82526" lon="4.44547">
        <ele>595.8</ele>
        <time>2025-09-10T09:18:21Z</time>
      </trkpt>
      <trkpt lat="45.82524" lon="4.44548">
        <ele>596.2</ele>
        <time>2025-09-10T09:18:22Z</time>
      </trkpt>
      <trkpt lat="45.82522" lon="4.4455">
        <ele>596.2</ele>
        <time>2025-09-10T09:18:23Z</time>
      </trkpt>
      <trkpt lat="45.8252" lon="4.44552">
        <ele>596.6</ele>
        <time>2025-09-10T09:18:24Z</time>
      </trkpt>
      <trkpt lat="45.82518" lon="4.44554">
        <ele>596.6</ele>
        <time>2025-09-10T09:18:25Z</time>
      </trkpt>
      <trkpt lat="45.82515" lon="4.44556">
        <ele>596.6</ele>
        <time>2025-09-10T09:18:26Z</time>
      </trkpt>
      <trkpt lat="45.82513" lon="4.44559">
        <ele>596.8</ele>
        <time>2025-09-10T09:18:27Z</time>
      </trkpt>
      <trkpt lat="45.82511" lon="4.44561">
        <ele>596.8</ele>
        <time>2025-09-10T09:18:28Z</time>
      </trkpt>
      <trkpt lat="45.82509" lon="4.44564">
        <ele>597.2</ele>
        <time>2025-09-10T09:18:29Z</time>
      </trkpt>
      <trkpt lat="45.82507" lon="4.44566">
        <ele>597.2</ele>
        <time>2025-09-10T09:18:30Z</time>
      </trkpt>
      <trkpt lat="45.82505" lon="4.44568">
        <ele>597.4</ele>
        <time>2025-09-10T09:18:31Z</time>
      </trkpt>
      <trkpt lat="45.82503" lon="4.4457">
        <ele>597.4</ele>
        <time>2025-09-10T09:18:32Z</time>
      </trkpt>
      <trkpt lat="45.82501" lon="4.44571">
        <ele>597.6</ele>
        <time>2025-09-10T09:18:33Z</time>
      </trkpt>
      <trkpt lat="45.82499" lon="4.44572">
        <ele>597.6</ele>
        <time>2025-09-10T09:18:34Z</time>
      </trkpt>
      <trkpt lat="45.82497" lon="4.44574">
        <ele>598</ele>
        <time>2025-09-10T09:18:35Z</time>
      </trkpt>
      <trkpt lat="45.82495" lon="4.44577">
        <ele>598</ele>
        <time>2025-09-10T09:18:36Z</time>
      </trkpt>
      <trkpt lat="45.82493" lon="4.4458">
        <ele>598.2</ele>
        <time>2025-09-10T09:18:37Z</time>
      </trkpt>
      <trkpt lat="45.82492" lon="4.44581">
        <ele>598.2</ele>
        <time>2025-09-10T09:18:38Z</time>
      </trkpt>
      <trkpt lat="45.8249" lon="4.44583">
        <ele>598.2</ele>
        <time>2025-09-10T09:18:39Z</time>
      </trkpt>
      <trkpt lat="45.82488" lon="4.44585">
        <ele>598.4</ele>
        <time>2025-09-10T09:18:40Z</time>
      </trkpt>
      <trkpt lat="45.82487" lon="4.44586">
        <ele>598.4</ele>
        <time>2025-09-10T09:18:41Z</time>
      </trkpt>
      <trkpt lat="45.82485" lon="4.44588">
        <ele>598.4</ele>
        <time>2025-09-10T09:18:42Z</time>
      </trkpt>
      <trkpt lat="45.82483" lon="4.44589">
        <ele>598.8</ele>
        <time>2025-09-10T09:18:43Z</time>
      </trkpt>
      <trkpt lat="45.82481" lon="4.44591">
        <ele>598.8</ele>
        <time>2025-09-10T09:18:44Z</time>
      </trkpt>
      <trkpt lat="45.82479" lon="4.44593">
        <ele>598.8</ele>
        <time>2025-09-10T09:18:45Z</time>
      </trkpt>
      <trkpt lat="45.82477" lon="4.44594">
        <ele>599</ele>
        <time>2025-09-10T09:18:46Z</time>
      </trkpt>
      <trkpt lat="45.82475" lon="4.44596">
        <ele>599</ele>
        <time>2025-09-10T09:18:47Z</time>
      </trkpt>
      <trkpt lat="45.82473" lon="4.44597">
        <ele>599</ele>
        <time>2025-09-10T09:18:48Z</time>
      </trkpt>
      <trkpt lat="45.8247" lon="4.44598">
        <ele>599</ele>
        <time>2025-09-10T09:18:49Z</time>
      </trkpt>
      <trkpt lat="45.82468" lon="4.44599">
        <ele>599</ele>
        <time>2025-09-10T09:18:50Z</time>
      </trkpt>
      <trkpt lat="45.82465" lon="4.446">
        <ele>599</ele>
        <time>2025-09-10T09:18:51Z</time>
      </trkpt>
      <trkpt lat="45.82462" lon="4.44601">
        <ele>599</ele>
        <time>2025-09-10T09:18:52Z</time>
      </trkpt>
      <trkpt lat="45.82461" lon="4.446">
        <ele>599</ele>
        <time>2025-09-10T09:18:53Z</time>
      </trkpt>
      <trkpt lat="45.8246" lon="4.446">
        <ele>599</ele>
        <time>2025-09-10T09:18:54Z</time>
      </trkpt>
      <trkpt lat="45.82459" lon="4.44599">
        <ele>598.6</ele>
        <time>2025-09-10T09:18:55Z</time>
      </trkpt>
      <trkpt lat="45.82455" lon="4.44598">
        <ele>598</ele>
        <time>2025-09-10T09:19:05Z</time>
      </trkpt>
      <trkpt lat="45.82452" lon="4.44598">
        <ele>598</ele>
        <time>2025-09-10T09:19:06Z</time>
      </trkpt>
      <trkpt lat="45.8245" lon="4.44598">
        <ele>597.6</ele>
        <time>2025-09-10T09:19:07Z</time>
      </trkpt>
      <trkpt lat="45.82446" lon="4.44597">
        <ele>597.4</ele>
        <time>2025-09-10T09:19:08Z</time>
      </trkpt>
      <trkpt lat="45.82441" lon="4.44596">
        <ele>597.4</ele>
        <time>2025-09-10T09:19:09Z</time>
      </trkpt>
      <trkpt lat="45.82436" lon="4.44596">
        <ele>596.8</ele>
        <time>2025-09-10T09:19:10Z</time>
      </trkpt>
      <trkpt lat="45.8243" lon="4.44597">
        <ele>596.6</ele>
        <time>2025-09-10T09:19:11Z</time>
      </trkpt>
      <trkpt lat="45.82425" lon="4.44597">
        <ele>596.6</ele>
        <time>2025-09-10T09:19:12Z</time>
      </trkpt>
      <trkpt lat="45.8242" lon="4.44598">
        <ele>596.2</ele>
        <time>2025-09-10T09:19:13Z</time>
      </trkpt>
      <trkpt lat="45.82414" lon="4.44598">
        <ele>595.8</ele>
        <time>2025-09-10T09:19:14Z</time>
      </trkpt>
      <trkpt lat="45.82409" lon="4.44598">
        <ele>595.4</ele>
        <time>2025-09-10T09:19:15Z</time>
      </trkpt>
      <trkpt lat="45.82403" lon="4.44598">
        <ele>595</ele>
        <time>2025-09-10T09:19:16Z</time>
      </trkpt>
      <trkpt lat="45.82395" lon="4.44602">
        <ele>594.4</ele>
        <time>2025-09-10T09:19:17Z</time>
      </trkpt>
      <trkpt lat="45.82389" lon="4.44603">
        <ele>594</ele>
        <time>2025-09-10T09:19:18Z</time>
      </trkpt>
      <trkpt lat="45.82383" lon="4.44605">
        <ele>593.2</ele>
        <time>2025-09-10T09:19:19Z</time>
      </trkpt>
      <trkpt lat="45.82374" lon="4.44606">
        <ele>592.4</ele>
        <time>2025-09-10T09:19:20Z</time>
      </trkpt>
      <trkpt lat="45.82367" lon="4.44609">
        <ele>591.4</ele>
        <time>2025-09-10T09:19:21Z</time>
      </trkpt>
      <trkpt lat="45.82358" lon="4.44611">
        <ele>590.8</ele>
        <time>2025-09-10T09:19:22Z</time>
      </trkpt>
      <trkpt lat="45.8235" lon="4.44614">
        <ele>590.2</ele>
        <time>2025-09-10T09:19:23Z</time>
      </trkpt>
      <trkpt lat="45.82342" lon="4.44616">
        <ele>588.8</ele>
        <time>2025-09-10T09:19:24Z</time>
      </trkpt>
      <trkpt lat="45.82333" lon="4.44619">
        <ele>588</ele>
        <time>2025-09-10T09:19:25Z</time>
      </trkpt>
      <trkpt lat="45.82326" lon="4.44622">
        <ele>587.2</ele>
        <time>2025-09-10T09:19:26Z</time>
      </trkpt>
      <trkpt lat="45.82319" lon="4.44625">
        <ele>586.4</ele>
        <time>2025-09-10T09:19:27Z</time>
      </trkpt>
      <trkpt lat="45.82314" lon="4.44631">
        <ele>585.8</ele>
        <time>2025-09-10T09:19:28Z</time>
      </trkpt>
      <trkpt lat="45.82309" lon="4.44637">
        <ele>585.2</ele>
        <time>2025-09-10T09:19:29Z</time>
      </trkpt>
      <trkpt lat="45.82305" lon="4.44643">
        <ele>584.6</ele>
        <time>2025-09-10T09:19:30Z</time>
      </trkpt>
      <trkpt lat="45.82303" lon="4.44651">
        <ele>584.2</ele>
        <time>2025-09-10T09:19:31Z</time>
      </trkpt>
      <trkpt lat="45.823" lon="4.44658">
        <ele>583.8</ele>
        <time>2025-09-10T09:19:32Z</time>
      </trkpt>
      <trkpt lat="45.82297" lon="4.44665">
        <ele>583.4</ele>
        <time>2025-09-10T09:19:33Z</time>
      </trkpt>
      <trkpt lat="45.82295" lon="4.4467">
        <ele>583</ele>
        <time>2025-09-10T09:19:34Z</time>
      </trkpt>
      <trkpt lat="45.82292" lon="4.44675">
        <ele>582.8</ele>
        <time>2025-09-10T09:19:35Z</time>
      </trkpt>
      <trkpt lat="45.82289" lon="4.44679">
        <ele>582.8</ele>
        <time>2025-09-10T09:19:36Z</time>
      </trkpt>
      <trkpt lat="45.82288" lon="4.44683">
        <ele>582.2</ele>
        <time>2025-09-10T09:19:37Z</time>
      </trkpt>
      <trkpt lat="45.82285" lon="4.44687">
        <ele>582.2</ele>
        <time>2025-09-10T09:19:38Z</time>
      </trkpt>
      <trkpt lat="45.82284" lon="4.4469">
        <ele>582</ele>
        <time>2025-09-10T09:19:39Z</time>
      </trkpt>
      <trkpt lat="45.82282" lon="4.44694">
        <ele>582</ele>
        <time>2025-09-10T09:19:40Z</time>
      </trkpt>
      <trkpt lat="45.8228" lon="4.44697">
        <ele>581.6</ele>
        <time>2025-09-10T09:19:41Z</time>
      </trkpt>
      <trkpt lat="45.82278" lon="4.44699">
        <ele>581.2</ele>
        <time>2025-09-10T09:19:42Z</time>
      </trkpt>
      <trkpt lat="45.82276" lon="4.44702">
        <ele>580.8</ele>
        <time>2025-09-10T09:19:43Z</time>
      </trkpt>
      <trkpt lat="45.82274" lon="4.44705">
        <ele>580.6</ele>
        <time>2025-09-10T09:19:44Z</time>
      </trkpt>
      <trkpt lat="45.82272" lon="4.44709">
        <ele>580.4</ele>
        <time>2025-09-10T09:19:45Z</time>
      </trkpt>
      <trkpt lat="45.82269" lon="4.44713">
        <ele>580.2</ele>
        <time>2025-09-10T09:19:46Z</time>
      </trkpt>
      <trkpt lat="45.82267" lon="4.44717">
        <ele>580</ele>
        <time>2025-09-10T09:19:47Z</time>
      </trkpt>
      <trkpt lat="45.82263" lon="4.44721">
        <ele>579.6</ele>
        <time>2025-09-10T09:19:48Z</time>
      </trkpt>
      <trkpt lat="45.8226" lon="4.44725">
        <ele>579.4</ele>
        <time>2025-09-10T09:19:49Z</time>
      </trkpt>
      <trkpt lat="45.82255" lon="4.44729">
        <ele>579.4</ele>
        <time>2025-09-10T09:19:50Z</time>
      </trkpt>
      <trkpt lat="45.8225" lon="4.44733">
        <ele>578.6</ele>
        <time>2025-09-10T09:19:51Z</time>
      </trkpt>
      <trkpt lat="45.82246" lon="4.44737">
        <ele>578.2</ele>
        <time>2025-09-10T09:19:52Z</time>
      </trkpt>
      <trkpt lat="45.82241" lon="4.44741">
        <ele>577.8</ele>
        <time>2025-09-10T09:19:53Z</time>
      </trkpt>
      <trkpt lat="45.82237" lon="4.44746">
        <ele>577.6</ele>
        <time>2025-09-10T09:19:54Z</time>
      </trkpt>
      <trkpt lat="45.82233" lon="4.4475">
        <ele>577.2</ele>
        <time>2025-09-10T09:19:55Z</time>
      </trkpt>
      <trkpt lat="45.82231" lon="4.44757">
        <ele>577.2</ele>
        <time>2025-09-10T09:19:56Z</time>
      </trkpt>
      <trkpt lat="45.82233" lon="4.44762">
        <ele>576.6</ele>
        <time>2025-09-10T09:19:57Z</time>
      </trkpt>
      <trkpt lat="45.82234" lon="4.44768">
        <ele>576.4</ele>
        <time>2025-09-10T09:19:58Z</time>
      </trkpt>
      <trkpt lat="45.82236" lon="4.44773">
        <ele>576.4</ele>
        <time>2025-09-10T09:19:59Z</time>
      </trkpt>
      <trkpt lat="45.82236" lon="4.44773">
        <ele>576.2</ele>
        <time>2025-09-10T09:20:00Z</time>
      </trkpt>
      <trkpt lat="45.82241" lon="4.4478">
        <ele>576.2</ele>
        <time>2025-09-10T09:20:01Z</time>
      </trkpt>
      <trkpt lat="45.82243" lon="4.44783">
        <ele>576.2</ele>
        <time>2025-09-10T09:20:02Z</time>
      </trkpt>
      <trkpt lat="45.82243" lon="4.44786">
        <ele>576.2</ele>
        <time>2025-09-10T09:20:03Z</time>
      </trkpt>
      <trkpt lat="45.82245" lon="4.44788">
        <ele>576.4</ele>
        <time>2025-09-10T09:20:04Z</time>
      </trkpt>
      <trkpt lat="45.82247" lon="4.44791">
        <ele>576.4</ele>
        <time>2025-09-10T09:20:05Z</time>
      </trkpt>
      <trkpt lat="45.82249" lon="4.44791">
        <ele>577</ele>
        <time>2025-09-10T09:20:06Z</time>
      </trkpt>
      <trkpt lat="45.82252" lon="4.44792">
        <ele>577</ele>
        <time>2025-09-10T09:20:07Z</time>
      </trkpt>
      <trkpt lat="45.82254" lon="4.44793">
        <ele>577.4</ele>
        <time>2025-09-10T09:20:08Z</time>
      </trkpt>
      <trkpt lat="45.82255" lon="4.44794">
        <ele>577.4</ele>
        <time>2025-09-10T09:20:09Z</time>
      </trkpt>
      <trkpt lat="45.82257" lon="4.44795">
        <ele>577.4</ele>
        <time>2025-09-10T09:20:10Z</time>
      </trkpt>
      <trkpt lat="45.82259" lon="4.44795">
        <ele>577.8</ele>
        <time>2025-09-10T09:20:11Z</time>
      </trkpt>
      <trkpt lat="45.82261" lon="4.44795">
        <ele>577.8</ele>
        <time>2025-09-10T09:20:12Z</time>
      </trkpt>
      <trkpt lat="45.82263" lon="4.44794">
        <ele>578.2</ele>
        <time>2025-09-10T09:20:13Z</time>
      </trkpt>
      <trkpt lat="45.82264" lon="4.44794">
        <ele>578.2</ele>
        <time>2025-09-10T09:20:14Z</time>
      </trkpt>
      <trkpt lat="45.82266" lon="4.44794">
        <ele>578.4</ele>
        <time>2025-09-10T09:20:15Z</time>
      </trkpt>
      <trkpt lat="45.82268" lon="4.44794">
        <ele>578.4</ele>
        <time>2025-09-10T09:20:16Z</time>
      </trkpt>
      <trkpt lat="45.82269" lon="4.44794">
        <ele>578.6</ele>
        <time>2025-09-10T09:20:17Z</time>
      </trkpt>
      <trkpt lat="45.82271" lon="4.44794">
        <ele>579</ele>
        <time>2025-09-10T09:20:18Z</time>
      </trkpt>
      <trkpt lat="45.82272" lon="4.44794">
        <ele>579</ele>
        <time>2025-09-10T09:20:19Z</time>
      </trkpt>
      <trkpt lat="45.82274" lon="4.44794">
        <ele>579.2</ele>
        <time>2025-09-10T09:20:20Z</time>
      </trkpt>
      <trkpt lat="45.82276" lon="4.44795">
        <ele>579.2</ele>
        <time>2025-09-10T09:20:21Z</time>
      </trkpt>
      <trkpt lat="45.82277" lon="4.44796">
        <ele>579.2</ele>
        <time>2025-09-10T09:20:22Z</time>
      </trkpt>
      <trkpt lat="45.82279" lon="4.44797">
        <ele>579.6</ele>
        <time>2025-09-10T09:20:23Z</time>
      </trkpt>
      <trkpt lat="45.8228" lon="4.44798">
        <ele>579.6</ele>
        <time>2025-09-10T09:20:24Z</time>
      </trkpt>
      <trkpt lat="45.82282" lon="4.44798">
        <ele>580</ele>
        <time>2025-09-10T09:20:25Z</time>
      </trkpt>
      <trkpt lat="45.82283" lon="4.44798">
        <ele>580</ele>
        <time>2025-09-10T09:20:26Z</time>
      </trkpt>
      <trkpt lat="45.82285" lon="4.44798">
        <ele>580.2</ele>
        <time>2025-09-10T09:20:27Z</time>
      </trkpt>
      <trkpt lat="45.82286" lon="4.44798">
        <ele>580.2</ele>
        <time>2025-09-10T09:20:28Z</time>
      </trkpt>
      <trkpt lat="45.82288" lon="4.44799">
        <ele>580.4</ele>
        <time>2025-09-10T09:20:29Z</time>
      </trkpt>
      <trkpt lat="45.82289" lon="4.448">
        <ele>580.4</ele>
        <time>2025-09-10T09:20:30Z</time>
      </trkpt>
      <trkpt lat="45.8229" lon="4.44801">
        <ele>580.8</ele>
        <time>2025-09-10T09:20:31Z</time>
      </trkpt>
      <trkpt lat="45.82293" lon="4.44802">
        <ele>580.8</ele>
        <time>2025-09-10T09:20:32Z</time>
      </trkpt>
      <trkpt lat="45.82295" lon="4.44802">
        <ele>580.8</ele>
        <time>2025-09-10T09:20:33Z</time>
      </trkpt>
      <trkpt lat="45.82296" lon="4.44802">
        <ele>581</ele>
        <time>2025-09-10T09:20:34Z</time>
      </trkpt>
      <trkpt lat="45.82298" lon="4.44802">
        <ele>581</ele>
        <time>2025-09-10T09:20:35Z</time>
      </trkpt>
      <trkpt lat="45.82299" lon="4.44802">
        <ele>581.2</ele>
        <time>2025-09-10T09:20:36Z</time>
      </trkpt>
      <trkpt lat="45.82301" lon="4.44802">
        <ele>581.2</ele>
        <time>2025-09-10T09:20:37Z</time>
      </trkpt>
      <trkpt lat="45.82302" lon="4.44802">
        <ele>581.6</ele>
        <time>2025-09-10T09:20:38Z</time>
      </trkpt>
      <trkpt lat="45.82304" lon="4.44802">
        <ele>581.6</ele>
        <time>2025-09-10T09:20:39Z</time>
      </trkpt>
      <trkpt lat="45.82305" lon="4.44802">
        <ele>582</ele>
        <time>2025-09-10T09:20:40Z</time>
      </trkpt>
      <trkpt lat="45.82306" lon="4.44802">
        <ele>582</ele>
        <time>2025-09-10T09:20:41Z</time>
      </trkpt>
      <trkpt lat="45.82308" lon="4.44802">
        <ele>582.2</ele>
        <time>2025-09-10T09:20:42Z</time>
      </trkpt>
      <trkpt lat="45.82309" lon="4.44802">
        <ele>582.6</ele>
        <time>2025-09-10T09:20:43Z</time>
      </trkpt>
      <trkpt lat="45.8231" lon="4.44802">
        <ele>582.6</ele>
        <time>2025-09-10T09:20:44Z</time>
      </trkpt>
      <trkpt lat="45.82311" lon="4.44803">
        <ele>582.8</ele>
        <time>2025-09-10T09:20:45Z</time>
      </trkpt>
      <trkpt lat="45.82313" lon="4.44803">
        <ele>582.8</ele>
        <time>2025-09-10T09:20:46Z</time>
      </trkpt>
      <trkpt lat="45.82313" lon="4.44803">
        <ele>582.8</ele>
        <time>2025-09-10T09:20:47Z</time>
      </trkpt>
      <trkpt lat="45.82314" lon="4.44803">
        <ele>583.2</ele>
        <time>2025-09-10T09:20:48Z</time>
      </trkpt>
      <trkpt lat="45.82315" lon="4.44803">
        <ele>583.2</ele>
        <time>2025-09-10T09:20:49Z</time>
      </trkpt>
      <trkpt lat="45.82316" lon="4.44802">
        <ele>583.4</ele>
        <time>2025-09-10T09:20:50Z</time>
      </trkpt>
      <trkpt lat="45.82317" lon="4.44802">
        <ele>583.4</ele>
        <time>2025-09-10T09:20:51Z</time>
      </trkpt>
      <trkpt lat="45.82319" lon="4.44802">
        <ele>583.4</ele>
        <time>2025-09-10T09:20:52Z</time>
      </trkpt>
      <trkpt lat="45.8232" lon="4.44802">
        <ele>583.6</ele>
        <time>2025-09-10T09:20:53Z</time>
      </trkpt>
      <trkpt lat="45.82321" lon="4.44802">
        <ele>583.6</ele>
        <time>2025-09-10T09:20:54Z</time>
      </trkpt>
      <trkpt lat="45.82322" lon="4.44802">
        <ele>583.8</ele>
        <time>2025-09-10T09:20:55Z</time>
      </trkpt>
      <trkpt lat="45.82323" lon="4.44803">
        <ele>583.8</ele>
        <time>2025-09-10T09:20:56Z</time>
      </trkpt>
      <trkpt lat="45.82325" lon="4.44803">
        <ele>584</ele>
        <time>2025-09-10T09:20:57Z</time>
      </trkpt>
      <trkpt lat="45.82326" lon="4.44804">
        <ele>584.2</ele>
        <time>2025-09-10T09:20:58Z</time>
      </trkpt>
      <trkpt lat="45.82328" lon="4.44805">
        <ele>584.6</ele>
        <time>2025-09-10T09:20:59Z</time>
      </trkpt>
      <trkpt lat="45.82329" lon="4.44805">
        <ele>584.6</ele>
        <time>2025-09-10T09:21:00Z</time>
      </trkpt>
      <trkpt lat="45.8233" lon="4.44804">
        <ele>584.8</ele>
        <time>2025-09-10T09:21:01Z</time>
      </trkpt>
      <trkpt lat="45.82332" lon="4.44804">
        <ele>585</ele>
        <time>2025-09-10T09:21:02Z</time>
      </trkpt>
      <trkpt lat="45.82333" lon="4.44804">
        <ele>585</ele>
        <time>2025-09-10T09:21:03Z</time>
      </trkpt>
      <trkpt lat="45.82335" lon="4.44804">
        <ele>585.2</ele>
        <time>2025-09-10T09:21:04Z</time>
      </trkpt>
      <trkpt lat="45.82336" lon="4.44804">
        <ele>585.2</ele>
        <time>2025-09-10T09:21:05Z</time>
      </trkpt>
      <trkpt lat="45.82338" lon="4.44804">
        <ele>585.6</ele>
        <time>2025-09-10T09:21:06Z</time>
      </trkpt>
      <trkpt lat="45.82339" lon="4.44804">
        <ele>585.6</ele>
        <time>2025-09-10T09:21:07Z</time>
      </trkpt>
      <trkpt lat="45.82341" lon="4.44804">
        <ele>585.6</ele>
        <time>2025-09-10T09:21:08Z</time>
      </trkpt>
      <trkpt lat="45.82342" lon="4.44804">
        <ele>585.8</ele>
        <time>2025-09-10T09:21:09Z</time>
      </trkpt>
      <trkpt lat="45.82343" lon="4.44804">
        <ele>586</ele>
        <time>2025-09-10T09:21:10Z</time>
      </trkpt>
      <trkpt lat="45.82344" lon="4.44804">
        <ele>586</ele>
        <time>2025-09-10T09:21:11Z</time>
      </trkpt>
      <trkpt lat="45.82345" lon="4.44804">
        <ele>586</ele>
        <time>2025-09-10T09:21:12Z</time>
      </trkpt>
      <trkpt lat="45.82346" lon="4.44804">
        <ele>586.4</ele>
        <time>2025-09-10T09:21:13Z</time>
      </trkpt>
      <trkpt lat="45.82347" lon="4.44804">
        <ele>586.4</ele>
        <time>2025-09-10T09:21:14Z</time>
      </trkpt>
      <trkpt lat="45.82348" lon="4.44804">
        <ele>586.6</ele>
        <time>2025-09-10T09:21:15Z</time>
      </trkpt>
      <trkpt lat="45.82349" lon="4.44803">
        <ele>586.6</ele>
        <time>2025-09-10T09:21:16Z</time>
      </trkpt>
      <trkpt lat="45.8235" lon="4.44803">
        <ele>586.8</ele>
        <time>2025-09-10T09:21:17Z</time>
      </trkpt>
      <trkpt lat="45.82351" lon="4.44802">
        <ele>586.8</ele>
        <time>2025-09-10T09:21:18Z</time>
      </trkpt>
      <trkpt lat="45.82352" lon="4.44802">
        <ele>587.2</ele>
        <time>2025-09-10T09:21:19Z</time>
      </trkpt>
      <trkpt lat="45.82352" lon="4.44802">
        <ele>587.2</ele>
        <time>2025-09-10T09:21:20Z</time>
      </trkpt>
      <trkpt lat="45.82353" lon="4.44801">
        <ele>587.4</ele>
        <time>2025-09-10T09:21:21Z</time>
      </trkpt>
      <trkpt lat="45.82354" lon="4.44801">
        <ele>587.4</ele>
        <time>2025-09-10T09:21:22Z</time>
      </trkpt>
      <trkpt lat="45.82355" lon="4.448">
        <ele>587.6</ele>
        <time>2025-09-10T09:21:23Z</time>
      </trkpt>
      <trkpt lat="45.82356" lon="4.44801">
        <ele>587.6</ele>
        <time>2025-09-10T09:21:24Z</time>
      </trkpt>
      <trkpt lat="45.82357" lon="4.44801">
        <ele>587.8</ele>
        <time>2025-09-10T09:21:25Z</time>
      </trkpt>
      <trkpt lat="45.82358" lon="4.44802">
        <ele>587.8</ele>
        <time>2025-09-10T09:21:26Z</time>
      </trkpt>
      <trkpt lat="45.82359" lon="4.44803">
        <ele>588.2</ele>
        <time>2025-09-10T09:21:27Z</time>
      </trkpt>
      <trkpt lat="45.82361" lon="4.44803">
        <ele>588.2</ele>
        <time>2025-09-10T09:21:28Z</time>
      </trkpt>
      <trkpt lat="45.82362" lon="4.44803">
        <ele>588.2</ele>
        <time>2025-09-10T09:21:29Z</time>
      </trkpt>
      <trkpt lat="45.82363" lon="4.44803">
        <ele>588.6</ele>
        <time>2025-09-10T09:21:30Z</time>
      </trkpt>
      <trkpt lat="45.82364" lon="4.44804">
        <ele>588.6</ele>
        <time>2025-09-10T09:21:31Z</time>
      </trkpt>
      <trkpt lat="45.82365" lon="4.44805">
        <ele>588.8</ele>
        <time>2025-09-10T09:21:32Z</time>
      </trkpt>
      <trkpt lat="45.82366" lon="4.44806">
        <ele>588.8</ele>
        <time>2025-09-10T09:21:33Z</time>
      </trkpt>
      <trkpt lat="45.82368" lon="4.44806">
        <ele>588.8</ele>
        <time>2025-09-10T09:21:34Z</time>
      </trkpt>
      <trkpt lat="45.82369" lon="4.44807">
        <ele>588.8</ele>
        <time>2025-09-10T09:21:35Z</time>
      </trkpt>
      <trkpt lat="45.8237" lon="4.44807">
        <ele>589</ele>
        <time>2025-09-10T09:21:36Z</time>
      </trkpt>
      <trkpt lat="45.82371" lon="4.44808">
        <ele>589</ele>
        <time>2025-09-10T09:21:37Z</time>
      </trkpt>
      <trkpt lat="45.82372" lon="4.44808">
        <ele>589</ele>
        <time>2025-09-10T09:21:38Z</time>
      </trkpt>
      <trkpt lat="45.82373" lon="4.44809">
        <ele>589.4</ele>
        <time>2025-09-10T09:21:39Z</time>
      </trkpt>
      <trkpt lat="45.82374" lon="4.44809">
        <ele>589.4</ele>
        <time>2025-09-10T09:21:40Z</time>
      </trkpt>
      <trkpt lat="45.82376" lon="4.44809">
        <ele>589.6</ele>
        <time>2025-09-10T09:21:41Z</time>
      </trkpt>
      <trkpt lat="45.82377" lon="4.44809">
        <ele>589.6</ele>
        <time>2025-09-10T09:21:42Z</time>
      </trkpt>
      <trkpt lat="45.82378" lon="4.44809">
        <ele>589.8</ele>
        <time>2025-09-10T09:21:43Z</time>
      </trkpt>
      <trkpt lat="45.82379" lon="4.4481">
        <ele>589.8</ele>
        <time>2025-09-10T09:21:44Z</time>
      </trkpt>
      <trkpt lat="45.82379" lon="4.4481">
        <ele>590</ele>
        <time>2025-09-10T09:21:45Z</time>
      </trkpt>
      <trkpt lat="45.8238" lon="4.44811">
        <ele>590</ele>
        <time>2025-09-10T09:21:46Z</time>
      </trkpt>
      <trkpt lat="45.82382" lon="4.44811">
        <ele>590</ele>
        <time>2025-09-10T09:21:47Z</time>
      </trkpt>
      <trkpt lat="45.82383" lon="4.44812">
        <ele>590.2</ele>
        <time>2025-09-10T09:21:48Z</time>
      </trkpt>
      <trkpt lat="45.82384" lon="4.44812">
        <ele>590.2</ele>
        <time>2025-09-10T09:21:49Z</time>
      </trkpt>
      <trkpt lat="45.82385" lon="4.44812">
        <ele>590.2</ele>
        <time>2025-09-10T09:21:50Z</time>
      </trkpt>
      <trkpt lat="45.82386" lon="4.44813">
        <ele>590.4</ele>
        <time>2025-09-10T09:21:51Z</time>
      </trkpt>
      <trkpt lat="45.82387" lon="4.44814">
        <ele>590.4</ele>
        <time>2025-09-10T09:21:52Z</time>
      </trkpt>
      <trkpt lat="45.82388" lon="4.44815">
        <ele>590.4</ele>
        <time>2025-09-10T09:21:53Z</time>
      </trkpt>
      <trkpt lat="45.8239" lon="4.44815">
        <ele>590.8</ele>
        <time>2025-09-10T09:21:54Z</time>
      </trkpt>
      <trkpt lat="45.82391" lon="4.44816">
        <ele>590.8</ele>
        <time>2025-09-10T09:21:55Z</time>
      </trkpt>
      <trkpt lat="45.82392" lon="4.44818">
        <ele>590.8</ele>
        <time>2025-09-10T09:21:56Z</time>
      </trkpt>
      <trkpt lat="45.82392" lon="4.44819">
        <ele>591.2</ele>
        <time>2025-09-10T09:21:57Z</time>
      </trkpt>
      <trkpt lat="45.82394" lon="4.4482">
        <ele>591.4</ele>
        <time>2025-09-10T09:21:58Z</time>
      </trkpt>
      <trkpt lat="45.82395" lon="4.4482">
        <ele>591.4</ele>
        <time>2025-09-10T09:21:59Z</time>
      </trkpt>
      <trkpt lat="45.82396" lon="4.44821">
        <ele>591.8</ele>
        <time>2025-09-10T09:22:00Z</time>
      </trkpt>
      <trkpt lat="45.82397" lon="4.44822">
        <ele>591.8</ele>
        <time>2025-09-10T09:22:01Z</time>
      </trkpt>
      <trkpt lat="45.82398" lon="4.44822">
        <ele>592</ele>
        <time>2025-09-10T09:22:02Z</time>
      </trkpt>
      <trkpt lat="45.82399" lon="4.44822">
        <ele>592</ele>
        <time>2025-09-10T09:22:03Z</time>
      </trkpt>
      <trkpt lat="45.824" lon="4.44823">
        <ele>592</ele>
        <time>2025-09-10T09:22:04Z</time>
      </trkpt>
      <trkpt lat="45.82401" lon="4.44824">
        <ele>592</ele>
        <time>2025-09-10T09:22:05Z</time>
      </trkpt>
      <trkpt lat="45.82402" lon="4.44825">
        <ele>592</ele>
        <time>2025-09-10T09:22:06Z</time>
      </trkpt>
      <trkpt lat="45.82403" lon="4.44827">
        <ele>592.6</ele>
        <time>2025-09-10T09:22:07Z</time>
      </trkpt>
      <trkpt lat="45.82404" lon="4.44828">
        <ele>592.6</ele>
        <time>2025-09-10T09:22:08Z</time>
      </trkpt>
      <trkpt lat="45.82405" lon="4.44828">
        <ele>592.8</ele>
        <time>2025-09-10T09:22:09Z</time>
      </trkpt>
      <trkpt lat="45.82406" lon="4.44829">
        <ele>592.8</ele>
        <time>2025-09-10T09:22:10Z</time>
      </trkpt>
      <trkpt lat="45.82406" lon="4.4483">
        <ele>592.8</ele>
        <time>2025-09-10T09:22:11Z</time>
      </trkpt>
      <trkpt lat="45.82407" lon="4.44831">
        <ele>592.8</ele>
        <time>2025-09-10T09:22:12Z</time>
      </trkpt>
      <trkpt lat="45.82408" lon="4.44832">
        <ele>593</ele>
        <time>2025-09-10T09:22:13Z</time>
      </trkpt>
      <trkpt lat="45.82408" lon="4.44833">
        <ele>593</ele>
        <time>2025-09-10T09:22:14Z</time>
      </trkpt>
      <trkpt lat="45.82409" lon="4.44834">
        <ele>593.2</ele>
        <time>2025-09-10T09:22:15Z</time>
      </trkpt>
      <trkpt lat="45.8241" lon="4.44835">
        <ele>593.2</ele>
        <time>2025-09-10T09:22:16Z</time>
      </trkpt>
      <trkpt lat="45.82411" lon="4.44836">
        <ele>593.6</ele>
        <time>2025-09-10T09:22:17Z</time>
      </trkpt>
      <trkpt lat="45.82412" lon="4.44837">
        <ele>593.6</ele>
        <time>2025-09-10T09:22:18Z</time>
      </trkpt>
      <trkpt lat="45.82413" lon="4.44838">
        <ele>593.6</ele>
        <time>2025-09-10T09:22:19Z</time>
      </trkpt>
      <trkpt lat="45.82413" lon="4.44838">
        <ele>593.8</ele>
        <time>2025-09-10T09:22:20Z</time>
      </trkpt>
      <trkpt lat="45.82414" lon="4.44839">
        <ele>593.8</ele>
        <time>2025-09-10T09:22:21Z</time>
      </trkpt>
      <trkpt lat="45.82415" lon="4.44841">
        <ele>593.8</ele>
        <time>2025-09-10T09:22:22Z</time>
      </trkpt>
      <trkpt lat="45.82415" lon="4.44842">
        <ele>594.2</ele>
        <time>2025-09-10T09:22:23Z</time>
      </trkpt>
      <trkpt lat="45.82415" lon="4.44844">
        <ele>594.2</ele>
        <time>2025-09-10T09:22:24Z</time>
      </trkpt>
      <trkpt lat="45.82416" lon="4.44845">
        <ele>594.6</ele>
        <time>2025-09-10T09:22:25Z</time>
      </trkpt>
      <trkpt lat="45.82417" lon="4.44846">
        <ele>594.6</ele>
        <time>2025-09-10T09:22:26Z</time>
      </trkpt>
      <trkpt lat="45.82418" lon="4.44847">
        <ele>594.8</ele>
        <time>2025-09-10T09:22:27Z</time>
      </trkpt>
      <trkpt lat="45.82419" lon="4.44849">
        <ele>594.8</ele>
        <time>2025-09-10T09:22:28Z</time>
      </trkpt>
      <trkpt lat="45.82419" lon="4.44851">
        <ele>595</ele>
        <time>2025-09-10T09:22:29Z</time>
      </trkpt>
      <trkpt lat="45.8242" lon="4.44853">
        <ele>595</ele>
        <time>2025-09-10T09:22:30Z</time>
      </trkpt>
      <trkpt lat="45.8242" lon="4.44855">
        <ele>595</ele>
        <time>2025-09-10T09:22:31Z</time>
      </trkpt>
      <trkpt lat="45.8242" lon="4.44857">
        <ele>595.2</ele>
        <time>2025-09-10T09:22:32Z</time>
      </trkpt>
      <trkpt lat="45.8242" lon="4.44858">
        <ele>595.2</ele>
        <time>2025-09-10T09:22:33Z</time>
      </trkpt>
      <trkpt lat="45.82421" lon="4.4486">
        <ele>595.2</ele>
        <time>2025-09-10T09:22:34Z</time>
      </trkpt>
      <trkpt lat="45.82421" lon="4.44862">
        <ele>595.2</ele>
        <time>2025-09-10T09:22:35Z</time>
      </trkpt>
      <trkpt lat="45.82421" lon="4.44864">
        <ele>595.4</ele>
        <time>2025-09-10T09:22:36Z</time>
      </trkpt>
      <trkpt lat="45.82422" lon="4.44866">
        <ele>595.4</ele>
        <time>2025-09-10T09:22:37Z</time>
      </trkpt>
      <trkpt lat="45.82422" lon="4.44867">
        <ele>595.8</ele>
        <time>2025-09-10T09:22:38Z</time>
      </trkpt>
      <trkpt lat="45.82422" lon="4.44869">
        <ele>595.8</ele>
        <time>2025-09-10T09:22:39Z</time>
      </trkpt>
      <trkpt lat="45.82423" lon="4.44871">
        <ele>595.8</ele>
        <time>2025-09-10T09:22:40Z</time>
      </trkpt>
      <trkpt lat="45.82423" lon="4.44872">
        <ele>596</ele>
        <time>2025-09-10T09:22:41Z</time>
      </trkpt>
      <trkpt lat="45.82424" lon="4.44874">
        <ele>596</ele>
        <time>2025-09-10T09:22:42Z</time>
      </trkpt>
      <trkpt lat="45.82424" lon="4.44875">
        <ele>596</ele>
        <time>2025-09-10T09:22:43Z</time>
      </trkpt>
      <trkpt lat="45.82424" lon="4.44877">
        <ele>596.2</ele>
        <time>2025-09-10T09:22:44Z</time>
      </trkpt>
      <trkpt lat="45.82424" lon="4.44879">
        <ele>596.2</ele>
        <time>2025-09-10T09:22:45Z</time>
      </trkpt>
      <trkpt lat="45.82424" lon="4.44881">
        <ele>596.4</ele>
        <time>2025-09-10T09:22:46Z</time>
      </trkpt>
      <trkpt lat="45.82424" lon="4.44882">
        <ele>596.4</ele>
        <time>2025-09-10T09:22:47Z</time>
      </trkpt>
      <trkpt lat="45.82425" lon="4.44884">
        <ele>596.4</ele>
        <time>2025-09-10T09:22:48Z</time>
      </trkpt>
      <trkpt lat="45.82425" lon="4.44885">
        <ele>596.8</ele>
        <time>2025-09-10T09:22:49Z</time>
      </trkpt>
      <trkpt lat="45.82426" lon="4.44887">
        <ele>596.8</ele>
        <time>2025-09-10T09:22:50Z</time>
      </trkpt>
      <trkpt lat="45.82426" lon="4.44889">
        <ele>597</ele>
        <time>2025-09-10T09:22:51Z</time>
      </trkpt>
      <trkpt lat="45.82426" lon="4.4489">
        <ele>597</ele>
        <time>2025-09-10T09:22:52Z</time>
      </trkpt>
      <trkpt lat="45.82426" lon="4.44892">
        <ele>597.2</ele>
        <time>2025-09-10T09:22:53Z</time>
      </trkpt>
      <trkpt lat="45.82426" lon="4.44894">
        <ele>597.2</ele>
        <time>2025-09-10T09:22:54Z</time>
      </trkpt>
      <trkpt lat="45.82426" lon="4.44895">
        <ele>597.6</ele>
        <time>2025-09-10T09:22:55Z</time>
      </trkpt>
      <trkpt lat="45.82425" lon="4.44897">
        <ele>597.6</ele>
        <time>2025-09-10T09:22:56Z</time>
      </trkpt>
      <trkpt lat="45.82425" lon="4.44899">
        <ele>597.8</ele>
        <time>2025-09-10T09:22:57Z</time>
      </trkpt>
      <trkpt lat="45.82425" lon="4.44901">
        <ele>596.4</ele>
        <time>2025-09-10T09:22:58Z</time>
      </trkpt>
      <trkpt lat="45.82425" lon="4.44904">
        <ele>597</ele>
        <time>2025-09-10T09:22:59Z</time>
      </trkpt>
      <trkpt lat="45.82425" lon="4.44906">
        <ele>597.2</ele>
        <time>2025-09-10T09:23:00Z</time>
      </trkpt>
      <trkpt lat="45.82425" lon="4.44908">
        <ele>597.2</ele>
        <time>2025-09-10T09:23:01Z</time>
      </trkpt>
      <trkpt lat="45.82425" lon="4.4491">
        <ele>597.6</ele>
        <time>2025-09-10T09:23:02Z</time>
      </trkpt>
      <trkpt lat="45.82424" lon="4.44912">
        <ele>597.6</ele>
        <time>2025-09-10T09:23:03Z</time>
      </trkpt>
      <trkpt lat="45.82425" lon="4.44914">
        <ele>597.6</ele>
        <time>2025-09-10T09:23:04Z</time>
      </trkpt>
      <trkpt lat="45.82425" lon="4.44916">
        <ele>598</ele>
        <time>2025-09-10T09:23:05Z</time>
      </trkpt>
      <trkpt lat="45.82425" lon="4.44918">
        <ele>598</ele>
        <time>2025-09-10T09:23:06Z</time>
      </trkpt>
      <trkpt lat="45.82426" lon="4.4492">
        <ele>598</ele>
        <time>2025-09-10T09:23:07Z</time>
      </trkpt>
      <trkpt lat="45.82427" lon="4.44922">
        <ele>598.2</ele>
        <time>2025-09-10T09:23:08Z</time>
      </trkpt>
      <trkpt lat="45.82429" lon="4.44924">
        <ele>598.2</ele>
        <time>2025-09-10T09:23:09Z</time>
      </trkpt>
      <trkpt lat="45.8243" lon="4.44925">
        <ele>598.2</ele>
        <time>2025-09-10T09:23:10Z</time>
      </trkpt>
      <trkpt lat="45.82431" lon="4.44927">
        <ele>598.4</ele>
        <time>2025-09-10T09:23:11Z</time>
      </trkpt>
      <trkpt lat="45.82433" lon="4.44928">
        <ele>598.4</ele>
        <time>2025-09-10T09:23:12Z</time>
      </trkpt>
      <trkpt lat="45.82434" lon="4.44929">
        <ele>598.6</ele>
        <time>2025-09-10T09:23:13Z</time>
      </trkpt>
      <trkpt lat="45.82436" lon="4.4493">
        <ele>598.6</ele>
        <time>2025-09-10T09:23:14Z</time>
      </trkpt>
      <trkpt lat="45.82437" lon="4.44931">
        <ele>598.6</ele>
        <time>2025-09-10T09:23:15Z</time>
      </trkpt>
      <trkpt lat="45.82439" lon="4.44932">
        <ele>598.6</ele>
        <time>2025-09-10T09:23:16Z</time>
      </trkpt>
      <trkpt lat="45.82441" lon="4.44933">
        <ele>598.6</ele>
        <time>2025-09-10T09:23:17Z</time>
      </trkpt>
      <trkpt lat="45.82442" lon="4.44933">
        <ele>598.6</ele>
        <time>2025-09-10T09:23:18Z</time>
      </trkpt>
      <trkpt lat="45.82444" lon="4.44934">
        <ele>599</ele>
        <time>2025-09-10T09:23:19Z</time>
      </trkpt>
      <trkpt lat="45.82446" lon="4.44935">
        <ele>599</ele>
        <time>2025-09-10T09:23:20Z</time>
      </trkpt>
      <trkpt lat="45.82447" lon="4.44935">
        <ele>599</ele>
        <time>2025-09-10T09:23:21Z</time>
      </trkpt>
      <trkpt lat="45.82449" lon="4.44935">
        <ele>599.4</ele>
        <time>2025-09-10T09:23:22Z</time>
      </trkpt>
      <trkpt lat="45.82451" lon="4.44936">
        <ele>599.4</ele>
        <time>2025-09-10T09:23:23Z</time>
      </trkpt>
      <trkpt lat="45.82452" lon="4.44936">
        <ele>599.4</ele>
        <time>2025-09-10T09:23:24Z</time>
      </trkpt>
      <trkpt lat="45.82454" lon="4.44937">
        <ele>599.6</ele>
        <time>2025-09-10T09:23:25Z</time>
      </trkpt>
      <trkpt lat="45.82456" lon="4.44937">
        <ele>599.6</ele>
        <time>2025-09-10T09:23:26Z</time>
      </trkpt>
      <trkpt lat="45.82457" lon="4.44938">
        <ele>599.6</ele>
        <time>2025-09-10T09:23:27Z</time>
      </trkpt>
      <trkpt lat="45.82459" lon="4.44938">
        <ele>599.6</ele>
        <time>2025-09-10T09:23:28Z</time>
      </trkpt>
      <trkpt lat="45.8246" lon="4.44939">
        <ele>599.6</ele>
        <time>2025-09-10T09:23:29Z</time>
      </trkpt>
      <trkpt lat="45.82462" lon="4.4494">
        <ele>599.8</ele>
        <time>2025-09-10T09:23:30Z</time>
      </trkpt>
      <trkpt lat="45.82463" lon="4.44941">
        <ele>600</ele>
        <time>2025-09-10T09:23:31Z</time>
      </trkpt>
      <trkpt lat="45.82464" lon="4.44943">
        <ele>600.2</ele>
        <time>2025-09-10T09:23:32Z</time>
      </trkpt>
      <trkpt lat="45.82466" lon="4.44944">
        <ele>600.2</ele>
        <time>2025-09-10T09:23:33Z</time>
      </trkpt>
      <trkpt lat="45.82467" lon="4.44945">
        <ele>600.4</ele>
        <time>2025-09-10T09:23:34Z</time>
      </trkpt>
      <trkpt lat="45.82469" lon="4.44946">
        <ele>600.4</ele>
        <time>2025-09-10T09:23:35Z</time>
      </trkpt>
      <trkpt lat="45.8247" lon="4.44947">
        <ele>600.4</ele>
        <time>2025-09-10T09:23:36Z</time>
      </trkpt>
      <trkpt lat="45.82472" lon="4.44948">
        <ele>600.4</ele>
        <time>2025-09-10T09:23:37Z</time>
      </trkpt>
      <trkpt lat="45.82473" lon="4.44948">
        <ele>600.4</ele>
        <time>2025-09-10T09:23:38Z</time>
      </trkpt>
      <trkpt lat="45.82475" lon="4.4495">
        <ele>600.6</ele>
        <time>2025-09-10T09:23:39Z</time>
      </trkpt>
      <trkpt lat="45.82476" lon="4.44951">
        <ele>600.6</ele>
        <time>2025-09-10T09:23:40Z</time>
      </trkpt>
      <trkpt lat="45.82477" lon="4.44952">
        <ele>601</ele>
        <time>2025-09-10T09:23:41Z</time>
      </trkpt>
      <trkpt lat="45.82479" lon="4.44953">
        <ele>601</ele>
        <time>2025-09-10T09:23:42Z</time>
      </trkpt>
      <trkpt lat="45.8248" lon="4.44954">
        <ele>601</ele>
        <time>2025-09-10T09:23:43Z</time>
      </trkpt>
      <trkpt lat="45.82481" lon="4.44955">
        <ele>601.2</ele>
        <time>2025-09-10T09:23:44Z</time>
      </trkpt>
      <trkpt lat="45.82483" lon="4.44956">
        <ele>601.2</ele>
        <time>2025-09-10T09:23:45Z</time>
      </trkpt>
      <trkpt lat="45.82484" lon="4.44958">
        <ele>601.2</ele>
        <time>2025-09-10T09:23:46Z</time>
      </trkpt>
      <trkpt lat="45.82486" lon="4.44959">
        <ele>601.4</ele>
        <time>2025-09-10T09:23:47Z</time>
      </trkpt>
      <trkpt lat="45.82487" lon="4.4496">
        <ele>601.4</ele>
        <time>2025-09-10T09:23:48Z</time>
      </trkpt>
      <trkpt lat="45.82488" lon="4.44961">
        <ele>601.8</ele>
        <time>2025-09-10T09:23:49Z</time>
      </trkpt>
      <trkpt lat="45.82489" lon="4.44962">
        <ele>601.8</ele>
        <time>2025-09-10T09:23:50Z</time>
      </trkpt>
      <trkpt lat="45.8249" lon="4.44963">
        <ele>601.8</ele>
        <time>2025-09-10T09:23:51Z</time>
      </trkpt>
      <trkpt lat="45.82491" lon="4.44964">
        <ele>602</ele>
        <time>2025-09-10T09:23:52Z</time>
      </trkpt>
      <trkpt lat="45.82492" lon="4.44965">
        <ele>602</ele>
        <time>2025-09-10T09:23:53Z</time>
      </trkpt>
      <trkpt lat="45.82493" lon="4.44966">
        <ele>602.4</ele>
        <time>2025-09-10T09:23:54Z</time>
      </trkpt>
      <trkpt lat="45.82495" lon="4.44966">
        <ele>602.4</ele>
        <time>2025-09-10T09:23:55Z</time>
      </trkpt>
      <trkpt lat="45.82496" lon="4.44967">
        <ele>602.4</ele>
        <time>2025-09-10T09:23:56Z</time>
      </trkpt>
      <trkpt lat="45.82497" lon="4.44968">
        <ele>602.4</ele>
        <time>2025-09-10T09:23:57Z</time>
      </trkpt>
      <trkpt lat="45.82499" lon="4.44969">
        <ele>602.4</ele>
        <time>2025-09-10T09:23:58Z</time>
      </trkpt>
      <trkpt lat="45.825" lon="4.4497">
        <ele>602.6</ele>
        <time>2025-09-10T09:23:59Z</time>
      </trkpt>
      <trkpt lat="45.82501" lon="4.44971">
        <ele>602.6</ele>
        <time>2025-09-10T09:24:00Z</time>
      </trkpt>
      <trkpt lat="45.82502" lon="4.44972">
        <ele>602.6</ele>
        <time>2025-09-10T09:24:01Z</time>
      </trkpt>
      <trkpt lat="45.82503" lon="4.44973">
        <ele>603</ele>
        <time>2025-09-10T09:24:02Z</time>
      </trkpt>
      <trkpt lat="45.82505" lon="4.44973">
        <ele>603</ele>
        <time>2025-09-10T09:24:03Z</time>
      </trkpt>
      <trkpt lat="45.82506" lon="4.44974">
        <ele>603</ele>
        <time>2025-09-10T09:24:04Z</time>
      </trkpt>
      <trkpt lat="45.82507" lon="4.44975">
        <ele>603</ele>
        <time>2025-09-10T09:24:05Z</time>
      </trkpt>
      <trkpt lat="45.82509" lon="4.44975">
        <ele>603.4</ele>
        <time>2025-09-10T09:24:06Z</time>
      </trkpt>
      <trkpt lat="45.8251" lon="4.44976">
        <ele>603.4</ele>
        <time>2025-09-10T09:24:07Z</time>
      </trkpt>
      <trkpt lat="45.82511" lon="4.44978">
        <ele>603.4</ele>
        <time>2025-09-10T09:24:08Z</time>
      </trkpt>
      <trkpt lat="45.82514" lon="4.4498">
        <ele>603.4</ele>
        <time>2025-09-10T09:24:09Z</time>
      </trkpt>
      <trkpt lat="45.82515" lon="4.44982">
        <ele>603.6</ele>
        <time>2025-09-10T09:24:10Z</time>
      </trkpt>
      <trkpt lat="45.82516" lon="4.44983">
        <ele>603.6</ele>
        <time>2025-09-10T09:24:11Z</time>
      </trkpt>
      <trkpt lat="45.82518" lon="4.44985">
        <ele>603.8</ele>
        <time>2025-09-10T09:24:12Z</time>
      </trkpt>
      <trkpt lat="45.82519" lon="4.44986">
        <ele>603.8</ele>
        <time>2025-09-10T09:24:13Z</time>
      </trkpt>
      <trkpt lat="45.8252" lon="4.44988">
        <ele>603.8</ele>
        <time>2025-09-10T09:24:14Z</time>
      </trkpt>
      <trkpt lat="45.82522" lon="4.4499">
        <ele>603.8</ele>
        <time>2025-09-10T09:24:15Z</time>
      </trkpt>
      <trkpt lat="45.82523" lon="4.44992">
        <ele>604.2</ele>
        <time>2025-09-10T09:24:16Z</time>
      </trkpt>
      <trkpt lat="45.82524" lon="4.44993">
        <ele>604.4</ele>
        <time>2025-09-10T09:24:17Z</time>
      </trkpt>
      <trkpt lat="45.82525" lon="4.44995">
        <ele>604.4</ele>
        <time>2025-09-10T09:24:18Z</time>
      </trkpt>
      <trkpt lat="45.82526" lon="4.44997">
        <ele>604.6</ele>
        <time>2025-09-10T09:24:19Z</time>
      </trkpt>
      <trkpt lat="45.82527" lon="4.44999">
        <ele>604.6</ele>
        <time>2025-09-10T09:24:20Z</time>
      </trkpt>
      <trkpt lat="45.82528" lon="4.45001">
        <ele>604.8</ele>
        <time>2025-09-10T09:24:21Z</time>
      </trkpt>
      <trkpt lat="45.82529" lon="4.45003">
        <ele>604.8</ele>
        <time>2025-09-10T09:24:22Z</time>
      </trkpt>
      <trkpt lat="45.8253" lon="4.45005">
        <ele>604.8</ele>
        <time>2025-09-10T09:24:23Z</time>
      </trkpt>
      <trkpt lat="45.8253" lon="4.45008">
        <ele>605.2</ele>
        <time>2025-09-10T09:24:24Z</time>
      </trkpt>
      <trkpt lat="45.8253" lon="4.4501">
        <ele>605.2</ele>
        <time>2025-09-10T09:24:25Z</time>
      </trkpt>
      <trkpt lat="45.8253" lon="4.4501">
        <ele>605.2</ele>
        <time>2025-09-10T09:24:26Z</time>
      </trkpt>
      <trkpt lat="45.82531" lon="4.45011">
        <ele>605.6</ele>
        <time>2025-09-10T09:24:27Z</time>
      </trkpt>
      <trkpt lat="45.8253" lon="4.45013">
        <ele>605.6</ele>
        <time>2025-09-10T09:24:28Z</time>
      </trkpt>
      <trkpt lat="45.8253" lon="4.45015">
        <ele>605.8</ele>
        <time>2025-09-10T09:24:29Z</time>
      </trkpt>
      <trkpt lat="45.82529" lon="4.45017">
        <ele>605.8</ele>
        <time>2025-09-10T09:24:30Z</time>
      </trkpt>
      <trkpt lat="45.82529" lon="4.4502">
        <ele>605.8</ele>
        <time>2025-09-10T09:24:31Z</time>
      </trkpt>
      <trkpt lat="45.82529" lon="4.45021">
        <ele>606</ele>
        <time>2025-09-10T09:24:32Z</time>
      </trkpt>
      <trkpt lat="45.82528" lon="4.45023">
        <ele>606.2</ele>
        <time>2025-09-10T09:24:33Z</time>
      </trkpt>
      <trkpt lat="45.82528" lon="4.45025">
        <ele>606.2</ele>
        <time>2025-09-10T09:24:34Z</time>
      </trkpt>
      <trkpt lat="45.82528" lon="4.45027">
        <ele>606.4</ele>
        <time>2025-09-10T09:24:35Z</time>
      </trkpt>
      <trkpt lat="45.82527" lon="4.45029">
        <ele>606.4</ele>
        <time>2025-09-10T09:24:36Z</time>
      </trkpt>
      <trkpt lat="45.82527" lon="4.45031">
        <ele>606.6</ele>
        <time>2025-09-10T09:24:37Z</time>
      </trkpt>
      <trkpt lat="45.82527" lon="4.45032">
        <ele>606.6</ele>
        <time>2025-09-10T09:24:38Z</time>
      </trkpt>
      <trkpt lat="45.82526" lon="4.45034">
        <ele>607</ele>
        <time>2025-09-10T09:24:39Z</time>
      </trkpt>
      <trkpt lat="45.82524" lon="4.45036">
        <ele>607</ele>
        <time>2025-09-10T09:24:40Z</time>
      </trkpt>
      <trkpt lat="45.82523" lon="4.45038">
        <ele>607.2</ele>
        <time>2025-09-10T09:24:41Z</time>
      </trkpt>
      <trkpt lat="45.82523" lon="4.4504">
        <ele>607.2</ele>
        <time>2025-09-10T09:24:42Z</time>
      </trkpt>
      <trkpt lat="45.82522" lon="4.45041">
        <ele>607.2</ele>
        <time>2025-09-10T09:24:43Z</time>
      </trkpt>
      <trkpt lat="45.82521" lon="4.45043">
        <ele>607.4</ele>
        <time>2025-09-10T09:24:44Z</time>
      </trkpt>
      <trkpt lat="45.8252" lon="4.45044">
        <ele>607.4</ele>
        <time>2025-09-10T09:24:45Z</time>
      </trkpt>
      <trkpt lat="45.82518" lon="4.45044">
        <ele>607.4</ele>
        <time>2025-09-10T09:24:46Z</time>
      </trkpt>
      <trkpt lat="45.82517" lon="4.45046">
        <ele>607.6</ele>
        <time>2025-09-10T09:24:47Z</time>
      </trkpt>
      <trkpt lat="45.82515" lon="4.45047">
        <ele>608</ele>
        <time>2025-09-10T09:24:48Z</time>
      </trkpt>
      <trkpt lat="45.82514" lon="4.45048">
        <ele>608.2</ele>
        <time>2025-09-10T09:24:49Z</time>
      </trkpt>
      <trkpt lat="45.82513" lon="4.45049">
        <ele>608.2</ele>
        <time>2025-09-10T09:24:50Z</time>
      </trkpt>
      <trkpt lat="45.82512" lon="4.4505">
        <ele>608.6</ele>
        <time>2025-09-10T09:24:51Z</time>
      </trkpt>
      <trkpt lat="45.8251" lon="4.45051">
        <ele>608.6</ele>
        <time>2025-09-10T09:24:52Z</time>
      </trkpt>
      <trkpt lat="45.82509" lon="4.45052">
        <ele>608.8</ele>
        <time>2025-09-10T09:24:53Z</time>
      </trkpt>
      <trkpt lat="45.82508" lon="4.45053">
        <ele>608.8</ele>
        <time>2025-09-10T09:24:54Z</time>
      </trkpt>
      <trkpt lat="45.82506" lon="4.45054">
        <ele>609</ele>
        <time>2025-09-10T09:24:55Z</time>
      </trkpt>
      <trkpt lat="45.82504" lon="4.45055">
        <ele>609</ele>
        <time>2025-09-10T09:24:56Z</time>
      </trkpt>
      <trkpt lat="45.82503" lon="4.45055">
        <ele>609</ele>
        <time>2025-09-10T09:24:57Z</time>
      </trkpt>
      <trkpt lat="45.82501" lon="4.45055">
        <ele>609.4</ele>
        <time>2025-09-10T09:24:58Z</time>
      </trkpt>
      <trkpt lat="45.825" lon="4.45056">
        <ele>609.4</ele>
        <time>2025-09-10T09:24:59Z</time>
      </trkpt>
      <trkpt lat="45.82498" lon="4.45056">
        <ele>609.4</ele>
        <time>2025-09-10T09:25:00Z</time>
      </trkpt>
      <trkpt lat="45.82497" lon="4.45057">
        <ele>609.6</ele>
        <time>2025-09-10T09:25:01Z</time>
      </trkpt>
      <trkpt lat="45.82495" lon="4.45057">
        <ele>609.6</ele>
        <time>2025-09-10T09:25:02Z</time>
      </trkpt>
      <trkpt lat="45.82494" lon="4.45058">
        <ele>610</ele>
        <time>2025-09-10T09:25:03Z</time>
      </trkpt>
      <trkpt lat="45.82492" lon="4.45058">
        <ele>610</ele>
        <time>2025-09-10T09:25:04Z</time>
      </trkpt>
      <trkpt lat="45.82491" lon="4.45059">
        <ele>610</ele>
        <time>2025-09-10T09:25:05Z</time>
      </trkpt>
      <trkpt lat="45.8249" lon="4.45059">
        <ele>610</ele>
        <time>2025-09-10T09:25:06Z</time>
      </trkpt>
      <trkpt lat="45.82488" lon="4.4506">
        <ele>610</ele>
        <time>2025-09-10T09:25:07Z</time>
      </trkpt>
      <trkpt lat="45.82487" lon="4.45062">
        <ele>610</ele>
        <time>2025-09-10T09:25:08Z</time>
      </trkpt>
      <trkpt lat="45.82486" lon="4.45063">
        <ele>610.2</ele>
        <time>2025-09-10T09:25:09Z</time>
      </trkpt>
      <trkpt lat="45.82485" lon="4.45064">
        <ele>610.2</ele>
        <time>2025-09-10T09:25:10Z</time>
      </trkpt>
      <trkpt lat="45.82483" lon="4.45065">
        <ele>610.2</ele>
        <time>2025-09-10T09:25:11Z</time>
      </trkpt>
      <trkpt lat="45.82482" lon="4.45065">
        <ele>610.4</ele>
        <time>2025-09-10T09:25:12Z</time>
      </trkpt>
      <trkpt lat="45.8248" lon="4.45066">
        <ele>610.4</ele>
        <time>2025-09-10T09:25:13Z</time>
      </trkpt>
      <trkpt lat="45.82479" lon="4.45066">
        <ele>610.8</ele>
        <time>2025-09-10T09:25:14Z</time>
      </trkpt>
      <trkpt lat="45.82478" lon="4.45067">
        <ele>610.8</ele>
        <time>2025-09-10T09:25:15Z</time>
      </trkpt>
      <trkpt lat="45.82476" lon="4.45067">
        <ele>611</ele>
        <time>2025-09-10T09:25:16Z</time>
      </trkpt>
      <trkpt lat="45.82475" lon="4.45067">
        <ele>611</ele>
        <time>2025-09-10T09:25:17Z</time>
      </trkpt>
      <trkpt lat="45.82473" lon="4.45067">
        <ele>611</ele>
        <time>2025-09-10T09:25:18Z</time>
      </trkpt>
      <trkpt lat="45.82472" lon="4.45068">
        <ele>611.2</ele>
        <time>2025-09-10T09:25:19Z</time>
      </trkpt>
      <trkpt lat="45.8247" lon="4.45068">
        <ele>611.2</ele>
        <time>2025-09-10T09:25:20Z</time>
      </trkpt>
      <trkpt lat="45.82469" lon="4.45069">
        <ele>611.2</ele>
        <time>2025-09-10T09:25:21Z</time>
      </trkpt>
      <trkpt lat="45.82468" lon="4.45069">
        <ele>611.4</ele>
        <time>2025-09-10T09:25:22Z</time>
      </trkpt>
      <trkpt lat="45.82466" lon="4.45069">
        <ele>611.4</ele>
        <time>2025-09-10T09:25:23Z</time>
      </trkpt>
      <trkpt lat="45.82464" lon="4.45069">
        <ele>611.4</ele>
        <time>2025-09-10T09:25:24Z</time>
      </trkpt>
      <trkpt lat="45.82462" lon="4.4507">
        <ele>611.8</ele>
        <time>2025-09-10T09:25:25Z</time>
      </trkpt>
      <trkpt lat="45.8246" lon="4.45071">
        <ele>611.8</ele>
        <time>2025-09-10T09:25:26Z</time>
      </trkpt>
      <trkpt lat="45.82458" lon="4.45072">
        <ele>612</ele>
        <time>2025-09-10T09:25:27Z</time>
      </trkpt>
      <trkpt lat="45.82456" lon="4.45072">
        <ele>612</ele>
        <time>2025-09-10T09:25:28Z</time>
      </trkpt>
      <trkpt lat="45.82454" lon="4.45072">
        <ele>612.2</ele>
        <time>2025-09-10T09:25:29Z</time>
      </trkpt>
      <trkpt lat="45.82452" lon="4.45072">
        <ele>612.2</ele>
        <time>2025-09-10T09:25:30Z</time>
      </trkpt>
      <trkpt lat="45.82451" lon="4.45072">
        <ele>612.2</ele>
        <time>2025-09-10T09:25:31Z</time>
      </trkpt>
      <trkpt lat="45.82449" lon="4.45073">
        <ele>612.2</ele>
        <time>2025-09-10T09:25:32Z</time>
      </trkpt>
      <trkpt lat="45.82447" lon="4.45073">
        <ele>612.4</ele>
        <time>2025-09-10T09:25:33Z</time>
      </trkpt>
      <trkpt lat="45.82446" lon="4.45073">
        <ele>612.4</ele>
        <time>2025-09-10T09:25:34Z</time>
      </trkpt>
      <trkpt lat="45.82444" lon="4.45073">
        <ele>612.6</ele>
        <time>2025-09-10T09:25:35Z</time>
      </trkpt>
      <trkpt lat="45.82442" lon="4.45073">
        <ele>612.6</ele>
        <time>2025-09-10T09:25:36Z</time>
      </trkpt>
      <trkpt lat="45.8244" lon="4.45074">
        <ele>612.6</ele>
        <time>2025-09-10T09:25:37Z</time>
      </trkpt>
      <trkpt lat="45.82439" lon="4.45074">
        <ele>612.6</ele>
        <time>2025-09-10T09:25:38Z</time>
      </trkpt>
      <trkpt lat="45.82437" lon="4.45075">
        <ele>613</ele>
        <time>2025-09-10T09:25:39Z</time>
      </trkpt>
      <trkpt lat="45.82435" lon="4.45076">
        <ele>613</ele>
        <time>2025-09-10T09:25:40Z</time>
      </trkpt>
      <trkpt lat="45.82433" lon="4.45076">
        <ele>613.2</ele>
        <time>2025-09-10T09:25:41Z</time>
      </trkpt>
      <trkpt lat="45.82432" lon="4.45077">
        <ele>613.2</ele>
        <time>2025-09-10T09:25:42Z</time>
      </trkpt>
      <trkpt lat="45.82431" lon="4.45077">
        <ele>612.8</ele>
        <time>2025-09-10T09:25:43Z</time>
      </trkpt>
      <trkpt lat="45.82429" lon="4.45078">
        <ele>612.8</ele>
        <time>2025-09-10T09:25:44Z</time>
      </trkpt>
      <trkpt lat="45.82428" lon="4.45079">
        <ele>613</ele>
        <time>2025-09-10T09:25:45Z</time>
      </trkpt>
      <trkpt lat="45.82427" lon="4.45079">
        <ele>613</ele>
        <time>2025-09-10T09:25:46Z</time>
      </trkpt>
      <trkpt lat="45.82425" lon="4.45079">
        <ele>613</ele>
        <time>2025-09-10T09:25:47Z</time>
      </trkpt>
      <trkpt lat="45.82424" lon="4.45079">
        <ele>613</ele>
        <time>2025-09-10T09:25:48Z</time>
      </trkpt>
      <trkpt lat="45.82422" lon="4.45079">
        <ele>613.2</ele>
        <time>2025-09-10T09:25:49Z</time>
      </trkpt>
      <trkpt lat="45.82421" lon="4.45079">
        <ele>613.2</ele>
        <time>2025-09-10T09:25:50Z</time>
      </trkpt>
      <trkpt lat="45.82419" lon="4.45079">
        <ele>613.2</ele>
        <time>2025-09-10T09:25:51Z</time>
      </trkpt>
      <trkpt lat="45.82418" lon="4.4508">
        <ele>613.2</ele>
        <time>2025-09-10T09:25:52Z</time>
      </trkpt>
      <trkpt lat="45.82416" lon="4.4508">
        <ele>613.2</ele>
        <time>2025-09-10T09:25:53Z</time>
      </trkpt>
      <trkpt lat="45.82415" lon="4.4508">
        <ele>613.6</ele>
        <time>2025-09-10T09:25:54Z</time>
      </trkpt>
      <trkpt lat="45.82413" lon="4.4508">
        <ele>613.6</ele>
        <time>2025-09-10T09:25:55Z</time>
      </trkpt>
      <trkpt lat="45.82411" lon="4.4508">
        <ele>613.8</ele>
        <time>2025-09-10T09:25:56Z</time>
      </trkpt>
      <trkpt lat="45.82409" lon="4.45079">
        <ele>613.8</ele>
        <time>2025-09-10T09:25:57Z</time>
      </trkpt>
      <trkpt lat="45.82408" lon="4.45079">
        <ele>613.8</ele>
        <time>2025-09-10T09:25:58Z</time>
      </trkpt>
      <trkpt lat="45.82406" lon="4.45079">
        <ele>613.8</ele>
        <time>2025-09-10T09:25:59Z</time>
      </trkpt>
      <trkpt lat="45.82404" lon="4.45078">
        <ele>614</ele>
        <time>2025-09-10T09:26:00Z</time>
      </trkpt>
      <trkpt lat="45.82403" lon="4.45078">
        <ele>614</ele>
        <time>2025-09-10T09:26:01Z</time>
      </trkpt>
      <trkpt lat="45.82402" lon="4.45079">
        <ele>614</ele>
        <time>2025-09-10T09:26:02Z</time>
      </trkpt>
      <trkpt lat="45.824" lon="4.45079">
        <ele>614.4</ele>
        <time>2025-09-10T09:26:03Z</time>
      </trkpt>
      <trkpt lat="45.82399" lon="4.45079">
        <ele>614.4</ele>
        <time>2025-09-10T09:26:04Z</time>
      </trkpt>
      <trkpt lat="45.82397" lon="4.45079">
        <ele>614.4</ele>
        <time>2025-09-10T09:26:05Z</time>
      </trkpt>
      <trkpt lat="45.82395" lon="4.45079">
        <ele>614.4</ele>
        <time>2025-09-10T09:26:06Z</time>
      </trkpt>
      <trkpt lat="45.82394" lon="4.45079">
        <ele>614.4</ele>
        <time>2025-09-10T09:26:07Z</time>
      </trkpt>
      <trkpt lat="45.82392" lon="4.45079">
        <ele>613.8</ele>
        <time>2025-09-10T09:26:08Z</time>
      </trkpt>
      <trkpt lat="45.82391" lon="4.45079">
        <ele>614.2</ele>
        <time>2025-09-10T09:26:09Z</time>
      </trkpt>
      <trkpt lat="45.82389" lon="4.45078">
        <ele>614.4</ele>
        <time>2025-09-10T09:26:10Z</time>
      </trkpt>
      <trkpt lat="45.82388" lon="4.45078">
        <ele>614.4</ele>
        <time>2025-09-10T09:26:11Z</time>
      </trkpt>
      <trkpt lat="45.82386" lon="4.45079">
        <ele>614.8</ele>
        <time>2025-09-10T09:26:12Z</time>
      </trkpt>
      <trkpt lat="45.82384" lon="4.4508">
        <ele>614.8</ele>
        <time>2025-09-10T09:26:13Z</time>
      </trkpt>
      <trkpt lat="45.82383" lon="4.45082">
        <ele>615</ele>
        <time>2025-09-10T09:26:14Z</time>
      </trkpt>
      <trkpt lat="45.82383" lon="4.45085">
        <ele>615</ele>
        <time>2025-09-10T09:26:15Z</time>
      </trkpt>
      <trkpt lat="45.82383" lon="4.45088">
        <ele>615</ele>
        <time>2025-09-10T09:26:16Z</time>
      </trkpt>
      <trkpt lat="45.82382" lon="4.45091">
        <ele>615.2</ele>
        <time>2025-09-10T09:26:17Z</time>
      </trkpt>
      <trkpt lat="45.82382" lon="4.45094">
        <ele>615.2</ele>
        <time>2025-09-10T09:26:18Z</time>
      </trkpt>
      <trkpt lat="45.82381" lon="4.45097">
        <ele>615.2</ele>
        <time>2025-09-10T09:26:19Z</time>
      </trkpt>
      <trkpt lat="45.82381" lon="4.45101">
        <ele>615</ele>
        <time>2025-09-10T09:26:20Z</time>
      </trkpt>
      <trkpt lat="45.8238" lon="4.45105">
        <ele>615</ele>
        <time>2025-09-10T09:26:21Z</time>
      </trkpt>
      <trkpt lat="45.82379" lon="4.45109">
        <ele>615</ele>
        <time>2025-09-10T09:26:22Z</time>
      </trkpt>
      <trkpt lat="45.82378" lon="4.45112">
        <ele>615</ele>
        <time>2025-09-10T09:26:23Z</time>
      </trkpt>
      <trkpt lat="45.82377" lon="4.45115">
        <ele>615</ele>
        <time>2025-09-10T09:26:24Z</time>
      </trkpt>
      <trkpt lat="45.82376" lon="4.45116">
        <ele>615</ele>
        <time>2025-09-10T09:26:25Z</time>
      </trkpt>
      <trkpt lat="45.82376" lon="4.45117">
        <ele>615</ele>
        <time>2025-09-10T09:26:26Z</time>
      </trkpt>
      <trkpt lat="45.82375" lon="4.45118">
        <ele>615</ele>
        <time>2025-09-10T09:26:27Z</time>
      </trkpt>
      <trkpt lat="45.82374" lon="4.45119">
        <ele>615</ele>
        <time>2025-09-10T09:26:28Z</time>
      </trkpt>
      <trkpt lat="45.82375" lon="4.45121">
        <ele>615</ele>
        <time>2025-09-10T09:26:29Z</time>
      </trkpt>
      <trkpt lat="45.82376" lon="4.4512">
        <ele>615</ele>
        <time>2025-09-10T09:26:30Z</time>
      </trkpt>
      <trkpt lat="45.82378" lon="4.45118">
        <ele>615</ele>
        <time>2025-09-10T09:26:31Z</time>
      </trkpt>
      <trkpt lat="45.82378" lon="4.45115">
        <ele>615</ele>
        <time>2025-09-10T09:26:32Z</time>
      </trkpt>
      <trkpt lat="45.82378" lon="4.45112">
        <ele>614.4</ele>
        <time>2025-09-10T09:26:33Z</time>
      </trkpt>
      <trkpt lat="45.82379" lon="4.45108">
        <ele>615.4</ele>
        <time>2025-09-10T09:26:34Z</time>
      </trkpt>
      <trkpt lat="45.8238" lon="4.45105">
        <ele>615.4</ele>
        <time>2025-09-10T09:26:35Z</time>
      </trkpt>
      <trkpt lat="45.82381" lon="4.45101">
        <ele>615.4</ele>
        <time>2025-09-10T09:26:36Z</time>
      </trkpt>
      <trkpt lat="45.82383" lon="4.45098">
        <ele>615.2</ele>
        <time>2025-09-10T09:26:37Z</time>
      </trkpt>
      <trkpt lat="45.82384" lon="4.45094">
        <ele>615.2</ele>
        <time>2025-09-10T09:26:38Z</time>
      </trkpt>
      <trkpt lat="45.82384" lon="4.4509">
        <ele>615.2</ele>
        <time>2025-09-10T09:26:39Z</time>
      </trkpt>
      <trkpt lat="45.82384" lon="4.45087">
        <ele>615.2</ele>
        <time>2025-09-10T09:26:40Z</time>
      </trkpt>
      <trkpt lat="45.82382" lon="4.45084">
        <ele>615</ele>
        <time>2025-09-10T09:26:41Z</time>
      </trkpt>
      <trkpt lat="45.82381" lon="4.45081">
        <ele>615</ele>
        <time>2025-09-10T09:26:42Z</time>
      </trkpt>
      <trkpt lat="45.82379" lon="4.45078">
        <ele>615.4</ele>
        <time>2025-09-10T09:26:43Z</time>
      </trkpt>
      <trkpt lat="45.82377" lon="4.45077">
        <ele>615</ele>
        <time>2025-09-10T09:26:44Z</time>
      </trkpt>
      <trkpt lat="45.82375" lon="4.45076">
        <ele>615</ele>
        <time>2025-09-10T09:26:45Z</time>
      </trkpt>
      <trkpt lat="45.82372" lon="4.45076">
        <ele>615.4</ele>
        <time>2025-09-10T09:26:46Z</time>
      </trkpt>
      <trkpt lat="45.8237" lon="4.45076">
        <ele>615.4</ele>
        <time>2025-09-10T09:26:47Z</time>
      </trkpt>
      <trkpt lat="45.82368" lon="4.45076">
        <ele>614.6</ele>
        <time>2025-09-10T09:26:48Z</time>
      </trkpt>
      <trkpt lat="45.82366" lon="4.45075">
        <ele>615.2</ele>
        <time>2025-09-10T09:26:49Z</time>
      </trkpt>
      <trkpt lat="45.82364" lon="4.45075">
        <ele>615.6</ele>
        <time>2025-09-10T09:26:50Z</time>
      </trkpt>
      <trkpt lat="45.82362" lon="4.45075">
        <ele>616</ele>
        <time>2025-09-10T09:26:51Z</time>
      </trkpt>
      <trkpt lat="45.8236" lon="4.45075">
        <ele>616</ele>
        <time>2025-09-10T09:26:52Z</time>
      </trkpt>
      <trkpt lat="45.82358" lon="4.45075">
        <ele>616.4</ele>
        <time>2025-09-10T09:26:53Z</time>
      </trkpt>
      <trkpt lat="45.82356" lon="4.45074">
        <ele>616.4</ele>
        <time>2025-09-10T09:26:54Z</time>
      </trkpt>
      <trkpt lat="45.82355" lon="4.45073">
        <ele>616.6</ele>
        <time>2025-09-10T09:26:55Z</time>
      </trkpt>
      <trkpt lat="45.82353" lon="4.45071">
        <ele>616.6</ele>
        <time>2025-09-10T09:26:56Z</time>
      </trkpt>
      <trkpt lat="45.82351" lon="4.4507">
        <ele>616.6</ele>
        <time>2025-09-10T09:26:57Z</time>
      </trkpt>
      <trkpt lat="45.82349" lon="4.45069">
        <ele>616.8</ele>
        <time>2025-09-10T09:26:58Z</time>
      </trkpt>
      <trkpt lat="45.82348" lon="4.45068">
        <ele>616.8</ele>
        <time>2025-09-10T09:26:59Z</time>
      </trkpt>
      <trkpt lat="45.82346" lon="4.45067">
        <ele>616.8</ele>
        <time>2025-09-10T09:27:00Z</time>
      </trkpt>
      <trkpt lat="45.82344" lon="4.45066">
        <ele>616.8</ele>
        <time>2025-09-10T09:27:01Z</time>
      </trkpt>
      <trkpt lat="45.82342" lon="4.45065">
        <ele>616.8</ele>
        <time>2025-09-10T09:27:02Z</time>
      </trkpt>
      <trkpt lat="45.8234" lon="4.45064">
        <ele>617.4</ele>
        <time>2025-09-10T09:27:03Z</time>
      </trkpt>
      <trkpt lat="45.82338" lon="4.45063">
        <ele>617.4</ele>
        <time>2025-09-10T09:27:04Z</time>
      </trkpt>
      <trkpt lat="45.82336" lon="4.45062">
        <ele>617.4</ele>
        <time>2025-09-10T09:27:05Z</time>
      </trkpt>
      <trkpt lat="45.82334" lon="4.4506">
        <ele>617.6</ele>
        <time>2025-09-10T09:27:06Z</time>
      </trkpt>
      <trkpt lat="45.82332" lon="4.45059">
        <ele>617.6</ele>
        <time>2025-09-10T09:27:07Z</time>
      </trkpt>
      <trkpt lat="45.82331" lon="4.45058">
        <ele>617.8</ele>
        <time>2025-09-10T09:27:08Z</time>
      </trkpt>
      <trkpt lat="45.82329" lon="4.45058">
        <ele>618.2</ele>
        <time>2025-09-10T09:27:09Z</time>
      </trkpt>
      <trkpt lat="45.82327" lon="4.45057">
        <ele>618.2</ele>
        <time>2025-09-10T09:27:10Z</time>
      </trkpt>
      <trkpt lat="45.82325" lon="4.45056">
        <ele>618.6</ele>
        <time>2025-09-10T09:27:11Z</time>
      </trkpt>
      <trkpt lat="45.82324" lon="4.45056">
        <ele>618.6</ele>
        <time>2025-09-10T09:27:12Z</time>
      </trkpt>
      <trkpt lat="45.82322" lon="4.45055">
        <ele>619</ele>
        <time>2025-09-10T09:27:13Z</time>
      </trkpt>
      <trkpt lat="45.8232" lon="4.45055">
        <ele>619</ele>
        <time>2025-09-10T09:27:14Z</time>
      </trkpt>
      <trkpt lat="45.82319" lon="4.45054">
        <ele>619.2</ele>
        <time>2025-09-10T09:27:15Z</time>
      </trkpt>
      <trkpt lat="45.82317" lon="4.45052">
        <ele>619.2</ele>
        <time>2025-09-10T09:27:16Z</time>
      </trkpt>
      <trkpt lat="45.82316" lon="4.45052">
        <ele>619.2</ele>
        <time>2025-09-10T09:27:17Z</time>
      </trkpt>
      <trkpt lat="45.82314" lon="4.45051">
        <ele>619.6</ele>
        <time>2025-09-10T09:27:18Z</time>
      </trkpt>
      <trkpt lat="45.82312" lon="4.4505">
        <ele>619.6</ele>
        <time>2025-09-10T09:27:19Z</time>
      </trkpt>
      <trkpt lat="45.82311" lon="4.4505">
        <ele>619.8</ele>
        <time>2025-09-10T09:27:20Z</time>
      </trkpt>
      <trkpt lat="45.82309" lon="4.45049">
        <ele>619.8</ele>
        <time>2025-09-10T09:27:21Z</time>
      </trkpt>
      <trkpt lat="45.82307" lon="4.45049">
        <ele>619.8</ele>
        <time>2025-09-10T09:27:22Z</time>
      </trkpt>
      <trkpt lat="45.82305" lon="4.45049">
        <ele>619.8</ele>
        <time>2025-09-10T09:27:23Z</time>
      </trkpt>
      <trkpt lat="45.82303" lon="4.45048">
        <ele>620.2</ele>
        <time>2025-09-10T09:27:24Z</time>
      </trkpt>
      <trkpt lat="45.82302" lon="4.45048">
        <ele>620.2</ele>
        <time>2025-09-10T09:27:25Z</time>
      </trkpt>
      <trkpt lat="45.823" lon="4.45048">
        <ele>620.4</ele>
        <time>2025-09-10T09:27:26Z</time>
      </trkpt>
      <trkpt lat="45.82298" lon="4.45048">
        <ele>620.4</ele>
        <time>2025-09-10T09:27:27Z</time>
      </trkpt>
      <trkpt lat="45.82297" lon="4.45049">
        <ele>620.8</ele>
        <time>2025-09-10T09:27:28Z</time>
      </trkpt>
      <trkpt lat="45.82296" lon="4.4505">
        <ele>620.8</ele>
        <time>2025-09-10T09:27:29Z</time>
      </trkpt>
      <trkpt lat="45.82294" lon="4.45051">
        <ele>621.2</ele>
        <time>2025-09-10T09:27:30Z</time>
      </trkpt>
      <trkpt lat="45.82292" lon="4.45052">
        <ele>621.2</ele>
        <time>2025-09-10T09:27:31Z</time>
      </trkpt>
      <trkpt lat="45.82291" lon="4.45052">
        <ele>621.4</ele>
        <time>2025-09-10T09:27:32Z</time>
      </trkpt>
      <trkpt lat="45.82289" lon="4.45053">
        <ele>621.4</ele>
        <time>2025-09-10T09:27:33Z</time>
      </trkpt>
      <trkpt lat="45.82287" lon="4.45054">
        <ele>621.4</ele>
        <time>2025-09-10T09:27:34Z</time>
      </trkpt>
      <trkpt lat="45.82285" lon="4.45055">
        <ele>621.8</ele>
        <time>2025-09-10T09:27:35Z</time>
      </trkpt>
      <trkpt lat="45.82282" lon="4.45056">
        <ele>621.8</ele>
        <time>2025-09-10T09:27:36Z</time>
      </trkpt>
      <trkpt lat="45.82281" lon="4.45057">
        <ele>621.8</ele>
        <time>2025-09-10T09:27:37Z</time>
      </trkpt>
      <trkpt lat="45.82279" lon="4.45058">
        <ele>622.2</ele>
        <time>2025-09-10T09:27:38Z</time>
      </trkpt>
      <trkpt lat="45.82278" lon="4.45058">
        <ele>622.2</ele>
        <time>2025-09-10T09:27:39Z</time>
      </trkpt>
      <trkpt lat="45.82276" lon="4.4506">
        <ele>622.4</ele>
        <time>2025-09-10T09:27:40Z</time>
      </trkpt>
      <trkpt lat="45.82275" lon="4.45061">
        <ele>622.4</ele>
        <time>2025-09-10T09:27:41Z</time>
      </trkpt>
      <trkpt lat="45.82273" lon="4.45062">
        <ele>622.4</ele>
        <time>2025-09-10T09:27:42Z</time>
      </trkpt>
      <trkpt lat="45.82272" lon="4.45063">
        <ele>622.4</ele>
        <time>2025-09-10T09:27:43Z</time>
      </trkpt>
      <trkpt lat="45.82271" lon="4.45064">
        <ele>622.6</ele>
        <time>2025-09-10T09:27:44Z</time>
      </trkpt>
      <trkpt lat="45.8227" lon="4.45065">
        <ele>622.6</ele>
        <time>2025-09-10T09:27:45Z</time>
      </trkpt>
      <trkpt lat="45.82269" lon="4.45066">
        <ele>622.8</ele>
        <time>2025-09-10T09:27:46Z</time>
      </trkpt>
      <trkpt lat="45.82267" lon="4.45067">
        <ele>622.8</ele>
        <time>2025-09-10T09:27:47Z</time>
      </trkpt>
      <trkpt lat="45.82266" lon="4.45069">
        <ele>622.8</ele>
        <time>2025-09-10T09:27:48Z</time>
      </trkpt>
      <trkpt lat="45.82265" lon="4.4507">
        <ele>623</ele>
        <time>2025-09-10T09:27:49Z</time>
      </trkpt>
      <trkpt lat="45.82264" lon="4.45072">
        <ele>623</ele>
        <time>2025-09-10T09:27:50Z</time>
      </trkpt>
      <trkpt lat="45.82263" lon="4.45073">
        <ele>623.4</ele>
        <time>2025-09-10T09:27:51Z</time>
      </trkpt>
      <trkpt lat="45.82262" lon="4.45074">
        <ele>623.4</ele>
        <time>2025-09-10T09:27:52Z</time>
      </trkpt>
      <trkpt lat="45.82261" lon="4.45076">
        <ele>623.4</ele>
        <time>2025-09-10T09:27:53Z</time>
      </trkpt>
      <trkpt lat="45.8226" lon="4.45078">
        <ele>623.6</ele>
        <time>2025-09-10T09:27:54Z</time>
      </trkpt>
      <trkpt lat="45.8226" lon="4.4508">
        <ele>623.6</ele>
        <time>2025-09-10T09:27:55Z</time>
      </trkpt>
      <trkpt lat="45.82259" lon="4.45081">
        <ele>624</ele>
        <time>2025-09-10T09:27:56Z</time>
      </trkpt>
      <trkpt lat="45.82259" lon="4.45081">
        <ele>624</ele>
        <time>2025-09-10T09:27:57Z</time>
      </trkpt>
      <trkpt lat="45.82258" lon="4.45083">
        <ele>624</ele>
        <time>2025-09-10T09:27:58Z</time>
      </trkpt>
      <trkpt lat="45.82257" lon="4.45085">
        <ele>624.2</ele>
        <time>2025-09-10T09:27:59Z</time>
      </trkpt>
      <trkpt lat="45.82257" lon="4.45087">
        <ele>624.2</ele>
        <time>2025-09-10T09:28:00Z</time>
      </trkpt>
      <trkpt lat="45.82256" lon="4.45089">
        <ele>624.4</ele>
        <time>2025-09-10T09:28:01Z</time>
      </trkpt>
      <trkpt lat="45.82255" lon="4.45091">
        <ele>624.4</ele>
        <time>2025-09-10T09:28:02Z</time>
      </trkpt>
      <trkpt lat="45.82254" lon="4.45093">
        <ele>624.4</ele>
        <time>2025-09-10T09:28:03Z</time>
      </trkpt>
      <trkpt lat="45.82253" lon="4.45094">
        <ele>624.8</ele>
        <time>2025-09-10T09:28:04Z</time>
      </trkpt>
      <trkpt lat="45.82252" lon="4.45096">
        <ele>624.8</ele>
        <time>2025-09-10T09:28:05Z</time>
      </trkpt>
      <trkpt lat="45.82251" lon="4.45098">
        <ele>625</ele>
        <time>2025-09-10T09:28:06Z</time>
      </trkpt>
      <trkpt lat="45.8225" lon="4.451">
        <ele>625</ele>
        <time>2025-09-10T09:28:07Z</time>
      </trkpt>
      <trkpt lat="45.82249" lon="4.45102">
        <ele>625</ele>
        <time>2025-09-10T09:28:08Z</time>
      </trkpt>
      <trkpt lat="45.82248" lon="4.45104">
        <ele>625</ele>
        <time>2025-09-10T09:28:09Z</time>
      </trkpt>
      <trkpt lat="45.82247" lon="4.45105">
        <ele>625</ele>
        <time>2025-09-10T09:28:10Z</time>
      </trkpt>
      <trkpt lat="45.82246" lon="4.45107">
        <ele>625.4</ele>
        <time>2025-09-10T09:28:11Z</time>
      </trkpt>
      <trkpt lat="45.82246" lon="4.45109">
        <ele>625.4</ele>
        <time>2025-09-10T09:28:12Z</time>
      </trkpt>
      <trkpt lat="45.82245" lon="4.4511">
        <ele>625.6</ele>
        <time>2025-09-10T09:28:13Z</time>
      </trkpt>
      <trkpt lat="45.82244" lon="4.45112">
        <ele>625.6</ele>
        <time>2025-09-10T09:28:14Z</time>
      </trkpt>
      <trkpt lat="45.82243" lon="4.45114">
        <ele>626</ele>
        <time>2025-09-10T09:28:15Z</time>
      </trkpt>
      <trkpt lat="45.82242" lon="4.45116">
        <ele>626</ele>
        <time>2025-09-10T09:28:16Z</time>
      </trkpt>
      <trkpt lat="45.82241" lon="4.45118">
        <ele>626.2</ele>
        <time>2025-09-10T09:28:17Z</time>
      </trkpt>
      <trkpt lat="45.8224" lon="4.45119">
        <ele>626.2</ele>
        <time>2025-09-10T09:28:18Z</time>
      </trkpt>
      <trkpt lat="45.82239" lon="4.45121">
        <ele>626.2</ele>
        <time>2025-09-10T09:28:19Z</time>
      </trkpt>
      <trkpt lat="45.82239" lon="4.45123">
        <ele>626.4</ele>
        <time>2025-09-10T09:28:20Z</time>
      </trkpt>
      <trkpt lat="45.82238" lon="4.45125">
        <ele>626.4</ele>
        <time>2025-09-10T09:28:21Z</time>
      </trkpt>
      <trkpt lat="45.82237" lon="4.45127">
        <ele>626.8</ele>
        <time>2025-09-10T09:28:22Z</time>
      </trkpt>
      <trkpt lat="45.82236" lon="4.45129">
        <ele>626.8</ele>
        <time>2025-09-10T09:28:23Z</time>
      </trkpt>
      <trkpt lat="45.82235" lon="4.45131">
        <ele>626.8</ele>
        <time>2025-09-10T09:28:24Z</time>
      </trkpt>
      <trkpt lat="45.82235" lon="4.45133">
        <ele>626.8</ele>
        <time>2025-09-10T09:28:25Z</time>
      </trkpt>
      <trkpt lat="45.82234" lon="4.45134">
        <ele>626.8</ele>
        <time>2025-09-10T09:28:26Z</time>
      </trkpt>
      <trkpt lat="45.82233" lon="4.45136">
        <ele>626.8</ele>
        <time>2025-09-10T09:28:27Z</time>
      </trkpt>
      <trkpt lat="45.82233" lon="4.45136">
        <ele>626.8</ele>
        <time>2025-09-10T09:28:28Z</time>
      </trkpt>
      <trkpt lat="45.82233" lon="4.45136">
        <ele>627</ele>
        <time>2025-09-10T09:28:29Z</time>
      </trkpt>
      <trkpt lat="45.82234" lon="4.45136">
        <ele>627</ele>
        <time>2025-09-10T09:28:34Z</time>
      </trkpt>
      <trkpt lat="45.82235" lon="4.45138">
        <ele>627</ele>
        <time>2025-09-10T09:28:35Z</time>
      </trkpt>
      <trkpt lat="45.82236" lon="4.4514">
        <ele>627</ele>
        <time>2025-09-10T09:28:36Z</time>
      </trkpt>
      <trkpt lat="45.82237" lon="4.45142">
        <ele>627</ele>
        <time>2025-09-10T09:28:37Z</time>
      </trkpt>
      <trkpt lat="45.82239" lon="4.45143">
        <ele>627</ele>
        <time>2025-09-10T09:28:38Z</time>
      </trkpt>
      <trkpt lat="45.8224" lon="4.45144">
        <ele>627</ele>
        <time>2025-09-10T09:28:39Z</time>
      </trkpt>
      <trkpt lat="45.82243" lon="4.45146">
        <ele>627</ele>
        <time>2025-09-10T09:28:40Z</time>
      </trkpt>
      <trkpt lat="45.82245" lon="4.4515">
        <ele>626.6</ele>
        <time>2025-09-10T09:28:41Z</time>
      </trkpt>
      <trkpt lat="45.82246" lon="4.45156">
        <ele>626.2</ele>
        <time>2025-09-10T09:28:42Z</time>
      </trkpt>
      <trkpt lat="45.82248" lon="4.45159">
        <ele>625.8</ele>
        <time>2025-09-10T09:28:43Z</time>
      </trkpt>
      <trkpt lat="45.82243" lon="4.4517">
        <ele>625.6</ele>
        <time>2025-09-10T09:28:44Z</time>
      </trkpt>
      <trkpt lat="45.8224" lon="4.45174">
        <ele>625.6</ele>
        <time>2025-09-10T09:28:45Z</time>
      </trkpt>
      <trkpt lat="45.82237" lon="4.45182">
        <ele>625.6</ele>
        <time>2025-09-10T09:28:46Z</time>
      </trkpt>
      <trkpt lat="45.82235" lon="4.45182">
        <ele>625.6</ele>
        <time>2025-09-10T09:28:47Z</time>
      </trkpt>
      <trkpt lat="45.82232" lon="4.45185">
        <ele>625.6</ele>
        <time>2025-09-10T09:28:48Z</time>
      </trkpt>
      <trkpt lat="45.82231" lon="4.45187">
        <ele>625.6</ele>
        <time>2025-09-10T09:28:49Z</time>
      </trkpt>
      <trkpt lat="45.82231" lon="4.45189">
        <ele>625.6</ele>
        <time>2025-09-10T09:28:50Z</time>
      </trkpt>
      <trkpt lat="45.8223" lon="4.45191">
        <ele>625.6</ele>
        <time>2025-09-10T09:28:51Z</time>
      </trkpt>
      <trkpt lat="45.82229" lon="4.45193">
        <ele>625.8</ele>
        <time>2025-09-10T09:28:52Z</time>
      </trkpt>
      <trkpt lat="45.82228" lon="4.45195">
        <ele>625.8</ele>
        <time>2025-09-10T09:28:53Z</time>
      </trkpt>
      <trkpt lat="45.82227" lon="4.45197">
        <ele>626</ele>
        <time>2025-09-10T09:28:54Z</time>
      </trkpt>
      <trkpt lat="45.82226" lon="4.452">
        <ele>626</ele>
        <time>2025-09-10T09:28:55Z</time>
      </trkpt>
      <trkpt lat="45.82225" lon="4.45203">
        <ele>626.2</ele>
        <time>2025-09-10T09:28:56Z</time>
      </trkpt>
      <trkpt lat="45.82224" lon="4.45205">
        <ele>626.2</ele>
        <time>2025-09-10T09:28:57Z</time>
      </trkpt>
      <trkpt lat="45.82224" lon="4.45207">
        <ele>626.2</ele>
        <time>2025-09-10T09:28:58Z</time>
      </trkpt>
      <trkpt lat="45.82223" lon="4.45209">
        <ele>626.6</ele>
        <time>2025-09-10T09:28:59Z</time>
      </trkpt>
      <trkpt lat="45.82223" lon="4.45212">
        <ele>626.6</ele>
        <time>2025-09-10T09:29:00Z</time>
      </trkpt>
      <trkpt lat="45.82222" lon="4.45215">
        <ele>626.6</ele>
        <time>2025-09-10T09:29:01Z</time>
      </trkpt>
      <trkpt lat="45.82222" lon="4.45218">
        <ele>626.6</ele>
        <time>2025-09-10T09:29:02Z</time>
      </trkpt>
      <trkpt lat="45.82222" lon="4.45221">
        <ele>626.6</ele>
        <time>2025-09-10T09:29:03Z</time>
      </trkpt>
      <trkpt lat="45.82222" lon="4.45224">
        <ele>626.6</ele>
        <time>2025-09-10T09:29:04Z</time>
      </trkpt>
      <trkpt lat="45.82222" lon="4.45227">
        <ele>626.6</ele>
        <time>2025-09-10T09:29:05Z</time>
      </trkpt>
      <trkpt lat="45.82221" lon="4.45231">
        <ele>626.6</ele>
        <time>2025-09-10T09:29:06Z</time>
      </trkpt>
      <trkpt lat="45.8222" lon="4.45234">
        <ele>626.8</ele>
        <time>2025-09-10T09:29:07Z</time>
      </trkpt>
      <trkpt lat="45.82219" lon="4.45238">
        <ele>626.8</ele>
        <time>2025-09-10T09:29:08Z</time>
      </trkpt>
      <trkpt lat="45.82218" lon="4.45242">
        <ele>626.6</ele>
        <time>2025-09-10T09:29:09Z</time>
      </trkpt>
      <trkpt lat="45.82217" lon="4.45247">
        <ele>626.6</ele>
        <time>2025-09-10T09:29:10Z</time>
      </trkpt>
      <trkpt lat="45.82216" lon="4.45252">
        <ele>626.2</ele>
        <time>2025-09-10T09:29:11Z</time>
      </trkpt>
      <trkpt lat="45.82215" lon="4.45257">
        <ele>626.2</ele>
        <time>2025-09-10T09:29:12Z</time>
      </trkpt>
      <trkpt lat="45.82213" lon="4.45263">
        <ele>626</ele>
        <time>2025-09-10T09:29:13Z</time>
      </trkpt>
      <trkpt lat="45.82212" lon="4.45269">
        <ele>626</ele>
        <time>2025-09-10T09:29:14Z</time>
      </trkpt>
      <trkpt lat="45.82211" lon="4.45276">
        <ele>626</ele>
        <time>2025-09-10T09:29:15Z</time>
      </trkpt>
      <trkpt lat="45.82209" lon="4.45281">
        <ele>625.6</ele>
        <time>2025-09-10T09:29:16Z</time>
      </trkpt>
      <trkpt lat="45.82208" lon="4.45287">
        <ele>625.6</ele>
        <time>2025-09-10T09:29:17Z</time>
      </trkpt>
      <trkpt lat="45.82206" lon="4.45293">
        <ele>625.6</ele>
        <time>2025-09-10T09:29:18Z</time>
      </trkpt>
      <trkpt lat="45.82204" lon="4.45298">
        <ele>625.6</ele>
        <time>2025-09-10T09:29:19Z</time>
      </trkpt>
      <trkpt lat="45.82203" lon="4.45303">
        <ele>625.6</ele>
        <time>2025-09-10T09:29:20Z</time>
      </trkpt>
      <trkpt lat="45.82202" lon="4.45308">
        <ele>625.6</ele>
        <time>2025-09-10T09:29:21Z</time>
      </trkpt>
      <trkpt lat="45.822" lon="4.45313">
        <ele>625.6</ele>
        <time>2025-09-10T09:29:22Z</time>
      </trkpt>
      <trkpt lat="45.82199" lon="4.45318">
        <ele>625.6</ele>
        <time>2025-09-10T09:29:23Z</time>
      </trkpt>
      <trkpt lat="45.82197" lon="4.45323">
        <ele>625.6</ele>
        <time>2025-09-10T09:29:24Z</time>
      </trkpt>
      <trkpt lat="45.82195" lon="4.45329">
        <ele>625.6</ele>
        <time>2025-09-10T09:29:25Z</time>
      </trkpt>
      <trkpt lat="45.82194" lon="4.45334">
        <ele>625.6</ele>
        <time>2025-09-10T09:29:26Z</time>
      </trkpt>
      <trkpt lat="45.82192" lon="4.45339">
        <ele>625.6</ele>
        <time>2025-09-10T09:29:27Z</time>
      </trkpt>
      <trkpt lat="45.8219" lon="4.45344">
        <ele>625.6</ele>
        <time>2025-09-10T09:29:28Z</time>
      </trkpt>
      <trkpt lat="45.82189" lon="4.45349">
        <ele>625.4</ele>
        <time>2025-09-10T09:29:29Z</time>
      </trkpt>
      <trkpt lat="45.82187" lon="4.45355">
        <ele>625</ele>
        <time>2025-09-10T09:29:30Z</time>
      </trkpt>
      <trkpt lat="45.82185" lon="4.4536">
        <ele>625</ele>
        <time>2025-09-10T09:29:31Z</time>
      </trkpt>
      <trkpt lat="45.82183" lon="4.45367">
        <ele>625</ele>
        <time>2025-09-10T09:29:32Z</time>
      </trkpt>
      <trkpt lat="45.82182" lon="4.45372">
        <ele>625</ele>
        <time>2025-09-10T09:29:33Z</time>
      </trkpt>
      <trkpt lat="45.82181" lon="4.45377">
        <ele>625</ele>
        <time>2025-09-10T09:29:34Z</time>
      </trkpt>
      <trkpt lat="45.82179" lon="4.45384">
        <ele>625</ele>
        <time>2025-09-10T09:29:35Z</time>
      </trkpt>
      <trkpt lat="45.82178" lon="4.45389">
        <ele>624.6</ele>
        <time>2025-09-10T09:29:36Z</time>
      </trkpt>
      <trkpt lat="45.82177" lon="4.45396">
        <ele>624.6</ele>
        <time>2025-09-10T09:29:37Z</time>
      </trkpt>
      <trkpt lat="45.82175" lon="4.45402">
        <ele>624.6</ele>
        <time>2025-09-10T09:29:38Z</time>
      </trkpt>
      <trkpt lat="45.82174" lon="4.45408">
        <ele>624.6</ele>
        <time>2025-09-10T09:29:39Z</time>
      </trkpt>
      <trkpt lat="45.82174" lon="4.45414">
        <ele>624.4</ele>
        <time>2025-09-10T09:29:40Z</time>
      </trkpt>
      <trkpt lat="45.82174" lon="4.4542">
        <ele>624.4</ele>
        <time>2025-09-10T09:29:41Z</time>
      </trkpt>
      <trkpt lat="45.82174" lon="4.45425">
        <ele>624.4</ele>
        <time>2025-09-10T09:29:42Z</time>
      </trkpt>
      <trkpt lat="45.82174" lon="4.45431">
        <ele>624.4</ele>
        <time>2025-09-10T09:29:43Z</time>
      </trkpt>
      <trkpt lat="45.82175" lon="4.45437">
        <ele>624.2</ele>
        <time>2025-09-10T09:29:44Z</time>
      </trkpt>
      <trkpt lat="45.82175" lon="4.45444">
        <ele>624.2</ele>
        <time>2025-09-10T09:29:45Z</time>
      </trkpt>
      <trkpt lat="45.82176" lon="4.45449">
        <ele>624.2</ele>
        <time>2025-09-10T09:29:46Z</time>
      </trkpt>
      <trkpt lat="45.82176" lon="4.45455">
        <ele>624.2</ele>
        <time>2025-09-10T09:29:47Z</time>
      </trkpt>
      <trkpt lat="45.82178" lon="4.45461">
        <ele>624</ele>
        <time>2025-09-10T09:29:48Z</time>
      </trkpt>
      <trkpt lat="45.82179" lon="4.45466">
        <ele>624</ele>
        <time>2025-09-10T09:29:49Z</time>
      </trkpt>
      <trkpt lat="45.82181" lon="4.45471">
        <ele>624</ele>
        <time>2025-09-10T09:29:50Z</time>
      </trkpt>
      <trkpt lat="45.82183" lon="4.45475">
        <ele>624</ele>
        <time>2025-09-10T09:29:51Z</time>
      </trkpt>
      <trkpt lat="45.82185" lon="4.45479">
        <ele>624</ele>
        <time>2025-09-10T09:29:52Z</time>
      </trkpt>
      <trkpt lat="45.82186" lon="4.45483">
        <ele>624</ele>
        <time>2025-09-10T09:29:53Z</time>
      </trkpt>
      <trkpt lat="45.82188" lon="4.45487">
        <ele>624</ele>
        <time>2025-09-10T09:29:54Z</time>
      </trkpt>
      <trkpt lat="45.82189" lon="4.45491">
        <ele>624.2</ele>
        <time>2025-09-10T09:29:55Z</time>
      </trkpt>
      <trkpt lat="45.8219" lon="4.45494">
        <ele>624.2</ele>
        <time>2025-09-10T09:29:56Z</time>
      </trkpt>
      <trkpt lat="45.82191" lon="4.45497">
        <ele>624.2</ele>
        <time>2025-09-10T09:29:57Z</time>
      </trkpt>
      <trkpt lat="45.82191" lon="4.45501">
        <ele>624.2</ele>
        <time>2025-09-10T09:29:58Z</time>
      </trkpt>
      <trkpt lat="45.82191" lon="4.45504">
        <ele>624.2</ele>
        <time>2025-09-10T09:29:59Z</time>
      </trkpt>
      <trkpt lat="45.82191" lon="4.45508">
        <ele>624.4</ele>
        <time>2025-09-10T09:30:00Z</time>
      </trkpt>
      <trkpt lat="45.82191" lon="4.45512">
        <ele>624.4</ele>
        <time>2025-09-10T09:30:01Z</time>
      </trkpt>
      <trkpt lat="45.8219" lon="4.45515">
        <ele>624.4</ele>
        <time>2025-09-10T09:30:02Z</time>
      </trkpt>
      <trkpt lat="45.8219" lon="4.45518">
        <ele>624.4</ele>
        <time>2025-09-10T09:30:03Z</time>
      </trkpt>
      <trkpt lat="45.82189" lon="4.45522">
        <ele>624.4</ele>
        <time>2025-09-10T09:30:04Z</time>
      </trkpt>
      <trkpt lat="45.82189" lon="4.45522">
        <ele>624.6</ele>
        <time>2025-09-10T09:30:05Z</time>
      </trkpt>
      <trkpt lat="45.82189" lon="4.45522">
        <ele>624.6</ele>
        <time>2025-09-10T09:30:06Z</time>
      </trkpt>
      <trkpt lat="45.8219" lon="4.45533">
        <ele>624.8</ele>
        <time>2025-09-10T09:30:08Z</time>
      </trkpt>
      <trkpt lat="45.82191" lon="4.45536">
        <ele>624.8</ele>
        <time>2025-09-10T09:30:09Z</time>
      </trkpt>
      <trkpt lat="45.82191" lon="4.45539">
        <ele>624.8</ele>
        <time>2025-09-10T09:30:10Z</time>
      </trkpt>
      <trkpt lat="45.82191" lon="4.4554">
        <ele>624.8</ele>
        <time>2025-09-10T09:30:11Z</time>
      </trkpt>
      <trkpt lat="45.82191" lon="4.4554">
        <ele>624.8</ele>
        <time>2025-09-10T09:30:12Z</time>
      </trkpt>
      <trkpt lat="45.82192" lon="4.45541">
        <ele>623.8</ele>
        <time>2025-09-10T09:31:01Z</time>
      </trkpt>
      <trkpt lat="45.82191" lon="4.45543">
        <ele>623.8</ele>
        <time>2025-09-10T09:31:02Z</time>
      </trkpt>
      <trkpt lat="45.82191" lon="4.45545">
        <ele>623.6</ele>
        <time>2025-09-10T09:31:03Z</time>
      </trkpt>
      <trkpt lat="45.82192" lon="4.45546">
        <ele>623.6</ele>
        <time>2025-09-10T09:31:04Z</time>
      </trkpt>
      <trkpt lat="45.82192" lon="4.45546">
        <ele>623.6</ele>
        <time>2025-09-10T09:31:05Z</time>
      </trkpt>
      <trkpt lat="45.82192" lon="4.45546">
        <ele>623.6</ele>
        <time>2025-09-10T09:31:06Z</time>
      </trkpt>
      <trkpt lat="45.82192" lon="4.45546">
        <ele>623.4</ele>
        <time>2025-09-10T09:31:07Z</time>
      </trkpt>
      <trkpt lat="45.82192" lon="4.45547">
        <ele>623.4</ele>
        <time>2025-09-10T09:31:08Z</time>
      </trkpt>
      <trkpt lat="45.82192" lon="4.4555">
        <ele>623.4</ele>
        <time>2025-09-10T09:31:09Z</time>
      </trkpt>
      <trkpt lat="45.82191" lon="4.45553">
        <ele>622.8</ele>
        <time>2025-09-10T09:31:10Z</time>
      </trkpt>
      <trkpt lat="45.82191" lon="4.45556">
        <ele>622.8</ele>
        <time>2025-09-10T09:31:11Z</time>
      </trkpt>
      <trkpt lat="45.82191" lon="4.45559">
        <ele>622.2</ele>
        <time>2025-09-10T09:31:12Z</time>
      </trkpt>
      <trkpt lat="45.82191" lon="4.45561">
        <ele>622.2</ele>
        <time>2025-09-10T09:31:13Z</time>
      </trkpt>
      <trkpt lat="45.82191" lon="4.45564">
        <ele>622.2</ele>
        <time>2025-09-10T09:31:14Z</time>
      </trkpt>
      <trkpt lat="45.82191" lon="4.45568">
        <ele>621.8</ele>
        <time>2025-09-10T09:31:15Z</time>
      </trkpt>
      <trkpt lat="45.82192" lon="4.4557">
        <ele>621.6</ele>
        <time>2025-09-10T09:31:16Z</time>
      </trkpt>
      <trkpt lat="45.82192" lon="4.45573">
        <ele>621.6</ele>
        <time>2025-09-10T09:31:17Z</time>
      </trkpt>
      <trkpt lat="45.82193" lon="4.45576">
        <ele>621.2</ele>
        <time>2025-09-10T09:31:18Z</time>
      </trkpt>
      <trkpt lat="45.82194" lon="4.45578">
        <ele>621.2</ele>
        <time>2025-09-10T09:31:19Z</time>
      </trkpt>
      <trkpt lat="45.82196" lon="4.4558">
        <ele>621</ele>
        <time>2025-09-10T09:31:20Z</time>
      </trkpt>
      <trkpt lat="45.82197" lon="4.45583">
        <ele>621</ele>
        <time>2025-09-10T09:31:21Z</time>
      </trkpt>
      <trkpt lat="45.82199" lon="4.45586">
        <ele>620.8</ele>
        <time>2025-09-10T09:31:22Z</time>
      </trkpt>
      <trkpt lat="45.82201" lon="4.4559">
        <ele>620.8</ele>
        <time>2025-09-10T09:31:23Z</time>
      </trkpt>
      <trkpt lat="45.82203" lon="4.45594">
        <ele>620.4</ele>
        <time>2025-09-10T09:31:24Z</time>
      </trkpt>
      <trkpt lat="45.82205" lon="4.45597">
        <ele>620.4</ele>
        <time>2025-09-10T09:31:25Z</time>
      </trkpt>
      <trkpt lat="45.82208" lon="4.456">
        <ele>619.8</ele>
        <time>2025-09-10T09:31:26Z</time>
      </trkpt>
      <trkpt lat="45.82211" lon="4.45604">
        <ele>619.4</ele>
        <time>2025-09-10T09:31:27Z</time>
      </trkpt>
      <trkpt lat="45.82215" lon="4.45607">
        <ele>619</ele>
        <time>2025-09-10T09:31:28Z</time>
      </trkpt>
      <trkpt lat="45.82218" lon="4.45611">
        <ele>618.8</ele>
        <time>2025-09-10T09:31:29Z</time>
      </trkpt>
      <trkpt lat="45.82221" lon="4.45615">
        <ele>618.8</ele>
        <time>2025-09-10T09:31:30Z</time>
      </trkpt>
      <trkpt lat="45.82224" lon="4.45618">
        <ele>618.8</ele>
        <time>2025-09-10T09:31:31Z</time>
      </trkpt>
      <trkpt lat="45.82227" lon="4.45622">
        <ele>618.4</ele>
        <time>2025-09-10T09:31:32Z</time>
      </trkpt>
      <trkpt lat="45.82231" lon="4.45627">
        <ele>618</ele>
        <time>2025-09-10T09:31:33Z</time>
      </trkpt>
      <trkpt lat="45.82234" lon="4.45631">
        <ele>617.6</ele>
        <time>2025-09-10T09:31:34Z</time>
      </trkpt>
      <trkpt lat="45.82238" lon="4.45636">
        <ele>617.6</ele>
        <time>2025-09-10T09:31:35Z</time>
      </trkpt>
      <trkpt lat="45.82242" lon="4.4564">
        <ele>617.2</ele>
        <time>2025-09-10T09:31:36Z</time>
      </trkpt>
      <trkpt lat="45.82245" lon="4.45644">
        <ele>617.2</ele>
        <time>2025-09-10T09:31:37Z</time>
      </trkpt>
      <trkpt lat="45.82248" lon="4.4565">
        <ele>616.8</ele>
        <time>2025-09-10T09:31:38Z</time>
      </trkpt>
      <trkpt lat="45.82252" lon="4.45655">
        <ele>616.8</ele>
        <time>2025-09-10T09:31:39Z</time>
      </trkpt>
      <trkpt lat="45.82255" lon="4.4566">
        <ele>616.8</ele>
        <time>2025-09-10T09:31:40Z</time>
      </trkpt>
      <trkpt lat="45.82258" lon="4.45663">
        <ele>616.6</ele>
        <time>2025-09-10T09:31:41Z</time>
      </trkpt>
      <trkpt lat="45.8226" lon="4.45667">
        <ele>616.6</ele>
        <time>2025-09-10T09:31:42Z</time>
      </trkpt>
      <trkpt lat="45.82262" lon="4.45674">
        <ele>616.6</ele>
        <time>2025-09-10T09:31:43Z</time>
      </trkpt>
      <trkpt lat="45.82262" lon="4.45678">
        <ele>616.6</ele>
        <time>2025-09-10T09:31:44Z</time>
      </trkpt>
      <trkpt lat="45.82262" lon="4.45681">
        <ele>616.4</ele>
        <time>2025-09-10T09:31:45Z</time>
      </trkpt>
      <trkpt lat="45.82262" lon="4.45683">
        <ele>616.4</ele>
        <time>2025-09-10T09:31:46Z</time>
      </trkpt>
      <trkpt lat="45.82262" lon="4.45685">
        <ele>616.4</ele>
        <time>2025-09-10T09:31:47Z</time>
      </trkpt>
      <trkpt lat="45.82262" lon="4.45688">
        <ele>616.4</ele>
        <time>2025-09-10T09:31:48Z</time>
      </trkpt>
      <trkpt lat="45.82261" lon="4.45691">
        <ele>616</ele>
        <time>2025-09-10T09:31:49Z</time>
      </trkpt>
      <trkpt lat="45.82261" lon="4.45694">
        <ele>615.8</ele>
        <time>2025-09-10T09:31:50Z</time>
      </trkpt>
      <trkpt lat="45.82261" lon="4.45697">
        <ele>615.8</ele>
        <time>2025-09-10T09:31:51Z</time>
      </trkpt>
      <trkpt lat="45.82261" lon="4.45699">
        <ele>615.4</ele>
        <time>2025-09-10T09:31:52Z</time>
      </trkpt>
      <trkpt lat="45.82261" lon="4.45701">
        <ele>615.4</ele>
        <time>2025-09-10T09:31:53Z</time>
      </trkpt>
      <trkpt lat="45.82261" lon="4.45703">
        <ele>615</ele>
        <time>2025-09-10T09:31:54Z</time>
      </trkpt>
      <trkpt lat="45.82262" lon="4.45703">
        <ele>614.8</ele>
        <time>2025-09-10T09:31:55Z</time>
      </trkpt>
      <trkpt lat="45.82262" lon="4.45703">
        <ele>613.8</ele>
        <time>2025-09-10T09:31:56Z</time>
      </trkpt>
      <trkpt lat="45.82262" lon="4.45703">
        <ele>613.8</ele>
        <time>2025-09-10T09:31:57Z</time>
      </trkpt>
      <trkpt lat="45.82261" lon="4.45708">
        <ele>613.8</ele>
        <time>2025-09-10T09:32:19Z</time>
      </trkpt>
      <trkpt lat="45.82261" lon="4.45711">
        <ele>613.8</ele>
        <time>2025-09-10T09:32:20Z</time>
      </trkpt>
      <trkpt lat="45.8226" lon="4.45714">
        <ele>613.6</ele>
        <time>2025-09-10T09:32:21Z</time>
      </trkpt>
      <trkpt lat="45.82259" lon="4.45718">
        <ele>613.2</ele>
        <time>2025-09-10T09:32:22Z</time>
      </trkpt>
      <trkpt lat="45.82259" lon="4.45721">
        <ele>613.2</ele>
        <time>2025-09-10T09:32:23Z</time>
      </trkpt>
      <trkpt lat="45.82259" lon="4.45721">
        <ele>612.8</ele>
        <time>2025-09-10T09:32:24Z</time>
      </trkpt>
      <trkpt lat="45.82259" lon="4.45724">
        <ele>612.4</ele>
        <time>2025-09-10T09:32:25Z</time>
      </trkpt>
      <trkpt lat="45.82258" lon="4.45727">
        <ele>612.4</ele>
        <time>2025-09-10T09:32:26Z</time>
      </trkpt>
      <trkpt lat="45.82258" lon="4.4573">
        <ele>612</ele>
        <time>2025-09-10T09:32:27Z</time>
      </trkpt>
      <trkpt lat="45.82258" lon="4.45732">
        <ele>612</ele>
        <time>2025-09-10T09:32:28Z</time>
      </trkpt>
      <trkpt lat="45.82258" lon="4.45735">
        <ele>611.4</ele>
        <time>2025-09-10T09:32:29Z</time>
      </trkpt>
      <trkpt lat="45.82257" lon="4.45737">
        <ele>611.4</ele>
        <time>2025-09-10T09:32:30Z</time>
      </trkpt>
      <trkpt lat="45.82256" lon="4.4574">
        <ele>611</ele>
        <time>2025-09-10T09:32:31Z</time>
      </trkpt>
      <trkpt lat="45.82256" lon="4.45742">
        <ele>610.6</ele>
        <time>2025-09-10T09:32:32Z</time>
      </trkpt>
      <trkpt lat="45.82255" lon="4.45745">
        <ele>610.6</ele>
        <time>2025-09-10T09:32:33Z</time>
      </trkpt>
      <trkpt lat="45.82255" lon="4.45746">
        <ele>610.2</ele>
        <time>2025-09-10T09:32:34Z</time>
      </trkpt>
      <trkpt lat="45.82254" lon="4.45748">
        <ele>610.2</ele>
        <time>2025-09-10T09:32:35Z</time>
      </trkpt>
      <trkpt lat="45.82253" lon="4.45751">
        <ele>610</ele>
        <time>2025-09-10T09:32:36Z</time>
      </trkpt>
      <trkpt lat="45.82252" lon="4.45754">
        <ele>609.4</ele>
        <time>2025-09-10T09:32:37Z</time>
      </trkpt>
      <trkpt lat="45.82251" lon="4.45757">
        <ele>609.4</ele>
        <time>2025-09-10T09:32:38Z</time>
      </trkpt>
      <trkpt lat="45.82249" lon="4.45761">
        <ele>609</ele>
        <time>2025-09-10T09:32:39Z</time>
      </trkpt>
      <trkpt lat="45.82248" lon="4.45764">
        <ele>608</ele>
        <time>2025-09-10T09:32:40Z</time>
      </trkpt>
      <trkpt lat="45.82248" lon="4.45767">
        <ele>608</ele>
        <time>2025-09-10T09:32:41Z</time>
      </trkpt>
      <trkpt lat="45.82247" lon="4.4577">
        <ele>607.8</ele>
        <time>2025-09-10T09:32:42Z</time>
      </trkpt>
      <trkpt lat="45.82246" lon="4.45773">
        <ele>607.6</ele>
        <time>2025-09-10T09:32:43Z</time>
      </trkpt>
      <trkpt lat="45.82244" lon="4.45777">
        <ele>607.2</ele>
        <time>2025-09-10T09:32:44Z</time>
      </trkpt>
      <trkpt lat="45.82243" lon="4.4578">
        <ele>606.6</ele>
        <time>2025-09-10T09:32:45Z</time>
      </trkpt>
      <trkpt lat="45.82241" lon="4.45783">
        <ele>606.2</ele>
        <time>2025-09-10T09:32:46Z</time>
      </trkpt>
      <trkpt lat="45.8224" lon="4.45786">
        <ele>605.8</ele>
        <time>2025-09-10T09:32:47Z</time>
      </trkpt>
      <trkpt lat="45.82239" lon="4.45789">
        <ele>605.4</ele>
        <time>2025-09-10T09:32:48Z</time>
      </trkpt>
      <trkpt lat="45.82238" lon="4.45792">
        <ele>604.8</ele>
        <time>2025-09-10T09:32:49Z</time>
      </trkpt>
      <trkpt lat="45.82237" lon="4.45794">
        <ele>604.8</ele>
        <time>2025-09-10T09:32:50Z</time>
      </trkpt>
      <trkpt lat="45.82235" lon="4.45797">
        <ele>604.4</ele>
        <time>2025-09-10T09:32:51Z</time>
      </trkpt>
      <trkpt lat="45.82234" lon="4.45799">
        <ele>604.2</ele>
        <time>2025-09-10T09:32:52Z</time>
      </trkpt>
      <trkpt lat="45.82234" lon="4.458">
        <ele>604.2</ele>
        <time>2025-09-10T09:32:53Z</time>
      </trkpt>
      <trkpt lat="45.82233" lon="4.45801">
        <ele>603.8</ele>
        <time>2025-09-10T09:32:54Z</time>
      </trkpt>
      <trkpt lat="45.82232" lon="4.45802">
        <ele>603.4</ele>
        <time>2025-09-10T09:32:55Z</time>
      </trkpt>
      <trkpt lat="45.82232" lon="4.45804">
        <ele>603.2</ele>
        <time>2025-09-10T09:32:56Z</time>
      </trkpt>
      <trkpt lat="45.82231" lon="4.45805">
        <ele>603</ele>
        <time>2025-09-10T09:32:57Z</time>
      </trkpt>
      <trkpt lat="45.82231" lon="4.45807">
        <ele>603</ele>
        <time>2025-09-10T09:32:58Z</time>
      </trkpt>
      <trkpt lat="45.82231" lon="4.4581">
        <ele>602.8</ele>
        <time>2025-09-10T09:32:59Z</time>
      </trkpt>
      <trkpt lat="45.8223" lon="4.45812">
        <ele>602.8</ele>
        <time>2025-09-10T09:33:00Z</time>
      </trkpt>
      <trkpt lat="45.82229" lon="4.45815">
        <ele>602.4</ele>
        <time>2025-09-10T09:33:01Z</time>
      </trkpt>
      <trkpt lat="45.82228" lon="4.45818">
        <ele>602</ele>
        <time>2025-09-10T09:33:02Z</time>
      </trkpt>
      <trkpt lat="45.82227" lon="4.45821">
        <ele>601.6</ele>
        <time>2025-09-10T09:33:03Z</time>
      </trkpt>
      <trkpt lat="45.82226" lon="4.45824">
        <ele>601.6</ele>
        <time>2025-09-10T09:33:04Z</time>
      </trkpt>
      <trkpt lat="45.82224" lon="4.45827">
        <ele>601.2</ele>
        <time>2025-09-10T09:33:05Z</time>
      </trkpt>
      <trkpt lat="45.82223" lon="4.4583">
        <ele>600.6</ele>
        <time>2025-09-10T09:33:06Z</time>
      </trkpt>
      <trkpt lat="45.82222" lon="4.45833">
        <ele>600.4</ele>
        <time>2025-09-10T09:33:07Z</time>
      </trkpt>
      <trkpt lat="45.82221" lon="4.45836">
        <ele>600.4</ele>
        <time>2025-09-10T09:33:08Z</time>
      </trkpt>
      <trkpt lat="45.8222" lon="4.45838">
        <ele>600</ele>
        <time>2025-09-10T09:33:09Z</time>
      </trkpt>
      <trkpt lat="45.82219" lon="4.4584">
        <ele>599.6</ele>
        <time>2025-09-10T09:33:10Z</time>
      </trkpt>
      <trkpt lat="45.82218" lon="4.45843">
        <ele>599.2</ele>
        <time>2025-09-10T09:33:11Z</time>
      </trkpt>
      <trkpt lat="45.82217" lon="4.45846">
        <ele>599</ele>
        <time>2025-09-10T09:33:12Z</time>
      </trkpt>
      <trkpt lat="45.82216" lon="4.45849">
        <ele>598.4</ele>
        <time>2025-09-10T09:33:13Z</time>
      </trkpt>
      <trkpt lat="45.82215" lon="4.45852">
        <ele>598</ele>
        <time>2025-09-10T09:33:14Z</time>
      </trkpt>
      <trkpt lat="45.82214" lon="4.45855">
        <ele>597.6</ele>
        <time>2025-09-10T09:33:15Z</time>
      </trkpt>
      <trkpt lat="45.82213" lon="4.45858">
        <ele>597.4</ele>
        <time>2025-09-10T09:33:16Z</time>
      </trkpt>
      <trkpt lat="45.82211" lon="4.45862">
        <ele>597.4</ele>
        <time>2025-09-10T09:33:17Z</time>
      </trkpt>
      <trkpt lat="45.82209" lon="4.45865">
        <ele>596.8</ele>
        <time>2025-09-10T09:33:18Z</time>
      </trkpt>
      <trkpt lat="45.82208" lon="4.45868">
        <ele>596.6</ele>
        <time>2025-09-10T09:33:19Z</time>
      </trkpt>
      <trkpt lat="45.82208" lon="4.45869">
        <ele>596.4</ele>
        <time>2025-09-10T09:33:20Z</time>
      </trkpt>
      <trkpt lat="45.82208" lon="4.45872">
        <ele>596.4</ele>
        <time>2025-09-10T09:33:21Z</time>
      </trkpt>
      <trkpt lat="45.82207" lon="4.45875">
        <ele>596</ele>
        <time>2025-09-10T09:33:22Z</time>
      </trkpt>
      <trkpt lat="45.82207" lon="4.45877">
        <ele>595.8</ele>
        <time>2025-09-10T09:33:23Z</time>
      </trkpt>
      <trkpt lat="45.82206" lon="4.4588">
        <ele>595.6</ele>
        <time>2025-09-10T09:33:24Z</time>
      </trkpt>
      <trkpt lat="45.82205" lon="4.45883">
        <ele>595.6</ele>
        <time>2025-09-10T09:33:25Z</time>
      </trkpt>
      <trkpt lat="45.82204" lon="4.45888">
        <ele>595.2</ele>
        <time>2025-09-10T09:33:26Z</time>
      </trkpt>
      <trkpt lat="45.82204" lon="4.45892">
        <ele>595.2</ele>
        <time>2025-09-10T09:33:27Z</time>
      </trkpt>
      <trkpt lat="45.82203" lon="4.45896">
        <ele>594.6</ele>
        <time>2025-09-10T09:33:28Z</time>
      </trkpt>
      <trkpt lat="45.82204" lon="4.459">
        <ele>594.6</ele>
        <time>2025-09-10T09:33:29Z</time>
      </trkpt>
      <trkpt lat="45.82204" lon="4.45904">
        <ele>594</ele>
        <time>2025-09-10T09:33:30Z</time>
      </trkpt>
      <trkpt lat="45.82204" lon="4.45909">
        <ele>593.8</ele>
        <time>2025-09-10T09:33:31Z</time>
      </trkpt>
      <trkpt lat="45.82204" lon="4.45913">
        <ele>593.4</ele>
        <time>2025-09-10T09:33:32Z</time>
      </trkpt>
      <trkpt lat="45.82205" lon="4.45918">
        <ele>593.4</ele>
        <time>2025-09-10T09:33:33Z</time>
      </trkpt>
      <trkpt lat="45.82205" lon="4.45922">
        <ele>593</ele>
        <time>2025-09-10T09:33:34Z</time>
      </trkpt>
      <trkpt lat="45.82205" lon="4.45926">
        <ele>592.6</ele>
        <time>2025-09-10T09:33:35Z</time>
      </trkpt>
      <trkpt lat="45.82206" lon="4.45931">
        <ele>592.2</ele>
        <time>2025-09-10T09:33:36Z</time>
      </trkpt>
      <trkpt lat="45.82206" lon="4.45936">
        <ele>592.2</ele>
        <time>2025-09-10T09:33:37Z</time>
      </trkpt>
      <trkpt lat="45.82206" lon="4.45941">
        <ele>592.2</ele>
        <time>2025-09-10T09:33:38Z</time>
      </trkpt>
      <trkpt lat="45.82206" lon="4.45946">
        <ele>591.8</ele>
        <time>2025-09-10T09:33:39Z</time>
      </trkpt>
      <trkpt lat="45.82206" lon="4.45951">
        <ele>591.6</ele>
        <time>2025-09-10T09:33:40Z</time>
      </trkpt>
      <trkpt lat="45.82207" lon="4.45956">
        <ele>591.2</ele>
        <time>2025-09-10T09:33:41Z</time>
      </trkpt>
      <trkpt lat="45.82207" lon="4.4596">
        <ele>591.2</ele>
        <time>2025-09-10T09:33:42Z</time>
      </trkpt>
      <trkpt lat="45.82207" lon="4.45964">
        <ele>590.6</ele>
        <time>2025-09-10T09:33:43Z</time>
      </trkpt>
      <trkpt lat="45.82207" lon="4.45968">
        <ele>590.2</ele>
        <time>2025-09-10T09:33:44Z</time>
      </trkpt>
      <trkpt lat="45.82207" lon="4.45972">
        <ele>590</ele>
        <time>2025-09-10T09:33:45Z</time>
      </trkpt>
      <trkpt lat="45.82207" lon="4.45977">
        <ele>589.8</ele>
        <time>2025-09-10T09:33:46Z</time>
      </trkpt>
      <trkpt lat="45.82208" lon="4.4598">
        <ele>589.4</ele>
        <time>2025-09-10T09:33:47Z</time>
      </trkpt>
      <trkpt lat="45.82208" lon="4.45984">
        <ele>588.8</ele>
        <time>2025-09-10T09:33:48Z</time>
      </trkpt>
      <trkpt lat="45.82208" lon="4.45988">
        <ele>588.6</ele>
        <time>2025-09-10T09:33:49Z</time>
      </trkpt>
      <trkpt lat="45.82208" lon="4.45992">
        <ele>588.2</ele>
        <time>2025-09-10T09:33:50Z</time>
      </trkpt>
      <trkpt lat="45.82208" lon="4.45996">
        <ele>587.8</ele>
        <time>2025-09-10T09:33:51Z</time>
      </trkpt>
      <trkpt lat="45.82209" lon="4.46">
        <ele>587.2</ele>
        <time>2025-09-10T09:33:52Z</time>
      </trkpt>
      <trkpt lat="45.82209" lon="4.46004">
        <ele>586.8</ele>
        <time>2025-09-10T09:33:53Z</time>
      </trkpt>
      <trkpt lat="45.8221" lon="4.46008">
        <ele>586.8</ele>
        <time>2025-09-10T09:33:54Z</time>
      </trkpt>
      <trkpt lat="45.8221" lon="4.46012">
        <ele>586.2</ele>
        <time>2025-09-10T09:33:55Z</time>
      </trkpt>
      <trkpt lat="45.8221" lon="4.46017">
        <ele>586.2</ele>
        <time>2025-09-10T09:33:56Z</time>
      </trkpt>
      <trkpt lat="45.82211" lon="4.46023">
        <ele>585.6</ele>
        <time>2025-09-10T09:33:57Z</time>
      </trkpt>
      <trkpt lat="45.82211" lon="4.46028">
        <ele>585.4</ele>
        <time>2025-09-10T09:33:58Z</time>
      </trkpt>
      <trkpt lat="45.82211" lon="4.46032">
        <ele>585</ele>
        <time>2025-09-10T09:33:59Z</time>
      </trkpt>
      <trkpt lat="45.82212" lon="4.46037">
        <ele>584.6</ele>
        <time>2025-09-10T09:34:00Z</time>
      </trkpt>
      <trkpt lat="45.82212" lon="4.46042">
        <ele>584.2</ele>
        <time>2025-09-10T09:34:01Z</time>
      </trkpt>
      <trkpt lat="45.82213" lon="4.46046">
        <ele>584</ele>
        <time>2025-09-10T09:34:02Z</time>
      </trkpt>
      <trkpt lat="45.82214" lon="4.46051">
        <ele>584</ele>
        <time>2025-09-10T09:34:03Z</time>
      </trkpt>
      <trkpt lat="45.82215" lon="4.46055">
        <ele>583.6</ele>
        <time>2025-09-10T09:34:04Z</time>
      </trkpt>
      <trkpt lat="45.82216" lon="4.4606">
        <ele>583.6</ele>
        <time>2025-09-10T09:34:05Z</time>
      </trkpt>
      <trkpt lat="45.82218" lon="4.46065">
        <ele>583.2</ele>
        <time>2025-09-10T09:34:06Z</time>
      </trkpt>
      <trkpt lat="45.8222" lon="4.46068">
        <ele>583.2</ele>
        <time>2025-09-10T09:34:07Z</time>
      </trkpt>
      <trkpt lat="45.82222" lon="4.46071">
        <ele>583.2</ele>
        <time>2025-09-10T09:34:08Z</time>
      </trkpt>
      <trkpt lat="45.82225" lon="4.46073">
        <ele>583.2</ele>
        <time>2025-09-10T09:34:09Z</time>
      </trkpt>
      <trkpt lat="45.82227" lon="4.46075">
        <ele>583.2</ele>
        <time>2025-09-10T09:34:10Z</time>
      </trkpt>
      <trkpt lat="45.8223" lon="4.46075">
        <ele>583</ele>
        <time>2025-09-10T09:34:11Z</time>
      </trkpt>
      <trkpt lat="45.82232" lon="4.46075">
        <ele>583</ele>
        <time>2025-09-10T09:34:12Z</time>
      </trkpt>
      <trkpt lat="45.82236" lon="4.46074">
        <ele>582.8</ele>
        <time>2025-09-10T09:34:13Z</time>
      </trkpt>
      <trkpt lat="45.82239" lon="4.46074">
        <ele>582.6</ele>
        <time>2025-09-10T09:34:14Z</time>
      </trkpt>
      <trkpt lat="45.82241" lon="4.46073">
        <ele>582.2</ele>
        <time>2025-09-10T09:34:15Z</time>
      </trkpt>
      <trkpt lat="45.82244" lon="4.46072">
        <ele>582.2</ele>
        <time>2025-09-10T09:34:16Z</time>
      </trkpt>
      <trkpt lat="45.82246" lon="4.46071">
        <ele>581.2</ele>
        <time>2025-09-10T09:34:17Z</time>
      </trkpt>
      <trkpt lat="45.82248" lon="4.4607">
        <ele>581.2</ele>
        <time>2025-09-10T09:34:18Z</time>
      </trkpt>
      <trkpt lat="45.82251" lon="4.46068">
        <ele>580.8</ele>
        <time>2025-09-10T09:34:19Z</time>
      </trkpt>
      <trkpt lat="45.82253" lon="4.46067">
        <ele>580.4</ele>
        <time>2025-09-10T09:34:20Z</time>
      </trkpt>
      <trkpt lat="45.82256" lon="4.46066">
        <ele>580.4</ele>
        <time>2025-09-10T09:34:21Z</time>
      </trkpt>
      <trkpt lat="45.82258" lon="4.46065">
        <ele>579.8</ele>
        <time>2025-09-10T09:34:22Z</time>
      </trkpt>
      <trkpt lat="45.8226" lon="4.46064">
        <ele>579.8</ele>
        <time>2025-09-10T09:34:23Z</time>
      </trkpt>
      <trkpt lat="45.82263" lon="4.46063">
        <ele>579.2</ele>
        <time>2025-09-10T09:34:24Z</time>
      </trkpt>
      <trkpt lat="45.82265" lon="4.46062">
        <ele>578.8</ele>
        <time>2025-09-10T09:34:25Z</time>
      </trkpt>
      <trkpt lat="45.82266" lon="4.46061">
        <ele>578.6</ele>
        <time>2025-09-10T09:34:26Z</time>
      </trkpt>
      <trkpt lat="45.82268" lon="4.4606">
        <ele>578.2</ele>
        <time>2025-09-10T09:34:27Z</time>
      </trkpt>
      <trkpt lat="45.8227" lon="4.46059">
        <ele>578</ele>
        <time>2025-09-10T09:34:28Z</time>
      </trkpt>
      <trkpt lat="45.82272" lon="4.46058">
        <ele>577.6</ele>
        <time>2025-09-10T09:34:29Z</time>
      </trkpt>
      <trkpt lat="45.82274" lon="4.46057">
        <ele>577.4</ele>
        <time>2025-09-10T09:34:30Z</time>
      </trkpt>
      <trkpt lat="45.82276" lon="4.46056">
        <ele>576.8</ele>
        <time>2025-09-10T09:34:31Z</time>
      </trkpt>
      <trkpt lat="45.82278" lon="4.46055">
        <ele>576.6</ele>
        <time>2025-09-10T09:34:32Z</time>
      </trkpt>
      <trkpt lat="45.82281" lon="4.46055">
        <ele>576</ele>
        <time>2025-09-10T09:34:33Z</time>
      </trkpt>
      <trkpt lat="45.82283" lon="4.46053">
        <ele>575.8</ele>
        <time>2025-09-10T09:34:34Z</time>
      </trkpt>
      <trkpt lat="45.82284" lon="4.46053">
        <ele>575.8</ele>
        <time>2025-09-10T09:34:35Z</time>
      </trkpt>
      <trkpt lat="45.82285" lon="4.46052">
        <ele>575.4</ele>
        <time>2025-09-10T09:34:36Z</time>
      </trkpt>
      <trkpt lat="45.82286" lon="4.46051">
        <ele>575</ele>
        <time>2025-09-10T09:34:37Z</time>
      </trkpt>
      <trkpt lat="45.82288" lon="4.4605">
        <ele>574.8</ele>
        <time>2025-09-10T09:34:38Z</time>
      </trkpt>
      <trkpt lat="45.82289" lon="4.46049">
        <ele>574.8</ele>
        <time>2025-09-10T09:34:39Z</time>
      </trkpt>
      <trkpt lat="45.8229" lon="4.46049">
        <ele>574</ele>
        <time>2025-09-10T09:34:40Z</time>
      </trkpt>
      <trkpt lat="45.82292" lon="4.46048">
        <ele>573.6</ele>
        <time>2025-09-10T09:34:41Z</time>
      </trkpt>
      <trkpt lat="45.82293" lon="4.46046">
        <ele>573.4</ele>
        <time>2025-09-10T09:34:42Z</time>
      </trkpt>
      <trkpt lat="45.82294" lon="4.46045">
        <ele>573.2</ele>
        <time>2025-09-10T09:34:43Z</time>
      </trkpt>
      <trkpt lat="45.82296" lon="4.46044">
        <ele>573.2</ele>
        <time>2025-09-10T09:34:44Z</time>
      </trkpt>
      <trkpt lat="45.82297" lon="4.46043">
        <ele>572.6</ele>
        <time>2025-09-10T09:34:45Z</time>
      </trkpt>
      <trkpt lat="45.82298" lon="4.46043">
        <ele>572.2</ele>
        <time>2025-09-10T09:34:46Z</time>
      </trkpt>
      <trkpt lat="45.82301" lon="4.46042">
        <ele>572</ele>
        <time>2025-09-10T09:34:47Z</time>
      </trkpt>
      <trkpt lat="45.82303" lon="4.46042">
        <ele>571.8</ele>
        <time>2025-09-10T09:34:48Z</time>
      </trkpt>
      <trkpt lat="45.82304" lon="4.46041">
        <ele>571.2</ele>
        <time>2025-09-10T09:34:49Z</time>
      </trkpt>
      <trkpt lat="45.82306" lon="4.46041">
        <ele>571</ele>
        <time>2025-09-10T09:34:50Z</time>
      </trkpt>
      <trkpt lat="45.82308" lon="4.4604">
        <ele>571</ele>
        <time>2025-09-10T09:34:51Z</time>
      </trkpt>
      <trkpt lat="45.8231" lon="4.46039">
        <ele>570.8</ele>
        <time>2025-09-10T09:34:52Z</time>
      </trkpt>
      <trkpt lat="45.82313" lon="4.46038">
        <ele>570.4</ele>
        <time>2025-09-10T09:34:53Z</time>
      </trkpt>
      <trkpt lat="45.82315" lon="4.46037">
        <ele>569.8</ele>
        <time>2025-09-10T09:34:54Z</time>
      </trkpt>
      <trkpt lat="45.82318" lon="4.46036">
        <ele>569.4</ele>
        <time>2025-09-10T09:34:55Z</time>
      </trkpt>
      <trkpt lat="45.82321" lon="4.46035">
        <ele>569</ele>
        <time>2025-09-10T09:34:56Z</time>
      </trkpt>
      <trkpt lat="45.82324" lon="4.46034">
        <ele>569</ele>
        <time>2025-09-10T09:34:57Z</time>
      </trkpt>
      <trkpt lat="45.82327" lon="4.46033">
        <ele>568.6</ele>
        <time>2025-09-10T09:34:58Z</time>
      </trkpt>
      <trkpt lat="45.8233" lon="4.46032">
        <ele>568.6</ele>
        <time>2025-09-10T09:34:59Z</time>
      </trkpt>
      <trkpt lat="45.82333" lon="4.46031">
        <ele>568.2</ele>
        <time>2025-09-10T09:35:00Z</time>
      </trkpt>
      <trkpt lat="45.82336" lon="4.4603">
        <ele>568.2</ele>
        <time>2025-09-10T09:35:01Z</time>
      </trkpt>
      <trkpt lat="45.82338" lon="4.46029">
        <ele>567.8</ele>
        <time>2025-09-10T09:35:02Z</time>
      </trkpt>
      <trkpt lat="45.8234" lon="4.46028">
        <ele>567.6</ele>
        <time>2025-09-10T09:35:03Z</time>
      </trkpt>
      <trkpt lat="45.82343" lon="4.46027">
        <ele>567.6</ele>
        <time>2025-09-10T09:35:04Z</time>
      </trkpt>
      <trkpt lat="45.82345" lon="4.46027">
        <ele>567.2</ele>
        <time>2025-09-10T09:35:05Z</time>
      </trkpt>
      <trkpt lat="45.82347" lon="4.46026">
        <ele>567.2</ele>
        <time>2025-09-10T09:35:06Z</time>
      </trkpt>
      <trkpt lat="45.8235" lon="4.46025">
        <ele>567</ele>
        <time>2025-09-10T09:35:07Z</time>
      </trkpt>
      <trkpt lat="45.82353" lon="4.46024">
        <ele>567</ele>
        <time>2025-09-10T09:35:08Z</time>
      </trkpt>
      <trkpt lat="45.82356" lon="4.46022">
        <ele>566.6</ele>
        <time>2025-09-10T09:35:09Z</time>
      </trkpt>
      <trkpt lat="45.82359" lon="4.4602">
        <ele>566</ele>
        <time>2025-09-10T09:35:10Z</time>
      </trkpt>
      <trkpt lat="45.82363" lon="4.46017">
        <ele>566</ele>
        <time>2025-09-10T09:35:11Z</time>
      </trkpt>
      <trkpt lat="45.82366" lon="4.46016">
        <ele>565.6</ele>
        <time>2025-09-10T09:35:12Z</time>
      </trkpt>
      <trkpt lat="45.8237" lon="4.46015">
        <ele>565.6</ele>
        <time>2025-09-10T09:35:13Z</time>
      </trkpt>
      <trkpt lat="45.82373" lon="4.46014">
        <ele>565.4</ele>
        <time>2025-09-10T09:35:14Z</time>
      </trkpt>
      <trkpt lat="45.82376" lon="4.46013">
        <ele>565.4</ele>
        <time>2025-09-10T09:35:15Z</time>
      </trkpt>
      <trkpt lat="45.8238" lon="4.46011">
        <ele>565.4</ele>
        <time>2025-09-10T09:35:16Z</time>
      </trkpt>
      <trkpt lat="45.82383" lon="4.4601">
        <ele>565.4</ele>
        <time>2025-09-10T09:35:17Z</time>
      </trkpt>
      <trkpt lat="45.82387" lon="4.46009">
        <ele>565.4</ele>
        <time>2025-09-10T09:35:18Z</time>
      </trkpt>
      <trkpt lat="45.8239" lon="4.46009">
        <ele>565</ele>
        <time>2025-09-10T09:35:19Z</time>
      </trkpt>
      <trkpt lat="45.82394" lon="4.46007">
        <ele>565</ele>
        <time>2025-09-10T09:35:20Z</time>
      </trkpt>
      <trkpt lat="45.82398" lon="4.46006">
        <ele>564.6</ele>
        <time>2025-09-10T09:35:21Z</time>
      </trkpt>
      <trkpt lat="45.82402" lon="4.46005">
        <ele>564.6</ele>
        <time>2025-09-10T09:35:22Z</time>
      </trkpt>
      <trkpt lat="45.82405" lon="4.46004">
        <ele>564.4</ele>
        <time>2025-09-10T09:35:23Z</time>
      </trkpt>
      <trkpt lat="45.82409" lon="4.46004">
        <ele>564.4</ele>
        <time>2025-09-10T09:35:24Z</time>
      </trkpt>
      <trkpt lat="45.82412" lon="4.46003">
        <ele>564.4</ele>
        <time>2025-09-10T09:35:25Z</time>
      </trkpt>
      <trkpt lat="45.82415" lon="4.46002">
        <ele>564.4</ele>
        <time>2025-09-10T09:35:26Z</time>
      </trkpt>
      <trkpt lat="45.82418" lon="4.46001">
        <ele>564</ele>
        <time>2025-09-10T09:35:27Z</time>
      </trkpt>
      <trkpt lat="45.82421" lon="4.46001">
        <ele>563.4</ele>
        <time>2025-09-10T09:35:28Z</time>
      </trkpt>
      <trkpt lat="45.82424" lon="4.46002">
        <ele>563</ele>
        <time>2025-09-10T09:35:29Z</time>
      </trkpt>
      <trkpt lat="45.82426" lon="4.46002">
        <ele>563</ele>
        <time>2025-09-10T09:35:30Z</time>
      </trkpt>
      <trkpt lat="45.82429" lon="4.46003">
        <ele>562.6</ele>
        <time>2025-09-10T09:35:31Z</time>
      </trkpt>
      <trkpt lat="45.82432" lon="4.46003">
        <ele>562.6</ele>
        <time>2025-09-10T09:35:32Z</time>
      </trkpt>
      <trkpt lat="45.82435" lon="4.46004">
        <ele>562</ele>
        <time>2025-09-10T09:35:33Z</time>
      </trkpt>
      <trkpt lat="45.82437" lon="4.46004">
        <ele>561.6</ele>
        <time>2025-09-10T09:35:34Z</time>
      </trkpt>
      <trkpt lat="45.82439" lon="4.46005">
        <ele>561</ele>
        <time>2025-09-10T09:35:35Z</time>
      </trkpt>
      <trkpt lat="45.82442" lon="4.46006">
        <ele>560.8</ele>
        <time>2025-09-10T09:35:36Z</time>
      </trkpt>
      <trkpt lat="45.82443" lon="4.46007">
        <ele>560.6</ele>
        <time>2025-09-10T09:35:37Z</time>
      </trkpt>
      <trkpt lat="45.82445" lon="4.46009">
        <ele>560.2</ele>
        <time>2025-09-10T09:35:38Z</time>
      </trkpt>
      <trkpt lat="45.82446" lon="4.4601">
        <ele>559.8</ele>
        <time>2025-09-10T09:35:39Z</time>
      </trkpt>
      <trkpt lat="45.82447" lon="4.46012">
        <ele>559.6</ele>
        <time>2025-09-10T09:35:40Z</time>
      </trkpt>
      <trkpt lat="45.82449" lon="4.46013">
        <ele>559.4</ele>
        <time>2025-09-10T09:35:41Z</time>
      </trkpt>
      <trkpt lat="45.82451" lon="4.46013">
        <ele>558.8</ele>
        <time>2025-09-10T09:35:42Z</time>
      </trkpt>
      <trkpt lat="45.82455" lon="4.46013">
        <ele>558.8</ele>
        <time>2025-09-10T09:35:43Z</time>
      </trkpt>
      <trkpt lat="45.82457" lon="4.46013">
        <ele>558.4</ele>
        <time>2025-09-10T09:35:44Z</time>
      </trkpt>
      <trkpt lat="45.8246" lon="4.46013">
        <ele>558.2</ele>
        <time>2025-09-10T09:35:45Z</time>
      </trkpt>
      <trkpt lat="45.82464" lon="4.46013">
        <ele>558.2</ele>
        <time>2025-09-10T09:35:46Z</time>
      </trkpt>
      <trkpt lat="45.82468" lon="4.46014">
        <ele>558.2</ele>
        <time>2025-09-10T09:35:47Z</time>
      </trkpt>
      <trkpt lat="45.82472" lon="4.46014">
        <ele>558</ele>
        <time>2025-09-10T09:35:48Z</time>
      </trkpt>
      <trkpt lat="45.82476" lon="4.46014">
        <ele>558</ele>
        <time>2025-09-10T09:35:49Z</time>
      </trkpt>
      <trkpt lat="45.82479" lon="4.46014">
        <ele>557.6</ele>
        <time>2025-09-10T09:35:50Z</time>
      </trkpt>
      <trkpt lat="45.82483" lon="4.46014">
        <ele>557.2</ele>
        <time>2025-09-10T09:35:51Z</time>
      </trkpt>
      <trkpt lat="45.82486" lon="4.46014">
        <ele>556.8</ele>
        <time>2025-09-10T09:35:52Z</time>
      </trkpt>
      <trkpt lat="45.82489" lon="4.46015">
        <ele>556.4</ele>
        <time>2025-09-10T09:35:53Z</time>
      </trkpt>
      <trkpt lat="45.82492" lon="4.46015">
        <ele>556.4</ele>
        <time>2025-09-10T09:35:54Z</time>
      </trkpt>
      <trkpt lat="45.82496" lon="4.46016">
        <ele>555.6</ele>
        <time>2025-09-10T09:35:55Z</time>
      </trkpt>
      <trkpt lat="45.82499" lon="4.46016">
        <ele>555.2</ele>
        <time>2025-09-10T09:35:56Z</time>
      </trkpt>
      <trkpt lat="45.82502" lon="4.46016">
        <ele>555.2</ele>
        <time>2025-09-10T09:35:57Z</time>
      </trkpt>
      <trkpt lat="45.82506" lon="4.46016">
        <ele>555</ele>
        <time>2025-09-10T09:35:58Z</time>
      </trkpt>
      <trkpt lat="45.8251" lon="4.46016">
        <ele>555</ele>
        <time>2025-09-10T09:35:59Z</time>
      </trkpt>
      <trkpt lat="45.82513" lon="4.46017">
        <ele>554.6</ele>
        <time>2025-09-10T09:36:00Z</time>
      </trkpt>
      <trkpt lat="45.82516" lon="4.46017">
        <ele>554.4</ele>
        <time>2025-09-10T09:36:01Z</time>
      </trkpt>
      <trkpt lat="45.82518" lon="4.46018">
        <ele>554.4</ele>
        <time>2025-09-10T09:36:02Z</time>
      </trkpt>
      <trkpt lat="45.82521" lon="4.46019">
        <ele>554.4</ele>
        <time>2025-09-10T09:36:03Z</time>
      </trkpt>
      <trkpt lat="45.82523" lon="4.46022">
        <ele>554</ele>
        <time>2025-09-10T09:36:04Z</time>
      </trkpt>
      <trkpt lat="45.82524" lon="4.46025">
        <ele>554</ele>
        <time>2025-09-10T09:36:05Z</time>
      </trkpt>
      <trkpt lat="45.82524" lon="4.46028">
        <ele>554</ele>
        <time>2025-09-10T09:36:06Z</time>
      </trkpt>
      <trkpt lat="45.82523" lon="4.46031">
        <ele>554</ele>
        <time>2025-09-10T09:36:07Z</time>
      </trkpt>
      <trkpt lat="45.82522" lon="4.46033">
        <ele>553.8</ele>
        <time>2025-09-10T09:36:08Z</time>
      </trkpt>
      <trkpt lat="45.82521" lon="4.46036">
        <ele>553.8</ele>
        <time>2025-09-10T09:36:09Z</time>
      </trkpt>
      <trkpt lat="45.8252" lon="4.46039">
        <ele>553.8</ele>
        <time>2025-09-10T09:36:10Z</time>
      </trkpt>
      <trkpt lat="45.8252" lon="4.4604">
        <ele>553.8</ele>
        <time>2025-09-10T09:36:11Z</time>
      </trkpt>
      <trkpt lat="45.8252" lon="4.46041">
        <ele>553.8</ele>
        <time>2025-09-10T09:36:12Z</time>
      </trkpt>
      <trkpt lat="45.8252" lon="4.46039">
        <ele>553.4</ele>
        <time>2025-09-10T09:36:39Z</time>
      </trkpt>
      <trkpt lat="45.8252" lon="4.46038">
        <ele>553.4</ele>
        <time>2025-09-10T09:36:40Z</time>
      </trkpt>
      <trkpt lat="45.82519" lon="4.46038">
        <ele>553.4</ele>
        <time>2025-09-10T09:36:41Z</time>
      </trkpt>
      <trkpt lat="45.82517" lon="4.46037">
        <ele>553.4</ele>
        <time>2025-09-10T09:36:44Z</time>
      </trkpt>
      <trkpt lat="45.82517" lon="4.46035">
        <ele>553.4</ele>
        <time>2025-09-10T09:36:45Z</time>
      </trkpt>
      <trkpt lat="45.82517" lon="4.46034">
        <ele>553.4</ele>
        <time>2025-09-10T09:36:46Z</time>
      </trkpt>
      <trkpt lat="45.82517" lon="4.46033">
        <ele>553.4</ele>
        <time>2025-09-10T09:36:47Z</time>
      </trkpt>
      <trkpt lat="45.82518" lon="4.46032">
        <ele>553.4</ele>
        <time>2025-09-10T09:36:48Z</time>
      </trkpt>
      <trkpt lat="45.82519" lon="4.46032">
        <ele>553.4</ele>
        <time>2025-09-10T09:36:49Z</time>
      </trkpt>
      <trkpt lat="45.8252" lon="4.46033">
        <ele>553.4</ele>
        <time>2025-09-10T09:36:50Z</time>
      </trkpt>
      <trkpt lat="45.82521" lon="4.46034">
        <ele>553</ele>
        <time>2025-09-10T09:36:51Z</time>
      </trkpt>
      <trkpt lat="45.82521" lon="4.46034">
        <ele>553</ele>
        <time>2025-09-10T09:36:52Z</time>
      </trkpt>
      <trkpt lat="45.82521" lon="4.46035">
        <ele>553</ele>
        <time>2025-09-10T09:36:53Z</time>
      </trkpt>
      <trkpt lat="45.82522" lon="4.46035">
        <ele>553</ele>
        <time>2025-09-10T09:36:54Z</time>
      </trkpt>
      <trkpt lat="45.82522" lon="4.46036">
        <ele>553</ele>
        <time>2025-09-10T09:36:55Z</time>
      </trkpt>
      <trkpt lat="45.82523" lon="4.46036">
        <ele>553</ele>
        <time>2025-09-10T09:37:29Z</time>
      </trkpt>
      <trkpt lat="45.82523" lon="4.46036">
        <ele>553</ele>
        <time>2025-09-10T09:37:30Z</time>
      </trkpt>
      <trkpt lat="45.82523" lon="4.46041">
        <ele>553</ele>
        <time>2025-09-10T09:37:36Z</time>
      </trkpt>
      <trkpt lat="45.82523" lon="4.46043">
        <ele>552.8</ele>
        <time>2025-09-10T09:37:37Z</time>
      </trkpt>
      <trkpt lat="45.82523" lon="4.46045">
        <ele>552.8</ele>
        <time>2025-09-10T09:37:38Z</time>
      </trkpt>
      <trkpt lat="45.82524" lon="4.46047">
        <ele>552.8</ele>
        <time>2025-09-10T09:37:39Z</time>
      </trkpt>
      <trkpt lat="45.82523" lon="4.4605">
        <ele>552.8</ele>
        <time>2025-09-10T09:37:40Z</time>
      </trkpt>
      <trkpt lat="45.82523" lon="4.46053">
        <ele>552.8</ele>
        <time>2025-09-10T09:37:41Z</time>
      </trkpt>
      <trkpt lat="45.82522" lon="4.46054">
        <ele>552.8</ele>
        <time>2025-09-10T09:37:42Z</time>
      </trkpt>
      <trkpt lat="45.82522" lon="4.46056">
        <ele>552.8</ele>
        <time>2025-09-10T09:37:43Z</time>
      </trkpt>
      <trkpt lat="45.82522" lon="4.46055">
        <ele>552.8</ele>
        <time>2025-09-10T09:37:44Z</time>
      </trkpt>
      <trkpt lat="45.82522" lon="4.46055">
        <ele>552.8</ele>
        <time>2025-09-10T09:37:45Z</time>
      </trkpt>
      <trkpt lat="45.8252" lon="4.46057">
        <ele>553.2</ele>
        <time>2025-09-10T09:37:51Z</time>
      </trkpt>
      <trkpt lat="45.8252" lon="4.46059">
        <ele>553.4</ele>
        <time>2025-09-10T09:37:52Z</time>
      </trkpt>
      <trkpt lat="45.8252" lon="4.4606">
        <ele>553.4</ele>
        <time>2025-09-10T09:37:53Z</time>
      </trkpt>
      <trkpt lat="45.82519" lon="4.46061">
        <ele>553.4</ele>
        <time>2025-09-10T09:37:54Z</time>
      </trkpt>
      <trkpt lat="45.82519" lon="4.46062">
        <ele>553.6</ele>
        <time>2025-09-10T09:37:55Z</time>
      </trkpt>
      <trkpt lat="45.82519" lon="4.46064">
        <ele>553.6</ele>
        <time>2025-09-10T09:37:56Z</time>
      </trkpt>
      <trkpt lat="45.82519" lon="4.46064">
        <ele>553.6</ele>
        <time>2025-09-10T09:37:57Z</time>
      </trkpt>
      <trkpt lat="45.82519" lon="4.46065">
        <ele>553.6</ele>
        <time>2025-09-10T09:37:58Z</time>
      </trkpt>
      <trkpt lat="45.8252" lon="4.46066">
        <ele>553.8</ele>
        <time>2025-09-10T09:37:59Z</time>
      </trkpt>
      <trkpt lat="45.8252" lon="4.46067">
        <ele>553.8</ele>
        <time>2025-09-10T09:38:00Z</time>
      </trkpt>
      <trkpt lat="45.82521" lon="4.46068">
        <ele>553.8</ele>
        <time>2025-09-10T09:38:01Z</time>
      </trkpt>
      <trkpt lat="45.82521" lon="4.46069">
        <ele>553.8</ele>
        <time>2025-09-10T09:38:02Z</time>
      </trkpt>
      <trkpt lat="45.82521" lon="4.4607">
        <ele>553.8</ele>
        <time>2025-09-10T09:38:03Z</time>
      </trkpt>
      <trkpt lat="45.82522" lon="4.46071">
        <ele>553.8</ele>
        <time>2025-09-10T09:38:04Z</time>
      </trkpt>
      <trkpt lat="45.82523" lon="4.46073">
        <ele>553.8</ele>
        <time>2025-09-10T09:38:05Z</time>
      </trkpt>
      <trkpt lat="45.82524" lon="4.46074">
        <ele>553.8</ele>
        <time>2025-09-10T09:38:06Z</time>
      </trkpt>
      <trkpt lat="45.82525" lon="4.46076">
        <ele>554.2</ele>
        <time>2025-09-10T09:38:07Z</time>
      </trkpt>
      <trkpt lat="45.82525" lon="4.46077">
        <ele>554.2</ele>
        <time>2025-09-10T09:38:08Z</time>
      </trkpt>
      <trkpt lat="45.82525" lon="4.46078">
        <ele>554.4</ele>
        <time>2025-09-10T09:38:09Z</time>
      </trkpt>
      <trkpt lat="45.82525" lon="4.4608">
        <ele>554.4</ele>
        <time>2025-09-10T09:38:10Z</time>
      </trkpt>
      <trkpt lat="45.82525" lon="4.46082">
        <ele>554.4</ele>
        <time>2025-09-10T09:38:11Z</time>
      </trkpt>
      <trkpt lat="45.82526" lon="4.46083">
        <ele>554.4</ele>
        <time>2025-09-10T09:38:12Z</time>
      </trkpt>
      <trkpt lat="45.82526" lon="4.46085">
        <ele>554.8</ele>
        <time>2025-09-10T09:38:13Z</time>
      </trkpt>
      <trkpt lat="45.82526" lon="4.46086">
        <ele>554.8</ele>
        <time>2025-09-10T09:38:14Z</time>
      </trkpt>
      <trkpt lat="45.82526" lon="4.46087">
        <ele>554.8</ele>
        <time>2025-09-10T09:38:15Z</time>
      </trkpt>
      <trkpt lat="45.82527" lon="4.46087">
        <ele>554.8</ele>
        <time>2025-09-10T09:38:16Z</time>
      </trkpt>
      <trkpt lat="45.82527" lon="4.46088">
        <ele>554.8</ele>
        <time>2025-09-10T09:38:17Z</time>
      </trkpt>
      <trkpt lat="45.82528" lon="4.46089">
        <ele>554.8</ele>
        <time>2025-09-10T09:38:18Z</time>
      </trkpt>
      <trkpt lat="45.82528" lon="4.4609">
        <ele>555</ele>
        <time>2025-09-10T09:38:19Z</time>
      </trkpt>
      <trkpt lat="45.82529" lon="4.46091">
        <ele>555</ele>
        <time>2025-09-10T09:38:20Z</time>
      </trkpt>
      <trkpt lat="45.8253" lon="4.46092">
        <ele>555.2</ele>
        <time>2025-09-10T09:38:21Z</time>
      </trkpt>
      <trkpt lat="45.82531" lon="4.46094">
        <ele>555.2</ele>
        <time>2025-09-10T09:38:22Z</time>
      </trkpt>
      <trkpt lat="45.82532" lon="4.46094">
        <ele>555.2</ele>
        <time>2025-09-10T09:38:23Z</time>
      </trkpt>
      <trkpt lat="45.82532" lon="4.46095">
        <ele>555.2</ele>
        <time>2025-09-10T09:38:24Z</time>
      </trkpt>
      <trkpt lat="45.82533" lon="4.46095">
        <ele>555.2</ele>
        <time>2025-09-10T09:38:25Z</time>
      </trkpt>
      <trkpt lat="45.82534" lon="4.46095">
        <ele>555.2</ele>
        <time>2025-09-10T09:38:26Z</time>
      </trkpt>
      <trkpt lat="45.82535" lon="4.46096">
        <ele>555.2</ele>
        <time>2025-09-10T09:38:27Z</time>
      </trkpt>
      <trkpt lat="45.82536" lon="4.46097">
        <ele>555.2</ele>
        <time>2025-09-10T09:38:28Z</time>
      </trkpt>
      <trkpt lat="45.82537" lon="4.46099">
        <ele>555.6</ele>
        <time>2025-09-10T09:38:29Z</time>
      </trkpt>
      <trkpt lat="45.82538" lon="4.46101">
        <ele>555.6</ele>
        <time>2025-09-10T09:38:30Z</time>
      </trkpt>
      <trkpt lat="45.82539" lon="4.46103">
        <ele>555.6</ele>
        <time>2025-09-10T09:38:31Z</time>
      </trkpt>
      <trkpt lat="45.82539" lon="4.46104">
        <ele>555.8</ele>
        <time>2025-09-10T09:38:32Z</time>
      </trkpt>
      <trkpt lat="45.8254" lon="4.46106">
        <ele>555.8</ele>
        <time>2025-09-10T09:38:33Z</time>
      </trkpt>
      <trkpt lat="45.8254" lon="4.46106">
        <ele>556</ele>
        <time>2025-09-10T09:38:34Z</time>
      </trkpt>
      <trkpt lat="45.8254" lon="4.46106">
        <ele>556</ele>
        <time>2025-09-10T09:38:35Z</time>
      </trkpt>
      <trkpt lat="45.82543" lon="4.46108">
        <ele>555.8</ele>
        <time>2025-09-10T09:38:49Z</time>
      </trkpt>
      <trkpt lat="45.82545" lon="4.46108">
        <ele>555.8</ele>
        <time>2025-09-10T09:38:50Z</time>
      </trkpt>
      <trkpt lat="45.82546" lon="4.46109">
        <ele>555.8</ele>
        <time>2025-09-10T09:38:51Z</time>
      </trkpt>
      <trkpt lat="45.82547" lon="4.4611">
        <ele>555.8</ele>
        <time>2025-09-10T09:38:52Z</time>
      </trkpt>
      <trkpt lat="45.82547" lon="4.46112">
        <ele>555.8</ele>
        <time>2025-09-10T09:38:53Z</time>
      </trkpt>
      <trkpt lat="45.82548" lon="4.46113">
        <ele>556.2</ele>
        <time>2025-09-10T09:38:54Z</time>
      </trkpt>
      <trkpt lat="45.82549" lon="4.46114">
        <ele>556.2</ele>
        <time>2025-09-10T09:38:55Z</time>
      </trkpt>
      <trkpt lat="45.82549" lon="4.46114">
        <ele>556.6</ele>
        <time>2025-09-10T09:38:56Z</time>
      </trkpt>
      <trkpt lat="45.8255" lon="4.46115">
        <ele>557</ele>
        <time>2025-09-10T09:38:57Z</time>
      </trkpt>
      <trkpt lat="45.8255" lon="4.46116">
        <ele>557.2</ele>
        <time>2025-09-10T09:38:58Z</time>
      </trkpt>
      <trkpt lat="45.82551" lon="4.46116">
        <ele>557.4</ele>
        <time>2025-09-10T09:38:59Z</time>
      </trkpt>
      <trkpt lat="45.82552" lon="4.46115">
        <ele>557.4</ele>
        <time>2025-09-10T09:39:00Z</time>
      </trkpt>
      <trkpt lat="45.82553" lon="4.46114">
        <ele>557.6</ele>
        <time>2025-09-10T09:39:01Z</time>
      </trkpt>
      <trkpt lat="45.82554" lon="4.46114">
        <ele>558</ele>
        <time>2025-09-10T09:39:02Z</time>
      </trkpt>
      <trkpt lat="45.82554" lon="4.46113">
        <ele>558</ele>
        <time>2025-09-10T09:39:03Z</time>
      </trkpt>
      <trkpt lat="45.82555" lon="4.46113">
        <ele>558</ele>
        <time>2025-09-10T09:39:04Z</time>
      </trkpt>
      <trkpt lat="45.82556" lon="4.46113">
        <ele>558.2</ele>
        <time>2025-09-10T09:39:05Z</time>
      </trkpt>
      <trkpt lat="45.82557" lon="4.46113">
        <ele>558.4</ele>
        <time>2025-09-10T09:39:06Z</time>
      </trkpt>
      <trkpt lat="45.82557" lon="4.46112">
        <ele>558.4</ele>
        <time>2025-09-10T09:39:07Z</time>
      </trkpt>
      <trkpt lat="45.82558" lon="4.46112">
        <ele>558.6</ele>
        <time>2025-09-10T09:39:08Z</time>
      </trkpt>
      <trkpt lat="45.82559" lon="4.46112">
        <ele>558.6</ele>
        <time>2025-09-10T09:39:09Z</time>
      </trkpt>
      <trkpt lat="45.8256" lon="4.46112">
        <ele>559</ele>
        <time>2025-09-10T09:39:10Z</time>
      </trkpt>
      <trkpt lat="45.8256" lon="4.46112">
        <ele>559.2</ele>
        <time>2025-09-10T09:39:11Z</time>
      </trkpt>
      <trkpt lat="45.82561" lon="4.46113">
        <ele>559.2</ele>
        <time>2025-09-10T09:39:12Z</time>
      </trkpt>
      <trkpt lat="45.82561" lon="4.46113">
        <ele>559.6</ele>
        <time>2025-09-10T09:39:13Z</time>
      </trkpt>
      <trkpt lat="45.82562" lon="4.46113">
        <ele>559.6</ele>
        <time>2025-09-10T09:39:14Z</time>
      </trkpt>
      <trkpt lat="45.82563" lon="4.46113">
        <ele>559.8</ele>
        <time>2025-09-10T09:39:15Z</time>
      </trkpt>
      <trkpt lat="45.82564" lon="4.46113">
        <ele>559.8</ele>
        <time>2025-09-10T09:39:16Z</time>
      </trkpt>
      <trkpt lat="45.82565" lon="4.46114">
        <ele>559.8</ele>
        <time>2025-09-10T09:39:17Z</time>
      </trkpt>
      <trkpt lat="45.82566" lon="4.46114">
        <ele>559.8</ele>
        <time>2025-09-10T09:39:18Z</time>
      </trkpt>
      <trkpt lat="45.82567" lon="4.46114">
        <ele>560</ele>
        <time>2025-09-10T09:39:19Z</time>
      </trkpt>
      <trkpt lat="45.82568" lon="4.46114">
        <ele>560</ele>
        <time>2025-09-10T09:39:20Z</time>
      </trkpt>
      <trkpt lat="45.82568" lon="4.46114">
        <ele>560.2</ele>
        <time>2025-09-10T09:39:21Z</time>
      </trkpt>
      <trkpt lat="45.82569" lon="4.46115">
        <ele>560.2</ele>
        <time>2025-09-10T09:39:22Z</time>
      </trkpt>
      <trkpt lat="45.8257" lon="4.46115">
        <ele>560.2</ele>
        <time>2025-09-10T09:39:23Z</time>
      </trkpt>
      <trkpt lat="45.82571" lon="4.46116">
        <ele>560.4</ele>
        <time>2025-09-10T09:39:24Z</time>
      </trkpt>
      <trkpt lat="45.82572" lon="4.46117">
        <ele>560.4</ele>
        <time>2025-09-10T09:39:25Z</time>
      </trkpt>
      <trkpt lat="45.82573" lon="4.46119">
        <ele>560.8</ele>
        <time>2025-09-10T09:39:26Z</time>
      </trkpt>
      <trkpt lat="45.82574" lon="4.46119">
        <ele>560.8</ele>
        <time>2025-09-10T09:39:27Z</time>
      </trkpt>
      <trkpt lat="45.82574" lon="4.4612">
        <ele>560.8</ele>
        <time>2025-09-10T09:39:28Z</time>
      </trkpt>
      <trkpt lat="45.82575" lon="4.4612">
        <ele>561.2</ele>
        <time>2025-09-10T09:39:29Z</time>
      </trkpt>
      <trkpt lat="45.82576" lon="4.4612">
        <ele>561.2</ele>
        <time>2025-09-10T09:39:30Z</time>
      </trkpt>
      <trkpt lat="45.82577" lon="4.46121">
        <ele>561.2</ele>
        <time>2025-09-10T09:39:31Z</time>
      </trkpt>
      <trkpt lat="45.82578" lon="4.46121">
        <ele>561.4</ele>
        <time>2025-09-10T09:39:32Z</time>
      </trkpt>
      <trkpt lat="45.82579" lon="4.46121">
        <ele>561.4</ele>
        <time>2025-09-10T09:39:33Z</time>
      </trkpt>
      <trkpt lat="45.8258" lon="4.46121">
        <ele>561.4</ele>
        <time>2025-09-10T09:39:34Z</time>
      </trkpt>
      <trkpt lat="45.8258" lon="4.4612">
        <ele>561.6</ele>
        <time>2025-09-10T09:39:35Z</time>
      </trkpt>
      <trkpt lat="45.82581" lon="4.4612">
        <ele>561.6</ele>
        <time>2025-09-10T09:39:36Z</time>
      </trkpt>
      <trkpt lat="45.82581" lon="4.4612">
        <ele>561.6</ele>
        <time>2025-09-10T09:39:37Z</time>
      </trkpt>
      <trkpt lat="45.82581" lon="4.4612">
        <ele>562</ele>
        <time>2025-09-10T09:39:38Z</time>
      </trkpt>
      <trkpt lat="45.82582" lon="4.4612">
        <ele>562</ele>
        <time>2025-09-10T09:39:39Z</time>
      </trkpt>
      <trkpt lat="45.82582" lon="4.46119">
        <ele>562</ele>
        <time>2025-09-10T09:39:40Z</time>
      </trkpt>
      <trkpt lat="45.82582" lon="4.46119">
        <ele>562.2</ele>
        <time>2025-09-10T09:39:41Z</time>
      </trkpt>
      <trkpt lat="45.82583" lon="4.46108">
        <ele>561.6</ele>
        <time>2025-09-10T09:40:10Z</time>
      </trkpt>
      <trkpt lat="45.82584" lon="4.46107">
        <ele>561.8</ele>
        <time>2025-09-10T09:40:11Z</time>
      </trkpt>
      <trkpt lat="45.82586" lon="4.46106">
        <ele>561.8</ele>
        <time>2025-09-10T09:40:12Z</time>
      </trkpt>
      <trkpt lat="45.82587" lon="4.46105">
        <ele>561.8</ele>
        <time>2025-09-10T09:40:13Z</time>
      </trkpt>
      <trkpt lat="45.82589" lon="4.46104">
        <ele>561.8</ele>
        <time>2025-09-10T09:40:14Z</time>
      </trkpt>
      <trkpt lat="45.82591" lon="4.46103">
        <ele>561.8</ele>
        <time>2025-09-10T09:40:15Z</time>
      </trkpt>
      <trkpt lat="45.82593" lon="4.46103">
        <ele>562.2</ele>
        <time>2025-09-10T09:40:16Z</time>
      </trkpt>
      <trkpt lat="45.82595" lon="4.46103">
        <ele>562.2</ele>
        <time>2025-09-10T09:40:17Z</time>
      </trkpt>
      <trkpt lat="45.82598" lon="4.46104">
        <ele>562.2</ele>
        <time>2025-09-10T09:40:18Z</time>
      </trkpt>
      <trkpt lat="45.826" lon="4.46103">
        <ele>562.2</ele>
        <time>2025-09-10T09:40:19Z</time>
      </trkpt>
      <trkpt lat="45.82602" lon="4.46103">
        <ele>562.4</ele>
        <time>2025-09-10T09:40:20Z</time>
      </trkpt>
      <trkpt lat="45.82605" lon="4.46101">
        <ele>562.4</ele>
        <time>2025-09-10T09:40:21Z</time>
      </trkpt>
      <trkpt lat="45.82606" lon="4.461">
        <ele>562.4</ele>
        <time>2025-09-10T09:40:22Z</time>
      </trkpt>
      <trkpt lat="45.82608" lon="4.461">
        <ele>562.4</ele>
        <time>2025-09-10T09:40:23Z</time>
      </trkpt>
      <trkpt lat="45.8261" lon="4.46099">
        <ele>562.6</ele>
        <time>2025-09-10T09:40:24Z</time>
      </trkpt>
      <trkpt lat="45.82612" lon="4.46099">
        <ele>562.8</ele>
        <time>2025-09-10T09:40:25Z</time>
      </trkpt>
      <trkpt lat="45.82614" lon="4.46098">
        <ele>562.8</ele>
        <time>2025-09-10T09:40:26Z</time>
      </trkpt>
      <trkpt lat="45.82616" lon="4.46098">
        <ele>562.8</ele>
        <time>2025-09-10T09:40:27Z</time>
      </trkpt>
      <trkpt lat="45.82618" lon="4.46098">
        <ele>563.4</ele>
        <time>2025-09-10T09:40:28Z</time>
      </trkpt>
      <trkpt lat="45.8262" lon="4.46097">
        <ele>563.4</ele>
        <time>2025-09-10T09:40:29Z</time>
      </trkpt>
      <trkpt lat="45.82621" lon="4.46097">
        <ele>563.8</ele>
        <time>2025-09-10T09:40:30Z</time>
      </trkpt>
      <trkpt lat="45.82623" lon="4.46097">
        <ele>564</ele>
        <time>2025-09-10T09:40:31Z</time>
      </trkpt>
      <trkpt lat="45.82625" lon="4.46097">
        <ele>564.4</ele>
        <time>2025-09-10T09:40:32Z</time>
      </trkpt>
      <trkpt lat="45.82626" lon="4.46097">
        <ele>564.4</ele>
        <time>2025-09-10T09:40:33Z</time>
      </trkpt>
      <trkpt lat="45.82627" lon="4.46097">
        <ele>563.8</ele>
        <time>2025-09-10T09:40:34Z</time>
      </trkpt>
      <trkpt lat="45.82629" lon="4.46097">
        <ele>564</ele>
        <time>2025-09-10T09:40:35Z</time>
      </trkpt>
      <trkpt lat="45.8263" lon="4.46097">
        <ele>564.2</ele>
        <time>2025-09-10T09:40:36Z</time>
      </trkpt>
      <trkpt lat="45.82631" lon="4.46097">
        <ele>564.2</ele>
        <time>2025-09-10T09:40:37Z</time>
      </trkpt>
      <trkpt lat="45.82631" lon="4.46098">
        <ele>564.6</ele>
        <time>2025-09-10T09:40:38Z</time>
      </trkpt>
      <trkpt lat="45.82631" lon="4.46103">
        <ele>565</ele>
        <time>2025-09-10T09:41:08Z</time>
      </trkpt>
      <trkpt lat="45.82632" lon="4.46104">
        <ele>565</ele>
        <time>2025-09-10T09:41:09Z</time>
      </trkpt>
      <trkpt lat="45.82633" lon="4.46105">
        <ele>565.2</ele>
        <time>2025-09-10T09:41:10Z</time>
      </trkpt>
      <trkpt lat="45.82635" lon="4.46106">
        <ele>565.2</ele>
        <time>2025-09-10T09:41:11Z</time>
      </trkpt>
      <trkpt lat="45.82636" lon="4.46106">
        <ele>565.4</ele>
        <time>2025-09-10T09:41:12Z</time>
      </trkpt>
      <trkpt lat="45.82637" lon="4.46107">
        <ele>565.6</ele>
        <time>2025-09-10T09:41:13Z</time>
      </trkpt>
      <trkpt lat="45.82638" lon="4.46107">
        <ele>565.6</ele>
        <time>2025-09-10T09:41:14Z</time>
      </trkpt>
      <trkpt lat="45.82638" lon="4.46108">
        <ele>565.8</ele>
        <time>2025-09-10T09:41:15Z</time>
      </trkpt>
      <trkpt lat="45.82639" lon="4.46108">
        <ele>565.8</ele>
        <time>2025-09-10T09:41:16Z</time>
      </trkpt>
      <trkpt lat="45.82639" lon="4.46109">
        <ele>566</ele>
        <time>2025-09-10T09:41:17Z</time>
      </trkpt>
      <trkpt lat="45.8264" lon="4.46109">
        <ele>566</ele>
        <time>2025-09-10T09:41:18Z</time>
      </trkpt>
      <trkpt lat="45.82641" lon="4.46109">
        <ele>566.4</ele>
        <time>2025-09-10T09:41:19Z</time>
      </trkpt>
      <trkpt lat="45.82642" lon="4.4611">
        <ele>566.4</ele>
        <time>2025-09-10T09:41:20Z</time>
      </trkpt>
      <trkpt lat="45.82642" lon="4.4611">
        <ele>566.4</ele>
        <time>2025-09-10T09:41:21Z</time>
      </trkpt>
      <trkpt lat="45.82643" lon="4.4611">
        <ele>566.6</ele>
        <time>2025-09-10T09:41:22Z</time>
      </trkpt>
      <trkpt lat="45.82643" lon="4.4611">
        <ele>566.6</ele>
        <time>2025-09-10T09:41:23Z</time>
      </trkpt>
      <trkpt lat="45.82643" lon="4.4611">
        <ele>566.8</ele>
        <time>2025-09-10T09:41:24Z</time>
      </trkpt>
      <trkpt lat="45.82644" lon="4.46111">
        <ele>566.8</ele>
        <time>2025-09-10T09:41:25Z</time>
      </trkpt>
      <trkpt lat="45.82645" lon="4.46112">
        <ele>566.8</ele>
        <time>2025-09-10T09:41:26Z</time>
      </trkpt>
      <trkpt lat="45.82646" lon="4.46113">
        <ele>566.6</ele>
        <time>2025-09-10T09:41:27Z</time>
      </trkpt>
      <trkpt lat="45.82647" lon="4.46113">
        <ele>566.8</ele>
        <time>2025-09-10T09:41:28Z</time>
      </trkpt>
      <trkpt lat="45.82648" lon="4.46114">
        <ele>567.2</ele>
        <time>2025-09-10T09:41:29Z</time>
      </trkpt>
      <trkpt lat="45.82649" lon="4.46114">
        <ele>567.4</ele>
        <time>2025-09-10T09:41:30Z</time>
      </trkpt>
      <trkpt lat="45.82649" lon="4.46114">
        <ele>567.6</ele>
        <time>2025-09-10T09:41:31Z</time>
      </trkpt>
      <trkpt lat="45.8265" lon="4.46114">
        <ele>567.8</ele>
        <time>2025-09-10T09:41:32Z</time>
      </trkpt>
      <trkpt lat="45.82651" lon="4.46114">
        <ele>567.8</ele>
        <time>2025-09-10T09:41:33Z</time>
      </trkpt>
      <trkpt lat="45.82652" lon="4.46114">
        <ele>568.2</ele>
        <time>2025-09-10T09:41:34Z</time>
      </trkpt>
      <trkpt lat="45.82653" lon="4.46115">
        <ele>568.2</ele>
        <time>2025-09-10T09:41:35Z</time>
      </trkpt>
      <trkpt lat="45.82654" lon="4.46115">
        <ele>568.2</ele>
        <time>2025-09-10T09:41:36Z</time>
      </trkpt>
      <trkpt lat="45.82655" lon="4.46116">
        <ele>568.4</ele>
        <time>2025-09-10T09:41:37Z</time>
      </trkpt>
      <trkpt lat="45.82656" lon="4.46117">
        <ele>568.4</ele>
        <time>2025-09-10T09:41:38Z</time>
      </trkpt>
      <trkpt lat="45.82657" lon="4.46117">
        <ele>568.4</ele>
        <time>2025-09-10T09:41:39Z</time>
      </trkpt>
      <trkpt lat="45.82658" lon="4.46117">
        <ele>568.4</ele>
        <time>2025-09-10T09:41:40Z</time>
      </trkpt>
      <trkpt lat="45.82659" lon="4.46117">
        <ele>568.8</ele>
        <time>2025-09-10T09:41:41Z</time>
      </trkpt>
      <trkpt lat="45.82659" lon="4.46116">
        <ele>568.8</ele>
        <time>2025-09-10T09:41:42Z</time>
      </trkpt>
      <trkpt lat="45.8266" lon="4.46116">
        <ele>568.8</ele>
        <time>2025-09-10T09:41:43Z</time>
      </trkpt>
      <trkpt lat="45.82661" lon="4.46116">
        <ele>569</ele>
        <time>2025-09-10T09:41:44Z</time>
      </trkpt>
      <trkpt lat="45.82661" lon="4.46116">
        <ele>569</ele>
        <time>2025-09-10T09:41:45Z</time>
      </trkpt>
      <trkpt lat="45.82661" lon="4.46116">
        <ele>569.4</ele>
        <time>2025-09-10T09:41:46Z</time>
      </trkpt>
      <trkpt lat="45.82665" lon="4.46116">
        <ele>569.6</ele>
        <time>2025-09-10T09:41:48Z</time>
      </trkpt>
      <trkpt lat="45.82666" lon="4.46116">
        <ele>570</ele>
        <time>2025-09-10T09:41:49Z</time>
      </trkpt>
      <trkpt lat="45.82667" lon="4.46116">
        <ele>570.2</ele>
        <time>2025-09-10T09:41:50Z</time>
      </trkpt>
      <trkpt lat="45.82667" lon="4.46116">
        <ele>570.2</ele>
        <time>2025-09-10T09:41:51Z</time>
      </trkpt>
      <trkpt lat="45.82668" lon="4.46116">
        <ele>570.6</ele>
        <time>2025-09-10T09:41:52Z</time>
      </trkpt>
      <trkpt lat="45.82668" lon="4.46116">
        <ele>571</ele>
        <time>2025-09-10T09:41:53Z</time>
      </trkpt>
      <trkpt lat="45.82669" lon="4.46116">
        <ele>571</ele>
        <time>2025-09-10T09:41:54Z</time>
      </trkpt>
      <trkpt lat="45.82669" lon="4.46116">
        <ele>571</ele>
        <time>2025-09-10T09:41:55Z</time>
      </trkpt>
      <trkpt lat="45.8267" lon="4.46116">
        <ele>571.2</ele>
        <time>2025-09-10T09:41:56Z</time>
      </trkpt>
      <trkpt lat="45.82671" lon="4.46116">
        <ele>571.2</ele>
        <time>2025-09-10T09:41:57Z</time>
      </trkpt>
      <trkpt lat="45.82673" lon="4.46116">
        <ele>571.2</ele>
        <time>2025-09-10T09:41:58Z</time>
      </trkpt>
      <trkpt lat="45.82674" lon="4.46117">
        <ele>571.4</ele>
        <time>2025-09-10T09:41:59Z</time>
      </trkpt>
      <trkpt lat="45.82675" lon="4.46118">
        <ele>571.4</ele>
        <time>2025-09-10T09:42:00Z</time>
      </trkpt>
      <trkpt lat="45.82675" lon="4.46119">
        <ele>571.6</ele>
        <time>2025-09-10T09:42:01Z</time>
      </trkpt>
      <trkpt lat="45.82676" lon="4.46119">
        <ele>571.6</ele>
        <time>2025-09-10T09:42:02Z</time>
      </trkpt>
      <trkpt lat="45.82676" lon="4.46119">
        <ele>571.6</ele>
        <time>2025-09-10T09:42:03Z</time>
      </trkpt>
      <trkpt lat="45.82677" lon="4.4612">
        <ele>572</ele>
        <time>2025-09-10T09:42:04Z</time>
      </trkpt>
      <trkpt lat="45.82678" lon="4.4612">
        <ele>572</ele>
        <time>2025-09-10T09:42:05Z</time>
      </trkpt>
      <trkpt lat="45.82679" lon="4.4612">
        <ele>572.4</ele>
        <time>2025-09-10T09:42:06Z</time>
      </trkpt>
      <trkpt lat="45.82679" lon="4.4612">
        <ele>572.4</ele>
        <time>2025-09-10T09:42:07Z</time>
      </trkpt>
      <trkpt lat="45.82679" lon="4.46119">
        <ele>572.8</ele>
        <time>2025-09-10T09:42:08Z</time>
      </trkpt>
      <trkpt lat="45.8268" lon="4.46119">
        <ele>572.8</ele>
        <time>2025-09-10T09:42:09Z</time>
      </trkpt>
      <trkpt lat="45.82681" lon="4.46118">
        <ele>573</ele>
        <time>2025-09-10T09:42:10Z</time>
      </trkpt>
      <trkpt lat="45.82681" lon="4.46118">
        <ele>573.2</ele>
        <time>2025-09-10T09:42:11Z</time>
      </trkpt>
      <trkpt lat="45.82681" lon="4.46118">
        <ele>573.2</ele>
        <time>2025-09-10T09:42:12Z</time>
      </trkpt>
      <trkpt lat="45.82682" lon="4.46117">
        <ele>573.2</ele>
        <time>2025-09-10T09:42:13Z</time>
      </trkpt>
      <trkpt lat="45.82682" lon="4.46116">
        <ele>573.4</ele>
        <time>2025-09-10T09:42:14Z</time>
      </trkpt>
      <trkpt lat="45.82682" lon="4.46115">
        <ele>573.4</ele>
        <time>2025-09-10T09:42:15Z</time>
      </trkpt>
      <trkpt lat="45.82683" lon="4.46114">
        <ele>573.4</ele>
        <time>2025-09-10T09:42:16Z</time>
      </trkpt>
      <trkpt lat="45.82683" lon="4.46113">
        <ele>573.8</ele>
        <time>2025-09-10T09:42:17Z</time>
      </trkpt>
      <trkpt lat="45.82683" lon="4.46113">
        <ele>573.8</ele>
        <time>2025-09-10T09:42:18Z</time>
      </trkpt>
      <trkpt lat="45.82684" lon="4.46112">
        <ele>573.8</ele>
        <time>2025-09-10T09:42:19Z</time>
      </trkpt>
      <trkpt lat="45.82684" lon="4.46112">
        <ele>574.2</ele>
        <time>2025-09-10T09:42:20Z</time>
      </trkpt>
      <trkpt lat="45.82684" lon="4.46112">
        <ele>574.2</ele>
        <time>2025-09-10T09:42:21Z</time>
      </trkpt>
      <trkpt lat="45.82684" lon="4.46111">
        <ele>574.2</ele>
        <time>2025-09-10T09:42:22Z</time>
      </trkpt>
      <trkpt lat="45.82685" lon="4.46111">
        <ele>574.6</ele>
        <time>2025-09-10T09:42:23Z</time>
      </trkpt>
      <trkpt lat="45.82685" lon="4.46107">
        <ele>574.6</ele>
        <time>2025-09-10T09:42:37Z</time>
      </trkpt>
      <trkpt lat="45.82686" lon="4.46107">
        <ele>574.6</ele>
        <time>2025-09-10T09:42:38Z</time>
      </trkpt>
      <trkpt lat="45.82686" lon="4.46106">
        <ele>574.8</ele>
        <time>2025-09-10T09:42:39Z</time>
      </trkpt>
      <trkpt lat="45.82686" lon="4.46105">
        <ele>574.8</ele>
        <time>2025-09-10T09:42:40Z</time>
      </trkpt>
      <trkpt lat="45.82686" lon="4.46104">
        <ele>574.8</ele>
        <time>2025-09-10T09:42:41Z</time>
      </trkpt>
      <trkpt lat="45.82686" lon="4.46103">
        <ele>574.8</ele>
        <time>2025-09-10T09:42:42Z</time>
      </trkpt>
      <trkpt lat="45.82686" lon="4.46103">
        <ele>575</ele>
        <time>2025-09-10T09:42:43Z</time>
      </trkpt>
      <trkpt lat="45.82688" lon="4.46102">
        <ele>575</ele>
        <time>2025-09-10T09:42:44Z</time>
      </trkpt>
      <trkpt lat="45.8269" lon="4.46101">
        <ele>575.2</ele>
        <time>2025-09-10T09:42:45Z</time>
      </trkpt>
      <trkpt lat="45.82691" lon="4.46101">
        <ele>575.2</ele>
        <time>2025-09-10T09:42:46Z</time>
      </trkpt>
      <trkpt lat="45.82692" lon="4.46101">
        <ele>575.2</ele>
        <time>2025-09-10T09:42:47Z</time>
      </trkpt>
      <trkpt lat="45.82693" lon="4.46101">
        <ele>575.2</ele>
        <time>2025-09-10T09:42:48Z</time>
      </trkpt>
      <trkpt lat="45.82693" lon="4.46101">
        <ele>575.2</ele>
        <time>2025-09-10T09:42:49Z</time>
      </trkpt>
      <trkpt lat="45.82693" lon="4.46101">
        <ele>575.6</ele>
        <time>2025-09-10T09:42:50Z</time>
      </trkpt>
      <trkpt lat="45.82694" lon="4.46101">
        <ele>575.6</ele>
        <time>2025-09-10T09:42:51Z</time>
      </trkpt>
      <trkpt lat="45.82694" lon="4.461">
        <ele>575.6</ele>
        <time>2025-09-10T09:42:52Z</time>
      </trkpt>
      <trkpt lat="45.82695" lon="4.461">
        <ele>576</ele>
        <time>2025-09-10T09:42:53Z</time>
      </trkpt>
      <trkpt lat="45.82695" lon="4.461">
        <ele>576</ele>
        <time>2025-09-10T09:42:54Z</time>
      </trkpt>
      <trkpt lat="45.82696" lon="4.46099">
        <ele>576.4</ele>
        <time>2025-09-10T09:42:55Z</time>
      </trkpt>
      <trkpt lat="45.82697" lon="4.46098">
        <ele>576.4</ele>
        <time>2025-09-10T09:42:56Z</time>
      </trkpt>
      <trkpt lat="45.82697" lon="4.46097">
        <ele>576.6</ele>
        <time>2025-09-10T09:42:57Z</time>
      </trkpt>
      <trkpt lat="45.82698" lon="4.46097">
        <ele>576.6</ele>
        <time>2025-09-10T09:42:58Z</time>
      </trkpt>
      <trkpt lat="45.82698" lon="4.46097">
        <ele>577</ele>
        <time>2025-09-10T09:42:59Z</time>
      </trkpt>
      <trkpt lat="45.82699" lon="4.46098">
        <ele>577</ele>
        <time>2025-09-10T09:43:00Z</time>
      </trkpt>
      <trkpt lat="45.82699" lon="4.46099">
        <ele>577.2</ele>
        <time>2025-09-10T09:43:01Z</time>
      </trkpt>
      <trkpt lat="45.827" lon="4.46099">
        <ele>577.2</ele>
        <time>2025-09-10T09:43:02Z</time>
      </trkpt>
      <trkpt lat="45.827" lon="4.46099">
        <ele>577.6</ele>
        <time>2025-09-10T09:43:03Z</time>
      </trkpt>
      <trkpt lat="45.82701" lon="4.46099">
        <ele>577.6</ele>
        <time>2025-09-10T09:43:04Z</time>
      </trkpt>
      <trkpt lat="45.82701" lon="4.461">
        <ele>577.6</ele>
        <time>2025-09-10T09:43:05Z</time>
      </trkpt>
      <trkpt lat="45.82702" lon="4.461">
        <ele>577.8</ele>
        <time>2025-09-10T09:43:06Z</time>
      </trkpt>
      <trkpt lat="45.82703" lon="4.461">
        <ele>577.8</ele>
        <time>2025-09-10T09:43:07Z</time>
      </trkpt>
      <trkpt lat="45.82704" lon="4.461">
        <ele>577.8</ele>
        <time>2025-09-10T09:43:08Z</time>
      </trkpt>
      <trkpt lat="45.82704" lon="4.461">
        <ele>578</ele>
        <time>2025-09-10T09:43:09Z</time>
      </trkpt>
      <trkpt lat="45.82705" lon="4.461">
        <ele>578</ele>
        <time>2025-09-10T09:43:10Z</time>
      </trkpt>
      <trkpt lat="45.82706" lon="4.461">
        <ele>578.2</ele>
        <time>2025-09-10T09:43:11Z</time>
      </trkpt>
      <trkpt lat="45.82707" lon="4.46101">
        <ele>578.2</ele>
        <time>2025-09-10T09:43:12Z</time>
      </trkpt>
      <trkpt lat="45.82708" lon="4.46101">
        <ele>578.2</ele>
        <time>2025-09-10T09:43:13Z</time>
      </trkpt>
      <trkpt lat="45.82708" lon="4.46101">
        <ele>578.2</ele>
        <time>2025-09-10T09:43:14Z</time>
      </trkpt>
      <trkpt lat="45.82708" lon="4.46101">
        <ele>578.6</ele>
        <time>2025-09-10T09:43:15Z</time>
      </trkpt>
      <trkpt lat="45.82709" lon="4.46101">
        <ele>578.6</ele>
        <time>2025-09-10T09:43:16Z</time>
      </trkpt>
      <trkpt lat="45.8271" lon="4.46102">
        <ele>579</ele>
        <time>2025-09-10T09:43:17Z</time>
      </trkpt>
      <trkpt lat="45.82711" lon="4.46102">
        <ele>579</ele>
        <time>2025-09-10T09:43:18Z</time>
      </trkpt>
      <trkpt lat="45.82712" lon="4.46103">
        <ele>579.2</ele>
        <time>2025-09-10T09:43:19Z</time>
      </trkpt>
      <trkpt lat="45.82713" lon="4.46103">
        <ele>579.2</ele>
        <time>2025-09-10T09:43:20Z</time>
      </trkpt>
      <trkpt lat="45.82713" lon="4.46104">
        <ele>579.6</ele>
        <time>2025-09-10T09:43:21Z</time>
      </trkpt>
      <trkpt lat="45.82714" lon="4.46104">
        <ele>579.6</ele>
        <time>2025-09-10T09:43:22Z</time>
      </trkpt>
      <trkpt lat="45.82715" lon="4.46104">
        <ele>579.8</ele>
        <time>2025-09-10T09:43:23Z</time>
      </trkpt>
      <trkpt lat="45.82715" lon="4.46103">
        <ele>579.8</ele>
        <time>2025-09-10T09:43:24Z</time>
      </trkpt>
      <trkpt lat="45.82716" lon="4.46102">
        <ele>580.2</ele>
        <time>2025-09-10T09:43:25Z</time>
      </trkpt>
      <trkpt lat="45.82716" lon="4.46102">
        <ele>580.2</ele>
        <time>2025-09-10T09:43:26Z</time>
      </trkpt>
      <trkpt lat="45.82717" lon="4.46102">
        <ele>580.2</ele>
        <time>2025-09-10T09:43:27Z</time>
      </trkpt>
      <trkpt lat="45.82717" lon="4.46102">
        <ele>580.4</ele>
        <time>2025-09-10T09:43:28Z</time>
      </trkpt>
      <trkpt lat="45.82717" lon="4.46102">
        <ele>580.4</ele>
        <time>2025-09-10T09:43:29Z</time>
      </trkpt>
      <trkpt lat="45.82718" lon="4.46103">
        <ele>580.4</ele>
        <time>2025-09-10T09:43:47Z</time>
      </trkpt>
      <trkpt lat="45.82719" lon="4.46104">
        <ele>580.4</ele>
        <time>2025-09-10T09:43:48Z</time>
      </trkpt>
      <trkpt lat="45.82719" lon="4.46104">
        <ele>580.4</ele>
        <time>2025-09-10T09:43:49Z</time>
      </trkpt>
      <trkpt lat="45.82719" lon="4.46105">
        <ele>580.4</ele>
        <time>2025-09-10T09:43:50Z</time>
      </trkpt>
      <trkpt lat="45.8272" lon="4.46105">
        <ele>580.6</ele>
        <time>2025-09-10T09:43:51Z</time>
      </trkpt>
      <trkpt lat="45.8272" lon="4.46106">
        <ele>580.6</ele>
        <time>2025-09-10T09:43:52Z</time>
      </trkpt>
      <trkpt lat="45.82722" lon="4.46106">
        <ele>580.8</ele>
        <time>2025-09-10T09:43:53Z</time>
      </trkpt>
      <trkpt lat="45.82723" lon="4.46106">
        <ele>580.8</ele>
        <time>2025-09-10T09:43:54Z</time>
      </trkpt>
      <trkpt lat="45.82723" lon="4.46105">
        <ele>580.8</ele>
        <time>2025-09-10T09:43:55Z</time>
      </trkpt>
      <trkpt lat="45.82724" lon="4.46105">
        <ele>581.2</ele>
        <time>2025-09-10T09:43:56Z</time>
      </trkpt>
      <trkpt lat="45.82725" lon="4.46105">
        <ele>581.2</ele>
        <time>2025-09-10T09:43:57Z</time>
      </trkpt>
      <trkpt lat="45.82726" lon="4.46105">
        <ele>581.4</ele>
        <time>2025-09-10T09:43:58Z</time>
      </trkpt>
      <trkpt lat="45.82727" lon="4.46104">
        <ele>581.4</ele>
        <time>2025-09-10T09:43:59Z</time>
      </trkpt>
      <trkpt lat="45.82727" lon="4.46104">
        <ele>581.6</ele>
        <time>2025-09-10T09:44:00Z</time>
      </trkpt>
      <trkpt lat="45.82729" lon="4.46104">
        <ele>581.6</ele>
        <time>2025-09-10T09:44:01Z</time>
      </trkpt>
      <trkpt lat="45.8273" lon="4.46103">
        <ele>582</ele>
        <time>2025-09-10T09:44:02Z</time>
      </trkpt>
      <trkpt lat="45.82732" lon="4.46103">
        <ele>582</ele>
        <time>2025-09-10T09:44:03Z</time>
      </trkpt>
      <trkpt lat="45.82733" lon="4.46103">
        <ele>582.2</ele>
        <time>2025-09-10T09:44:04Z</time>
      </trkpt>
      <trkpt lat="45.82733" lon="4.46103">
        <ele>582.2</ele>
        <time>2025-09-10T09:44:05Z</time>
      </trkpt>
      <trkpt lat="45.82733" lon="4.46105">
        <ele>582.4</ele>
        <time>2025-09-10T09:44:27Z</time>
      </trkpt>
      <trkpt lat="45.82732" lon="4.46106">
        <ele>582.4</ele>
        <time>2025-09-10T09:44:28Z</time>
      </trkpt>
      <trkpt lat="45.82731" lon="4.46107">
        <ele>582.4</ele>
        <time>2025-09-10T09:44:29Z</time>
      </trkpt>
      <trkpt lat="45.82731" lon="4.46107">
        <ele>582.4</ele>
        <time>2025-09-10T09:44:30Z</time>
      </trkpt>
      <trkpt lat="45.8273" lon="4.46108">
        <ele>582.4</ele>
        <time>2025-09-10T09:44:31Z</time>
      </trkpt>
      <trkpt lat="45.82728" lon="4.46109">
        <ele>582.6</ele>
        <time>2025-09-10T09:44:32Z</time>
      </trkpt>
      <trkpt lat="45.82728" lon="4.4611">
        <ele>582.6</ele>
        <time>2025-09-10T09:44:33Z</time>
      </trkpt>
      <trkpt lat="45.82727" lon="4.4611">
        <ele>582.6</ele>
        <time>2025-09-10T09:44:34Z</time>
      </trkpt>
      <trkpt lat="45.82726" lon="4.4611">
        <ele>582.6</ele>
        <time>2025-09-10T09:44:35Z</time>
      </trkpt>
      <trkpt lat="45.82725" lon="4.4611">
        <ele>582.6</ele>
        <time>2025-09-10T09:44:36Z</time>
      </trkpt>
      <trkpt lat="45.82724" lon="4.4611">
        <ele>582.8</ele>
        <time>2025-09-10T09:44:37Z</time>
      </trkpt>
      <trkpt lat="45.82723" lon="4.46109">
        <ele>582.8</ele>
        <time>2025-09-10T09:44:38Z</time>
      </trkpt>
      <trkpt lat="45.82722" lon="4.46109">
        <ele>583.2</ele>
        <time>2025-09-10T09:44:39Z</time>
      </trkpt>
      <trkpt lat="45.82721" lon="4.4611">
        <ele>583.2</ele>
        <time>2025-09-10T09:44:40Z</time>
      </trkpt>
      <trkpt lat="45.8272" lon="4.4611">
        <ele>583.6</ele>
        <time>2025-09-10T09:44:41Z</time>
      </trkpt>
      <trkpt lat="45.82719" lon="4.46111">
        <ele>583.6</ele>
        <time>2025-09-10T09:44:42Z</time>
      </trkpt>
      <trkpt lat="45.82718" lon="4.46112">
        <ele>584</ele>
        <time>2025-09-10T09:44:43Z</time>
      </trkpt>
      <trkpt lat="45.82717" lon="4.46112">
        <ele>584</ele>
        <time>2025-09-10T09:44:44Z</time>
      </trkpt>
      <trkpt lat="45.82716" lon="4.46113">
        <ele>584.2</ele>
        <time>2025-09-10T09:44:45Z</time>
      </trkpt>
      <trkpt lat="45.82716" lon="4.46115">
        <ele>584.2</ele>
        <time>2025-09-10T09:44:46Z</time>
      </trkpt>
      <trkpt lat="45.82716" lon="4.46116">
        <ele>584.2</ele>
        <time>2025-09-10T09:44:47Z</time>
      </trkpt>
      <trkpt lat="45.82716" lon="4.46116">
        <ele>584.2</ele>
        <time>2025-09-10T09:44:48Z</time>
      </trkpt>
      <trkpt lat="45.82715" lon="4.46117">
        <ele>584.6</ele>
        <time>2025-09-10T09:44:49Z</time>
      </trkpt>
      <trkpt lat="45.82714" lon="4.46119">
        <ele>584.6</ele>
        <time>2025-09-10T09:44:50Z</time>
      </trkpt>
      <trkpt lat="45.82714" lon="4.4612">
        <ele>584.6</ele>
        <time>2025-09-10T09:44:51Z</time>
      </trkpt>
      <trkpt lat="45.82714" lon="4.46121">
        <ele>585</ele>
        <time>2025-09-10T09:44:52Z</time>
      </trkpt>
      <trkpt lat="45.82713" lon="4.46121">
        <ele>585</ele>
        <time>2025-09-10T09:44:53Z</time>
      </trkpt>
      <trkpt lat="45.82711" lon="4.46123">
        <ele>585.4</ele>
        <time>2025-09-10T09:44:54Z</time>
      </trkpt>
      <trkpt lat="45.82711" lon="4.46123">
        <ele>585.4</ele>
        <time>2025-09-10T09:44:55Z</time>
      </trkpt>
      <trkpt lat="45.8271" lon="4.46123">
        <ele>585.4</ele>
        <time>2025-09-10T09:44:56Z</time>
      </trkpt>
      <trkpt lat="45.82709" lon="4.46124">
        <ele>585.8</ele>
        <time>2025-09-10T09:44:57Z</time>
      </trkpt>
      <trkpt lat="45.82708" lon="4.46125">
        <ele>585.8</ele>
        <time>2025-09-10T09:44:58Z</time>
      </trkpt>
      <trkpt lat="45.82708" lon="4.46126">
        <ele>585.8</ele>
        <time>2025-09-10T09:44:59Z</time>
      </trkpt>
      <trkpt lat="45.82707" lon="4.46127">
        <ele>585.8</ele>
        <time>2025-09-10T09:45:00Z</time>
      </trkpt>
      <trkpt lat="45.82707" lon="4.46128">
        <ele>586</ele>
        <time>2025-09-10T09:45:01Z</time>
      </trkpt>
      <trkpt lat="45.82706" lon="4.46129">
        <ele>586</ele>
        <time>2025-09-10T09:45:02Z</time>
      </trkpt>
      <trkpt lat="45.82705" lon="4.4613">
        <ele>586</ele>
        <time>2025-09-10T09:45:03Z</time>
      </trkpt>
      <trkpt lat="45.82704" lon="4.4613">
        <ele>586.4</ele>
        <time>2025-09-10T09:45:04Z</time>
      </trkpt>
      <trkpt lat="45.82702" lon="4.46131">
        <ele>586.4</ele>
        <time>2025-09-10T09:45:05Z</time>
      </trkpt>
      <trkpt lat="45.82701" lon="4.46131">
        <ele>586.4</ele>
        <time>2025-09-10T09:45:06Z</time>
      </trkpt>
      <trkpt lat="45.82701" lon="4.46132">
        <ele>586.8</ele>
        <time>2025-09-10T09:45:07Z</time>
      </trkpt>
      <trkpt lat="45.827" lon="4.46132">
        <ele>586.8</ele>
        <time>2025-09-10T09:45:08Z</time>
      </trkpt>
      <trkpt lat="45.82699" lon="4.46132">
        <ele>587.2</ele>
        <time>2025-09-10T09:45:09Z</time>
      </trkpt>
      <trkpt lat="45.82698" lon="4.46133">
        <ele>587.2</ele>
        <time>2025-09-10T09:45:10Z</time>
      </trkpt>
      <trkpt lat="45.82697" lon="4.46134">
        <ele>587.2</ele>
        <time>2025-09-10T09:45:11Z</time>
      </trkpt>
      <trkpt lat="45.82697" lon="4.46135">
        <ele>587.2</ele>
        <time>2025-09-10T09:45:12Z</time>
      </trkpt>
      <trkpt lat="45.82696" lon="4.46136">
        <ele>587.4</ele>
        <time>2025-09-10T09:45:13Z</time>
      </trkpt>
      <trkpt lat="45.82696" lon="4.46137">
        <ele>587.4</ele>
        <time>2025-09-10T09:45:14Z</time>
      </trkpt>
      <trkpt lat="45.82696" lon="4.46137">
        <ele>587.4</ele>
        <time>2025-09-10T09:45:15Z</time>
      </trkpt>
      <trkpt lat="45.82696" lon="4.46138">
        <ele>587.8</ele>
        <time>2025-09-10T09:45:16Z</time>
      </trkpt>
      <trkpt lat="45.82695" lon="4.46139">
        <ele>587.8</ele>
        <time>2025-09-10T09:45:17Z</time>
      </trkpt>
      <trkpt lat="45.82695" lon="4.4614">
        <ele>588</ele>
        <time>2025-09-10T09:45:18Z</time>
      </trkpt>
      <trkpt lat="45.82694" lon="4.46141">
        <ele>588</ele>
        <time>2025-09-10T09:45:19Z</time>
      </trkpt>
      <trkpt lat="45.82694" lon="4.46141">
        <ele>588</ele>
        <time>2025-09-10T09:45:20Z</time>
      </trkpt>
      <trkpt lat="45.82694" lon="4.46142">
        <ele>588</ele>
        <time>2025-09-10T09:45:21Z</time>
      </trkpt>
      <trkpt lat="45.82693" lon="4.46143">
        <ele>588.4</ele>
        <time>2025-09-10T09:45:22Z</time>
      </trkpt>
      <trkpt lat="45.82693" lon="4.46144">
        <ele>588.4</ele>
        <time>2025-09-10T09:45:23Z</time>
      </trkpt>
      <trkpt lat="45.82692" lon="4.46145">
        <ele>588.6</ele>
        <time>2025-09-10T09:45:24Z</time>
      </trkpt>
      <trkpt lat="45.82691" lon="4.46145">
        <ele>588.6</ele>
        <time>2025-09-10T09:45:25Z</time>
      </trkpt>
      <trkpt lat="45.82691" lon="4.46145">
        <ele>589</ele>
        <time>2025-09-10T09:45:26Z</time>
      </trkpt>
      <trkpt lat="45.82691" lon="4.46145">
        <ele>589.2</ele>
        <time>2025-09-10T09:45:27Z</time>
      </trkpt>
      <trkpt lat="45.8269" lon="4.46146">
        <ele>589.2</ele>
        <time>2025-09-10T09:45:28Z</time>
      </trkpt>
      <trkpt lat="45.82689" lon="4.46146">
        <ele>589.2</ele>
        <time>2025-09-10T09:45:29Z</time>
      </trkpt>
      <trkpt lat="45.82688" lon="4.46146">
        <ele>589.6</ele>
        <time>2025-09-10T09:45:30Z</time>
      </trkpt>
      <trkpt lat="45.82687" lon="4.46147">
        <ele>589.6</ele>
        <time>2025-09-10T09:45:31Z</time>
      </trkpt>
      <trkpt lat="45.82686" lon="4.46147">
        <ele>589.8</ele>
        <time>2025-09-10T09:45:32Z</time>
      </trkpt>
      <trkpt lat="45.82686" lon="4.46147">
        <ele>590</ele>
        <time>2025-09-10T09:45:33Z</time>
      </trkpt>
      <trkpt lat="45.82685" lon="4.46148">
        <ele>590</ele>
        <time>2025-09-10T09:45:34Z</time>
      </trkpt>
      <trkpt lat="45.82684" lon="4.4615">
        <ele>590.4</ele>
        <time>2025-09-10T09:45:35Z</time>
      </trkpt>
      <trkpt lat="45.82683" lon="4.46151">
        <ele>590.2</ele>
        <time>2025-09-10T09:45:36Z</time>
      </trkpt>
      <trkpt lat="45.82683" lon="4.46152">
        <ele>590.4</ele>
        <time>2025-09-10T09:45:37Z</time>
      </trkpt>
      <trkpt lat="45.82682" lon="4.46153">
        <ele>590.4</ele>
        <time>2025-09-10T09:45:38Z</time>
      </trkpt>
      <trkpt lat="45.82681" lon="4.46154">
        <ele>590.4</ele>
        <time>2025-09-10T09:45:39Z</time>
      </trkpt>
      <trkpt lat="45.82681" lon="4.46155">
        <ele>590.8</ele>
        <time>2025-09-10T09:45:40Z</time>
      </trkpt>
      <trkpt lat="45.8268" lon="4.46156">
        <ele>590.8</ele>
        <time>2025-09-10T09:45:41Z</time>
      </trkpt>
      <trkpt lat="45.8268" lon="4.46157">
        <ele>591.2</ele>
        <time>2025-09-10T09:45:42Z</time>
      </trkpt>
      <trkpt lat="45.82679" lon="4.46157">
        <ele>591.2</ele>
        <time>2025-09-10T09:45:43Z</time>
      </trkpt>
      <trkpt lat="45.82678" lon="4.46158">
        <ele>591.2</ele>
        <time>2025-09-10T09:45:44Z</time>
      </trkpt>
      <trkpt lat="45.82678" lon="4.46158">
        <ele>591.2</ele>
        <time>2025-09-10T09:45:45Z</time>
      </trkpt>
      <trkpt lat="45.82678" lon="4.46158">
        <ele>591.4</ele>
        <time>2025-09-10T09:45:46Z</time>
      </trkpt>
      <trkpt lat="45.82678" lon="4.46159">
        <ele>591.4</ele>
        <time>2025-09-10T09:45:47Z</time>
      </trkpt>
      <trkpt lat="45.82676" lon="4.46161">
        <ele>591.6</ele>
        <time>2025-09-10T09:45:48Z</time>
      </trkpt>
      <trkpt lat="45.82676" lon="4.46161">
        <ele>591.6</ele>
        <time>2025-09-10T09:45:49Z</time>
      </trkpt>
      <trkpt lat="45.82675" lon="4.46162">
        <ele>591.8</ele>
        <time>2025-09-10T09:45:50Z</time>
      </trkpt>
      <trkpt lat="45.82675" lon="4.46162">
        <ele>591.8</ele>
        <time>2025-09-10T09:45:51Z</time>
      </trkpt>
      <trkpt lat="45.82674" lon="4.46163">
        <ele>592.2</ele>
        <time>2025-09-10T09:45:52Z</time>
      </trkpt>
      <trkpt lat="45.82673" lon="4.46164">
        <ele>592.2</ele>
        <time>2025-09-10T09:45:53Z</time>
      </trkpt>
      <trkpt lat="45.82672" lon="4.46165">
        <ele>592.2</ele>
        <time>2025-09-10T09:45:54Z</time>
      </trkpt>
      <trkpt lat="45.82671" lon="4.46166">
        <ele>592.2</ele>
        <time>2025-09-10T09:45:55Z</time>
      </trkpt>
      <trkpt lat="45.82671" lon="4.46167">
        <ele>592.2</ele>
        <time>2025-09-10T09:45:56Z</time>
      </trkpt>
      <trkpt lat="45.82671" lon="4.46167">
        <ele>592.4</ele>
        <time>2025-09-10T09:45:57Z</time>
      </trkpt>
      <trkpt lat="45.82671" lon="4.46168">
        <ele>592.4</ele>
        <time>2025-09-10T09:45:58Z</time>
      </trkpt>
      <trkpt lat="45.8267" lon="4.46168">
        <ele>592.4</ele>
        <time>2025-09-10T09:45:59Z</time>
      </trkpt>
      <trkpt lat="45.82669" lon="4.46171">
        <ele>592.4</ele>
        <time>2025-09-10T09:46:15Z</time>
      </trkpt>
      <trkpt lat="45.82668" lon="4.46172">
        <ele>592.6</ele>
        <time>2025-09-10T09:46:16Z</time>
      </trkpt>
      <trkpt lat="45.82666" lon="4.46174">
        <ele>592.6</ele>
        <time>2025-09-10T09:46:17Z</time>
      </trkpt>
      <trkpt lat="45.82664" lon="4.46175">
        <ele>592.6</ele>
        <time>2025-09-10T09:46:18Z</time>
      </trkpt>
      <trkpt lat="45.82663" lon="4.46176">
        <ele>593</ele>
        <time>2025-09-10T09:46:19Z</time>
      </trkpt>
      <trkpt lat="45.82662" lon="4.46177">
        <ele>593</ele>
        <time>2025-09-10T09:46:20Z</time>
      </trkpt>
      <trkpt lat="45.8266" lon="4.46179">
        <ele>593.2</ele>
        <time>2025-09-10T09:46:21Z</time>
      </trkpt>
      <trkpt lat="45.82658" lon="4.46181">
        <ele>593.2</ele>
        <time>2025-09-10T09:46:22Z</time>
      </trkpt>
      <trkpt lat="45.82656" lon="4.46181">
        <ele>593.2</ele>
        <time>2025-09-10T09:46:23Z</time>
      </trkpt>
      <trkpt lat="45.82656" lon="4.46182">
        <ele>593.6</ele>
        <time>2025-09-10T09:46:24Z</time>
      </trkpt>
      <trkpt lat="45.82655" lon="4.46183">
        <ele>593.6</ele>
        <time>2025-09-10T09:46:25Z</time>
      </trkpt>
      <trkpt lat="45.82654" lon="4.46184">
        <ele>593.8</ele>
        <time>2025-09-10T09:46:26Z</time>
      </trkpt>
      <trkpt lat="45.82653" lon="4.46185">
        <ele>593.8</ele>
        <time>2025-09-10T09:46:27Z</time>
      </trkpt>
      <trkpt lat="45.82652" lon="4.46186">
        <ele>594</ele>
        <time>2025-09-10T09:46:28Z</time>
      </trkpt>
      <trkpt lat="45.82651" lon="4.46188">
        <ele>594</ele>
        <time>2025-09-10T09:46:29Z</time>
      </trkpt>
      <trkpt lat="45.8265" lon="4.46189">
        <ele>594</ele>
        <time>2025-09-10T09:46:30Z</time>
      </trkpt>
      <trkpt lat="45.82649" lon="4.4619">
        <ele>594.2</ele>
        <time>2025-09-10T09:46:31Z</time>
      </trkpt>
      <trkpt lat="45.82648" lon="4.46191">
        <ele>594.2</ele>
        <time>2025-09-10T09:46:32Z</time>
      </trkpt>
      <trkpt lat="45.82648" lon="4.46192">
        <ele>594.2</ele>
        <time>2025-09-10T09:46:33Z</time>
      </trkpt>
      <trkpt lat="45.82647" lon="4.46193">
        <ele>594.4</ele>
        <time>2025-09-10T09:46:34Z</time>
      </trkpt>
      <trkpt lat="45.82647" lon="4.46194">
        <ele>594.8</ele>
        <time>2025-09-10T09:46:35Z</time>
      </trkpt>
      <trkpt lat="45.82646" lon="4.46194">
        <ele>594.8</ele>
        <time>2025-09-10T09:46:36Z</time>
      </trkpt>
      <trkpt lat="45.82646" lon="4.46196">
        <ele>595</ele>
        <time>2025-09-10T09:46:37Z</time>
      </trkpt>
      <trkpt lat="45.82645" lon="4.46198">
        <ele>595</ele>
        <time>2025-09-10T09:46:38Z</time>
      </trkpt>
      <trkpt lat="45.82644" lon="4.462">
        <ele>595.4</ele>
        <time>2025-09-10T09:46:39Z</time>
      </trkpt>
      <trkpt lat="45.82643" lon="4.46202">
        <ele>595.4</ele>
        <time>2025-09-10T09:46:40Z</time>
      </trkpt>
      <trkpt lat="45.82642" lon="4.46202">
        <ele>595.6</ele>
        <time>2025-09-10T09:46:41Z</time>
      </trkpt>
      <trkpt lat="45.82641" lon="4.46204">
        <ele>595.8</ele>
        <time>2025-09-10T09:46:42Z</time>
      </trkpt>
      <trkpt lat="45.82639" lon="4.46205">
        <ele>595.8</ele>
        <time>2025-09-10T09:46:43Z</time>
      </trkpt>
      <trkpt lat="45.82638" lon="4.46206">
        <ele>596.2</ele>
        <time>2025-09-10T09:46:44Z</time>
      </trkpt>
      <trkpt lat="45.82638" lon="4.46207">
        <ele>596.2</ele>
        <time>2025-09-10T09:46:45Z</time>
      </trkpt>
      <trkpt lat="45.82637" lon="4.46208">
        <ele>596.4</ele>
        <time>2025-09-10T09:46:46Z</time>
      </trkpt>
      <trkpt lat="45.82636" lon="4.4621">
        <ele>596.4</ele>
        <time>2025-09-10T09:46:47Z</time>
      </trkpt>
      <trkpt lat="45.82636" lon="4.46211">
        <ele>596.8</ele>
        <time>2025-09-10T09:46:48Z</time>
      </trkpt>
      <trkpt lat="45.82635" lon="4.46213">
        <ele>596.8</ele>
        <time>2025-09-10T09:46:49Z</time>
      </trkpt>
      <trkpt lat="45.82634" lon="4.46215">
        <ele>596.8</ele>
        <time>2025-09-10T09:46:50Z</time>
      </trkpt>
      <trkpt lat="45.82634" lon="4.46216">
        <ele>597</ele>
        <time>2025-09-10T09:46:51Z</time>
      </trkpt>
      <trkpt lat="45.82633" lon="4.46217">
        <ele>597</ele>
        <time>2025-09-10T09:46:52Z</time>
      </trkpt>
      <trkpt lat="45.82633" lon="4.46218">
        <ele>597</ele>
        <time>2025-09-10T09:46:53Z</time>
      </trkpt>
      <trkpt lat="45.82632" lon="4.4622">
        <ele>597.4</ele>
        <time>2025-09-10T09:46:54Z</time>
      </trkpt>
      <trkpt lat="45.82632" lon="4.46222">
        <ele>597.4</ele>
        <time>2025-09-10T09:46:55Z</time>
      </trkpt>
      <trkpt lat="45.82632" lon="4.46223">
        <ele>597.6</ele>
        <time>2025-09-10T09:46:56Z</time>
      </trkpt>
      <trkpt lat="45.82631" lon="4.46224">
        <ele>598</ele>
        <time>2025-09-10T09:46:57Z</time>
      </trkpt>
      <trkpt lat="45.82631" lon="4.46226">
        <ele>598.2</ele>
        <time>2025-09-10T09:46:58Z</time>
      </trkpt>
      <trkpt lat="45.8263" lon="4.46227">
        <ele>598.2</ele>
        <time>2025-09-10T09:46:59Z</time>
      </trkpt>
      <trkpt lat="45.8263" lon="4.46229">
        <ele>598.4</ele>
        <time>2025-09-10T09:47:00Z</time>
      </trkpt>
      <trkpt lat="45.82629" lon="4.4623">
        <ele>598.4</ele>
        <time>2025-09-10T09:47:01Z</time>
      </trkpt>
      <trkpt lat="45.82628" lon="4.46231">
        <ele>598.6</ele>
        <time>2025-09-10T09:47:02Z</time>
      </trkpt>
      <trkpt lat="45.82627" lon="4.46232">
        <ele>598.6</ele>
        <time>2025-09-10T09:47:03Z</time>
      </trkpt>
      <trkpt lat="45.82627" lon="4.46234">
        <ele>599</ele>
        <time>2025-09-10T09:47:04Z</time>
      </trkpt>
      <trkpt lat="45.82627" lon="4.46236">
        <ele>599.2</ele>
        <time>2025-09-10T09:47:05Z</time>
      </trkpt>
      <trkpt lat="45.82627" lon="4.46237">
        <ele>599.2</ele>
        <time>2025-09-10T09:47:06Z</time>
      </trkpt>
      <trkpt lat="45.82626" lon="4.46239">
        <ele>599.4</ele>
        <time>2025-09-10T09:47:07Z</time>
      </trkpt>
      <trkpt lat="45.82626" lon="4.46241">
        <ele>599.4</ele>
        <time>2025-09-10T09:47:08Z</time>
      </trkpt>
      <trkpt lat="45.82626" lon="4.46243">
        <ele>599.4</ele>
        <time>2025-09-10T09:47:09Z</time>
      </trkpt>
      <trkpt lat="45.82625" lon="4.46244">
        <ele>599.6</ele>
        <time>2025-09-10T09:47:10Z</time>
      </trkpt>
      <trkpt lat="45.82625" lon="4.46246">
        <ele>599.6</ele>
        <time>2025-09-10T09:47:11Z</time>
      </trkpt>
      <trkpt lat="45.82625" lon="4.46247">
        <ele>600</ele>
        <time>2025-09-10T09:47:12Z</time>
      </trkpt>
      <trkpt lat="45.82624" lon="4.46249">
        <ele>600</ele>
        <time>2025-09-10T09:47:13Z</time>
      </trkpt>
      <trkpt lat="45.82624" lon="4.4625">
        <ele>600.2</ele>
        <time>2025-09-10T09:47:14Z</time>
      </trkpt>
      <trkpt lat="45.82623" lon="4.46252">
        <ele>600.2</ele>
        <time>2025-09-10T09:47:15Z</time>
      </trkpt>
      <trkpt lat="45.82623" lon="4.46254">
        <ele>600.2</ele>
        <time>2025-09-10T09:47:16Z</time>
      </trkpt>
      <trkpt lat="45.82623" lon="4.46255">
        <ele>600.4</ele>
        <time>2025-09-10T09:47:17Z</time>
      </trkpt>
      <trkpt lat="45.82622" lon="4.46256">
        <ele>600.4</ele>
        <time>2025-09-10T09:47:18Z</time>
      </trkpt>
      <trkpt lat="45.82622" lon="4.46258">
        <ele>600.4</ele>
        <time>2025-09-10T09:47:19Z</time>
      </trkpt>
      <trkpt lat="45.82622" lon="4.4626">
        <ele>600.4</ele>
        <time>2025-09-10T09:47:20Z</time>
      </trkpt>
      <trkpt lat="45.82622" lon="4.46262">
        <ele>600.4</ele>
        <time>2025-09-10T09:47:21Z</time>
      </trkpt>
      <trkpt lat="45.82622" lon="4.46264">
        <ele>600.8</ele>
        <time>2025-09-10T09:47:22Z</time>
      </trkpt>
      <trkpt lat="45.82622" lon="4.46266">
        <ele>600.8</ele>
        <time>2025-09-10T09:47:23Z</time>
      </trkpt>
      <trkpt lat="45.82623" lon="4.46268">
        <ele>600.8</ele>
        <time>2025-09-10T09:47:24Z</time>
      </trkpt>
      <trkpt lat="45.82623" lon="4.4627">
        <ele>601.2</ele>
        <time>2025-09-10T09:47:25Z</time>
      </trkpt>
      <trkpt lat="45.82623" lon="4.46272">
        <ele>601.2</ele>
        <time>2025-09-10T09:47:26Z</time>
      </trkpt>
      <trkpt lat="45.82623" lon="4.46274">
        <ele>601.4</ele>
        <time>2025-09-10T09:47:27Z</time>
      </trkpt>
      <trkpt lat="45.82623" lon="4.46276">
        <ele>601.4</ele>
        <time>2025-09-10T09:47:28Z</time>
      </trkpt>
      <trkpt lat="45.82623" lon="4.46278">
        <ele>601.4</ele>
        <time>2025-09-10T09:47:29Z</time>
      </trkpt>
      <trkpt lat="45.82623" lon="4.4628">
        <ele>601.8</ele>
        <time>2025-09-10T09:47:30Z</time>
      </trkpt>
      <trkpt lat="45.82623" lon="4.46282">
        <ele>601.8</ele>
        <time>2025-09-10T09:47:31Z</time>
      </trkpt>
      <trkpt lat="45.82623" lon="4.46284">
        <ele>602</ele>
        <time>2025-09-10T09:47:32Z</time>
      </trkpt>
      <trkpt lat="45.82623" lon="4.46286">
        <ele>602</ele>
        <time>2025-09-10T09:47:33Z</time>
      </trkpt>
      <trkpt lat="45.82623" lon="4.46288">
        <ele>602</ele>
        <time>2025-09-10T09:47:34Z</time>
      </trkpt>
      <trkpt lat="45.82622" lon="4.4629">
        <ele>602</ele>
        <time>2025-09-10T09:47:35Z</time>
      </trkpt>
      <trkpt lat="45.82622" lon="4.46292">
        <ele>602</ele>
        <time>2025-09-10T09:47:36Z</time>
      </trkpt>
      <trkpt lat="45.82622" lon="4.46294">
        <ele>602.2</ele>
        <time>2025-09-10T09:47:37Z</time>
      </trkpt>
      <trkpt lat="45.82621" lon="4.46296">
        <ele>602.2</ele>
        <time>2025-09-10T09:47:38Z</time>
      </trkpt>
      <trkpt lat="45.82621" lon="4.46298">
        <ele>602.2</ele>
        <time>2025-09-10T09:47:39Z</time>
      </trkpt>
      <trkpt lat="45.8262" lon="4.463">
        <ele>602.2</ele>
        <time>2025-09-10T09:47:40Z</time>
      </trkpt>
      <trkpt lat="45.8262" lon="4.46301">
        <ele>602.2</ele>
        <time>2025-09-10T09:47:41Z</time>
      </trkpt>
      <trkpt lat="45.82619" lon="4.46303">
        <ele>602.6</ele>
        <time>2025-09-10T09:47:42Z</time>
      </trkpt>
      <trkpt lat="45.82619" lon="4.46305">
        <ele>602.6</ele>
        <time>2025-09-10T09:47:43Z</time>
      </trkpt>
      <trkpt lat="45.82619" lon="4.46307">
        <ele>602.6</ele>
        <time>2025-09-10T09:47:44Z</time>
      </trkpt>
      <trkpt lat="45.82619" lon="4.46309">
        <ele>602.6</ele>
        <time>2025-09-10T09:47:45Z</time>
      </trkpt>
      <trkpt lat="45.82618" lon="4.46312">
        <ele>602.8</ele>
        <time>2025-09-10T09:47:46Z</time>
      </trkpt>
      <trkpt lat="45.82618" lon="4.46314">
        <ele>602.8</ele>
        <time>2025-09-10T09:47:47Z</time>
      </trkpt>
      <trkpt lat="45.82618" lon="4.46316">
        <ele>603</ele>
        <time>2025-09-10T09:47:48Z</time>
      </trkpt>
      <trkpt lat="45.82618" lon="4.46318">
        <ele>603</ele>
        <time>2025-09-10T09:47:49Z</time>
      </trkpt>
      <trkpt lat="45.82617" lon="4.4632">
        <ele>603.4</ele>
        <time>2025-09-10T09:47:50Z</time>
      </trkpt>
      <trkpt lat="45.82617" lon="4.46321">
        <ele>603.4</ele>
        <time>2025-09-10T09:47:51Z</time>
      </trkpt>
      <trkpt lat="45.82616" lon="4.46323">
        <ele>603.4</ele>
        <time>2025-09-10T09:47:52Z</time>
      </trkpt>
      <trkpt lat="45.82615" lon="4.46325">
        <ele>603.4</ele>
        <time>2025-09-10T09:47:53Z</time>
      </trkpt>
      <trkpt lat="45.82615" lon="4.46327">
        <ele>603.4</ele>
        <time>2025-09-10T09:47:54Z</time>
      </trkpt>
      <trkpt lat="45.82615" lon="4.46329">
        <ele>603.8</ele>
        <time>2025-09-10T09:47:55Z</time>
      </trkpt>
      <trkpt lat="45.82614" lon="4.46331">
        <ele>604</ele>
        <time>2025-09-10T09:47:56Z</time>
      </trkpt>
      <trkpt lat="45.82614" lon="4.46333">
        <ele>604</ele>
        <time>2025-09-10T09:47:57Z</time>
      </trkpt>
      <trkpt lat="45.82614" lon="4.46334">
        <ele>604</ele>
        <time>2025-09-10T09:47:58Z</time>
      </trkpt>
      <trkpt lat="45.82614" lon="4.46336">
        <ele>604.2</ele>
        <time>2025-09-10T09:47:59Z</time>
      </trkpt>
      <trkpt lat="45.82614" lon="4.46338">
        <ele>604.2</ele>
        <time>2025-09-10T09:48:00Z</time>
      </trkpt>
      <trkpt lat="45.82614" lon="4.46339">
        <ele>604.4</ele>
        <time>2025-09-10T09:48:01Z</time>
      </trkpt>
      <trkpt lat="45.82614" lon="4.46341">
        <ele>604.4</ele>
        <time>2025-09-10T09:48:02Z</time>
      </trkpt>
      <trkpt lat="45.82613" lon="4.46343">
        <ele>604.4</ele>
        <time>2025-09-10T09:48:03Z</time>
      </trkpt>
      <trkpt lat="45.82613" lon="4.46344">
        <ele>604.8</ele>
        <time>2025-09-10T09:48:04Z</time>
      </trkpt>
      <trkpt lat="45.82612" lon="4.46346">
        <ele>605</ele>
        <time>2025-09-10T09:48:05Z</time>
      </trkpt>
      <trkpt lat="45.82612" lon="4.46347">
        <ele>605</ele>
        <time>2025-09-10T09:48:06Z</time>
      </trkpt>
      <trkpt lat="45.82612" lon="4.46349">
        <ele>605.2</ele>
        <time>2025-09-10T09:48:07Z</time>
      </trkpt>
      <trkpt lat="45.82612" lon="4.46351">
        <ele>605.2</ele>
        <time>2025-09-10T09:48:08Z</time>
      </trkpt>
      <trkpt lat="45.82613" lon="4.46353">
        <ele>605.2</ele>
        <time>2025-09-10T09:48:09Z</time>
      </trkpt>
      <trkpt lat="45.82613" lon="4.46355">
        <ele>605.6</ele>
        <time>2025-09-10T09:48:10Z</time>
      </trkpt>
      <trkpt lat="45.82613" lon="4.46357">
        <ele>605.6</ele>
        <time>2025-09-10T09:48:11Z</time>
      </trkpt>
      <trkpt lat="45.82612" lon="4.46358">
        <ele>605.8</ele>
        <time>2025-09-10T09:48:12Z</time>
      </trkpt>
      <trkpt lat="45.82612" lon="4.46359">
        <ele>605.8</ele>
        <time>2025-09-10T09:48:13Z</time>
      </trkpt>
      <trkpt lat="45.82612" lon="4.46361">
        <ele>606.2</ele>
        <time>2025-09-10T09:48:14Z</time>
      </trkpt>
      <trkpt lat="45.82612" lon="4.46362">
        <ele>606.4</ele>
        <time>2025-09-10T09:48:15Z</time>
      </trkpt>
      <trkpt lat="45.82612" lon="4.46363">
        <ele>606.4</ele>
        <time>2025-09-10T09:48:16Z</time>
      </trkpt>
      <trkpt lat="45.82612" lon="4.46364">
        <ele>606.6</ele>
        <time>2025-09-10T09:48:17Z</time>
      </trkpt>
      <trkpt lat="45.82612" lon="4.46364">
        <ele>606.6</ele>
        <time>2025-09-10T09:48:18Z</time>
      </trkpt>
      <trkpt lat="45.82612" lon="4.46362">
        <ele>608</ele>
        <time>2025-09-10T09:53:29Z</time>
      </trkpt>
      <trkpt lat="45.82612" lon="4.46363">
        <ele>608.4</ele>
        <time>2025-09-10T09:53:30Z</time>
      </trkpt>
      <trkpt lat="45.82612" lon="4.46363">
        <ele>608.4</ele>
        <time>2025-09-10T09:53:31Z</time>
      </trkpt>
      <trkpt lat="45.82612" lon="4.46363">
        <ele>608.4</ele>
        <time>2025-09-10T09:53:32Z</time>
      </trkpt>
      <trkpt lat="45.8261" lon="4.4637">
        <ele>608.4</ele>
        <time>2025-09-10T09:53:34Z</time>
      </trkpt>
      <trkpt lat="45.8261" lon="4.46372">
        <ele>608.4</ele>
        <time>2025-09-10T09:53:35Z</time>
      </trkpt>
      <trkpt lat="45.8261" lon="4.46374">
        <ele>608.6</ele>
        <time>2025-09-10T09:53:36Z</time>
      </trkpt>
      <trkpt lat="45.8261" lon="4.46377">
        <ele>608.8</ele>
        <time>2025-09-10T09:53:37Z</time>
      </trkpt>
      <trkpt lat="45.8261" lon="4.46378">
        <ele>608.8</ele>
        <time>2025-09-10T09:53:38Z</time>
      </trkpt>
      <trkpt lat="45.82609" lon="4.4638">
        <ele>609</ele>
        <time>2025-09-10T09:53:39Z</time>
      </trkpt>
      <trkpt lat="45.82609" lon="4.46381">
        <ele>609.4</ele>
        <time>2025-09-10T09:53:40Z</time>
      </trkpt>
      <trkpt lat="45.82609" lon="4.46381">
        <ele>609.4</ele>
        <time>2025-09-10T09:53:41Z</time>
      </trkpt>
      <trkpt lat="45.82609" lon="4.46382">
        <ele>609.8</ele>
        <time>2025-09-10T09:53:57Z</time>
      </trkpt>
      <trkpt lat="45.82609" lon="4.46384">
        <ele>609.8</ele>
        <time>2025-09-10T09:53:58Z</time>
      </trkpt>
      <trkpt lat="45.82608" lon="4.46386">
        <ele>609.8</ele>
        <time>2025-09-10T09:53:59Z</time>
      </trkpt>
      <trkpt lat="45.82608" lon="4.46386">
        <ele>609.8</ele>
        <time>2025-09-10T09:54:00Z</time>
      </trkpt>
      <trkpt lat="45.82608" lon="4.4639">
        <ele>610</ele>
        <time>2025-09-10T09:54:01Z</time>
      </trkpt>
      <trkpt lat="45.82608" lon="4.46393">
        <ele>610</ele>
        <time>2025-09-10T09:54:02Z</time>
      </trkpt>
      <trkpt lat="45.82607" lon="4.46395">
        <ele>610.4</ele>
        <time>2025-09-10T09:54:03Z</time>
      </trkpt>
      <trkpt lat="45.82607" lon="4.46397">
        <ele>610.6</ele>
        <time>2025-09-10T09:54:04Z</time>
      </trkpt>
      <trkpt lat="45.82607" lon="4.46399">
        <ele>610.8</ele>
        <time>2025-09-10T09:54:05Z</time>
      </trkpt>
      <trkpt lat="45.82606" lon="4.46401">
        <ele>611.2</ele>
        <time>2025-09-10T09:54:06Z</time>
      </trkpt>
      <trkpt lat="45.82605" lon="4.46404">
        <ele>611.4</ele>
        <time>2025-09-10T09:54:07Z</time>
      </trkpt>
      <trkpt lat="45.82605" lon="4.46406">
        <ele>611.6</ele>
        <time>2025-09-10T09:54:08Z</time>
      </trkpt>
      <trkpt lat="45.82605" lon="4.46409">
        <ele>612</ele>
        <time>2025-09-10T09:54:09Z</time>
      </trkpt>
      <trkpt lat="45.82605" lon="4.46411">
        <ele>612</ele>
        <time>2025-09-10T09:54:10Z</time>
      </trkpt>
      <trkpt lat="45.82605" lon="4.46413">
        <ele>612.4</ele>
        <time>2025-09-10T09:54:11Z</time>
      </trkpt>
      <trkpt lat="45.82605" lon="4.46415">
        <ele>612.8</ele>
        <time>2025-09-10T09:54:12Z</time>
      </trkpt>
      <trkpt lat="45.82604" lon="4.46417">
        <ele>612.8</ele>
        <time>2025-09-10T09:54:13Z</time>
      </trkpt>
      <trkpt lat="45.82605" lon="4.46418">
        <ele>613.2</ele>
        <time>2025-09-10T09:54:14Z</time>
      </trkpt>
      <trkpt lat="45.82606" lon="4.4642">
        <ele>613.4</ele>
        <time>2025-09-10T09:54:15Z</time>
      </trkpt>
      <trkpt lat="45.82606" lon="4.46422">
        <ele>613.4</ele>
        <time>2025-09-10T09:54:16Z</time>
      </trkpt>
      <trkpt lat="45.82606" lon="4.46424">
        <ele>613.8</ele>
        <time>2025-09-10T09:54:17Z</time>
      </trkpt>
      <trkpt lat="45.82607" lon="4.46426">
        <ele>614</ele>
        <time>2025-09-10T09:54:18Z</time>
      </trkpt>
      <trkpt lat="45.82607" lon="4.46427">
        <ele>614</ele>
        <time>2025-09-10T09:54:19Z</time>
      </trkpt>
      <trkpt lat="45.82607" lon="4.46428">
        <ele>614.4</ele>
        <time>2025-09-10T09:54:20Z</time>
      </trkpt>
      <trkpt lat="45.82608" lon="4.46429">
        <ele>614.4</ele>
        <time>2025-09-10T09:54:21Z</time>
      </trkpt>
      <trkpt lat="45.82609" lon="4.4643">
        <ele>614.8</ele>
        <time>2025-09-10T09:54:22Z</time>
      </trkpt>
      <trkpt lat="45.82609" lon="4.46431">
        <ele>614.8</ele>
        <time>2025-09-10T09:54:23Z</time>
      </trkpt>
      <trkpt lat="45.8261" lon="4.46432">
        <ele>615</ele>
        <time>2025-09-10T09:54:24Z</time>
      </trkpt>
      <trkpt lat="45.8261" lon="4.46434">
        <ele>615</ele>
        <time>2025-09-10T09:54:25Z</time>
      </trkpt>
      <trkpt lat="45.8261" lon="4.46435">
        <ele>615.4</ele>
        <time>2025-09-10T09:54:26Z</time>
      </trkpt>
      <trkpt lat="45.82611" lon="4.46437">
        <ele>615.4</ele>
        <time>2025-09-10T09:54:27Z</time>
      </trkpt>
      <trkpt lat="45.82612" lon="4.46438">
        <ele>615.6</ele>
        <time>2025-09-10T09:54:28Z</time>
      </trkpt>
      <trkpt lat="45.82612" lon="4.4644">
        <ele>616</ele>
        <time>2025-09-10T09:54:29Z</time>
      </trkpt>
      <trkpt lat="45.82613" lon="4.4644">
        <ele>616.4</ele>
        <time>2025-09-10T09:54:30Z</time>
      </trkpt>
      <trkpt lat="45.82613" lon="4.4644">
        <ele>616.4</ele>
        <time>2025-09-10T09:54:31Z</time>
      </trkpt>
      <trkpt lat="45.82613" lon="4.46441">
        <ele>616.6</ele>
        <time>2025-09-10T09:54:38Z</time>
      </trkpt>
      <trkpt lat="45.82613" lon="4.46443">
        <ele>616.6</ele>
        <time>2025-09-10T09:54:39Z</time>
      </trkpt>
      <trkpt lat="45.82614" lon="4.46444">
        <ele>616.6</ele>
        <time>2025-09-10T09:54:40Z</time>
      </trkpt>
      <trkpt lat="45.82614" lon="4.46444">
        <ele>617</ele>
        <time>2025-09-10T09:54:41Z</time>
      </trkpt>
      <trkpt lat="45.82614" lon="4.46445">
        <ele>617</ele>
        <time>2025-09-10T09:54:42Z</time>
      </trkpt>
      <trkpt lat="45.82615" lon="4.46446">
        <ele>617</ele>
        <time>2025-09-10T09:54:43Z</time>
      </trkpt>
      <trkpt lat="45.82615" lon="4.46446">
        <ele>617.2</ele>
        <time>2025-09-10T09:54:44Z</time>
      </trkpt>
      <trkpt lat="45.82616" lon="4.46447">
        <ele>617.4</ele>
        <time>2025-09-10T09:54:45Z</time>
      </trkpt>
      <trkpt lat="45.82616" lon="4.46448">
        <ele>617.4</ele>
        <time>2025-09-10T09:54:46Z</time>
      </trkpt>
      <trkpt lat="45.82616" lon="4.46449">
        <ele>617.6</ele>
        <time>2025-09-10T09:54:47Z</time>
      </trkpt>
      <trkpt lat="45.82617" lon="4.4645">
        <ele>617.6</ele>
        <time>2025-09-10T09:54:48Z</time>
      </trkpt>
      <trkpt lat="45.82617" lon="4.46451">
        <ele>618</ele>
        <time>2025-09-10T09:54:49Z</time>
      </trkpt>
      <trkpt lat="45.82617" lon="4.46452">
        <ele>618</ele>
        <time>2025-09-10T09:54:50Z</time>
      </trkpt>
      <trkpt lat="45.82617" lon="4.46453">
        <ele>618.2</ele>
        <time>2025-09-10T09:54:51Z</time>
      </trkpt>
      <trkpt lat="45.82617" lon="4.46454">
        <ele>618.4</ele>
        <time>2025-09-10T09:54:52Z</time>
      </trkpt>
      <trkpt lat="45.82617" lon="4.46455">
        <ele>618.4</ele>
        <time>2025-09-10T09:54:53Z</time>
      </trkpt>
      <trkpt lat="45.82617" lon="4.46456">
        <ele>618.6</ele>
        <time>2025-09-10T09:54:54Z</time>
      </trkpt>
      <trkpt lat="45.82617" lon="4.46458">
        <ele>618.6</ele>
        <time>2025-09-10T09:54:55Z</time>
      </trkpt>
      <trkpt lat="45.82617" lon="4.46459">
        <ele>618.6</ele>
        <time>2025-09-10T09:54:56Z</time>
      </trkpt>
      <trkpt lat="45.82618" lon="4.4646">
        <ele>618.6</ele>
        <time>2025-09-10T09:54:57Z</time>
      </trkpt>
      <trkpt lat="45.82618" lon="4.46461">
        <ele>619</ele>
        <time>2025-09-10T09:54:58Z</time>
      </trkpt>
      <trkpt lat="45.82618" lon="4.46461">
        <ele>619</ele>
        <time>2025-09-10T09:54:59Z</time>
      </trkpt>
      <trkpt lat="45.82618" lon="4.46462">
        <ele>619</ele>
        <time>2025-09-10T09:55:00Z</time>
      </trkpt>
      <trkpt lat="45.82619" lon="4.46464">
        <ele>619.4</ele>
        <time>2025-09-10T09:55:10Z</time>
      </trkpt>
      <trkpt lat="45.82619" lon="4.46466">
        <ele>619.4</ele>
        <time>2025-09-10T09:55:11Z</time>
      </trkpt>
      <trkpt lat="45.8262" lon="4.46469">
        <ele>619.4</ele>
        <time>2025-09-10T09:55:12Z</time>
      </trkpt>
      <trkpt lat="45.8262" lon="4.46471">
        <ele>619.4</ele>
        <time>2025-09-10T09:55:13Z</time>
      </trkpt>
      <trkpt lat="45.82621" lon="4.46473">
        <ele>619.4</ele>
        <time>2025-09-10T09:55:14Z</time>
      </trkpt>
      <trkpt lat="45.82621" lon="4.46475">
        <ele>619.8</ele>
        <time>2025-09-10T09:55:15Z</time>
      </trkpt>
      <trkpt lat="45.82622" lon="4.46478">
        <ele>619.8</ele>
        <time>2025-09-10T09:55:16Z</time>
      </trkpt>
      <trkpt lat="45.82622" lon="4.4648">
        <ele>619.8</ele>
        <time>2025-09-10T09:55:17Z</time>
      </trkpt>
      <trkpt lat="45.82623" lon="4.46483">
        <ele>619.8</ele>
        <time>2025-09-10T09:55:18Z</time>
      </trkpt>
      <trkpt lat="45.82624" lon="4.46485">
        <ele>619.8</ele>
        <time>2025-09-10T09:55:19Z</time>
      </trkpt>
      <trkpt lat="45.82625" lon="4.46487">
        <ele>619.8</ele>
        <time>2025-09-10T09:55:20Z</time>
      </trkpt>
      <trkpt lat="45.82625" lon="4.46488">
        <ele>620</ele>
        <time>2025-09-10T09:55:21Z</time>
      </trkpt>
      <trkpt lat="45.82627" lon="4.4649">
        <ele>620</ele>
        <time>2025-09-10T09:55:22Z</time>
      </trkpt>
      <trkpt lat="45.82628" lon="4.46492">
        <ele>620</ele>
        <time>2025-09-10T09:55:23Z</time>
      </trkpt>
      <trkpt lat="45.82629" lon="4.46494">
        <ele>620.4</ele>
        <time>2025-09-10T09:55:24Z</time>
      </trkpt>
      <trkpt lat="45.8263" lon="4.46496">
        <ele>620.4</ele>
        <time>2025-09-10T09:55:25Z</time>
      </trkpt>
      <trkpt lat="45.82631" lon="4.46498">
        <ele>620.6</ele>
        <time>2025-09-10T09:55:26Z</time>
      </trkpt>
      <trkpt lat="45.82632" lon="4.46499">
        <ele>620.6</ele>
        <time>2025-09-10T09:55:27Z</time>
      </trkpt>
      <trkpt lat="45.82632" lon="4.465">
        <ele>620.6</ele>
        <time>2025-09-10T09:55:28Z</time>
      </trkpt>
      <trkpt lat="45.82633" lon="4.46502">
        <ele>621</ele>
        <time>2025-09-10T09:55:29Z</time>
      </trkpt>
      <trkpt lat="45.82633" lon="4.46504">
        <ele>621.4</ele>
        <time>2025-09-10T09:55:30Z</time>
      </trkpt>
      <trkpt lat="45.82634" lon="4.46505">
        <ele>621.4</ele>
        <time>2025-09-10T09:55:31Z</time>
      </trkpt>
      <trkpt lat="45.82635" lon="4.46507">
        <ele>621.4</ele>
        <time>2025-09-10T09:55:32Z</time>
      </trkpt>
      <trkpt lat="45.82636" lon="4.46507">
        <ele>621.8</ele>
        <time>2025-09-10T09:55:33Z</time>
      </trkpt>
      <trkpt lat="45.82637" lon="4.46508">
        <ele>621.8</ele>
        <time>2025-09-10T09:55:34Z</time>
      </trkpt>
      <trkpt lat="45.82637" lon="4.46509">
        <ele>621.8</ele>
        <time>2025-09-10T09:55:35Z</time>
      </trkpt>
      <trkpt lat="45.82638" lon="4.46511">
        <ele>621.8</ele>
        <time>2025-09-10T09:55:36Z</time>
      </trkpt>
      <trkpt lat="45.82638" lon="4.46512">
        <ele>622</ele>
        <time>2025-09-10T09:55:37Z</time>
      </trkpt>
      <trkpt lat="45.82639" lon="4.46514">
        <ele>622</ele>
        <time>2025-09-10T09:55:38Z</time>
      </trkpt>
      <trkpt lat="45.82639" lon="4.46516">
        <ele>622.4</ele>
        <time>2025-09-10T09:55:39Z</time>
      </trkpt>
      <trkpt lat="45.82639" lon="4.46518">
        <ele>622.6</ele>
        <time>2025-09-10T09:55:40Z</time>
      </trkpt>
      <trkpt lat="45.82639" lon="4.4652">
        <ele>622.6</ele>
        <time>2025-09-10T09:55:41Z</time>
      </trkpt>
      <trkpt lat="45.82639" lon="4.46523">
        <ele>622.8</ele>
        <time>2025-09-10T09:55:42Z</time>
      </trkpt>
      <trkpt lat="45.82639" lon="4.46525">
        <ele>622.8</ele>
        <time>2025-09-10T09:55:43Z</time>
      </trkpt>
      <trkpt lat="45.8264" lon="4.46527">
        <ele>622.8</ele>
        <time>2025-09-10T09:55:44Z</time>
      </trkpt>
      <trkpt lat="45.82641" lon="4.46529">
        <ele>622.8</ele>
        <time>2025-09-10T09:55:45Z</time>
      </trkpt>
      <trkpt lat="45.82642" lon="4.4653">
        <ele>622.8</ele>
        <time>2025-09-10T09:55:46Z</time>
      </trkpt>
      <trkpt lat="45.82643" lon="4.46532">
        <ele>623.2</ele>
        <time>2025-09-10T09:55:47Z</time>
      </trkpt>
      <trkpt lat="45.82644" lon="4.46533">
        <ele>623.2</ele>
        <time>2025-09-10T09:55:48Z</time>
      </trkpt>
      <trkpt lat="45.82644" lon="4.46535">
        <ele>623.6</ele>
        <time>2025-09-10T09:55:49Z</time>
      </trkpt>
      <trkpt lat="45.82645" lon="4.46536">
        <ele>623.2</ele>
        <time>2025-09-10T09:55:50Z</time>
      </trkpt>
      <trkpt lat="45.82646" lon="4.46538">
        <ele>623.2</ele>
        <time>2025-09-10T09:55:51Z</time>
      </trkpt>
      <trkpt lat="45.82647" lon="4.4654">
        <ele>623.6</ele>
        <time>2025-09-10T09:55:52Z</time>
      </trkpt>
      <trkpt lat="45.82647" lon="4.46541">
        <ele>623.8</ele>
        <time>2025-09-10T09:55:53Z</time>
      </trkpt>
      <trkpt lat="45.82648" lon="4.46543">
        <ele>623.8</ele>
        <time>2025-09-10T09:55:54Z</time>
      </trkpt>
      <trkpt lat="45.82648" lon="4.46545">
        <ele>623.8</ele>
        <time>2025-09-10T09:55:55Z</time>
      </trkpt>
      <trkpt lat="45.82649" lon="4.46546">
        <ele>624.2</ele>
        <time>2025-09-10T09:55:56Z</time>
      </trkpt>
      <trkpt lat="45.8265" lon="4.46548">
        <ele>624.2</ele>
        <time>2025-09-10T09:55:57Z</time>
      </trkpt>
      <trkpt lat="45.82651" lon="4.46549">
        <ele>624.8</ele>
        <time>2025-09-10T09:55:58Z</time>
      </trkpt>
      <trkpt lat="45.82652" lon="4.46549">
        <ele>624.8</ele>
        <time>2025-09-10T09:55:59Z</time>
      </trkpt>
      <trkpt lat="45.82653" lon="4.4655">
        <ele>625</ele>
        <time>2025-09-10T09:56:00Z</time>
      </trkpt>
      <trkpt lat="45.82654" lon="4.46551">
        <ele>625</ele>
        <time>2025-09-10T09:56:01Z</time>
      </trkpt>
      <trkpt lat="45.82655" lon="4.46552">
        <ele>625</ele>
        <time>2025-09-10T09:56:02Z</time>
      </trkpt>
      <trkpt lat="45.82656" lon="4.46553">
        <ele>625.2</ele>
        <time>2025-09-10T09:56:03Z</time>
      </trkpt>
      <trkpt lat="45.82657" lon="4.46554">
        <ele>625.2</ele>
        <time>2025-09-10T09:56:04Z</time>
      </trkpt>
      <trkpt lat="45.82658" lon="4.46555">
        <ele>625.2</ele>
        <time>2025-09-10T09:56:05Z</time>
      </trkpt>
      <trkpt lat="45.82659" lon="4.46556">
        <ele>625.6</ele>
        <time>2025-09-10T09:56:06Z</time>
      </trkpt>
      <trkpt lat="45.8266" lon="4.46556">
        <ele>625.6</ele>
        <time>2025-09-10T09:56:07Z</time>
      </trkpt>
      <trkpt lat="45.82662" lon="4.46557">
        <ele>625.8</ele>
        <time>2025-09-10T09:56:08Z</time>
      </trkpt>
      <trkpt lat="45.82663" lon="4.46558">
        <ele>626</ele>
        <time>2025-09-10T09:56:09Z</time>
      </trkpt>
      <trkpt lat="45.82664" lon="4.46559">
        <ele>626</ele>
        <time>2025-09-10T09:56:10Z</time>
      </trkpt>
      <trkpt lat="45.82665" lon="4.46559">
        <ele>626</ele>
        <time>2025-09-10T09:56:11Z</time>
      </trkpt>
      <trkpt lat="45.82666" lon="4.4656">
        <ele>626</ele>
        <time>2025-09-10T09:56:12Z</time>
      </trkpt>
      <trkpt lat="45.82666" lon="4.4656">
        <ele>626</ele>
        <time>2025-09-10T09:56:13Z</time>
      </trkpt>
      <trkpt lat="45.82665" lon="4.46562">
        <ele>626.2</ele>
        <time>2025-09-10T09:56:55Z</time>
      </trkpt>
      <trkpt lat="45.82666" lon="4.46563">
        <ele>626.2</ele>
        <time>2025-09-10T09:56:56Z</time>
      </trkpt>
      <trkpt lat="45.82667" lon="4.46565">
        <ele>626.2</ele>
        <time>2025-09-10T09:56:57Z</time>
      </trkpt>
      <trkpt lat="45.82668" lon="4.46566">
        <ele>626.2</ele>
        <time>2025-09-10T09:56:58Z</time>
      </trkpt>
      <trkpt lat="45.82669" lon="4.46568">
        <ele>625.8</ele>
        <time>2025-09-10T09:56:59Z</time>
      </trkpt>
      <trkpt lat="45.8267" lon="4.46569">
        <ele>625.8</ele>
        <time>2025-09-10T09:57:00Z</time>
      </trkpt>
      <trkpt lat="45.82672" lon="4.46571">
        <ele>625.8</ele>
        <time>2025-09-10T09:57:01Z</time>
      </trkpt>
      <trkpt lat="45.82673" lon="4.46573">
        <ele>625.8</ele>
        <time>2025-09-10T09:57:02Z</time>
      </trkpt>
      <trkpt lat="45.82675" lon="4.46575">
        <ele>626.2</ele>
        <time>2025-09-10T09:57:03Z</time>
      </trkpt>
      <trkpt lat="45.82676" lon="4.46576">
        <ele>626.2</ele>
        <time>2025-09-10T09:57:04Z</time>
      </trkpt>
      <trkpt lat="45.82677" lon="4.46578">
        <ele>626.2</ele>
        <time>2025-09-10T09:57:05Z</time>
      </trkpt>
      <trkpt lat="45.82677" lon="4.46579">
        <ele>626.6</ele>
        <time>2025-09-10T09:57:06Z</time>
      </trkpt>
      <trkpt lat="45.82678" lon="4.46581">
        <ele>626.8</ele>
        <time>2025-09-10T09:57:07Z</time>
      </trkpt>
      <trkpt lat="45.8268" lon="4.46583">
        <ele>626.8</ele>
        <time>2025-09-10T09:57:08Z</time>
      </trkpt>
      <trkpt lat="45.82681" lon="4.46585">
        <ele>627</ele>
        <time>2025-09-10T09:57:09Z</time>
      </trkpt>
      <trkpt lat="45.82682" lon="4.46586">
        <ele>627</ele>
        <time>2025-09-10T09:57:10Z</time>
      </trkpt>
      <trkpt lat="45.82683" lon="4.46587">
        <ele>627</ele>
        <time>2025-09-10T09:57:11Z</time>
      </trkpt>
      <trkpt lat="45.82684" lon="4.46589">
        <ele>627.4</ele>
        <time>2025-09-10T09:57:12Z</time>
      </trkpt>
      <trkpt lat="45.82686" lon="4.4659">
        <ele>627.4</ele>
        <time>2025-09-10T09:57:13Z</time>
      </trkpt>
      <trkpt lat="45.82687" lon="4.46592">
        <ele>627.4</ele>
        <time>2025-09-10T09:57:14Z</time>
      </trkpt>
      <trkpt lat="45.82688" lon="4.46594">
        <ele>627.8</ele>
        <time>2025-09-10T09:57:15Z</time>
      </trkpt>
      <trkpt lat="45.8269" lon="4.46595">
        <ele>628</ele>
        <time>2025-09-10T09:57:16Z</time>
      </trkpt>
      <trkpt lat="45.82692" lon="4.46595">
        <ele>628</ele>
        <time>2025-09-10T09:57:17Z</time>
      </trkpt>
      <trkpt lat="45.82693" lon="4.46597">
        <ele>628.4</ele>
        <time>2025-09-10T09:57:18Z</time>
      </trkpt>
      <trkpt lat="45.82695" lon="4.46598">
        <ele>628.4</ele>
        <time>2025-09-10T09:57:19Z</time>
      </trkpt>
      <trkpt lat="45.82696" lon="4.46599">
        <ele>628.4</ele>
        <time>2025-09-10T09:57:20Z</time>
      </trkpt>
      <trkpt lat="45.82697" lon="4.46601">
        <ele>628.8</ele>
        <time>2025-09-10T09:57:21Z</time>
      </trkpt>
      <trkpt lat="45.82698" lon="4.46602">
        <ele>629</ele>
        <time>2025-09-10T09:57:22Z</time>
      </trkpt>
      <trkpt lat="45.82699" lon="4.46603">
        <ele>629</ele>
        <time>2025-09-10T09:57:23Z</time>
      </trkpt>
      <trkpt lat="45.827" lon="4.46605">
        <ele>629.2</ele>
        <time>2025-09-10T09:57:24Z</time>
      </trkpt>
      <trkpt lat="45.82701" lon="4.46605">
        <ele>629.4</ele>
        <time>2025-09-10T09:57:25Z</time>
      </trkpt>
      <trkpt lat="45.82702" lon="4.46607">
        <ele>629.4</ele>
        <time>2025-09-10T09:57:26Z</time>
      </trkpt>
      <trkpt lat="45.82703" lon="4.46608">
        <ele>629.8</ele>
        <time>2025-09-10T09:57:27Z</time>
      </trkpt>
      <trkpt lat="45.82704" lon="4.4661">
        <ele>630</ele>
        <time>2025-09-10T09:57:28Z</time>
      </trkpt>
      <trkpt lat="45.82705" lon="4.46611">
        <ele>630.4</ele>
        <time>2025-09-10T09:57:29Z</time>
      </trkpt>
      <trkpt lat="45.82707" lon="4.46613">
        <ele>630.4</ele>
        <time>2025-09-10T09:57:30Z</time>
      </trkpt>
      <trkpt lat="45.82709" lon="4.46615">
        <ele>630.6</ele>
        <time>2025-09-10T09:57:31Z</time>
      </trkpt>
      <trkpt lat="45.82712" lon="4.46618">
        <ele>630.8</ele>
        <time>2025-09-10T09:57:32Z</time>
      </trkpt>
      <trkpt lat="45.82714" lon="4.46619">
        <ele>631.2</ele>
        <time>2025-09-10T09:57:33Z</time>
      </trkpt>
      <trkpt lat="45.82716" lon="4.46621">
        <ele>631.2</ele>
        <time>2025-09-10T09:57:34Z</time>
      </trkpt>
      <trkpt lat="45.82717" lon="4.46622">
        <ele>631.6</ele>
        <time>2025-09-10T09:57:35Z</time>
      </trkpt>
      <trkpt lat="45.82718" lon="4.46623">
        <ele>631.8</ele>
        <time>2025-09-10T09:57:36Z</time>
      </trkpt>
      <trkpt lat="45.82718" lon="4.46625">
        <ele>631.8</ele>
        <time>2025-09-10T09:57:37Z</time>
      </trkpt>
      <trkpt lat="45.82719" lon="4.46627">
        <ele>632.4</ele>
        <time>2025-09-10T09:57:38Z</time>
      </trkpt>
      <trkpt lat="45.82719" lon="4.46628">
        <ele>632.4</ele>
        <time>2025-09-10T09:57:39Z</time>
      </trkpt>
      <trkpt lat="45.82719" lon="4.46628">
        <ele>632.8</ele>
        <time>2025-09-10T09:57:40Z</time>
      </trkpt>
      <trkpt lat="45.82719" lon="4.46629">
        <ele>633</ele>
        <time>2025-09-10T09:57:41Z</time>
      </trkpt>
      <trkpt lat="45.8272" lon="4.46631">
        <ele>633</ele>
        <time>2025-09-10T09:57:42Z</time>
      </trkpt>
      <trkpt lat="45.82722" lon="4.46632">
        <ele>633.4</ele>
        <time>2025-09-10T09:57:43Z</time>
      </trkpt>
      <trkpt lat="45.82723" lon="4.46634">
        <ele>633.6</ele>
        <time>2025-09-10T09:57:44Z</time>
      </trkpt>
      <trkpt lat="45.82723" lon="4.46635">
        <ele>634</ele>
        <time>2025-09-10T09:57:45Z</time>
      </trkpt>
      <trkpt lat="45.82723" lon="4.46636">
        <ele>634.2</ele>
        <time>2025-09-10T09:57:46Z</time>
      </trkpt>
      <trkpt lat="45.82723" lon="4.46636">
        <ele>634.2</ele>
        <time>2025-09-10T09:57:47Z</time>
      </trkpt>
      <trkpt lat="45.82723" lon="4.46638">
        <ele>634.6</ele>
        <time>2025-09-10T09:57:48Z</time>
      </trkpt>
      <trkpt lat="45.82723" lon="4.4664">
        <ele>634.6</ele>
        <time>2025-09-10T09:57:49Z</time>
      </trkpt>
      <trkpt lat="45.82724" lon="4.46641">
        <ele>634.8</ele>
        <time>2025-09-10T09:57:50Z</time>
      </trkpt>
      <trkpt lat="45.82725" lon="4.46643">
        <ele>634.8</ele>
        <time>2025-09-10T09:57:51Z</time>
      </trkpt>
      <trkpt lat="45.82726" lon="4.46644">
        <ele>635.2</ele>
        <time>2025-09-10T09:57:52Z</time>
      </trkpt>
      <trkpt lat="45.82727" lon="4.46645">
        <ele>635.2</ele>
        <time>2025-09-10T09:57:53Z</time>
      </trkpt>
      <trkpt lat="45.82728" lon="4.46647">
        <ele>635.4</ele>
        <time>2025-09-10T09:57:54Z</time>
      </trkpt>
      <trkpt lat="45.82729" lon="4.46648">
        <ele>635.4</ele>
        <time>2025-09-10T09:57:55Z</time>
      </trkpt>
      <trkpt lat="45.82729" lon="4.46649">
        <ele>635.4</ele>
        <time>2025-09-10T09:57:56Z</time>
      </trkpt>
      <trkpt lat="45.8273" lon="4.4665">
        <ele>635.4</ele>
        <time>2025-09-10T09:57:57Z</time>
      </trkpt>
      <trkpt lat="45.82731" lon="4.46652">
        <ele>635.6</ele>
        <time>2025-09-10T09:58:06Z</time>
      </trkpt>
      <trkpt lat="45.82732" lon="4.46653">
        <ele>635.6</ele>
        <time>2025-09-10T09:58:07Z</time>
      </trkpt>
      <trkpt lat="45.82733" lon="4.46654">
        <ele>635.6</ele>
        <time>2025-09-10T09:58:08Z</time>
      </trkpt>
      <trkpt lat="45.82733" lon="4.46655">
        <ele>635.6</ele>
        <time>2025-09-10T09:58:09Z</time>
      </trkpt>
      <trkpt lat="45.82734" lon="4.46656">
        <ele>635.6</ele>
        <time>2025-09-10T09:58:10Z</time>
      </trkpt>
      <trkpt lat="45.82735" lon="4.46657">
        <ele>635.6</ele>
        <time>2025-09-10T09:58:11Z</time>
      </trkpt>
      <trkpt lat="45.82736" lon="4.46658">
        <ele>636</ele>
        <time>2025-09-10T09:58:12Z</time>
      </trkpt>
      <trkpt lat="45.82737" lon="4.46659">
        <ele>636</ele>
        <time>2025-09-10T09:58:13Z</time>
      </trkpt>
      <trkpt lat="45.82737" lon="4.46659">
        <ele>636</ele>
        <time>2025-09-10T09:58:14Z</time>
      </trkpt>
      <trkpt lat="45.82738" lon="4.4666">
        <ele>636</ele>
        <time>2025-09-10T09:58:15Z</time>
      </trkpt>
      <trkpt lat="45.82739" lon="4.4666">
        <ele>636</ele>
        <time>2025-09-10T09:58:16Z</time>
      </trkpt>
      <trkpt lat="45.8274" lon="4.46661">
        <ele>636.4</ele>
        <time>2025-09-10T09:58:17Z</time>
      </trkpt>
      <trkpt lat="45.82741" lon="4.46661">
        <ele>636.4</ele>
        <time>2025-09-10T09:58:18Z</time>
      </trkpt>
      <trkpt lat="45.82742" lon="4.46662">
        <ele>636.4</ele>
        <time>2025-09-10T09:58:19Z</time>
      </trkpt>
      <trkpt lat="45.82742" lon="4.46663">
        <ele>636.4</ele>
        <time>2025-09-10T09:58:20Z</time>
      </trkpt>
      <trkpt lat="45.82743" lon="4.46664">
        <ele>636.6</ele>
        <time>2025-09-10T09:58:21Z</time>
      </trkpt>
      <trkpt lat="45.82743" lon="4.46665">
        <ele>636.6</ele>
        <time>2025-09-10T09:58:22Z</time>
      </trkpt>
      <trkpt lat="45.82744" lon="4.46666">
        <ele>636.8</ele>
        <time>2025-09-10T09:58:23Z</time>
      </trkpt>
      <trkpt lat="45.82745" lon="4.46667">
        <ele>636.8</ele>
        <time>2025-09-10T09:58:24Z</time>
      </trkpt>
      <trkpt lat="45.82746" lon="4.46668">
        <ele>637</ele>
        <time>2025-09-10T09:58:25Z</time>
      </trkpt>
      <trkpt lat="45.82746" lon="4.46668">
        <ele>637</ele>
        <time>2025-09-10T09:58:26Z</time>
      </trkpt>
      <trkpt lat="45.82747" lon="4.46669">
        <ele>637.4</ele>
        <time>2025-09-10T09:58:27Z</time>
      </trkpt>
      <trkpt lat="45.82748" lon="4.4667">
        <ele>637.4</ele>
        <time>2025-09-10T09:58:28Z</time>
      </trkpt>
      <trkpt lat="45.82748" lon="4.4667">
        <ele>637.6</ele>
        <time>2025-09-10T09:58:29Z</time>
      </trkpt>
      <trkpt lat="45.82749" lon="4.46671">
        <ele>637.8</ele>
        <time>2025-09-10T09:58:30Z</time>
      </trkpt>
      <trkpt lat="45.8275" lon="4.46672">
        <ele>637.8</ele>
        <time>2025-09-10T09:58:31Z</time>
      </trkpt>
      <trkpt lat="45.82751" lon="4.46672">
        <ele>638</ele>
        <time>2025-09-10T09:58:32Z</time>
      </trkpt>
      <trkpt lat="45.82752" lon="4.46673">
        <ele>638</ele>
        <time>2025-09-10T09:58:33Z</time>
      </trkpt>
      <trkpt lat="45.82752" lon="4.46673">
        <ele>638.2</ele>
        <time>2025-09-10T09:58:34Z</time>
      </trkpt>
      <trkpt lat="45.82753" lon="4.46674">
        <ele>638.2</ele>
        <time>2025-09-10T09:58:35Z</time>
      </trkpt>
      <trkpt lat="45.82754" lon="4.46674">
        <ele>638.2</ele>
        <time>2025-09-10T09:58:36Z</time>
      </trkpt>
      <trkpt lat="45.82754" lon="4.46675">
        <ele>638.6</ele>
        <time>2025-09-10T09:58:37Z</time>
      </trkpt>
      <trkpt lat="45.82755" lon="4.46675">
        <ele>638.6</ele>
        <time>2025-09-10T09:58:38Z</time>
      </trkpt>
      <trkpt lat="45.82756" lon="4.46676">
        <ele>638.6</ele>
        <time>2025-09-10T09:58:39Z</time>
      </trkpt>
      <trkpt lat="45.82757" lon="4.46676">
        <ele>638.6</ele>
        <time>2025-09-10T09:58:40Z</time>
      </trkpt>
      <trkpt lat="45.82757" lon="4.46676">
        <ele>639</ele>
        <time>2025-09-10T09:58:41Z</time>
      </trkpt>
      <trkpt lat="45.82758" lon="4.46676">
        <ele>639</ele>
        <time>2025-09-10T09:58:42Z</time>
      </trkpt>
      <trkpt lat="45.82759" lon="4.46677">
        <ele>639.2</ele>
        <time>2025-09-10T09:58:43Z</time>
      </trkpt>
      <trkpt lat="45.8276" lon="4.46677">
        <ele>639.2</ele>
        <time>2025-09-10T09:58:44Z</time>
      </trkpt>
      <trkpt lat="45.82761" lon="4.46678">
        <ele>639.6</ele>
        <time>2025-09-10T09:58:45Z</time>
      </trkpt>
      <trkpt lat="45.82762" lon="4.46678">
        <ele>639.6</ele>
        <time>2025-09-10T09:58:46Z</time>
      </trkpt>
      <trkpt lat="45.82763" lon="4.46678">
        <ele>639.8</ele>
        <time>2025-09-10T09:58:47Z</time>
      </trkpt>
      <trkpt lat="45.82764" lon="4.46679">
        <ele>639.8</ele>
        <time>2025-09-10T09:58:48Z</time>
      </trkpt>
      <trkpt lat="45.82764" lon="4.46678">
        <ele>640</ele>
        <time>2025-09-10T09:58:49Z</time>
      </trkpt>
      <trkpt lat="45.82765" lon="4.46678">
        <ele>640</ele>
        <time>2025-09-10T09:58:50Z</time>
      </trkpt>
      <trkpt lat="45.82766" lon="4.46678">
        <ele>640</ele>
        <time>2025-09-10T09:58:51Z</time>
      </trkpt>
      <trkpt lat="45.82767" lon="4.46679">
        <ele>640.4</ele>
        <time>2025-09-10T09:58:52Z</time>
      </trkpt>
      <trkpt lat="45.82768" lon="4.4668">
        <ele>640.4</ele>
        <time>2025-09-10T09:58:53Z</time>
      </trkpt>
      <trkpt lat="45.82768" lon="4.46681">
        <ele>640.6</ele>
        <time>2025-09-10T09:58:54Z</time>
      </trkpt>
      <trkpt lat="45.82768" lon="4.46681">
        <ele>640.6</ele>
        <time>2025-09-10T09:58:55Z</time>
      </trkpt>
      <trkpt lat="45.82769" lon="4.46682">
        <ele>641</ele>
        <time>2025-09-10T09:58:56Z</time>
      </trkpt>
      <trkpt lat="45.8277" lon="4.46682">
        <ele>641</ele>
        <time>2025-09-10T09:58:57Z</time>
      </trkpt>
      <trkpt lat="45.82771" lon="4.46683">
        <ele>641.4</ele>
        <time>2025-09-10T09:58:58Z</time>
      </trkpt>
      <trkpt lat="45.82772" lon="4.46683">
        <ele>641.6</ele>
        <time>2025-09-10T09:58:59Z</time>
      </trkpt>
      <trkpt lat="45.82772" lon="4.46683">
        <ele>641.6</ele>
        <time>2025-09-10T09:59:00Z</time>
      </trkpt>
      <trkpt lat="45.82772" lon="4.46683">
        <ele>641.6</ele>
        <time>2025-09-10T09:59:01Z</time>
      </trkpt>
      <trkpt lat="45.82773" lon="4.46683">
        <ele>641.6</ele>
        <time>2025-09-10T09:59:02Z</time>
      </trkpt>
      <trkpt lat="45.82774" lon="4.46684">
        <ele>642</ele>
        <time>2025-09-10T09:59:03Z</time>
      </trkpt>
      <trkpt lat="45.82775" lon="4.46684">
        <ele>642.2</ele>
        <time>2025-09-10T09:59:04Z</time>
      </trkpt>
      <trkpt lat="45.82775" lon="4.46685">
        <ele>642.2</ele>
        <time>2025-09-10T09:59:05Z</time>
      </trkpt>
      <trkpt lat="45.82776" lon="4.46685">
        <ele>642.6</ele>
        <time>2025-09-10T09:59:06Z</time>
      </trkpt>
      <trkpt lat="45.82777" lon="4.46686">
        <ele>642.6</ele>
        <time>2025-09-10T09:59:07Z</time>
      </trkpt>
      <trkpt lat="45.82777" lon="4.46686">
        <ele>642.8</ele>
        <time>2025-09-10T09:59:08Z</time>
      </trkpt>
      <trkpt lat="45.82778" lon="4.46686">
        <ele>642.8</ele>
        <time>2025-09-10T09:59:09Z</time>
      </trkpt>
      <trkpt lat="45.82779" lon="4.46686">
        <ele>642.8</ele>
        <time>2025-09-10T09:59:10Z</time>
      </trkpt>
      <trkpt lat="45.8278" lon="4.46686">
        <ele>643.2</ele>
        <time>2025-09-10T09:59:11Z</time>
      </trkpt>
      <trkpt lat="45.82781" lon="4.46687">
        <ele>643.2</ele>
        <time>2025-09-10T09:59:12Z</time>
      </trkpt>
      <trkpt lat="45.82782" lon="4.46687">
        <ele>643.4</ele>
        <time>2025-09-10T09:59:13Z</time>
      </trkpt>
      <trkpt lat="45.82783" lon="4.46687">
        <ele>643.4</ele>
        <time>2025-09-10T09:59:14Z</time>
      </trkpt>
      <trkpt lat="45.82783" lon="4.46687">
        <ele>643.8</ele>
        <time>2025-09-10T09:59:15Z</time>
      </trkpt>
      <trkpt lat="45.82784" lon="4.46688">
        <ele>643.8</ele>
        <time>2025-09-10T09:59:16Z</time>
      </trkpt>
      <trkpt lat="45.82785" lon="4.46688">
        <ele>643.8</ele>
        <time>2025-09-10T09:59:17Z</time>
      </trkpt>
      <trkpt lat="45.82786" lon="4.46688">
        <ele>644</ele>
        <time>2025-09-10T09:59:18Z</time>
      </trkpt>
      <trkpt lat="45.82787" lon="4.46688">
        <ele>644</ele>
        <time>2025-09-10T09:59:19Z</time>
      </trkpt>
      <trkpt lat="45.82787" lon="4.46688">
        <ele>644</ele>
        <time>2025-09-10T09:59:20Z</time>
      </trkpt>
      <trkpt lat="45.82788" lon="4.46688">
        <ele>644</ele>
        <time>2025-09-10T09:59:21Z</time>
      </trkpt>
      <trkpt lat="45.82789" lon="4.46689">
        <ele>644.4</ele>
        <time>2025-09-10T09:59:22Z</time>
      </trkpt>
      <trkpt lat="45.8279" lon="4.46689">
        <ele>644.4</ele>
        <time>2025-09-10T09:59:23Z</time>
      </trkpt>
      <trkpt lat="45.8279" lon="4.46689">
        <ele>644.6</ele>
        <time>2025-09-10T09:59:24Z</time>
      </trkpt>
      <trkpt lat="45.82791" lon="4.4669">
        <ele>644.8</ele>
        <time>2025-09-10T09:59:25Z</time>
      </trkpt>
      <trkpt lat="45.82791" lon="4.4669">
        <ele>645</ele>
        <time>2025-09-10T09:59:26Z</time>
      </trkpt>
      <trkpt lat="45.82792" lon="4.4669">
        <ele>645</ele>
        <time>2025-09-10T09:59:27Z</time>
      </trkpt>
      <trkpt lat="45.82793" lon="4.4669">
        <ele>645</ele>
        <time>2025-09-10T09:59:28Z</time>
      </trkpt>
      <trkpt lat="45.82794" lon="4.4669">
        <ele>645</ele>
        <time>2025-09-10T09:59:29Z</time>
      </trkpt>
      <trkpt lat="45.82794" lon="4.4669">
        <ele>645.4</ele>
        <time>2025-09-10T09:59:30Z</time>
      </trkpt>
      <trkpt lat="45.82795" lon="4.4669">
        <ele>645.4</ele>
        <time>2025-09-10T09:59:31Z</time>
      </trkpt>
      <trkpt lat="45.82796" lon="4.46691">
        <ele>645.6</ele>
        <time>2025-09-10T09:59:32Z</time>
      </trkpt>
      <trkpt lat="45.82797" lon="4.46691">
        <ele>645.6</ele>
        <time>2025-09-10T09:59:33Z</time>
      </trkpt>
      <trkpt lat="45.82798" lon="4.46691">
        <ele>645.6</ele>
        <time>2025-09-10T09:59:34Z</time>
      </trkpt>
      <trkpt lat="45.82798" lon="4.46692">
        <ele>645.6</ele>
        <time>2025-09-10T09:59:35Z</time>
      </trkpt>
      <trkpt lat="45.82799" lon="4.46692">
        <ele>645.6</ele>
        <time>2025-09-10T09:59:36Z</time>
      </trkpt>
      <trkpt lat="45.828" lon="4.46692">
        <ele>646</ele>
        <time>2025-09-10T09:59:37Z</time>
      </trkpt>
      <trkpt lat="45.82801" lon="4.46693">
        <ele>646</ele>
        <time>2025-09-10T09:59:38Z</time>
      </trkpt>
      <trkpt lat="45.82802" lon="4.46693">
        <ele>646.4</ele>
        <time>2025-09-10T09:59:39Z</time>
      </trkpt>
      <trkpt lat="45.82802" lon="4.46694">
        <ele>646.6</ele>
        <time>2025-09-10T09:59:40Z</time>
      </trkpt>
      <trkpt lat="45.82803" lon="4.46694">
        <ele>646.6</ele>
        <time>2025-09-10T09:59:41Z</time>
      </trkpt>
      <trkpt lat="45.82804" lon="4.46695">
        <ele>646.6</ele>
        <time>2025-09-10T09:59:42Z</time>
      </trkpt>
      <trkpt lat="45.82805" lon="4.46695">
        <ele>646.6</ele>
        <time>2025-09-10T09:59:43Z</time>
      </trkpt>
      <trkpt lat="45.82805" lon="4.46696">
        <ele>646.6</ele>
        <time>2025-09-10T09:59:44Z</time>
      </trkpt>
      <trkpt lat="45.82806" lon="4.46696">
        <ele>647</ele>
        <time>2025-09-10T09:59:45Z</time>
      </trkpt>
      <trkpt lat="45.82806" lon="4.46697">
        <ele>647</ele>
        <time>2025-09-10T09:59:46Z</time>
      </trkpt>
      <trkpt lat="45.82807" lon="4.46697">
        <ele>647.4</ele>
        <time>2025-09-10T09:59:47Z</time>
      </trkpt>
      <trkpt lat="45.82807" lon="4.46699">
        <ele>647.4</ele>
        <time>2025-09-10T09:59:48Z</time>
      </trkpt>
      <trkpt lat="45.82807" lon="4.46699">
        <ele>647.4</ele>
        <time>2025-09-10T09:59:49Z</time>
      </trkpt>
      <trkpt lat="45.82807" lon="4.467">
        <ele>647.4</ele>
        <time>2025-09-10T09:59:50Z</time>
      </trkpt>
      <trkpt lat="45.82808" lon="4.467">
        <ele>647.6</ele>
        <time>2025-09-10T09:59:58Z</time>
      </trkpt>
      <trkpt lat="45.82809" lon="4.46701">
        <ele>647.6</ele>
        <time>2025-09-10T09:59:59Z</time>
      </trkpt>
      <trkpt lat="45.8281" lon="4.46702">
        <ele>647.6</ele>
        <time>2025-09-10T10:00:00Z</time>
      </trkpt>
      <trkpt lat="45.8281" lon="4.46704">
        <ele>647.6</ele>
        <time>2025-09-10T10:00:01Z</time>
      </trkpt>
      <trkpt lat="45.82811" lon="4.46705">
        <ele>647.6</ele>
        <time>2025-09-10T10:00:02Z</time>
      </trkpt>
      <trkpt lat="45.82811" lon="4.46706">
        <ele>647.8</ele>
        <time>2025-09-10T10:00:03Z</time>
      </trkpt>
      <trkpt lat="45.82812" lon="4.46707">
        <ele>647.8</ele>
        <time>2025-09-10T10:00:04Z</time>
      </trkpt>
      <trkpt lat="45.82813" lon="4.46708">
        <ele>648</ele>
        <time>2025-09-10T10:00:05Z</time>
      </trkpt>
      <trkpt lat="45.82814" lon="4.46709">
        <ele>648</ele>
        <time>2025-09-10T10:00:06Z</time>
      </trkpt>
      <trkpt lat="45.82814" lon="4.4671">
        <ele>648.4</ele>
        <time>2025-09-10T10:00:07Z</time>
      </trkpt>
      <trkpt lat="45.82814" lon="4.4671">
        <ele>648.4</ele>
        <time>2025-09-10T10:00:08Z</time>
      </trkpt>
      <trkpt lat="45.82814" lon="4.46711">
        <ele>648.4</ele>
        <time>2025-09-10T10:00:09Z</time>
      </trkpt>
      <trkpt lat="45.82814" lon="4.46711">
        <ele>648.6</ele>
        <time>2025-09-10T10:00:10Z</time>
      </trkpt>
      <trkpt lat="45.82816" lon="4.46712">
        <ele>648.6</ele>
        <time>2025-09-10T10:00:15Z</time>
      </trkpt>
      <trkpt lat="45.82817" lon="4.46714">
        <ele>648.6</ele>
        <time>2025-09-10T10:00:16Z</time>
      </trkpt>
      <trkpt lat="45.82819" lon="4.46716">
        <ele>648.6</ele>
        <time>2025-09-10T10:00:17Z</time>
      </trkpt>
      <trkpt lat="45.8282" lon="4.46718">
        <ele>648.8</ele>
        <time>2025-09-10T10:00:18Z</time>
      </trkpt>
      <trkpt lat="45.82821" lon="4.4672">
        <ele>648.8</ele>
        <time>2025-09-10T10:00:19Z</time>
      </trkpt>
      <trkpt lat="45.82822" lon="4.46722">
        <ele>649</ele>
        <time>2025-09-10T10:00:20Z</time>
      </trkpt>
      <trkpt lat="45.82824" lon="4.46723">
        <ele>648.8</ele>
        <time>2025-09-10T10:00:21Z</time>
      </trkpt>
      <trkpt lat="45.82825" lon="4.46724">
        <ele>648.8</ele>
        <time>2025-09-10T10:00:22Z</time>
      </trkpt>
      <trkpt lat="45.82826" lon="4.46726">
        <ele>648.8</ele>
        <time>2025-09-10T10:00:23Z</time>
      </trkpt>
      <trkpt lat="45.82827" lon="4.46727">
        <ele>649</ele>
        <time>2025-09-10T10:00:24Z</time>
      </trkpt>
      <trkpt lat="45.82829" lon="4.46729">
        <ele>649</ele>
        <time>2025-09-10T10:00:25Z</time>
      </trkpt>
      <trkpt lat="45.8283" lon="4.46731">
        <ele>649</ele>
        <time>2025-09-10T10:00:26Z</time>
      </trkpt>
      <trkpt lat="45.82831" lon="4.46732">
        <ele>649.4</ele>
        <time>2025-09-10T10:00:27Z</time>
      </trkpt>
      <trkpt lat="45.82832" lon="4.46734">
        <ele>649.4</ele>
        <time>2025-09-10T10:00:28Z</time>
      </trkpt>
      <trkpt lat="45.82833" lon="4.46735">
        <ele>649.6</ele>
        <time>2025-09-10T10:00:29Z</time>
      </trkpt>
      <trkpt lat="45.82834" lon="4.46737">
        <ele>650</ele>
        <time>2025-09-10T10:00:30Z</time>
      </trkpt>
      <trkpt lat="45.82835" lon="4.46738">
        <ele>650</ele>
        <time>2025-09-10T10:00:31Z</time>
      </trkpt>
      <trkpt lat="45.82837" lon="4.46739">
        <ele>650</ele>
        <time>2025-09-10T10:00:32Z</time>
      </trkpt>
      <trkpt lat="45.82839" lon="4.4674">
        <ele>650.2</ele>
        <time>2025-09-10T10:00:33Z</time>
      </trkpt>
      <trkpt lat="45.8284" lon="4.46741">
        <ele>650.2</ele>
        <time>2025-09-10T10:00:34Z</time>
      </trkpt>
      <trkpt lat="45.82841" lon="4.46742">
        <ele>650.6</ele>
        <time>2025-09-10T10:00:35Z</time>
      </trkpt>
      <trkpt lat="45.82842" lon="4.46744">
        <ele>650.8</ele>
        <time>2025-09-10T10:00:36Z</time>
      </trkpt>
      <trkpt lat="45.82843" lon="4.46745">
        <ele>650.8</ele>
        <time>2025-09-10T10:00:37Z</time>
      </trkpt>
      <trkpt lat="45.82845" lon="4.46747">
        <ele>650.8</ele>
        <time>2025-09-10T10:00:38Z</time>
      </trkpt>
      <trkpt lat="45.82845" lon="4.46748">
        <ele>651</ele>
        <time>2025-09-10T10:00:39Z</time>
      </trkpt>
      <trkpt lat="45.82846" lon="4.46749">
        <ele>651</ele>
        <time>2025-09-10T10:00:40Z</time>
      </trkpt>
      <trkpt lat="45.82847" lon="4.4675">
        <ele>651</ele>
        <time>2025-09-10T10:00:41Z</time>
      </trkpt>
      <trkpt lat="45.82847" lon="4.46752">
        <ele>651.2</ele>
        <time>2025-09-10T10:00:42Z</time>
      </trkpt>
      <trkpt lat="45.82848" lon="4.46754">
        <ele>651.2</ele>
        <time>2025-09-10T10:00:43Z</time>
      </trkpt>
      <trkpt lat="45.82849" lon="4.46756">
        <ele>651.6</ele>
        <time>2025-09-10T10:00:44Z</time>
      </trkpt>
      <trkpt lat="45.8285" lon="4.46757">
        <ele>651.8</ele>
        <time>2025-09-10T10:00:45Z</time>
      </trkpt>
      <trkpt lat="45.82851" lon="4.46759">
        <ele>651.8</ele>
        <time>2025-09-10T10:00:46Z</time>
      </trkpt>
      <trkpt lat="45.82851" lon="4.4676">
        <ele>652.2</ele>
        <time>2025-09-10T10:00:47Z</time>
      </trkpt>
      <trkpt lat="45.82852" lon="4.46762">
        <ele>652.4</ele>
        <time>2025-09-10T10:00:48Z</time>
      </trkpt>
      <trkpt lat="45.82853" lon="4.46764">
        <ele>652.4</ele>
        <time>2025-09-10T10:00:49Z</time>
      </trkpt>
      <trkpt lat="45.82854" lon="4.46766">
        <ele>652.8</ele>
        <time>2025-09-10T10:00:50Z</time>
      </trkpt>
      <trkpt lat="45.82855" lon="4.46767">
        <ele>652.8</ele>
        <time>2025-09-10T10:00:51Z</time>
      </trkpt>
      <trkpt lat="45.82856" lon="4.46769">
        <ele>652.8</ele>
        <time>2025-09-10T10:00:52Z</time>
      </trkpt>
      <trkpt lat="45.82857" lon="4.4677">
        <ele>653.2</ele>
        <time>2025-09-10T10:00:53Z</time>
      </trkpt>
      <trkpt lat="45.82857" lon="4.46771">
        <ele>653.2</ele>
        <time>2025-09-10T10:00:54Z</time>
      </trkpt>
      <trkpt lat="45.82858" lon="4.46773">
        <ele>653.4</ele>
        <time>2025-09-10T10:00:55Z</time>
      </trkpt>
      <trkpt lat="45.82859" lon="4.46775">
        <ele>653.6</ele>
        <time>2025-09-10T10:00:56Z</time>
      </trkpt>
      <trkpt lat="45.8286" lon="4.46776">
        <ele>653.8</ele>
        <time>2025-09-10T10:00:57Z</time>
      </trkpt>
      <trkpt lat="45.8286" lon="4.46777">
        <ele>654.2</ele>
        <time>2025-09-10T10:00:58Z</time>
      </trkpt>
      <trkpt lat="45.8286" lon="4.46778">
        <ele>654.2</ele>
        <time>2025-09-10T10:00:59Z</time>
      </trkpt>
      <trkpt lat="45.8286" lon="4.46779">
        <ele>654.2</ele>
        <time>2025-09-10T10:01:00Z</time>
      </trkpt>
      <trkpt lat="45.82863" lon="4.46781">
        <ele>654.6</ele>
        <time>2025-09-10T10:01:13Z</time>
      </trkpt>
      <trkpt lat="45.82864" lon="4.46783">
        <ele>654.8</ele>
        <time>2025-09-10T10:01:14Z</time>
      </trkpt>
      <trkpt lat="45.82864" lon="4.46784">
        <ele>654.8</ele>
        <time>2025-09-10T10:01:15Z</time>
      </trkpt>
      <trkpt lat="45.82865" lon="4.46785">
        <ele>654.8</ele>
        <time>2025-09-10T10:01:16Z</time>
      </trkpt>
      <trkpt lat="45.82866" lon="4.46784">
        <ele>655.2</ele>
        <time>2025-09-10T10:01:17Z</time>
      </trkpt>
      <trkpt lat="45.82868" lon="4.46784">
        <ele>655.2</ele>
        <time>2025-09-10T10:01:18Z</time>
      </trkpt>
      <trkpt lat="45.82868" lon="4.46784">
        <ele>655.2</ele>
        <time>2025-09-10T10:01:19Z</time>
      </trkpt>
      <trkpt lat="45.82869" lon="4.46784">
        <ele>655.6</ele>
        <time>2025-09-10T10:01:20Z</time>
      </trkpt>
      <trkpt lat="45.82869" lon="4.46785">
        <ele>655.6</ele>
        <time>2025-09-10T10:01:21Z</time>
      </trkpt>
      <trkpt lat="45.8287" lon="4.46786">
        <ele>655.6</ele>
        <time>2025-09-10T10:01:22Z</time>
      </trkpt>
      <trkpt lat="45.8287" lon="4.46787">
        <ele>655.8</ele>
        <time>2025-09-10T10:01:23Z</time>
      </trkpt>
      <trkpt lat="45.82871" lon="4.4679">
        <ele>655.8</ele>
        <time>2025-09-10T10:01:24Z</time>
      </trkpt>
      <trkpt lat="45.82871" lon="4.46791">
        <ele>655.8</ele>
        <time>2025-09-10T10:01:25Z</time>
      </trkpt>
      <trkpt lat="45.82871" lon="4.46792">
        <ele>656.2</ele>
        <time>2025-09-10T10:01:26Z</time>
      </trkpt>
      <trkpt lat="45.82872" lon="4.46793">
        <ele>656.2</ele>
        <time>2025-09-10T10:01:27Z</time>
      </trkpt>
      <trkpt lat="45.82873" lon="4.46794">
        <ele>656.4</ele>
        <time>2025-09-10T10:01:28Z</time>
      </trkpt>
      <trkpt lat="45.82874" lon="4.46794">
        <ele>656.4</ele>
        <time>2025-09-10T10:01:29Z</time>
      </trkpt>
      <trkpt lat="45.82874" lon="4.46795">
        <ele>656.6</ele>
        <time>2025-09-10T10:01:30Z</time>
      </trkpt>
      <trkpt lat="45.82875" lon="4.46796">
        <ele>656.6</ele>
        <time>2025-09-10T10:01:31Z</time>
      </trkpt>
      <trkpt lat="45.82876" lon="4.46796">
        <ele>656.6</ele>
        <time>2025-09-10T10:01:32Z</time>
      </trkpt>
      <trkpt lat="45.82876" lon="4.46797">
        <ele>657</ele>
        <time>2025-09-10T10:01:33Z</time>
      </trkpt>
      <trkpt lat="45.82877" lon="4.46797">
        <ele>657</ele>
        <time>2025-09-10T10:01:34Z</time>
      </trkpt>
      <trkpt lat="45.82877" lon="4.46798">
        <ele>657.2</ele>
        <time>2025-09-10T10:01:35Z</time>
      </trkpt>
      <trkpt lat="45.82877" lon="4.46798">
        <ele>657.2</ele>
        <time>2025-09-10T10:01:36Z</time>
      </trkpt>
      <trkpt lat="45.82878" lon="4.46799">
        <ele>657.2</ele>
        <time>2025-09-10T10:01:37Z</time>
      </trkpt>
      <trkpt lat="45.82879" lon="4.468">
        <ele>657.6</ele>
        <time>2025-09-10T10:01:38Z</time>
      </trkpt>
      <trkpt lat="45.82879" lon="4.468">
        <ele>657.6</ele>
        <time>2025-09-10T10:01:39Z</time>
      </trkpt>
      <trkpt lat="45.82879" lon="4.46801">
        <ele>657.6</ele>
        <time>2025-09-10T10:01:40Z</time>
      </trkpt>
      <trkpt lat="45.8288" lon="4.46801">
        <ele>658</ele>
        <time>2025-09-10T10:01:41Z</time>
      </trkpt>
      <trkpt lat="45.8288" lon="4.46802">
        <ele>658</ele>
        <time>2025-09-10T10:01:42Z</time>
      </trkpt>
      <trkpt lat="45.8288" lon="4.46802">
        <ele>658.2</ele>
        <time>2025-09-10T10:01:43Z</time>
      </trkpt>
      <trkpt lat="45.82881" lon="4.46802">
        <ele>658.4</ele>
        <time>2025-09-10T10:01:44Z</time>
      </trkpt>
      <trkpt lat="45.82882" lon="4.46803">
        <ele>658.4</ele>
        <time>2025-09-10T10:01:45Z</time>
      </trkpt>
      <trkpt lat="45.82883" lon="4.46803">
        <ele>658.4</ele>
        <time>2025-09-10T10:01:46Z</time>
      </trkpt>
      <trkpt lat="45.82883" lon="4.46803">
        <ele>658.8</ele>
        <time>2025-09-10T10:01:47Z</time>
      </trkpt>
      <trkpt lat="45.82884" lon="4.46804">
        <ele>658.8</ele>
        <time>2025-09-10T10:01:48Z</time>
      </trkpt>
      <trkpt lat="45.82884" lon="4.46804">
        <ele>659.2</ele>
        <time>2025-09-10T10:01:49Z</time>
      </trkpt>
      <trkpt lat="45.82885" lon="4.46804">
        <ele>659.2</ele>
        <time>2025-09-10T10:01:50Z</time>
      </trkpt>
      <trkpt lat="45.82886" lon="4.46805">
        <ele>659.6</ele>
        <time>2025-09-10T10:01:51Z</time>
      </trkpt>
      <trkpt lat="45.82887" lon="4.46805">
        <ele>659.8</ele>
        <time>2025-09-10T10:01:52Z</time>
      </trkpt>
      <trkpt lat="45.82887" lon="4.46806">
        <ele>659.8</ele>
        <time>2025-09-10T10:01:53Z</time>
      </trkpt>
      <trkpt lat="45.82888" lon="4.46806">
        <ele>660</ele>
        <time>2025-09-10T10:01:54Z</time>
      </trkpt>
      <trkpt lat="45.82889" lon="4.46806">
        <ele>660</ele>
        <time>2025-09-10T10:01:55Z</time>
      </trkpt>
      <trkpt lat="45.82889" lon="4.46807">
        <ele>660</ele>
        <time>2025-09-10T10:01:56Z</time>
      </trkpt>
      <trkpt lat="45.8289" lon="4.46807">
        <ele>660</ele>
        <time>2025-09-10T10:01:57Z</time>
      </trkpt>
      <trkpt lat="45.82891" lon="4.46807">
        <ele>660</ele>
        <time>2025-09-10T10:01:58Z</time>
      </trkpt>
      <trkpt lat="45.82891" lon="4.46807">
        <ele>660.2</ele>
        <time>2025-09-10T10:01:59Z</time>
      </trkpt>
      <trkpt lat="45.82891" lon="4.46807">
        <ele>660.2</ele>
        <time>2025-09-10T10:02:00Z</time>
      </trkpt>
      <trkpt lat="45.82892" lon="4.46808">
        <ele>660.2</ele>
        <time>2025-09-10T10:02:01Z</time>
      </trkpt>
      <trkpt lat="45.82893" lon="4.46808">
        <ele>660.2</ele>
        <time>2025-09-10T10:02:02Z</time>
      </trkpt>
      <trkpt lat="45.82894" lon="4.46809">
        <ele>660.4</ele>
        <time>2025-09-10T10:02:03Z</time>
      </trkpt>
      <trkpt lat="45.82895" lon="4.4681">
        <ele>660.4</ele>
        <time>2025-09-10T10:02:04Z</time>
      </trkpt>
      <trkpt lat="45.82896" lon="4.4681">
        <ele>660.4</ele>
        <time>2025-09-10T10:02:05Z</time>
      </trkpt>
      <trkpt lat="45.82897" lon="4.46811">
        <ele>660.6</ele>
        <time>2025-09-10T10:02:06Z</time>
      </trkpt>
      <trkpt lat="45.82898" lon="4.46811">
        <ele>660.6</ele>
        <time>2025-09-10T10:02:07Z</time>
      </trkpt>
      <trkpt lat="45.82899" lon="4.46812">
        <ele>661</ele>
        <time>2025-09-10T10:02:08Z</time>
      </trkpt>
      <trkpt lat="45.829" lon="4.46812">
        <ele>661</ele>
        <time>2025-09-10T10:02:09Z</time>
      </trkpt>
      <trkpt lat="45.82901" lon="4.46813">
        <ele>661.4</ele>
        <time>2025-09-10T10:02:10Z</time>
      </trkpt>
      <trkpt lat="45.82901" lon="4.46813">
        <ele>661.4</ele>
        <time>2025-09-10T10:02:11Z</time>
      </trkpt>
      <trkpt lat="45.82902" lon="4.46814">
        <ele>661.8</ele>
        <time>2025-09-10T10:02:12Z</time>
      </trkpt>
      <trkpt lat="45.82903" lon="4.46814">
        <ele>661.8</ele>
        <time>2025-09-10T10:02:13Z</time>
      </trkpt>
      <trkpt lat="45.82904" lon="4.46814">
        <ele>662.2</ele>
        <time>2025-09-10T10:02:14Z</time>
      </trkpt>
      <trkpt lat="45.82905" lon="4.46814">
        <ele>662.2</ele>
        <time>2025-09-10T10:02:15Z</time>
      </trkpt>
      <trkpt lat="45.82906" lon="4.46815">
        <ele>662.4</ele>
        <time>2025-09-10T10:02:16Z</time>
      </trkpt>
      <trkpt lat="45.82907" lon="4.46815">
        <ele>662.4</ele>
        <time>2025-09-10T10:02:17Z</time>
      </trkpt>
      <trkpt lat="45.82907" lon="4.46814">
        <ele>662.6</ele>
        <time>2025-09-10T10:02:18Z</time>
      </trkpt>
      <trkpt lat="45.82908" lon="4.46815">
        <ele>662.6</ele>
        <time>2025-09-10T10:02:19Z</time>
      </trkpt>
      <trkpt lat="45.82909" lon="4.46815">
        <ele>663</ele>
        <time>2025-09-10T10:02:20Z</time>
      </trkpt>
      <trkpt lat="45.82909" lon="4.46816">
        <ele>663</ele>
        <time>2025-09-10T10:02:21Z</time>
      </trkpt>
      <trkpt lat="45.8291" lon="4.46816">
        <ele>663</ele>
        <time>2025-09-10T10:02:22Z</time>
      </trkpt>
      <trkpt lat="45.82911" lon="4.46817">
        <ele>663.4</ele>
        <time>2025-09-10T10:02:23Z</time>
      </trkpt>
      <trkpt lat="45.82912" lon="4.46817">
        <ele>663.4</ele>
        <time>2025-09-10T10:02:24Z</time>
      </trkpt>
      <trkpt lat="45.82912" lon="4.46817">
        <ele>663.6</ele>
        <time>2025-09-10T10:02:25Z</time>
      </trkpt>
      <trkpt lat="45.82913" lon="4.46818">
        <ele>663.6</ele>
        <time>2025-09-10T10:02:26Z</time>
      </trkpt>
      <trkpt lat="45.82914" lon="4.46818">
        <ele>663.8</ele>
        <time>2025-09-10T10:02:27Z</time>
      </trkpt>
      <trkpt lat="45.82914" lon="4.46819">
        <ele>663.8</ele>
        <time>2025-09-10T10:02:28Z</time>
      </trkpt>
      <trkpt lat="45.82915" lon="4.46819">
        <ele>664.2</ele>
        <time>2025-09-10T10:02:29Z</time>
      </trkpt>
      <trkpt lat="45.82916" lon="4.4682">
        <ele>664.2</ele>
        <time>2025-09-10T10:02:30Z</time>
      </trkpt>
      <trkpt lat="45.82917" lon="4.4682">
        <ele>664.2</ele>
        <time>2025-09-10T10:02:31Z</time>
      </trkpt>
      <trkpt lat="45.82918" lon="4.46821">
        <ele>664.4</ele>
        <time>2025-09-10T10:02:32Z</time>
      </trkpt>
      <trkpt lat="45.82919" lon="4.46821">
        <ele>664.4</ele>
        <time>2025-09-10T10:02:33Z</time>
      </trkpt>
      <trkpt lat="45.8292" lon="4.46822">
        <ele>664.6</ele>
        <time>2025-09-10T10:02:34Z</time>
      </trkpt>
      <trkpt lat="45.82921" lon="4.46822">
        <ele>664.6</ele>
        <time>2025-09-10T10:02:35Z</time>
      </trkpt>
      <trkpt lat="45.82921" lon="4.46822">
        <ele>664.8</ele>
        <time>2025-09-10T10:02:36Z</time>
      </trkpt>
      <trkpt lat="45.82922" lon="4.46823">
        <ele>664.8</ele>
        <time>2025-09-10T10:02:37Z</time>
      </trkpt>
      <trkpt lat="45.82923" lon="4.46823">
        <ele>665.2</ele>
        <time>2025-09-10T10:02:38Z</time>
      </trkpt>
      <trkpt lat="45.82923" lon="4.46823">
        <ele>665.2</ele>
        <time>2025-09-10T10:02:39Z</time>
      </trkpt>
      <trkpt lat="45.82924" lon="4.46824">
        <ele>665.4</ele>
        <time>2025-09-10T10:02:40Z</time>
      </trkpt>
      <trkpt lat="45.82925" lon="4.46825">
        <ele>665.4</ele>
        <time>2025-09-10T10:02:41Z</time>
      </trkpt>
      <trkpt lat="45.82926" lon="4.46825">
        <ele>665.8</ele>
        <time>2025-09-10T10:02:42Z</time>
      </trkpt>
      <trkpt lat="45.82927" lon="4.46826">
        <ele>665.8</ele>
        <time>2025-09-10T10:02:43Z</time>
      </trkpt>
      <trkpt lat="45.82927" lon="4.46827">
        <ele>666</ele>
        <time>2025-09-10T10:02:44Z</time>
      </trkpt>
      <trkpt lat="45.82928" lon="4.46827">
        <ele>666</ele>
        <time>2025-09-10T10:02:45Z</time>
      </trkpt>
      <trkpt lat="45.82929" lon="4.46828">
        <ele>666</ele>
        <time>2025-09-10T10:02:46Z</time>
      </trkpt>
      <trkpt lat="45.8293" lon="4.46828">
        <ele>666</ele>
        <time>2025-09-10T10:02:47Z</time>
      </trkpt>
      <trkpt lat="45.82931" lon="4.46828">
        <ele>666.4</ele>
        <time>2025-09-10T10:02:48Z</time>
      </trkpt>
      <trkpt lat="45.82932" lon="4.46828">
        <ele>666.4</ele>
        <time>2025-09-10T10:02:49Z</time>
      </trkpt>
      <trkpt lat="45.82933" lon="4.46829">
        <ele>666.6</ele>
        <time>2025-09-10T10:02:50Z</time>
      </trkpt>
      <trkpt lat="45.82933" lon="4.46829">
        <ele>667</ele>
        <time>2025-09-10T10:02:51Z</time>
      </trkpt>
      <trkpt lat="45.82934" lon="4.4683">
        <ele>667</ele>
        <time>2025-09-10T10:02:52Z</time>
      </trkpt>
      <trkpt lat="45.82935" lon="4.46831">
        <ele>667.2</ele>
        <time>2025-09-10T10:02:53Z</time>
      </trkpt>
      <trkpt lat="45.82936" lon="4.46831">
        <ele>667.2</ele>
        <time>2025-09-10T10:02:54Z</time>
      </trkpt>
      <trkpt lat="45.82937" lon="4.46831">
        <ele>667.4</ele>
        <time>2025-09-10T10:02:55Z</time>
      </trkpt>
      <trkpt lat="45.82938" lon="4.46832">
        <ele>667.4</ele>
        <time>2025-09-10T10:02:56Z</time>
      </trkpt>
      <trkpt lat="45.82939" lon="4.46832">
        <ele>667.4</ele>
        <time>2025-09-10T10:02:57Z</time>
      </trkpt>
      <trkpt lat="45.8294" lon="4.46832">
        <ele>667.4</ele>
        <time>2025-09-10T10:02:58Z</time>
      </trkpt>
      <trkpt lat="45.82941" lon="4.46833">
        <ele>667.8</ele>
        <time>2025-09-10T10:02:59Z</time>
      </trkpt>
      <trkpt lat="45.82942" lon="4.46834">
        <ele>667.8</ele>
        <time>2025-09-10T10:03:00Z</time>
      </trkpt>
      <trkpt lat="45.82943" lon="4.46834">
        <ele>668</ele>
        <time>2025-09-10T10:03:01Z</time>
      </trkpt>
      <trkpt lat="45.82944" lon="4.46835">
        <ele>668</ele>
        <time>2025-09-10T10:03:02Z</time>
      </trkpt>
      <trkpt lat="45.82945" lon="4.46836">
        <ele>668.2</ele>
        <time>2025-09-10T10:03:03Z</time>
      </trkpt>
      <trkpt lat="45.82946" lon="4.46836">
        <ele>668.2</ele>
        <time>2025-09-10T10:03:04Z</time>
      </trkpt>
      <trkpt lat="45.82947" lon="4.46837">
        <ele>668.2</ele>
        <time>2025-09-10T10:03:05Z</time>
      </trkpt>
      <trkpt lat="45.82947" lon="4.46838">
        <ele>668.2</ele>
        <time>2025-09-10T10:03:06Z</time>
      </trkpt>
      <trkpt lat="45.82948" lon="4.46838">
        <ele>668.2</ele>
        <time>2025-09-10T10:03:07Z</time>
      </trkpt>
      <trkpt lat="45.82949" lon="4.46839">
        <ele>668.6</ele>
        <time>2025-09-10T10:03:08Z</time>
      </trkpt>
      <trkpt lat="45.8295" lon="4.4684">
        <ele>668.6</ele>
        <time>2025-09-10T10:03:09Z</time>
      </trkpt>
      <trkpt lat="45.82951" lon="4.46841">
        <ele>668.6</ele>
        <time>2025-09-10T10:03:10Z</time>
      </trkpt>
      <trkpt lat="45.82952" lon="4.46841">
        <ele>668.8</ele>
        <time>2025-09-10T10:03:11Z</time>
      </trkpt>
      <trkpt lat="45.82954" lon="4.46841">
        <ele>668.6</ele>
        <time>2025-09-10T10:03:16Z</time>
      </trkpt>
      <trkpt lat="45.82955" lon="4.46842">
        <ele>668.6</ele>
        <time>2025-09-10T10:03:17Z</time>
      </trkpt>
      <trkpt lat="45.82956" lon="4.46842">
        <ele>668.6</ele>
        <time>2025-09-10T10:03:18Z</time>
      </trkpt>
      <trkpt lat="45.82958" lon="4.46843">
        <ele>668.6</ele>
        <time>2025-09-10T10:03:19Z</time>
      </trkpt>
      <trkpt lat="45.8296" lon="4.46844">
        <ele>668.8</ele>
        <time>2025-09-10T10:03:20Z</time>
      </trkpt>
      <trkpt lat="45.82962" lon="4.46844">
        <ele>668.8</ele>
        <time>2025-09-10T10:03:21Z</time>
      </trkpt>
      <trkpt lat="45.82964" lon="4.46845">
        <ele>669</ele>
        <time>2025-09-10T10:03:22Z</time>
      </trkpt>
      <trkpt lat="45.82965" lon="4.46845">
        <ele>669</ele>
        <time>2025-09-10T10:03:23Z</time>
      </trkpt>
      <trkpt lat="45.82967" lon="4.46845">
        <ele>669</ele>
        <time>2025-09-10T10:03:24Z</time>
      </trkpt>
      <trkpt lat="45.82969" lon="4.46845">
        <ele>669</ele>
        <time>2025-09-10T10:03:25Z</time>
      </trkpt>
      <trkpt lat="45.82971" lon="4.46845">
        <ele>669</ele>
        <time>2025-09-10T10:03:26Z</time>
      </trkpt>
      <trkpt lat="45.82973" lon="4.46846">
        <ele>669</ele>
        <time>2025-09-10T10:03:27Z</time>
      </trkpt>
      <trkpt lat="45.82975" lon="4.46847">
        <ele>669</ele>
        <time>2025-09-10T10:03:28Z</time>
      </trkpt>
      <trkpt lat="45.82977" lon="4.46848">
        <ele>669</ele>
        <time>2025-09-10T10:03:29Z</time>
      </trkpt>
      <trkpt lat="45.82979" lon="4.46848">
        <ele>669</ele>
        <time>2025-09-10T10:03:30Z</time>
      </trkpt>
      <trkpt lat="45.8298" lon="4.46849">
        <ele>669.2</ele>
        <time>2025-09-10T10:03:31Z</time>
      </trkpt>
      <trkpt lat="45.82982" lon="4.4685">
        <ele>669.2</ele>
        <time>2025-09-10T10:03:32Z</time>
      </trkpt>
      <trkpt lat="45.82983" lon="4.4685">
        <ele>669.2</ele>
        <time>2025-09-10T10:03:33Z</time>
      </trkpt>
      <trkpt lat="45.82984" lon="4.46849">
        <ele>669.2</ele>
        <time>2025-09-10T10:03:34Z</time>
      </trkpt>
      <trkpt lat="45.82984" lon="4.46849">
        <ele>669.2</ele>
        <time>2025-09-10T10:03:35Z</time>
      </trkpt>
      <trkpt lat="45.82984" lon="4.46848">
        <ele>669.2</ele>
        <time>2025-09-10T10:03:36Z</time>
      </trkpt>
      <trkpt lat="45.82983" lon="4.46848">
        <ele>669.2</ele>
        <time>2025-09-10T10:04:30Z</time>
      </trkpt>
      <trkpt lat="45.82984" lon="4.46847">
        <ele>669</ele>
        <time>2025-09-10T10:04:31Z</time>
      </trkpt>
      <trkpt lat="45.82986" lon="4.46846">
        <ele>669</ele>
        <time>2025-09-10T10:04:32Z</time>
      </trkpt>
      <trkpt lat="45.82987" lon="4.46844">
        <ele>668.6</ele>
        <time>2025-09-10T10:04:33Z</time>
      </trkpt>
      <trkpt lat="45.82988" lon="4.46842">
        <ele>668.6</ele>
        <time>2025-09-10T10:04:34Z</time>
      </trkpt>
      <trkpt lat="45.82988" lon="4.4684">
        <ele>668.6</ele>
        <time>2025-09-10T10:04:35Z</time>
      </trkpt>
      <trkpt lat="45.82988" lon="4.46837">
        <ele>668.6</ele>
        <time>2025-09-10T10:04:36Z</time>
      </trkpt>
      <trkpt lat="45.82988" lon="4.46835">
        <ele>668.6</ele>
        <time>2025-09-10T10:04:37Z</time>
      </trkpt>
      <trkpt lat="45.82988" lon="4.46833">
        <ele>668.6</ele>
        <time>2025-09-10T10:04:38Z</time>
      </trkpt>
      <trkpt lat="45.82987" lon="4.46832">
        <ele>668.6</ele>
        <time>2025-09-10T10:04:39Z</time>
      </trkpt>
      <trkpt lat="45.82987" lon="4.46831">
        <ele>668.6</ele>
        <time>2025-09-10T10:04:40Z</time>
      </trkpt>
      <trkpt lat="45.82987" lon="4.46831">
        <ele>668.6</ele>
        <time>2025-09-10T10:04:41Z</time>
      </trkpt>
      <trkpt lat="45.82984" lon="4.46832">
        <ele>669</ele>
        <time>2025-09-10T10:06:03Z</time>
      </trkpt>
      <trkpt lat="45.82985" lon="4.46832">
        <ele>668.8</ele>
        <time>2025-09-10T10:06:04Z</time>
      </trkpt>
      <trkpt lat="45.82986" lon="4.46832">
        <ele>668.8</ele>
        <time>2025-09-10T10:06:05Z</time>
      </trkpt>
      <trkpt lat="45.82987" lon="4.46833">
        <ele>668.8</ele>
        <time>2025-09-10T10:06:06Z</time>
      </trkpt>
      <trkpt lat="45.82987" lon="4.46834">
        <ele>668.8</ele>
        <time>2025-09-10T10:06:07Z</time>
      </trkpt>
      <trkpt lat="45.82987" lon="4.46835">
        <ele>668.8</ele>
        <time>2025-09-10T10:06:10Z</time>
      </trkpt>
      <trkpt lat="45.82987" lon="4.46837">
        <ele>668.4</ele>
        <time>2025-09-10T10:06:11Z</time>
      </trkpt>
      <trkpt lat="45.82987" lon="4.4684">
        <ele>668.4</ele>
        <time>2025-09-10T10:06:12Z</time>
      </trkpt>
      <trkpt lat="45.82987" lon="4.46843">
        <ele>668.4</ele>
        <time>2025-09-10T10:06:13Z</time>
      </trkpt>
      <trkpt lat="45.82987" lon="4.46846">
        <ele>668.4</ele>
        <time>2025-09-10T10:06:14Z</time>
      </trkpt>
      <trkpt lat="45.82987" lon="4.4685">
        <ele>668.4</ele>
        <time>2025-09-10T10:06:15Z</time>
      </trkpt>
      <trkpt lat="45.82988" lon="4.46853">
        <ele>668.4</ele>
        <time>2025-09-10T10:06:16Z</time>
      </trkpt>
      <trkpt lat="45.82989" lon="4.46856">
        <ele>668.6</ele>
        <time>2025-09-10T10:06:17Z</time>
      </trkpt>
      <trkpt lat="45.8299" lon="4.46859">
        <ele>668.6</ele>
        <time>2025-09-10T10:06:18Z</time>
      </trkpt>
      <trkpt lat="45.82991" lon="4.46862">
        <ele>668.6</ele>
        <time>2025-09-10T10:06:19Z</time>
      </trkpt>
      <trkpt lat="45.82992" lon="4.46865">
        <ele>668.6</ele>
        <time>2025-09-10T10:06:20Z</time>
      </trkpt>
      <trkpt lat="45.82993" lon="4.46868">
        <ele>668.8</ele>
        <time>2025-09-10T10:06:21Z</time>
      </trkpt>
      <trkpt lat="45.82994" lon="4.46871">
        <ele>668.8</ele>
        <time>2025-09-10T10:06:22Z</time>
      </trkpt>
      <trkpt lat="45.82995" lon="4.46874">
        <ele>669.2</ele>
        <time>2025-09-10T10:06:23Z</time>
      </trkpt>
      <trkpt lat="45.82997" lon="4.46877">
        <ele>669.2</ele>
        <time>2025-09-10T10:06:24Z</time>
      </trkpt>
      <trkpt lat="45.82998" lon="4.4688">
        <ele>669.2</ele>
        <time>2025-09-10T10:06:25Z</time>
      </trkpt>
      <trkpt lat="45.82999" lon="4.46882">
        <ele>669.2</ele>
        <time>2025-09-10T10:06:26Z</time>
      </trkpt>
      <trkpt lat="45.82999" lon="4.46885">
        <ele>669.4</ele>
        <time>2025-09-10T10:06:27Z</time>
      </trkpt>
      <trkpt lat="45.83" lon="4.46887">
        <ele>669.4</ele>
        <time>2025-09-10T10:06:28Z</time>
      </trkpt>
      <trkpt lat="45.83002" lon="4.4689">
        <ele>669.6</ele>
        <time>2025-09-10T10:06:29Z</time>
      </trkpt>
      <trkpt lat="45.83003" lon="4.46893">
        <ele>669.6</ele>
        <time>2025-09-10T10:06:30Z</time>
      </trkpt>
      <trkpt lat="45.83004" lon="4.46895">
        <ele>669.6</ele>
        <time>2025-09-10T10:06:31Z</time>
      </trkpt>
      <trkpt lat="45.83005" lon="4.46899">
        <ele>669.6</ele>
        <time>2025-09-10T10:06:32Z</time>
      </trkpt>
      <trkpt lat="45.83005" lon="4.46902">
        <ele>670</ele>
        <time>2025-09-10T10:06:33Z</time>
      </trkpt>
      <trkpt lat="45.83006" lon="4.46905">
        <ele>670</ele>
        <time>2025-09-10T10:06:34Z</time>
      </trkpt>
      <trkpt lat="45.83007" lon="4.46907">
        <ele>670.2</ele>
        <time>2025-09-10T10:06:35Z</time>
      </trkpt>
      <trkpt lat="45.83008" lon="4.46909">
        <ele>670.4</ele>
        <time>2025-09-10T10:06:36Z</time>
      </trkpt>
      <trkpt lat="45.83009" lon="4.46912">
        <ele>670.4</ele>
        <time>2025-09-10T10:06:37Z</time>
      </trkpt>
      <trkpt lat="45.8301" lon="4.46914">
        <ele>670.6</ele>
        <time>2025-09-10T10:06:38Z</time>
      </trkpt>
      <trkpt lat="45.8301" lon="4.46916">
        <ele>670.6</ele>
        <time>2025-09-10T10:06:39Z</time>
      </trkpt>
      <trkpt lat="45.83011" lon="4.46919">
        <ele>670.6</ele>
        <time>2025-09-10T10:06:40Z</time>
      </trkpt>
      <trkpt lat="45.83012" lon="4.46921">
        <ele>671</ele>
        <time>2025-09-10T10:06:41Z</time>
      </trkpt>
      <trkpt lat="45.83013" lon="4.46924">
        <ele>671</ele>
        <time>2025-09-10T10:06:42Z</time>
      </trkpt>
      <trkpt lat="45.83014" lon="4.46926">
        <ele>671</ele>
        <time>2025-09-10T10:06:43Z</time>
      </trkpt>
      <trkpt lat="45.83015" lon="4.46928">
        <ele>671.4</ele>
        <time>2025-09-10T10:06:44Z</time>
      </trkpt>
      <trkpt lat="45.83016" lon="4.4693">
        <ele>671.4</ele>
        <time>2025-09-10T10:06:45Z</time>
      </trkpt>
      <trkpt lat="45.83017" lon="4.46932">
        <ele>671.4</ele>
        <time>2025-09-10T10:06:46Z</time>
      </trkpt>
      <trkpt lat="45.83017" lon="4.46934">
        <ele>671.8</ele>
        <time>2025-09-10T10:06:47Z</time>
      </trkpt>
      <trkpt lat="45.83018" lon="4.46936">
        <ele>672</ele>
        <time>2025-09-10T10:06:48Z</time>
      </trkpt>
      <trkpt lat="45.83018" lon="4.46939">
        <ele>672.2</ele>
        <time>2025-09-10T10:06:49Z</time>
      </trkpt>
      <trkpt lat="45.83019" lon="4.46941">
        <ele>672.2</ele>
        <time>2025-09-10T10:06:50Z</time>
      </trkpt>
      <trkpt lat="45.8302" lon="4.46943">
        <ele>672.6</ele>
        <time>2025-09-10T10:06:51Z</time>
      </trkpt>
      <trkpt lat="45.83021" lon="4.46945">
        <ele>672.6</ele>
        <time>2025-09-10T10:06:52Z</time>
      </trkpt>
      <trkpt lat="45.83021" lon="4.46947">
        <ele>672.8</ele>
        <time>2025-09-10T10:06:53Z</time>
      </trkpt>
      <trkpt lat="45.83022" lon="4.46949">
        <ele>673</ele>
        <time>2025-09-10T10:06:54Z</time>
      </trkpt>
      <trkpt lat="45.83023" lon="4.4695">
        <ele>673</ele>
        <time>2025-09-10T10:06:55Z</time>
      </trkpt>
      <trkpt lat="45.83023" lon="4.46952">
        <ele>673.6</ele>
        <time>2025-09-10T10:06:56Z</time>
      </trkpt>
      <trkpt lat="45.83024" lon="4.46954">
        <ele>673.6</ele>
        <time>2025-09-10T10:06:57Z</time>
      </trkpt>
      <trkpt lat="45.83025" lon="4.46955">
        <ele>673.8</ele>
        <time>2025-09-10T10:06:58Z</time>
      </trkpt>
      <trkpt lat="45.83026" lon="4.46956">
        <ele>674</ele>
        <time>2025-09-10T10:06:59Z</time>
      </trkpt>
      <trkpt lat="45.83027" lon="4.46958">
        <ele>674</ele>
        <time>2025-09-10T10:07:00Z</time>
      </trkpt>
      <trkpt lat="45.83027" lon="4.46959">
        <ele>674.4</ele>
        <time>2025-09-10T10:07:01Z</time>
      </trkpt>
      <trkpt lat="45.83028" lon="4.46962">
        <ele>674.4</ele>
        <time>2025-09-10T10:07:02Z</time>
      </trkpt>
      <trkpt lat="45.83029" lon="4.46964">
        <ele>674.6</ele>
        <time>2025-09-10T10:07:03Z</time>
      </trkpt>
      <trkpt lat="45.83029" lon="4.46966">
        <ele>674.6</ele>
        <time>2025-09-10T10:07:04Z</time>
      </trkpt>
      <trkpt lat="45.83031" lon="4.46967">
        <ele>674.6</ele>
        <time>2025-09-10T10:07:05Z</time>
      </trkpt>
      <trkpt lat="45.83032" lon="4.46968">
        <ele>675</ele>
        <time>2025-09-10T10:07:06Z</time>
      </trkpt>
      <trkpt lat="45.83033" lon="4.4697">
        <ele>675</ele>
        <time>2025-09-10T10:07:07Z</time>
      </trkpt>
      <trkpt lat="45.83034" lon="4.46972">
        <ele>675</ele>
        <time>2025-09-10T10:07:08Z</time>
      </trkpt>
      <trkpt lat="45.83034" lon="4.46974">
        <ele>675.4</ele>
        <time>2025-09-10T10:07:09Z</time>
      </trkpt>
      <trkpt lat="45.83034" lon="4.46976">
        <ele>675.6</ele>
        <time>2025-09-10T10:07:10Z</time>
      </trkpt>
      <trkpt lat="45.83035" lon="4.46977">
        <ele>675.6</ele>
        <time>2025-09-10T10:07:11Z</time>
      </trkpt>
      <trkpt lat="45.83035" lon="4.46979">
        <ele>676</ele>
        <time>2025-09-10T10:07:12Z</time>
      </trkpt>
      <trkpt lat="45.83036" lon="4.4698">
        <ele>676</ele>
        <time>2025-09-10T10:07:13Z</time>
      </trkpt>
      <trkpt lat="45.83036" lon="4.46981">
        <ele>676.2</ele>
        <time>2025-09-10T10:07:14Z</time>
      </trkpt>
      <trkpt lat="45.83037" lon="4.46982">
        <ele>676.2</ele>
        <time>2025-09-10T10:07:15Z</time>
      </trkpt>
      <trkpt lat="45.83037" lon="4.46984">
        <ele>676.4</ele>
        <time>2025-09-10T10:07:16Z</time>
      </trkpt>
      <trkpt lat="45.83035" lon="4.46985">
        <ele>676.4</ele>
        <time>2025-09-10T10:07:17Z</time>
      </trkpt>
      <trkpt lat="45.83033" lon="4.46985">
        <ele>676.6</ele>
        <time>2025-09-10T10:07:18Z</time>
      </trkpt>
      <trkpt lat="45.83032" lon="4.46984">
        <ele>676.6</ele>
        <time>2025-09-10T10:07:19Z</time>
      </trkpt>
      <trkpt lat="45.8303" lon="4.46983">
        <ele>676.6</ele>
        <time>2025-09-10T10:07:20Z</time>
      </trkpt>
      <trkpt lat="45.83028" lon="4.46981">
        <ele>676.6</ele>
        <time>2025-09-10T10:07:21Z</time>
      </trkpt>
      <trkpt lat="45.83027" lon="4.4698">
        <ele>676.8</ele>
        <time>2025-09-10T10:07:22Z</time>
      </trkpt>
      <trkpt lat="45.83025" lon="4.46979">
        <ele>676.8</ele>
        <time>2025-09-10T10:07:23Z</time>
      </trkpt>
      <trkpt lat="45.83024" lon="4.46978">
        <ele>676.8</ele>
        <time>2025-09-10T10:07:24Z</time>
      </trkpt>
      <trkpt lat="45.83022" lon="4.46977">
        <ele>676.8</ele>
        <time>2025-09-10T10:07:25Z</time>
      </trkpt>
      <trkpt lat="45.83021" lon="4.46976">
        <ele>677.2</ele>
        <time>2025-09-10T10:07:26Z</time>
      </trkpt>
      <trkpt lat="45.83019" lon="4.46975">
        <ele>677.2</ele>
        <time>2025-09-10T10:07:27Z</time>
      </trkpt>
      <trkpt lat="45.83017" lon="4.46974">
        <ele>677.2</ele>
        <time>2025-09-10T10:07:28Z</time>
      </trkpt>
      <trkpt lat="45.83015" lon="4.46974">
        <ele>677.4</ele>
        <time>2025-09-10T10:07:29Z</time>
      </trkpt>
      <trkpt lat="45.83014" lon="4.46973">
        <ele>677.4</ele>
        <time>2025-09-10T10:07:30Z</time>
      </trkpt>
      <trkpt lat="45.83012" lon="4.46973">
        <ele>677.8</ele>
        <time>2025-09-10T10:07:31Z</time>
      </trkpt>
      <trkpt lat="45.8301" lon="4.46973">
        <ele>677.8</ele>
        <time>2025-09-10T10:07:32Z</time>
      </trkpt>
      <trkpt lat="45.83008" lon="4.46973">
        <ele>677.8</ele>
        <time>2025-09-10T10:07:33Z</time>
      </trkpt>
      <trkpt lat="45.83006" lon="4.46973">
        <ele>678</ele>
        <time>2025-09-10T10:07:34Z</time>
      </trkpt>
      <trkpt lat="45.83004" lon="4.46973">
        <ele>678.2</ele>
        <time>2025-09-10T10:07:35Z</time>
      </trkpt>
      <trkpt lat="45.83002" lon="4.46973">
        <ele>678.2</ele>
        <time>2025-09-10T10:07:36Z</time>
      </trkpt>
      <trkpt lat="45.83001" lon="4.46973">
        <ele>678.4</ele>
        <time>2025-09-10T10:07:37Z</time>
      </trkpt>
      <trkpt lat="45.82999" lon="4.46972">
        <ele>678.6</ele>
        <time>2025-09-10T10:07:38Z</time>
      </trkpt>
      <trkpt lat="45.82998" lon="4.46972">
        <ele>678.6</ele>
        <time>2025-09-10T10:07:39Z</time>
      </trkpt>
      <trkpt lat="45.82996" lon="4.46972">
        <ele>678.6</ele>
        <time>2025-09-10T10:07:40Z</time>
      </trkpt>
      <trkpt lat="45.82995" lon="4.46973">
        <ele>678.6</ele>
        <time>2025-09-10T10:07:41Z</time>
      </trkpt>
      <trkpt lat="45.82993" lon="4.46973">
        <ele>678.6</ele>
        <time>2025-09-10T10:07:42Z</time>
      </trkpt>
      <trkpt lat="45.82991" lon="4.46973">
        <ele>678.8</ele>
        <time>2025-09-10T10:07:43Z</time>
      </trkpt>
      <trkpt lat="45.8299" lon="4.46973">
        <ele>678.8</ele>
        <time>2025-09-10T10:07:44Z</time>
      </trkpt>
      <trkpt lat="45.82988" lon="4.46973">
        <ele>679.2</ele>
        <time>2025-09-10T10:07:45Z</time>
      </trkpt>
      <trkpt lat="45.82987" lon="4.46973">
        <ele>679.2</ele>
        <time>2025-09-10T10:07:46Z</time>
      </trkpt>
      <trkpt lat="45.82985" lon="4.46973">
        <ele>679.2</ele>
        <time>2025-09-10T10:07:47Z</time>
      </trkpt>
      <trkpt lat="45.82984" lon="4.46973">
        <ele>679.4</ele>
        <time>2025-09-10T10:07:48Z</time>
      </trkpt>
      <trkpt lat="45.82982" lon="4.46974">
        <ele>679.4</ele>
        <time>2025-09-10T10:07:49Z</time>
      </trkpt>
      <trkpt lat="45.82981" lon="4.46973">
        <ele>679.4</ele>
        <time>2025-09-10T10:07:50Z</time>
      </trkpt>
      <trkpt lat="45.82979" lon="4.46973">
        <ele>679.8</ele>
        <time>2025-09-10T10:07:51Z</time>
      </trkpt>
      <trkpt lat="45.82978" lon="4.46973">
        <ele>679.8</ele>
        <time>2025-09-10T10:07:52Z</time>
      </trkpt>
      <trkpt lat="45.82976" lon="4.46973">
        <ele>679.8</ele>
        <time>2025-09-10T10:07:53Z</time>
      </trkpt>
      <trkpt lat="45.82975" lon="4.46973">
        <ele>679.8</ele>
        <time>2025-09-10T10:07:54Z</time>
      </trkpt>
      <trkpt lat="45.82973" lon="4.46973">
        <ele>680.2</ele>
        <time>2025-09-10T10:07:55Z</time>
      </trkpt>
      <trkpt lat="45.82972" lon="4.46973">
        <ele>680.2</ele>
        <time>2025-09-10T10:07:56Z</time>
      </trkpt>
      <trkpt lat="45.8297" lon="4.46972">
        <ele>680.4</ele>
        <time>2025-09-10T10:07:57Z</time>
      </trkpt>
      <trkpt lat="45.82968" lon="4.46972">
        <ele>680.4</ele>
        <time>2025-09-10T10:07:58Z</time>
      </trkpt>
      <trkpt lat="45.82967" lon="4.46973">
        <ele>680.4</ele>
        <time>2025-09-10T10:07:59Z</time>
      </trkpt>
      <trkpt lat="45.82965" lon="4.46973">
        <ele>680.6</ele>
        <time>2025-09-10T10:08:00Z</time>
      </trkpt>
      <trkpt lat="45.82964" lon="4.46973">
        <ele>680.6</ele>
        <time>2025-09-10T10:08:01Z</time>
      </trkpt>
      <trkpt lat="45.82962" lon="4.46972">
        <ele>680.6</ele>
        <time>2025-09-10T10:08:02Z</time>
      </trkpt>
      <trkpt lat="45.82961" lon="4.46972">
        <ele>680.6</ele>
        <time>2025-09-10T10:08:03Z</time>
      </trkpt>
      <trkpt lat="45.82959" lon="4.46972">
        <ele>680.6</ele>
        <time>2025-09-10T10:08:04Z</time>
      </trkpt>
      <trkpt lat="45.82957" lon="4.46972">
        <ele>680.6</ele>
        <time>2025-09-10T10:08:05Z</time>
      </trkpt>
      <trkpt lat="45.82955" lon="4.46972">
        <ele>681</ele>
        <time>2025-09-10T10:08:06Z</time>
      </trkpt>
      <trkpt lat="45.82953" lon="4.46972">
        <ele>681</ele>
        <time>2025-09-10T10:08:07Z</time>
      </trkpt>
      <trkpt lat="45.82952" lon="4.46972">
        <ele>681.2</ele>
        <time>2025-09-10T10:08:08Z</time>
      </trkpt>
      <trkpt lat="45.8295" lon="4.46972">
        <ele>681.4</ele>
        <time>2025-09-10T10:08:09Z</time>
      </trkpt>
      <trkpt lat="45.82948" lon="4.46972">
        <ele>681.4</ele>
        <time>2025-09-10T10:08:10Z</time>
      </trkpt>
      <trkpt lat="45.82946" lon="4.46973">
        <ele>681.8</ele>
        <time>2025-09-10T10:08:11Z</time>
      </trkpt>
      <trkpt lat="45.82945" lon="4.46973">
        <ele>681.8</ele>
        <time>2025-09-10T10:08:12Z</time>
      </trkpt>
      <trkpt lat="45.82943" lon="4.46973">
        <ele>681.8</ele>
        <time>2025-09-10T10:08:13Z</time>
      </trkpt>
      <trkpt lat="45.82941" lon="4.46973">
        <ele>682.2</ele>
        <time>2025-09-10T10:08:14Z</time>
      </trkpt>
      <trkpt lat="45.82939" lon="4.46974">
        <ele>682.2</ele>
        <time>2025-09-10T10:08:15Z</time>
      </trkpt>
      <trkpt lat="45.82938" lon="4.46974">
        <ele>682.2</ele>
        <time>2025-09-10T10:08:16Z</time>
      </trkpt>
      <trkpt lat="45.82936" lon="4.46975">
        <ele>682.4</ele>
        <time>2025-09-10T10:08:17Z</time>
      </trkpt>
      <trkpt lat="45.82934" lon="4.46975">
        <ele>682.4</ele>
        <time>2025-09-10T10:08:18Z</time>
      </trkpt>
      <trkpt lat="45.82933" lon="4.46976">
        <ele>682.4</ele>
        <time>2025-09-10T10:08:19Z</time>
      </trkpt>
      <trkpt lat="45.82931" lon="4.46976">
        <ele>682.8</ele>
        <time>2025-09-10T10:08:20Z</time>
      </trkpt>
      <trkpt lat="45.82929" lon="4.46976">
        <ele>682.8</ele>
        <time>2025-09-10T10:08:21Z</time>
      </trkpt>
      <trkpt lat="45.82927" lon="4.46976">
        <ele>683</ele>
        <time>2025-09-10T10:08:22Z</time>
      </trkpt>
      <trkpt lat="45.82925" lon="4.46976">
        <ele>683</ele>
        <time>2025-09-10T10:08:23Z</time>
      </trkpt>
      <trkpt lat="45.82924" lon="4.46976">
        <ele>683</ele>
        <time>2025-09-10T10:08:24Z</time>
      </trkpt>
      <trkpt lat="45.82922" lon="4.46977">
        <ele>683</ele>
        <time>2025-09-10T10:08:25Z</time>
      </trkpt>
      <trkpt lat="45.8292" lon="4.46977">
        <ele>683</ele>
        <time>2025-09-10T10:08:26Z</time>
      </trkpt>
      <trkpt lat="45.82919" lon="4.46977">
        <ele>683</ele>
        <time>2025-09-10T10:08:27Z</time>
      </trkpt>
      <trkpt lat="45.82918" lon="4.46977">
        <ele>683</ele>
        <time>2025-09-10T10:08:28Z</time>
      </trkpt>
      <trkpt lat="45.82916" lon="4.46977">
        <ele>683</ele>
        <time>2025-09-10T10:08:29Z</time>
      </trkpt>
      <trkpt lat="45.82914" lon="4.46978">
        <ele>683.2</ele>
        <time>2025-09-10T10:08:30Z</time>
      </trkpt>
      <trkpt lat="45.82913" lon="4.46979">
        <ele>683.2</ele>
        <time>2025-09-10T10:08:31Z</time>
      </trkpt>
      <trkpt lat="45.82911" lon="4.4698">
        <ele>683.2</ele>
        <time>2025-09-10T10:08:32Z</time>
      </trkpt>
      <trkpt lat="45.8291" lon="4.46981">
        <ele>683.6</ele>
        <time>2025-09-10T10:08:33Z</time>
      </trkpt>
      <trkpt lat="45.82908" lon="4.46981">
        <ele>683.6</ele>
        <time>2025-09-10T10:08:34Z</time>
      </trkpt>
      <trkpt lat="45.82907" lon="4.46982">
        <ele>683.8</ele>
        <time>2025-09-10T10:08:35Z</time>
      </trkpt>
      <trkpt lat="45.82905" lon="4.46983">
        <ele>683.8</ele>
        <time>2025-09-10T10:08:36Z</time>
      </trkpt>
      <trkpt lat="45.82902" lon="4.46982">
        <ele>683.8</ele>
        <time>2025-09-10T10:08:37Z</time>
      </trkpt>
      <trkpt lat="45.829" lon="4.46982">
        <ele>684</ele>
        <time>2025-09-10T10:08:38Z</time>
      </trkpt>
      <trkpt lat="45.82899" lon="4.46983">
        <ele>684</ele>
        <time>2025-09-10T10:08:39Z</time>
      </trkpt>
      <trkpt lat="45.82897" lon="4.46983">
        <ele>684</ele>
        <time>2025-09-10T10:08:40Z</time>
      </trkpt>
      <trkpt lat="45.82896" lon="4.46984">
        <ele>684</ele>
        <time>2025-09-10T10:08:41Z</time>
      </trkpt>
      <trkpt lat="45.82894" lon="4.46984">
        <ele>684</ele>
        <time>2025-09-10T10:08:42Z</time>
      </trkpt>
      <trkpt lat="45.82893" lon="4.46985">
        <ele>684</ele>
        <time>2025-09-10T10:08:43Z</time>
      </trkpt>
      <trkpt lat="45.82891" lon="4.46985">
        <ele>684.8</ele>
        <time>2025-09-10T10:08:44Z</time>
      </trkpt>
      <trkpt lat="45.8289" lon="4.46985">
        <ele>684.8</ele>
        <time>2025-09-10T10:08:45Z</time>
      </trkpt>
      <trkpt lat="45.82888" lon="4.46986">
        <ele>684.8</ele>
        <time>2025-09-10T10:08:46Z</time>
      </trkpt>
      <trkpt lat="45.82887" lon="4.46986">
        <ele>685</ele>
        <time>2025-09-10T10:08:47Z</time>
      </trkpt>
      <trkpt lat="45.82885" lon="4.46987">
        <ele>684.2</ele>
        <time>2025-09-10T10:08:48Z</time>
      </trkpt>
      <trkpt lat="45.82884" lon="4.46987">
        <ele>684.8</ele>
        <time>2025-09-10T10:08:49Z</time>
      </trkpt>
      <trkpt lat="45.82882" lon="4.46988">
        <ele>684.8</ele>
        <time>2025-09-10T10:08:50Z</time>
      </trkpt>
      <trkpt lat="45.82881" lon="4.46988">
        <ele>684.8</ele>
        <time>2025-09-10T10:08:51Z</time>
      </trkpt>
      <trkpt lat="45.82879" lon="4.46988">
        <ele>684.8</ele>
        <time>2025-09-10T10:08:52Z</time>
      </trkpt>
      <trkpt lat="45.82879" lon="4.46988">
        <ele>684.8</ele>
        <time>2025-09-10T10:08:53Z</time>
      </trkpt>
      <trkpt lat="45.82878" lon="4.46988">
        <ele>685</ele>
        <time>2025-09-10T10:08:54Z</time>
      </trkpt>
      <trkpt lat="45.82876" lon="4.46989">
        <ele>685</ele>
        <time>2025-09-10T10:08:55Z</time>
      </trkpt>
      <trkpt lat="45.82875" lon="4.46989">
        <ele>685</ele>
        <time>2025-09-10T10:08:56Z</time>
      </trkpt>
      <trkpt lat="45.82874" lon="4.4699">
        <ele>685.4</ele>
        <time>2025-09-10T10:08:57Z</time>
      </trkpt>
      <trkpt lat="45.82872" lon="4.46991">
        <ele>685.4</ele>
        <time>2025-09-10T10:08:58Z</time>
      </trkpt>
      <trkpt lat="45.82871" lon="4.46992">
        <ele>685.4</ele>
        <time>2025-09-10T10:08:59Z</time>
      </trkpt>
      <trkpt lat="45.8287" lon="4.46992">
        <ele>685.4</ele>
        <time>2025-09-10T10:09:00Z</time>
      </trkpt>
      <trkpt lat="45.82868" lon="4.46992">
        <ele>685.8</ele>
        <time>2025-09-10T10:09:01Z</time>
      </trkpt>
      <trkpt lat="45.82866" lon="4.46992">
        <ele>686</ele>
        <time>2025-09-10T10:09:02Z</time>
      </trkpt>
      <trkpt lat="45.82864" lon="4.46992">
        <ele>686</ele>
        <time>2025-09-10T10:09:03Z</time>
      </trkpt>
      <trkpt lat="45.82863" lon="4.46993">
        <ele>686.6</ele>
        <time>2025-09-10T10:09:04Z</time>
      </trkpt>
      <trkpt lat="45.82861" lon="4.46993">
        <ele>686.6</ele>
        <time>2025-09-10T10:09:05Z</time>
      </trkpt>
      <trkpt lat="45.8286" lon="4.46994">
        <ele>686.6</ele>
        <time>2025-09-10T10:09:06Z</time>
      </trkpt>
      <trkpt lat="45.82858" lon="4.46994">
        <ele>686.6</ele>
        <time>2025-09-10T10:09:07Z</time>
      </trkpt>
      <trkpt lat="45.82856" lon="4.46995">
        <ele>686.2</ele>
        <time>2025-09-10T10:09:08Z</time>
      </trkpt>
      <trkpt lat="45.82855" lon="4.46995">
        <ele>686.6</ele>
        <time>2025-09-10T10:09:09Z</time>
      </trkpt>
      <trkpt lat="45.82853" lon="4.46996">
        <ele>686.6</ele>
        <time>2025-09-10T10:09:10Z</time>
      </trkpt>
      <trkpt lat="45.82852" lon="4.46998">
        <ele>687</ele>
        <time>2025-09-10T10:09:11Z</time>
      </trkpt>
      <trkpt lat="45.8285" lon="4.46999">
        <ele>687</ele>
        <time>2025-09-10T10:09:12Z</time>
      </trkpt>
      <trkpt lat="45.82849" lon="4.46999">
        <ele>687.4</ele>
        <time>2025-09-10T10:09:13Z</time>
      </trkpt>
      <trkpt lat="45.82847" lon="4.46999">
        <ele>687</ele>
        <time>2025-09-10T10:09:14Z</time>
      </trkpt>
      <trkpt lat="45.82846" lon="4.46999">
        <ele>687.4</ele>
        <time>2025-09-10T10:09:15Z</time>
      </trkpt>
      <trkpt lat="45.82844" lon="4.47">
        <ele>688.6</ele>
        <time>2025-09-10T10:09:16Z</time>
      </trkpt>
      <trkpt lat="45.82843" lon="4.47">
        <ele>688.6</ele>
        <time>2025-09-10T10:09:17Z</time>
      </trkpt>
      <trkpt lat="45.82842" lon="4.47">
        <ele>688.8</ele>
        <time>2025-09-10T10:09:18Z</time>
      </trkpt>
      <trkpt lat="45.8284" lon="4.47001">
        <ele>688.8</ele>
        <time>2025-09-10T10:09:19Z</time>
      </trkpt>
      <trkpt lat="45.82839" lon="4.47001">
        <ele>688.8</ele>
        <time>2025-09-10T10:09:20Z</time>
      </trkpt>
      <trkpt lat="45.82837" lon="4.47002">
        <ele>688.8</ele>
        <time>2025-09-10T10:09:21Z</time>
      </trkpt>
      <trkpt lat="45.82836" lon="4.47002">
        <ele>688.8</ele>
        <time>2025-09-10T10:09:22Z</time>
      </trkpt>
      <trkpt lat="45.82834" lon="4.47002">
        <ele>688.8</ele>
        <time>2025-09-10T10:09:23Z</time>
      </trkpt>
      <trkpt lat="45.82832" lon="4.47003">
        <ele>688.8</ele>
        <time>2025-09-10T10:09:24Z</time>
      </trkpt>
      <trkpt lat="45.82831" lon="4.47003">
        <ele>688.8</ele>
        <time>2025-09-10T10:09:25Z</time>
      </trkpt>
      <trkpt lat="45.82829" lon="4.47004">
        <ele>689</ele>
        <time>2025-09-10T10:09:26Z</time>
      </trkpt>
      <trkpt lat="45.82828" lon="4.47003">
        <ele>688.6</ele>
        <time>2025-09-10T10:09:27Z</time>
      </trkpt>
      <trkpt lat="45.82826" lon="4.47003">
        <ele>688.8</ele>
        <time>2025-09-10T10:09:28Z</time>
      </trkpt>
      <trkpt lat="45.82824" lon="4.47003">
        <ele>688.8</ele>
        <time>2025-09-10T10:09:29Z</time>
      </trkpt>
      <trkpt lat="45.82823" lon="4.47003">
        <ele>689</ele>
        <time>2025-09-10T10:09:30Z</time>
      </trkpt>
      <trkpt lat="45.82822" lon="4.47003">
        <ele>689</ele>
        <time>2025-09-10T10:09:31Z</time>
      </trkpt>
      <trkpt lat="45.8282" lon="4.47003">
        <ele>689</ele>
        <time>2025-09-10T10:09:32Z</time>
      </trkpt>
      <trkpt lat="45.82819" lon="4.47003">
        <ele>689.4</ele>
        <time>2025-09-10T10:09:33Z</time>
      </trkpt>
      <trkpt lat="45.82817" lon="4.47002">
        <ele>689.4</ele>
        <time>2025-09-10T10:09:34Z</time>
      </trkpt>
      <trkpt lat="45.82816" lon="4.47002">
        <ele>689.6</ele>
        <time>2025-09-10T10:09:35Z</time>
      </trkpt>
      <trkpt lat="45.82814" lon="4.47003">
        <ele>689.6</ele>
        <time>2025-09-10T10:09:36Z</time>
      </trkpt>
      <trkpt lat="45.82812" lon="4.47003">
        <ele>689.8</ele>
        <time>2025-09-10T10:09:37Z</time>
      </trkpt>
      <trkpt lat="45.8281" lon="4.47003">
        <ele>689.8</ele>
        <time>2025-09-10T10:09:38Z</time>
      </trkpt>
      <trkpt lat="45.82809" lon="4.47003">
        <ele>690.2</ele>
        <time>2025-09-10T10:09:39Z</time>
      </trkpt>
      <trkpt lat="45.82808" lon="4.47004">
        <ele>690.2</ele>
        <time>2025-09-10T10:09:40Z</time>
      </trkpt>
      <trkpt lat="45.82808" lon="4.47005">
        <ele>690.2</ele>
        <time>2025-09-10T10:09:41Z</time>
      </trkpt>
      <trkpt lat="45.82807" lon="4.47007">
        <ele>690.4</ele>
        <time>2025-09-10T10:09:42Z</time>
      </trkpt>
      <trkpt lat="45.82808" lon="4.47009">
        <ele>690.4</ele>
        <time>2025-09-10T10:09:43Z</time>
      </trkpt>
      <trkpt lat="45.82809" lon="4.47011">
        <ele>690.6</ele>
        <time>2025-09-10T10:09:44Z</time>
      </trkpt>
      <trkpt lat="45.82811" lon="4.47013">
        <ele>690.6</ele>
        <time>2025-09-10T10:09:45Z</time>
      </trkpt>
      <trkpt lat="45.82813" lon="4.47015">
        <ele>690.6</ele>
        <time>2025-09-10T10:09:46Z</time>
      </trkpt>
      <trkpt lat="45.82816" lon="4.47016">
        <ele>690.6</ele>
        <time>2025-09-10T10:09:47Z</time>
      </trkpt>
      <trkpt lat="45.82818" lon="4.47016">
        <ele>690.6</ele>
        <time>2025-09-10T10:09:48Z</time>
      </trkpt>
      <trkpt lat="45.8282" lon="4.47016">
        <ele>690.8</ele>
        <time>2025-09-10T10:09:49Z</time>
      </trkpt>
      <trkpt lat="45.82823" lon="4.47016">
        <ele>690.8</ele>
        <time>2025-09-10T10:09:50Z</time>
      </trkpt>
      <trkpt lat="45.82825" lon="4.47015">
        <ele>690.8</ele>
        <time>2025-09-10T10:09:51Z</time>
      </trkpt>
      <trkpt lat="45.82827" lon="4.47015">
        <ele>690.8</ele>
        <time>2025-09-10T10:09:52Z</time>
      </trkpt>
      <trkpt lat="45.8283" lon="4.47014">
        <ele>690.8</ele>
        <time>2025-09-10T10:09:53Z</time>
      </trkpt>
      <trkpt lat="45.82832" lon="4.47014">
        <ele>690.8</ele>
        <time>2025-09-10T10:09:54Z</time>
      </trkpt>
      <trkpt lat="45.82835" lon="4.47014">
        <ele>690.8</ele>
        <time>2025-09-10T10:09:55Z</time>
      </trkpt>
      <trkpt lat="45.82838" lon="4.47014">
        <ele>691</ele>
        <time>2025-09-10T10:09:56Z</time>
      </trkpt>
      <trkpt lat="45.8284" lon="4.47014">
        <ele>691</ele>
        <time>2025-09-10T10:09:57Z</time>
      </trkpt>
      <trkpt lat="45.82843" lon="4.47014">
        <ele>691.4</ele>
        <time>2025-09-10T10:09:58Z</time>
      </trkpt>
      <trkpt lat="45.82845" lon="4.47015">
        <ele>691.4</ele>
        <time>2025-09-10T10:09:59Z</time>
      </trkpt>
      <trkpt lat="45.82848" lon="4.47015">
        <ele>691.4</ele>
        <time>2025-09-10T10:10:00Z</time>
      </trkpt>
      <trkpt lat="45.8285" lon="4.47015">
        <ele>691.8</ele>
        <time>2025-09-10T10:10:01Z</time>
      </trkpt>
      <trkpt lat="45.82853" lon="4.47015">
        <ele>691.8</ele>
        <time>2025-09-10T10:10:02Z</time>
      </trkpt>
      <trkpt lat="45.82856" lon="4.47016">
        <ele>691.8</ele>
        <time>2025-09-10T10:10:03Z</time>
      </trkpt>
      <trkpt lat="45.82859" lon="4.47017">
        <ele>691.8</ele>
        <time>2025-09-10T10:10:04Z</time>
      </trkpt>
      <trkpt lat="45.82861" lon="4.47017">
        <ele>691.8</ele>
        <time>2025-09-10T10:10:05Z</time>
      </trkpt>
      <trkpt lat="45.82864" lon="4.47018">
        <ele>692</ele>
        <time>2025-09-10T10:10:06Z</time>
      </trkpt>
      <trkpt lat="45.82867" lon="4.47019">
        <ele>692</ele>
        <time>2025-09-10T10:10:07Z</time>
      </trkpt>
      <trkpt lat="45.8287" lon="4.47019">
        <ele>692.2</ele>
        <time>2025-09-10T10:10:08Z</time>
      </trkpt>
      <trkpt lat="45.82872" lon="4.4702">
        <ele>692.2</ele>
        <time>2025-09-10T10:10:09Z</time>
      </trkpt>
      <trkpt lat="45.82875" lon="4.4702">
        <ele>692.2</ele>
        <time>2025-09-10T10:10:10Z</time>
      </trkpt>
      <trkpt lat="45.82877" lon="4.47021">
        <ele>692.4</ele>
        <time>2025-09-10T10:10:11Z</time>
      </trkpt>
      <trkpt lat="45.8288" lon="4.47022">
        <ele>692.4</ele>
        <time>2025-09-10T10:10:12Z</time>
      </trkpt>
      <trkpt lat="45.82882" lon="4.47022">
        <ele>692.4</ele>
        <time>2025-09-10T10:10:13Z</time>
      </trkpt>
      <trkpt lat="45.82885" lon="4.47023">
        <ele>692.4</ele>
        <time>2025-09-10T10:10:14Z</time>
      </trkpt>
      <trkpt lat="45.82887" lon="4.47024">
        <ele>692.4</ele>
        <time>2025-09-10T10:10:15Z</time>
      </trkpt>
      <trkpt lat="45.8289" lon="4.47024">
        <ele>692.6</ele>
        <time>2025-09-10T10:10:16Z</time>
      </trkpt>
      <trkpt lat="45.82892" lon="4.47025">
        <ele>692.6</ele>
        <time>2025-09-10T10:10:17Z</time>
      </trkpt>
      <trkpt lat="45.82895" lon="4.47026">
        <ele>693</ele>
        <time>2025-09-10T10:10:18Z</time>
      </trkpt>
      <trkpt lat="45.82897" lon="4.47026">
        <ele>693</ele>
        <time>2025-09-10T10:10:19Z</time>
      </trkpt>
      <trkpt lat="45.82899" lon="4.47027">
        <ele>693.2</ele>
        <time>2025-09-10T10:10:20Z</time>
      </trkpt>
      <trkpt lat="45.82902" lon="4.47028">
        <ele>693.2</ele>
        <time>2025-09-10T10:10:21Z</time>
      </trkpt>
      <trkpt lat="45.82904" lon="4.47029">
        <ele>693.2</ele>
        <time>2025-09-10T10:10:22Z</time>
      </trkpt>
      <trkpt lat="45.82906" lon="4.4703">
        <ele>693.6</ele>
        <time>2025-09-10T10:10:23Z</time>
      </trkpt>
      <trkpt lat="45.82909" lon="4.47031">
        <ele>693.6</ele>
        <time>2025-09-10T10:10:24Z</time>
      </trkpt>
      <trkpt lat="45.82911" lon="4.47031">
        <ele>693.6</ele>
        <time>2025-09-10T10:10:25Z</time>
      </trkpt>
      <trkpt lat="45.82914" lon="4.47032">
        <ele>693.8</ele>
        <time>2025-09-10T10:10:26Z</time>
      </trkpt>
      <trkpt lat="45.82916" lon="4.47033">
        <ele>693.8</ele>
        <time>2025-09-10T10:10:27Z</time>
      </trkpt>
      <trkpt lat="45.82918" lon="4.47033">
        <ele>693.8</ele>
        <time>2025-09-10T10:10:28Z</time>
      </trkpt>
      <trkpt lat="45.8292" lon="4.47033">
        <ele>694</ele>
        <time>2025-09-10T10:10:29Z</time>
      </trkpt>
      <trkpt lat="45.82923" lon="4.47034">
        <ele>694</ele>
        <time>2025-09-10T10:10:30Z</time>
      </trkpt>
      <trkpt lat="45.82925" lon="4.47035">
        <ele>694</ele>
        <time>2025-09-10T10:10:31Z</time>
      </trkpt>
      <trkpt lat="45.82927" lon="4.47036">
        <ele>694</ele>
        <time>2025-09-10T10:10:32Z</time>
      </trkpt>
      <trkpt lat="45.82929" lon="4.47037">
        <ele>694</ele>
        <time>2025-09-10T10:10:33Z</time>
      </trkpt>
      <trkpt lat="45.82931" lon="4.47038">
        <ele>694.2</ele>
        <time>2025-09-10T10:10:34Z</time>
      </trkpt>
      <trkpt lat="45.82934" lon="4.47039">
        <ele>694.2</ele>
        <time>2025-09-10T10:10:35Z</time>
      </trkpt>
      <trkpt lat="45.82936" lon="4.4704">
        <ele>694.2</ele>
        <time>2025-09-10T10:10:36Z</time>
      </trkpt>
      <trkpt lat="45.82938" lon="4.47041">
        <ele>694.2</ele>
        <time>2025-09-10T10:10:37Z</time>
      </trkpt>
      <trkpt lat="45.8294" lon="4.47042">
        <ele>694.4</ele>
        <time>2025-09-10T10:10:38Z</time>
      </trkpt>
      <trkpt lat="45.82943" lon="4.47043">
        <ele>694.4</ele>
        <time>2025-09-10T10:10:39Z</time>
      </trkpt>
      <trkpt lat="45.82945" lon="4.47044">
        <ele>694.8</ele>
        <time>2025-09-10T10:10:40Z</time>
      </trkpt>
      <trkpt lat="45.82947" lon="4.47045">
        <ele>694.8</ele>
        <time>2025-09-10T10:10:41Z</time>
      </trkpt>
      <trkpt lat="45.8295" lon="4.47046">
        <ele>694.8</ele>
        <time>2025-09-10T10:10:42Z</time>
      </trkpt>
      <trkpt lat="45.82952" lon="4.47047">
        <ele>694.8</ele>
        <time>2025-09-10T10:10:43Z</time>
      </trkpt>
      <trkpt lat="45.82954" lon="4.47049">
        <ele>694.8</ele>
        <time>2025-09-10T10:10:44Z</time>
      </trkpt>
      <trkpt lat="45.82957" lon="4.4705">
        <ele>694.8</ele>
        <time>2025-09-10T10:10:45Z</time>
      </trkpt>
      <trkpt lat="45.82959" lon="4.47051">
        <ele>694.8</ele>
        <time>2025-09-10T10:10:46Z</time>
      </trkpt>
      <trkpt lat="45.82962" lon="4.47052">
        <ele>694.8</ele>
        <time>2025-09-10T10:10:47Z</time>
      </trkpt>
      <trkpt lat="45.82964" lon="4.47054">
        <ele>694.8</ele>
        <time>2025-09-10T10:10:48Z</time>
      </trkpt>
      <trkpt lat="45.82966" lon="4.47054">
        <ele>694.8</ele>
        <time>2025-09-10T10:10:49Z</time>
      </trkpt>
      <trkpt lat="45.82969" lon="4.47056">
        <ele>694.8</ele>
        <time>2025-09-10T10:10:50Z</time>
      </trkpt>
      <trkpt lat="45.82971" lon="4.47057">
        <ele>694.8</ele>
        <time>2025-09-10T10:10:51Z</time>
      </trkpt>
      <trkpt lat="45.82973" lon="4.47058">
        <ele>694.8</ele>
        <time>2025-09-10T10:10:52Z</time>
      </trkpt>
      <trkpt lat="45.82975" lon="4.4706">
        <ele>695</ele>
        <time>2025-09-10T10:10:53Z</time>
      </trkpt>
      <trkpt lat="45.82978" lon="4.47062">
        <ele>695</ele>
        <time>2025-09-10T10:10:54Z</time>
      </trkpt>
      <trkpt lat="45.8298" lon="4.47064">
        <ele>695</ele>
        <time>2025-09-10T10:10:55Z</time>
      </trkpt>
      <trkpt lat="45.82982" lon="4.47066">
        <ele>695.2</ele>
        <time>2025-09-10T10:10:56Z</time>
      </trkpt>
      <trkpt lat="45.82984" lon="4.47069">
        <ele>695.2</ele>
        <time>2025-09-10T10:10:57Z</time>
      </trkpt>
      <trkpt lat="45.82986" lon="4.47071">
        <ele>695.2</ele>
        <time>2025-09-10T10:10:58Z</time>
      </trkpt>
      <trkpt lat="45.82988" lon="4.47073">
        <ele>695.2</ele>
        <time>2025-09-10T10:10:59Z</time>
      </trkpt>
      <trkpt lat="45.8299" lon="4.47076">
        <ele>695.2</ele>
        <time>2025-09-10T10:11:00Z</time>
      </trkpt>
      <trkpt lat="45.82991" lon="4.47079">
        <ele>695.6</ele>
        <time>2025-09-10T10:11:01Z</time>
      </trkpt>
      <trkpt lat="45.82993" lon="4.47081">
        <ele>695.8</ele>
        <time>2025-09-10T10:11:02Z</time>
      </trkpt>
      <trkpt lat="45.82994" lon="4.47084">
        <ele>695.8</ele>
        <time>2025-09-10T10:11:03Z</time>
      </trkpt>
      <trkpt lat="45.82996" lon="4.47087">
        <ele>695.8</ele>
        <time>2025-09-10T10:11:04Z</time>
      </trkpt>
      <trkpt lat="45.82998" lon="4.47091">
        <ele>695.8</ele>
        <time>2025-09-10T10:11:05Z</time>
      </trkpt>
      <trkpt lat="45.82999" lon="4.47094">
        <ele>695.4</ele>
        <time>2025-09-10T10:11:06Z</time>
      </trkpt>
      <trkpt lat="45.83001" lon="4.47097">
        <ele>695.6</ele>
        <time>2025-09-10T10:11:07Z</time>
      </trkpt>
      <trkpt lat="45.83003" lon="4.471">
        <ele>695.6</ele>
        <time>2025-09-10T10:11:08Z</time>
      </trkpt>
      <trkpt lat="45.83004" lon="4.47103">
        <ele>695.6</ele>
        <time>2025-09-10T10:11:09Z</time>
      </trkpt>
      <trkpt lat="45.83006" lon="4.47107">
        <ele>695.6</ele>
        <time>2025-09-10T10:11:10Z</time>
      </trkpt>
      <trkpt lat="45.83007" lon="4.4711">
        <ele>695.2</ele>
        <time>2025-09-10T10:11:11Z</time>
      </trkpt>
      <trkpt lat="45.83008" lon="4.47113">
        <ele>695.6</ele>
        <time>2025-09-10T10:11:12Z</time>
      </trkpt>
      <trkpt lat="45.83009" lon="4.47116">
        <ele>695.6</ele>
        <time>2025-09-10T10:11:13Z</time>
      </trkpt>
      <trkpt lat="45.8301" lon="4.47119">
        <ele>696.8</ele>
        <time>2025-09-10T10:11:14Z</time>
      </trkpt>
      <trkpt lat="45.83011" lon="4.47122">
        <ele>696.8</ele>
        <time>2025-09-10T10:11:15Z</time>
      </trkpt>
      <trkpt lat="45.83012" lon="4.47125">
        <ele>696.8</ele>
        <time>2025-09-10T10:11:16Z</time>
      </trkpt>
      <trkpt lat="45.83012" lon="4.47129">
        <ele>696.8</ele>
        <time>2025-09-10T10:11:17Z</time>
      </trkpt>
      <trkpt lat="45.83013" lon="4.47132">
        <ele>696.8</ele>
        <time>2025-09-10T10:11:18Z</time>
      </trkpt>
      <trkpt lat="45.83014" lon="4.47136">
        <ele>696.2</ele>
        <time>2025-09-10T10:11:19Z</time>
      </trkpt>
      <trkpt lat="45.83014" lon="4.47139">
        <ele>696.2</ele>
        <time>2025-09-10T10:11:20Z</time>
      </trkpt>
      <trkpt lat="45.83015" lon="4.47143">
        <ele>697.2</ele>
        <time>2025-09-10T10:11:21Z</time>
      </trkpt>
      <trkpt lat="45.83016" lon="4.47147">
        <ele>697.2</ele>
        <time>2025-09-10T10:11:22Z</time>
      </trkpt>
      <trkpt lat="45.83017" lon="4.47151">
        <ele>697.2</ele>
        <time>2025-09-10T10:11:23Z</time>
      </trkpt>
      <trkpt lat="45.83018" lon="4.47154">
        <ele>697.2</ele>
        <time>2025-09-10T10:11:24Z</time>
      </trkpt>
      <trkpt lat="45.83018" lon="4.47158">
        <ele>697.2</ele>
        <time>2025-09-10T10:11:25Z</time>
      </trkpt>
      <trkpt lat="45.83019" lon="4.47161">
        <ele>697.2</ele>
        <time>2025-09-10T10:11:26Z</time>
      </trkpt>
      <trkpt lat="45.83019" lon="4.47164">
        <ele>697.2</ele>
        <time>2025-09-10T10:11:27Z</time>
      </trkpt>
      <trkpt lat="45.83019" lon="4.47168">
        <ele>697.2</ele>
        <time>2025-09-10T10:11:28Z</time>
      </trkpt>
      <trkpt lat="45.8302" lon="4.47172">
        <ele>697.2</ele>
        <time>2025-09-10T10:11:29Z</time>
      </trkpt>
      <trkpt lat="45.8302" lon="4.47175">
        <ele>697.4</ele>
        <time>2025-09-10T10:11:30Z</time>
      </trkpt>
      <trkpt lat="45.83021" lon="4.47179">
        <ele>697.4</ele>
        <time>2025-09-10T10:11:31Z</time>
      </trkpt>
      <trkpt lat="45.83021" lon="4.47183">
        <ele>697.4</ele>
        <time>2025-09-10T10:11:32Z</time>
      </trkpt>
      <trkpt lat="45.83022" lon="4.47187">
        <ele>697.4</ele>
        <time>2025-09-10T10:11:33Z</time>
      </trkpt>
      <trkpt lat="45.83023" lon="4.47191">
        <ele>697.8</ele>
        <time>2025-09-10T10:11:34Z</time>
      </trkpt>
      <trkpt lat="45.83023" lon="4.47194">
        <ele>697.8</ele>
        <time>2025-09-10T10:11:35Z</time>
      </trkpt>
      <trkpt lat="45.83024" lon="4.47199">
        <ele>697.8</ele>
        <time>2025-09-10T10:11:36Z</time>
      </trkpt>
      <trkpt lat="45.83025" lon="4.47203">
        <ele>697.8</ele>
        <time>2025-09-10T10:11:37Z</time>
      </trkpt>
      <trkpt lat="45.83026" lon="4.47207">
        <ele>698</ele>
        <time>2025-09-10T10:11:38Z</time>
      </trkpt>
      <trkpt lat="45.83027" lon="4.47211">
        <ele>698</ele>
        <time>2025-09-10T10:11:39Z</time>
      </trkpt>
      <trkpt lat="45.83027" lon="4.47215">
        <ele>698</ele>
        <time>2025-09-10T10:11:40Z</time>
      </trkpt>
      <trkpt lat="45.83028" lon="4.47218">
        <ele>698.4</ele>
        <time>2025-09-10T10:11:41Z</time>
      </trkpt>
      <trkpt lat="45.83028" lon="4.47222">
        <ele>698.4</ele>
        <time>2025-09-10T10:11:42Z</time>
      </trkpt>
      <trkpt lat="45.83029" lon="4.47226">
        <ele>698.4</ele>
        <time>2025-09-10T10:11:43Z</time>
      </trkpt>
      <trkpt lat="45.8303" lon="4.47231">
        <ele>698.4</ele>
        <time>2025-09-10T10:11:44Z</time>
      </trkpt>
      <trkpt lat="45.83031" lon="4.47235">
        <ele>698.6</ele>
        <time>2025-09-10T10:11:45Z</time>
      </trkpt>
      <trkpt lat="45.83032" lon="4.47239">
        <ele>698.6</ele>
        <time>2025-09-10T10:11:46Z</time>
      </trkpt>
      <trkpt lat="45.83032" lon="4.47243">
        <ele>698.6</ele>
        <time>2025-09-10T10:11:47Z</time>
      </trkpt>
      <trkpt lat="45.83033" lon="4.47247">
        <ele>698.8</ele>
        <time>2025-09-10T10:11:48Z</time>
      </trkpt>
      <trkpt lat="45.83035" lon="4.47252">
        <ele>698.8</ele>
        <time>2025-09-10T10:11:49Z</time>
      </trkpt>
      <trkpt lat="45.83036" lon="4.47256">
        <ele>699</ele>
        <time>2025-09-10T10:11:50Z</time>
      </trkpt>
      <trkpt lat="45.83037" lon="4.4726">
        <ele>699</ele>
        <time>2025-09-10T10:11:51Z</time>
      </trkpt>
      <trkpt lat="45.83038" lon="4.47264">
        <ele>699.4</ele>
        <time>2025-09-10T10:11:52Z</time>
      </trkpt>
      <trkpt lat="45.83039" lon="4.47268">
        <ele>699.4</ele>
        <time>2025-09-10T10:11:53Z</time>
      </trkpt>
      <trkpt lat="45.83041" lon="4.47272">
        <ele>699.4</ele>
        <time>2025-09-10T10:11:54Z</time>
      </trkpt>
      <trkpt lat="45.83042" lon="4.47275">
        <ele>699.4</ele>
        <time>2025-09-10T10:11:55Z</time>
      </trkpt>
      <trkpt lat="45.83044" lon="4.47278">
        <ele>699.4</ele>
        <time>2025-09-10T10:11:56Z</time>
      </trkpt>
      <trkpt lat="45.83045" lon="4.47282">
        <ele>699.4</ele>
        <time>2025-09-10T10:11:57Z</time>
      </trkpt>
      <trkpt lat="45.83047" lon="4.47286">
        <ele>699.4</ele>
        <time>2025-09-10T10:11:58Z</time>
      </trkpt>
      <trkpt lat="45.83048" lon="4.47289">
        <ele>699.4</ele>
        <time>2025-09-10T10:11:59Z</time>
      </trkpt>
      <trkpt lat="45.83049" lon="4.47293">
        <ele>699.8</ele>
        <time>2025-09-10T10:12:00Z</time>
      </trkpt>
      <trkpt lat="45.8305" lon="4.47296">
        <ele>699.8</ele>
        <time>2025-09-10T10:12:01Z</time>
      </trkpt>
      <trkpt lat="45.83052" lon="4.473">
        <ele>699.8</ele>
        <time>2025-09-10T10:12:02Z</time>
      </trkpt>
      <trkpt lat="45.83053" lon="4.47304">
        <ele>700</ele>
        <time>2025-09-10T10:12:03Z</time>
      </trkpt>
      <trkpt lat="45.83055" lon="4.47308">
        <ele>700</ele>
        <time>2025-09-10T10:12:04Z</time>
      </trkpt>
      <trkpt lat="45.83056" lon="4.47312">
        <ele>700.2</ele>
        <time>2025-09-10T10:12:05Z</time>
      </trkpt>
      <trkpt lat="45.83057" lon="4.47316">
        <ele>700.2</ele>
        <time>2025-09-10T10:12:06Z</time>
      </trkpt>
      <trkpt lat="45.83058" lon="4.4732">
        <ele>700.2</ele>
        <time>2025-09-10T10:12:07Z</time>
      </trkpt>
      <trkpt lat="45.8306" lon="4.47323">
        <ele>700.2</ele>
        <time>2025-09-10T10:12:08Z</time>
      </trkpt>
      <trkpt lat="45.83061" lon="4.47327">
        <ele>700.6</ele>
        <time>2025-09-10T10:12:09Z</time>
      </trkpt>
      <trkpt lat="45.83063" lon="4.4733">
        <ele>700.6</ele>
        <time>2025-09-10T10:12:10Z</time>
      </trkpt>
      <trkpt lat="45.83065" lon="4.47333">
        <ele>700.6</ele>
        <time>2025-09-10T10:12:11Z</time>
      </trkpt>
      <trkpt lat="45.83066" lon="4.47336">
        <ele>700.6</ele>
        <time>2025-09-10T10:12:12Z</time>
      </trkpt>
      <trkpt lat="45.83067" lon="4.47339">
        <ele>700.6</ele>
        <time>2025-09-10T10:12:13Z</time>
      </trkpt>
      <trkpt lat="45.83069" lon="4.47343">
        <ele>701</ele>
        <time>2025-09-10T10:12:14Z</time>
      </trkpt>
      <trkpt lat="45.8307" lon="4.47346">
        <ele>701</ele>
        <time>2025-09-10T10:12:15Z</time>
      </trkpt>
      <trkpt lat="45.83071" lon="4.4735">
        <ele>701</ele>
        <time>2025-09-10T10:12:16Z</time>
      </trkpt>
      <trkpt lat="45.83073" lon="4.47353">
        <ele>701</ele>
        <time>2025-09-10T10:12:17Z</time>
      </trkpt>
      <trkpt lat="45.83074" lon="4.47356">
        <ele>701</ele>
        <time>2025-09-10T10:12:18Z</time>
      </trkpt>
      <trkpt lat="45.83076" lon="4.4736">
        <ele>701</ele>
        <time>2025-09-10T10:12:19Z</time>
      </trkpt>
      <trkpt lat="45.83077" lon="4.47363">
        <ele>701.2</ele>
        <time>2025-09-10T10:12:20Z</time>
      </trkpt>
      <trkpt lat="45.83079" lon="4.47366">
        <ele>701.2</ele>
        <time>2025-09-10T10:12:21Z</time>
      </trkpt>
      <trkpt lat="45.8308" lon="4.4737">
        <ele>701.4</ele>
        <time>2025-09-10T10:12:22Z</time>
      </trkpt>
      <trkpt lat="45.83082" lon="4.47373">
        <ele>701.6</ele>
        <time>2025-09-10T10:12:23Z</time>
      </trkpt>
      <trkpt lat="45.83083" lon="4.47376">
        <ele>701.6</ele>
        <time>2025-09-10T10:12:24Z</time>
      </trkpt>
      <trkpt lat="45.83085" lon="4.47379">
        <ele>701.8</ele>
        <time>2025-09-10T10:12:25Z</time>
      </trkpt>
      <trkpt lat="45.83086" lon="4.47382">
        <ele>701.8</ele>
        <time>2025-09-10T10:12:26Z</time>
      </trkpt>
      <trkpt lat="45.83088" lon="4.47384">
        <ele>702</ele>
        <time>2025-09-10T10:12:27Z</time>
      </trkpt>
      <trkpt lat="45.83089" lon="4.47387">
        <ele>702</ele>
        <time>2025-09-10T10:12:28Z</time>
      </trkpt>
      <trkpt lat="45.83091" lon="4.4739">
        <ele>702</ele>
        <time>2025-09-10T10:12:29Z</time>
      </trkpt>
      <trkpt lat="45.83094" lon="4.47395">
        <ele>702</ele>
        <time>2025-09-10T10:12:30Z</time>
      </trkpt>
      <trkpt lat="45.83096" lon="4.47397">
        <ele>702</ele>
        <time>2025-09-10T10:12:31Z</time>
      </trkpt>
      <trkpt lat="45.83098" lon="4.474">
        <ele>702</ele>
        <time>2025-09-10T10:12:32Z</time>
      </trkpt>
      <trkpt lat="45.831" lon="4.47402">
        <ele>702</ele>
        <time>2025-09-10T10:12:33Z</time>
      </trkpt>
      <trkpt lat="45.83102" lon="4.47404">
        <ele>702.4</ele>
        <time>2025-09-10T10:12:34Z</time>
      </trkpt>
      <trkpt lat="45.83104" lon="4.47406">
        <ele>702.4</ele>
        <time>2025-09-10T10:12:35Z</time>
      </trkpt>
      <trkpt lat="45.83106" lon="4.47408">
        <ele>702.6</ele>
        <time>2025-09-10T10:12:36Z</time>
      </trkpt>
      <trkpt lat="45.83108" lon="4.47411">
        <ele>702.6</ele>
        <time>2025-09-10T10:12:37Z</time>
      </trkpt>
      <trkpt lat="45.83109" lon="4.47413">
        <ele>702.6</ele>
        <time>2025-09-10T10:12:38Z</time>
      </trkpt>
      <trkpt lat="45.83111" lon="4.47415">
        <ele>702.6</ele>
        <time>2025-09-10T10:12:39Z</time>
      </trkpt>
      <trkpt lat="45.83113" lon="4.47417">
        <ele>702.6</ele>
        <time>2025-09-10T10:12:40Z</time>
      </trkpt>
      <trkpt lat="45.83115" lon="4.47419">
        <ele>702.6</ele>
        <time>2025-09-10T10:12:41Z</time>
      </trkpt>
      <trkpt lat="45.83117" lon="4.47421">
        <ele>702.8</ele>
        <time>2025-09-10T10:12:42Z</time>
      </trkpt>
      <trkpt lat="45.83119" lon="4.47423">
        <ele>702.8</ele>
        <time>2025-09-10T10:12:43Z</time>
      </trkpt>
      <trkpt lat="45.83121" lon="4.47425">
        <ele>702.8</ele>
        <time>2025-09-10T10:12:44Z</time>
      </trkpt>
      <trkpt lat="45.83123" lon="4.47427">
        <ele>702.8</ele>
        <time>2025-09-10T10:12:45Z</time>
      </trkpt>
      <trkpt lat="45.83126" lon="4.47429">
        <ele>702.8</ele>
        <time>2025-09-10T10:12:46Z</time>
      </trkpt>
      <trkpt lat="45.83129" lon="4.47431">
        <ele>703.2</ele>
        <time>2025-09-10T10:12:47Z</time>
      </trkpt>
      <trkpt lat="45.83129" lon="4.47431">
        <ele>703.2</ele>
        <time>2025-09-10T10:12:48Z</time>
      </trkpt>
      <trkpt lat="45.83132" lon="4.47433">
        <ele>703.2</ele>
        <time>2025-09-10T10:12:49Z</time>
      </trkpt>
      <trkpt lat="45.83134" lon="4.47436">
        <ele>703.2</ele>
        <time>2025-09-10T10:12:50Z</time>
      </trkpt>
      <trkpt lat="45.83137" lon="4.47438">
        <ele>703.2</ele>
        <time>2025-09-10T10:12:51Z</time>
      </trkpt>
      <trkpt lat="45.8314" lon="4.47441">
        <ele>703.2</ele>
        <time>2025-09-10T10:12:52Z</time>
      </trkpt>
      <trkpt lat="45.83142" lon="4.47445">
        <ele>703.2</ele>
        <time>2025-09-10T10:12:53Z</time>
      </trkpt>
      <trkpt lat="45.83145" lon="4.47447">
        <ele>703.4</ele>
        <time>2025-09-10T10:12:54Z</time>
      </trkpt>
      <trkpt lat="45.83148" lon="4.4745">
        <ele>703.4</ele>
        <time>2025-09-10T10:12:55Z</time>
      </trkpt>
      <trkpt lat="45.8315" lon="4.47454">
        <ele>703.8</ele>
        <time>2025-09-10T10:12:56Z</time>
      </trkpt>
      <trkpt lat="45.83153" lon="4.47457">
        <ele>703.8</ele>
        <time>2025-09-10T10:12:57Z</time>
      </trkpt>
      <trkpt lat="45.83155" lon="4.4746">
        <ele>703.8</ele>
        <time>2025-09-10T10:12:58Z</time>
      </trkpt>
      <trkpt lat="45.83158" lon="4.47463">
        <ele>703.8</ele>
        <time>2025-09-10T10:12:59Z</time>
      </trkpt>
      <trkpt lat="45.8316" lon="4.47466">
        <ele>703.8</ele>
        <time>2025-09-10T10:13:00Z</time>
      </trkpt>
      <trkpt lat="45.83163" lon="4.47469">
        <ele>703.8</ele>
        <time>2025-09-10T10:13:01Z</time>
      </trkpt>
      <trkpt lat="45.83165" lon="4.47472">
        <ele>703.8</ele>
        <time>2025-09-10T10:13:02Z</time>
      </trkpt>
      <trkpt lat="45.83168" lon="4.47475">
        <ele>704</ele>
        <time>2025-09-10T10:13:03Z</time>
      </trkpt>
      <trkpt lat="45.8317" lon="4.47478">
        <ele>704</ele>
        <time>2025-09-10T10:13:04Z</time>
      </trkpt>
      <trkpt lat="45.83173" lon="4.47481">
        <ele>704</ele>
        <time>2025-09-10T10:13:05Z</time>
      </trkpt>
      <trkpt lat="45.83175" lon="4.47483">
        <ele>704.4</ele>
        <time>2025-09-10T10:13:06Z</time>
      </trkpt>
      <trkpt lat="45.83177" lon="4.47487">
        <ele>704.4</ele>
        <time>2025-09-10T10:13:07Z</time>
      </trkpt>
      <trkpt lat="45.83179" lon="4.4749">
        <ele>704.6</ele>
        <time>2025-09-10T10:13:08Z</time>
      </trkpt>
      <trkpt lat="45.83181" lon="4.47493">
        <ele>704.6</ele>
        <time>2025-09-10T10:13:09Z</time>
      </trkpt>
      <trkpt lat="45.83183" lon="4.47496">
        <ele>704.6</ele>
        <time>2025-09-10T10:13:10Z</time>
      </trkpt>
      <trkpt lat="45.83185" lon="4.475">
        <ele>704.8</ele>
        <time>2025-09-10T10:13:11Z</time>
      </trkpt>
      <trkpt lat="45.83187" lon="4.47503">
        <ele>704.8</ele>
        <time>2025-09-10T10:13:12Z</time>
      </trkpt>
      <trkpt lat="45.83189" lon="4.47507">
        <ele>704.8</ele>
        <time>2025-09-10T10:13:13Z</time>
      </trkpt>
      <trkpt lat="45.83191" lon="4.47511">
        <ele>704.8</ele>
        <time>2025-09-10T10:13:14Z</time>
      </trkpt>
      <trkpt lat="45.83193" lon="4.47514">
        <ele>705</ele>
        <time>2025-09-10T10:13:15Z</time>
      </trkpt>
      <trkpt lat="45.83194" lon="4.47518">
        <ele>705</ele>
        <time>2025-09-10T10:13:16Z</time>
      </trkpt>
      <trkpt lat="45.83195" lon="4.47522">
        <ele>705</ele>
        <time>2025-09-10T10:13:17Z</time>
      </trkpt>
      <trkpt lat="45.83196" lon="4.47526">
        <ele>705</ele>
        <time>2025-09-10T10:13:18Z</time>
      </trkpt>
      <trkpt lat="45.83197" lon="4.47529">
        <ele>705.2</ele>
        <time>2025-09-10T10:13:19Z</time>
      </trkpt>
      <trkpt lat="45.83198" lon="4.47533">
        <ele>705.2</ele>
        <time>2025-09-10T10:13:20Z</time>
      </trkpt>
      <trkpt lat="45.83199" lon="4.47537">
        <ele>705.4</ele>
        <time>2025-09-10T10:13:21Z</time>
      </trkpt>
      <trkpt lat="45.832" lon="4.47541">
        <ele>705.4</ele>
        <time>2025-09-10T10:13:22Z</time>
      </trkpt>
      <trkpt lat="45.83201" lon="4.47545">
        <ele>705.4</ele>
        <time>2025-09-10T10:13:23Z</time>
      </trkpt>
      <trkpt lat="45.83201" lon="4.47549">
        <ele>705.8</ele>
        <time>2025-09-10T10:13:24Z</time>
      </trkpt>
      <trkpt lat="45.83201" lon="4.47554">
        <ele>705.8</ele>
        <time>2025-09-10T10:13:25Z</time>
      </trkpt>
      <trkpt lat="45.83201" lon="4.47559">
        <ele>705.8</ele>
        <time>2025-09-10T10:13:26Z</time>
      </trkpt>
      <trkpt lat="45.83201" lon="4.47563">
        <ele>705.8</ele>
        <time>2025-09-10T10:13:27Z</time>
      </trkpt>
      <trkpt lat="45.83201" lon="4.47567">
        <ele>706</ele>
        <time>2025-09-10T10:13:28Z</time>
      </trkpt>
      <trkpt lat="45.83201" lon="4.47572">
        <ele>706</ele>
        <time>2025-09-10T10:13:29Z</time>
      </trkpt>
      <trkpt lat="45.83201" lon="4.47576">
        <ele>706</ele>
        <time>2025-09-10T10:13:30Z</time>
      </trkpt>
      <trkpt lat="45.832" lon="4.4758">
        <ele>706</ele>
        <time>2025-09-10T10:13:31Z</time>
      </trkpt>
      <trkpt lat="45.83199" lon="4.47585">
        <ele>706</ele>
        <time>2025-09-10T10:13:32Z</time>
      </trkpt>
      <trkpt lat="45.83199" lon="4.47589">
        <ele>706.2</ele>
        <time>2025-09-10T10:13:33Z</time>
      </trkpt>
      <trkpt lat="45.83199" lon="4.47593">
        <ele>706.2</ele>
        <time>2025-09-10T10:13:34Z</time>
      </trkpt>
      <trkpt lat="45.83199" lon="4.47596">
        <ele>706.2</ele>
        <time>2025-09-10T10:13:35Z</time>
      </trkpt>
      <trkpt lat="45.83199" lon="4.476">
        <ele>706.2</ele>
        <time>2025-09-10T10:13:36Z</time>
      </trkpt>
      <trkpt lat="45.83199" lon="4.47604">
        <ele>706.6</ele>
        <time>2025-09-10T10:13:37Z</time>
      </trkpt>
      <trkpt lat="45.832" lon="4.47608">
        <ele>706.8</ele>
        <time>2025-09-10T10:13:38Z</time>
      </trkpt>
      <trkpt lat="45.832" lon="4.47612">
        <ele>706.8</ele>
        <time>2025-09-10T10:13:39Z</time>
      </trkpt>
      <trkpt lat="45.832" lon="4.47616">
        <ele>706.8</ele>
        <time>2025-09-10T10:13:40Z</time>
      </trkpt>
      <trkpt lat="45.83201" lon="4.47621">
        <ele>706.8</ele>
        <time>2025-09-10T10:13:41Z</time>
      </trkpt>
      <trkpt lat="45.83201" lon="4.47625">
        <ele>706.8</ele>
        <time>2025-09-10T10:13:42Z</time>
      </trkpt>
      <trkpt lat="45.83201" lon="4.47629">
        <ele>706.8</ele>
        <time>2025-09-10T10:13:43Z</time>
      </trkpt>
      <trkpt lat="45.83202" lon="4.47634">
        <ele>706.8</ele>
        <time>2025-09-10T10:13:44Z</time>
      </trkpt>
      <trkpt lat="45.83203" lon="4.47638">
        <ele>706.8</ele>
        <time>2025-09-10T10:13:45Z</time>
      </trkpt>
      <trkpt lat="45.83203" lon="4.47643">
        <ele>706.4</ele>
        <time>2025-09-10T10:13:46Z</time>
      </trkpt>
      <trkpt lat="45.83204" lon="4.47647">
        <ele>706.4</ele>
        <time>2025-09-10T10:13:47Z</time>
      </trkpt>
      <trkpt lat="45.83205" lon="4.47652">
        <ele>706.4</ele>
        <time>2025-09-10T10:13:48Z</time>
      </trkpt>
      <trkpt lat="45.83206" lon="4.47657">
        <ele>706.6</ele>
        <time>2025-09-10T10:13:49Z</time>
      </trkpt>
      <trkpt lat="45.83207" lon="4.47662">
        <ele>706.6</ele>
        <time>2025-09-10T10:13:50Z</time>
      </trkpt>
      <trkpt lat="45.83209" lon="4.47667">
        <ele>706.6</ele>
        <time>2025-09-10T10:13:51Z</time>
      </trkpt>
      <trkpt lat="45.8321" lon="4.47672">
        <ele>706.6</ele>
        <time>2025-09-10T10:13:52Z</time>
      </trkpt>
      <trkpt lat="45.83212" lon="4.47676">
        <ele>707</ele>
        <time>2025-09-10T10:13:53Z</time>
      </trkpt>
      <trkpt lat="45.83214" lon="4.47681">
        <ele>707</ele>
        <time>2025-09-10T10:13:54Z</time>
      </trkpt>
      <trkpt lat="45.83215" lon="4.47685">
        <ele>707</ele>
        <time>2025-09-10T10:13:55Z</time>
      </trkpt>
      <trkpt lat="45.83217" lon="4.4769">
        <ele>707.2</ele>
        <time>2025-09-10T10:13:56Z</time>
      </trkpt>
      <trkpt lat="45.83219" lon="4.47695">
        <ele>707.2</ele>
        <time>2025-09-10T10:13:57Z</time>
      </trkpt>
      <trkpt lat="45.83221" lon="4.47699">
        <ele>707.2</ele>
        <time>2025-09-10T10:13:58Z</time>
      </trkpt>
      <trkpt lat="45.83222" lon="4.47703">
        <ele>707.2</ele>
        <time>2025-09-10T10:13:59Z</time>
      </trkpt>
      <trkpt lat="45.83224" lon="4.47707">
        <ele>707.4</ele>
        <time>2025-09-10T10:14:00Z</time>
      </trkpt>
      <trkpt lat="45.83226" lon="4.47711">
        <ele>707.4</ele>
        <time>2025-09-10T10:14:01Z</time>
      </trkpt>
      <trkpt lat="45.83227" lon="4.47715">
        <ele>707.4</ele>
        <time>2025-09-10T10:14:02Z</time>
      </trkpt>
      <trkpt lat="45.83229" lon="4.4772">
        <ele>707.4</ele>
        <time>2025-09-10T10:14:03Z</time>
      </trkpt>
      <trkpt lat="45.8323" lon="4.47724">
        <ele>707.6</ele>
        <time>2025-09-10T10:14:04Z</time>
      </trkpt>
      <trkpt lat="45.83232" lon="4.47727">
        <ele>707.6</ele>
        <time>2025-09-10T10:14:05Z</time>
      </trkpt>
      <trkpt lat="45.83233" lon="4.47731">
        <ele>707.6</ele>
        <time>2025-09-10T10:14:06Z</time>
      </trkpt>
      <trkpt lat="45.83235" lon="4.47735">
        <ele>707.6</ele>
        <time>2025-09-10T10:14:07Z</time>
      </trkpt>
      <trkpt lat="45.83236" lon="4.47739">
        <ele>707.8</ele>
        <time>2025-09-10T10:14:08Z</time>
      </trkpt>
      <trkpt lat="45.83237" lon="4.47743">
        <ele>707.8</ele>
        <time>2025-09-10T10:14:09Z</time>
      </trkpt>
      <trkpt lat="45.83238" lon="4.47747">
        <ele>708.2</ele>
        <time>2025-09-10T10:14:10Z</time>
      </trkpt>
      <trkpt lat="45.8324" lon="4.4775">
        <ele>708.2</ele>
        <time>2025-09-10T10:14:11Z</time>
      </trkpt>
      <trkpt lat="45.83241" lon="4.47754">
        <ele>708.4</ele>
        <time>2025-09-10T10:14:12Z</time>
      </trkpt>
      <trkpt lat="45.83242" lon="4.47758">
        <ele>708.4</ele>
        <time>2025-09-10T10:14:13Z</time>
      </trkpt>
      <trkpt lat="45.83243" lon="4.47763">
        <ele>708.4</ele>
        <time>2025-09-10T10:14:14Z</time>
      </trkpt>
      <trkpt lat="45.83244" lon="4.47766">
        <ele>708.6</ele>
        <time>2025-09-10T10:14:15Z</time>
      </trkpt>
      <trkpt lat="45.83244" lon="4.4777">
        <ele>708.6</ele>
        <time>2025-09-10T10:14:16Z</time>
      </trkpt>
      <trkpt lat="45.83245" lon="4.47773">
        <ele>708.6</ele>
        <time>2025-09-10T10:14:17Z</time>
      </trkpt>
      <trkpt lat="45.83246" lon="4.47776">
        <ele>708.6</ele>
        <time>2025-09-10T10:14:18Z</time>
      </trkpt>
      <trkpt lat="45.83247" lon="4.47779">
        <ele>709</ele>
        <time>2025-09-10T10:14:19Z</time>
      </trkpt>
      <trkpt lat="45.83248" lon="4.47781">
        <ele>709</ele>
        <time>2025-09-10T10:14:20Z</time>
      </trkpt>
      <trkpt lat="45.83248" lon="4.47785">
        <ele>709</ele>
        <time>2025-09-10T10:14:21Z</time>
      </trkpt>
      <trkpt lat="45.83247" lon="4.47788">
        <ele>709.2</ele>
        <time>2025-09-10T10:14:22Z</time>
      </trkpt>
      <trkpt lat="45.83245" lon="4.47791">
        <ele>709.6</ele>
        <time>2025-09-10T10:14:23Z</time>
      </trkpt>
      <trkpt lat="45.83243" lon="4.47791">
        <ele>709.6</ele>
        <time>2025-09-10T10:14:24Z</time>
      </trkpt>
      <trkpt lat="45.83241" lon="4.47791">
        <ele>710</ele>
        <time>2025-09-10T10:14:25Z</time>
      </trkpt>
      <trkpt lat="45.83238" lon="4.47789">
        <ele>710</ele>
        <time>2025-09-10T10:14:26Z</time>
      </trkpt>
      <trkpt lat="45.83237" lon="4.47787">
        <ele>710.2</ele>
        <time>2025-09-10T10:14:27Z</time>
      </trkpt>
      <trkpt lat="45.83235" lon="4.47784">
        <ele>710.2</ele>
        <time>2025-09-10T10:14:28Z</time>
      </trkpt>
      <trkpt lat="45.83233" lon="4.47782">
        <ele>710.6</ele>
        <time>2025-09-10T10:14:29Z</time>
      </trkpt>
      <trkpt lat="45.83231" lon="4.4778">
        <ele>710.6</ele>
        <time>2025-09-10T10:14:30Z</time>
      </trkpt>
      <trkpt lat="45.83229" lon="4.47778">
        <ele>710.6</ele>
        <time>2025-09-10T10:14:31Z</time>
      </trkpt>
      <trkpt lat="45.83227" lon="4.47777">
        <ele>710.8</ele>
        <time>2025-09-10T10:14:32Z</time>
      </trkpt>
      <trkpt lat="45.83225" lon="4.47775">
        <ele>710.8</ele>
        <time>2025-09-10T10:14:33Z</time>
      </trkpt>
      <trkpt lat="45.83223" lon="4.47774">
        <ele>711</ele>
        <time>2025-09-10T10:14:34Z</time>
      </trkpt>
      <trkpt lat="45.83222" lon="4.47772">
        <ele>711.2</ele>
        <time>2025-09-10T10:14:35Z</time>
      </trkpt>
      <trkpt lat="45.8322" lon="4.4777">
        <ele>711.2</ele>
        <time>2025-09-10T10:14:36Z</time>
      </trkpt>
      <trkpt lat="45.83219" lon="4.47769">
        <ele>711.6</ele>
        <time>2025-09-10T10:14:37Z</time>
      </trkpt>
      <trkpt lat="45.83217" lon="4.47768">
        <ele>711.6</ele>
        <time>2025-09-10T10:14:38Z</time>
      </trkpt>
      <trkpt lat="45.83216" lon="4.47767">
        <ele>711.8</ele>
        <time>2025-09-10T10:14:39Z</time>
      </trkpt>
      <trkpt lat="45.83214" lon="4.47766">
        <ele>711.8</ele>
        <time>2025-09-10T10:14:40Z</time>
      </trkpt>
      <trkpt lat="45.83213" lon="4.47764">
        <ele>712</ele>
        <time>2025-09-10T10:14:41Z</time>
      </trkpt>
      <trkpt lat="45.83211" lon="4.47763">
        <ele>712</ele>
        <time>2025-09-10T10:14:42Z</time>
      </trkpt>
      <trkpt lat="45.8321" lon="4.47762">
        <ele>712.4</ele>
        <time>2025-09-10T10:14:43Z</time>
      </trkpt>
      <trkpt lat="45.83208" lon="4.47762">
        <ele>712.4</ele>
        <time>2025-09-10T10:14:44Z</time>
      </trkpt>
      <trkpt lat="45.83207" lon="4.47761">
        <ele>712.4</ele>
        <time>2025-09-10T10:14:45Z</time>
      </trkpt>
      <trkpt lat="45.83205" lon="4.4776">
        <ele>712.6</ele>
        <time>2025-09-10T10:14:46Z</time>
      </trkpt>
      <trkpt lat="45.83204" lon="4.47759">
        <ele>712.6</ele>
        <time>2025-09-10T10:14:47Z</time>
      </trkpt>
      <trkpt lat="45.83203" lon="4.47759">
        <ele>712.8</ele>
        <time>2025-09-10T10:14:48Z</time>
      </trkpt>
      <trkpt lat="45.83201" lon="4.47758">
        <ele>712.8</ele>
        <time>2025-09-10T10:14:49Z</time>
      </trkpt>
      <trkpt lat="45.832" lon="4.47757">
        <ele>712.8</ele>
        <time>2025-09-10T10:14:50Z</time>
      </trkpt>
      <trkpt lat="45.83198" lon="4.47756">
        <ele>712.8</ele>
        <time>2025-09-10T10:14:51Z</time>
      </trkpt>
      <trkpt lat="45.83197" lon="4.47755">
        <ele>712.8</ele>
        <time>2025-09-10T10:14:52Z</time>
      </trkpt>
      <trkpt lat="45.83195" lon="4.47754">
        <ele>712.8</ele>
        <time>2025-09-10T10:14:53Z</time>
      </trkpt>
      <trkpt lat="45.83193" lon="4.47753">
        <ele>713.2</ele>
        <time>2025-09-10T10:14:54Z</time>
      </trkpt>
      <trkpt lat="45.83192" lon="4.47752">
        <ele>713.2</ele>
        <time>2025-09-10T10:14:55Z</time>
      </trkpt>
      <trkpt lat="45.8319" lon="4.47751">
        <ele>713.4</ele>
        <time>2025-09-10T10:14:56Z</time>
      </trkpt>
      <trkpt lat="45.83189" lon="4.47751">
        <ele>713.4</ele>
        <time>2025-09-10T10:14:57Z</time>
      </trkpt>
      <trkpt lat="45.83187" lon="4.4775">
        <ele>713.4</ele>
        <time>2025-09-10T10:14:58Z</time>
      </trkpt>
      <trkpt lat="45.83185" lon="4.4775">
        <ele>713.8</ele>
        <time>2025-09-10T10:14:59Z</time>
      </trkpt>
      <trkpt lat="45.83184" lon="4.47749">
        <ele>713.8</ele>
        <time>2025-09-10T10:15:00Z</time>
      </trkpt>
      <trkpt lat="45.83182" lon="4.47748">
        <ele>713.8</ele>
        <time>2025-09-10T10:15:01Z</time>
      </trkpt>
      <trkpt lat="45.8318" lon="4.47748">
        <ele>714.2</ele>
        <time>2025-09-10T10:15:02Z</time>
      </trkpt>
      <trkpt lat="45.83179" lon="4.47747">
        <ele>714.2</ele>
        <time>2025-09-10T10:15:03Z</time>
      </trkpt>
      <trkpt lat="45.83177" lon="4.47747">
        <ele>714.4</ele>
        <time>2025-09-10T10:15:04Z</time>
      </trkpt>
      <trkpt lat="45.83176" lon="4.47747">
        <ele>714.4</ele>
        <time>2025-09-10T10:15:05Z</time>
      </trkpt>
      <trkpt lat="45.83174" lon="4.47746">
        <ele>714.6</ele>
        <time>2025-09-10T10:15:06Z</time>
      </trkpt>
      <trkpt lat="45.83173" lon="4.47746">
        <ele>714.6</ele>
        <time>2025-09-10T10:15:07Z</time>
      </trkpt>
      <trkpt lat="45.83171" lon="4.47745">
        <ele>715</ele>
        <time>2025-09-10T10:15:08Z</time>
      </trkpt>
      <trkpt lat="45.8317" lon="4.47745">
        <ele>715</ele>
        <time>2025-09-10T10:15:09Z</time>
      </trkpt>
      <trkpt lat="45.83168" lon="4.47744">
        <ele>715</ele>
        <time>2025-09-10T10:15:10Z</time>
      </trkpt>
      <trkpt lat="45.83166" lon="4.47744">
        <ele>715.2</ele>
        <time>2025-09-10T10:15:11Z</time>
      </trkpt>
      <trkpt lat="45.83165" lon="4.47744">
        <ele>715.2</ele>
        <time>2025-09-10T10:15:12Z</time>
      </trkpt>
      <trkpt lat="45.83163" lon="4.47743">
        <ele>715.6</ele>
        <time>2025-09-10T10:15:13Z</time>
      </trkpt>
      <trkpt lat="45.83162" lon="4.47743">
        <ele>715.6</ele>
        <time>2025-09-10T10:15:14Z</time>
      </trkpt>
      <trkpt lat="45.8316" lon="4.47742">
        <ele>716</ele>
        <time>2025-09-10T10:15:15Z</time>
      </trkpt>
      <trkpt lat="45.83159" lon="4.47742">
        <ele>716</ele>
        <time>2025-09-10T10:15:16Z</time>
      </trkpt>
      <trkpt lat="45.83157" lon="4.47742">
        <ele>716.2</ele>
        <time>2025-09-10T10:15:17Z</time>
      </trkpt>
      <trkpt lat="45.83156" lon="4.47741">
        <ele>716.2</ele>
        <time>2025-09-10T10:15:18Z</time>
      </trkpt>
      <trkpt lat="45.83154" lon="4.4774">
        <ele>716.4</ele>
        <time>2025-09-10T10:15:19Z</time>
      </trkpt>
      <trkpt lat="45.83153" lon="4.4774">
        <ele>716.4</ele>
        <time>2025-09-10T10:15:20Z</time>
      </trkpt>
      <trkpt lat="45.83151" lon="4.47739">
        <ele>716.4</ele>
        <time>2025-09-10T10:15:21Z</time>
      </trkpt>
      <trkpt lat="45.83149" lon="4.47739">
        <ele>716.4</ele>
        <time>2025-09-10T10:15:22Z</time>
      </trkpt>
      <trkpt lat="45.83148" lon="4.47739">
        <ele>716.6</ele>
        <time>2025-09-10T10:15:23Z</time>
      </trkpt>
      <trkpt lat="45.83147" lon="4.47738">
        <ele>716.6</ele>
        <time>2025-09-10T10:15:24Z</time>
      </trkpt>
      <trkpt lat="45.83145" lon="4.47737">
        <ele>716.6</ele>
        <time>2025-09-10T10:15:25Z</time>
      </trkpt>
      <trkpt lat="45.83144" lon="4.47737">
        <ele>716.6</ele>
        <time>2025-09-10T10:15:26Z</time>
      </trkpt>
      <trkpt lat="45.83142" lon="4.47737">
        <ele>716.8</ele>
        <time>2025-09-10T10:15:27Z</time>
      </trkpt>
      <trkpt lat="45.83141" lon="4.47737">
        <ele>716.8</ele>
        <time>2025-09-10T10:15:28Z</time>
      </trkpt>
      <trkpt lat="45.8314" lon="4.47736">
        <ele>717</ele>
        <time>2025-09-10T10:15:29Z</time>
      </trkpt>
      <trkpt lat="45.83138" lon="4.47736">
        <ele>717</ele>
        <time>2025-09-10T10:15:30Z</time>
      </trkpt>
      <trkpt lat="45.83137" lon="4.47736">
        <ele>717.2</ele>
        <time>2025-09-10T10:15:31Z</time>
      </trkpt>
      <trkpt lat="45.83135" lon="4.47736">
        <ele>717.2</ele>
        <time>2025-09-10T10:15:32Z</time>
      </trkpt>
      <trkpt lat="45.83133" lon="4.47736">
        <ele>717.2</ele>
        <time>2025-09-10T10:15:33Z</time>
      </trkpt>
      <trkpt lat="45.83132" lon="4.47735">
        <ele>717.2</ele>
        <time>2025-09-10T10:15:34Z</time>
      </trkpt>
      <trkpt lat="45.8313" lon="4.47734">
        <ele>717.2</ele>
        <time>2025-09-10T10:15:35Z</time>
      </trkpt>
      <trkpt lat="45.83128" lon="4.47733">
        <ele>717.2</ele>
        <time>2025-09-10T10:15:36Z</time>
      </trkpt>
      <trkpt lat="45.83127" lon="4.47733">
        <ele>717.6</ele>
        <time>2025-09-10T10:15:37Z</time>
      </trkpt>
      <trkpt lat="45.83125" lon="4.47733">
        <ele>717.6</ele>
        <time>2025-09-10T10:15:38Z</time>
      </trkpt>
      <trkpt lat="45.83124" lon="4.47733">
        <ele>717.8</ele>
        <time>2025-09-10T10:15:39Z</time>
      </trkpt>
      <trkpt lat="45.83122" lon="4.47732">
        <ele>717.8</ele>
        <time>2025-09-10T10:15:40Z</time>
      </trkpt>
      <trkpt lat="45.83121" lon="4.47732">
        <ele>717.8</ele>
        <time>2025-09-10T10:15:41Z</time>
      </trkpt>
      <trkpt lat="45.83119" lon="4.47732">
        <ele>718</ele>
        <time>2025-09-10T10:15:42Z</time>
      </trkpt>
      <trkpt lat="45.83118" lon="4.47731">
        <ele>718.4</ele>
        <time>2025-09-10T10:15:43Z</time>
      </trkpt>
      <trkpt lat="45.83116" lon="4.47731">
        <ele>718.4</ele>
        <time>2025-09-10T10:15:44Z</time>
      </trkpt>
      <trkpt lat="45.83114" lon="4.4773">
        <ele>718.8</ele>
        <time>2025-09-10T10:15:45Z</time>
      </trkpt>
      <trkpt lat="45.83113" lon="4.47729">
        <ele>718.8</ele>
        <time>2025-09-10T10:15:46Z</time>
      </trkpt>
      <trkpt lat="45.83111" lon="4.47729">
        <ele>718.8</ele>
        <time>2025-09-10T10:15:47Z</time>
      </trkpt>
      <trkpt lat="45.8311" lon="4.47728">
        <ele>718.8</ele>
        <time>2025-09-10T10:15:48Z</time>
      </trkpt>
      <trkpt lat="45.83108" lon="4.47727">
        <ele>719</ele>
        <time>2025-09-10T10:15:49Z</time>
      </trkpt>
      <trkpt lat="45.83107" lon="4.47727">
        <ele>719</ele>
        <time>2025-09-10T10:15:50Z</time>
      </trkpt>
      <trkpt lat="45.83105" lon="4.47727">
        <ele>719</ele>
        <time>2025-09-10T10:15:51Z</time>
      </trkpt>
      <trkpt lat="45.83104" lon="4.47726">
        <ele>719.4</ele>
        <time>2025-09-10T10:15:52Z</time>
      </trkpt>
      <trkpt lat="45.83103" lon="4.47726">
        <ele>719.4</ele>
        <time>2025-09-10T10:15:53Z</time>
      </trkpt>
      <trkpt lat="45.83101" lon="4.47725">
        <ele>719.6</ele>
        <time>2025-09-10T10:15:54Z</time>
      </trkpt>
      <trkpt lat="45.831" lon="4.47724">
        <ele>719.6</ele>
        <time>2025-09-10T10:15:55Z</time>
      </trkpt>
      <trkpt lat="45.83098" lon="4.47723">
        <ele>720</ele>
        <time>2025-09-10T10:15:56Z</time>
      </trkpt>
      <trkpt lat="45.83097" lon="4.47723">
        <ele>720</ele>
        <time>2025-09-10T10:15:57Z</time>
      </trkpt>
      <trkpt lat="45.83095" lon="4.47722">
        <ele>720</ele>
        <time>2025-09-10T10:15:58Z</time>
      </trkpt>
      <trkpt lat="45.83093" lon="4.47722">
        <ele>720</ele>
        <time>2025-09-10T10:15:59Z</time>
      </trkpt>
      <trkpt lat="45.83092" lon="4.47721">
        <ele>720</ele>
        <time>2025-09-10T10:16:00Z</time>
      </trkpt>
      <trkpt lat="45.8309" lon="4.4772">
        <ele>720.2</ele>
        <time>2025-09-10T10:16:01Z</time>
      </trkpt>
      <trkpt lat="45.83087" lon="4.47719">
        <ele>720.2</ele>
        <time>2025-09-10T10:16:02Z</time>
      </trkpt>
      <trkpt lat="45.83086" lon="4.47718">
        <ele>720.2</ele>
        <time>2025-09-10T10:16:03Z</time>
      </trkpt>
      <trkpt lat="45.83084" lon="4.47718">
        <ele>720.4</ele>
        <time>2025-09-10T10:16:04Z</time>
      </trkpt>
      <trkpt lat="45.83083" lon="4.47718">
        <ele>720.4</ele>
        <time>2025-09-10T10:16:05Z</time>
      </trkpt>
      <trkpt lat="45.83081" lon="4.47718">
        <ele>720.8</ele>
        <time>2025-09-10T10:16:06Z</time>
      </trkpt>
      <trkpt lat="45.8308" lon="4.47718">
        <ele>720.8</ele>
        <time>2025-09-10T10:16:07Z</time>
      </trkpt>
      <trkpt lat="45.83078" lon="4.47718">
        <ele>721.2</ele>
        <time>2025-09-10T10:16:08Z</time>
      </trkpt>
      <trkpt lat="45.83076" lon="4.47717">
        <ele>721.2</ele>
        <time>2025-09-10T10:16:09Z</time>
      </trkpt>
      <trkpt lat="45.83075" lon="4.47716">
        <ele>721.2</ele>
        <time>2025-09-10T10:16:10Z</time>
      </trkpt>
      <trkpt lat="45.83074" lon="4.47716">
        <ele>721.2</ele>
        <time>2025-09-10T10:16:11Z</time>
      </trkpt>
      <trkpt lat="45.83072" lon="4.47716">
        <ele>721.4</ele>
        <time>2025-09-10T10:16:12Z</time>
      </trkpt>
      <trkpt lat="45.83071" lon="4.47716">
        <ele>721.4</ele>
        <time>2025-09-10T10:16:13Z</time>
      </trkpt>
      <trkpt lat="45.83069" lon="4.47715">
        <ele>721.6</ele>
        <time>2025-09-10T10:16:14Z</time>
      </trkpt>
      <trkpt lat="45.83068" lon="4.47715">
        <ele>721.6</ele>
        <time>2025-09-10T10:16:15Z</time>
      </trkpt>
      <trkpt lat="45.83064" lon="4.47715">
        <ele>721.8</ele>
        <time>2025-09-10T10:16:16Z</time>
      </trkpt>
      <trkpt lat="45.83063" lon="4.47715">
        <ele>721.8</ele>
        <time>2025-09-10T10:16:17Z</time>
      </trkpt>
      <trkpt lat="45.83061" lon="4.47714">
        <ele>722.2</ele>
        <time>2025-09-10T10:16:18Z</time>
      </trkpt>
      <trkpt lat="45.83059" lon="4.47714">
        <ele>722.2</ele>
        <time>2025-09-10T10:16:19Z</time>
      </trkpt>
      <trkpt lat="45.83057" lon="4.47713">
        <ele>722.2</ele>
        <time>2025-09-10T10:16:20Z</time>
      </trkpt>
      <trkpt lat="45.83055" lon="4.47713">
        <ele>722.2</ele>
        <time>2025-09-10T10:16:21Z</time>
      </trkpt>
      <trkpt lat="45.83053" lon="4.47713">
        <ele>722.4</ele>
        <time>2025-09-10T10:16:22Z</time>
      </trkpt>
      <trkpt lat="45.83052" lon="4.47713">
        <ele>722.4</ele>
        <time>2025-09-10T10:16:23Z</time>
      </trkpt>
      <trkpt lat="45.83051" lon="4.47713">
        <ele>722.8</ele>
        <time>2025-09-10T10:16:24Z</time>
      </trkpt>
      <trkpt lat="45.83049" lon="4.47713">
        <ele>722.8</ele>
        <time>2025-09-10T10:16:25Z</time>
      </trkpt>
      <trkpt lat="45.83047" lon="4.47713">
        <ele>722.8</ele>
        <time>2025-09-10T10:16:26Z</time>
      </trkpt>
      <trkpt lat="45.83045" lon="4.47714">
        <ele>722.8</ele>
        <time>2025-09-10T10:16:27Z</time>
      </trkpt>
      <trkpt lat="45.83044" lon="4.47714">
        <ele>722.8</ele>
        <time>2025-09-10T10:16:28Z</time>
      </trkpt>
      <trkpt lat="45.83042" lon="4.47714">
        <ele>723</ele>
        <time>2025-09-10T10:16:29Z</time>
      </trkpt>
      <trkpt lat="45.8304" lon="4.47714">
        <ele>723</ele>
        <time>2025-09-10T10:16:30Z</time>
      </trkpt>
      <trkpt lat="45.83038" lon="4.47715">
        <ele>723</ele>
        <time>2025-09-10T10:16:31Z</time>
      </trkpt>
      <trkpt lat="45.83036" lon="4.47715">
        <ele>723.2</ele>
        <time>2025-09-10T10:16:32Z</time>
      </trkpt>
      <trkpt lat="45.83034" lon="4.47716">
        <ele>723.2</ele>
        <time>2025-09-10T10:16:33Z</time>
      </trkpt>
      <trkpt lat="45.83033" lon="4.47716">
        <ele>723.6</ele>
        <time>2025-09-10T10:16:34Z</time>
      </trkpt>
      <trkpt lat="45.83031" lon="4.47717">
        <ele>723.6</ele>
        <time>2025-09-10T10:16:35Z</time>
      </trkpt>
      <trkpt lat="45.83031" lon="4.47717">
        <ele>723.6</ele>
        <time>2025-09-10T10:16:36Z</time>
      </trkpt>
      <trkpt lat="45.83029" lon="4.47718">
        <ele>723.6</ele>
        <time>2025-09-10T10:16:37Z</time>
      </trkpt>
      <trkpt lat="45.83028" lon="4.47718">
        <ele>723.8</ele>
        <time>2025-09-10T10:16:38Z</time>
      </trkpt>
      <trkpt lat="45.83026" lon="4.47719">
        <ele>723.8</ele>
        <time>2025-09-10T10:16:39Z</time>
      </trkpt>
      <trkpt lat="45.83024" lon="4.4772">
        <ele>724</ele>
        <time>2025-09-10T10:16:40Z</time>
      </trkpt>
      <trkpt lat="45.83023" lon="4.47721">
        <ele>724</ele>
        <time>2025-09-10T10:16:41Z</time>
      </trkpt>
      <trkpt lat="45.83021" lon="4.47721">
        <ele>724.4</ele>
        <time>2025-09-10T10:16:42Z</time>
      </trkpt>
      <trkpt lat="45.83019" lon="4.47722">
        <ele>724.4</ele>
        <time>2025-09-10T10:16:43Z</time>
      </trkpt>
      <trkpt lat="45.83018" lon="4.47723">
        <ele>724.4</ele>
        <time>2025-09-10T10:16:44Z</time>
      </trkpt>
      <trkpt lat="45.83016" lon="4.47724">
        <ele>724.8</ele>
        <time>2025-09-10T10:16:45Z</time>
      </trkpt>
      <trkpt lat="45.83015" lon="4.47725">
        <ele>724.8</ele>
        <time>2025-09-10T10:16:46Z</time>
      </trkpt>
      <trkpt lat="45.83013" lon="4.47726">
        <ele>725</ele>
        <time>2025-09-10T10:16:47Z</time>
      </trkpt>
      <trkpt lat="45.83012" lon="4.47727">
        <ele>725</ele>
        <time>2025-09-10T10:16:48Z</time>
      </trkpt>
      <trkpt lat="45.8301" lon="4.47728">
        <ele>725.2</ele>
        <time>2025-09-10T10:16:49Z</time>
      </trkpt>
      <trkpt lat="45.83009" lon="4.47729">
        <ele>725.2</ele>
        <time>2025-09-10T10:16:50Z</time>
      </trkpt>
      <trkpt lat="45.83009" lon="4.47729">
        <ele>725.8</ele>
        <time>2025-09-10T10:16:51Z</time>
      </trkpt>
      <trkpt lat="45.83009" lon="4.47729">
        <ele>725.8</ele>
        <time>2025-09-10T10:16:52Z</time>
      </trkpt>
      <trkpt lat="45.83003" lon="4.47735">
        <ele>725.8</ele>
        <time>2025-09-10T10:16:54Z</time>
      </trkpt>
      <trkpt lat="45.83002" lon="4.47736">
        <ele>725.8</ele>
        <time>2025-09-10T10:16:55Z</time>
      </trkpt>
      <trkpt lat="45.83001" lon="4.47737">
        <ele>725.8</ele>
        <time>2025-09-10T10:16:56Z</time>
      </trkpt>
      <trkpt lat="45.83" lon="4.47738">
        <ele>725.8</ele>
        <time>2025-09-10T10:16:57Z</time>
      </trkpt>
      <trkpt lat="45.82999" lon="4.4774">
        <ele>725.8</ele>
        <time>2025-09-10T10:16:58Z</time>
      </trkpt>
      <trkpt lat="45.82997" lon="4.47741">
        <ele>725.8</ele>
        <time>2025-09-10T10:16:59Z</time>
      </trkpt>
      <trkpt lat="45.82996" lon="4.47742">
        <ele>725.8</ele>
        <time>2025-09-10T10:17:00Z</time>
      </trkpt>
      <trkpt lat="45.82995" lon="4.47743">
        <ele>725.8</ele>
        <time>2025-09-10T10:17:01Z</time>
      </trkpt>
      <trkpt lat="45.82994" lon="4.47745">
        <ele>726.2</ele>
        <time>2025-09-10T10:17:02Z</time>
      </trkpt>
      <trkpt lat="45.82992" lon="4.47747">
        <ele>726.2</ele>
        <time>2025-09-10T10:17:03Z</time>
      </trkpt>
      <trkpt lat="45.82991" lon="4.47749">
        <ele>725.8</ele>
        <time>2025-09-10T10:17:04Z</time>
      </trkpt>
      <trkpt lat="45.82989" lon="4.4775">
        <ele>725.8</ele>
        <time>2025-09-10T10:17:05Z</time>
      </trkpt>
      <trkpt lat="45.82988" lon="4.47751">
        <ele>726.6</ele>
        <time>2025-09-10T10:17:06Z</time>
      </trkpt>
      <trkpt lat="45.82987" lon="4.47753">
        <ele>727</ele>
        <time>2025-09-10T10:17:07Z</time>
      </trkpt>
      <trkpt lat="45.82985" lon="4.47755">
        <ele>727</ele>
        <time>2025-09-10T10:17:08Z</time>
      </trkpt>
      <trkpt lat="45.82984" lon="4.47756">
        <ele>727.2</ele>
        <time>2025-09-10T10:17:09Z</time>
      </trkpt>
      <trkpt lat="45.82983" lon="4.47758">
        <ele>727.2</ele>
        <time>2025-09-10T10:17:10Z</time>
      </trkpt>
      <trkpt lat="45.82982" lon="4.47759">
        <ele>727.2</ele>
        <time>2025-09-10T10:17:11Z</time>
      </trkpt>
      <trkpt lat="45.8298" lon="4.47761">
        <ele>727.4</ele>
        <time>2025-09-10T10:17:12Z</time>
      </trkpt>
      <trkpt lat="45.82979" lon="4.47762">
        <ele>727.4</ele>
        <time>2025-09-10T10:17:13Z</time>
      </trkpt>
      <trkpt lat="45.82978" lon="4.47764">
        <ele>727.6</ele>
        <time>2025-09-10T10:17:14Z</time>
      </trkpt>
      <trkpt lat="45.82978" lon="4.47766">
        <ele>727.6</ele>
        <time>2025-09-10T10:17:15Z</time>
      </trkpt>
      <trkpt lat="45.82976" lon="4.47767">
        <ele>727.8</ele>
        <time>2025-09-10T10:17:16Z</time>
      </trkpt>
      <trkpt lat="45.82975" lon="4.47768">
        <ele>727.8</ele>
        <time>2025-09-10T10:17:17Z</time>
      </trkpt>
      <trkpt lat="45.82973" lon="4.47769">
        <ele>728.2</ele>
        <time>2025-09-10T10:17:18Z</time>
      </trkpt>
      <trkpt lat="45.82971" lon="4.47772">
        <ele>728.2</ele>
        <time>2025-09-10T10:17:19Z</time>
      </trkpt>
      <trkpt lat="45.8297" lon="4.47774">
        <ele>728.2</ele>
        <time>2025-09-10T10:17:20Z</time>
      </trkpt>
      <trkpt lat="45.82969" lon="4.47775">
        <ele>728.4</ele>
        <time>2025-09-10T10:17:21Z</time>
      </trkpt>
      <trkpt lat="45.82968" lon="4.47777">
        <ele>728.4</ele>
        <time>2025-09-10T10:17:22Z</time>
      </trkpt>
      <trkpt lat="45.82966" lon="4.47779">
        <ele>728.4</ele>
        <time>2025-09-10T10:17:23Z</time>
      </trkpt>
      <trkpt lat="45.82965" lon="4.4778">
        <ele>728.4</ele>
        <time>2025-09-10T10:17:24Z</time>
      </trkpt>
      <trkpt lat="45.82964" lon="4.47781">
        <ele>728.6</ele>
        <time>2025-09-10T10:17:25Z</time>
      </trkpt>
      <trkpt lat="45.82963" lon="4.47783">
        <ele>728.6</ele>
        <time>2025-09-10T10:17:26Z</time>
      </trkpt>
      <trkpt lat="45.82962" lon="4.47784">
        <ele>728.6</ele>
        <time>2025-09-10T10:17:27Z</time>
      </trkpt>
      <trkpt lat="45.82961" lon="4.47786">
        <ele>729</ele>
        <time>2025-09-10T10:17:28Z</time>
      </trkpt>
      <trkpt lat="45.8296" lon="4.47788">
        <ele>729</ele>
        <time>2025-09-10T10:17:29Z</time>
      </trkpt>
      <trkpt lat="45.82959" lon="4.4779">
        <ele>729.2</ele>
        <time>2025-09-10T10:17:30Z</time>
      </trkpt>
      <trkpt lat="45.82958" lon="4.47791">
        <ele>729.2</ele>
        <time>2025-09-10T10:17:31Z</time>
      </trkpt>
      <trkpt lat="45.82957" lon="4.47793">
        <ele>729.4</ele>
        <time>2025-09-10T10:17:32Z</time>
      </trkpt>
      <trkpt lat="45.82956" lon="4.47795">
        <ele>729.4</ele>
        <time>2025-09-10T10:17:33Z</time>
      </trkpt>
      <trkpt lat="45.82955" lon="4.47796">
        <ele>729.6</ele>
        <time>2025-09-10T10:17:34Z</time>
      </trkpt>
      <trkpt lat="45.82954" lon="4.47798">
        <ele>729.6</ele>
        <time>2025-09-10T10:17:35Z</time>
      </trkpt>
      <trkpt lat="45.82953" lon="4.47801">
        <ele>729.6</ele>
        <time>2025-09-10T10:17:36Z</time>
      </trkpt>
      <trkpt lat="45.82953" lon="4.47801">
        <ele>730</ele>
        <time>2025-09-10T10:17:37Z</time>
      </trkpt>
      <trkpt lat="45.82952" lon="4.47803">
        <ele>730</ele>
        <time>2025-09-10T10:17:38Z</time>
      </trkpt>
      <trkpt lat="45.8295" lon="4.47805">
        <ele>730</ele>
        <time>2025-09-10T10:17:39Z</time>
      </trkpt>
      <trkpt lat="45.82949" lon="4.47806">
        <ele>730.2</ele>
        <time>2025-09-10T10:17:40Z</time>
      </trkpt>
      <trkpt lat="45.82948" lon="4.47807">
        <ele>730.2</ele>
        <time>2025-09-10T10:17:41Z</time>
      </trkpt>
      <trkpt lat="45.82947" lon="4.47809">
        <ele>730.2</ele>
        <time>2025-09-10T10:17:42Z</time>
      </trkpt>
      <trkpt lat="45.82946" lon="4.47811">
        <ele>730.6</ele>
        <time>2025-09-10T10:17:43Z</time>
      </trkpt>
      <trkpt lat="45.82945" lon="4.47813">
        <ele>730.6</ele>
        <time>2025-09-10T10:17:44Z</time>
      </trkpt>
      <trkpt lat="45.82944" lon="4.47815">
        <ele>730.6</ele>
        <time>2025-09-10T10:17:45Z</time>
      </trkpt>
      <trkpt lat="45.82943" lon="4.47817">
        <ele>730.6</ele>
        <time>2025-09-10T10:17:46Z</time>
      </trkpt>
      <trkpt lat="45.82942" lon="4.47818">
        <ele>730.8</ele>
        <time>2025-09-10T10:17:47Z</time>
      </trkpt>
      <trkpt lat="45.82942" lon="4.4782">
        <ele>730.8</ele>
        <time>2025-09-10T10:17:48Z</time>
      </trkpt>
      <trkpt lat="45.82941" lon="4.47822">
        <ele>730.8</ele>
        <time>2025-09-10T10:17:49Z</time>
      </trkpt>
      <trkpt lat="45.8294" lon="4.47825">
        <ele>731.2</ele>
        <time>2025-09-10T10:17:50Z</time>
      </trkpt>
      <trkpt lat="45.82939" lon="4.47827">
        <ele>731.2</ele>
        <time>2025-09-10T10:17:51Z</time>
      </trkpt>
      <trkpt lat="45.82939" lon="4.47829">
        <ele>731.2</ele>
        <time>2025-09-10T10:17:52Z</time>
      </trkpt>
      <trkpt lat="45.82937" lon="4.47832">
        <ele>731.4</ele>
        <time>2025-09-10T10:17:53Z</time>
      </trkpt>
      <trkpt lat="45.82937" lon="4.47834">
        <ele>731.4</ele>
        <time>2025-09-10T10:17:54Z</time>
      </trkpt>
      <trkpt lat="45.82936" lon="4.47836">
        <ele>731.8</ele>
        <time>2025-09-10T10:17:55Z</time>
      </trkpt>
      <trkpt lat="45.82936" lon="4.47836">
        <ele>731.8</ele>
        <time>2025-09-10T10:17:56Z</time>
      </trkpt>
      <trkpt lat="45.82936" lon="4.47836">
        <ele>732.2</ele>
        <time>2025-09-10T10:17:57Z</time>
      </trkpt>
      <trkpt lat="45.82934" lon="4.47842">
        <ele>732.2</ele>
        <time>2025-09-10T10:17:58Z</time>
      </trkpt>
      <trkpt lat="45.82933" lon="4.47844">
        <ele>732.4</ele>
        <time>2025-09-10T10:17:59Z</time>
      </trkpt>
      <trkpt lat="45.82933" lon="4.47846">
        <ele>732.4</ele>
        <time>2025-09-10T10:18:00Z</time>
      </trkpt>
      <trkpt lat="45.82932" lon="4.47846">
        <ele>732.4</ele>
        <time>2025-09-10T10:18:01Z</time>
      </trkpt>
      <trkpt lat="45.82932" lon="4.47848">
        <ele>732.4</ele>
        <time>2025-09-10T10:18:02Z</time>
      </trkpt>
      <trkpt lat="45.82931" lon="4.4785">
        <ele>732.6</ele>
        <time>2025-09-10T10:18:03Z</time>
      </trkpt>
      <trkpt lat="45.8293" lon="4.47852">
        <ele>732.6</ele>
        <time>2025-09-10T10:18:04Z</time>
      </trkpt>
      <trkpt lat="45.82929" lon="4.47854">
        <ele>732.6</ele>
        <time>2025-09-10T10:18:05Z</time>
      </trkpt>
      <trkpt lat="45.82929" lon="4.47856">
        <ele>732.6</ele>
        <time>2025-09-10T10:18:06Z</time>
      </trkpt>
      <trkpt lat="45.82928" lon="4.47858">
        <ele>732.6</ele>
        <time>2025-09-10T10:18:07Z</time>
      </trkpt>
      <trkpt lat="45.82928" lon="4.4786">
        <ele>732.8</ele>
        <time>2025-09-10T10:18:08Z</time>
      </trkpt>
      <trkpt lat="45.82927" lon="4.47862">
        <ele>732.8</ele>
        <time>2025-09-10T10:18:09Z</time>
      </trkpt>
      <trkpt lat="45.82926" lon="4.47864">
        <ele>732.8</ele>
        <time>2025-09-10T10:18:10Z</time>
      </trkpt>
      <trkpt lat="45.82926" lon="4.47866">
        <ele>732.8</ele>
        <time>2025-09-10T10:18:11Z</time>
      </trkpt>
      <trkpt lat="45.82925" lon="4.47868">
        <ele>733.2</ele>
        <time>2025-09-10T10:18:12Z</time>
      </trkpt>
      <trkpt lat="45.82924" lon="4.4787">
        <ele>733.2</ele>
        <time>2025-09-10T10:18:13Z</time>
      </trkpt>
      <trkpt lat="45.82924" lon="4.47873">
        <ele>733.2</ele>
        <time>2025-09-10T10:18:14Z</time>
      </trkpt>
      <trkpt lat="45.82923" lon="4.47875">
        <ele>733.4</ele>
        <time>2025-09-10T10:18:15Z</time>
      </trkpt>
      <trkpt lat="45.82922" lon="4.47877">
        <ele>733.6</ele>
        <time>2025-09-10T10:18:16Z</time>
      </trkpt>
      <trkpt lat="45.82922" lon="4.4788">
        <ele>733.8</ele>
        <time>2025-09-10T10:18:17Z</time>
      </trkpt>
      <trkpt lat="45.82922" lon="4.47882">
        <ele>734</ele>
        <time>2025-09-10T10:18:18Z</time>
      </trkpt>
      <trkpt lat="45.82921" lon="4.47884">
        <ele>734</ele>
        <time>2025-09-10T10:18:19Z</time>
      </trkpt>
      <trkpt lat="45.8292" lon="4.47886">
        <ele>734</ele>
        <time>2025-09-10T10:18:20Z</time>
      </trkpt>
      <trkpt lat="45.82919" lon="4.47888">
        <ele>734</ele>
        <time>2025-09-10T10:18:21Z</time>
      </trkpt>
      <trkpt lat="45.82919" lon="4.4789">
        <ele>734.6</ele>
        <time>2025-09-10T10:18:22Z</time>
      </trkpt>
      <trkpt lat="45.82918" lon="4.47892">
        <ele>734.6</ele>
        <time>2025-09-10T10:18:23Z</time>
      </trkpt>
      <trkpt lat="45.82918" lon="4.47894">
        <ele>734.8</ele>
        <time>2025-09-10T10:18:24Z</time>
      </trkpt>
      <trkpt lat="45.82917" lon="4.47896">
        <ele>735.2</ele>
        <time>2025-09-10T10:18:25Z</time>
      </trkpt>
      <trkpt lat="45.82917" lon="4.47899">
        <ele>735.2</ele>
        <time>2025-09-10T10:18:26Z</time>
      </trkpt>
      <trkpt lat="45.82916" lon="4.47901">
        <ele>735.6</ele>
        <time>2025-09-10T10:18:27Z</time>
      </trkpt>
      <trkpt lat="45.82915" lon="4.47903">
        <ele>735.6</ele>
        <time>2025-09-10T10:18:28Z</time>
      </trkpt>
      <trkpt lat="45.82915" lon="4.47905">
        <ele>735.8</ele>
        <time>2025-09-10T10:18:29Z</time>
      </trkpt>
      <trkpt lat="45.82914" lon="4.47907">
        <ele>735.8</ele>
        <time>2025-09-10T10:18:30Z</time>
      </trkpt>
      <trkpt lat="45.82914" lon="4.47909">
        <ele>735.8</ele>
        <time>2025-09-10T10:18:31Z</time>
      </trkpt>
      <trkpt lat="45.82914" lon="4.47911">
        <ele>736</ele>
        <time>2025-09-10T10:18:32Z</time>
      </trkpt>
      <trkpt lat="45.82913" lon="4.47913">
        <ele>736</ele>
        <time>2025-09-10T10:18:33Z</time>
      </trkpt>
      <trkpt lat="45.82912" lon="4.47915">
        <ele>736</ele>
        <time>2025-09-10T10:18:34Z</time>
      </trkpt>
      <trkpt lat="45.82912" lon="4.47917">
        <ele>736</ele>
        <time>2025-09-10T10:18:35Z</time>
      </trkpt>
      <trkpt lat="45.82911" lon="4.47918">
        <ele>736.4</ele>
        <time>2025-09-10T10:18:36Z</time>
      </trkpt>
      <trkpt lat="45.8291" lon="4.4792">
        <ele>736.8</ele>
        <time>2025-09-10T10:18:37Z</time>
      </trkpt>
      <trkpt lat="45.82909" lon="4.47922">
        <ele>736.8</ele>
        <time>2025-09-10T10:18:38Z</time>
      </trkpt>
      <trkpt lat="45.82908" lon="4.47925">
        <ele>736.8</ele>
        <time>2025-09-10T10:18:39Z</time>
      </trkpt>
      <trkpt lat="45.82907" lon="4.47927">
        <ele>736.8</ele>
        <time>2025-09-10T10:18:40Z</time>
      </trkpt>
      <trkpt lat="45.82906" lon="4.47929">
        <ele>736.8</ele>
        <time>2025-09-10T10:18:41Z</time>
      </trkpt>
      <trkpt lat="45.82906" lon="4.47931">
        <ele>736.8</ele>
        <time>2025-09-10T10:18:42Z</time>
      </trkpt>
      <trkpt lat="45.82906" lon="4.47933">
        <ele>736.8</ele>
        <time>2025-09-10T10:18:43Z</time>
      </trkpt>
      <trkpt lat="45.82905" lon="4.47935">
        <ele>736.2</ele>
        <time>2025-09-10T10:18:44Z</time>
      </trkpt>
      <trkpt lat="45.82905" lon="4.47936">
        <ele>736.8</ele>
        <time>2025-09-10T10:18:45Z</time>
      </trkpt>
      <trkpt lat="45.82905" lon="4.47938">
        <ele>736.8</ele>
        <time>2025-09-10T10:18:46Z</time>
      </trkpt>
      <trkpt lat="45.82904" lon="4.4794">
        <ele>737</ele>
        <time>2025-09-10T10:18:47Z</time>
      </trkpt>
      <trkpt lat="45.82904" lon="4.47942">
        <ele>736.6</ele>
        <time>2025-09-10T10:18:48Z</time>
      </trkpt>
      <trkpt lat="45.82904" lon="4.47944">
        <ele>737</ele>
        <time>2025-09-10T10:18:49Z</time>
      </trkpt>
      <trkpt lat="45.82904" lon="4.47946">
        <ele>737</ele>
        <time>2025-09-10T10:18:50Z</time>
      </trkpt>
      <trkpt lat="45.82903" lon="4.47948">
        <ele>737.4</ele>
        <time>2025-09-10T10:18:51Z</time>
      </trkpt>
      <trkpt lat="45.82902" lon="4.4795">
        <ele>737.4</ele>
        <time>2025-09-10T10:18:52Z</time>
      </trkpt>
      <trkpt lat="45.82902" lon="4.47952">
        <ele>737.4</ele>
        <time>2025-09-10T10:18:53Z</time>
      </trkpt>
      <trkpt lat="45.82901" lon="4.47954">
        <ele>737.8</ele>
        <time>2025-09-10T10:18:54Z</time>
      </trkpt>
      <trkpt lat="45.82901" lon="4.47956">
        <ele>737.8</ele>
        <time>2025-09-10T10:18:55Z</time>
      </trkpt>
      <trkpt lat="45.82901" lon="4.47958">
        <ele>738</ele>
        <time>2025-09-10T10:18:56Z</time>
      </trkpt>
      <trkpt lat="45.829" lon="4.47959">
        <ele>738</ele>
        <time>2025-09-10T10:18:57Z</time>
      </trkpt>
      <trkpt lat="45.829" lon="4.47959">
        <ele>738</ele>
        <time>2025-09-10T10:18:58Z</time>
      </trkpt>
      <trkpt lat="45.829" lon="4.47959">
        <ele>738.2</ele>
        <time>2025-09-10T10:18:59Z</time>
      </trkpt>
      <trkpt lat="45.829" lon="4.47962">
        <ele>738.2</ele>
        <time>2025-09-10T10:20:39Z</time>
      </trkpt>
      <trkpt lat="45.82899" lon="4.47964">
        <ele>738.2</ele>
        <time>2025-09-10T10:20:40Z</time>
      </trkpt>
      <trkpt lat="45.82898" lon="4.47966">
        <ele>738.2</ele>
        <time>2025-09-10T10:20:41Z</time>
      </trkpt>
      <trkpt lat="45.82897" lon="4.47968">
        <ele>738.2</ele>
        <time>2025-09-10T10:20:42Z</time>
      </trkpt>
      <trkpt lat="45.82897" lon="4.47971">
        <ele>738.2</ele>
        <time>2025-09-10T10:20:43Z</time>
      </trkpt>
      <trkpt lat="45.82897" lon="4.47973">
        <ele>738.2</ele>
        <time>2025-09-10T10:20:44Z</time>
      </trkpt>
      <trkpt lat="45.82896" lon="4.47976">
        <ele>738.2</ele>
        <time>2025-09-10T10:20:45Z</time>
      </trkpt>
      <trkpt lat="45.82895" lon="4.47981">
        <ele>738.2</ele>
        <time>2025-09-10T10:20:46Z</time>
      </trkpt>
      <trkpt lat="45.82896" lon="4.47984">
        <ele>738.6</ele>
        <time>2025-09-10T10:20:47Z</time>
      </trkpt>
      <trkpt lat="45.82896" lon="4.47986">
        <ele>738.6</ele>
        <time>2025-09-10T10:20:48Z</time>
      </trkpt>
      <trkpt lat="45.82897" lon="4.47989">
        <ele>738.6</ele>
        <time>2025-09-10T10:20:49Z</time>
      </trkpt>
      <trkpt lat="45.82898" lon="4.47992">
        <ele>738.6</ele>
        <time>2025-09-10T10:20:50Z</time>
      </trkpt>
      <trkpt lat="45.82898" lon="4.47995">
        <ele>738.8</ele>
        <time>2025-09-10T10:20:51Z</time>
      </trkpt>
      <trkpt lat="45.82898" lon="4.47998">
        <ele>738.8</ele>
        <time>2025-09-10T10:20:52Z</time>
      </trkpt>
      <trkpt lat="45.82898" lon="4.48001">
        <ele>738.8</ele>
        <time>2025-09-10T10:20:53Z</time>
      </trkpt>
      <trkpt lat="45.82899" lon="4.48004">
        <ele>738.8</ele>
        <time>2025-09-10T10:20:54Z</time>
      </trkpt>
      <trkpt lat="45.829" lon="4.48008">
        <ele>738.8</ele>
        <time>2025-09-10T10:20:55Z</time>
      </trkpt>
      <trkpt lat="45.829" lon="4.48012">
        <ele>738.8</ele>
        <time>2025-09-10T10:20:56Z</time>
      </trkpt>
      <trkpt lat="45.829" lon="4.48015">
        <ele>738.8</ele>
        <time>2025-09-10T10:20:57Z</time>
      </trkpt>
      <trkpt lat="45.829" lon="4.48019">
        <ele>738.8</ele>
        <time>2025-09-10T10:20:58Z</time>
      </trkpt>
      <trkpt lat="45.82901" lon="4.48023">
        <ele>738.8</ele>
        <time>2025-09-10T10:20:59Z</time>
      </trkpt>
      <trkpt lat="45.82901" lon="4.48026">
        <ele>739.2</ele>
        <time>2025-09-10T10:21:00Z</time>
      </trkpt>
      <trkpt lat="45.82902" lon="4.4803">
        <ele>739.4</ele>
        <time>2025-09-10T10:21:01Z</time>
      </trkpt>
      <trkpt lat="45.82903" lon="4.48033">
        <ele>739.4</ele>
        <time>2025-09-10T10:21:02Z</time>
      </trkpt>
      <trkpt lat="45.82903" lon="4.48037">
        <ele>739.4</ele>
        <time>2025-09-10T10:21:03Z</time>
      </trkpt>
      <trkpt lat="45.82903" lon="4.48037">
        <ele>739.4</ele>
        <time>2025-09-10T10:21:04Z</time>
      </trkpt>
      <trkpt lat="45.82904" lon="4.4804">
        <ele>739.4</ele>
        <time>2025-09-10T10:21:05Z</time>
      </trkpt>
      <trkpt lat="45.82904" lon="4.48044">
        <ele>739.4</ele>
        <time>2025-09-10T10:21:06Z</time>
      </trkpt>
      <trkpt lat="45.82905" lon="4.48047">
        <ele>739.4</ele>
        <time>2025-09-10T10:21:07Z</time>
      </trkpt>
      <trkpt lat="45.82905" lon="4.48051">
        <ele>739.4</ele>
        <time>2025-09-10T10:21:08Z</time>
      </trkpt>
      <trkpt lat="45.82906" lon="4.48054">
        <ele>739.4</ele>
        <time>2025-09-10T10:21:09Z</time>
      </trkpt>
      <trkpt lat="45.82906" lon="4.48058">
        <ele>739.8</ele>
        <time>2025-09-10T10:21:10Z</time>
      </trkpt>
      <trkpt lat="45.82907" lon="4.48061">
        <ele>739.8</ele>
        <time>2025-09-10T10:21:11Z</time>
      </trkpt>
      <trkpt lat="45.82907" lon="4.48065">
        <ele>739.8</ele>
        <time>2025-09-10T10:21:12Z</time>
      </trkpt>
      <trkpt lat="45.82907" lon="4.48068">
        <ele>740</ele>
        <time>2025-09-10T10:21:13Z</time>
      </trkpt>
      <trkpt lat="45.82907" lon="4.48072">
        <ele>740.2</ele>
        <time>2025-09-10T10:21:14Z</time>
      </trkpt>
      <trkpt lat="45.82908" lon="4.48076">
        <ele>740.2</ele>
        <time>2025-09-10T10:21:15Z</time>
      </trkpt>
      <trkpt lat="45.82909" lon="4.48079">
        <ele>740.2</ele>
        <time>2025-09-10T10:21:16Z</time>
      </trkpt>
      <trkpt lat="45.82909" lon="4.48082">
        <ele>740.4</ele>
        <time>2025-09-10T10:21:17Z</time>
      </trkpt>
      <trkpt lat="45.8291" lon="4.48086">
        <ele>740.4</ele>
        <time>2025-09-10T10:21:18Z</time>
      </trkpt>
      <trkpt lat="45.8291" lon="4.48089">
        <ele>740.6</ele>
        <time>2025-09-10T10:21:19Z</time>
      </trkpt>
      <trkpt lat="45.82911" lon="4.48092">
        <ele>740.6</ele>
        <time>2025-09-10T10:21:20Z</time>
      </trkpt>
      <trkpt lat="45.82912" lon="4.48095">
        <ele>740.8</ele>
        <time>2025-09-10T10:21:21Z</time>
      </trkpt>
      <trkpt lat="45.82912" lon="4.48099">
        <ele>740.8</ele>
        <time>2025-09-10T10:21:22Z</time>
      </trkpt>
      <trkpt lat="45.82913" lon="4.48102">
        <ele>740.8</ele>
        <time>2025-09-10T10:21:23Z</time>
      </trkpt>
      <trkpt lat="45.82913" lon="4.48106">
        <ele>741</ele>
        <time>2025-09-10T10:21:24Z</time>
      </trkpt>
      <trkpt lat="45.82913" lon="4.48109">
        <ele>741</ele>
        <time>2025-09-10T10:21:25Z</time>
      </trkpt>
      <trkpt lat="45.82913" lon="4.48113">
        <ele>741.4</ele>
        <time>2025-09-10T10:21:26Z</time>
      </trkpt>
      <trkpt lat="45.82914" lon="4.48117">
        <ele>741.4</ele>
        <time>2025-09-10T10:21:27Z</time>
      </trkpt>
      <trkpt lat="45.82914" lon="4.48121">
        <ele>741.6</ele>
        <time>2025-09-10T10:21:28Z</time>
      </trkpt>
      <trkpt lat="45.82914" lon="4.48125">
        <ele>741.6</ele>
        <time>2025-09-10T10:21:29Z</time>
      </trkpt>
      <trkpt lat="45.82914" lon="4.48128">
        <ele>741.6</ele>
        <time>2025-09-10T10:21:30Z</time>
      </trkpt>
      <trkpt lat="45.82915" lon="4.48132">
        <ele>741.8</ele>
        <time>2025-09-10T10:21:31Z</time>
      </trkpt>
      <trkpt lat="45.82915" lon="4.48135">
        <ele>741.8</ele>
        <time>2025-09-10T10:21:32Z</time>
      </trkpt>
      <trkpt lat="45.82915" lon="4.48139">
        <ele>741.8</ele>
        <time>2025-09-10T10:21:33Z</time>
      </trkpt>
      <trkpt lat="45.82916" lon="4.48143">
        <ele>741.8</ele>
        <time>2025-09-10T10:21:34Z</time>
      </trkpt>
      <trkpt lat="45.82916" lon="4.48146">
        <ele>741.8</ele>
        <time>2025-09-10T10:21:35Z</time>
      </trkpt>
      <trkpt lat="45.82917" lon="4.4815">
        <ele>741.8</ele>
        <time>2025-09-10T10:21:36Z</time>
      </trkpt>
      <trkpt lat="45.82917" lon="4.48153">
        <ele>742.2</ele>
        <time>2025-09-10T10:21:37Z</time>
      </trkpt>
      <trkpt lat="45.82917" lon="4.48157">
        <ele>742.2</ele>
        <time>2025-09-10T10:21:38Z</time>
      </trkpt>
      <trkpt lat="45.82918" lon="4.48161">
        <ele>742.2</ele>
        <time>2025-09-10T10:21:39Z</time>
      </trkpt>
      <trkpt lat="45.82918" lon="4.48164">
        <ele>742.2</ele>
        <time>2025-09-10T10:21:40Z</time>
      </trkpt>
      <trkpt lat="45.82919" lon="4.48168">
        <ele>742.2</ele>
        <time>2025-09-10T10:21:41Z</time>
      </trkpt>
      <trkpt lat="45.82919" lon="4.48171">
        <ele>742.2</ele>
        <time>2025-09-10T10:21:42Z</time>
      </trkpt>
      <trkpt lat="45.8292" lon="4.48175">
        <ele>742.4</ele>
        <time>2025-09-10T10:21:43Z</time>
      </trkpt>
      <trkpt lat="45.8292" lon="4.48178">
        <ele>742.4</ele>
        <time>2025-09-10T10:21:44Z</time>
      </trkpt>
      <trkpt lat="45.8292" lon="4.48182">
        <ele>742.4</ele>
        <time>2025-09-10T10:21:45Z</time>
      </trkpt>
      <trkpt lat="45.8292" lon="4.48186">
        <ele>742.4</ele>
        <time>2025-09-10T10:21:46Z</time>
      </trkpt>
      <trkpt lat="45.82921" lon="4.48189">
        <ele>742.4</ele>
        <time>2025-09-10T10:21:47Z</time>
      </trkpt>
      <trkpt lat="45.82921" lon="4.48193">
        <ele>742.4</ele>
        <time>2025-09-10T10:21:48Z</time>
      </trkpt>
      <trkpt lat="45.82922" lon="4.48196">
        <ele>742.8</ele>
        <time>2025-09-10T10:21:49Z</time>
      </trkpt>
      <trkpt lat="45.82922" lon="4.48198">
        <ele>742.8</ele>
        <time>2025-09-10T10:21:50Z</time>
      </trkpt>
      <trkpt lat="45.82923" lon="4.48201">
        <ele>742.8</ele>
        <time>2025-09-10T10:21:51Z</time>
      </trkpt>
      <trkpt lat="45.82924" lon="4.48204">
        <ele>743</ele>
        <time>2025-09-10T10:21:52Z</time>
      </trkpt>
      <trkpt lat="45.82924" lon="4.48208">
        <ele>743</ele>
        <time>2025-09-10T10:21:53Z</time>
      </trkpt>
      <trkpt lat="45.82925" lon="4.48211">
        <ele>743</ele>
        <time>2025-09-10T10:21:54Z</time>
      </trkpt>
      <trkpt lat="45.82925" lon="4.48215">
        <ele>743</ele>
        <time>2025-09-10T10:21:55Z</time>
      </trkpt>
      <trkpt lat="45.82926" lon="4.48218">
        <ele>743.2</ele>
        <time>2025-09-10T10:21:56Z</time>
      </trkpt>
      <trkpt lat="45.82926" lon="4.48221">
        <ele>743.2</ele>
        <time>2025-09-10T10:21:57Z</time>
      </trkpt>
      <trkpt lat="45.82927" lon="4.48224">
        <ele>743.2</ele>
        <time>2025-09-10T10:21:58Z</time>
      </trkpt>
      <trkpt lat="45.82927" lon="4.48228">
        <ele>743.4</ele>
        <time>2025-09-10T10:21:59Z</time>
      </trkpt>
      <trkpt lat="45.82927" lon="4.48231">
        <ele>743.4</ele>
        <time>2025-09-10T10:22:00Z</time>
      </trkpt>
      <trkpt lat="45.82927" lon="4.48233">
        <ele>743.8</ele>
        <time>2025-09-10T10:22:01Z</time>
      </trkpt>
      <trkpt lat="45.82927" lon="4.48237">
        <ele>743.8</ele>
        <time>2025-09-10T10:22:02Z</time>
      </trkpt>
      <trkpt lat="45.82927" lon="4.4824">
        <ele>743.8</ele>
        <time>2025-09-10T10:22:03Z</time>
      </trkpt>
      <trkpt lat="45.82927" lon="4.48244">
        <ele>743.8</ele>
        <time>2025-09-10T10:22:04Z</time>
      </trkpt>
      <trkpt lat="45.82926" lon="4.48248">
        <ele>744.2</ele>
        <time>2025-09-10T10:22:05Z</time>
      </trkpt>
      <trkpt lat="45.82927" lon="4.48251">
        <ele>744.2</ele>
        <time>2025-09-10T10:22:06Z</time>
      </trkpt>
      <trkpt lat="45.82927" lon="4.48254">
        <ele>744.2</ele>
        <time>2025-09-10T10:22:07Z</time>
      </trkpt>
      <trkpt lat="45.82927" lon="4.48257">
        <ele>744.2</ele>
        <time>2025-09-10T10:22:08Z</time>
      </trkpt>
      <trkpt lat="45.82927" lon="4.4826">
        <ele>744.2</ele>
        <time>2025-09-10T10:22:09Z</time>
      </trkpt>
      <trkpt lat="45.82927" lon="4.48263">
        <ele>744.2</ele>
        <time>2025-09-10T10:22:10Z</time>
      </trkpt>
      <trkpt lat="45.82928" lon="4.48267">
        <ele>744.4</ele>
        <time>2025-09-10T10:22:11Z</time>
      </trkpt>
      <trkpt lat="45.82928" lon="4.48271">
        <ele>744.4</ele>
        <time>2025-09-10T10:22:12Z</time>
      </trkpt>
      <trkpt lat="45.82928" lon="4.48274">
        <ele>744.4</ele>
        <time>2025-09-10T10:22:13Z</time>
      </trkpt>
      <trkpt lat="45.82928" lon="4.48277">
        <ele>744.4</ele>
        <time>2025-09-10T10:22:14Z</time>
      </trkpt>
      <trkpt lat="45.82928" lon="4.48281">
        <ele>744.4</ele>
        <time>2025-09-10T10:22:15Z</time>
      </trkpt>
      <trkpt lat="45.82928" lon="4.48284">
        <ele>744.4</ele>
        <time>2025-09-10T10:22:16Z</time>
      </trkpt>
      <trkpt lat="45.82928" lon="4.48288">
        <ele>744.6</ele>
        <time>2025-09-10T10:22:17Z</time>
      </trkpt>
      <trkpt lat="45.82928" lon="4.48291">
        <ele>744.6</ele>
        <time>2025-09-10T10:22:18Z</time>
      </trkpt>
      <trkpt lat="45.82927" lon="4.48294">
        <ele>744.6</ele>
        <time>2025-09-10T10:22:19Z</time>
      </trkpt>
      <trkpt lat="45.82927" lon="4.48298">
        <ele>744.8</ele>
        <time>2025-09-10T10:22:20Z</time>
      </trkpt>
      <trkpt lat="45.82927" lon="4.48301">
        <ele>744.8</ele>
        <time>2025-09-10T10:22:21Z</time>
      </trkpt>
      <trkpt lat="45.82926" lon="4.48303">
        <ele>745.2</ele>
        <time>2025-09-10T10:22:22Z</time>
      </trkpt>
      <trkpt lat="45.82924" lon="4.48306">
        <ele>745.2</ele>
        <time>2025-09-10T10:22:23Z</time>
      </trkpt>
      <trkpt lat="45.82923" lon="4.48308">
        <ele>745.4</ele>
        <time>2025-09-10T10:22:24Z</time>
      </trkpt>
      <trkpt lat="45.82921" lon="4.48311">
        <ele>745.4</ele>
        <time>2025-09-10T10:22:25Z</time>
      </trkpt>
      <trkpt lat="45.82919" lon="4.48313">
        <ele>745.8</ele>
        <time>2025-09-10T10:22:26Z</time>
      </trkpt>
      <trkpt lat="45.82918" lon="4.48315">
        <ele>745.8</ele>
        <time>2025-09-10T10:22:27Z</time>
      </trkpt>
      <trkpt lat="45.82916" lon="4.48317">
        <ele>746</ele>
        <time>2025-09-10T10:22:28Z</time>
      </trkpt>
      <trkpt lat="45.82914" lon="4.48319">
        <ele>746</ele>
        <time>2025-09-10T10:22:29Z</time>
      </trkpt>
      <trkpt lat="45.82912" lon="4.48321">
        <ele>746</ele>
        <time>2025-09-10T10:22:30Z</time>
      </trkpt>
      <trkpt lat="45.8291" lon="4.48322">
        <ele>746</ele>
        <time>2025-09-10T10:22:31Z</time>
      </trkpt>
      <trkpt lat="45.82908" lon="4.48323">
        <ele>746.2</ele>
        <time>2025-09-10T10:22:32Z</time>
      </trkpt>
      <trkpt lat="45.82905" lon="4.48324">
        <ele>746.2</ele>
        <time>2025-09-10T10:22:33Z</time>
      </trkpt>
      <trkpt lat="45.82902" lon="4.48324">
        <ele>746.2</ele>
        <time>2025-09-10T10:22:34Z</time>
      </trkpt>
      <trkpt lat="45.829" lon="4.48324">
        <ele>746.4</ele>
        <time>2025-09-10T10:22:35Z</time>
      </trkpt>
      <trkpt lat="45.82896" lon="4.48324">
        <ele>746.4</ele>
        <time>2025-09-10T10:22:36Z</time>
      </trkpt>
      <trkpt lat="45.82893" lon="4.48323">
        <ele>746.4</ele>
        <time>2025-09-10T10:22:37Z</time>
      </trkpt>
      <trkpt lat="45.8289" lon="4.48322">
        <ele>746.4</ele>
        <time>2025-09-10T10:22:38Z</time>
      </trkpt>
      <trkpt lat="45.82886" lon="4.48321">
        <ele>746.4</ele>
        <time>2025-09-10T10:22:39Z</time>
      </trkpt>
      <trkpt lat="45.82883" lon="4.48319">
        <ele>746.4</ele>
        <time>2025-09-10T10:22:40Z</time>
      </trkpt>
      <trkpt lat="45.8288" lon="4.48318">
        <ele>746.8</ele>
        <time>2025-09-10T10:22:41Z</time>
      </trkpt>
      <trkpt lat="45.82878" lon="4.48316">
        <ele>746.8</ele>
        <time>2025-09-10T10:22:42Z</time>
      </trkpt>
      <trkpt lat="45.82875" lon="4.48315">
        <ele>746.8</ele>
        <time>2025-09-10T10:22:43Z</time>
      </trkpt>
      <trkpt lat="45.82872" lon="4.48314">
        <ele>747</ele>
        <time>2025-09-10T10:22:44Z</time>
      </trkpt>
      <trkpt lat="45.82869" lon="4.48312">
        <ele>747.2</ele>
        <time>2025-09-10T10:22:45Z</time>
      </trkpt>
      <trkpt lat="45.82867" lon="4.48311">
        <ele>747.2</ele>
        <time>2025-09-10T10:22:46Z</time>
      </trkpt>
      <trkpt lat="45.82865" lon="4.48309">
        <ele>747.4</ele>
        <time>2025-09-10T10:22:47Z</time>
      </trkpt>
      <trkpt lat="45.82862" lon="4.48307">
        <ele>747.4</ele>
        <time>2025-09-10T10:22:48Z</time>
      </trkpt>
      <trkpt lat="45.8286" lon="4.48306">
        <ele>747.4</ele>
        <time>2025-09-10T10:22:49Z</time>
      </trkpt>
      <trkpt lat="45.82857" lon="4.48304">
        <ele>747.4</ele>
        <time>2025-09-10T10:22:50Z</time>
      </trkpt>
      <trkpt lat="45.82855" lon="4.48303">
        <ele>747.4</ele>
        <time>2025-09-10T10:22:51Z</time>
      </trkpt>
      <trkpt lat="45.82852" lon="4.48302">
        <ele>747.4</ele>
        <time>2025-09-10T10:22:52Z</time>
      </trkpt>
      <trkpt lat="45.82849" lon="4.48301">
        <ele>747.4</ele>
        <time>2025-09-10T10:22:53Z</time>
      </trkpt>
      <trkpt lat="45.82846" lon="4.483">
        <ele>747.6</ele>
        <time>2025-09-10T10:22:54Z</time>
      </trkpt>
      <trkpt lat="45.82844" lon="4.48298">
        <ele>747.6</ele>
        <time>2025-09-10T10:22:55Z</time>
      </trkpt>
      <trkpt lat="45.82841" lon="4.48297">
        <ele>747.8</ele>
        <time>2025-09-10T10:22:56Z</time>
      </trkpt>
      <trkpt lat="45.82838" lon="4.48296">
        <ele>747.8</ele>
        <time>2025-09-10T10:22:57Z</time>
      </trkpt>
      <trkpt lat="45.82835" lon="4.48295">
        <ele>747.8</ele>
        <time>2025-09-10T10:22:58Z</time>
      </trkpt>
      <trkpt lat="45.82832" lon="4.48294">
        <ele>746.8</ele>
        <time>2025-09-10T10:22:59Z</time>
      </trkpt>
      <trkpt lat="45.8283" lon="4.48293">
        <ele>747.2</ele>
        <time>2025-09-10T10:23:00Z</time>
      </trkpt>
      <trkpt lat="45.82828" lon="4.48291">
        <ele>747.6</ele>
        <time>2025-09-10T10:23:01Z</time>
      </trkpt>
      <trkpt lat="45.82826" lon="4.48289">
        <ele>747.6</ele>
        <time>2025-09-10T10:23:02Z</time>
      </trkpt>
      <trkpt lat="45.82824" lon="4.48288">
        <ele>748</ele>
        <time>2025-09-10T10:23:03Z</time>
      </trkpt>
      <trkpt lat="45.82821" lon="4.48288">
        <ele>748.4</ele>
        <time>2025-09-10T10:23:04Z</time>
      </trkpt>
      <trkpt lat="45.82818" lon="4.48287">
        <ele>748.4</ele>
        <time>2025-09-10T10:23:05Z</time>
      </trkpt>
      <trkpt lat="45.82815" lon="4.48287">
        <ele>748.6</ele>
        <time>2025-09-10T10:23:06Z</time>
      </trkpt>
      <trkpt lat="45.82813" lon="4.48286">
        <ele>748.6</ele>
        <time>2025-09-10T10:23:07Z</time>
      </trkpt>
      <trkpt lat="45.8281" lon="4.48285">
        <ele>748.6</ele>
        <time>2025-09-10T10:23:08Z</time>
      </trkpt>
      <trkpt lat="45.82807" lon="4.48284">
        <ele>749</ele>
        <time>2025-09-10T10:23:09Z</time>
      </trkpt>
      <trkpt lat="45.82804" lon="4.48284">
        <ele>749</ele>
        <time>2025-09-10T10:23:10Z</time>
      </trkpt>
      <trkpt lat="45.82801" lon="4.48283">
        <ele>749</ele>
        <time>2025-09-10T10:23:11Z</time>
      </trkpt>
      <trkpt lat="45.82799" lon="4.48282">
        <ele>749.2</ele>
        <time>2025-09-10T10:23:12Z</time>
      </trkpt>
      <trkpt lat="45.82796" lon="4.48281">
        <ele>749.2</ele>
        <time>2025-09-10T10:23:13Z</time>
      </trkpt>
      <trkpt lat="45.82794" lon="4.4828">
        <ele>749.4</ele>
        <time>2025-09-10T10:23:14Z</time>
      </trkpt>
      <trkpt lat="45.82791" lon="4.48279">
        <ele>749.4</ele>
        <time>2025-09-10T10:23:15Z</time>
      </trkpt>
      <trkpt lat="45.82788" lon="4.48278">
        <ele>749.4</ele>
        <time>2025-09-10T10:23:16Z</time>
      </trkpt>
      <trkpt lat="45.82785" lon="4.48278">
        <ele>749.4</ele>
        <time>2025-09-10T10:23:17Z</time>
      </trkpt>
      <trkpt lat="45.82783" lon="4.48277">
        <ele>749.4</ele>
        <time>2025-09-10T10:23:18Z</time>
      </trkpt>
      <trkpt lat="45.8278" lon="4.48275">
        <ele>749.8</ele>
        <time>2025-09-10T10:23:19Z</time>
      </trkpt>
      <trkpt lat="45.82777" lon="4.48274">
        <ele>749.8</ele>
        <time>2025-09-10T10:23:20Z</time>
      </trkpt>
      <trkpt lat="45.82775" lon="4.48273">
        <ele>749.8</ele>
        <time>2025-09-10T10:23:21Z</time>
      </trkpt>
      <trkpt lat="45.82772" lon="4.48272">
        <ele>749.8</ele>
        <time>2025-09-10T10:23:22Z</time>
      </trkpt>
      <trkpt lat="45.8277" lon="4.4827">
        <ele>749.8</ele>
        <time>2025-09-10T10:23:23Z</time>
      </trkpt>
      <trkpt lat="45.82768" lon="4.48269">
        <ele>750</ele>
        <time>2025-09-10T10:23:24Z</time>
      </trkpt>
      <trkpt lat="45.82765" lon="4.48267">
        <ele>750</ele>
        <time>2025-09-10T10:23:25Z</time>
      </trkpt>
      <trkpt lat="45.82762" lon="4.48266">
        <ele>750</ele>
        <time>2025-09-10T10:23:26Z</time>
      </trkpt>
      <trkpt lat="45.8276" lon="4.48265">
        <ele>750</ele>
        <time>2025-09-10T10:23:27Z</time>
      </trkpt>
      <trkpt lat="45.82758" lon="4.48263">
        <ele>750</ele>
        <time>2025-09-10T10:23:28Z</time>
      </trkpt>
      <trkpt lat="45.82755" lon="4.48261">
        <ele>750.2</ele>
        <time>2025-09-10T10:23:29Z</time>
      </trkpt>
      <trkpt lat="45.82753" lon="4.48259">
        <ele>750.2</ele>
        <time>2025-09-10T10:23:30Z</time>
      </trkpt>
      <trkpt lat="45.8275" lon="4.48257">
        <ele>750.2</ele>
        <time>2025-09-10T10:23:31Z</time>
      </trkpt>
      <trkpt lat="45.82748" lon="4.48256">
        <ele>750.2</ele>
        <time>2025-09-10T10:23:32Z</time>
      </trkpt>
      <trkpt lat="45.82745" lon="4.48254">
        <ele>750.4</ele>
        <time>2025-09-10T10:23:33Z</time>
      </trkpt>
      <trkpt lat="45.82743" lon="4.48253">
        <ele>750.4</ele>
        <time>2025-09-10T10:23:34Z</time>
      </trkpt>
      <trkpt lat="45.82741" lon="4.48251">
        <ele>750.4</ele>
        <time>2025-09-10T10:23:35Z</time>
      </trkpt>
      <trkpt lat="45.82739" lon="4.48249">
        <ele>750.4</ele>
        <time>2025-09-10T10:23:36Z</time>
      </trkpt>
      <trkpt lat="45.82736" lon="4.48247">
        <ele>750.8</ele>
        <time>2025-09-10T10:23:37Z</time>
      </trkpt>
      <trkpt lat="45.82734" lon="4.48245">
        <ele>750.8</ele>
        <time>2025-09-10T10:23:38Z</time>
      </trkpt>
      <trkpt lat="45.82731" lon="4.48244">
        <ele>750.8</ele>
        <time>2025-09-10T10:23:39Z</time>
      </trkpt>
      <trkpt lat="45.82729" lon="4.48242">
        <ele>751</ele>
        <time>2025-09-10T10:23:40Z</time>
      </trkpt>
      <trkpt lat="45.82727" lon="4.4824">
        <ele>751</ele>
        <time>2025-09-10T10:23:41Z</time>
      </trkpt>
      <trkpt lat="45.82725" lon="4.48238">
        <ele>751</ele>
        <time>2025-09-10T10:23:42Z</time>
      </trkpt>
      <trkpt lat="45.82723" lon="4.48237">
        <ele>751.4</ele>
        <time>2025-09-10T10:23:43Z</time>
      </trkpt>
      <trkpt lat="45.8272" lon="4.48235">
        <ele>751.4</ele>
        <time>2025-09-10T10:23:44Z</time>
      </trkpt>
      <trkpt lat="45.82718" lon="4.48233">
        <ele>751.4</ele>
        <time>2025-09-10T10:23:45Z</time>
      </trkpt>
      <trkpt lat="45.82716" lon="4.48231">
        <ele>751.8</ele>
        <time>2025-09-10T10:23:46Z</time>
      </trkpt>
      <trkpt lat="45.82714" lon="4.48229">
        <ele>752.2</ele>
        <time>2025-09-10T10:23:47Z</time>
      </trkpt>
      <trkpt lat="45.82711" lon="4.48228">
        <ele>752.2</ele>
        <time>2025-09-10T10:23:48Z</time>
      </trkpt>
      <trkpt lat="45.82709" lon="4.48226">
        <ele>752.2</ele>
        <time>2025-09-10T10:23:49Z</time>
      </trkpt>
      <trkpt lat="45.82707" lon="4.48224">
        <ele>752</ele>
        <time>2025-09-10T10:23:50Z</time>
      </trkpt>
      <trkpt lat="45.82704" lon="4.48222">
        <ele>752</ele>
        <time>2025-09-10T10:23:51Z</time>
      </trkpt>
      <trkpt lat="45.82702" lon="4.48221">
        <ele>752</ele>
        <time>2025-09-10T10:23:52Z</time>
      </trkpt>
      <trkpt lat="45.827" lon="4.4822">
        <ele>752</ele>
        <time>2025-09-10T10:23:53Z</time>
      </trkpt>
      <trkpt lat="45.82698" lon="4.48218">
        <ele>752</ele>
        <time>2025-09-10T10:23:54Z</time>
      </trkpt>
      <trkpt lat="45.82696" lon="4.48216">
        <ele>752.4</ele>
        <time>2025-09-10T10:23:55Z</time>
      </trkpt>
      <trkpt lat="45.82694" lon="4.48215">
        <ele>752.4</ele>
        <time>2025-09-10T10:23:56Z</time>
      </trkpt>
      <trkpt lat="45.82691" lon="4.48213">
        <ele>752.6</ele>
        <time>2025-09-10T10:23:57Z</time>
      </trkpt>
      <trkpt lat="45.82689" lon="4.48212">
        <ele>752.6</ele>
        <time>2025-09-10T10:23:58Z</time>
      </trkpt>
      <trkpt lat="45.82687" lon="4.4821">
        <ele>752.6</ele>
        <time>2025-09-10T10:23:59Z</time>
      </trkpt>
      <trkpt lat="45.82684" lon="4.48209">
        <ele>752.6</ele>
        <time>2025-09-10T10:24:00Z</time>
      </trkpt>
      <trkpt lat="45.82682" lon="4.48208">
        <ele>752.6</ele>
        <time>2025-09-10T10:24:01Z</time>
      </trkpt>
      <trkpt lat="45.82679" lon="4.48207">
        <ele>752.6</ele>
        <time>2025-09-10T10:24:02Z</time>
      </trkpt>
      <trkpt lat="45.82676" lon="4.48205">
        <ele>753</ele>
        <time>2025-09-10T10:24:03Z</time>
      </trkpt>
      <trkpt lat="45.82674" lon="4.48203">
        <ele>753</ele>
        <time>2025-09-10T10:24:04Z</time>
      </trkpt>
      <trkpt lat="45.82672" lon="4.48201">
        <ele>753</ele>
        <time>2025-09-10T10:24:05Z</time>
      </trkpt>
      <trkpt lat="45.8267" lon="4.48199">
        <ele>753</ele>
        <time>2025-09-10T10:24:06Z</time>
      </trkpt>
      <trkpt lat="45.82667" lon="4.48197">
        <ele>753</ele>
        <time>2025-09-10T10:24:07Z</time>
      </trkpt>
      <trkpt lat="45.82665" lon="4.48195">
        <ele>753.2</ele>
        <time>2025-09-10T10:24:08Z</time>
      </trkpt>
      <trkpt lat="45.82662" lon="4.48194">
        <ele>753.2</ele>
        <time>2025-09-10T10:24:09Z</time>
      </trkpt>
      <trkpt lat="45.8266" lon="4.48192">
        <ele>753.4</ele>
        <time>2025-09-10T10:24:10Z</time>
      </trkpt>
      <trkpt lat="45.82657" lon="4.48191">
        <ele>753.4</ele>
        <time>2025-09-10T10:24:11Z</time>
      </trkpt>
      <trkpt lat="45.82655" lon="4.4819">
        <ele>753.4</ele>
        <time>2025-09-10T10:24:12Z</time>
      </trkpt>
      <trkpt lat="45.82652" lon="4.48189">
        <ele>753.6</ele>
        <time>2025-09-10T10:24:13Z</time>
      </trkpt>
      <trkpt lat="45.8265" lon="4.48188">
        <ele>753.6</ele>
        <time>2025-09-10T10:24:14Z</time>
      </trkpt>
      <trkpt lat="45.82648" lon="4.48188">
        <ele>753.6</ele>
        <time>2025-09-10T10:24:15Z</time>
      </trkpt>
      <trkpt lat="45.82645" lon="4.48188">
        <ele>753.8</ele>
        <time>2025-09-10T10:24:16Z</time>
      </trkpt>
      <trkpt lat="45.82643" lon="4.48188">
        <ele>753.8</ele>
        <time>2025-09-10T10:24:17Z</time>
      </trkpt>
      <trkpt lat="45.8264" lon="4.48188">
        <ele>753.8</ele>
        <time>2025-09-10T10:24:18Z</time>
      </trkpt>
      <trkpt lat="45.82637" lon="4.48188">
        <ele>754</ele>
        <time>2025-09-10T10:24:19Z</time>
      </trkpt>
      <trkpt lat="45.82635" lon="4.48189">
        <ele>754</ele>
        <time>2025-09-10T10:24:20Z</time>
      </trkpt>
      <trkpt lat="45.82632" lon="4.4819">
        <ele>754.4</ele>
        <time>2025-09-10T10:24:21Z</time>
      </trkpt>
      <trkpt lat="45.82629" lon="4.48191">
        <ele>754.4</ele>
        <time>2025-09-10T10:24:22Z</time>
      </trkpt>
      <trkpt lat="45.82627" lon="4.48191">
        <ele>754.4</ele>
        <time>2025-09-10T10:24:23Z</time>
      </trkpt>
      <trkpt lat="45.82625" lon="4.48192">
        <ele>754.4</ele>
        <time>2025-09-10T10:24:24Z</time>
      </trkpt>
      <trkpt lat="45.82622" lon="4.48193">
        <ele>754.6</ele>
        <time>2025-09-10T10:24:25Z</time>
      </trkpt>
      <trkpt lat="45.82619" lon="4.48194">
        <ele>754.6</ele>
        <time>2025-09-10T10:24:26Z</time>
      </trkpt>
      <trkpt lat="45.82617" lon="4.48195">
        <ele>754.6</ele>
        <time>2025-09-10T10:24:27Z</time>
      </trkpt>
      <trkpt lat="45.82614" lon="4.48196">
        <ele>754.6</ele>
        <time>2025-09-10T10:24:28Z</time>
      </trkpt>
      <trkpt lat="45.82612" lon="4.48198">
        <ele>754.6</ele>
        <time>2025-09-10T10:24:29Z</time>
      </trkpt>
      <trkpt lat="45.82609" lon="4.482">
        <ele>755</ele>
        <time>2025-09-10T10:24:30Z</time>
      </trkpt>
      <trkpt lat="45.82604" lon="4.48204">
        <ele>755.2</ele>
        <time>2025-09-10T10:24:31Z</time>
      </trkpt>
      <trkpt lat="45.82601" lon="4.48205">
        <ele>755.2</ele>
        <time>2025-09-10T10:24:32Z</time>
      </trkpt>
      <trkpt lat="45.82599" lon="4.48207">
        <ele>755.4</ele>
        <time>2025-09-10T10:24:33Z</time>
      </trkpt>
      <trkpt lat="45.82597" lon="4.48208">
        <ele>755.8</ele>
        <time>2025-09-10T10:24:34Z</time>
      </trkpt>
      <trkpt lat="45.82594" lon="4.48209">
        <ele>755.8</ele>
        <time>2025-09-10T10:24:35Z</time>
      </trkpt>
      <trkpt lat="45.82592" lon="4.48211">
        <ele>755.8</ele>
        <time>2025-09-10T10:24:36Z</time>
      </trkpt>
      <trkpt lat="45.82589" lon="4.48212">
        <ele>755.8</ele>
        <time>2025-09-10T10:24:37Z</time>
      </trkpt>
      <trkpt lat="45.82586" lon="4.48214">
        <ele>755.8</ele>
        <time>2025-09-10T10:24:38Z</time>
      </trkpt>
      <trkpt lat="45.82586" lon="4.48214">
        <ele>755</ele>
        <time>2025-09-10T10:24:39Z</time>
      </trkpt>
      <trkpt lat="45.82584" lon="4.48216">
        <ele>755</ele>
        <time>2025-09-10T10:24:40Z</time>
      </trkpt>
      <trkpt lat="45.82582" lon="4.48217">
        <ele>755.6</ele>
        <time>2025-09-10T10:24:41Z</time>
      </trkpt>
      <trkpt lat="45.8258" lon="4.4822">
        <ele>755.8</ele>
        <time>2025-09-10T10:24:42Z</time>
      </trkpt>
      <trkpt lat="45.82577" lon="4.48222">
        <ele>755.8</ele>
        <time>2025-09-10T10:24:43Z</time>
      </trkpt>
      <trkpt lat="45.82575" lon="4.48224">
        <ele>755.8</ele>
        <time>2025-09-10T10:24:44Z</time>
      </trkpt>
      <trkpt lat="45.82573" lon="4.48226">
        <ele>755.8</ele>
        <time>2025-09-10T10:24:45Z</time>
      </trkpt>
      <trkpt lat="45.82571" lon="4.48228">
        <ele>756.2</ele>
        <time>2025-09-10T10:24:46Z</time>
      </trkpt>
      <trkpt lat="45.82569" lon="4.4823">
        <ele>756.2</ele>
        <time>2025-09-10T10:24:47Z</time>
      </trkpt>
      <trkpt lat="45.82567" lon="4.48232">
        <ele>756.2</ele>
        <time>2025-09-10T10:24:48Z</time>
      </trkpt>
      <trkpt lat="45.82565" lon="4.48235">
        <ele>756.6</ele>
        <time>2025-09-10T10:24:49Z</time>
      </trkpt>
      <trkpt lat="45.82563" lon="4.48238">
        <ele>756.6</ele>
        <time>2025-09-10T10:24:50Z</time>
      </trkpt>
      <trkpt lat="45.82561" lon="4.4824">
        <ele>756.6</ele>
        <time>2025-09-10T10:24:51Z</time>
      </trkpt>
      <trkpt lat="45.82558" lon="4.48243">
        <ele>756.6</ele>
        <time>2025-09-10T10:24:52Z</time>
      </trkpt>
      <trkpt lat="45.82556" lon="4.48246">
        <ele>756.6</ele>
        <time>2025-09-10T10:24:53Z</time>
      </trkpt>
      <trkpt lat="45.82554" lon="4.48249">
        <ele>756.8</ele>
        <time>2025-09-10T10:24:54Z</time>
      </trkpt>
      <trkpt lat="45.82552" lon="4.48252">
        <ele>756.8</ele>
        <time>2025-09-10T10:24:55Z</time>
      </trkpt>
      <trkpt lat="45.8255" lon="4.48256">
        <ele>756.8</ele>
        <time>2025-09-10T10:24:56Z</time>
      </trkpt>
      <trkpt lat="45.82548" lon="4.4826">
        <ele>756.8</ele>
        <time>2025-09-10T10:24:57Z</time>
      </trkpt>
      <trkpt lat="45.82546" lon="4.48263">
        <ele>756.8</ele>
        <time>2025-09-10T10:24:58Z</time>
      </trkpt>
      <trkpt lat="45.82544" lon="4.48266">
        <ele>756.8</ele>
        <time>2025-09-10T10:24:59Z</time>
      </trkpt>
      <trkpt lat="45.82542" lon="4.48269">
        <ele>756.8</ele>
        <time>2025-09-10T10:25:00Z</time>
      </trkpt>
      <trkpt lat="45.82541" lon="4.48273">
        <ele>756.8</ele>
        <time>2025-09-10T10:25:01Z</time>
      </trkpt>
      <trkpt lat="45.82539" lon="4.48276">
        <ele>756.8</ele>
        <time>2025-09-10T10:25:02Z</time>
      </trkpt>
      <trkpt lat="45.82538" lon="4.4828">
        <ele>756.8</ele>
        <time>2025-09-10T10:25:03Z</time>
      </trkpt>
      <trkpt lat="45.82536" lon="4.48284">
        <ele>756.8</ele>
        <time>2025-09-10T10:25:04Z</time>
      </trkpt>
      <trkpt lat="45.82535" lon="4.48289">
        <ele>756.8</ele>
        <time>2025-09-10T10:25:05Z</time>
      </trkpt>
      <trkpt lat="45.82534" lon="4.48293">
        <ele>757</ele>
        <time>2025-09-10T10:25:06Z</time>
      </trkpt>
      <trkpt lat="45.82533" lon="4.48297">
        <ele>757</ele>
        <time>2025-09-10T10:25:07Z</time>
      </trkpt>
      <trkpt lat="45.82532" lon="4.48301">
        <ele>757</ele>
        <time>2025-09-10T10:25:08Z</time>
      </trkpt>
      <trkpt lat="45.82532" lon="4.48304">
        <ele>757</ele>
        <time>2025-09-10T10:25:09Z</time>
      </trkpt>
      <trkpt lat="45.82532" lon="4.48307">
        <ele>757</ele>
        <time>2025-09-10T10:25:10Z</time>
      </trkpt>
      <trkpt lat="45.82531" lon="4.48308">
        <ele>757</ele>
        <time>2025-09-10T10:25:11Z</time>
      </trkpt>
      <trkpt lat="45.82532" lon="4.48309">
        <ele>757</ele>
        <time>2025-09-10T10:25:12Z</time>
      </trkpt>
      <trkpt lat="45.82521" lon="4.48316">
        <ele>757.2</ele>
        <time>2025-09-10T11:31:01Z</time>
      </trkpt>
      <trkpt lat="45.8252" lon="4.48318">
        <ele>757.2</ele>
        <time>2025-09-10T11:31:02Z</time>
      </trkpt>
      <trkpt lat="45.82519" lon="4.4832">
        <ele>757.2</ele>
        <time>2025-09-10T11:31:03Z</time>
      </trkpt>
      <trkpt lat="45.82518" lon="4.48322">
        <ele>757.2</ele>
        <time>2025-09-10T11:31:04Z</time>
      </trkpt>
      <trkpt lat="45.82518" lon="4.48324">
        <ele>757.2</ele>
        <time>2025-09-10T11:31:05Z</time>
      </trkpt>
      <trkpt lat="45.82517" lon="4.48325">
        <ele>757.2</ele>
        <time>2025-09-10T11:31:06Z</time>
      </trkpt>
      <trkpt lat="45.82516" lon="4.48327">
        <ele>757.2</ele>
        <time>2025-09-10T11:31:07Z</time>
      </trkpt>
      <trkpt lat="45.82515" lon="4.48329">
        <ele>757.2</ele>
        <time>2025-09-10T11:31:08Z</time>
      </trkpt>
      <trkpt lat="45.82514" lon="4.48332">
        <ele>757.2</ele>
        <time>2025-09-10T11:31:09Z</time>
      </trkpt>
      <trkpt lat="45.82513" lon="4.48334">
        <ele>757.2</ele>
        <time>2025-09-10T11:31:10Z</time>
      </trkpt>
      <trkpt lat="45.82512" lon="4.48335">
        <ele>757.2</ele>
        <time>2025-09-10T11:31:11Z</time>
      </trkpt>
      <trkpt lat="45.82511" lon="4.48337">
        <ele>757.2</ele>
        <time>2025-09-10T11:31:12Z</time>
      </trkpt>
      <trkpt lat="45.82509" lon="4.48338">
        <ele>757.2</ele>
        <time>2025-09-10T11:31:13Z</time>
      </trkpt>
      <trkpt lat="45.82508" lon="4.48339">
        <ele>757.2</ele>
        <time>2025-09-10T11:31:14Z</time>
      </trkpt>
      <trkpt lat="45.82507" lon="4.48341">
        <ele>757.2</ele>
        <time>2025-09-10T11:31:15Z</time>
      </trkpt>
      <trkpt lat="45.82506" lon="4.48342">
        <ele>757.4</ele>
        <time>2025-09-10T11:31:16Z</time>
      </trkpt>
      <trkpt lat="45.82504" lon="4.48344">
        <ele>757.4</ele>
        <time>2025-09-10T11:31:17Z</time>
      </trkpt>
      <trkpt lat="45.82503" lon="4.48345">
        <ele>757.4</ele>
        <time>2025-09-10T11:31:18Z</time>
      </trkpt>
      <trkpt lat="45.82503" lon="4.48346">
        <ele>757.4</ele>
        <time>2025-09-10T11:31:19Z</time>
      </trkpt>
      <trkpt lat="45.82502" lon="4.48347">
        <ele>757.6</ele>
        <time>2025-09-10T11:31:20Z</time>
      </trkpt>
      <trkpt lat="45.82501" lon="4.48349">
        <ele>757.6</ele>
        <time>2025-09-10T11:31:21Z</time>
      </trkpt>
      <trkpt lat="45.82499" lon="4.48351">
        <ele>757.8</ele>
        <time>2025-09-10T11:31:22Z</time>
      </trkpt>
      <trkpt lat="45.82498" lon="4.48352">
        <ele>757.8</ele>
        <time>2025-09-10T11:31:23Z</time>
      </trkpt>
      <trkpt lat="45.82496" lon="4.48354">
        <ele>757.8</ele>
        <time>2025-09-10T11:31:24Z</time>
      </trkpt>
      <trkpt lat="45.82494" lon="4.48357">
        <ele>758.2</ele>
        <time>2025-09-10T11:31:25Z</time>
      </trkpt>
      <trkpt lat="45.82492" lon="4.48359">
        <ele>758.2</ele>
        <time>2025-09-10T11:31:26Z</time>
      </trkpt>
      <trkpt lat="45.82491" lon="4.4836">
        <ele>758.2</ele>
        <time>2025-09-10T11:31:27Z</time>
      </trkpt>
      <trkpt lat="45.8249" lon="4.48362">
        <ele>758.4</ele>
        <time>2025-09-10T11:31:28Z</time>
      </trkpt>
      <trkpt lat="45.82489" lon="4.48363">
        <ele>758.4</ele>
        <time>2025-09-10T11:31:29Z</time>
      </trkpt>
      <trkpt lat="45.82489" lon="4.48364">
        <ele>758.4</ele>
        <time>2025-09-10T11:31:30Z</time>
      </trkpt>
      <trkpt lat="45.82488" lon="4.48366">
        <ele>758.4</ele>
        <time>2025-09-10T11:31:31Z</time>
      </trkpt>
      <trkpt lat="45.82487" lon="4.48366">
        <ele>758.4</ele>
        <time>2025-09-10T11:31:32Z</time>
      </trkpt>
      <trkpt lat="45.82486" lon="4.48367">
        <ele>758.8</ele>
        <time>2025-09-10T11:31:33Z</time>
      </trkpt>
      <trkpt lat="45.82484" lon="4.48368">
        <ele>758.8</ele>
        <time>2025-09-10T11:31:34Z</time>
      </trkpt>
      <trkpt lat="45.82483" lon="4.48369">
        <ele>759</ele>
        <time>2025-09-10T11:31:35Z</time>
      </trkpt>
      <trkpt lat="45.82482" lon="4.48371">
        <ele>759</ele>
        <time>2025-09-10T11:31:36Z</time>
      </trkpt>
      <trkpt lat="45.82481" lon="4.48373">
        <ele>759</ele>
        <time>2025-09-10T11:31:37Z</time>
      </trkpt>
      <trkpt lat="45.82479" lon="4.48375">
        <ele>759.2</ele>
        <time>2025-09-10T11:31:38Z</time>
      </trkpt>
      <trkpt lat="45.82477" lon="4.48376">
        <ele>759.2</ele>
        <time>2025-09-10T11:31:39Z</time>
      </trkpt>
      <trkpt lat="45.82476" lon="4.48378">
        <ele>759.2</ele>
        <time>2025-09-10T11:31:40Z</time>
      </trkpt>
      <trkpt lat="45.82474" lon="4.48381">
        <ele>759.6</ele>
        <time>2025-09-10T11:31:41Z</time>
      </trkpt>
      <trkpt lat="45.82473" lon="4.48383">
        <ele>759.6</ele>
        <time>2025-09-10T11:31:42Z</time>
      </trkpt>
      <trkpt lat="45.82472" lon="4.48384">
        <ele>758.4</ele>
        <time>2025-09-10T11:31:43Z</time>
      </trkpt>
      <trkpt lat="45.8247" lon="4.48386">
        <ele>759</ele>
        <time>2025-09-10T11:31:44Z</time>
      </trkpt>
      <trkpt lat="45.82469" lon="4.48388">
        <ele>759</ele>
        <time>2025-09-10T11:31:45Z</time>
      </trkpt>
      <trkpt lat="45.82467" lon="4.48391">
        <ele>759.4</ele>
        <time>2025-09-10T11:31:46Z</time>
      </trkpt>
      <trkpt lat="45.82466" lon="4.48393">
        <ele>759.6</ele>
        <time>2025-09-10T11:31:47Z</time>
      </trkpt>
      <trkpt lat="45.82465" lon="4.48395">
        <ele>759.6</ele>
        <time>2025-09-10T11:31:48Z</time>
      </trkpt>
      <trkpt lat="45.82463" lon="4.48397">
        <ele>759.8</ele>
        <time>2025-09-10T11:31:49Z</time>
      </trkpt>
      <trkpt lat="45.82461" lon="4.48399">
        <ele>759.8</ele>
        <time>2025-09-10T11:31:50Z</time>
      </trkpt>
      <trkpt lat="45.8246" lon="4.484">
        <ele>760.2</ele>
        <time>2025-09-10T11:31:51Z</time>
      </trkpt>
      <trkpt lat="45.82459" lon="4.48401">
        <ele>760.2</ele>
        <time>2025-09-10T11:31:52Z</time>
      </trkpt>
      <trkpt lat="45.82457" lon="4.48404">
        <ele>760.2</ele>
        <time>2025-09-10T11:31:53Z</time>
      </trkpt>
      <trkpt lat="45.82456" lon="4.48406">
        <ele>760.4</ele>
        <time>2025-09-10T11:31:54Z</time>
      </trkpt>
      <trkpt lat="45.82455" lon="4.48407">
        <ele>760.4</ele>
        <time>2025-09-10T11:31:55Z</time>
      </trkpt>
      <trkpt lat="45.82454" lon="4.48408">
        <ele>760.8</ele>
        <time>2025-09-10T11:31:56Z</time>
      </trkpt>
      <trkpt lat="45.82453" lon="4.4841">
        <ele>760.8</ele>
        <time>2025-09-10T11:31:57Z</time>
      </trkpt>
      <trkpt lat="45.82452" lon="4.48412">
        <ele>760.8</ele>
        <time>2025-09-10T11:31:58Z</time>
      </trkpt>
      <trkpt lat="45.82451" lon="4.48415">
        <ele>761</ele>
        <time>2025-09-10T11:31:59Z</time>
      </trkpt>
      <trkpt lat="45.8245" lon="4.48417">
        <ele>761</ele>
        <time>2025-09-10T11:32:00Z</time>
      </trkpt>
      <trkpt lat="45.82448" lon="4.4842">
        <ele>761</ele>
        <time>2025-09-10T11:32:01Z</time>
      </trkpt>
      <trkpt lat="45.82446" lon="4.48421">
        <ele>761</ele>
        <time>2025-09-10T11:32:02Z</time>
      </trkpt>
      <trkpt lat="45.82445" lon="4.48423">
        <ele>761.2</ele>
        <time>2025-09-10T11:32:03Z</time>
      </trkpt>
      <trkpt lat="45.82443" lon="4.48424">
        <ele>761.2</ele>
        <time>2025-09-10T11:32:04Z</time>
      </trkpt>
      <trkpt lat="45.82441" lon="4.48426">
        <ele>761.2</ele>
        <time>2025-09-10T11:32:05Z</time>
      </trkpt>
      <trkpt lat="45.8244" lon="4.48427">
        <ele>761.2</ele>
        <time>2025-09-10T11:32:06Z</time>
      </trkpt>
      <trkpt lat="45.8244" lon="4.48427">
        <ele>761.2</ele>
        <time>2025-09-10T11:32:07Z</time>
      </trkpt>
      <trkpt lat="45.82439" lon="4.48429">
        <ele>761.2</ele>
        <time>2025-09-10T11:32:08Z</time>
      </trkpt>
      <trkpt lat="45.82437" lon="4.4843">
        <ele>761.6</ele>
        <time>2025-09-10T11:32:09Z</time>
      </trkpt>
      <trkpt lat="45.82436" lon="4.48432">
        <ele>761.6</ele>
        <time>2025-09-10T11:32:10Z</time>
      </trkpt>
      <trkpt lat="45.82434" lon="4.48433">
        <ele>761.6</ele>
        <time>2025-09-10T11:32:11Z</time>
      </trkpt>
      <trkpt lat="45.82433" lon="4.48435">
        <ele>761.6</ele>
        <time>2025-09-10T11:32:12Z</time>
      </trkpt>
      <trkpt lat="45.82431" lon="4.48437">
        <ele>761.8</ele>
        <time>2025-09-10T11:32:13Z</time>
      </trkpt>
      <trkpt lat="45.82429" lon="4.48439">
        <ele>761.8</ele>
        <time>2025-09-10T11:32:14Z</time>
      </trkpt>
      <trkpt lat="45.82427" lon="4.48441">
        <ele>761.8</ele>
        <time>2025-09-10T11:32:15Z</time>
      </trkpt>
      <trkpt lat="45.82426" lon="4.48442">
        <ele>761.8</ele>
        <time>2025-09-10T11:32:16Z</time>
      </trkpt>
      <trkpt lat="45.82425" lon="4.48444">
        <ele>762</ele>
        <time>2025-09-10T11:32:17Z</time>
      </trkpt>
      <trkpt lat="45.82423" lon="4.48446">
        <ele>762</ele>
        <time>2025-09-10T11:32:18Z</time>
      </trkpt>
      <trkpt lat="45.82422" lon="4.48448">
        <ele>762</ele>
        <time>2025-09-10T11:32:19Z</time>
      </trkpt>
      <trkpt lat="45.82421" lon="4.48451">
        <ele>762.2</ele>
        <time>2025-09-10T11:32:20Z</time>
      </trkpt>
      <trkpt lat="45.82419" lon="4.48453">
        <ele>762.2</ele>
        <time>2025-09-10T11:32:21Z</time>
      </trkpt>
      <trkpt lat="45.82418" lon="4.48456">
        <ele>762.2</ele>
        <time>2025-09-10T11:32:22Z</time>
      </trkpt>
      <trkpt lat="45.82416" lon="4.48459">
        <ele>762.2</ele>
        <time>2025-09-10T11:32:23Z</time>
      </trkpt>
      <trkpt lat="45.82415" lon="4.48462">
        <ele>762.2</ele>
        <time>2025-09-10T11:32:24Z</time>
      </trkpt>
      <trkpt lat="45.82413" lon="4.48465">
        <ele>762.2</ele>
        <time>2025-09-10T11:32:25Z</time>
      </trkpt>
      <trkpt lat="45.82411" lon="4.48467">
        <ele>762.6</ele>
        <time>2025-09-10T11:32:26Z</time>
      </trkpt>
      <trkpt lat="45.82409" lon="4.48469">
        <ele>762.6</ele>
        <time>2025-09-10T11:32:27Z</time>
      </trkpt>
      <trkpt lat="45.82408" lon="4.48471">
        <ele>762.6</ele>
        <time>2025-09-10T11:32:28Z</time>
      </trkpt>
      <trkpt lat="45.82406" lon="4.48473">
        <ele>762.6</ele>
        <time>2025-09-10T11:32:29Z</time>
      </trkpt>
      <trkpt lat="45.82404" lon="4.48476">
        <ele>762.6</ele>
        <time>2025-09-10T11:32:30Z</time>
      </trkpt>
      <trkpt lat="45.82402" lon="4.48478">
        <ele>762.6</ele>
        <time>2025-09-10T11:32:31Z</time>
      </trkpt>
      <trkpt lat="45.82401" lon="4.4848">
        <ele>762.6</ele>
        <time>2025-09-10T11:32:32Z</time>
      </trkpt>
      <trkpt lat="45.82399" lon="4.48483">
        <ele>762.6</ele>
        <time>2025-09-10T11:32:33Z</time>
      </trkpt>
      <trkpt lat="45.82399" lon="4.48486">
        <ele>762.6</ele>
        <time>2025-09-10T11:32:34Z</time>
      </trkpt>
      <trkpt lat="45.82398" lon="4.48489">
        <ele>762.6</ele>
        <time>2025-09-10T11:32:35Z</time>
      </trkpt>
      <trkpt lat="45.82398" lon="4.48492">
        <ele>762.6</ele>
        <time>2025-09-10T11:32:36Z</time>
      </trkpt>
      <trkpt lat="45.82397" lon="4.48494">
        <ele>762.6</ele>
        <time>2025-09-10T11:32:37Z</time>
      </trkpt>
      <trkpt lat="45.82396" lon="4.48496">
        <ele>762.6</ele>
        <time>2025-09-10T11:32:38Z</time>
      </trkpt>
      <trkpt lat="45.82394" lon="4.48497">
        <ele>762.8</ele>
        <time>2025-09-10T11:32:39Z</time>
      </trkpt>
      <trkpt lat="45.82393" lon="4.485">
        <ele>762.8</ele>
        <time>2025-09-10T11:32:40Z</time>
      </trkpt>
      <trkpt lat="45.82391" lon="4.48502">
        <ele>762.8</ele>
        <time>2025-09-10T11:32:41Z</time>
      </trkpt>
      <trkpt lat="45.82389" lon="4.48505">
        <ele>763</ele>
        <time>2025-09-10T11:32:42Z</time>
      </trkpt>
      <trkpt lat="45.82388" lon="4.48507">
        <ele>763</ele>
        <time>2025-09-10T11:32:43Z</time>
      </trkpt>
      <trkpt lat="45.82387" lon="4.48509">
        <ele>763</ele>
        <time>2025-09-10T11:32:44Z</time>
      </trkpt>
      <trkpt lat="45.82386" lon="4.4851">
        <ele>763.2</ele>
        <time>2025-09-10T11:32:45Z</time>
      </trkpt>
      <trkpt lat="45.82385" lon="4.48512">
        <ele>763.2</ele>
        <time>2025-09-10T11:32:46Z</time>
      </trkpt>
      <trkpt lat="45.82384" lon="4.48514">
        <ele>763.2</ele>
        <time>2025-09-10T11:32:47Z</time>
      </trkpt>
      <trkpt lat="45.82383" lon="4.48516">
        <ele>763.2</ele>
        <time>2025-09-10T11:32:48Z</time>
      </trkpt>
      <trkpt lat="45.82382" lon="4.48517">
        <ele>763.2</ele>
        <time>2025-09-10T11:32:49Z</time>
      </trkpt>
      <trkpt lat="45.82381" lon="4.48519">
        <ele>763.4</ele>
        <time>2025-09-10T11:32:50Z</time>
      </trkpt>
      <trkpt lat="45.8238" lon="4.48522">
        <ele>763.4</ele>
        <time>2025-09-10T11:32:51Z</time>
      </trkpt>
      <trkpt lat="45.82379" lon="4.48524">
        <ele>763.4</ele>
        <time>2025-09-10T11:32:52Z</time>
      </trkpt>
      <trkpt lat="45.82378" lon="4.48526">
        <ele>763.8</ele>
        <time>2025-09-10T11:32:53Z</time>
      </trkpt>
      <trkpt lat="45.82376" lon="4.48527">
        <ele>763.8</ele>
        <time>2025-09-10T11:32:54Z</time>
      </trkpt>
      <trkpt lat="45.82375" lon="4.48529">
        <ele>763.8</ele>
        <time>2025-09-10T11:32:55Z</time>
      </trkpt>
      <trkpt lat="45.82373" lon="4.4853">
        <ele>764</ele>
        <time>2025-09-10T11:32:56Z</time>
      </trkpt>
      <trkpt lat="45.82372" lon="4.48532">
        <ele>764</ele>
        <time>2025-09-10T11:32:57Z</time>
      </trkpt>
      <trkpt lat="45.82371" lon="4.48533">
        <ele>764.2</ele>
        <time>2025-09-10T11:32:58Z</time>
      </trkpt>
      <trkpt lat="45.8237" lon="4.48535">
        <ele>764.2</ele>
        <time>2025-09-10T11:32:59Z</time>
      </trkpt>
      <trkpt lat="45.82368" lon="4.48537">
        <ele>764.2</ele>
        <time>2025-09-10T11:33:00Z</time>
      </trkpt>
      <trkpt lat="45.82366" lon="4.48539">
        <ele>764.2</ele>
        <time>2025-09-10T11:33:01Z</time>
      </trkpt>
      <trkpt lat="45.82364" lon="4.4854">
        <ele>764.2</ele>
        <time>2025-09-10T11:33:02Z</time>
      </trkpt>
      <trkpt lat="45.82362" lon="4.48541">
        <ele>764.6</ele>
        <time>2025-09-10T11:33:03Z</time>
      </trkpt>
      <trkpt lat="45.8236" lon="4.48542">
        <ele>764.6</ele>
        <time>2025-09-10T11:33:04Z</time>
      </trkpt>
      <trkpt lat="45.82359" lon="4.48544">
        <ele>764.8</ele>
        <time>2025-09-10T11:33:05Z</time>
      </trkpt>
      <trkpt lat="45.82357" lon="4.48546">
        <ele>764.8</ele>
        <time>2025-09-10T11:33:06Z</time>
      </trkpt>
      <trkpt lat="45.82356" lon="4.48549">
        <ele>764.8</ele>
        <time>2025-09-10T11:33:07Z</time>
      </trkpt>
      <trkpt lat="45.82354" lon="4.48553">
        <ele>764.8</ele>
        <time>2025-09-10T11:33:08Z</time>
      </trkpt>
      <trkpt lat="45.82353" lon="4.48555">
        <ele>764.8</ele>
        <time>2025-09-10T11:33:09Z</time>
      </trkpt>
      <trkpt lat="45.82351" lon="4.48557">
        <ele>764.8</ele>
        <time>2025-09-10T11:33:10Z</time>
      </trkpt>
      <trkpt lat="45.82349" lon="4.48559">
        <ele>765.2</ele>
        <time>2025-09-10T11:33:11Z</time>
      </trkpt>
      <trkpt lat="45.82347" lon="4.4856">
        <ele>765.2</ele>
        <time>2025-09-10T11:33:12Z</time>
      </trkpt>
      <trkpt lat="45.82345" lon="4.48562">
        <ele>765.2</ele>
        <time>2025-09-10T11:33:13Z</time>
      </trkpt>
      <trkpt lat="45.82343" lon="4.48563">
        <ele>765.4</ele>
        <time>2025-09-10T11:33:14Z</time>
      </trkpt>
      <trkpt lat="45.82342" lon="4.48565">
        <ele>765.4</ele>
        <time>2025-09-10T11:33:15Z</time>
      </trkpt>
      <trkpt lat="45.8234" lon="4.48567">
        <ele>765.6</ele>
        <time>2025-09-10T11:33:16Z</time>
      </trkpt>
      <trkpt lat="45.82339" lon="4.48569">
        <ele>765.6</ele>
        <time>2025-09-10T11:33:17Z</time>
      </trkpt>
      <trkpt lat="45.82338" lon="4.48572">
        <ele>765.6</ele>
        <time>2025-09-10T11:33:18Z</time>
      </trkpt>
      <trkpt lat="45.82336" lon="4.48575">
        <ele>765.6</ele>
        <time>2025-09-10T11:33:19Z</time>
      </trkpt>
      <trkpt lat="45.82335" lon="4.48577">
        <ele>765.6</ele>
        <time>2025-09-10T11:33:20Z</time>
      </trkpt>
      <trkpt lat="45.82334" lon="4.4858">
        <ele>765.6</ele>
        <time>2025-09-10T11:33:21Z</time>
      </trkpt>
      <trkpt lat="45.82332" lon="4.48582">
        <ele>765.6</ele>
        <time>2025-09-10T11:33:22Z</time>
      </trkpt>
      <trkpt lat="45.82331" lon="4.48584">
        <ele>765.6</ele>
        <time>2025-09-10T11:33:23Z</time>
      </trkpt>
      <trkpt lat="45.82329" lon="4.48587">
        <ele>765.6</ele>
        <time>2025-09-10T11:33:24Z</time>
      </trkpt>
      <trkpt lat="45.82328" lon="4.48589">
        <ele>765.8</ele>
        <time>2025-09-10T11:33:25Z</time>
      </trkpt>
      <trkpt lat="45.82327" lon="4.48592">
        <ele>765.8</ele>
        <time>2025-09-10T11:33:26Z</time>
      </trkpt>
      <trkpt lat="45.82326" lon="4.48595">
        <ele>766.2</ele>
        <time>2025-09-10T11:33:27Z</time>
      </trkpt>
      <trkpt lat="45.82325" lon="4.48598">
        <ele>766.2</ele>
        <time>2025-09-10T11:33:28Z</time>
      </trkpt>
      <trkpt lat="45.82324" lon="4.486">
        <ele>766.2</ele>
        <time>2025-09-10T11:33:29Z</time>
      </trkpt>
      <trkpt lat="45.82323" lon="4.48602">
        <ele>766.2</ele>
        <time>2025-09-10T11:33:30Z</time>
      </trkpt>
      <trkpt lat="45.82321" lon="4.48604">
        <ele>766.4</ele>
        <time>2025-09-10T11:33:31Z</time>
      </trkpt>
      <trkpt lat="45.8232" lon="4.48607">
        <ele>766.4</ele>
        <time>2025-09-10T11:33:32Z</time>
      </trkpt>
      <trkpt lat="45.82319" lon="4.4861">
        <ele>766.4</ele>
        <time>2025-09-10T11:33:33Z</time>
      </trkpt>
      <trkpt lat="45.82318" lon="4.48612">
        <ele>766.4</ele>
        <time>2025-09-10T11:33:34Z</time>
      </trkpt>
      <trkpt lat="45.82316" lon="4.48615">
        <ele>766.4</ele>
        <time>2025-09-10T11:33:35Z</time>
      </trkpt>
      <trkpt lat="45.82315" lon="4.48618">
        <ele>766.6</ele>
        <time>2025-09-10T11:33:36Z</time>
      </trkpt>
      <trkpt lat="45.82314" lon="4.4862">
        <ele>766.6</ele>
        <time>2025-09-10T11:33:37Z</time>
      </trkpt>
      <trkpt lat="45.82312" lon="4.48623">
        <ele>766.4</ele>
        <time>2025-09-10T11:33:38Z</time>
      </trkpt>
      <trkpt lat="45.8231" lon="4.48625">
        <ele>766.6</ele>
        <time>2025-09-10T11:33:39Z</time>
      </trkpt>
      <trkpt lat="45.82308" lon="4.48628">
        <ele>766.6</ele>
        <time>2025-09-10T11:33:40Z</time>
      </trkpt>
      <trkpt lat="45.82306" lon="4.4863">
        <ele>766.6</ele>
        <time>2025-09-10T11:33:41Z</time>
      </trkpt>
      <trkpt lat="45.82304" lon="4.48633">
        <ele>766.6</ele>
        <time>2025-09-10T11:33:42Z</time>
      </trkpt>
      <trkpt lat="45.82301" lon="4.48636">
        <ele>766.4</ele>
        <time>2025-09-10T11:33:43Z</time>
      </trkpt>
      <trkpt lat="45.82299" lon="4.48639">
        <ele>766.4</ele>
        <time>2025-09-10T11:33:44Z</time>
      </trkpt>
      <trkpt lat="45.82296" lon="4.48641">
        <ele>766.2</ele>
        <time>2025-09-10T11:33:45Z</time>
      </trkpt>
      <trkpt lat="45.82294" lon="4.48643">
        <ele>766.2</ele>
        <time>2025-09-10T11:33:46Z</time>
      </trkpt>
      <trkpt lat="45.82292" lon="4.48646">
        <ele>766.2</ele>
        <time>2025-09-10T11:33:47Z</time>
      </trkpt>
      <trkpt lat="45.8229" lon="4.48648">
        <ele>766.2</ele>
        <time>2025-09-10T11:33:48Z</time>
      </trkpt>
      <trkpt lat="45.82288" lon="4.4865">
        <ele>766.2</ele>
        <time>2025-09-10T11:33:49Z</time>
      </trkpt>
      <trkpt lat="45.82285" lon="4.48651">
        <ele>765.8</ele>
        <time>2025-09-10T11:33:50Z</time>
      </trkpt>
      <trkpt lat="45.82283" lon="4.48652">
        <ele>765.8</ele>
        <time>2025-09-10T11:33:51Z</time>
      </trkpt>
      <trkpt lat="45.8228" lon="4.48653">
        <ele>765.8</ele>
        <time>2025-09-10T11:33:52Z</time>
      </trkpt>
      <trkpt lat="45.82277" lon="4.48654">
        <ele>765.8</ele>
        <time>2025-09-10T11:33:53Z</time>
      </trkpt>
      <trkpt lat="45.82274" lon="4.48654">
        <ele>765.8</ele>
        <time>2025-09-10T11:33:54Z</time>
      </trkpt>
      <trkpt lat="45.82271" lon="4.48654">
        <ele>765.4</ele>
        <time>2025-09-10T11:33:55Z</time>
      </trkpt>
      <trkpt lat="45.82264" lon="4.48653">
        <ele>765.4</ele>
        <time>2025-09-10T11:33:56Z</time>
      </trkpt>
      <trkpt lat="45.82261" lon="4.48653">
        <ele>765.2</ele>
        <time>2025-09-10T11:33:57Z</time>
      </trkpt>
      <trkpt lat="45.82258" lon="4.48653">
        <ele>765.2</ele>
        <time>2025-09-10T11:33:58Z</time>
      </trkpt>
      <trkpt lat="45.82254" lon="4.48652">
        <ele>765.2</ele>
        <time>2025-09-10T11:33:59Z</time>
      </trkpt>
      <trkpt lat="45.82252" lon="4.48651">
        <ele>765.2</ele>
        <time>2025-09-10T11:34:00Z</time>
      </trkpt>
      <trkpt lat="45.82249" lon="4.48649">
        <ele>765.2</ele>
        <time>2025-09-10T11:34:01Z</time>
      </trkpt>
      <trkpt lat="45.82246" lon="4.48647">
        <ele>765.2</ele>
        <time>2025-09-10T11:34:02Z</time>
      </trkpt>
      <trkpt lat="45.82242" lon="4.48646">
        <ele>765.2</ele>
        <time>2025-09-10T11:34:03Z</time>
      </trkpt>
      <trkpt lat="45.82239" lon="4.48645">
        <ele>765</ele>
        <time>2025-09-10T11:34:04Z</time>
      </trkpt>
      <trkpt lat="45.82235" lon="4.48645">
        <ele>765</ele>
        <time>2025-09-10T11:34:05Z</time>
      </trkpt>
      <trkpt lat="45.82232" lon="4.48644">
        <ele>765</ele>
        <time>2025-09-10T11:34:06Z</time>
      </trkpt>
      <trkpt lat="45.82228" lon="4.48644">
        <ele>765</ele>
        <time>2025-09-10T11:34:07Z</time>
      </trkpt>
      <trkpt lat="45.82224" lon="4.48643">
        <ele>764.8</ele>
        <time>2025-09-10T11:34:08Z</time>
      </trkpt>
      <trkpt lat="45.82219" lon="4.48642">
        <ele>764.8</ele>
        <time>2025-09-10T11:34:09Z</time>
      </trkpt>
      <trkpt lat="45.82214" lon="4.4864">
        <ele>764.4</ele>
        <time>2025-09-10T11:34:10Z</time>
      </trkpt>
      <trkpt lat="45.82214" lon="4.4864">
        <ele>764.4</ele>
        <time>2025-09-10T11:34:11Z</time>
      </trkpt>
      <trkpt lat="45.8221" lon="4.48637">
        <ele>764.2</ele>
        <time>2025-09-10T11:34:12Z</time>
      </trkpt>
      <trkpt lat="45.82206" lon="4.48635">
        <ele>764.2</ele>
        <time>2025-09-10T11:34:13Z</time>
      </trkpt>
      <trkpt lat="45.82202" lon="4.48632">
        <ele>764</ele>
        <time>2025-09-10T11:34:14Z</time>
      </trkpt>
      <trkpt lat="45.82197" lon="4.48631">
        <ele>764</ele>
        <time>2025-09-10T11:34:15Z</time>
      </trkpt>
      <trkpt lat="45.82193" lon="4.48629">
        <ele>763.8</ele>
        <time>2025-09-10T11:34:16Z</time>
      </trkpt>
      <trkpt lat="45.8219" lon="4.48627">
        <ele>763.8</ele>
        <time>2025-09-10T11:34:17Z</time>
      </trkpt>
      <trkpt lat="45.82186" lon="4.48626">
        <ele>763.8</ele>
        <time>2025-09-10T11:34:18Z</time>
      </trkpt>
      <trkpt lat="45.82183" lon="4.48625">
        <ele>763.8</ele>
        <time>2025-09-10T11:34:19Z</time>
      </trkpt>
      <trkpt lat="45.8218" lon="4.48625">
        <ele>763.8</ele>
        <time>2025-09-10T11:34:20Z</time>
      </trkpt>
      <trkpt lat="45.82178" lon="4.48625">
        <ele>763.8</ele>
        <time>2025-09-10T11:34:21Z</time>
      </trkpt>
      <trkpt lat="45.82176" lon="4.48624">
        <ele>763.8</ele>
        <time>2025-09-10T11:34:22Z</time>
      </trkpt>
      <trkpt lat="45.82175" lon="4.48623">
        <ele>763.8</ele>
        <time>2025-09-10T11:34:23Z</time>
      </trkpt>
      <trkpt lat="45.82175" lon="4.48624">
        <ele>763.8</ele>
        <time>2025-09-10T11:34:24Z</time>
      </trkpt>
      <trkpt lat="45.82175" lon="4.48624">
        <ele>763.8</ele>
        <time>2025-09-10T11:34:25Z</time>
      </trkpt>
      <trkpt lat="45.8217" lon="4.48622">
        <ele>764.4</ele>
        <time>2025-09-10T11:35:50Z</time>
      </trkpt>
      <trkpt lat="45.82167" lon="4.48621">
        <ele>764.4</ele>
        <time>2025-09-10T11:35:51Z</time>
      </trkpt>
      <trkpt lat="45.82166" lon="4.48619">
        <ele>764.4</ele>
        <time>2025-09-10T11:35:52Z</time>
      </trkpt>
      <trkpt lat="45.82164" lon="4.48618">
        <ele>764.4</ele>
        <time>2025-09-10T11:35:53Z</time>
      </trkpt>
      <trkpt lat="45.82162" lon="4.48616">
        <ele>764.4</ele>
        <time>2025-09-10T11:35:54Z</time>
      </trkpt>
      <trkpt lat="45.8216" lon="4.48613">
        <ele>764</ele>
        <time>2025-09-10T11:35:55Z</time>
      </trkpt>
      <trkpt lat="45.82158" lon="4.48612">
        <ele>764</ele>
        <time>2025-09-10T11:35:56Z</time>
      </trkpt>
      <trkpt lat="45.82155" lon="4.4861">
        <ele>764</ele>
        <time>2025-09-10T11:35:57Z</time>
      </trkpt>
      <trkpt lat="45.82152" lon="4.48609">
        <ele>763.8</ele>
        <time>2025-09-10T11:35:58Z</time>
      </trkpt>
      <trkpt lat="45.82149" lon="4.48607">
        <ele>763.8</ele>
        <time>2025-09-10T11:35:59Z</time>
      </trkpt>
      <trkpt lat="45.82146" lon="4.48606">
        <ele>763.8</ele>
        <time>2025-09-10T11:36:00Z</time>
      </trkpt>
      <trkpt lat="45.82143" lon="4.48604">
        <ele>763.8</ele>
        <time>2025-09-10T11:36:01Z</time>
      </trkpt>
      <trkpt lat="45.82139" lon="4.48603">
        <ele>763.8</ele>
        <time>2025-09-10T11:36:02Z</time>
      </trkpt>
      <trkpt lat="45.82136" lon="4.48601">
        <ele>764</ele>
        <time>2025-09-10T11:36:03Z</time>
      </trkpt>
      <trkpt lat="45.82132" lon="4.486">
        <ele>764</ele>
        <time>2025-09-10T11:36:04Z</time>
      </trkpt>
      <trkpt lat="45.82129" lon="4.48599">
        <ele>764</ele>
        <time>2025-09-10T11:36:05Z</time>
      </trkpt>
      <trkpt lat="45.82126" lon="4.48598">
        <ele>764</ele>
        <time>2025-09-10T11:36:06Z</time>
      </trkpt>
      <trkpt lat="45.82122" lon="4.48596">
        <ele>764.4</ele>
        <time>2025-09-10T11:36:07Z</time>
      </trkpt>
      <trkpt lat="45.82119" lon="4.48596">
        <ele>764.4</ele>
        <time>2025-09-10T11:36:08Z</time>
      </trkpt>
      <trkpt lat="45.82116" lon="4.48595">
        <ele>764.4</ele>
        <time>2025-09-10T11:36:09Z</time>
      </trkpt>
      <trkpt lat="45.82113" lon="4.48594">
        <ele>764.6</ele>
        <time>2025-09-10T11:36:10Z</time>
      </trkpt>
      <trkpt lat="45.8211" lon="4.48594">
        <ele>764.6</ele>
        <time>2025-09-10T11:36:11Z</time>
      </trkpt>
      <trkpt lat="45.82106" lon="4.48593">
        <ele>764.6</ele>
        <time>2025-09-10T11:36:12Z</time>
      </trkpt>
      <trkpt lat="45.82102" lon="4.48592">
        <ele>764.6</ele>
        <time>2025-09-10T11:36:13Z</time>
      </trkpt>
      <trkpt lat="45.82099" lon="4.48592">
        <ele>764.6</ele>
        <time>2025-09-10T11:36:14Z</time>
      </trkpt>
      <trkpt lat="45.82095" lon="4.48591">
        <ele>764.6</ele>
        <time>2025-09-10T11:36:15Z</time>
      </trkpt>
      <trkpt lat="45.82091" lon="4.48591">
        <ele>764.6</ele>
        <time>2025-09-10T11:36:16Z</time>
      </trkpt>
      <trkpt lat="45.82087" lon="4.4859">
        <ele>764.6</ele>
        <time>2025-09-10T11:36:17Z</time>
      </trkpt>
      <trkpt lat="45.82084" lon="4.48588">
        <ele>764.6</ele>
        <time>2025-09-10T11:36:18Z</time>
      </trkpt>
      <trkpt lat="45.8208" lon="4.48586">
        <ele>764.6</ele>
        <time>2025-09-10T11:36:19Z</time>
      </trkpt>
      <trkpt lat="45.82076" lon="4.48585">
        <ele>764.6</ele>
        <time>2025-09-10T11:36:20Z</time>
      </trkpt>
      <trkpt lat="45.82073" lon="4.48583">
        <ele>764.4</ele>
        <time>2025-09-10T11:36:21Z</time>
      </trkpt>
      <trkpt lat="45.82071" lon="4.48581">
        <ele>764.4</ele>
        <time>2025-09-10T11:36:22Z</time>
      </trkpt>
      <trkpt lat="45.82069" lon="4.4858">
        <ele>764.4</ele>
        <time>2025-09-10T11:36:23Z</time>
      </trkpt>
      <trkpt lat="45.82067" lon="4.48579">
        <ele>764.4</ele>
        <time>2025-09-10T11:36:24Z</time>
      </trkpt>
      <trkpt lat="45.82065" lon="4.48579">
        <ele>764.4</ele>
        <time>2025-09-10T11:36:25Z</time>
      </trkpt>
      <trkpt lat="45.82063" lon="4.48581">
        <ele>764.4</ele>
        <time>2025-09-10T11:36:26Z</time>
      </trkpt>
      <trkpt lat="45.82061" lon="4.48584">
        <ele>764.4</ele>
        <time>2025-09-10T11:36:27Z</time>
      </trkpt>
      <trkpt lat="45.8206" lon="4.48588">
        <ele>764</ele>
        <time>2025-09-10T11:36:28Z</time>
      </trkpt>
      <trkpt lat="45.82059" lon="4.48591">
        <ele>764</ele>
        <time>2025-09-10T11:36:29Z</time>
      </trkpt>
      <trkpt lat="45.82057" lon="4.48594">
        <ele>763.6</ele>
        <time>2025-09-10T11:36:30Z</time>
      </trkpt>
      <trkpt lat="45.82053" lon="4.48598">
        <ele>763.4</ele>
        <time>2025-09-10T11:36:31Z</time>
      </trkpt>
      <trkpt lat="45.82051" lon="4.48602">
        <ele>763.4</ele>
        <time>2025-09-10T11:36:32Z</time>
      </trkpt>
      <trkpt lat="45.82048" lon="4.48606">
        <ele>763</ele>
        <time>2025-09-10T11:36:33Z</time>
      </trkpt>
      <trkpt lat="45.82045" lon="4.48607">
        <ele>762.6</ele>
        <time>2025-09-10T11:36:34Z</time>
      </trkpt>
      <trkpt lat="45.82043" lon="4.48611">
        <ele>762.6</ele>
        <time>2025-09-10T11:36:35Z</time>
      </trkpt>
      <trkpt lat="45.82039" lon="4.48612">
        <ele>762.4</ele>
        <time>2025-09-10T11:36:36Z</time>
      </trkpt>
      <trkpt lat="45.82037" lon="4.48609">
        <ele>762.2</ele>
        <time>2025-09-10T11:36:37Z</time>
      </trkpt>
      <trkpt lat="45.82034" lon="4.48609">
        <ele>762.2</ele>
        <time>2025-09-10T11:36:38Z</time>
      </trkpt>
      <trkpt lat="45.82034" lon="4.48608">
        <ele>761.8</ele>
        <time>2025-09-10T11:36:39Z</time>
      </trkpt>
      <trkpt lat="45.82034" lon="4.48607">
        <ele>761.8</ele>
        <time>2025-09-10T11:36:40Z</time>
      </trkpt>
      <trkpt lat="45.82033" lon="4.48608">
        <ele>761.8</ele>
        <time>2025-09-10T11:36:41Z</time>
      </trkpt>
      <trkpt lat="45.82034" lon="4.48608">
        <ele>761.8</ele>
        <time>2025-09-10T11:36:42Z</time>
      </trkpt>
      <trkpt lat="45.82033" lon="4.48608">
        <ele>761.4</ele>
        <time>2025-09-10T11:36:45Z</time>
      </trkpt>
      <trkpt lat="45.82032" lon="4.48609">
        <ele>761.4</ele>
        <time>2025-09-10T11:36:46Z</time>
      </trkpt>
      <trkpt lat="45.8203" lon="4.48609">
        <ele>761</ele>
        <time>2025-09-10T11:36:47Z</time>
      </trkpt>
      <trkpt lat="45.82029" lon="4.48607">
        <ele>761</ele>
        <time>2025-09-10T11:36:48Z</time>
      </trkpt>
      <trkpt lat="45.82027" lon="4.48604">
        <ele>760.8</ele>
        <time>2025-09-10T11:36:49Z</time>
      </trkpt>
      <trkpt lat="45.82025" lon="4.48601">
        <ele>760.6</ele>
        <time>2025-09-10T11:36:50Z</time>
      </trkpt>
      <trkpt lat="45.82023" lon="4.48597">
        <ele>760.6</ele>
        <time>2025-09-10T11:36:51Z</time>
      </trkpt>
      <trkpt lat="45.82021" lon="4.48594">
        <ele>760.2</ele>
        <time>2025-09-10T11:36:52Z</time>
      </trkpt>
      <trkpt lat="45.82018" lon="4.4859">
        <ele>760.2</ele>
        <time>2025-09-10T11:36:53Z</time>
      </trkpt>
      <trkpt lat="45.82015" lon="4.48586">
        <ele>760</ele>
        <time>2025-09-10T11:36:54Z</time>
      </trkpt>
      <trkpt lat="45.82012" lon="4.48578">
        <ele>759.6</ele>
        <time>2025-09-10T11:36:55Z</time>
      </trkpt>
      <trkpt lat="45.82009" lon="4.4857">
        <ele>759</ele>
        <time>2025-09-10T11:36:56Z</time>
      </trkpt>
      <trkpt lat="45.82005" lon="4.48564">
        <ele>758.4</ele>
        <time>2025-09-10T11:36:57Z</time>
      </trkpt>
      <trkpt lat="45.82003" lon="4.48557">
        <ele>757.8</ele>
        <time>2025-09-10T11:36:58Z</time>
      </trkpt>
      <trkpt lat="45.82" lon="4.4855">
        <ele>757.4</ele>
        <time>2025-09-10T11:36:59Z</time>
      </trkpt>
      <trkpt lat="45.81999" lon="4.48541">
        <ele>757.2</ele>
        <time>2025-09-10T11:37:00Z</time>
      </trkpt>
      <trkpt lat="45.81998" lon="4.48531">
        <ele>756.6</ele>
        <time>2025-09-10T11:37:01Z</time>
      </trkpt>
      <trkpt lat="45.81998" lon="4.48521">
        <ele>756.4</ele>
        <time>2025-09-10T11:37:02Z</time>
      </trkpt>
      <trkpt lat="45.81998" lon="4.4851">
        <ele>756</ele>
        <time>2025-09-10T11:37:03Z</time>
      </trkpt>
      <trkpt lat="45.81997" lon="4.485">
        <ele>755.8</ele>
        <time>2025-09-10T11:37:04Z</time>
      </trkpt>
      <trkpt lat="45.81996" lon="4.48491">
        <ele>755.4</ele>
        <time>2025-09-10T11:37:05Z</time>
      </trkpt>
      <trkpt lat="45.81996" lon="4.48481">
        <ele>755.2</ele>
        <time>2025-09-10T11:37:06Z</time>
      </trkpt>
      <trkpt lat="45.81995" lon="4.48473">
        <ele>754.8</ele>
        <time>2025-09-10T11:37:07Z</time>
      </trkpt>
      <trkpt lat="45.81993" lon="4.48465">
        <ele>754.4</ele>
        <time>2025-09-10T11:37:08Z</time>
      </trkpt>
      <trkpt lat="45.81991" lon="4.48457">
        <ele>754.2</ele>
        <time>2025-09-10T11:37:09Z</time>
      </trkpt>
      <trkpt lat="45.81991" lon="4.48448">
        <ele>753.6</ele>
        <time>2025-09-10T11:37:10Z</time>
      </trkpt>
      <trkpt lat="45.81989" lon="4.48438">
        <ele>753</ele>
        <time>2025-09-10T11:37:11Z</time>
      </trkpt>
      <trkpt lat="45.81987" lon="4.48428">
        <ele>752.2</ele>
        <time>2025-09-10T11:37:12Z</time>
      </trkpt>
      <trkpt lat="45.81985" lon="4.48419">
        <ele>751.6</ele>
        <time>2025-09-10T11:37:13Z</time>
      </trkpt>
      <trkpt lat="45.81983" lon="4.4841">
        <ele>751</ele>
        <time>2025-09-10T11:37:14Z</time>
      </trkpt>
      <trkpt lat="45.81981" lon="4.48401">
        <ele>750.8</ele>
        <time>2025-09-10T11:37:15Z</time>
      </trkpt>
      <trkpt lat="45.81979" lon="4.48392">
        <ele>750.2</ele>
        <time>2025-09-10T11:37:16Z</time>
      </trkpt>
      <trkpt lat="45.81976" lon="4.48382">
        <ele>749.4</ele>
        <time>2025-09-10T11:37:17Z</time>
      </trkpt>
      <trkpt lat="45.81972" lon="4.48373">
        <ele>748.6</ele>
        <time>2025-09-10T11:37:18Z</time>
      </trkpt>
      <trkpt lat="45.81968" lon="4.48364">
        <ele>748</ele>
        <time>2025-09-10T11:37:19Z</time>
      </trkpt>
      <trkpt lat="45.81962" lon="4.48356">
        <ele>747</ele>
        <time>2025-09-10T11:37:20Z</time>
      </trkpt>
      <trkpt lat="45.81957" lon="4.48348">
        <ele>745.8</ele>
        <time>2025-09-10T11:37:21Z</time>
      </trkpt>
      <trkpt lat="45.81952" lon="4.48341">
        <ele>745</ele>
        <time>2025-09-10T11:37:22Z</time>
      </trkpt>
      <trkpt lat="45.81947" lon="4.48335">
        <ele>744.4</ele>
        <time>2025-09-10T11:37:23Z</time>
      </trkpt>
      <trkpt lat="45.81944" lon="4.4833">
        <ele>743.8</ele>
        <time>2025-09-10T11:37:24Z</time>
      </trkpt>
      <trkpt lat="45.8194" lon="4.48326">
        <ele>743.4</ele>
        <time>2025-09-10T11:37:25Z</time>
      </trkpt>
      <trkpt lat="45.81938" lon="4.48321">
        <ele>743</ele>
        <time>2025-09-10T11:37:26Z</time>
      </trkpt>
      <trkpt lat="45.81935" lon="4.48318">
        <ele>742.8</ele>
        <time>2025-09-10T11:37:27Z</time>
      </trkpt>
      <trkpt lat="45.81933" lon="4.48314">
        <ele>742.8</ele>
        <time>2025-09-10T11:37:28Z</time>
      </trkpt>
      <trkpt lat="45.81931" lon="4.48313">
        <ele>742.4</ele>
        <time>2025-09-10T11:37:29Z</time>
      </trkpt>
      <trkpt lat="45.81929" lon="4.48312">
        <ele>742.4</ele>
        <time>2025-09-10T11:37:30Z</time>
      </trkpt>
      <trkpt lat="45.81928" lon="4.48312">
        <ele>742.4</ele>
        <time>2025-09-10T11:37:31Z</time>
      </trkpt>
      <trkpt lat="45.81926" lon="4.48312">
        <ele>742.4</ele>
        <time>2025-09-10T11:37:32Z</time>
      </trkpt>
      <trkpt lat="45.81926" lon="4.48312">
        <ele>742.2</ele>
        <time>2025-09-10T11:37:33Z</time>
      </trkpt>
      <trkpt lat="45.81926" lon="4.48312">
        <ele>742.2</ele>
        <time>2025-09-10T11:37:34Z</time>
      </trkpt>
      <trkpt lat="45.81926" lon="4.48313">
        <ele>742</ele>
        <time>2025-09-10T11:37:41Z</time>
      </trkpt>
      <trkpt lat="45.81927" lon="4.48313">
        <ele>741.8</ele>
        <time>2025-09-10T11:37:42Z</time>
      </trkpt>
      <trkpt lat="45.81926" lon="4.48311">
        <ele>741.8</ele>
        <time>2025-09-10T11:37:43Z</time>
      </trkpt>
      <trkpt lat="45.81925" lon="4.48308">
        <ele>741.8</ele>
        <time>2025-09-10T11:37:44Z</time>
      </trkpt>
      <trkpt lat="45.81923" lon="4.48305">
        <ele>741.8</ele>
        <time>2025-09-10T11:37:45Z</time>
      </trkpt>
      <trkpt lat="45.8192" lon="4.48301">
        <ele>741.8</ele>
        <time>2025-09-10T11:37:46Z</time>
      </trkpt>
      <trkpt lat="45.81918" lon="4.48298">
        <ele>741.4</ele>
        <time>2025-09-10T11:37:47Z</time>
      </trkpt>
      <trkpt lat="45.81915" lon="4.48294">
        <ele>741.4</ele>
        <time>2025-09-10T11:37:48Z</time>
      </trkpt>
      <trkpt lat="45.81913" lon="4.4829">
        <ele>741.4</ele>
        <time>2025-09-10T11:37:49Z</time>
      </trkpt>
      <trkpt lat="45.81911" lon="4.48286">
        <ele>741.4</ele>
        <time>2025-09-10T11:37:50Z</time>
      </trkpt>
      <trkpt lat="45.81909" lon="4.48282">
        <ele>741.2</ele>
        <time>2025-09-10T11:37:51Z</time>
      </trkpt>
      <trkpt lat="45.81906" lon="4.48278">
        <ele>741.2</ele>
        <time>2025-09-10T11:37:52Z</time>
      </trkpt>
      <trkpt lat="45.81903" lon="4.48272">
        <ele>740.8</ele>
        <time>2025-09-10T11:37:53Z</time>
      </trkpt>
      <trkpt lat="45.819" lon="4.48268">
        <ele>740.6</ele>
        <time>2025-09-10T11:37:54Z</time>
      </trkpt>
      <trkpt lat="45.81897" lon="4.48263">
        <ele>740.6</ele>
        <time>2025-09-10T11:37:55Z</time>
      </trkpt>
      <trkpt lat="45.81894" lon="4.48257">
        <ele>740.6</ele>
        <time>2025-09-10T11:37:56Z</time>
      </trkpt>
      <trkpt lat="45.8189" lon="4.48251">
        <ele>740.2</ele>
        <time>2025-09-10T11:37:57Z</time>
      </trkpt>
      <trkpt lat="45.81886" lon="4.48244">
        <ele>739.8</ele>
        <time>2025-09-10T11:37:58Z</time>
      </trkpt>
      <trkpt lat="45.81882" lon="4.48237">
        <ele>739.4</ele>
        <time>2025-09-10T11:37:59Z</time>
      </trkpt>
      <trkpt lat="45.81878" lon="4.48229">
        <ele>739</ele>
        <time>2025-09-10T11:38:00Z</time>
      </trkpt>
      <trkpt lat="45.81875" lon="4.48219">
        <ele>738.6</ele>
        <time>2025-09-10T11:38:01Z</time>
      </trkpt>
      <trkpt lat="45.81868" lon="4.482">
        <ele>738</ele>
        <time>2025-09-10T11:38:02Z</time>
      </trkpt>
      <trkpt lat="45.81865" lon="4.4819">
        <ele>737.6</ele>
        <time>2025-09-10T11:38:03Z</time>
      </trkpt>
      <trkpt lat="45.81862" lon="4.4818">
        <ele>737.2</ele>
        <time>2025-09-10T11:38:04Z</time>
      </trkpt>
      <trkpt lat="45.81859" lon="4.48171">
        <ele>737.2</ele>
        <time>2025-09-10T11:38:05Z</time>
      </trkpt>
      <trkpt lat="45.81856" lon="4.48161">
        <ele>737.2</ele>
        <time>2025-09-10T11:38:06Z</time>
      </trkpt>
      <trkpt lat="45.81853" lon="4.48153">
        <ele>736.8</ele>
        <time>2025-09-10T11:38:07Z</time>
      </trkpt>
      <trkpt lat="45.81851" lon="4.48144">
        <ele>736.4</ele>
        <time>2025-09-10T11:38:08Z</time>
      </trkpt>
      <trkpt lat="45.81847" lon="4.48136">
        <ele>736.4</ele>
        <time>2025-09-10T11:38:09Z</time>
      </trkpt>
      <trkpt lat="45.81844" lon="4.48128">
        <ele>736.4</ele>
        <time>2025-09-10T11:38:10Z</time>
      </trkpt>
      <trkpt lat="45.81842" lon="4.4812">
        <ele>736.4</ele>
        <time>2025-09-10T11:38:11Z</time>
      </trkpt>
      <trkpt lat="45.8184" lon="4.48113">
        <ele>736.4</ele>
        <time>2025-09-10T11:38:12Z</time>
      </trkpt>
      <trkpt lat="45.81838" lon="4.48106">
        <ele>736</ele>
        <time>2025-09-10T11:38:13Z</time>
      </trkpt>
      <trkpt lat="45.81833" lon="4.481">
        <ele>736</ele>
        <time>2025-09-10T11:38:14Z</time>
      </trkpt>
      <trkpt lat="45.81833" lon="4.481">
        <ele>736.4</ele>
        <time>2025-09-10T11:38:15Z</time>
      </trkpt>
      <trkpt lat="45.8183" lon="4.48094">
        <ele>736.8</ele>
        <time>2025-09-10T11:38:16Z</time>
      </trkpt>
      <trkpt lat="45.81825" lon="4.48091">
        <ele>736.8</ele>
        <time>2025-09-10T11:38:17Z</time>
      </trkpt>
      <trkpt lat="45.8182" lon="4.4809">
        <ele>736.8</ele>
        <time>2025-09-10T11:38:18Z</time>
      </trkpt>
      <trkpt lat="45.81816" lon="4.48089">
        <ele>737.2</ele>
        <time>2025-09-10T11:38:19Z</time>
      </trkpt>
      <trkpt lat="45.81811" lon="4.48089">
        <ele>737.6</ele>
        <time>2025-09-10T11:38:20Z</time>
      </trkpt>
      <trkpt lat="45.81807" lon="4.48089">
        <ele>738</ele>
        <time>2025-09-10T11:38:21Z</time>
      </trkpt>
      <trkpt lat="45.81802" lon="4.48093">
        <ele>738.2</ele>
        <time>2025-09-10T11:38:22Z</time>
      </trkpt>
      <trkpt lat="45.81799" lon="4.48092">
        <ele>738.2</ele>
        <time>2025-09-10T11:38:23Z</time>
      </trkpt>
      <trkpt lat="45.81795" lon="4.48092">
        <ele>738.8</ele>
        <time>2025-09-10T11:38:24Z</time>
      </trkpt>
      <trkpt lat="45.81791" lon="4.48093">
        <ele>738.8</ele>
        <time>2025-09-10T11:38:25Z</time>
      </trkpt>
      <trkpt lat="45.81787" lon="4.48095">
        <ele>739.2</ele>
        <time>2025-09-10T11:38:26Z</time>
      </trkpt>
      <trkpt lat="45.81784" lon="4.48095">
        <ele>739.2</ele>
        <time>2025-09-10T11:38:27Z</time>
      </trkpt>
      <trkpt lat="45.81781" lon="4.48096">
        <ele>739.6</ele>
        <time>2025-09-10T11:38:28Z</time>
      </trkpt>
      <trkpt lat="45.81777" lon="4.48099">
        <ele>739.8</ele>
        <time>2025-09-10T11:38:29Z</time>
      </trkpt>
      <trkpt lat="45.81773" lon="4.48101">
        <ele>739.8</ele>
        <time>2025-09-10T11:38:30Z</time>
      </trkpt>
      <trkpt lat="45.8177" lon="4.48104">
        <ele>740.2</ele>
        <time>2025-09-10T11:38:31Z</time>
      </trkpt>
      <trkpt lat="45.81767" lon="4.48106">
        <ele>740.2</ele>
        <time>2025-09-10T11:38:32Z</time>
      </trkpt>
      <trkpt lat="45.81764" lon="4.48108">
        <ele>740.2</ele>
        <time>2025-09-10T11:38:33Z</time>
      </trkpt>
      <trkpt lat="45.81762" lon="4.48111">
        <ele>740.2</ele>
        <time>2025-09-10T11:38:34Z</time>
      </trkpt>
      <trkpt lat="45.81759" lon="4.48113">
        <ele>740.2</ele>
        <time>2025-09-10T11:38:35Z</time>
      </trkpt>
      <trkpt lat="45.81756" lon="4.48116">
        <ele>740.2</ele>
        <time>2025-09-10T11:38:36Z</time>
      </trkpt>
      <trkpt lat="45.81754" lon="4.4812">
        <ele>740.2</ele>
        <time>2025-09-10T11:38:37Z</time>
      </trkpt>
      <trkpt lat="45.81752" lon="4.48123">
        <ele>740.6</ele>
        <time>2025-09-10T11:38:38Z</time>
      </trkpt>
      <trkpt lat="45.8175" lon="4.48127">
        <ele>740.6</ele>
        <time>2025-09-10T11:38:39Z</time>
      </trkpt>
      <trkpt lat="45.81748" lon="4.48133">
        <ele>740.6</ele>
        <time>2025-09-10T11:38:40Z</time>
      </trkpt>
      <trkpt lat="45.81744" lon="4.48141">
        <ele>740.6</ele>
        <time>2025-09-10T11:38:41Z</time>
      </trkpt>
      <trkpt lat="45.81742" lon="4.48148">
        <ele>740.6</ele>
        <time>2025-09-10T11:38:42Z</time>
      </trkpt>
      <trkpt lat="45.8174" lon="4.48155">
        <ele>740.4</ele>
        <time>2025-09-10T11:38:43Z</time>
      </trkpt>
      <trkpt lat="45.81738" lon="4.48162">
        <ele>740.2</ele>
        <time>2025-09-10T11:38:44Z</time>
      </trkpt>
      <trkpt lat="45.81737" lon="4.48169">
        <ele>740.2</ele>
        <time>2025-09-10T11:38:45Z</time>
      </trkpt>
      <trkpt lat="45.81735" lon="4.48176">
        <ele>739.8</ele>
        <time>2025-09-10T11:38:46Z</time>
      </trkpt>
      <trkpt lat="45.81732" lon="4.48184">
        <ele>739.8</ele>
        <time>2025-09-10T11:38:47Z</time>
      </trkpt>
      <trkpt lat="45.81729" lon="4.48193">
        <ele>739.2</ele>
        <time>2025-09-10T11:38:48Z</time>
      </trkpt>
      <trkpt lat="45.81727" lon="4.482">
        <ele>738.6</ele>
        <time>2025-09-10T11:38:49Z</time>
      </trkpt>
      <trkpt lat="45.81723" lon="4.48206">
        <ele>738.2</ele>
        <time>2025-09-10T11:38:50Z</time>
      </trkpt>
      <trkpt lat="45.8172" lon="4.48214">
        <ele>738</ele>
        <time>2025-09-10T11:38:51Z</time>
      </trkpt>
      <trkpt lat="45.81715" lon="4.48222">
        <ele>737.6</ele>
        <time>2025-09-10T11:38:52Z</time>
      </trkpt>
      <trkpt lat="45.81712" lon="4.4823">
        <ele>737.4</ele>
        <time>2025-09-10T11:38:53Z</time>
      </trkpt>
      <trkpt lat="45.81707" lon="4.48239">
        <ele>736.8</ele>
        <time>2025-09-10T11:38:54Z</time>
      </trkpt>
      <trkpt lat="45.81704" lon="4.48248">
        <ele>736.4</ele>
        <time>2025-09-10T11:38:55Z</time>
      </trkpt>
      <trkpt lat="45.817" lon="4.48257">
        <ele>736</ele>
        <time>2025-09-10T11:38:56Z</time>
      </trkpt>
      <trkpt lat="45.81697" lon="4.48261">
        <ele>736</ele>
        <time>2025-09-10T11:38:57Z</time>
      </trkpt>
      <trkpt lat="45.81694" lon="4.48269">
        <ele>736</ele>
        <time>2025-09-10T11:38:58Z</time>
      </trkpt>
      <trkpt lat="45.81692" lon="4.48276">
        <ele>735.4</ele>
        <time>2025-09-10T11:38:59Z</time>
      </trkpt>
      <trkpt lat="45.81688" lon="4.48282">
        <ele>735.4</ele>
        <time>2025-09-10T11:39:00Z</time>
      </trkpt>
      <trkpt lat="45.81685" lon="4.48286">
        <ele>735.8</ele>
        <time>2025-09-10T11:39:01Z</time>
      </trkpt>
      <trkpt lat="45.81683" lon="4.4829">
        <ele>735.8</ele>
        <time>2025-09-10T11:39:02Z</time>
      </trkpt>
      <trkpt lat="45.8168" lon="4.48295">
        <ele>736</ele>
        <time>2025-09-10T11:39:03Z</time>
      </trkpt>
      <trkpt lat="45.81676" lon="4.48299">
        <ele>736</ele>
        <time>2025-09-10T11:39:04Z</time>
      </trkpt>
      <trkpt lat="45.81673" lon="4.48304">
        <ele>736.2</ele>
        <time>2025-09-10T11:39:05Z</time>
      </trkpt>
      <trkpt lat="45.81671" lon="4.48308">
        <ele>736.2</ele>
        <time>2025-09-10T11:39:06Z</time>
      </trkpt>
      <trkpt lat="45.81669" lon="4.4831">
        <ele>736.4</ele>
        <time>2025-09-10T11:39:07Z</time>
      </trkpt>
      <trkpt lat="45.81665" lon="4.48314">
        <ele>736.8</ele>
        <time>2025-09-10T11:39:08Z</time>
      </trkpt>
      <trkpt lat="45.81662" lon="4.48317">
        <ele>737</ele>
        <time>2025-09-10T11:39:09Z</time>
      </trkpt>
      <trkpt lat="45.81659" lon="4.48319">
        <ele>737.4</ele>
        <time>2025-09-10T11:39:10Z</time>
      </trkpt>
      <trkpt lat="45.81658" lon="4.48321">
        <ele>737.6</ele>
        <time>2025-09-10T11:39:11Z</time>
      </trkpt>
      <trkpt lat="45.81656" lon="4.48323">
        <ele>737.6</ele>
        <time>2025-09-10T11:39:12Z</time>
      </trkpt>
      <trkpt lat="45.81654" lon="4.48324">
        <ele>738</ele>
        <time>2025-09-10T11:39:13Z</time>
      </trkpt>
      <trkpt lat="45.81652" lon="4.48326">
        <ele>738</ele>
        <time>2025-09-10T11:39:14Z</time>
      </trkpt>
      <trkpt lat="45.8165" lon="4.48328">
        <ele>738.4</ele>
        <time>2025-09-10T11:39:15Z</time>
      </trkpt>
      <trkpt lat="45.81648" lon="4.48331">
        <ele>738.4</ele>
        <time>2025-09-10T11:39:16Z</time>
      </trkpt>
      <trkpt lat="45.81647" lon="4.48335">
        <ele>738.4</ele>
        <time>2025-09-10T11:39:17Z</time>
      </trkpt>
      <trkpt lat="45.81645" lon="4.48338">
        <ele>738.4</ele>
        <time>2025-09-10T11:39:18Z</time>
      </trkpt>
      <trkpt lat="45.81644" lon="4.48341">
        <ele>738.4</ele>
        <time>2025-09-10T11:39:19Z</time>
      </trkpt>
      <trkpt lat="45.81642" lon="4.48344">
        <ele>738.4</ele>
        <time>2025-09-10T11:39:20Z</time>
      </trkpt>
      <trkpt lat="45.81641" lon="4.48347">
        <ele>738.4</ele>
        <time>2025-09-10T11:39:21Z</time>
      </trkpt>
      <trkpt lat="45.8164" lon="4.48351">
        <ele>738.4</ele>
        <time>2025-09-10T11:39:22Z</time>
      </trkpt>
      <trkpt lat="45.81639" lon="4.48354">
        <ele>738.4</ele>
        <time>2025-09-10T11:39:23Z</time>
      </trkpt>
      <trkpt lat="45.81638" lon="4.48357">
        <ele>738.4</ele>
        <time>2025-09-10T11:39:24Z</time>
      </trkpt>
      <trkpt lat="45.81636" lon="4.48361">
        <ele>738.6</ele>
        <time>2025-09-10T11:39:25Z</time>
      </trkpt>
      <trkpt lat="45.81635" lon="4.48365">
        <ele>738.6</ele>
        <time>2025-09-10T11:39:26Z</time>
      </trkpt>
      <trkpt lat="45.81634" lon="4.4837">
        <ele>739</ele>
        <time>2025-09-10T11:39:27Z</time>
      </trkpt>
      <trkpt lat="45.81633" lon="4.48375">
        <ele>739</ele>
        <time>2025-09-10T11:39:28Z</time>
      </trkpt>
      <trkpt lat="45.81632" lon="4.4838">
        <ele>739.2</ele>
        <time>2025-09-10T11:39:29Z</time>
      </trkpt>
      <trkpt lat="45.81631" lon="4.48384">
        <ele>739.2</ele>
        <time>2025-09-10T11:39:30Z</time>
      </trkpt>
      <trkpt lat="45.8163" lon="4.4839">
        <ele>739.2</ele>
        <time>2025-09-10T11:39:31Z</time>
      </trkpt>
      <trkpt lat="45.81628" lon="4.48395">
        <ele>739.2</ele>
        <time>2025-09-10T11:39:32Z</time>
      </trkpt>
      <trkpt lat="45.81626" lon="4.48402">
        <ele>739</ele>
        <time>2025-09-10T11:39:33Z</time>
      </trkpt>
      <trkpt lat="45.81625" lon="4.48407">
        <ele>739</ele>
        <time>2025-09-10T11:39:34Z</time>
      </trkpt>
      <trkpt lat="45.81624" lon="4.48413">
        <ele>739</ele>
        <time>2025-09-10T11:39:35Z</time>
      </trkpt>
      <trkpt lat="45.81622" lon="4.48419">
        <ele>739</ele>
        <time>2025-09-10T11:39:36Z</time>
      </trkpt>
      <trkpt lat="45.81621" lon="4.48424">
        <ele>739</ele>
        <time>2025-09-10T11:39:37Z</time>
      </trkpt>
      <trkpt lat="45.81619" lon="4.48429">
        <ele>739</ele>
        <time>2025-09-10T11:39:38Z</time>
      </trkpt>
      <trkpt lat="45.81617" lon="4.48434">
        <ele>739</ele>
        <time>2025-09-10T11:39:39Z</time>
      </trkpt>
      <trkpt lat="45.81614" lon="4.4844">
        <ele>739</ele>
        <time>2025-09-10T11:39:40Z</time>
      </trkpt>
      <trkpt lat="45.81614" lon="4.48444">
        <ele>739</ele>
        <time>2025-09-10T11:39:41Z</time>
      </trkpt>
      <trkpt lat="45.81611" lon="4.48449">
        <ele>739</ele>
        <time>2025-09-10T11:39:42Z</time>
      </trkpt>
      <trkpt lat="45.81609" lon="4.48453">
        <ele>739</ele>
        <time>2025-09-10T11:39:43Z</time>
      </trkpt>
      <trkpt lat="45.81607" lon="4.48458">
        <ele>739.4</ele>
        <time>2025-09-10T11:39:44Z</time>
      </trkpt>
      <trkpt lat="45.81605" lon="4.48463">
        <ele>739.4</ele>
        <time>2025-09-10T11:39:45Z</time>
      </trkpt>
      <trkpt lat="45.81603" lon="4.48467">
        <ele>739.4</ele>
        <time>2025-09-10T11:39:46Z</time>
      </trkpt>
      <trkpt lat="45.81601" lon="4.48471">
        <ele>739.4</ele>
        <time>2025-09-10T11:39:47Z</time>
      </trkpt>
      <trkpt lat="45.816" lon="4.48476">
        <ele>739.4</ele>
        <time>2025-09-10T11:39:48Z</time>
      </trkpt>
      <trkpt lat="45.81598" lon="4.4848">
        <ele>739.4</ele>
        <time>2025-09-10T11:39:49Z</time>
      </trkpt>
      <trkpt lat="45.81596" lon="4.48485">
        <ele>739.8</ele>
        <time>2025-09-10T11:39:50Z</time>
      </trkpt>
      <trkpt lat="45.81594" lon="4.4849">
        <ele>739.8</ele>
        <time>2025-09-10T11:39:51Z</time>
      </trkpt>
      <trkpt lat="45.81593" lon="4.48494">
        <ele>739.8</ele>
        <time>2025-09-10T11:39:52Z</time>
      </trkpt>
      <trkpt lat="45.81591" lon="4.48499">
        <ele>739.8</ele>
        <time>2025-09-10T11:39:53Z</time>
      </trkpt>
      <trkpt lat="45.8159" lon="4.48504">
        <ele>739.8</ele>
        <time>2025-09-10T11:39:54Z</time>
      </trkpt>
      <trkpt lat="45.81589" lon="4.48509">
        <ele>739.8</ele>
        <time>2025-09-10T11:39:55Z</time>
      </trkpt>
      <trkpt lat="45.81588" lon="4.48514">
        <ele>739.8</ele>
        <time>2025-09-10T11:39:56Z</time>
      </trkpt>
      <trkpt lat="45.81588" lon="4.48518">
        <ele>739.8</ele>
        <time>2025-09-10T11:39:57Z</time>
      </trkpt>
      <trkpt lat="45.81587" lon="4.48521">
        <ele>739.8</ele>
        <time>2025-09-10T11:39:58Z</time>
      </trkpt>
      <trkpt lat="45.81585" lon="4.48525">
        <ele>739.8</ele>
        <time>2025-09-10T11:39:59Z</time>
      </trkpt>
      <trkpt lat="45.81584" lon="4.48529">
        <ele>739.8</ele>
        <time>2025-09-10T11:40:00Z</time>
      </trkpt>
      <trkpt lat="45.81584" lon="4.48532">
        <ele>739.4</ele>
        <time>2025-09-10T11:40:01Z</time>
      </trkpt>
      <trkpt lat="45.81584" lon="4.48535">
        <ele>739.4</ele>
        <time>2025-09-10T11:40:02Z</time>
      </trkpt>
      <trkpt lat="45.81583" lon="4.48538">
        <ele>739.4</ele>
        <time>2025-09-10T11:40:03Z</time>
      </trkpt>
      <trkpt lat="45.81582" lon="4.48541">
        <ele>739.2</ele>
        <time>2025-09-10T11:40:04Z</time>
      </trkpt>
      <trkpt lat="45.81581" lon="4.48545">
        <ele>739.2</ele>
        <time>2025-09-10T11:40:05Z</time>
      </trkpt>
      <trkpt lat="45.8158" lon="4.48548">
        <ele>739.2</ele>
        <time>2025-09-10T11:40:06Z</time>
      </trkpt>
      <trkpt lat="45.8158" lon="4.48551">
        <ele>738.8</ele>
        <time>2025-09-10T11:40:07Z</time>
      </trkpt>
      <trkpt lat="45.8158" lon="4.48555">
        <ele>738.8</ele>
        <time>2025-09-10T11:40:08Z</time>
      </trkpt>
      <trkpt lat="45.81579" lon="4.48559">
        <ele>738.6</ele>
        <time>2025-09-10T11:40:09Z</time>
      </trkpt>
      <trkpt lat="45.81578" lon="4.48563">
        <ele>738.6</ele>
        <time>2025-09-10T11:40:10Z</time>
      </trkpt>
      <trkpt lat="45.81576" lon="4.48567">
        <ele>738.6</ele>
        <time>2025-09-10T11:40:11Z</time>
      </trkpt>
      <trkpt lat="45.81575" lon="4.48571">
        <ele>738.6</ele>
        <time>2025-09-10T11:40:12Z</time>
      </trkpt>
      <trkpt lat="45.81573" lon="4.48576">
        <ele>738.4</ele>
        <time>2025-09-10T11:40:13Z</time>
      </trkpt>
      <trkpt lat="45.81572" lon="4.4858">
        <ele>738.4</ele>
        <time>2025-09-10T11:40:14Z</time>
      </trkpt>
      <trkpt lat="45.81571" lon="4.48584">
        <ele>738.4</ele>
        <time>2025-09-10T11:40:15Z</time>
      </trkpt>
      <trkpt lat="45.8157" lon="4.48588">
        <ele>738.4</ele>
        <time>2025-09-10T11:40:16Z</time>
      </trkpt>
      <trkpt lat="45.81569" lon="4.48593">
        <ele>737.6</ele>
        <time>2025-09-10T11:40:17Z</time>
      </trkpt>
      <trkpt lat="45.81567" lon="4.48598">
        <ele>737.6</ele>
        <time>2025-09-10T11:40:18Z</time>
      </trkpt>
      <trkpt lat="45.81566" lon="4.48603">
        <ele>737.6</ele>
        <time>2025-09-10T11:40:19Z</time>
      </trkpt>
      <trkpt lat="45.81564" lon="4.48609">
        <ele>737.6</ele>
        <time>2025-09-10T11:40:20Z</time>
      </trkpt>
      <trkpt lat="45.81561" lon="4.48616">
        <ele>737.2</ele>
        <time>2025-09-10T11:40:21Z</time>
      </trkpt>
      <trkpt lat="45.81561" lon="4.4862">
        <ele>736.8</ele>
        <time>2025-09-10T11:40:22Z</time>
      </trkpt>
      <trkpt lat="45.81559" lon="4.48626">
        <ele>736.6</ele>
        <time>2025-09-10T11:40:23Z</time>
      </trkpt>
      <trkpt lat="45.81555" lon="4.48637">
        <ele>736.6</ele>
        <time>2025-09-10T11:40:24Z</time>
      </trkpt>
      <trkpt lat="45.81552" lon="4.48646">
        <ele>736.6</ele>
        <time>2025-09-10T11:40:25Z</time>
      </trkpt>
      <trkpt lat="45.81549" lon="4.48655">
        <ele>736.6</ele>
        <time>2025-09-10T11:40:26Z</time>
      </trkpt>
      <trkpt lat="45.81546" lon="4.48664">
        <ele>736.6</ele>
        <time>2025-09-10T11:40:27Z</time>
      </trkpt>
      <trkpt lat="45.81543" lon="4.4867">
        <ele>736.2</ele>
        <time>2025-09-10T11:40:28Z</time>
      </trkpt>
      <trkpt lat="45.81539" lon="4.48677">
        <ele>736.2</ele>
        <time>2025-09-10T11:40:29Z</time>
      </trkpt>
      <trkpt lat="45.81537" lon="4.48684">
        <ele>736</ele>
        <time>2025-09-10T11:40:30Z</time>
      </trkpt>
      <trkpt lat="45.81533" lon="4.48691">
        <ele>736</ele>
        <time>2025-09-10T11:40:31Z</time>
      </trkpt>
      <trkpt lat="45.81531" lon="4.48697">
        <ele>736</ele>
        <time>2025-09-10T11:40:32Z</time>
      </trkpt>
      <trkpt lat="45.81528" lon="4.48703">
        <ele>736.2</ele>
        <time>2025-09-10T11:40:33Z</time>
      </trkpt>
      <trkpt lat="45.81525" lon="4.4871">
        <ele>736</ele>
        <time>2025-09-10T11:40:34Z</time>
      </trkpt>
      <trkpt lat="45.81515" lon="4.48718">
        <ele>736.2</ele>
        <time>2025-09-10T11:40:35Z</time>
      </trkpt>
      <trkpt lat="45.81512" lon="4.48719">
        <ele>736.6</ele>
        <time>2025-09-10T11:40:36Z</time>
      </trkpt>
      <trkpt lat="45.81509" lon="4.48725">
        <ele>736.8</ele>
        <time>2025-09-10T11:40:37Z</time>
      </trkpt>
      <trkpt lat="45.81507" lon="4.48731">
        <ele>736.8</ele>
        <time>2025-09-10T11:40:38Z</time>
      </trkpt>
      <trkpt lat="45.81507" lon="4.48739">
        <ele>736.8</ele>
        <time>2025-09-10T11:40:39Z</time>
      </trkpt>
      <trkpt lat="45.81502" lon="4.48751">
        <ele>736.8</ele>
        <time>2025-09-10T11:40:40Z</time>
      </trkpt>
      <trkpt lat="45.81502" lon="4.48755">
        <ele>736.8</ele>
        <time>2025-09-10T11:40:41Z</time>
      </trkpt>
      <trkpt lat="45.815" lon="4.48761">
        <ele>736.8</ele>
        <time>2025-09-10T11:40:42Z</time>
      </trkpt>
      <trkpt lat="45.81497" lon="4.48765">
        <ele>737.2</ele>
        <time>2025-09-10T11:40:43Z</time>
      </trkpt>
      <trkpt lat="45.81494" lon="4.48772">
        <ele>736.8</ele>
        <time>2025-09-10T11:40:44Z</time>
      </trkpt>
      <trkpt lat="45.81491" lon="4.48777">
        <ele>736.8</ele>
        <time>2025-09-10T11:40:45Z</time>
      </trkpt>
      <trkpt lat="45.8149" lon="4.48784">
        <ele>736.8</ele>
        <time>2025-09-10T11:40:46Z</time>
      </trkpt>
      <trkpt lat="45.8149" lon="4.4879">
        <ele>737</ele>
        <time>2025-09-10T11:40:47Z</time>
      </trkpt>
      <trkpt lat="45.81488" lon="4.48795">
        <ele>737</ele>
        <time>2025-09-10T11:40:48Z</time>
      </trkpt>
      <trkpt lat="45.81488" lon="4.48798">
        <ele>737.4</ele>
        <time>2025-09-10T11:40:49Z</time>
      </trkpt>
      <trkpt lat="45.81486" lon="4.48809">
        <ele>737</ele>
        <time>2025-09-10T11:40:50Z</time>
      </trkpt>
      <trkpt lat="45.81484" lon="4.48817">
        <ele>737</ele>
        <time>2025-09-10T11:40:51Z</time>
      </trkpt>
      <trkpt lat="45.81484" lon="4.48824">
        <ele>737</ele>
        <time>2025-09-10T11:40:52Z</time>
      </trkpt>
      <trkpt lat="45.81487" lon="4.48832">
        <ele>736.2</ele>
        <time>2025-09-10T11:40:53Z</time>
      </trkpt>
      <trkpt lat="45.81484" lon="4.48838">
        <ele>735.8</ele>
        <time>2025-09-10T11:40:54Z</time>
      </trkpt>
      <trkpt lat="45.81479" lon="4.48848">
        <ele>735.8</ele>
        <time>2025-09-10T11:40:55Z</time>
      </trkpt>
      <trkpt lat="45.81477" lon="4.48857">
        <ele>735.6</ele>
        <time>2025-09-10T11:40:56Z</time>
      </trkpt>
      <trkpt lat="45.81473" lon="4.48866">
        <ele>735.6</ele>
        <time>2025-09-10T11:40:57Z</time>
      </trkpt>
      <trkpt lat="45.81473" lon="4.48866">
        <ele>735.6</ele>
        <time>2025-09-10T11:40:58Z</time>
      </trkpt>
      <trkpt lat="45.81473" lon="4.48866">
        <ele>735.2</ele>
        <time>2025-09-10T11:40:59Z</time>
      </trkpt>
      <trkpt lat="45.81461" lon="4.48905">
        <ele>735.2</ele>
        <time>2025-09-10T11:41:01Z</time>
      </trkpt>
      <trkpt lat="45.81458" lon="4.48913">
        <ele>735.2</ele>
        <time>2025-09-10T11:41:02Z</time>
      </trkpt>
      <trkpt lat="45.81452" lon="4.4893">
        <ele>735.6</ele>
        <time>2025-09-10T11:41:03Z</time>
      </trkpt>
      <trkpt lat="45.81449" lon="4.48939">
        <ele>735.6</ele>
        <time>2025-09-10T11:41:04Z</time>
      </trkpt>
      <trkpt lat="45.81445" lon="4.48947">
        <ele>735.4</ele>
        <time>2025-09-10T11:41:05Z</time>
      </trkpt>
      <trkpt lat="45.81443" lon="4.48954">
        <ele>735</ele>
        <time>2025-09-10T11:41:06Z</time>
      </trkpt>
      <trkpt lat="45.8144" lon="4.48962">
        <ele>735</ele>
        <time>2025-09-10T11:41:07Z</time>
      </trkpt>
      <trkpt lat="45.8144" lon="4.48966">
        <ele>735.4</ele>
        <time>2025-09-10T11:41:08Z</time>
      </trkpt>
      <trkpt lat="45.81438" lon="4.48971">
        <ele>735.4</ele>
        <time>2025-09-10T11:41:09Z</time>
      </trkpt>
      <trkpt lat="45.81437" lon="4.48976">
        <ele>735.6</ele>
        <time>2025-09-10T11:41:10Z</time>
      </trkpt>
      <trkpt lat="45.81435" lon="4.48982">
        <ele>735.6</ele>
        <time>2025-09-10T11:41:11Z</time>
      </trkpt>
      <trkpt lat="45.81433" lon="4.48988">
        <ele>736.2</ele>
        <time>2025-09-10T11:41:12Z</time>
      </trkpt>
      <trkpt lat="45.81432" lon="4.48992">
        <ele>736.4</ele>
        <time>2025-09-10T11:41:13Z</time>
      </trkpt>
      <trkpt lat="45.81431" lon="4.48996">
        <ele>736.4</ele>
        <time>2025-09-10T11:41:14Z</time>
      </trkpt>
      <trkpt lat="45.81429" lon="4.49001">
        <ele>736.4</ele>
        <time>2025-09-10T11:41:15Z</time>
      </trkpt>
      <trkpt lat="45.81429" lon="4.49006">
        <ele>736.4</ele>
        <time>2025-09-10T11:41:16Z</time>
      </trkpt>
      <trkpt lat="45.81429" lon="4.49006">
        <ele>736.6</ele>
        <time>2025-09-10T11:41:17Z</time>
      </trkpt>
      <trkpt lat="45.81427" lon="4.49011">
        <ele>736.6</ele>
        <time>2025-09-10T11:41:18Z</time>
      </trkpt>
      <trkpt lat="45.81427" lon="4.49015">
        <ele>736.6</ele>
        <time>2025-09-10T11:41:19Z</time>
      </trkpt>
      <trkpt lat="45.81426" lon="4.49019">
        <ele>737</ele>
        <time>2025-09-10T11:41:20Z</time>
      </trkpt>
      <trkpt lat="45.81426" lon="4.49022">
        <ele>737</ele>
        <time>2025-09-10T11:41:21Z</time>
      </trkpt>
      <trkpt lat="45.81425" lon="4.49026">
        <ele>737</ele>
        <time>2025-09-10T11:41:22Z</time>
      </trkpt>
      <trkpt lat="45.81425" lon="4.4903">
        <ele>737.2</ele>
        <time>2025-09-10T11:41:23Z</time>
      </trkpt>
      <trkpt lat="45.81424" lon="4.49034">
        <ele>737.2</ele>
        <time>2025-09-10T11:41:24Z</time>
      </trkpt>
      <trkpt lat="45.81423" lon="4.49038">
        <ele>737.2</ele>
        <time>2025-09-10T11:41:25Z</time>
      </trkpt>
      <trkpt lat="45.81422" lon="4.49042">
        <ele>737.4</ele>
        <time>2025-09-10T11:41:26Z</time>
      </trkpt>
      <trkpt lat="45.81421" lon="4.49045">
        <ele>737.4</ele>
        <time>2025-09-10T11:41:27Z</time>
      </trkpt>
      <trkpt lat="45.8142" lon="4.4905">
        <ele>737.4</ele>
        <time>2025-09-10T11:41:28Z</time>
      </trkpt>
      <trkpt lat="45.81419" lon="4.49054">
        <ele>737.6</ele>
        <time>2025-09-10T11:41:29Z</time>
      </trkpt>
      <trkpt lat="45.81418" lon="4.49058">
        <ele>737.6</ele>
        <time>2025-09-10T11:41:30Z</time>
      </trkpt>
      <trkpt lat="45.81417" lon="4.49061">
        <ele>738</ele>
        <time>2025-09-10T11:41:31Z</time>
      </trkpt>
      <trkpt lat="45.81416" lon="4.49064">
        <ele>738</ele>
        <time>2025-09-10T11:41:32Z</time>
      </trkpt>
      <trkpt lat="45.81415" lon="4.49068">
        <ele>738.2</ele>
        <time>2025-09-10T11:41:33Z</time>
      </trkpt>
      <trkpt lat="45.81415" lon="4.49071">
        <ele>738.2</ele>
        <time>2025-09-10T11:41:34Z</time>
      </trkpt>
      <trkpt lat="45.81414" lon="4.49075">
        <ele>738.2</ele>
        <time>2025-09-10T11:41:35Z</time>
      </trkpt>
      <trkpt lat="45.81412" lon="4.49078">
        <ele>738.4</ele>
        <time>2025-09-10T11:41:36Z</time>
      </trkpt>
      <trkpt lat="45.81411" lon="4.49082">
        <ele>738.4</ele>
        <time>2025-09-10T11:41:37Z</time>
      </trkpt>
      <trkpt lat="45.81409" lon="4.49084">
        <ele>738.2</ele>
        <time>2025-09-10T11:41:38Z</time>
      </trkpt>
      <trkpt lat="45.81408" lon="4.49087">
        <ele>738.2</ele>
        <time>2025-09-10T11:41:39Z</time>
      </trkpt>
      <trkpt lat="45.81406" lon="4.49089">
        <ele>738.6</ele>
        <time>2025-09-10T11:41:40Z</time>
      </trkpt>
      <trkpt lat="45.81404" lon="4.4909">
        <ele>738.8</ele>
        <time>2025-09-10T11:41:41Z</time>
      </trkpt>
      <trkpt lat="45.81402" lon="4.49091">
        <ele>739</ele>
        <time>2025-09-10T11:41:42Z</time>
      </trkpt>
      <trkpt lat="45.81401" lon="4.49092">
        <ele>739.4</ele>
        <time>2025-09-10T11:41:43Z</time>
      </trkpt>
      <trkpt lat="45.81401" lon="4.49092">
        <ele>739.6</ele>
        <time>2025-09-10T11:41:44Z</time>
      </trkpt>
      <trkpt lat="45.81398" lon="4.49095">
        <ele>740</ele>
        <time>2025-09-10T11:41:45Z</time>
      </trkpt>
      <trkpt lat="45.81396" lon="4.49095">
        <ele>739.6</ele>
        <time>2025-09-10T11:41:46Z</time>
      </trkpt>
      <trkpt lat="45.81394" lon="4.49096">
        <ele>740</ele>
        <time>2025-09-10T11:41:47Z</time>
      </trkpt>
      <trkpt lat="45.81393" lon="4.49098">
        <ele>740.2</ele>
        <time>2025-09-10T11:41:48Z</time>
      </trkpt>
      <trkpt lat="45.81391" lon="4.49099">
        <ele>740.2</ele>
        <time>2025-09-10T11:41:49Z</time>
      </trkpt>
      <trkpt lat="45.8139" lon="4.49101">
        <ele>740.2</ele>
        <time>2025-09-10T11:41:50Z</time>
      </trkpt>
      <trkpt lat="45.81387" lon="4.49103">
        <ele>740.6</ele>
        <time>2025-09-10T11:41:51Z</time>
      </trkpt>
      <trkpt lat="45.81384" lon="4.49102">
        <ele>740.6</ele>
        <time>2025-09-10T11:41:52Z</time>
      </trkpt>
      <trkpt lat="45.81383" lon="4.49101">
        <ele>741</ele>
        <time>2025-09-10T11:41:53Z</time>
      </trkpt>
      <trkpt lat="45.81381" lon="4.49101">
        <ele>741</ele>
        <time>2025-09-10T11:41:54Z</time>
      </trkpt>
      <trkpt lat="45.8138" lon="4.49101">
        <ele>741</ele>
        <time>2025-09-10T11:41:55Z</time>
      </trkpt>
      <trkpt lat="45.81378" lon="4.49101">
        <ele>741.4</ele>
        <time>2025-09-10T11:41:56Z</time>
      </trkpt>
      <trkpt lat="45.81377" lon="4.49101">
        <ele>741.6</ele>
        <time>2025-09-10T11:41:57Z</time>
      </trkpt>
      <trkpt lat="45.81375" lon="4.49102">
        <ele>741.6</ele>
        <time>2025-09-10T11:41:58Z</time>
      </trkpt>
      <trkpt lat="45.81374" lon="4.49102">
        <ele>741.8</ele>
        <time>2025-09-10T11:41:59Z</time>
      </trkpt>
      <trkpt lat="45.81373" lon="4.49103">
        <ele>741.8</ele>
        <time>2025-09-10T11:42:00Z</time>
      </trkpt>
      <trkpt lat="45.81371" lon="4.49103">
        <ele>741.8</ele>
        <time>2025-09-10T11:42:01Z</time>
      </trkpt>
      <trkpt lat="45.81369" lon="4.49104">
        <ele>742.2</ele>
        <time>2025-09-10T11:42:02Z</time>
      </trkpt>
      <trkpt lat="45.81368" lon="4.49104">
        <ele>742.2</ele>
        <time>2025-09-10T11:42:03Z</time>
      </trkpt>
      <trkpt lat="45.81366" lon="4.49105">
        <ele>742.2</ele>
        <time>2025-09-10T11:42:04Z</time>
      </trkpt>
      <trkpt lat="45.81364" lon="4.49105">
        <ele>742.4</ele>
        <time>2025-09-10T11:42:05Z</time>
      </trkpt>
      <trkpt lat="45.81362" lon="4.49106">
        <ele>742.4</ele>
        <time>2025-09-10T11:42:06Z</time>
      </trkpt>
      <trkpt lat="45.8136" lon="4.49107">
        <ele>742.4</ele>
        <time>2025-09-10T11:42:07Z</time>
      </trkpt>
      <trkpt lat="45.81358" lon="4.49108">
        <ele>742.4</ele>
        <time>2025-09-10T11:42:08Z</time>
      </trkpt>
      <trkpt lat="45.81356" lon="4.49108">
        <ele>742.4</ele>
        <time>2025-09-10T11:42:09Z</time>
      </trkpt>
      <trkpt lat="45.81354" lon="4.49107">
        <ele>742.4</ele>
        <time>2025-09-10T11:42:10Z</time>
      </trkpt>
      <trkpt lat="45.81352" lon="4.49107">
        <ele>742.4</ele>
        <time>2025-09-10T11:42:11Z</time>
      </trkpt>
      <trkpt lat="45.8135" lon="4.49107">
        <ele>742.4</ele>
        <time>2025-09-10T11:42:12Z</time>
      </trkpt>
      <trkpt lat="45.81348" lon="4.49108">
        <ele>742.8</ele>
        <time>2025-09-10T11:42:13Z</time>
      </trkpt>
      <trkpt lat="45.81347" lon="4.49108">
        <ele>743</ele>
        <time>2025-09-10T11:42:14Z</time>
      </trkpt>
      <trkpt lat="45.81345" lon="4.49108">
        <ele>743.4</ele>
        <time>2025-09-10T11:42:15Z</time>
      </trkpt>
      <trkpt lat="45.81344" lon="4.49109">
        <ele>743.6</ele>
        <time>2025-09-10T11:42:16Z</time>
      </trkpt>
      <trkpt lat="45.81342" lon="4.49109">
        <ele>743.6</ele>
        <time>2025-09-10T11:42:17Z</time>
      </trkpt>
      <trkpt lat="45.8134" lon="4.4911">
        <ele>744</ele>
        <time>2025-09-10T11:42:18Z</time>
      </trkpt>
      <trkpt lat="45.81339" lon="4.4911">
        <ele>744</ele>
        <time>2025-09-10T11:42:19Z</time>
      </trkpt>
      <trkpt lat="45.81339" lon="4.4911">
        <ele>744</ele>
        <time>2025-09-10T11:42:20Z</time>
      </trkpt>
      <trkpt lat="45.81337" lon="4.4911">
        <ele>744.2</ele>
        <time>2025-09-10T11:42:21Z</time>
      </trkpt>
      <trkpt lat="45.81335" lon="4.4911">
        <ele>744.2</ele>
        <time>2025-09-10T11:42:22Z</time>
      </trkpt>
      <trkpt lat="45.81333" lon="4.49109">
        <ele>744.2</ele>
        <time>2025-09-10T11:42:23Z</time>
      </trkpt>
      <trkpt lat="45.81331" lon="4.49109">
        <ele>744.2</ele>
        <time>2025-09-10T11:42:24Z</time>
      </trkpt>
      <trkpt lat="45.81328" lon="4.49109">
        <ele>744.2</ele>
        <time>2025-09-10T11:42:25Z</time>
      </trkpt>
      <trkpt lat="45.81325" lon="4.49108">
        <ele>744.2</ele>
        <time>2025-09-10T11:42:26Z</time>
      </trkpt>
      <trkpt lat="45.81322" lon="4.49108">
        <ele>744.2</ele>
        <time>2025-09-10T11:42:27Z</time>
      </trkpt>
      <trkpt lat="45.81319" lon="4.49108">
        <ele>744.2</ele>
        <time>2025-09-10T11:42:28Z</time>
      </trkpt>
      <trkpt lat="45.81315" lon="4.49107">
        <ele>744.2</ele>
        <time>2025-09-10T11:42:29Z</time>
      </trkpt>
      <trkpt lat="45.81312" lon="4.49107">
        <ele>744.2</ele>
        <time>2025-09-10T11:42:30Z</time>
      </trkpt>
      <trkpt lat="45.81308" lon="4.49106">
        <ele>744.2</ele>
        <time>2025-09-10T11:42:31Z</time>
      </trkpt>
      <trkpt lat="45.81304" lon="4.49104">
        <ele>744.2</ele>
        <time>2025-09-10T11:42:32Z</time>
      </trkpt>
      <trkpt lat="45.81301" lon="4.49102">
        <ele>744.2</ele>
        <time>2025-09-10T11:42:33Z</time>
      </trkpt>
      <trkpt lat="45.81297" lon="4.491">
        <ele>744.2</ele>
        <time>2025-09-10T11:42:34Z</time>
      </trkpt>
      <trkpt lat="45.81293" lon="4.49098">
        <ele>744.2</ele>
        <time>2025-09-10T11:42:35Z</time>
      </trkpt>
      <trkpt lat="45.8129" lon="4.49097">
        <ele>744.2</ele>
        <time>2025-09-10T11:42:36Z</time>
      </trkpt>
      <trkpt lat="45.81286" lon="4.49095">
        <ele>743.8</ele>
        <time>2025-09-10T11:42:37Z</time>
      </trkpt>
      <trkpt lat="45.81282" lon="4.49092">
        <ele>743.8</ele>
        <time>2025-09-10T11:42:38Z</time>
      </trkpt>
      <trkpt lat="45.81278" lon="4.49088">
        <ele>743.8</ele>
        <time>2025-09-10T11:42:39Z</time>
      </trkpt>
      <trkpt lat="45.81274" lon="4.49084">
        <ele>743.8</ele>
        <time>2025-09-10T11:42:40Z</time>
      </trkpt>
      <trkpt lat="45.8127" lon="4.49082">
        <ele>744</ele>
        <time>2025-09-10T11:42:41Z</time>
      </trkpt>
      <trkpt lat="45.81267" lon="4.49079">
        <ele>743.8</ele>
        <time>2025-09-10T11:42:42Z</time>
      </trkpt>
      <trkpt lat="45.81263" lon="4.49075">
        <ele>743.8</ele>
        <time>2025-09-10T11:42:43Z</time>
      </trkpt>
      <trkpt lat="45.8126" lon="4.49071">
        <ele>743.8</ele>
        <time>2025-09-10T11:42:44Z</time>
      </trkpt>
      <trkpt lat="45.81257" lon="4.49068">
        <ele>743.8</ele>
        <time>2025-09-10T11:42:45Z</time>
      </trkpt>
      <trkpt lat="45.81253" lon="4.49064">
        <ele>743.8</ele>
        <time>2025-09-10T11:42:46Z</time>
      </trkpt>
      <trkpt lat="45.8125" lon="4.4906">
        <ele>743.8</ele>
        <time>2025-09-10T11:42:47Z</time>
      </trkpt>
      <trkpt lat="45.81248" lon="4.49059">
        <ele>743.8</ele>
        <time>2025-09-10T11:42:48Z</time>
      </trkpt>
      <trkpt lat="45.81244" lon="4.49057">
        <ele>744.4</ele>
        <time>2025-09-10T11:42:49Z</time>
      </trkpt>
      <trkpt lat="45.81242" lon="4.49055">
        <ele>744.4</ele>
        <time>2025-09-10T11:42:50Z</time>
      </trkpt>
      <trkpt lat="45.8124" lon="4.49053">
        <ele>744.6</ele>
        <time>2025-09-10T11:42:51Z</time>
      </trkpt>
      <trkpt lat="45.81238" lon="4.49052">
        <ele>744.6</ele>
        <time>2025-09-10T11:42:52Z</time>
      </trkpt>
      <trkpt lat="45.81235" lon="4.4905">
        <ele>744.8</ele>
        <time>2025-09-10T11:42:53Z</time>
      </trkpt>
      <trkpt lat="45.81233" lon="4.49049">
        <ele>745</ele>
        <time>2025-09-10T11:42:54Z</time>
      </trkpt>
      <trkpt lat="45.81231" lon="4.49048">
        <ele>745.2</ele>
        <time>2025-09-10T11:42:55Z</time>
      </trkpt>
      <trkpt lat="45.81229" lon="4.49047">
        <ele>745.2</ele>
        <time>2025-09-10T11:42:56Z</time>
      </trkpt>
      <trkpt lat="45.81227" lon="4.49046">
        <ele>745.6</ele>
        <time>2025-09-10T11:42:57Z</time>
      </trkpt>
      <trkpt lat="45.81224" lon="4.49045">
        <ele>745.6</ele>
        <time>2025-09-10T11:42:58Z</time>
      </trkpt>
      <trkpt lat="45.81222" lon="4.49044">
        <ele>745.6</ele>
        <time>2025-09-10T11:42:59Z</time>
      </trkpt>
      <trkpt lat="45.81219" lon="4.49043">
        <ele>745.6</ele>
        <time>2025-09-10T11:43:00Z</time>
      </trkpt>
      <trkpt lat="45.81217" lon="4.49041">
        <ele>745.8</ele>
        <time>2025-09-10T11:43:01Z</time>
      </trkpt>
      <trkpt lat="45.81214" lon="4.4904">
        <ele>745.8</ele>
        <time>2025-09-10T11:43:02Z</time>
      </trkpt>
      <trkpt lat="45.81211" lon="4.49039">
        <ele>745.8</ele>
        <time>2025-09-10T11:43:03Z</time>
      </trkpt>
      <trkpt lat="45.81209" lon="4.49039">
        <ele>746</ele>
        <time>2025-09-10T11:43:04Z</time>
      </trkpt>
      <trkpt lat="45.81206" lon="4.49039">
        <ele>746</ele>
        <time>2025-09-10T11:43:05Z</time>
      </trkpt>
      <trkpt lat="45.81203" lon="4.49038">
        <ele>746</ele>
        <time>2025-09-10T11:43:06Z</time>
      </trkpt>
      <trkpt lat="45.812" lon="4.49037">
        <ele>746</ele>
        <time>2025-09-10T11:43:07Z</time>
      </trkpt>
      <trkpt lat="45.81197" lon="4.49037">
        <ele>746</ele>
        <time>2025-09-10T11:43:08Z</time>
      </trkpt>
      <trkpt lat="45.81194" lon="4.49036">
        <ele>746</ele>
        <time>2025-09-10T11:43:09Z</time>
      </trkpt>
      <trkpt lat="45.81192" lon="4.49035">
        <ele>746</ele>
        <time>2025-09-10T11:43:10Z</time>
      </trkpt>
      <trkpt lat="45.81189" lon="4.49034">
        <ele>746.4</ele>
        <time>2025-09-10T11:43:11Z</time>
      </trkpt>
      <trkpt lat="45.81186" lon="4.49034">
        <ele>746.4</ele>
        <time>2025-09-10T11:43:12Z</time>
      </trkpt>
      <trkpt lat="45.81183" lon="4.49033">
        <ele>746.8</ele>
        <time>2025-09-10T11:43:13Z</time>
      </trkpt>
      <trkpt lat="45.81179" lon="4.49032">
        <ele>746.8</ele>
        <time>2025-09-10T11:43:14Z</time>
      </trkpt>
      <trkpt lat="45.81176" lon="4.49031">
        <ele>747</ele>
        <time>2025-09-10T11:43:15Z</time>
      </trkpt>
      <trkpt lat="45.81173" lon="4.4903">
        <ele>747</ele>
        <time>2025-09-10T11:43:16Z</time>
      </trkpt>
      <trkpt lat="45.8117" lon="4.49029">
        <ele>747</ele>
        <time>2025-09-10T11:43:17Z</time>
      </trkpt>
      <trkpt lat="45.81167" lon="4.49027">
        <ele>747</ele>
        <time>2025-09-10T11:43:18Z</time>
      </trkpt>
      <trkpt lat="45.81163" lon="4.49026">
        <ele>747</ele>
        <time>2025-09-10T11:43:19Z</time>
      </trkpt>
      <trkpt lat="45.8116" lon="4.49024">
        <ele>747</ele>
        <time>2025-09-10T11:43:20Z</time>
      </trkpt>
      <trkpt lat="45.81157" lon="4.49022">
        <ele>747</ele>
        <time>2025-09-10T11:43:21Z</time>
      </trkpt>
      <trkpt lat="45.81153" lon="4.4902">
        <ele>747</ele>
        <time>2025-09-10T11:43:22Z</time>
      </trkpt>
      <trkpt lat="45.8115" lon="4.49018">
        <ele>747</ele>
        <time>2025-09-10T11:43:23Z</time>
      </trkpt>
      <trkpt lat="45.81147" lon="4.49016">
        <ele>747</ele>
        <time>2025-09-10T11:43:24Z</time>
      </trkpt>
      <trkpt lat="45.81143" lon="4.49013">
        <ele>747</ele>
        <time>2025-09-10T11:43:25Z</time>
      </trkpt>
      <trkpt lat="45.8114" lon="4.49011">
        <ele>747</ele>
        <time>2025-09-10T11:43:26Z</time>
      </trkpt>
      <trkpt lat="45.81136" lon="4.49008">
        <ele>747</ele>
        <time>2025-09-10T11:43:27Z</time>
      </trkpt>
      <trkpt lat="45.81133" lon="4.49006">
        <ele>747.2</ele>
        <time>2025-09-10T11:43:28Z</time>
      </trkpt>
      <trkpt lat="45.8113" lon="4.49004">
        <ele>747.2</ele>
        <time>2025-09-10T11:43:29Z</time>
      </trkpt>
      <trkpt lat="45.81127" lon="4.49002">
        <ele>747.2</ele>
        <time>2025-09-10T11:43:30Z</time>
      </trkpt>
      <trkpt lat="45.81124" lon="4.49001">
        <ele>747.2</ele>
        <time>2025-09-10T11:43:31Z</time>
      </trkpt>
      <trkpt lat="45.81121" lon="4.49">
        <ele>747.2</ele>
        <time>2025-09-10T11:43:32Z</time>
      </trkpt>
      <trkpt lat="45.81118" lon="4.48999">
        <ele>747.4</ele>
        <time>2025-09-10T11:43:33Z</time>
      </trkpt>
      <trkpt lat="45.81115" lon="4.48999">
        <ele>747.4</ele>
        <time>2025-09-10T11:43:34Z</time>
      </trkpt>
      <trkpt lat="45.81113" lon="4.48999">
        <ele>747.6</ele>
        <time>2025-09-10T11:43:35Z</time>
      </trkpt>
      <trkpt lat="45.81111" lon="4.48999">
        <ele>747.6</ele>
        <time>2025-09-10T11:43:36Z</time>
      </trkpt>
      <trkpt lat="45.81108" lon="4.48999">
        <ele>747.8</ele>
        <time>2025-09-10T11:43:37Z</time>
      </trkpt>
      <trkpt lat="45.81106" lon="4.49">
        <ele>748.2</ele>
        <time>2025-09-10T11:43:38Z</time>
      </trkpt>
      <trkpt lat="45.81104" lon="4.49">
        <ele>748.4</ele>
        <time>2025-09-10T11:43:39Z</time>
      </trkpt>
      <trkpt lat="45.81102" lon="4.49001">
        <ele>748.4</ele>
        <time>2025-09-10T11:43:40Z</time>
      </trkpt>
      <trkpt lat="45.811" lon="4.49002">
        <ele>748.4</ele>
        <time>2025-09-10T11:43:41Z</time>
      </trkpt>
      <trkpt lat="45.81098" lon="4.49003">
        <ele>748.6</ele>
        <time>2025-09-10T11:43:42Z</time>
      </trkpt>
      <trkpt lat="45.81097" lon="4.49004">
        <ele>748.6</ele>
        <time>2025-09-10T11:43:43Z</time>
      </trkpt>
      <trkpt lat="45.81095" lon="4.49005">
        <ele>748.8</ele>
        <time>2025-09-10T11:43:44Z</time>
      </trkpt>
      <trkpt lat="45.81094" lon="4.49006">
        <ele>749.2</ele>
        <time>2025-09-10T11:43:45Z</time>
      </trkpt>
      <trkpt lat="45.81092" lon="4.49007">
        <ele>749.2</ele>
        <time>2025-09-10T11:43:46Z</time>
      </trkpt>
      <trkpt lat="45.8109" lon="4.49007">
        <ele>749.2</ele>
        <time>2025-09-10T11:43:47Z</time>
      </trkpt>
      <trkpt lat="45.81088" lon="4.49008">
        <ele>749.4</ele>
        <time>2025-09-10T11:43:48Z</time>
      </trkpt>
      <trkpt lat="45.81086" lon="4.49009">
        <ele>749.4</ele>
        <time>2025-09-10T11:43:49Z</time>
      </trkpt>
      <trkpt lat="45.81084" lon="4.49011">
        <ele>749.6</ele>
        <time>2025-09-10T11:43:50Z</time>
      </trkpt>
      <trkpt lat="45.81083" lon="4.49012">
        <ele>750</ele>
        <time>2025-09-10T11:43:51Z</time>
      </trkpt>
      <trkpt lat="45.81081" lon="4.49013">
        <ele>750</ele>
        <time>2025-09-10T11:43:52Z</time>
      </trkpt>
      <trkpt lat="45.8108" lon="4.49014">
        <ele>750.4</ele>
        <time>2025-09-10T11:43:53Z</time>
      </trkpt>
      <trkpt lat="45.81078" lon="4.49015">
        <ele>750.4</ele>
        <time>2025-09-10T11:43:54Z</time>
      </trkpt>
      <trkpt lat="45.81077" lon="4.49016">
        <ele>750.6</ele>
        <time>2025-09-10T11:43:55Z</time>
      </trkpt>
      <trkpt lat="45.81075" lon="4.49017">
        <ele>750.6</ele>
        <time>2025-09-10T11:43:56Z</time>
      </trkpt>
      <trkpt lat="45.81074" lon="4.49018">
        <ele>750.6</ele>
        <time>2025-09-10T11:43:57Z</time>
      </trkpt>
      <trkpt lat="45.81073" lon="4.4902">
        <ele>750.8</ele>
        <time>2025-09-10T11:43:58Z</time>
      </trkpt>
      <trkpt lat="45.81071" lon="4.49021">
        <ele>750.8</ele>
        <time>2025-09-10T11:43:59Z</time>
      </trkpt>
      <trkpt lat="45.8107" lon="4.49022">
        <ele>750.8</ele>
        <time>2025-09-10T11:44:00Z</time>
      </trkpt>
      <trkpt lat="45.81068" lon="4.49023">
        <ele>750.8</ele>
        <time>2025-09-10T11:44:01Z</time>
      </trkpt>
      <trkpt lat="45.81066" lon="4.49025">
        <ele>751.2</ele>
        <time>2025-09-10T11:44:02Z</time>
      </trkpt>
      <trkpt lat="45.81066" lon="4.49026">
        <ele>751.4</ele>
        <time>2025-09-10T11:44:03Z</time>
      </trkpt>
      <trkpt lat="45.81065" lon="4.49028">
        <ele>751.4</ele>
        <time>2025-09-10T11:44:04Z</time>
      </trkpt>
      <trkpt lat="45.81064" lon="4.4903">
        <ele>751.4</ele>
        <time>2025-09-10T11:44:05Z</time>
      </trkpt>
      <trkpt lat="45.81063" lon="4.49031">
        <ele>751.4</ele>
        <time>2025-09-10T11:44:06Z</time>
      </trkpt>
      <trkpt lat="45.81062" lon="4.49032">
        <ele>751.4</ele>
        <time>2025-09-10T11:44:07Z</time>
      </trkpt>
      <trkpt lat="45.8106" lon="4.49033">
        <ele>751.4</ele>
        <time>2025-09-10T11:44:08Z</time>
      </trkpt>
      <trkpt lat="45.81059" lon="4.49035">
        <ele>751.8</ele>
        <time>2025-09-10T11:44:09Z</time>
      </trkpt>
      <trkpt lat="45.81057" lon="4.49037">
        <ele>751.8</ele>
        <time>2025-09-10T11:44:10Z</time>
      </trkpt>
      <trkpt lat="45.81055" lon="4.49039">
        <ele>751.8</ele>
        <time>2025-09-10T11:44:11Z</time>
      </trkpt>
      <trkpt lat="45.81053" lon="4.49041">
        <ele>752</ele>
        <time>2025-09-10T11:44:12Z</time>
      </trkpt>
      <trkpt lat="45.81051" lon="4.49042">
        <ele>752</ele>
        <time>2025-09-10T11:44:13Z</time>
      </trkpt>
      <trkpt lat="45.81049" lon="4.49044">
        <ele>752.4</ele>
        <time>2025-09-10T11:44:14Z</time>
      </trkpt>
      <trkpt lat="45.81047" lon="4.49045">
        <ele>752.4</ele>
        <time>2025-09-10T11:44:15Z</time>
      </trkpt>
      <trkpt lat="45.81045" lon="4.49047">
        <ele>752.6</ele>
        <time>2025-09-10T11:44:16Z</time>
      </trkpt>
      <trkpt lat="45.81043" lon="4.49049">
        <ele>752.6</ele>
        <time>2025-09-10T11:44:17Z</time>
      </trkpt>
      <trkpt lat="45.8104" lon="4.49051">
        <ele>752.6</ele>
        <time>2025-09-10T11:44:18Z</time>
      </trkpt>
      <trkpt lat="45.81038" lon="4.49052">
        <ele>752.6</ele>
        <time>2025-09-10T11:44:19Z</time>
      </trkpt>
      <trkpt lat="45.81036" lon="4.49053">
        <ele>752.6</ele>
        <time>2025-09-10T11:44:20Z</time>
      </trkpt>
      <trkpt lat="45.81034" lon="4.49053">
        <ele>753</ele>
        <time>2025-09-10T11:44:21Z</time>
      </trkpt>
      <trkpt lat="45.81033" lon="4.49054">
        <ele>753</ele>
        <time>2025-09-10T11:44:22Z</time>
      </trkpt>
      <trkpt lat="45.81031" lon="4.49054">
        <ele>753.6</ele>
        <time>2025-09-10T11:44:23Z</time>
      </trkpt>
      <trkpt lat="45.8103" lon="4.49056">
        <ele>753.8</ele>
        <time>2025-09-10T11:44:24Z</time>
      </trkpt>
      <trkpt lat="45.81028" lon="4.49057">
        <ele>753.8</ele>
        <time>2025-09-10T11:44:25Z</time>
      </trkpt>
      <trkpt lat="45.81027" lon="4.49058">
        <ele>754.2</ele>
        <time>2025-09-10T11:44:26Z</time>
      </trkpt>
      <trkpt lat="45.81026" lon="4.49058">
        <ele>754.2</ele>
        <time>2025-09-10T11:44:27Z</time>
      </trkpt>
      <trkpt lat="45.81025" lon="4.49058">
        <ele>754.4</ele>
        <time>2025-09-10T11:44:28Z</time>
      </trkpt>
      <trkpt lat="45.81024" lon="4.49059">
        <ele>754.4</ele>
        <time>2025-09-10T11:44:29Z</time>
      </trkpt>
      <trkpt lat="45.81022" lon="4.49061">
        <ele>754.8</ele>
        <time>2025-09-10T11:44:30Z</time>
      </trkpt>
      <trkpt lat="45.81021" lon="4.49062">
        <ele>754.8</ele>
        <time>2025-09-10T11:44:31Z</time>
      </trkpt>
      <trkpt lat="45.81019" lon="4.49063">
        <ele>754.8</ele>
        <time>2025-09-10T11:44:32Z</time>
      </trkpt>
      <trkpt lat="45.81018" lon="4.49065">
        <ele>754.8</ele>
        <time>2025-09-10T11:44:33Z</time>
      </trkpt>
      <trkpt lat="45.81016" lon="4.49066">
        <ele>755.2</ele>
        <time>2025-09-10T11:44:34Z</time>
      </trkpt>
      <trkpt lat="45.81014" lon="4.49069">
        <ele>755.2</ele>
        <time>2025-09-10T11:44:35Z</time>
      </trkpt>
      <trkpt lat="45.81013" lon="4.49071">
        <ele>755.4</ele>
        <time>2025-09-10T11:44:36Z</time>
      </trkpt>
      <trkpt lat="45.81012" lon="4.49072">
        <ele>755.4</ele>
        <time>2025-09-10T11:44:37Z</time>
      </trkpt>
      <trkpt lat="45.81011" lon="4.49075">
        <ele>755.6</ele>
        <time>2025-09-10T11:44:38Z</time>
      </trkpt>
      <trkpt lat="45.8101" lon="4.49077">
        <ele>755.8</ele>
        <time>2025-09-10T11:44:39Z</time>
      </trkpt>
      <trkpt lat="45.81009" lon="4.4908">
        <ele>755.8</ele>
        <time>2025-09-10T11:44:40Z</time>
      </trkpt>
      <trkpt lat="45.81009" lon="4.49081">
        <ele>755.8</ele>
        <time>2025-09-10T11:44:41Z</time>
      </trkpt>
      <trkpt lat="45.81008" lon="4.49083">
        <ele>755.4</ele>
        <time>2025-09-10T11:44:42Z</time>
      </trkpt>
      <trkpt lat="45.81007" lon="4.49085">
        <ele>755.4</ele>
        <time>2025-09-10T11:44:43Z</time>
      </trkpt>
      <trkpt lat="45.81005" lon="4.49086">
        <ele>756</ele>
        <time>2025-09-10T11:44:44Z</time>
      </trkpt>
      <trkpt lat="45.81004" lon="4.49088">
        <ele>756</ele>
        <time>2025-09-10T11:44:45Z</time>
      </trkpt>
      <trkpt lat="45.81002" lon="4.49088">
        <ele>756</ele>
        <time>2025-09-10T11:44:46Z</time>
      </trkpt>
      <trkpt lat="45.81001" lon="4.4909">
        <ele>756</ele>
        <time>2025-09-10T11:44:47Z</time>
      </trkpt>
      <trkpt lat="45.81001" lon="4.49091">
        <ele>756</ele>
        <time>2025-09-10T11:44:48Z</time>
      </trkpt>
      <trkpt lat="45.81001" lon="4.49094">
        <ele>755.6</ele>
        <time>2025-09-10T11:44:49Z</time>
      </trkpt>
      <trkpt lat="45.81001" lon="4.49099">
        <ele>755.6</ele>
        <time>2025-09-10T11:44:50Z</time>
      </trkpt>
      <trkpt lat="45.81" lon="4.49103">
        <ele>755.6</ele>
        <time>2025-09-10T11:44:51Z</time>
      </trkpt>
      <trkpt lat="45.81001" lon="4.49108">
        <ele>755.4</ele>
        <time>2025-09-10T11:44:52Z</time>
      </trkpt>
      <trkpt lat="45.81002" lon="4.49112">
        <ele>755.2</ele>
        <time>2025-09-10T11:44:53Z</time>
      </trkpt>
      <trkpt lat="45.81005" lon="4.49117">
        <ele>755.2</ele>
        <time>2025-09-10T11:44:54Z</time>
      </trkpt>
      <trkpt lat="45.81012" lon="4.49119">
        <ele>754.4</ele>
        <time>2025-09-10T11:44:55Z</time>
      </trkpt>
      <trkpt lat="45.81014" lon="4.49122">
        <ele>754.2</ele>
        <time>2025-09-10T11:44:56Z</time>
      </trkpt>
      <trkpt lat="45.81016" lon="4.49129">
        <ele>754</ele>
        <time>2025-09-10T11:44:57Z</time>
      </trkpt>
      <trkpt lat="45.81012" lon="4.49138">
        <ele>753.6</ele>
        <time>2025-09-10T11:44:58Z</time>
      </trkpt>
      <trkpt lat="45.8101" lon="4.49144">
        <ele>753</ele>
        <time>2025-09-10T11:44:59Z</time>
      </trkpt>
      <trkpt lat="45.81009" lon="4.49152">
        <ele>753</ele>
        <time>2025-09-10T11:45:00Z</time>
      </trkpt>
      <trkpt lat="45.81006" lon="4.49157">
        <ele>752.6</ele>
        <time>2025-09-10T11:45:01Z</time>
      </trkpt>
      <trkpt lat="45.81005" lon="4.49162">
        <ele>752.6</ele>
        <time>2025-09-10T11:45:02Z</time>
      </trkpt>
      <trkpt lat="45.81002" lon="4.49168">
        <ele>752.6</ele>
        <time>2025-09-10T11:45:03Z</time>
      </trkpt>
      <trkpt lat="45.81" lon="4.49173">
        <ele>752.6</ele>
        <time>2025-09-10T11:45:04Z</time>
      </trkpt>
      <trkpt lat="45.80997" lon="4.49178">
        <ele>752.6</ele>
        <time>2025-09-10T11:45:05Z</time>
      </trkpt>
      <trkpt lat="45.80996" lon="4.49183">
        <ele>752.6</ele>
        <time>2025-09-10T11:45:06Z</time>
      </trkpt>
      <trkpt lat="45.80994" lon="4.49188">
        <ele>752.6</ele>
        <time>2025-09-10T11:45:07Z</time>
      </trkpt>
      <trkpt lat="45.80992" lon="4.49193">
        <ele>753</ele>
        <time>2025-09-10T11:45:08Z</time>
      </trkpt>
      <trkpt lat="45.80991" lon="4.49198">
        <ele>753</ele>
        <time>2025-09-10T11:45:09Z</time>
      </trkpt>
      <trkpt lat="45.80989" lon="4.49203">
        <ele>753</ele>
        <time>2025-09-10T11:45:10Z</time>
      </trkpt>
      <trkpt lat="45.80987" lon="4.49208">
        <ele>753</ele>
        <time>2025-09-10T11:45:11Z</time>
      </trkpt>
      <trkpt lat="45.80985" lon="4.49213">
        <ele>753</ele>
        <time>2025-09-10T11:45:12Z</time>
      </trkpt>
      <trkpt lat="45.80984" lon="4.49218">
        <ele>753</ele>
        <time>2025-09-10T11:45:13Z</time>
      </trkpt>
      <trkpt lat="45.80982" lon="4.49223">
        <ele>753.4</ele>
        <time>2025-09-10T11:45:14Z</time>
      </trkpt>
      <trkpt lat="45.8098" lon="4.49228">
        <ele>753.4</ele>
        <time>2025-09-10T11:45:15Z</time>
      </trkpt>
      <trkpt lat="45.80979" lon="4.49233">
        <ele>753.4</ele>
        <time>2025-09-10T11:45:16Z</time>
      </trkpt>
      <trkpt lat="45.80977" lon="4.49242">
        <ele>753.4</ele>
        <time>2025-09-10T11:45:17Z</time>
      </trkpt>
      <trkpt lat="45.80975" lon="4.49248">
        <ele>753.4</ele>
        <time>2025-09-10T11:45:18Z</time>
      </trkpt>
      <trkpt lat="45.80973" lon="4.49254">
        <ele>753.4</ele>
        <time>2025-09-10T11:45:19Z</time>
      </trkpt>
      <trkpt lat="45.80971" lon="4.49259">
        <ele>753.4</ele>
        <time>2025-09-10T11:45:20Z</time>
      </trkpt>
      <trkpt lat="45.8097" lon="4.49264">
        <ele>753.6</ele>
        <time>2025-09-10T11:45:21Z</time>
      </trkpt>
      <trkpt lat="45.80968" lon="4.49268">
        <ele>753.6</ele>
        <time>2025-09-10T11:45:22Z</time>
      </trkpt>
      <trkpt lat="45.80966" lon="4.49275">
        <ele>753.6</ele>
        <time>2025-09-10T11:45:23Z</time>
      </trkpt>
      <trkpt lat="45.80963" lon="4.4928">
        <ele>753.6</ele>
        <time>2025-09-10T11:45:24Z</time>
      </trkpt>
      <trkpt lat="45.80961" lon="4.49285">
        <ele>753.6</ele>
        <time>2025-09-10T11:45:25Z</time>
      </trkpt>
      <trkpt lat="45.80959" lon="4.49289">
        <ele>753.6</ele>
        <time>2025-09-10T11:45:26Z</time>
      </trkpt>
      <trkpt lat="45.80957" lon="4.49294">
        <ele>753.6</ele>
        <time>2025-09-10T11:45:27Z</time>
      </trkpt>
      <trkpt lat="45.80955" lon="4.49298">
        <ele>753.6</ele>
        <time>2025-09-10T11:45:28Z</time>
      </trkpt>
      <trkpt lat="45.80953" lon="4.49304">
        <ele>753.6</ele>
        <time>2025-09-10T11:45:29Z</time>
      </trkpt>
      <trkpt lat="45.80951" lon="4.49309">
        <ele>753.6</ele>
        <time>2025-09-10T11:45:30Z</time>
      </trkpt>
      <trkpt lat="45.80949" lon="4.49315">
        <ele>753.6</ele>
        <time>2025-09-10T11:45:31Z</time>
      </trkpt>
      <trkpt lat="45.80946" lon="4.49321">
        <ele>753.6</ele>
        <time>2025-09-10T11:45:32Z</time>
      </trkpt>
      <trkpt lat="45.80944" lon="4.49326">
        <ele>753.6</ele>
        <time>2025-09-10T11:45:33Z</time>
      </trkpt>
      <trkpt lat="45.80942" lon="4.49332">
        <ele>753.6</ele>
        <time>2025-09-10T11:45:34Z</time>
      </trkpt>
      <trkpt lat="45.8094" lon="4.49337">
        <ele>753.2</ele>
        <time>2025-09-10T11:45:35Z</time>
      </trkpt>
      <trkpt lat="45.80939" lon="4.49343">
        <ele>753.2</ele>
        <time>2025-09-10T11:45:36Z</time>
      </trkpt>
      <trkpt lat="45.80936" lon="4.49348">
        <ele>753.2</ele>
        <time>2025-09-10T11:45:37Z</time>
      </trkpt>
      <trkpt lat="45.80934" lon="4.49354">
        <ele>752.8</ele>
        <time>2025-09-10T11:45:38Z</time>
      </trkpt>
      <trkpt lat="45.80931" lon="4.4936">
        <ele>752.8</ele>
        <time>2025-09-10T11:45:39Z</time>
      </trkpt>
      <trkpt lat="45.80929" lon="4.49366">
        <ele>752.8</ele>
        <time>2025-09-10T11:45:40Z</time>
      </trkpt>
      <trkpt lat="45.80927" lon="4.49372">
        <ele>752.4</ele>
        <time>2025-09-10T11:45:41Z</time>
      </trkpt>
      <trkpt lat="45.80925" lon="4.49379">
        <ele>752</ele>
        <time>2025-09-10T11:45:42Z</time>
      </trkpt>
      <trkpt lat="45.80922" lon="4.49385">
        <ele>751.4</ele>
        <time>2025-09-10T11:45:43Z</time>
      </trkpt>
      <trkpt lat="45.8092" lon="4.49392">
        <ele>751.4</ele>
        <time>2025-09-10T11:45:44Z</time>
      </trkpt>
      <trkpt lat="45.80917" lon="4.494">
        <ele>751</ele>
        <time>2025-09-10T11:45:45Z</time>
      </trkpt>
      <trkpt lat="45.80914" lon="4.49408">
        <ele>750.4</ele>
        <time>2025-09-10T11:45:46Z</time>
      </trkpt>
      <trkpt lat="45.80911" lon="4.49415">
        <ele>750.4</ele>
        <time>2025-09-10T11:45:47Z</time>
      </trkpt>
      <trkpt lat="45.80908" lon="4.49422">
        <ele>750</ele>
        <time>2025-09-10T11:45:48Z</time>
      </trkpt>
      <trkpt lat="45.80904" lon="4.4943">
        <ele>750</ele>
        <time>2025-09-10T11:45:49Z</time>
      </trkpt>
      <trkpt lat="45.80901" lon="4.49437">
        <ele>749.6</ele>
        <time>2025-09-10T11:45:50Z</time>
      </trkpt>
      <trkpt lat="45.80898" lon="4.49445">
        <ele>749.2</ele>
        <time>2025-09-10T11:45:51Z</time>
      </trkpt>
      <trkpt lat="45.80894" lon="4.4945">
        <ele>749</ele>
        <time>2025-09-10T11:45:52Z</time>
      </trkpt>
      <trkpt lat="45.8089" lon="4.49457">
        <ele>748.8</ele>
        <time>2025-09-10T11:45:53Z</time>
      </trkpt>
      <trkpt lat="45.80885" lon="4.49464">
        <ele>748.8</ele>
        <time>2025-09-10T11:45:54Z</time>
      </trkpt>
      <trkpt lat="45.80881" lon="4.49469">
        <ele>748.2</ele>
        <time>2025-09-10T11:45:55Z</time>
      </trkpt>
      <trkpt lat="45.80876" lon="4.49475">
        <ele>748.2</ele>
        <time>2025-09-10T11:45:56Z</time>
      </trkpt>
      <trkpt lat="45.80871" lon="4.49479">
        <ele>747.8</ele>
        <time>2025-09-10T11:45:57Z</time>
      </trkpt>
      <trkpt lat="45.80866" lon="4.49484">
        <ele>747.8</ele>
        <time>2025-09-10T11:45:58Z</time>
      </trkpt>
      <trkpt lat="45.8086" lon="4.4948">
        <ele>747.8</ele>
        <time>2025-09-10T11:45:59Z</time>
      </trkpt>
      <trkpt lat="45.80857" lon="4.49481">
        <ele>748.2</ele>
        <time>2025-09-10T11:46:00Z</time>
      </trkpt>
      <trkpt lat="45.80855" lon="4.4948">
        <ele>748.4</ele>
        <time>2025-09-10T11:46:01Z</time>
      </trkpt>
      <trkpt lat="45.80852" lon="4.49479">
        <ele>748.6</ele>
        <time>2025-09-10T11:46:02Z</time>
      </trkpt>
      <trkpt lat="45.80852" lon="4.49479">
        <ele>748.6</ele>
        <time>2025-09-10T11:46:03Z</time>
      </trkpt>
      <trkpt lat="45.8085" lon="4.49479">
        <ele>749</ele>
        <time>2025-09-10T11:46:04Z</time>
      </trkpt>
      <trkpt lat="45.80848" lon="4.4948">
        <ele>749.2</ele>
        <time>2025-09-10T11:46:05Z</time>
      </trkpt>
      <trkpt lat="45.80846" lon="4.4948">
        <ele>748.8</ele>
        <time>2025-09-10T11:46:06Z</time>
      </trkpt>
      <trkpt lat="45.80844" lon="4.49481">
        <ele>749</ele>
        <time>2025-09-10T11:46:07Z</time>
      </trkpt>
      <trkpt lat="45.80842" lon="4.49481">
        <ele>750</ele>
        <time>2025-09-10T11:46:08Z</time>
      </trkpt>
      <trkpt lat="45.8084" lon="4.49482">
        <ele>751</ele>
        <time>2025-09-10T11:46:09Z</time>
      </trkpt>
      <trkpt lat="45.80838" lon="4.49483">
        <ele>751</ele>
        <time>2025-09-10T11:46:10Z</time>
      </trkpt>
      <trkpt lat="45.80836" lon="4.49484">
        <ele>751</ele>
        <time>2025-09-10T11:46:11Z</time>
      </trkpt>
      <trkpt lat="45.80835" lon="4.49483">
        <ele>751</ele>
        <time>2025-09-10T11:46:12Z</time>
      </trkpt>
      <trkpt lat="45.80833" lon="4.49484">
        <ele>751.2</ele>
        <time>2025-09-10T11:46:13Z</time>
      </trkpt>
      <trkpt lat="45.80831" lon="4.49485">
        <ele>751.2</ele>
        <time>2025-09-10T11:46:14Z</time>
      </trkpt>
      <trkpt lat="45.8083" lon="4.49486">
        <ele>751.4</ele>
        <time>2025-09-10T11:46:15Z</time>
      </trkpt>
      <trkpt lat="45.80828" lon="4.49486">
        <ele>751.6</ele>
        <time>2025-09-10T11:46:16Z</time>
      </trkpt>
      <trkpt lat="45.80827" lon="4.49486">
        <ele>751.2</ele>
        <time>2025-09-10T11:46:17Z</time>
      </trkpt>
      <trkpt lat="45.80825" lon="4.49487">
        <ele>751.2</ele>
        <time>2025-09-10T11:46:18Z</time>
      </trkpt>
      <trkpt lat="45.80824" lon="4.49487">
        <ele>752</ele>
        <time>2025-09-10T11:46:19Z</time>
      </trkpt>
      <trkpt lat="45.80822" lon="4.49488">
        <ele>752</ele>
        <time>2025-09-10T11:46:20Z</time>
      </trkpt>
      <trkpt lat="45.80821" lon="4.49488">
        <ele>752.2</ele>
        <time>2025-09-10T11:46:21Z</time>
      </trkpt>
      <trkpt lat="45.80819" lon="4.49488">
        <ele>752.4</ele>
        <time>2025-09-10T11:46:22Z</time>
      </trkpt>
      <trkpt lat="45.80818" lon="4.49488">
        <ele>752.4</ele>
        <time>2025-09-10T11:46:23Z</time>
      </trkpt>
      <trkpt lat="45.80816" lon="4.49488">
        <ele>752.4</ele>
        <time>2025-09-10T11:46:24Z</time>
      </trkpt>
      <trkpt lat="45.80815" lon="4.49489">
        <ele>752.8</ele>
        <time>2025-09-10T11:46:25Z</time>
      </trkpt>
      <trkpt lat="45.80813" lon="4.4949">
        <ele>752.8</ele>
        <time>2025-09-10T11:46:26Z</time>
      </trkpt>
      <trkpt lat="45.80812" lon="4.49491">
        <ele>753.2</ele>
        <time>2025-09-10T11:46:27Z</time>
      </trkpt>
      <trkpt lat="45.8081" lon="4.49491">
        <ele>753.2</ele>
        <time>2025-09-10T11:46:28Z</time>
      </trkpt>
      <trkpt lat="45.80809" lon="4.49492">
        <ele>753.6</ele>
        <time>2025-09-10T11:46:29Z</time>
      </trkpt>
      <trkpt lat="45.80808" lon="4.49492">
        <ele>753.6</ele>
        <time>2025-09-10T11:46:30Z</time>
      </trkpt>
      <trkpt lat="45.80806" lon="4.49493">
        <ele>753.6</ele>
        <time>2025-09-10T11:46:31Z</time>
      </trkpt>
      <trkpt lat="45.80804" lon="4.49494">
        <ele>753.8</ele>
        <time>2025-09-10T11:46:32Z</time>
      </trkpt>
      <trkpt lat="45.80803" lon="4.49494">
        <ele>753.8</ele>
        <time>2025-09-10T11:46:33Z</time>
      </trkpt>
      <trkpt lat="45.80801" lon="4.49495">
        <ele>754.2</ele>
        <time>2025-09-10T11:46:34Z</time>
      </trkpt>
      <trkpt lat="45.808" lon="4.49495">
        <ele>754.2</ele>
        <time>2025-09-10T11:46:35Z</time>
      </trkpt>
      <trkpt lat="45.80798" lon="4.49496">
        <ele>754.6</ele>
        <time>2025-09-10T11:46:36Z</time>
      </trkpt>
      <trkpt lat="45.80797" lon="4.49496">
        <ele>754.8</ele>
        <time>2025-09-10T11:46:37Z</time>
      </trkpt>
      <trkpt lat="45.80795" lon="4.49497">
        <ele>755</ele>
        <time>2025-09-10T11:46:38Z</time>
      </trkpt>
      <trkpt lat="45.80793" lon="4.49498">
        <ele>755</ele>
        <time>2025-09-10T11:46:39Z</time>
      </trkpt>
      <trkpt lat="45.80792" lon="4.49498">
        <ele>755.4</ele>
        <time>2025-09-10T11:46:40Z</time>
      </trkpt>
      <trkpt lat="45.80791" lon="4.49499">
        <ele>755.4</ele>
        <time>2025-09-10T11:46:41Z</time>
      </trkpt>
      <trkpt lat="45.8079" lon="4.495">
        <ele>755.4</ele>
        <time>2025-09-10T11:46:42Z</time>
      </trkpt>
      <trkpt lat="45.80789" lon="4.495">
        <ele>755.4</ele>
        <time>2025-09-10T11:46:43Z</time>
      </trkpt>
      <trkpt lat="45.80788" lon="4.495">
        <ele>755.6</ele>
        <time>2025-09-10T11:46:44Z</time>
      </trkpt>
      <trkpt lat="45.80787" lon="4.49501">
        <ele>755.6</ele>
        <time>2025-09-10T11:46:45Z</time>
      </trkpt>
      <trkpt lat="45.80786" lon="4.49501">
        <ele>755.8</ele>
        <time>2025-09-10T11:46:46Z</time>
      </trkpt>
      <trkpt lat="45.80785" lon="4.49501">
        <ele>755.8</ele>
        <time>2025-09-10T11:46:47Z</time>
      </trkpt>
      <trkpt lat="45.80784" lon="4.49501">
        <ele>756.2</ele>
        <time>2025-09-10T11:46:48Z</time>
      </trkpt>
      <trkpt lat="45.80783" lon="4.49501">
        <ele>756.2</ele>
        <time>2025-09-10T11:46:49Z</time>
      </trkpt>
      <trkpt lat="45.80782" lon="4.49501">
        <ele>756.2</ele>
        <time>2025-09-10T11:46:50Z</time>
      </trkpt>
      <trkpt lat="45.80781" lon="4.49501">
        <ele>756.4</ele>
        <time>2025-09-10T11:46:51Z</time>
      </trkpt>
      <trkpt lat="45.8078" lon="4.49501">
        <ele>756.4</ele>
        <time>2025-09-10T11:46:52Z</time>
      </trkpt>
      <trkpt lat="45.80778" lon="4.49501">
        <ele>757</ele>
        <time>2025-09-10T11:46:53Z</time>
      </trkpt>
      <trkpt lat="45.80778" lon="4.49501">
        <ele>757.2</ele>
        <time>2025-09-10T11:46:54Z</time>
      </trkpt>
      <trkpt lat="45.80777" lon="4.49501">
        <ele>757.2</ele>
        <time>2025-09-10T11:46:55Z</time>
      </trkpt>
      <trkpt lat="45.80776" lon="4.49502">
        <ele>757.6</ele>
        <time>2025-09-10T11:46:56Z</time>
      </trkpt>
      <trkpt lat="45.80775" lon="4.49502">
        <ele>757.6</ele>
        <time>2025-09-10T11:46:57Z</time>
      </trkpt>
      <trkpt lat="45.80775" lon="4.49502">
        <ele>757.6</ele>
        <time>2025-09-10T11:46:58Z</time>
      </trkpt>
      <trkpt lat="45.80774" lon="4.49502">
        <ele>757.8</ele>
        <time>2025-09-10T11:46:59Z</time>
      </trkpt>
      <trkpt lat="45.80773" lon="4.49503">
        <ele>757.8</ele>
        <time>2025-09-10T11:47:00Z</time>
      </trkpt>
      <trkpt lat="45.80772" lon="4.49504">
        <ele>758</ele>
        <time>2025-09-10T11:47:01Z</time>
      </trkpt>
      <trkpt lat="45.80771" lon="4.49505">
        <ele>758</ele>
        <time>2025-09-10T11:47:02Z</time>
      </trkpt>
      <trkpt lat="45.8077" lon="4.49506">
        <ele>758.2</ele>
        <time>2025-09-10T11:47:03Z</time>
      </trkpt>
      <trkpt lat="45.80769" lon="4.49506">
        <ele>758.2</ele>
        <time>2025-09-10T11:47:04Z</time>
      </trkpt>
      <trkpt lat="45.80767" lon="4.49506">
        <ele>758.6</ele>
        <time>2025-09-10T11:47:05Z</time>
      </trkpt>
      <trkpt lat="45.80766" lon="4.49506">
        <ele>758.6</ele>
        <time>2025-09-10T11:47:06Z</time>
      </trkpt>
      <trkpt lat="45.80765" lon="4.49506">
        <ele>758.6</ele>
        <time>2025-09-10T11:47:07Z</time>
      </trkpt>
      <trkpt lat="45.80763" lon="4.49507">
        <ele>758.8</ele>
        <time>2025-09-10T11:47:08Z</time>
      </trkpt>
      <trkpt lat="45.80762" lon="4.49507">
        <ele>759</ele>
        <time>2025-09-10T11:47:09Z</time>
      </trkpt>
      <trkpt lat="45.80761" lon="4.49507">
        <ele>759.2</ele>
        <time>2025-09-10T11:47:10Z</time>
      </trkpt>
      <trkpt lat="45.8076" lon="4.49507">
        <ele>759.2</ele>
        <time>2025-09-10T11:47:11Z</time>
      </trkpt>
      <trkpt lat="45.80759" lon="4.49507">
        <ele>759.2</ele>
        <time>2025-09-10T11:47:12Z</time>
      </trkpt>
      <trkpt lat="45.80758" lon="4.49508">
        <ele>759.6</ele>
        <time>2025-09-10T11:47:13Z</time>
      </trkpt>
      <trkpt lat="45.80757" lon="4.49508">
        <ele>759.6</ele>
        <time>2025-09-10T11:47:14Z</time>
      </trkpt>
      <trkpt lat="45.80755" lon="4.49509">
        <ele>760</ele>
        <time>2025-09-10T11:47:15Z</time>
      </trkpt>
      <trkpt lat="45.80754" lon="4.49509">
        <ele>760.4</ele>
        <time>2025-09-10T11:47:16Z</time>
      </trkpt>
      <trkpt lat="45.80753" lon="4.49509">
        <ele>760.4</ele>
        <time>2025-09-10T11:47:17Z</time>
      </trkpt>
      <trkpt lat="45.80752" lon="4.49509">
        <ele>760.6</ele>
        <time>2025-09-10T11:47:18Z</time>
      </trkpt>
      <trkpt lat="45.80751" lon="4.4951">
        <ele>760.6</ele>
        <time>2025-09-10T11:47:19Z</time>
      </trkpt>
      <trkpt lat="45.8075" lon="4.4951">
        <ele>761</ele>
        <time>2025-09-10T11:47:20Z</time>
      </trkpt>
      <trkpt lat="45.8075" lon="4.4951">
        <ele>761</ele>
        <time>2025-09-10T11:47:21Z</time>
      </trkpt>
      <trkpt lat="45.80749" lon="4.49511">
        <ele>761.4</ele>
        <time>2025-09-10T11:47:22Z</time>
      </trkpt>
      <trkpt lat="45.80749" lon="4.49511">
        <ele>761.6</ele>
        <time>2025-09-10T11:47:23Z</time>
      </trkpt>
      <trkpt lat="45.80748" lon="4.49512">
        <ele>761.6</ele>
        <time>2025-09-10T11:47:24Z</time>
      </trkpt>
      <trkpt lat="45.80747" lon="4.49512">
        <ele>762</ele>
        <time>2025-09-10T11:47:25Z</time>
      </trkpt>
      <trkpt lat="45.80746" lon="4.49513">
        <ele>762</ele>
        <time>2025-09-10T11:47:26Z</time>
      </trkpt>
      <trkpt lat="45.80745" lon="4.49513">
        <ele>762.2</ele>
        <time>2025-09-10T11:47:27Z</time>
      </trkpt>
      <trkpt lat="45.80745" lon="4.49513">
        <ele>762.4</ele>
        <time>2025-09-10T11:47:28Z</time>
      </trkpt>
      <trkpt lat="45.80744" lon="4.49514">
        <ele>762.4</ele>
        <time>2025-09-10T11:47:29Z</time>
      </trkpt>
      <trkpt lat="45.80743" lon="4.49515">
        <ele>762.8</ele>
        <time>2025-09-10T11:47:30Z</time>
      </trkpt>
      <trkpt lat="45.80743" lon="4.49515">
        <ele>762.8</ele>
        <time>2025-09-10T11:47:31Z</time>
      </trkpt>
      <trkpt lat="45.80742" lon="4.49515">
        <ele>762.8</ele>
        <time>2025-09-10T11:47:32Z</time>
      </trkpt>
      <trkpt lat="45.80741" lon="4.49515">
        <ele>763.2</ele>
        <time>2025-09-10T11:47:33Z</time>
      </trkpt>
      <trkpt lat="45.8074" lon="4.49515">
        <ele>763.2</ele>
        <time>2025-09-10T11:47:34Z</time>
      </trkpt>
      <trkpt lat="45.8074" lon="4.49515">
        <ele>763.4</ele>
        <time>2025-09-10T11:47:35Z</time>
      </trkpt>
      <trkpt lat="45.8074" lon="4.49515">
        <ele>763.4</ele>
        <time>2025-09-10T11:47:42Z</time>
      </trkpt>
      <trkpt lat="45.80739" lon="4.49515">
        <ele>763.4</ele>
        <time>2025-09-10T11:47:43Z</time>
      </trkpt>
      <trkpt lat="45.80738" lon="4.49514">
        <ele>763.4</ele>
        <time>2025-09-10T11:47:44Z</time>
      </trkpt>
      <trkpt lat="45.80737" lon="4.49514">
        <ele>763.4</ele>
        <time>2025-09-10T11:47:45Z</time>
      </trkpt>
      <trkpt lat="45.80736" lon="4.49515">
        <ele>763.6</ele>
        <time>2025-09-10T11:47:46Z</time>
      </trkpt>
      <trkpt lat="45.80735" lon="4.49515">
        <ele>763.6</ele>
        <time>2025-09-10T11:47:47Z</time>
      </trkpt>
      <trkpt lat="45.80734" lon="4.49516">
        <ele>763.8</ele>
        <time>2025-09-10T11:47:50Z</time>
      </trkpt>
      <trkpt lat="45.80734" lon="4.49515">
        <ele>764</ele>
        <time>2025-09-10T11:47:51Z</time>
      </trkpt>
      <trkpt lat="45.80734" lon="4.49517">
        <ele>764.8</ele>
        <time>2025-09-10T11:47:57Z</time>
      </trkpt>
      <trkpt lat="45.80733" lon="4.49518">
        <ele>765</ele>
        <time>2025-09-10T11:47:58Z</time>
      </trkpt>
      <trkpt lat="45.80732" lon="4.49519">
        <ele>765</ele>
        <time>2025-09-10T11:47:59Z</time>
      </trkpt>
      <trkpt lat="45.80731" lon="4.49519">
        <ele>765.4</ele>
        <time>2025-09-10T11:48:00Z</time>
      </trkpt>
      <trkpt lat="45.8073" lon="4.4952">
        <ele>765.6</ele>
        <time>2025-09-10T11:48:01Z</time>
      </trkpt>
      <trkpt lat="45.8073" lon="4.49521">
        <ele>765.6</ele>
        <time>2025-09-10T11:48:02Z</time>
      </trkpt>
      <trkpt lat="45.80729" lon="4.49522">
        <ele>766</ele>
        <time>2025-09-10T11:48:03Z</time>
      </trkpt>
      <trkpt lat="45.80728" lon="4.49523">
        <ele>766</ele>
        <time>2025-09-10T11:48:04Z</time>
      </trkpt>
      <trkpt lat="45.80727" lon="4.49524">
        <ele>766</ele>
        <time>2025-09-10T11:48:05Z</time>
      </trkpt>
      <trkpt lat="45.80725" lon="4.49526">
        <ele>766.2</ele>
        <time>2025-09-10T11:48:06Z</time>
      </trkpt>
      <trkpt lat="45.80724" lon="4.49527">
        <ele>766.4</ele>
        <time>2025-09-10T11:48:07Z</time>
      </trkpt>
      <trkpt lat="45.80723" lon="4.49527">
        <ele>766.4</ele>
        <time>2025-09-10T11:48:08Z</time>
      </trkpt>
      <trkpt lat="45.80722" lon="4.49528">
        <ele>766.8</ele>
        <time>2025-09-10T11:48:09Z</time>
      </trkpt>
      <trkpt lat="45.80722" lon="4.4953">
        <ele>767</ele>
        <time>2025-09-10T11:48:10Z</time>
      </trkpt>
      <trkpt lat="45.80721" lon="4.49531">
        <ele>767</ele>
        <time>2025-09-10T11:48:11Z</time>
      </trkpt>
      <trkpt lat="45.8072" lon="4.49532">
        <ele>767.4</ele>
        <time>2025-09-10T11:48:12Z</time>
      </trkpt>
      <trkpt lat="45.8072" lon="4.49533">
        <ele>767.6</ele>
        <time>2025-09-10T11:48:13Z</time>
      </trkpt>
      <trkpt lat="45.80719" lon="4.49534">
        <ele>767.6</ele>
        <time>2025-09-10T11:48:14Z</time>
      </trkpt>
      <trkpt lat="45.80719" lon="4.49535">
        <ele>768</ele>
        <time>2025-09-10T11:48:15Z</time>
      </trkpt>
      <trkpt lat="45.80719" lon="4.49536">
        <ele>768</ele>
        <time>2025-09-10T11:48:16Z</time>
      </trkpt>
      <trkpt lat="45.80718" lon="4.49537">
        <ele>768.4</ele>
        <time>2025-09-10T11:48:17Z</time>
      </trkpt>
      <trkpt lat="45.80717" lon="4.49537">
        <ele>768.4</ele>
        <time>2025-09-10T11:48:18Z</time>
      </trkpt>
      <trkpt lat="45.80715" lon="4.49536">
        <ele>768.4</ele>
        <time>2025-09-10T11:48:19Z</time>
      </trkpt>
      <trkpt lat="45.80714" lon="4.49536">
        <ele>768.4</ele>
        <time>2025-09-10T11:48:20Z</time>
      </trkpt>
      <trkpt lat="45.80712" lon="4.49537">
        <ele>768.4</ele>
        <time>2025-09-10T11:48:21Z</time>
      </trkpt>
      <trkpt lat="45.80711" lon="4.49537">
        <ele>768.6</ele>
        <time>2025-09-10T11:48:22Z</time>
      </trkpt>
      <trkpt lat="45.8071" lon="4.49538">
        <ele>768.6</ele>
        <time>2025-09-10T11:48:23Z</time>
      </trkpt>
      <trkpt lat="45.8071" lon="4.49538">
        <ele>768.6</ele>
        <time>2025-09-10T11:48:24Z</time>
      </trkpt>
      <trkpt lat="45.80709" lon="4.49539">
        <ele>769</ele>
        <time>2025-09-10T11:48:25Z</time>
      </trkpt>
      <trkpt lat="45.80708" lon="4.49539">
        <ele>769</ele>
        <time>2025-09-10T11:48:26Z</time>
      </trkpt>
      <trkpt lat="45.80707" lon="4.4954">
        <ele>769.4</ele>
        <time>2025-09-10T11:48:27Z</time>
      </trkpt>
      <trkpt lat="45.80705" lon="4.4954">
        <ele>769.4</ele>
        <time>2025-09-10T11:48:28Z</time>
      </trkpt>
      <trkpt lat="45.80704" lon="4.4954">
        <ele>769.6</ele>
        <time>2025-09-10T11:48:29Z</time>
      </trkpt>
      <trkpt lat="45.80704" lon="4.4954">
        <ele>769.6</ele>
        <time>2025-09-10T11:48:30Z</time>
      </trkpt>
      <trkpt lat="45.80704" lon="4.4954">
        <ele>769.8</ele>
        <time>2025-09-10T11:48:31Z</time>
      </trkpt>
      <trkpt lat="45.80703" lon="4.49541">
        <ele>769.8</ele>
        <time>2025-09-10T11:48:32Z</time>
      </trkpt>
      <trkpt lat="45.80702" lon="4.49541">
        <ele>770.2</ele>
        <time>2025-09-10T11:48:33Z</time>
      </trkpt>
      <trkpt lat="45.80702" lon="4.49542">
        <ele>770.2</ele>
        <time>2025-09-10T11:48:34Z</time>
      </trkpt>
      <trkpt lat="45.807" lon="4.49542">
        <ele>770.4</ele>
        <time>2025-09-10T11:48:35Z</time>
      </trkpt>
      <trkpt lat="45.80699" lon="4.49542">
        <ele>770.4</ele>
        <time>2025-09-10T11:48:36Z</time>
      </trkpt>
      <trkpt lat="45.80698" lon="4.49542">
        <ele>770.8</ele>
        <time>2025-09-10T11:48:37Z</time>
      </trkpt>
      <trkpt lat="45.80698" lon="4.49542">
        <ele>770.8</ele>
        <time>2025-09-10T11:48:38Z</time>
      </trkpt>
      <trkpt lat="45.80697" lon="4.49542">
        <ele>770.8</ele>
        <time>2025-09-10T11:48:39Z</time>
      </trkpt>
      <trkpt lat="45.80697" lon="4.49542">
        <ele>771</ele>
        <time>2025-09-10T11:48:40Z</time>
      </trkpt>
      <trkpt lat="45.80696" lon="4.49544">
        <ele>771</ele>
        <time>2025-09-10T11:48:41Z</time>
      </trkpt>
      <trkpt lat="45.80695" lon="4.49544">
        <ele>771.2</ele>
        <time>2025-09-10T11:48:42Z</time>
      </trkpt>
      <trkpt lat="45.80695" lon="4.49544">
        <ele>771.2</ele>
        <time>2025-09-10T11:48:43Z</time>
      </trkpt>
      <trkpt lat="45.80695" lon="4.49545">
        <ele>771.6</ele>
        <time>2025-09-10T11:48:44Z</time>
      </trkpt>
      <trkpt lat="45.80695" lon="4.49545">
        <ele>771.6</ele>
        <time>2025-09-10T11:48:45Z</time>
      </trkpt>
      <trkpt lat="45.80694" lon="4.49546">
        <ele>771.8</ele>
        <time>2025-09-10T11:48:46Z</time>
      </trkpt>
      <trkpt lat="45.80694" lon="4.49546">
        <ele>771.8</ele>
        <time>2025-09-10T11:48:47Z</time>
      </trkpt>
      <trkpt lat="45.80694" lon="4.49547">
        <ele>772.2</ele>
        <time>2025-09-10T11:48:48Z</time>
      </trkpt>
      <trkpt lat="45.80694" lon="4.49547">
        <ele>772.2</ele>
        <time>2025-09-10T11:48:49Z</time>
      </trkpt>
      <trkpt lat="45.80694" lon="4.49548">
        <ele>772.4</ele>
        <time>2025-09-10T11:48:50Z</time>
      </trkpt>
      <trkpt lat="45.80694" lon="4.49548">
        <ele>772.4</ele>
        <time>2025-09-10T11:48:51Z</time>
      </trkpt>
      <trkpt lat="45.80694" lon="4.49549">
        <ele>772.8</ele>
        <time>2025-09-10T11:48:52Z</time>
      </trkpt>
      <trkpt lat="45.80693" lon="4.4955">
        <ele>772.8</ele>
        <time>2025-09-10T11:48:53Z</time>
      </trkpt>
      <trkpt lat="45.80693" lon="4.4955">
        <ele>772.8</ele>
        <time>2025-09-10T11:48:54Z</time>
      </trkpt>
      <trkpt lat="45.80693" lon="4.49551">
        <ele>773</ele>
        <time>2025-09-10T11:48:55Z</time>
      </trkpt>
      <trkpt lat="45.80692" lon="4.49551">
        <ele>773</ele>
        <time>2025-09-10T11:48:56Z</time>
      </trkpt>
      <trkpt lat="45.80692" lon="4.49552">
        <ele>773</ele>
        <time>2025-09-10T11:48:57Z</time>
      </trkpt>
      <trkpt lat="45.80692" lon="4.49552">
        <ele>773.4</ele>
        <time>2025-09-10T11:48:58Z</time>
      </trkpt>
      <trkpt lat="45.80692" lon="4.49553">
        <ele>773.4</ele>
        <time>2025-09-10T11:48:59Z</time>
      </trkpt>
      <trkpt lat="45.80691" lon="4.49554">
        <ele>773.6</ele>
        <time>2025-09-10T11:49:00Z</time>
      </trkpt>
      <trkpt lat="45.80691" lon="4.49555">
        <ele>773.8</ele>
        <time>2025-09-10T11:49:01Z</time>
      </trkpt>
      <trkpt lat="45.80691" lon="4.49555">
        <ele>773.8</ele>
        <time>2025-09-10T11:49:02Z</time>
      </trkpt>
      <trkpt lat="45.80691" lon="4.49556">
        <ele>774.2</ele>
        <time>2025-09-10T11:49:03Z</time>
      </trkpt>
      <trkpt lat="45.8069" lon="4.49557">
        <ele>774.2</ele>
        <time>2025-09-10T11:49:04Z</time>
      </trkpt>
      <trkpt lat="45.8069" lon="4.49558">
        <ele>774.6</ele>
        <time>2025-09-10T11:49:05Z</time>
      </trkpt>
      <trkpt lat="45.80689" lon="4.49558">
        <ele>774.6</ele>
        <time>2025-09-10T11:49:06Z</time>
      </trkpt>
      <trkpt lat="45.80689" lon="4.49559">
        <ele>775</ele>
        <time>2025-09-10T11:49:07Z</time>
      </trkpt>
      <trkpt lat="45.80689" lon="4.49559">
        <ele>775.2</ele>
        <time>2025-09-10T11:49:08Z</time>
      </trkpt>
      <trkpt lat="45.80688" lon="4.4956">
        <ele>775.2</ele>
        <time>2025-09-10T11:49:09Z</time>
      </trkpt>
      <trkpt lat="45.80688" lon="4.49561">
        <ele>775.6</ele>
        <time>2025-09-10T11:49:10Z</time>
      </trkpt>
      <trkpt lat="45.80687" lon="4.49561">
        <ele>775.6</ele>
        <time>2025-09-10T11:49:11Z</time>
      </trkpt>
      <trkpt lat="45.80687" lon="4.49562">
        <ele>775.6</ele>
        <time>2025-09-10T11:49:12Z</time>
      </trkpt>
      <trkpt lat="45.80686" lon="4.49563">
        <ele>775.6</ele>
        <time>2025-09-10T11:49:13Z</time>
      </trkpt>
      <trkpt lat="45.80685" lon="4.49564">
        <ele>776</ele>
        <time>2025-09-10T11:49:14Z</time>
      </trkpt>
      <trkpt lat="45.80684" lon="4.49565">
        <ele>776</ele>
        <time>2025-09-10T11:49:15Z</time>
      </trkpt>
      <trkpt lat="45.80684" lon="4.49565">
        <ele>776.2</ele>
        <time>2025-09-10T11:49:16Z</time>
      </trkpt>
      <trkpt lat="45.80683" lon="4.49566">
        <ele>776.4</ele>
        <time>2025-09-10T11:49:17Z</time>
      </trkpt>
      <trkpt lat="45.80682" lon="4.49567">
        <ele>776.4</ele>
        <time>2025-09-10T11:49:18Z</time>
      </trkpt>
      <trkpt lat="45.80682" lon="4.49568">
        <ele>776.6</ele>
        <time>2025-09-10T11:49:19Z</time>
      </trkpt>
      <trkpt lat="45.80681" lon="4.49569">
        <ele>776.6</ele>
        <time>2025-09-10T11:49:20Z</time>
      </trkpt>
      <trkpt lat="45.8068" lon="4.4957">
        <ele>776.6</ele>
        <time>2025-09-10T11:49:21Z</time>
      </trkpt>
      <trkpt lat="45.80679" lon="4.4957">
        <ele>776.8</ele>
        <time>2025-09-10T11:49:22Z</time>
      </trkpt>
      <trkpt lat="45.80677" lon="4.49572">
        <ele>776.8</ele>
        <time>2025-09-10T11:49:25Z</time>
      </trkpt>
      <trkpt lat="45.80676" lon="4.49573">
        <ele>777</ele>
        <time>2025-09-10T11:49:26Z</time>
      </trkpt>
      <trkpt lat="45.80675" lon="4.49574">
        <ele>777</ele>
        <time>2025-09-10T11:49:27Z</time>
      </trkpt>
      <trkpt lat="45.80675" lon="4.49575">
        <ele>777</ele>
        <time>2025-09-10T11:49:28Z</time>
      </trkpt>
      <trkpt lat="45.80674" lon="4.49576">
        <ele>777</ele>
        <time>2025-09-10T11:49:29Z</time>
      </trkpt>
      <trkpt lat="45.80672" lon="4.49576">
        <ele>777</ele>
        <time>2025-09-10T11:49:30Z</time>
      </trkpt>
      <trkpt lat="45.80671" lon="4.49577">
        <ele>777.4</ele>
        <time>2025-09-10T11:49:31Z</time>
      </trkpt>
      <trkpt lat="45.80669" lon="4.49578">
        <ele>777.4</ele>
        <time>2025-09-10T11:49:32Z</time>
      </trkpt>
      <trkpt lat="45.80667" lon="4.49579">
        <ele>777.4</ele>
        <time>2025-09-10T11:49:33Z</time>
      </trkpt>
      <trkpt lat="45.80665" lon="4.4958">
        <ele>777.4</ele>
        <time>2025-09-10T11:49:34Z</time>
      </trkpt>
      <trkpt lat="45.80664" lon="4.49581">
        <ele>777.8</ele>
        <time>2025-09-10T11:49:35Z</time>
      </trkpt>
      <trkpt lat="45.80663" lon="4.49581">
        <ele>777.8</ele>
        <time>2025-09-10T11:49:36Z</time>
      </trkpt>
      <trkpt lat="45.80663" lon="4.49582">
        <ele>777.8</ele>
        <time>2025-09-10T11:49:37Z</time>
      </trkpt>
      <trkpt lat="45.80662" lon="4.49582">
        <ele>777.8</ele>
        <time>2025-09-10T11:49:38Z</time>
      </trkpt>
      <trkpt lat="45.80662" lon="4.49583">
        <ele>777.8</ele>
        <time>2025-09-10T11:49:39Z</time>
      </trkpt>
      <trkpt lat="45.80662" lon="4.49583">
        <ele>777.8</ele>
        <time>2025-09-10T11:49:40Z</time>
      </trkpt>
      <trkpt lat="45.80662" lon="4.49583">
        <ele>778</ele>
        <time>2025-09-10T11:49:49Z</time>
      </trkpt>
      <trkpt lat="45.8066" lon="4.49584">
        <ele>778</ele>
        <time>2025-09-10T11:49:50Z</time>
      </trkpt>
      <trkpt lat="45.80659" lon="4.49584">
        <ele>778</ele>
        <time>2025-09-10T11:49:51Z</time>
      </trkpt>
      <trkpt lat="45.80658" lon="4.49585">
        <ele>778</ele>
        <time>2025-09-10T11:49:52Z</time>
      </trkpt>
      <trkpt lat="45.80657" lon="4.49587">
        <ele>778</ele>
        <time>2025-09-10T11:49:53Z</time>
      </trkpt>
      <trkpt lat="45.80655" lon="4.49589">
        <ele>778.2</ele>
        <time>2025-09-10T11:49:54Z</time>
      </trkpt>
      <trkpt lat="45.80654" lon="4.4959">
        <ele>778.2</ele>
        <time>2025-09-10T11:49:55Z</time>
      </trkpt>
      <trkpt lat="45.80653" lon="4.49591">
        <ele>778.6</ele>
        <time>2025-09-10T11:49:56Z</time>
      </trkpt>
      <trkpt lat="45.80652" lon="4.49592">
        <ele>778.6</ele>
        <time>2025-09-10T11:49:57Z</time>
      </trkpt>
      <trkpt lat="45.80651" lon="4.49594">
        <ele>778.8</ele>
        <time>2025-09-10T11:49:58Z</time>
      </trkpt>
      <trkpt lat="45.80649" lon="4.49595">
        <ele>778.8</ele>
        <time>2025-09-10T11:49:59Z</time>
      </trkpt>
      <trkpt lat="45.80648" lon="4.49597">
        <ele>779</ele>
        <time>2025-09-10T11:50:00Z</time>
      </trkpt>
      <trkpt lat="45.80647" lon="4.49599">
        <ele>779</ele>
        <time>2025-09-10T11:50:01Z</time>
      </trkpt>
      <trkpt lat="45.80645" lon="4.49602">
        <ele>779.2</ele>
        <time>2025-09-10T11:50:02Z</time>
      </trkpt>
      <trkpt lat="45.80644" lon="4.49605">
        <ele>779.2</ele>
        <time>2025-09-10T11:50:03Z</time>
      </trkpt>
      <trkpt lat="45.80643" lon="4.49608">
        <ele>779.2</ele>
        <time>2025-09-10T11:50:04Z</time>
      </trkpt>
      <trkpt lat="45.80642" lon="4.49609">
        <ele>779.6</ele>
        <time>2025-09-10T11:50:05Z</time>
      </trkpt>
      <trkpt lat="45.80642" lon="4.4961">
        <ele>779.8</ele>
        <time>2025-09-10T11:50:06Z</time>
      </trkpt>
      <trkpt lat="45.80641" lon="4.49611">
        <ele>780</ele>
        <time>2025-09-10T11:50:07Z</time>
      </trkpt>
      <trkpt lat="45.8064" lon="4.49612">
        <ele>780.2</ele>
        <time>2025-09-10T11:50:08Z</time>
      </trkpt>
      <trkpt lat="45.80639" lon="4.49613">
        <ele>780.2</ele>
        <time>2025-09-10T11:50:09Z</time>
      </trkpt>
      <trkpt lat="45.80638" lon="4.49614">
        <ele>780.8</ele>
        <time>2025-09-10T11:50:10Z</time>
      </trkpt>
      <trkpt lat="45.80637" lon="4.49615">
        <ele>781</ele>
        <time>2025-09-10T11:50:11Z</time>
      </trkpt>
      <trkpt lat="45.80636" lon="4.49615">
        <ele>781</ele>
        <time>2025-09-10T11:50:12Z</time>
      </trkpt>
      <trkpt lat="45.80634" lon="4.49615">
        <ele>781.2</ele>
        <time>2025-09-10T11:50:13Z</time>
      </trkpt>
      <trkpt lat="45.80633" lon="4.49616">
        <ele>781.2</ele>
        <time>2025-09-10T11:50:14Z</time>
      </trkpt>
      <trkpt lat="45.80632" lon="4.49616">
        <ele>781.6</ele>
        <time>2025-09-10T11:50:15Z</time>
      </trkpt>
      <trkpt lat="45.80631" lon="4.49617">
        <ele>781.6</ele>
        <time>2025-09-10T11:50:16Z</time>
      </trkpt>
      <trkpt lat="45.8063" lon="4.49619">
        <ele>782</ele>
        <time>2025-09-10T11:50:17Z</time>
      </trkpt>
      <trkpt lat="45.80628" lon="4.4962">
        <ele>782</ele>
        <time>2025-09-10T11:50:18Z</time>
      </trkpt>
      <trkpt lat="45.80627" lon="4.4962">
        <ele>782.2</ele>
        <time>2025-09-10T11:50:19Z</time>
      </trkpt>
      <trkpt lat="45.80626" lon="4.49621">
        <ele>782.2</ele>
        <time>2025-09-10T11:50:20Z</time>
      </trkpt>
      <trkpt lat="45.80625" lon="4.49621">
        <ele>782.2</ele>
        <time>2025-09-10T11:50:21Z</time>
      </trkpt>
      <trkpt lat="45.80624" lon="4.49623">
        <ele>782.2</ele>
        <time>2025-09-10T11:50:22Z</time>
      </trkpt>
      <trkpt lat="45.80623" lon="4.49624">
        <ele>782.6</ele>
        <time>2025-09-10T11:50:23Z</time>
      </trkpt>
      <trkpt lat="45.80621" lon="4.49625">
        <ele>782.6</ele>
        <time>2025-09-10T11:50:24Z</time>
      </trkpt>
      <trkpt lat="45.8062" lon="4.49626">
        <ele>782.8</ele>
        <time>2025-09-10T11:50:25Z</time>
      </trkpt>
      <trkpt lat="45.80618" lon="4.49628">
        <ele>782.8</ele>
        <time>2025-09-10T11:50:26Z</time>
      </trkpt>
      <trkpt lat="45.80617" lon="4.49631">
        <ele>783.2</ele>
        <time>2025-09-10T11:50:27Z</time>
      </trkpt>
      <trkpt lat="45.80616" lon="4.49633">
        <ele>783.6</ele>
        <time>2025-09-10T11:50:28Z</time>
      </trkpt>
      <trkpt lat="45.80615" lon="4.49634">
        <ele>783.6</ele>
        <time>2025-09-10T11:50:29Z</time>
      </trkpt>
      <trkpt lat="45.80614" lon="4.49634">
        <ele>783.6</ele>
        <time>2025-09-10T11:50:30Z</time>
      </trkpt>
      <trkpt lat="45.80614" lon="4.49634">
        <ele>784</ele>
        <time>2025-09-10T11:50:31Z</time>
      </trkpt>
      <trkpt lat="45.80613" lon="4.49635">
        <ele>784</ele>
        <time>2025-09-10T11:50:32Z</time>
      </trkpt>
      <trkpt lat="45.80612" lon="4.49635">
        <ele>784.4</ele>
        <time>2025-09-10T11:50:33Z</time>
      </trkpt>
      <trkpt lat="45.80611" lon="4.49636">
        <ele>784.4</ele>
        <time>2025-09-10T11:50:34Z</time>
      </trkpt>
      <trkpt lat="45.8061" lon="4.49637">
        <ele>784.6</ele>
        <time>2025-09-10T11:50:35Z</time>
      </trkpt>
      <trkpt lat="45.80609" lon="4.49638">
        <ele>784.6</ele>
        <time>2025-09-10T11:50:36Z</time>
      </trkpt>
      <trkpt lat="45.80608" lon="4.4964">
        <ele>785</ele>
        <time>2025-09-10T11:50:37Z</time>
      </trkpt>
      <trkpt lat="45.80607" lon="4.49642">
        <ele>785</ele>
        <time>2025-09-10T11:50:38Z</time>
      </trkpt>
      <trkpt lat="45.80606" lon="4.49644">
        <ele>785</ele>
        <time>2025-09-10T11:50:39Z</time>
      </trkpt>
      <trkpt lat="45.80604" lon="4.49646">
        <ele>785.2</ele>
        <time>2025-09-10T11:50:40Z</time>
      </trkpt>
      <trkpt lat="45.80603" lon="4.49648">
        <ele>785.2</ele>
        <time>2025-09-10T11:50:41Z</time>
      </trkpt>
      <trkpt lat="45.80602" lon="4.4965">
        <ele>785.2</ele>
        <time>2025-09-10T11:50:42Z</time>
      </trkpt>
      <trkpt lat="45.80601" lon="4.49653">
        <ele>785.2</ele>
        <time>2025-09-10T11:50:43Z</time>
      </trkpt>
      <trkpt lat="45.806" lon="4.49655">
        <ele>785.2</ele>
        <time>2025-09-10T11:50:44Z</time>
      </trkpt>
      <trkpt lat="45.80598" lon="4.49657">
        <ele>785.2</ele>
        <time>2025-09-10T11:50:45Z</time>
      </trkpt>
      <trkpt lat="45.80597" lon="4.49659">
        <ele>785.4</ele>
        <time>2025-09-10T11:50:46Z</time>
      </trkpt>
      <trkpt lat="45.80597" lon="4.49661">
        <ele>785.4</ele>
        <time>2025-09-10T11:50:47Z</time>
      </trkpt>
      <trkpt lat="45.80596" lon="4.49663">
        <ele>785.4</ele>
        <time>2025-09-10T11:50:48Z</time>
      </trkpt>
      <trkpt lat="45.80596" lon="4.49666">
        <ele>785.4</ele>
        <time>2025-09-10T11:50:49Z</time>
      </trkpt>
      <trkpt lat="45.80595" lon="4.49668">
        <ele>785.8</ele>
        <time>2025-09-10T11:50:50Z</time>
      </trkpt>
      <trkpt lat="45.80594" lon="4.4967">
        <ele>785.8</ele>
        <time>2025-09-10T11:50:51Z</time>
      </trkpt>
      <trkpt lat="45.80594" lon="4.49672">
        <ele>786.2</ele>
        <time>2025-09-10T11:50:52Z</time>
      </trkpt>
      <trkpt lat="45.80593" lon="4.49675">
        <ele>786.2</ele>
        <time>2025-09-10T11:50:53Z</time>
      </trkpt>
      <trkpt lat="45.80592" lon="4.49677">
        <ele>785.6</ele>
        <time>2025-09-10T11:50:54Z</time>
      </trkpt>
      <trkpt lat="45.80591" lon="4.49679">
        <ele>785.6</ele>
        <time>2025-09-10T11:50:55Z</time>
      </trkpt>
      <trkpt lat="45.8059" lon="4.49681">
        <ele>785.6</ele>
        <time>2025-09-10T11:50:56Z</time>
      </trkpt>
      <trkpt lat="45.80589" lon="4.49683">
        <ele>785.6</ele>
        <time>2025-09-10T11:50:57Z</time>
      </trkpt>
      <trkpt lat="45.80588" lon="4.49684">
        <ele>785.6</ele>
        <time>2025-09-10T11:50:58Z</time>
      </trkpt>
      <trkpt lat="45.80586" lon="4.49685">
        <ele>786</ele>
        <time>2025-09-10T11:50:59Z</time>
      </trkpt>
      <trkpt lat="45.80584" lon="4.49687">
        <ele>786</ele>
        <time>2025-09-10T11:51:00Z</time>
      </trkpt>
      <trkpt lat="45.80583" lon="4.49688">
        <ele>786</ele>
        <time>2025-09-10T11:51:01Z</time>
      </trkpt>
      <trkpt lat="45.80582" lon="4.4969">
        <ele>786.2</ele>
        <time>2025-09-10T11:51:02Z</time>
      </trkpt>
      <trkpt lat="45.80581" lon="4.49691">
        <ele>786.2</ele>
        <time>2025-09-10T11:51:03Z</time>
      </trkpt>
      <trkpt lat="45.8058" lon="4.49692">
        <ele>786.2</ele>
        <time>2025-09-10T11:51:04Z</time>
      </trkpt>
      <trkpt lat="45.80579" lon="4.49694">
        <ele>786.2</ele>
        <time>2025-09-10T11:51:05Z</time>
      </trkpt>
      <trkpt lat="45.80577" lon="4.49696">
        <ele>786.6</ele>
        <time>2025-09-10T11:51:06Z</time>
      </trkpt>
      <trkpt lat="45.80575" lon="4.49697">
        <ele>786.6</ele>
        <time>2025-09-10T11:51:07Z</time>
      </trkpt>
      <trkpt lat="45.80574" lon="4.49698">
        <ele>786.6</ele>
        <time>2025-09-10T11:51:08Z</time>
      </trkpt>
      <trkpt lat="45.80572" lon="4.49698">
        <ele>786.6</ele>
        <time>2025-09-10T11:51:09Z</time>
      </trkpt>
      <trkpt lat="45.8057" lon="4.49699">
        <ele>786.6</ele>
        <time>2025-09-10T11:51:10Z</time>
      </trkpt>
      <trkpt lat="45.80569" lon="4.49701">
        <ele>786.6</ele>
        <time>2025-09-10T11:51:11Z</time>
      </trkpt>
      <trkpt lat="45.80568" lon="4.49702">
        <ele>786.8</ele>
        <time>2025-09-10T11:51:12Z</time>
      </trkpt>
      <trkpt lat="45.80568" lon="4.49702">
        <ele>786.8</ele>
        <time>2025-09-10T11:51:13Z</time>
      </trkpt>
      <trkpt lat="45.80569" lon="4.49703">
        <ele>786.4</ele>
        <time>2025-09-10T11:51:14Z</time>
      </trkpt>
      <trkpt lat="45.80569" lon="4.49703">
        <ele>787</ele>
        <time>2025-09-10T11:51:18Z</time>
      </trkpt>
      <trkpt lat="45.80569" lon="4.49704">
        <ele>786.4</ele>
        <time>2025-09-10T11:51:19Z</time>
      </trkpt>
      <trkpt lat="45.80568" lon="4.49704">
        <ele>786.2</ele>
        <time>2025-09-10T11:51:20Z</time>
      </trkpt>
      <trkpt lat="45.80568" lon="4.49704">
        <ele>785.6</ele>
        <time>2025-09-10T11:51:21Z</time>
      </trkpt>
      <trkpt lat="45.80567" lon="4.49704">
        <ele>785.6</ele>
        <time>2025-09-10T11:51:22Z</time>
      </trkpt>
      <trkpt lat="45.80567" lon="4.49704">
        <ele>785.6</ele>
        <time>2025-09-10T11:51:23Z</time>
      </trkpt>
      <trkpt lat="45.80566" lon="4.49705">
        <ele>785.8</ele>
        <time>2025-09-10T11:51:24Z</time>
      </trkpt>
      <trkpt lat="45.80563" lon="4.49706">
        <ele>785.8</ele>
        <time>2025-09-10T11:51:25Z</time>
      </trkpt>
      <trkpt lat="45.8056" lon="4.49707">
        <ele>785.8</ele>
        <time>2025-09-10T11:51:26Z</time>
      </trkpt>
      <trkpt lat="45.80557" lon="4.49707">
        <ele>785.4</ele>
        <time>2025-09-10T11:51:27Z</time>
      </trkpt>
      <trkpt lat="45.80554" lon="4.49708">
        <ele>785</ele>
        <time>2025-09-10T11:51:28Z</time>
      </trkpt>
      <trkpt lat="45.8055" lon="4.49708">
        <ele>785</ele>
        <time>2025-09-10T11:51:29Z</time>
      </trkpt>
      <trkpt lat="45.80546" lon="4.49709">
        <ele>784.8</ele>
        <time>2025-09-10T11:51:30Z</time>
      </trkpt>
      <trkpt lat="45.80544" lon="4.4971">
        <ele>784.6</ele>
        <time>2025-09-10T11:51:31Z</time>
      </trkpt>
      <trkpt lat="45.80541" lon="4.49711">
        <ele>784.4</ele>
        <time>2025-09-10T11:51:32Z</time>
      </trkpt>
      <trkpt lat="45.80539" lon="4.49713">
        <ele>784</ele>
        <time>2025-09-10T11:51:33Z</time>
      </trkpt>
      <trkpt lat="45.80537" lon="4.49715">
        <ele>783.6</ele>
        <time>2025-09-10T11:51:34Z</time>
      </trkpt>
      <trkpt lat="45.80535" lon="4.49718">
        <ele>783.4</ele>
        <time>2025-09-10T11:51:35Z</time>
      </trkpt>
      <trkpt lat="45.80533" lon="4.4972">
        <ele>783</ele>
        <time>2025-09-10T11:51:36Z</time>
      </trkpt>
      <trkpt lat="45.80532" lon="4.49723">
        <ele>782.8</ele>
        <time>2025-09-10T11:51:37Z</time>
      </trkpt>
      <trkpt lat="45.80531" lon="4.49725">
        <ele>782.4</ele>
        <time>2025-09-10T11:51:38Z</time>
      </trkpt>
      <trkpt lat="45.8053" lon="4.49726">
        <ele>782.2</ele>
        <time>2025-09-10T11:51:39Z</time>
      </trkpt>
      <trkpt lat="45.8053" lon="4.49729">
        <ele>782.2</ele>
        <time>2025-09-10T11:51:40Z</time>
      </trkpt>
      <trkpt lat="45.80531" lon="4.49732">
        <ele>781.8</ele>
        <time>2025-09-10T11:51:41Z</time>
      </trkpt>
      <trkpt lat="45.80532" lon="4.49734">
        <ele>781.8</ele>
        <time>2025-09-10T11:51:42Z</time>
      </trkpt>
      <trkpt lat="45.80533" lon="4.49736">
        <ele>781.8</ele>
        <time>2025-09-10T11:51:43Z</time>
      </trkpt>
      <trkpt lat="45.80534" lon="4.49738">
        <ele>781.8</ele>
        <time>2025-09-10T11:51:44Z</time>
      </trkpt>
      <trkpt lat="45.80535" lon="4.4974">
        <ele>781.8</ele>
        <time>2025-09-10T11:51:45Z</time>
      </trkpt>
      <trkpt lat="45.80536" lon="4.49742">
        <ele>781.8</ele>
        <time>2025-09-10T11:51:46Z</time>
      </trkpt>
      <trkpt lat="45.80537" lon="4.49745">
        <ele>781.8</ele>
        <time>2025-09-10T11:51:47Z</time>
      </trkpt>
      <trkpt lat="45.80539" lon="4.49746">
        <ele>782.2</ele>
        <time>2025-09-10T11:51:48Z</time>
      </trkpt>
      <trkpt lat="45.8054" lon="4.49748">
        <ele>782.2</ele>
        <time>2025-09-10T11:51:49Z</time>
      </trkpt>
      <trkpt lat="45.80541" lon="4.49749">
        <ele>782.2</ele>
        <time>2025-09-10T11:51:50Z</time>
      </trkpt>
      <trkpt lat="45.80543" lon="4.49751">
        <ele>782.4</ele>
        <time>2025-09-10T11:51:51Z</time>
      </trkpt>
      <trkpt lat="45.80544" lon="4.49752">
        <ele>782.6</ele>
        <time>2025-09-10T11:51:52Z</time>
      </trkpt>
      <trkpt lat="45.80545" lon="4.49754">
        <ele>782.8</ele>
        <time>2025-09-10T11:51:53Z</time>
      </trkpt>
      <trkpt lat="45.80545" lon="4.49756">
        <ele>782.8</ele>
        <time>2025-09-10T11:51:54Z</time>
      </trkpt>
      <trkpt lat="45.80546" lon="4.49758">
        <ele>783.2</ele>
        <time>2025-09-10T11:51:55Z</time>
      </trkpt>
      <trkpt lat="45.80547" lon="4.4976">
        <ele>783.4</ele>
        <time>2025-09-10T11:51:56Z</time>
      </trkpt>
      <trkpt lat="45.80549" lon="4.49762">
        <ele>783.4</ele>
        <time>2025-09-10T11:51:57Z</time>
      </trkpt>
      <trkpt lat="45.8055" lon="4.49764">
        <ele>783.6</ele>
        <time>2025-09-10T11:51:58Z</time>
      </trkpt>
      <trkpt lat="45.80551" lon="4.49765">
        <ele>783.6</ele>
        <time>2025-09-10T11:51:59Z</time>
      </trkpt>
      <trkpt lat="45.80552" lon="4.49768">
        <ele>783.6</ele>
        <time>2025-09-10T11:52:00Z</time>
      </trkpt>
      <trkpt lat="45.80553" lon="4.4977">
        <ele>783.8</ele>
        <time>2025-09-10T11:52:01Z</time>
      </trkpt>
      <trkpt lat="45.80554" lon="4.49772">
        <ele>783.8</ele>
        <time>2025-09-10T11:52:02Z</time>
      </trkpt>
      <trkpt lat="45.80554" lon="4.49774">
        <ele>784.2</ele>
        <time>2025-09-10T11:52:03Z</time>
      </trkpt>
      <trkpt lat="45.80554" lon="4.49774">
        <ele>784.2</ele>
        <time>2025-09-10T11:52:04Z</time>
      </trkpt>
      <trkpt lat="45.80554" lon="4.49774">
        <ele>784.4</ele>
        <time>2025-09-10T11:52:05Z</time>
      </trkpt>
      <trkpt lat="45.80561" lon="4.49782">
        <ele>785</ele>
        <time>2025-09-10T11:52:08Z</time>
      </trkpt>
      <trkpt lat="45.80561" lon="4.49784">
        <ele>785.4</ele>
        <time>2025-09-10T11:52:09Z</time>
      </trkpt>
      <trkpt lat="45.80562" lon="4.49786">
        <ele>785.4</ele>
        <time>2025-09-10T11:52:10Z</time>
      </trkpt>
      <trkpt lat="45.80563" lon="4.49788">
        <ele>785.6</ele>
        <time>2025-09-10T11:52:11Z</time>
      </trkpt>
      <trkpt lat="45.80564" lon="4.4979">
        <ele>786</ele>
        <time>2025-09-10T11:52:12Z</time>
      </trkpt>
      <trkpt lat="45.80565" lon="4.49792">
        <ele>786</ele>
        <time>2025-09-10T11:52:13Z</time>
      </trkpt>
      <trkpt lat="45.80566" lon="4.49793">
        <ele>786.2</ele>
        <time>2025-09-10T11:52:14Z</time>
      </trkpt>
      <trkpt lat="45.80567" lon="4.49796">
        <ele>786.2</ele>
        <time>2025-09-10T11:52:15Z</time>
      </trkpt>
      <trkpt lat="45.80567" lon="4.49799">
        <ele>786.6</ele>
        <time>2025-09-10T11:52:16Z</time>
      </trkpt>
      <trkpt lat="45.80567" lon="4.49801">
        <ele>787</ele>
        <time>2025-09-10T11:52:17Z</time>
      </trkpt>
      <trkpt lat="45.80567" lon="4.49803">
        <ele>787</ele>
        <time>2025-09-10T11:52:18Z</time>
      </trkpt>
      <trkpt lat="45.80567" lon="4.49806">
        <ele>787</ele>
        <time>2025-09-10T11:52:19Z</time>
      </trkpt>
      <trkpt lat="45.80567" lon="4.49809">
        <ele>787</ele>
        <time>2025-09-10T11:52:20Z</time>
      </trkpt>
      <trkpt lat="45.80567" lon="4.49811">
        <ele>787</ele>
        <time>2025-09-10T11:52:21Z</time>
      </trkpt>
      <trkpt lat="45.80567" lon="4.49814">
        <ele>787</ele>
        <time>2025-09-10T11:52:22Z</time>
      </trkpt>
      <trkpt lat="45.80567" lon="4.49816">
        <ele>787</ele>
        <time>2025-09-10T11:52:23Z</time>
      </trkpt>
      <trkpt lat="45.80567" lon="4.49819">
        <ele>787</ele>
        <time>2025-09-10T11:52:24Z</time>
      </trkpt>
      <trkpt lat="45.80567" lon="4.49821">
        <ele>787</ele>
        <time>2025-09-10T11:52:25Z</time>
      </trkpt>
      <trkpt lat="45.80567" lon="4.49824">
        <ele>787</ele>
        <time>2025-09-10T11:52:26Z</time>
      </trkpt>
      <trkpt lat="45.80567" lon="4.49827">
        <ele>787</ele>
        <time>2025-09-10T11:52:27Z</time>
      </trkpt>
      <trkpt lat="45.80567" lon="4.4983">
        <ele>787</ele>
        <time>2025-09-10T11:52:28Z</time>
      </trkpt>
      <trkpt lat="45.80567" lon="4.49832">
        <ele>787</ele>
        <time>2025-09-10T11:52:29Z</time>
      </trkpt>
      <trkpt lat="45.80568" lon="4.49833">
        <ele>787</ele>
        <time>2025-09-10T11:52:30Z</time>
      </trkpt>
      <trkpt lat="45.8057" lon="4.49836">
        <ele>787</ele>
        <time>2025-09-10T11:52:31Z</time>
      </trkpt>
      <trkpt lat="45.80571" lon="4.49839">
        <ele>787</ele>
        <time>2025-09-10T11:52:32Z</time>
      </trkpt>
      <trkpt lat="45.80572" lon="4.49841">
        <ele>787</ele>
        <time>2025-09-10T11:52:33Z</time>
      </trkpt>
      <trkpt lat="45.80573" lon="4.49843">
        <ele>787</ele>
        <time>2025-09-10T11:52:34Z</time>
      </trkpt>
      <trkpt lat="45.80575" lon="4.49845">
        <ele>787.2</ele>
        <time>2025-09-10T11:52:35Z</time>
      </trkpt>
      <trkpt lat="45.80577" lon="4.49846">
        <ele>787.6</ele>
        <time>2025-09-10T11:52:36Z</time>
      </trkpt>
      <trkpt lat="45.80579" lon="4.49847">
        <ele>787.6</ele>
        <time>2025-09-10T11:52:37Z</time>
      </trkpt>
      <trkpt lat="45.8058" lon="4.49848">
        <ele>787.6</ele>
        <time>2025-09-10T11:52:38Z</time>
      </trkpt>
      <trkpt lat="45.80581" lon="4.49849">
        <ele>787.8</ele>
        <time>2025-09-10T11:52:39Z</time>
      </trkpt>
      <trkpt lat="45.80583" lon="4.49851">
        <ele>787.8</ele>
        <time>2025-09-10T11:52:40Z</time>
      </trkpt>
      <trkpt lat="45.80584" lon="4.49853">
        <ele>788.2</ele>
        <time>2025-09-10T11:52:41Z</time>
      </trkpt>
      <trkpt lat="45.80585" lon="4.49856">
        <ele>788.2</ele>
        <time>2025-09-10T11:52:42Z</time>
      </trkpt>
      <trkpt lat="45.80586" lon="4.49858">
        <ele>788.2</ele>
        <time>2025-09-10T11:52:43Z</time>
      </trkpt>
      <trkpt lat="45.80587" lon="4.4986">
        <ele>788.4</ele>
        <time>2025-09-10T11:52:44Z</time>
      </trkpt>
      <trkpt lat="45.80588" lon="4.49862">
        <ele>788.4</ele>
        <time>2025-09-10T11:52:45Z</time>
      </trkpt>
      <trkpt lat="45.80589" lon="4.49865">
        <ele>788.6</ele>
        <time>2025-09-10T11:52:46Z</time>
      </trkpt>
      <trkpt lat="45.8059" lon="4.49868">
        <ele>788.6</ele>
        <time>2025-09-10T11:52:47Z</time>
      </trkpt>
      <trkpt lat="45.8059" lon="4.49872">
        <ele>788.6</ele>
        <time>2025-09-10T11:52:48Z</time>
      </trkpt>
      <trkpt lat="45.80591" lon="4.49875">
        <ele>788.6</ele>
        <time>2025-09-10T11:52:49Z</time>
      </trkpt>
      <trkpt lat="45.80592" lon="4.49878">
        <ele>788.6</ele>
        <time>2025-09-10T11:52:50Z</time>
      </trkpt>
      <trkpt lat="45.80592" lon="4.49881">
        <ele>788.6</ele>
        <time>2025-09-10T11:52:51Z</time>
      </trkpt>
      <trkpt lat="45.80593" lon="4.49885">
        <ele>788.8</ele>
        <time>2025-09-10T11:52:52Z</time>
      </trkpt>
      <trkpt lat="45.80594" lon="4.49889">
        <ele>788.8</ele>
        <time>2025-09-10T11:52:53Z</time>
      </trkpt>
      <trkpt lat="45.80595" lon="4.49893">
        <ele>788.8</ele>
        <time>2025-09-10T11:52:54Z</time>
      </trkpt>
      <trkpt lat="45.80596" lon="4.49897">
        <ele>788.8</ele>
        <time>2025-09-10T11:52:55Z</time>
      </trkpt>
      <trkpt lat="45.80596" lon="4.499">
        <ele>788.8</ele>
        <time>2025-09-10T11:52:56Z</time>
      </trkpt>
      <trkpt lat="45.80597" lon="4.49902">
        <ele>789.2</ele>
        <time>2025-09-10T11:52:57Z</time>
      </trkpt>
      <trkpt lat="45.80597" lon="4.49903">
        <ele>789.2</ele>
        <time>2025-09-10T11:52:58Z</time>
      </trkpt>
      <trkpt lat="45.80597" lon="4.49903">
        <ele>789.2</ele>
        <time>2025-09-10T11:52:59Z</time>
      </trkpt>
      <trkpt lat="45.80596" lon="4.49905">
        <ele>788.6</ele>
        <time>2025-09-10T11:54:02Z</time>
      </trkpt>
      <trkpt lat="45.80596" lon="4.49906">
        <ele>788.6</ele>
        <time>2025-09-10T11:54:03Z</time>
      </trkpt>
      <trkpt lat="45.80597" lon="4.49908">
        <ele>788.6</ele>
        <time>2025-09-10T11:54:04Z</time>
      </trkpt>
      <trkpt lat="45.80597" lon="4.49911">
        <ele>788.6</ele>
        <time>2025-09-10T11:54:05Z</time>
      </trkpt>
      <trkpt lat="45.80597" lon="4.49913">
        <ele>788.2</ele>
        <time>2025-09-10T11:54:06Z</time>
      </trkpt>
      <trkpt lat="45.80598" lon="4.49914">
        <ele>788.2</ele>
        <time>2025-09-10T11:54:07Z</time>
      </trkpt>
      <trkpt lat="45.80599" lon="4.49915">
        <ele>788.2</ele>
        <time>2025-09-10T11:54:08Z</time>
      </trkpt>
      <trkpt lat="45.806" lon="4.49917">
        <ele>788.4</ele>
        <time>2025-09-10T11:54:09Z</time>
      </trkpt>
      <trkpt lat="45.806" lon="4.49919">
        <ele>788.8</ele>
        <time>2025-09-10T11:54:10Z</time>
      </trkpt>
      <trkpt lat="45.80601" lon="4.49922">
        <ele>789</ele>
        <time>2025-09-10T11:54:11Z</time>
      </trkpt>
      <trkpt lat="45.80601" lon="4.49925">
        <ele>789</ele>
        <time>2025-09-10T11:54:12Z</time>
      </trkpt>
      <trkpt lat="45.80601" lon="4.49927">
        <ele>789.2</ele>
        <time>2025-09-10T11:54:13Z</time>
      </trkpt>
      <trkpt lat="45.80602" lon="4.49929">
        <ele>789.6</ele>
        <time>2025-09-10T11:54:14Z</time>
      </trkpt>
      <trkpt lat="45.80602" lon="4.49932">
        <ele>789.6</ele>
        <time>2025-09-10T11:54:15Z</time>
      </trkpt>
      <trkpt lat="45.80602" lon="4.49934">
        <ele>789.8</ele>
        <time>2025-09-10T11:54:16Z</time>
      </trkpt>
      <trkpt lat="45.80602" lon="4.49936">
        <ele>790.2</ele>
        <time>2025-09-10T11:54:17Z</time>
      </trkpt>
      <trkpt lat="45.80602" lon="4.49939">
        <ele>790.2</ele>
        <time>2025-09-10T11:54:18Z</time>
      </trkpt>
      <trkpt lat="45.80602" lon="4.49942">
        <ele>790.2</ele>
        <time>2025-09-10T11:54:19Z</time>
      </trkpt>
      <trkpt lat="45.80602" lon="4.49947">
        <ele>790.2</ele>
        <time>2025-09-10T11:54:20Z</time>
      </trkpt>
      <trkpt lat="45.80602" lon="4.4995">
        <ele>790.2</ele>
        <time>2025-09-10T11:54:21Z</time>
      </trkpt>
      <trkpt lat="45.80602" lon="4.49952">
        <ele>790.4</ele>
        <time>2025-09-10T11:54:22Z</time>
      </trkpt>
      <trkpt lat="45.80602" lon="4.49953">
        <ele>790.4</ele>
        <time>2025-09-10T11:54:23Z</time>
      </trkpt>
      <trkpt lat="45.80602" lon="4.49955">
        <ele>790.8</ele>
        <time>2025-09-10T11:54:24Z</time>
      </trkpt>
      <trkpt lat="45.80602" lon="4.49957">
        <ele>790.8</ele>
        <time>2025-09-10T11:54:25Z</time>
      </trkpt>
      <trkpt lat="45.80602" lon="4.49958">
        <ele>791.2</ele>
        <time>2025-09-10T11:54:26Z</time>
      </trkpt>
      <trkpt lat="45.80602" lon="4.4996">
        <ele>791.2</ele>
        <time>2025-09-10T11:54:27Z</time>
      </trkpt>
      <trkpt lat="45.80602" lon="4.49961">
        <ele>791.6</ele>
        <time>2025-09-10T11:54:28Z</time>
      </trkpt>
      <trkpt lat="45.80602" lon="4.49964">
        <ele>791.6</ele>
        <time>2025-09-10T11:54:29Z</time>
      </trkpt>
      <trkpt lat="45.80603" lon="4.49968">
        <ele>791.8</ele>
        <time>2025-09-10T11:54:30Z</time>
      </trkpt>
      <trkpt lat="45.80603" lon="4.49971">
        <ele>791.8</ele>
        <time>2025-09-10T11:54:31Z</time>
      </trkpt>
      <trkpt lat="45.80604" lon="4.49974">
        <ele>791.8</ele>
        <time>2025-09-10T11:54:32Z</time>
      </trkpt>
      <trkpt lat="45.80604" lon="4.49977">
        <ele>791.8</ele>
        <time>2025-09-10T11:54:33Z</time>
      </trkpt>
      <trkpt lat="45.80605" lon="4.4998">
        <ele>791.8</ele>
        <time>2025-09-10T11:54:34Z</time>
      </trkpt>
      <trkpt lat="45.80605" lon="4.49982">
        <ele>792</ele>
        <time>2025-09-10T11:54:35Z</time>
      </trkpt>
      <trkpt lat="45.80606" lon="4.49985">
        <ele>792</ele>
        <time>2025-09-10T11:54:36Z</time>
      </trkpt>
      <trkpt lat="45.80606" lon="4.49987">
        <ele>792</ele>
        <time>2025-09-10T11:54:37Z</time>
      </trkpt>
      <trkpt lat="45.80606" lon="4.4999">
        <ele>792.2</ele>
        <time>2025-09-10T11:54:38Z</time>
      </trkpt>
      <trkpt lat="45.80606" lon="4.49992">
        <ele>792.2</ele>
        <time>2025-09-10T11:54:39Z</time>
      </trkpt>
      <trkpt lat="45.80607" lon="4.49995">
        <ele>792.2</ele>
        <time>2025-09-10T11:54:40Z</time>
      </trkpt>
      <trkpt lat="45.80608" lon="4.49998">
        <ele>792.2</ele>
        <time>2025-09-10T11:54:41Z</time>
      </trkpt>
      <trkpt lat="45.80608" lon="4.5">
        <ele>792.2</ele>
        <time>2025-09-10T11:54:42Z</time>
      </trkpt>
      <trkpt lat="45.80608" lon="4.50003">
        <ele>792.2</ele>
        <time>2025-09-10T11:54:43Z</time>
      </trkpt>
      <trkpt lat="45.80609" lon="4.50006">
        <ele>792.4</ele>
        <time>2025-09-10T11:54:44Z</time>
      </trkpt>
      <trkpt lat="45.80609" lon="4.50008">
        <ele>792.8</ele>
        <time>2025-09-10T11:54:45Z</time>
      </trkpt>
      <trkpt lat="45.8061" lon="4.5001">
        <ele>792.8</ele>
        <time>2025-09-10T11:54:46Z</time>
      </trkpt>
      <trkpt lat="45.8061" lon="4.50011">
        <ele>793.2</ele>
        <time>2025-09-10T11:54:47Z</time>
      </trkpt>
      <trkpt lat="45.80611" lon="4.50013">
        <ele>793.2</ele>
        <time>2025-09-10T11:54:48Z</time>
      </trkpt>
      <trkpt lat="45.80611" lon="4.50016">
        <ele>793.6</ele>
        <time>2025-09-10T11:54:49Z</time>
      </trkpt>
      <trkpt lat="45.80612" lon="4.50018">
        <ele>793.8</ele>
        <time>2025-09-10T11:54:50Z</time>
      </trkpt>
      <trkpt lat="45.80612" lon="4.5002">
        <ele>793.8</ele>
        <time>2025-09-10T11:54:51Z</time>
      </trkpt>
      <trkpt lat="45.80613" lon="4.50021">
        <ele>793.8</ele>
        <time>2025-09-10T11:54:52Z</time>
      </trkpt>
      <trkpt lat="45.80615" lon="4.50022">
        <ele>794</ele>
        <time>2025-09-10T11:54:53Z</time>
      </trkpt>
      <trkpt lat="45.80616" lon="4.50023">
        <ele>794.6</ele>
        <time>2025-09-10T11:54:54Z</time>
      </trkpt>
      <trkpt lat="45.80617" lon="4.50023">
        <ele>794.6</ele>
        <time>2025-09-10T11:54:55Z</time>
      </trkpt>
      <trkpt lat="45.80618" lon="4.50023">
        <ele>794.8</ele>
        <time>2025-09-10T11:54:56Z</time>
      </trkpt>
      <trkpt lat="45.80619" lon="4.50023">
        <ele>795.2</ele>
        <time>2025-09-10T11:54:57Z</time>
      </trkpt>
      <trkpt lat="45.80621" lon="4.50023">
        <ele>795.2</ele>
        <time>2025-09-10T11:54:58Z</time>
      </trkpt>
      <trkpt lat="45.80621" lon="4.50023">
        <ele>795.4</ele>
        <time>2025-09-10T11:54:59Z</time>
      </trkpt>
      <trkpt lat="45.80622" lon="4.50022">
        <ele>795.6</ele>
        <time>2025-09-10T11:55:00Z</time>
      </trkpt>
      <trkpt lat="45.80624" lon="4.50021">
        <ele>795.6</ele>
        <time>2025-09-10T11:55:01Z</time>
      </trkpt>
      <trkpt lat="45.80625" lon="4.5002">
        <ele>795.6</ele>
        <time>2025-09-10T11:55:02Z</time>
      </trkpt>
      <trkpt lat="45.80627" lon="4.50019">
        <ele>795.6</ele>
        <time>2025-09-10T11:55:03Z</time>
      </trkpt>
      <trkpt lat="45.80629" lon="4.50019">
        <ele>795.6</ele>
        <time>2025-09-10T11:55:04Z</time>
      </trkpt>
      <trkpt lat="45.8063" lon="4.50019">
        <ele>795.6</ele>
        <time>2025-09-10T11:55:05Z</time>
      </trkpt>
      <trkpt lat="45.80631" lon="4.50019">
        <ele>796</ele>
        <time>2025-09-10T11:55:06Z</time>
      </trkpt>
      <trkpt lat="45.80632" lon="4.50019">
        <ele>796.2</ele>
        <time>2025-09-10T11:55:07Z</time>
      </trkpt>
      <trkpt lat="45.80633" lon="4.50019">
        <ele>796.2</ele>
        <time>2025-09-10T11:55:08Z</time>
      </trkpt>
      <trkpt lat="45.80634" lon="4.50018">
        <ele>796.6</ele>
        <time>2025-09-10T11:55:09Z</time>
      </trkpt>
      <trkpt lat="45.80635" lon="4.50017">
        <ele>796.6</ele>
        <time>2025-09-10T11:55:10Z</time>
      </trkpt>
      <trkpt lat="45.80636" lon="4.50017">
        <ele>796.8</ele>
        <time>2025-09-10T11:55:11Z</time>
      </trkpt>
      <trkpt lat="45.80637" lon="4.50016">
        <ele>796.8</ele>
        <time>2025-09-10T11:55:12Z</time>
      </trkpt>
      <trkpt lat="45.80639" lon="4.50016">
        <ele>797</ele>
        <time>2025-09-10T11:55:13Z</time>
      </trkpt>
      <trkpt lat="45.8064" lon="4.50016">
        <ele>797.4</ele>
        <time>2025-09-10T11:55:14Z</time>
      </trkpt>
      <trkpt lat="45.80642" lon="4.50015">
        <ele>797.4</ele>
        <time>2025-09-10T11:55:15Z</time>
      </trkpt>
      <trkpt lat="45.80643" lon="4.50014">
        <ele>797.4</ele>
        <time>2025-09-10T11:55:16Z</time>
      </trkpt>
      <trkpt lat="45.80644" lon="4.50013">
        <ele>797</ele>
        <time>2025-09-10T11:55:17Z</time>
      </trkpt>
      <trkpt lat="45.80645" lon="4.50013">
        <ele>797.2</ele>
        <time>2025-09-10T11:55:18Z</time>
      </trkpt>
      <trkpt lat="45.80646" lon="4.50012">
        <ele>797.6</ele>
        <time>2025-09-10T11:55:19Z</time>
      </trkpt>
      <trkpt lat="45.80647" lon="4.50011">
        <ele>797.6</ele>
        <time>2025-09-10T11:55:20Z</time>
      </trkpt>
      <trkpt lat="45.80648" lon="4.5001">
        <ele>798</ele>
        <time>2025-09-10T11:55:21Z</time>
      </trkpt>
      <trkpt lat="45.80649" lon="4.50009">
        <ele>798.2</ele>
        <time>2025-09-10T11:55:22Z</time>
      </trkpt>
      <trkpt lat="45.8065" lon="4.50009">
        <ele>798.2</ele>
        <time>2025-09-10T11:55:23Z</time>
      </trkpt>
      <trkpt lat="45.80652" lon="4.50008">
        <ele>798.6</ele>
        <time>2025-09-10T11:55:24Z</time>
      </trkpt>
      <trkpt lat="45.80653" lon="4.50007">
        <ele>798.6</ele>
        <time>2025-09-10T11:55:25Z</time>
      </trkpt>
      <trkpt lat="45.80654" lon="4.50006">
        <ele>798.6</ele>
        <time>2025-09-10T11:55:26Z</time>
      </trkpt>
      <trkpt lat="45.80656" lon="4.50006">
        <ele>798.6</ele>
        <time>2025-09-10T11:55:27Z</time>
      </trkpt>
      <trkpt lat="45.80657" lon="4.50005">
        <ele>798.6</ele>
        <time>2025-09-10T11:55:28Z</time>
      </trkpt>
      <trkpt lat="45.80658" lon="4.50003">
        <ele>798.6</ele>
        <time>2025-09-10T11:55:29Z</time>
      </trkpt>
      <trkpt lat="45.80657" lon="4.50002">
        <ele>798.6</ele>
        <time>2025-09-10T11:55:30Z</time>
      </trkpt>
      <trkpt lat="45.80656" lon="4.50001">
        <ele>798.6</ele>
        <time>2025-09-10T11:55:31Z</time>
      </trkpt>
      <trkpt lat="45.80653" lon="4.50002">
        <ele>798.6</ele>
        <time>2025-09-10T11:55:32Z</time>
      </trkpt>
      <trkpt lat="45.80651" lon="4.50004">
        <ele>798.6</ele>
        <time>2025-09-10T11:55:33Z</time>
      </trkpt>
      <trkpt lat="45.80649" lon="4.50006">
        <ele>798.6</ele>
        <time>2025-09-10T11:55:34Z</time>
      </trkpt>
      <trkpt lat="45.80647" lon="4.50007">
        <ele>798.2</ele>
        <time>2025-09-10T11:55:35Z</time>
      </trkpt>
      <trkpt lat="45.80644" lon="4.50008">
        <ele>798.2</ele>
        <time>2025-09-10T11:55:36Z</time>
      </trkpt>
      <trkpt lat="45.80642" lon="4.5001">
        <ele>798</ele>
        <time>2025-09-10T11:55:37Z</time>
      </trkpt>
      <trkpt lat="45.8064" lon="4.50012">
        <ele>798</ele>
        <time>2025-09-10T11:55:38Z</time>
      </trkpt>
      <trkpt lat="45.80638" lon="4.50013">
        <ele>798</ele>
        <time>2025-09-10T11:55:39Z</time>
      </trkpt>
      <trkpt lat="45.80636" lon="4.50015">
        <ele>797</ele>
        <time>2025-09-10T11:55:40Z</time>
      </trkpt>
      <trkpt lat="45.80635" lon="4.50016">
        <ele>798.2</ele>
        <time>2025-09-10T11:55:41Z</time>
      </trkpt>
      <trkpt lat="45.80634" lon="4.50017">
        <ele>798.2</ele>
        <time>2025-09-10T11:55:42Z</time>
      </trkpt>
      <trkpt lat="45.80633" lon="4.50018">
        <ele>797.8</ele>
        <time>2025-09-10T11:55:43Z</time>
      </trkpt>
      <trkpt lat="45.80631" lon="4.50019">
        <ele>797.8</ele>
        <time>2025-09-10T11:55:44Z</time>
      </trkpt>
      <trkpt lat="45.80629" lon="4.5002">
        <ele>797.4</ele>
        <time>2025-09-10T11:55:45Z</time>
      </trkpt>
      <trkpt lat="45.80626" lon="4.5002">
        <ele>797</ele>
        <time>2025-09-10T11:55:46Z</time>
      </trkpt>
      <trkpt lat="45.80624" lon="4.50021">
        <ele>797</ele>
        <time>2025-09-10T11:55:47Z</time>
      </trkpt>
      <trkpt lat="45.80622" lon="4.50023">
        <ele>796.8</ele>
        <time>2025-09-10T11:55:48Z</time>
      </trkpt>
      <trkpt lat="45.8062" lon="4.50025">
        <ele>796.6</ele>
        <time>2025-09-10T11:55:49Z</time>
      </trkpt>
      <trkpt lat="45.80619" lon="4.50028">
        <ele>796</ele>
        <time>2025-09-10T11:55:50Z</time>
      </trkpt>
      <trkpt lat="45.80618" lon="4.50031">
        <ele>796</ele>
        <time>2025-09-10T11:55:51Z</time>
      </trkpt>
      <trkpt lat="45.80617" lon="4.50033">
        <ele>796</ele>
        <time>2025-09-10T11:55:52Z</time>
      </trkpt>
      <trkpt lat="45.80616" lon="4.50036">
        <ele>795.8</ele>
        <time>2025-09-10T11:55:53Z</time>
      </trkpt>
      <trkpt lat="45.80615" lon="4.50039">
        <ele>795.8</ele>
        <time>2025-09-10T11:55:54Z</time>
      </trkpt>
      <trkpt lat="45.80615" lon="4.50041">
        <ele>795.8</ele>
        <time>2025-09-10T11:55:55Z</time>
      </trkpt>
      <trkpt lat="45.80615" lon="4.50043">
        <ele>795.6</ele>
        <time>2025-09-10T11:55:56Z</time>
      </trkpt>
      <trkpt lat="45.80616" lon="4.50044">
        <ele>795.6</ele>
        <time>2025-09-10T11:55:57Z</time>
      </trkpt>
      <trkpt lat="45.80616" lon="4.50044">
        <ele>795.6</ele>
        <time>2025-09-10T11:55:58Z</time>
      </trkpt>
      <trkpt lat="45.80617" lon="4.50045">
        <ele>795.6</ele>
        <time>2025-09-10T11:56:21Z</time>
      </trkpt>
      <trkpt lat="45.80617" lon="4.50046">
        <ele>795.6</ele>
        <time>2025-09-10T11:56:22Z</time>
      </trkpt>
      <trkpt lat="45.80616" lon="4.50048">
        <ele>795.6</ele>
        <time>2025-09-10T11:56:23Z</time>
      </trkpt>
      <trkpt lat="45.80616" lon="4.5005">
        <ele>796</ele>
        <time>2025-09-10T11:56:24Z</time>
      </trkpt>
      <trkpt lat="45.80617" lon="4.50051">
        <ele>796</ele>
        <time>2025-09-10T11:56:25Z</time>
      </trkpt>
      <trkpt lat="45.80619" lon="4.50052">
        <ele>796</ele>
        <time>2025-09-10T11:56:26Z</time>
      </trkpt>
      <trkpt lat="45.80621" lon="4.50052">
        <ele>796</ele>
        <time>2025-09-10T11:56:27Z</time>
      </trkpt>
      <trkpt lat="45.80623" lon="4.50049">
        <ele>796</ele>
        <time>2025-09-10T11:56:28Z</time>
      </trkpt>
      <trkpt lat="45.80624" lon="4.50046">
        <ele>796</ele>
        <time>2025-09-10T11:56:29Z</time>
      </trkpt>
      <trkpt lat="45.80624" lon="4.50042">
        <ele>796</ele>
        <time>2025-09-10T11:56:30Z</time>
      </trkpt>
      <trkpt lat="45.80624" lon="4.50038">
        <ele>796.2</ele>
        <time>2025-09-10T11:56:31Z</time>
      </trkpt>
      <trkpt lat="45.80624" lon="4.50035">
        <ele>796.2</ele>
        <time>2025-09-10T11:56:32Z</time>
      </trkpt>
      <trkpt lat="45.80625" lon="4.50032">
        <ele>796.2</ele>
        <time>2025-09-10T11:56:33Z</time>
      </trkpt>
      <trkpt lat="45.80625" lon="4.50029">
        <ele>796.2</ele>
        <time>2025-09-10T11:56:34Z</time>
      </trkpt>
      <trkpt lat="45.80625" lon="4.50026">
        <ele>796</ele>
        <time>2025-09-10T11:56:35Z</time>
      </trkpt>
      <trkpt lat="45.80626" lon="4.50025">
        <ele>796</ele>
        <time>2025-09-10T11:56:36Z</time>
      </trkpt>
      <trkpt lat="45.80626" lon="4.50023">
        <ele>795.6</ele>
        <time>2025-09-10T11:56:37Z</time>
      </trkpt>
      <trkpt lat="45.80627" lon="4.50023">
        <ele>795.6</ele>
        <time>2025-09-10T11:56:38Z</time>
      </trkpt>
      <trkpt lat="45.80628" lon="4.50022">
        <ele>795.8</ele>
        <time>2025-09-10T11:56:39Z</time>
      </trkpt>
      <trkpt lat="45.8063" lon="4.50022">
        <ele>796.2</ele>
        <time>2025-09-10T11:56:40Z</time>
      </trkpt>
      <trkpt lat="45.80631" lon="4.50021">
        <ele>796.4</ele>
        <time>2025-09-10T11:56:41Z</time>
      </trkpt>
      <trkpt lat="45.80633" lon="4.50021">
        <ele>796.4</ele>
        <time>2025-09-10T11:56:42Z</time>
      </trkpt>
      <trkpt lat="45.80634" lon="4.5002">
        <ele>796.8</ele>
        <time>2025-09-10T11:56:43Z</time>
      </trkpt>
      <trkpt lat="45.80636" lon="4.50019">
        <ele>796.8</ele>
        <time>2025-09-10T11:56:44Z</time>
      </trkpt>
      <trkpt lat="45.80637" lon="4.50018">
        <ele>796.2</ele>
        <time>2025-09-10T11:56:45Z</time>
      </trkpt>
      <trkpt lat="45.80636" lon="4.50018">
        <ele>796.4</ele>
        <time>2025-09-10T11:56:46Z</time>
      </trkpt>
      <trkpt lat="45.80636" lon="4.50017">
        <ele>797</ele>
        <time>2025-09-10T11:56:47Z</time>
      </trkpt>
      <trkpt lat="45.80636" lon="4.50017">
        <ele>797.4</ele>
        <time>2025-09-10T11:56:57Z</time>
      </trkpt>
      <trkpt lat="45.80636" lon="4.50017">
        <ele>797.4</ele>
        <time>2025-09-10T11:56:58Z</time>
      </trkpt>
      <trkpt lat="45.80636" lon="4.50017">
        <ele>797.4</ele>
        <time>2025-09-10T11:56:59Z</time>
      </trkpt>
      <trkpt lat="45.80635" lon="4.50019">
        <ele>797.4</ele>
        <time>2025-09-10T11:57:06Z</time>
      </trkpt>
      <trkpt lat="45.80634" lon="4.50021">
        <ele>797.2</ele>
        <time>2025-09-10T11:57:07Z</time>
      </trkpt>
      <trkpt lat="45.80633" lon="4.50021">
        <ele>797</ele>
        <time>2025-09-10T11:57:08Z</time>
      </trkpt>
      <trkpt lat="45.80632" lon="4.50022">
        <ele>797</ele>
        <time>2025-09-10T11:57:09Z</time>
      </trkpt>
      <trkpt lat="45.8063" lon="4.50022">
        <ele>797</ele>
        <time>2025-09-10T11:57:10Z</time>
      </trkpt>
      <trkpt lat="45.80628" lon="4.50022">
        <ele>796.6</ele>
        <time>2025-09-10T11:57:11Z</time>
      </trkpt>
      <trkpt lat="45.80626" lon="4.50023">
        <ele>796.4</ele>
        <time>2025-09-10T11:57:12Z</time>
      </trkpt>
      <trkpt lat="45.80624" lon="4.50024">
        <ele>796</ele>
        <time>2025-09-10T11:57:13Z</time>
      </trkpt>
      <trkpt lat="45.80624" lon="4.50025">
        <ele>796</ele>
        <time>2025-09-10T11:57:14Z</time>
      </trkpt>
      <trkpt lat="45.80623" lon="4.50027">
        <ele>796</ele>
        <time>2025-09-10T11:57:15Z</time>
      </trkpt>
      <trkpt lat="45.80622" lon="4.50029">
        <ele>796</ele>
        <time>2025-09-10T11:57:16Z</time>
      </trkpt>
      <trkpt lat="45.80622" lon="4.50031">
        <ele>796</ele>
        <time>2025-09-10T11:57:17Z</time>
      </trkpt>
      <trkpt lat="45.80621" lon="4.50033">
        <ele>795.8</ele>
        <time>2025-09-10T11:57:18Z</time>
      </trkpt>
      <trkpt lat="45.80621" lon="4.50033">
        <ele>795.8</ele>
        <time>2025-09-10T11:57:19Z</time>
      </trkpt>
      <trkpt lat="45.80621" lon="4.50033">
        <ele>795.8</ele>
        <time>2025-09-10T11:57:20Z</time>
      </trkpt>
      <trkpt lat="45.80621" lon="4.50034">
        <ele>795.8</ele>
        <time>2025-09-10T11:57:21Z</time>
      </trkpt>
      <trkpt lat="45.8062" lon="4.50033">
        <ele>796</ele>
        <time>2025-09-10T11:58:16Z</time>
      </trkpt>
      <trkpt lat="45.80618" lon="4.50034">
        <ele>796</ele>
        <time>2025-09-10T11:58:17Z</time>
      </trkpt>
      <trkpt lat="45.80616" lon="4.50033">
        <ele>795.8</ele>
        <time>2025-09-10T11:58:18Z</time>
      </trkpt>
      <trkpt lat="45.80614" lon="4.50031">
        <ele>795.8</ele>
        <time>2025-09-10T11:58:19Z</time>
      </trkpt>
      <trkpt lat="45.80612" lon="4.50028">
        <ele>795.2</ele>
        <time>2025-09-10T11:58:20Z</time>
      </trkpt>
      <trkpt lat="45.80611" lon="4.50025">
        <ele>794.8</ele>
        <time>2025-09-10T11:58:21Z</time>
      </trkpt>
      <trkpt lat="45.80611" lon="4.50023">
        <ele>794.8</ele>
        <time>2025-09-10T11:58:22Z</time>
      </trkpt>
      <trkpt lat="45.8061" lon="4.5002">
        <ele>794.6</ele>
        <time>2025-09-10T11:58:23Z</time>
      </trkpt>
      <trkpt lat="45.8061" lon="4.50018">
        <ele>794.2</ele>
        <time>2025-09-10T11:58:24Z</time>
      </trkpt>
      <trkpt lat="45.80609" lon="4.50016">
        <ele>794</ele>
        <time>2025-09-10T11:58:25Z</time>
      </trkpt>
      <trkpt lat="45.80609" lon="4.50015">
        <ele>794</ele>
        <time>2025-09-10T11:58:26Z</time>
      </trkpt>
      <trkpt lat="45.8061" lon="4.50016">
        <ele>794</ele>
        <time>2025-09-10T11:58:27Z</time>
      </trkpt>
      <trkpt lat="45.80611" lon="4.50015">
        <ele>793.6</ele>
        <time>2025-09-10T11:58:42Z</time>
      </trkpt>
      <trkpt lat="45.8061" lon="4.50013">
        <ele>793.6</ele>
        <time>2025-09-10T11:58:43Z</time>
      </trkpt>
      <trkpt lat="45.8061" lon="4.50009">
        <ele>793.4</ele>
        <time>2025-09-10T11:58:44Z</time>
      </trkpt>
      <trkpt lat="45.80609" lon="4.50005">
        <ele>793.4</ele>
        <time>2025-09-10T11:58:45Z</time>
      </trkpt>
      <trkpt lat="45.80609" lon="4.50002">
        <ele>793</ele>
        <time>2025-09-10T11:58:46Z</time>
      </trkpt>
      <trkpt lat="45.80608" lon="4.49998">
        <ele>793</ele>
        <time>2025-09-10T11:58:47Z</time>
      </trkpt>
      <trkpt lat="45.80607" lon="4.49993">
        <ele>792.6</ele>
        <time>2025-09-10T11:58:48Z</time>
      </trkpt>
      <trkpt lat="45.80605" lon="4.49988">
        <ele>792.4</ele>
        <time>2025-09-10T11:58:49Z</time>
      </trkpt>
      <trkpt lat="45.80605" lon="4.49982">
        <ele>792.4</ele>
        <time>2025-09-10T11:58:50Z</time>
      </trkpt>
      <trkpt lat="45.80604" lon="4.49976">
        <ele>792.2</ele>
        <time>2025-09-10T11:58:51Z</time>
      </trkpt>
      <trkpt lat="45.80604" lon="4.49969">
        <ele>792.2</ele>
        <time>2025-09-10T11:58:52Z</time>
      </trkpt>
      <trkpt lat="45.80604" lon="4.49962">
        <ele>792.2</ele>
        <time>2025-09-10T11:58:53Z</time>
      </trkpt>
      <trkpt lat="45.80603" lon="4.49956">
        <ele>791.8</ele>
        <time>2025-09-10T11:58:54Z</time>
      </trkpt>
      <trkpt lat="45.80602" lon="4.49951">
        <ele>791.8</ele>
        <time>2025-09-10T11:58:55Z</time>
      </trkpt>
      <trkpt lat="45.806" lon="4.4995">
        <ele>792.2</ele>
        <time>2025-09-10T11:58:56Z</time>
      </trkpt>
      <trkpt lat="45.80602" lon="4.49941">
        <ele>791.8</ele>
        <time>2025-09-10T11:58:57Z</time>
      </trkpt>
      <trkpt lat="45.80603" lon="4.49934">
        <ele>791.8</ele>
        <time>2025-09-10T11:58:58Z</time>
      </trkpt>
      <trkpt lat="45.80604" lon="4.49928">
        <ele>791.4</ele>
        <time>2025-09-10T11:58:59Z</time>
      </trkpt>
      <trkpt lat="45.80603" lon="4.49925">
        <ele>791.6</ele>
        <time>2025-09-10T11:59:00Z</time>
      </trkpt>
      <trkpt lat="45.80604" lon="4.49919">
        <ele>791.2</ele>
        <time>2025-09-10T11:59:01Z</time>
      </trkpt>
      <trkpt lat="45.80604" lon="4.49914">
        <ele>791</ele>
        <time>2025-09-10T11:59:02Z</time>
      </trkpt>
      <trkpt lat="45.80603" lon="4.49906">
        <ele>791</ele>
        <time>2025-09-10T11:59:03Z</time>
      </trkpt>
      <trkpt lat="45.80601" lon="4.499">
        <ele>790.4</ele>
        <time>2025-09-10T11:59:04Z</time>
      </trkpt>
      <trkpt lat="45.806" lon="4.49892">
        <ele>790</ele>
        <time>2025-09-10T11:59:05Z</time>
      </trkpt>
      <trkpt lat="45.80597" lon="4.49886">
        <ele>789.6</ele>
        <time>2025-09-10T11:59:06Z</time>
      </trkpt>
      <trkpt lat="45.80595" lon="4.4988">
        <ele>789.6</ele>
        <time>2025-09-10T11:59:07Z</time>
      </trkpt>
      <trkpt lat="45.80593" lon="4.49874">
        <ele>789.4</ele>
        <time>2025-09-10T11:59:08Z</time>
      </trkpt>
      <trkpt lat="45.80591" lon="4.4987">
        <ele>789.4</ele>
        <time>2025-09-10T11:59:09Z</time>
      </trkpt>
      <trkpt lat="45.80589" lon="4.49866">
        <ele>789</ele>
        <time>2025-09-10T11:59:10Z</time>
      </trkpt>
      <trkpt lat="45.80587" lon="4.4986">
        <ele>789</ele>
        <time>2025-09-10T11:59:11Z</time>
      </trkpt>
      <trkpt lat="45.80584" lon="4.49857">
        <ele>788.6</ele>
        <time>2025-09-10T11:59:12Z</time>
      </trkpt>
      <trkpt lat="45.80583" lon="4.49853">
        <ele>788.6</ele>
        <time>2025-09-10T11:59:13Z</time>
      </trkpt>
      <trkpt lat="45.80582" lon="4.4985">
        <ele>788.4</ele>
        <time>2025-09-10T11:59:14Z</time>
      </trkpt>
      <trkpt lat="45.80579" lon="4.49846">
        <ele>787.4</ele>
        <time>2025-09-10T11:59:15Z</time>
      </trkpt>
      <trkpt lat="45.80578" lon="4.49842">
        <ele>787.2</ele>
        <time>2025-09-10T11:59:16Z</time>
      </trkpt>
      <trkpt lat="45.80576" lon="4.49837">
        <ele>787.2</ele>
        <time>2025-09-10T11:59:17Z</time>
      </trkpt>
      <trkpt lat="45.80574" lon="4.49834">
        <ele>787</ele>
        <time>2025-09-10T11:59:18Z</time>
      </trkpt>
      <trkpt lat="45.80573" lon="4.4983">
        <ele>787</ele>
        <time>2025-09-10T11:59:19Z</time>
      </trkpt>
      <trkpt lat="45.80571" lon="4.49826">
        <ele>787</ele>
        <time>2025-09-10T11:59:20Z</time>
      </trkpt>
      <trkpt lat="45.8057" lon="4.4982">
        <ele>786.8</ele>
        <time>2025-09-10T11:59:21Z</time>
      </trkpt>
      <trkpt lat="45.80569" lon="4.49814">
        <ele>787</ele>
        <time>2025-09-10T11:59:22Z</time>
      </trkpt>
      <trkpt lat="45.80569" lon="4.49809">
        <ele>787</ele>
        <time>2025-09-10T11:59:23Z</time>
      </trkpt>
      <trkpt lat="45.80568" lon="4.49806">
        <ele>787</ele>
        <time>2025-09-10T11:59:24Z</time>
      </trkpt>
      <trkpt lat="45.80568" lon="4.49804">
        <ele>787.4</ele>
        <time>2025-09-10T11:59:25Z</time>
      </trkpt>
      <trkpt lat="45.80567" lon="4.498">
        <ele>787</ele>
        <time>2025-09-10T11:59:26Z</time>
      </trkpt>
      <trkpt lat="45.80567" lon="4.49795">
        <ele>786.6</ele>
        <time>2025-09-10T11:59:27Z</time>
      </trkpt>
      <trkpt lat="45.80566" lon="4.49791">
        <ele>786.6</ele>
        <time>2025-09-10T11:59:28Z</time>
      </trkpt>
      <trkpt lat="45.80564" lon="4.49787">
        <ele>786.2</ele>
        <time>2025-09-10T11:59:29Z</time>
      </trkpt>
      <trkpt lat="45.80563" lon="4.49784">
        <ele>785.8</ele>
        <time>2025-09-10T11:59:30Z</time>
      </trkpt>
      <trkpt lat="45.80557" lon="4.4978">
        <ele>785.2</ele>
        <time>2025-09-10T11:59:31Z</time>
      </trkpt>
      <trkpt lat="45.80554" lon="4.49776">
        <ele>784.8</ele>
        <time>2025-09-10T11:59:32Z</time>
      </trkpt>
      <trkpt lat="45.80551" lon="4.49771">
        <ele>784.4</ele>
        <time>2025-09-10T11:59:33Z</time>
      </trkpt>
      <trkpt lat="45.80551" lon="4.49768">
        <ele>784.4</ele>
        <time>2025-09-10T11:59:34Z</time>
      </trkpt>
      <trkpt lat="45.80549" lon="4.49765">
        <ele>784.2</ele>
        <time>2025-09-10T11:59:35Z</time>
      </trkpt>
      <trkpt lat="45.80548" lon="4.49762">
        <ele>784.2</ele>
        <time>2025-09-10T11:59:36Z</time>
      </trkpt>
      <trkpt lat="45.80546" lon="4.49758">
        <ele>784.2</ele>
        <time>2025-09-10T11:59:37Z</time>
      </trkpt>
      <trkpt lat="45.80545" lon="4.49755">
        <ele>783.8</ele>
        <time>2025-09-10T11:59:38Z</time>
      </trkpt>
      <trkpt lat="45.80543" lon="4.49751">
        <ele>783.4</ele>
        <time>2025-09-10T11:59:39Z</time>
      </trkpt>
      <trkpt lat="45.8054" lon="4.49749">
        <ele>783.4</ele>
        <time>2025-09-10T11:59:40Z</time>
      </trkpt>
      <trkpt lat="45.80538" lon="4.49746">
        <ele>783</ele>
        <time>2025-09-10T11:59:41Z</time>
      </trkpt>
      <trkpt lat="45.80536" lon="4.49743">
        <ele>783</ele>
        <time>2025-09-10T11:59:42Z</time>
      </trkpt>
      <trkpt lat="45.80535" lon="4.4974">
        <ele>783</ele>
        <time>2025-09-10T11:59:43Z</time>
      </trkpt>
      <trkpt lat="45.80533" lon="4.49738">
        <ele>782.8</ele>
        <time>2025-09-10T11:59:44Z</time>
      </trkpt>
      <trkpt lat="45.80532" lon="4.49736">
        <ele>782.8</ele>
        <time>2025-09-10T11:59:45Z</time>
      </trkpt>
      <trkpt lat="45.80531" lon="4.49735">
        <ele>782.4</ele>
        <time>2025-09-10T11:59:46Z</time>
      </trkpt>
      <trkpt lat="45.8053" lon="4.49733">
        <ele>782.4</ele>
        <time>2025-09-10T11:59:47Z</time>
      </trkpt>
      <trkpt lat="45.8053" lon="4.49732">
        <ele>782.2</ele>
        <time>2025-09-10T11:59:48Z</time>
      </trkpt>
      <trkpt lat="45.80529" lon="4.49731">
        <ele>782.2</ele>
        <time>2025-09-10T11:59:49Z</time>
      </trkpt>
      <trkpt lat="45.80527" lon="4.49732">
        <ele>781.8</ele>
        <time>2025-09-10T11:59:50Z</time>
      </trkpt>
      <trkpt lat="45.80524" lon="4.49734">
        <ele>781.6</ele>
        <time>2025-09-10T11:59:51Z</time>
      </trkpt>
      <trkpt lat="45.80522" lon="4.49739">
        <ele>781.6</ele>
        <time>2025-09-10T11:59:52Z</time>
      </trkpt>
      <trkpt lat="45.8052" lon="4.49744">
        <ele>780.8</ele>
        <time>2025-09-10T11:59:53Z</time>
      </trkpt>
      <trkpt lat="45.80519" lon="4.49752">
        <ele>780</ele>
        <time>2025-09-10T11:59:54Z</time>
      </trkpt>
      <trkpt lat="45.80517" lon="4.49756">
        <ele>779</ele>
        <time>2025-09-10T11:59:55Z</time>
      </trkpt>
      <trkpt lat="45.80515" lon="4.49764">
        <ele>778.4</ele>
        <time>2025-09-10T11:59:56Z</time>
      </trkpt>
      <trkpt lat="45.80513" lon="4.4977">
        <ele>778</ele>
        <time>2025-09-10T11:59:57Z</time>
      </trkpt>
      <trkpt lat="45.80512" lon="4.49778">
        <ele>777.4</ele>
        <time>2025-09-10T11:59:58Z</time>
      </trkpt>
      <trkpt lat="45.8051" lon="4.49788">
        <ele>776.8</ele>
        <time>2025-09-10T11:59:59Z</time>
      </trkpt>
      <trkpt lat="45.8051" lon="4.49797">
        <ele>776.2</ele>
        <time>2025-09-10T12:00:00Z</time>
      </trkpt>
      <trkpt lat="45.80509" lon="4.49804">
        <ele>775.6</ele>
        <time>2025-09-10T12:00:01Z</time>
      </trkpt>
      <trkpt lat="45.8051" lon="4.49815">
        <ele>774.8</ele>
        <time>2025-09-10T12:00:02Z</time>
      </trkpt>
      <trkpt lat="45.8051" lon="4.49825">
        <ele>774</ele>
        <time>2025-09-10T12:00:03Z</time>
      </trkpt>
      <trkpt lat="45.80512" lon="4.49834">
        <ele>773.6</ele>
        <time>2025-09-10T12:00:04Z</time>
      </trkpt>
      <trkpt lat="45.80515" lon="4.49841">
        <ele>773.2</ele>
        <time>2025-09-10T12:00:05Z</time>
      </trkpt>
      <trkpt lat="45.80514" lon="4.49845">
        <ele>773.2</ele>
        <time>2025-09-10T12:00:06Z</time>
      </trkpt>
      <trkpt lat="45.80515" lon="4.49849">
        <ele>772.6</ele>
        <time>2025-09-10T12:00:07Z</time>
      </trkpt>
      <trkpt lat="45.80516" lon="4.49851">
        <ele>772.6</ele>
        <time>2025-09-10T12:00:08Z</time>
      </trkpt>
      <trkpt lat="45.80517" lon="4.4985">
        <ele>772.4</ele>
        <time>2025-09-10T12:00:09Z</time>
      </trkpt>
      <trkpt lat="45.80517" lon="4.4985">
        <ele>772.4</ele>
        <time>2025-09-10T12:00:10Z</time>
      </trkpt>
      <trkpt lat="45.80517" lon="4.4985">
        <ele>772.2</ele>
        <time>2025-09-10T12:00:11Z</time>
      </trkpt>
      <trkpt lat="45.80517" lon="4.49852">
        <ele>772.2</ele>
        <time>2025-09-10T12:00:12Z</time>
      </trkpt>
      <trkpt lat="45.80517" lon="4.49852">
        <ele>772.2</ele>
        <time>2025-09-10T12:00:13Z</time>
      </trkpt>
      <trkpt lat="45.80517" lon="4.49854">
        <ele>772</ele>
        <time>2025-09-10T12:00:14Z</time>
      </trkpt>
      <trkpt lat="45.80517" lon="4.49854">
        <ele>772</ele>
        <time>2025-09-10T12:00:15Z</time>
      </trkpt>
      <trkpt lat="45.80516" lon="4.49853">
        <ele>772</ele>
        <time>2025-09-10T12:00:16Z</time>
      </trkpt>
      <trkpt lat="45.80517" lon="4.49854">
        <ele>771.6</ele>
        <time>2025-09-10T12:00:17Z</time>
      </trkpt>
      <trkpt lat="45.80517" lon="4.49857">
        <ele>771.6</ele>
        <time>2025-09-10T12:00:18Z</time>
      </trkpt>
      <trkpt lat="45.80518" lon="4.4986">
        <ele>770.6</ele>
        <time>2025-09-10T12:00:19Z</time>
      </trkpt>
      <trkpt lat="45.80517" lon="4.49865">
        <ele>770.6</ele>
        <time>2025-09-10T12:00:20Z</time>
      </trkpt>
      <trkpt lat="45.80516" lon="4.49871">
        <ele>770.4</ele>
        <time>2025-09-10T12:00:21Z</time>
      </trkpt>
      <trkpt lat="45.80514" lon="4.49877">
        <ele>770</ele>
        <time>2025-09-10T12:00:22Z</time>
      </trkpt>
      <trkpt lat="45.80513" lon="4.49883">
        <ele>769.4</ele>
        <time>2025-09-10T12:00:23Z</time>
      </trkpt>
      <trkpt lat="45.80511" lon="4.49889">
        <ele>768.8</ele>
        <time>2025-09-10T12:00:24Z</time>
      </trkpt>
      <trkpt lat="45.8051" lon="4.49894">
        <ele>768.4</ele>
        <time>2025-09-10T12:00:25Z</time>
      </trkpt>
      <trkpt lat="45.80509" lon="4.49899">
        <ele>768</ele>
        <time>2025-09-10T12:00:26Z</time>
      </trkpt>
      <trkpt lat="45.80508" lon="4.49904">
        <ele>767.8</ele>
        <time>2025-09-10T12:00:27Z</time>
      </trkpt>
      <trkpt lat="45.80507" lon="4.49909">
        <ele>767.4</ele>
        <time>2025-09-10T12:00:28Z</time>
      </trkpt>
      <trkpt lat="45.80503" lon="4.49918">
        <ele>766.8</ele>
        <time>2025-09-10T12:00:29Z</time>
      </trkpt>
      <trkpt lat="45.80503" lon="4.49925">
        <ele>766.4</ele>
        <time>2025-09-10T12:00:30Z</time>
      </trkpt>
      <trkpt lat="45.80501" lon="4.49932">
        <ele>765.4</ele>
        <time>2025-09-10T12:00:31Z</time>
      </trkpt>
      <trkpt lat="45.80498" lon="4.49939">
        <ele>764.8</ele>
        <time>2025-09-10T12:00:32Z</time>
      </trkpt>
      <trkpt lat="45.80494" lon="4.49951">
        <ele>764</ele>
        <time>2025-09-10T12:00:33Z</time>
      </trkpt>
      <trkpt lat="45.80492" lon="4.49959">
        <ele>763.6</ele>
        <time>2025-09-10T12:00:34Z</time>
      </trkpt>
      <trkpt lat="45.80488" lon="4.49968">
        <ele>762.6</ele>
        <time>2025-09-10T12:00:35Z</time>
      </trkpt>
      <trkpt lat="45.80485" lon="4.49976">
        <ele>761.8</ele>
        <time>2025-09-10T12:00:36Z</time>
      </trkpt>
      <trkpt lat="45.80482" lon="4.49985">
        <ele>761</ele>
        <time>2025-09-10T12:00:37Z</time>
      </trkpt>
      <trkpt lat="45.80478" lon="4.49991">
        <ele>760.2</ele>
        <time>2025-09-10T12:00:38Z</time>
      </trkpt>
      <trkpt lat="45.80476" lon="4.49999">
        <ele>760</ele>
        <time>2025-09-10T12:00:39Z</time>
      </trkpt>
      <trkpt lat="45.80472" lon="4.50007">
        <ele>759.8</ele>
        <time>2025-09-10T12:00:40Z</time>
      </trkpt>
      <trkpt lat="45.8047" lon="4.50013">
        <ele>759.4</ele>
        <time>2025-09-10T12:00:41Z</time>
      </trkpt>
      <trkpt lat="45.80467" lon="4.50018">
        <ele>759</ele>
        <time>2025-09-10T12:00:42Z</time>
      </trkpt>
      <trkpt lat="45.80466" lon="4.50023">
        <ele>758.6</ele>
        <time>2025-09-10T12:00:43Z</time>
      </trkpt>
      <trkpt lat="45.80464" lon="4.50028">
        <ele>758.2</ele>
        <time>2025-09-10T12:00:44Z</time>
      </trkpt>
      <trkpt lat="45.80461" lon="4.50034">
        <ele>757.8</ele>
        <time>2025-09-10T12:00:45Z</time>
      </trkpt>
      <trkpt lat="45.80459" lon="4.50039">
        <ele>757.2</ele>
        <time>2025-09-10T12:00:46Z</time>
      </trkpt>
      <trkpt lat="45.80456" lon="4.50045">
        <ele>756.8</ele>
        <time>2025-09-10T12:00:47Z</time>
      </trkpt>
      <trkpt lat="45.80453" lon="4.5005">
        <ele>756.2</ele>
        <time>2025-09-10T12:00:48Z</time>
      </trkpt>
      <trkpt lat="45.8045" lon="4.50055">
        <ele>755.4</ele>
        <time>2025-09-10T12:00:49Z</time>
      </trkpt>
      <trkpt lat="45.80447" lon="4.5006">
        <ele>754.8</ele>
        <time>2025-09-10T12:00:50Z</time>
      </trkpt>
      <trkpt lat="45.80443" lon="4.50065">
        <ele>754</ele>
        <time>2025-09-10T12:00:51Z</time>
      </trkpt>
      <trkpt lat="45.80443" lon="4.5007">
        <ele>753.4</ele>
        <time>2025-09-10T12:00:52Z</time>
      </trkpt>
      <trkpt lat="45.80442" lon="4.50076">
        <ele>752.8</ele>
        <time>2025-09-10T12:00:53Z</time>
      </trkpt>
      <trkpt lat="45.80441" lon="4.50081">
        <ele>752</ele>
        <time>2025-09-10T12:00:54Z</time>
      </trkpt>
      <trkpt lat="45.8044" lon="4.50089">
        <ele>751.6</ele>
        <time>2025-09-10T12:00:55Z</time>
      </trkpt>
      <trkpt lat="45.80438" lon="4.50095">
        <ele>751</ele>
        <time>2025-09-10T12:00:56Z</time>
      </trkpt>
      <trkpt lat="45.80436" lon="4.50101">
        <ele>750.4</ele>
        <time>2025-09-10T12:00:57Z</time>
      </trkpt>
      <trkpt lat="45.80433" lon="4.50108">
        <ele>749.6</ele>
        <time>2025-09-10T12:00:58Z</time>
      </trkpt>
      <trkpt lat="45.8043" lon="4.50115">
        <ele>748.8</ele>
        <time>2025-09-10T12:00:59Z</time>
      </trkpt>
      <trkpt lat="45.80427" lon="4.50122">
        <ele>748.2</ele>
        <time>2025-09-10T12:01:00Z</time>
      </trkpt>
      <trkpt lat="45.80424" lon="4.50129">
        <ele>747.8</ele>
        <time>2025-09-10T12:01:01Z</time>
      </trkpt>
      <trkpt lat="45.80422" lon="4.50134">
        <ele>747.2</ele>
        <time>2025-09-10T12:01:02Z</time>
      </trkpt>
      <trkpt lat="45.80417" lon="4.50149">
        <ele>746.8</ele>
        <time>2025-09-10T12:01:03Z</time>
      </trkpt>
      <trkpt lat="45.80414" lon="4.50157">
        <ele>746</ele>
        <time>2025-09-10T12:01:04Z</time>
      </trkpt>
      <trkpt lat="45.80411" lon="4.50164">
        <ele>745.4</ele>
        <time>2025-09-10T12:01:05Z</time>
      </trkpt>
      <trkpt lat="45.80409" lon="4.50171">
        <ele>745</ele>
        <time>2025-09-10T12:01:06Z</time>
      </trkpt>
      <trkpt lat="45.80405" lon="4.50178">
        <ele>744.2</ele>
        <time>2025-09-10T12:01:07Z</time>
      </trkpt>
      <trkpt lat="45.80402" lon="4.50185">
        <ele>743</ele>
        <time>2025-09-10T12:01:08Z</time>
      </trkpt>
      <trkpt lat="45.80398" lon="4.50191">
        <ele>742.2</ele>
        <time>2025-09-10T12:01:09Z</time>
      </trkpt>
      <trkpt lat="45.80396" lon="4.50198">
        <ele>741.4</ele>
        <time>2025-09-10T12:01:10Z</time>
      </trkpt>
      <trkpt lat="45.80393" lon="4.50203">
        <ele>740.4</ele>
        <time>2025-09-10T12:01:11Z</time>
      </trkpt>
      <trkpt lat="45.80393" lon="4.50203">
        <ele>740.4</ele>
        <time>2025-09-10T12:01:12Z</time>
      </trkpt>
      <trkpt lat="45.80391" lon="4.50209">
        <ele>739.4</ele>
        <time>2025-09-10T12:01:13Z</time>
      </trkpt>
      <trkpt lat="45.80387" lon="4.50216">
        <ele>738.6</ele>
        <time>2025-09-10T12:01:14Z</time>
      </trkpt>
      <trkpt lat="45.80385" lon="4.50223">
        <ele>737.8</ele>
        <time>2025-09-10T12:01:15Z</time>
      </trkpt>
      <trkpt lat="45.80384" lon="4.50228">
        <ele>737.2</ele>
        <time>2025-09-10T12:01:16Z</time>
      </trkpt>
      <trkpt lat="45.80382" lon="4.50233">
        <ele>736.6</ele>
        <time>2025-09-10T12:01:17Z</time>
      </trkpt>
      <trkpt lat="45.80378" lon="4.50238">
        <ele>735.8</ele>
        <time>2025-09-10T12:01:18Z</time>
      </trkpt>
      <trkpt lat="45.80373" lon="4.50243">
        <ele>735.2</ele>
        <time>2025-09-10T12:01:19Z</time>
      </trkpt>
      <trkpt lat="45.80369" lon="4.50248">
        <ele>734.6</ele>
        <time>2025-09-10T12:01:20Z</time>
      </trkpt>
      <trkpt lat="45.80364" lon="4.50254">
        <ele>733.8</ele>
        <time>2025-09-10T12:01:21Z</time>
      </trkpt>
      <trkpt lat="45.8036" lon="4.50261">
        <ele>733.2</ele>
        <time>2025-09-10T12:01:22Z</time>
      </trkpt>
      <trkpt lat="45.80355" lon="4.50268">
        <ele>732.6</ele>
        <time>2025-09-10T12:01:23Z</time>
      </trkpt>
      <trkpt lat="45.80352" lon="4.50274">
        <ele>731.8</ele>
        <time>2025-09-10T12:01:24Z</time>
      </trkpt>
      <trkpt lat="45.80349" lon="4.50282">
        <ele>731.2</ele>
        <time>2025-09-10T12:01:25Z</time>
      </trkpt>
      <trkpt lat="45.80347" lon="4.5029">
        <ele>730.6</ele>
        <time>2025-09-10T12:01:26Z</time>
      </trkpt>
      <trkpt lat="45.80345" lon="4.50298">
        <ele>730.2</ele>
        <time>2025-09-10T12:01:27Z</time>
      </trkpt>
      <trkpt lat="45.80343" lon="4.50307">
        <ele>729.8</ele>
        <time>2025-09-10T12:01:28Z</time>
      </trkpt>
      <trkpt lat="45.8034" lon="4.50316">
        <ele>729.2</ele>
        <time>2025-09-10T12:01:29Z</time>
      </trkpt>
      <trkpt lat="45.80338" lon="4.50323">
        <ele>729.2</ele>
        <time>2025-09-10T12:01:30Z</time>
      </trkpt>
      <trkpt lat="45.80336" lon="4.50333">
        <ele>728.6</ele>
        <time>2025-09-10T12:01:31Z</time>
      </trkpt>
      <trkpt lat="45.80335" lon="4.50342">
        <ele>728.2</ele>
        <time>2025-09-10T12:01:32Z</time>
      </trkpt>
      <trkpt lat="45.80333" lon="4.50349">
        <ele>727.6</ele>
        <time>2025-09-10T12:01:33Z</time>
      </trkpt>
      <trkpt lat="45.80331" lon="4.50357">
        <ele>727.2</ele>
        <time>2025-09-10T12:01:34Z</time>
      </trkpt>
      <trkpt lat="45.80329" lon="4.50364">
        <ele>726.4</ele>
        <time>2025-09-10T12:01:35Z</time>
      </trkpt>
      <trkpt lat="45.80327" lon="4.50371">
        <ele>726</ele>
        <time>2025-09-10T12:01:36Z</time>
      </trkpt>
      <trkpt lat="45.80323" lon="4.50378">
        <ele>725.6</ele>
        <time>2025-09-10T12:01:37Z</time>
      </trkpt>
      <trkpt lat="45.80321" lon="4.50385">
        <ele>725</ele>
        <time>2025-09-10T12:01:38Z</time>
      </trkpt>
      <trkpt lat="45.80317" lon="4.50392">
        <ele>724.6</ele>
        <time>2025-09-10T12:01:39Z</time>
      </trkpt>
      <trkpt lat="45.80314" lon="4.50399">
        <ele>724</ele>
        <time>2025-09-10T12:01:40Z</time>
      </trkpt>
      <trkpt lat="45.8031" lon="4.50407">
        <ele>723.2</ele>
        <time>2025-09-10T12:01:41Z</time>
      </trkpt>
      <trkpt lat="45.80307" lon="4.50414">
        <ele>722.6</ele>
        <time>2025-09-10T12:01:42Z</time>
      </trkpt>
      <trkpt lat="45.80303" lon="4.50423">
        <ele>722</ele>
        <time>2025-09-10T12:01:43Z</time>
      </trkpt>
      <trkpt lat="45.80299" lon="4.50431">
        <ele>721.2</ele>
        <time>2025-09-10T12:01:44Z</time>
      </trkpt>
      <trkpt lat="45.80295" lon="4.50439">
        <ele>720.4</ele>
        <time>2025-09-10T12:01:45Z</time>
      </trkpt>
      <trkpt lat="45.80292" lon="4.50447">
        <ele>719.6</ele>
        <time>2025-09-10T12:01:46Z</time>
      </trkpt>
      <trkpt lat="45.80288" lon="4.50456">
        <ele>718.8</ele>
        <time>2025-09-10T12:01:47Z</time>
      </trkpt>
      <trkpt lat="45.80284" lon="4.50462">
        <ele>718</ele>
        <time>2025-09-10T12:01:48Z</time>
      </trkpt>
      <trkpt lat="45.80282" lon="4.50472">
        <ele>717.6</ele>
        <time>2025-09-10T12:01:49Z</time>
      </trkpt>
      <trkpt lat="45.80279" lon="4.50478">
        <ele>717</ele>
        <time>2025-09-10T12:01:50Z</time>
      </trkpt>
      <trkpt lat="45.80277" lon="4.50485">
        <ele>716.2</ele>
        <time>2025-09-10T12:01:51Z</time>
      </trkpt>
      <trkpt lat="45.80276" lon="4.50492">
        <ele>715.8</ele>
        <time>2025-09-10T12:01:52Z</time>
      </trkpt>
      <trkpt lat="45.80277" lon="4.505">
        <ele>715.2</ele>
        <time>2025-09-10T12:01:53Z</time>
      </trkpt>
      <trkpt lat="45.80278" lon="4.50508">
        <ele>714.6</ele>
        <time>2025-09-10T12:01:54Z</time>
      </trkpt>
      <trkpt lat="45.80279" lon="4.50517">
        <ele>714.2</ele>
        <time>2025-09-10T12:01:55Z</time>
      </trkpt>
      <trkpt lat="45.80279" lon="4.50525">
        <ele>713.4</ele>
        <time>2025-09-10T12:01:56Z</time>
      </trkpt>
      <trkpt lat="45.80281" lon="4.50531">
        <ele>713.2</ele>
        <time>2025-09-10T12:01:57Z</time>
      </trkpt>
      <trkpt lat="45.80282" lon="4.50536">
        <ele>712.8</ele>
        <time>2025-09-10T12:01:58Z</time>
      </trkpt>
      <trkpt lat="45.80284" lon="4.5054">
        <ele>712.4</ele>
        <time>2025-09-10T12:01:59Z</time>
      </trkpt>
      <trkpt lat="45.80284" lon="4.50543">
        <ele>712.2</ele>
        <time>2025-09-10T12:02:00Z</time>
      </trkpt>
      <trkpt lat="45.80283" lon="4.50546">
        <ele>712.2</ele>
        <time>2025-09-10T12:02:01Z</time>
      </trkpt>
      <trkpt lat="45.80284" lon="4.50547">
        <ele>711.8</ele>
        <time>2025-09-10T12:02:02Z</time>
      </trkpt>
      <trkpt lat="45.80283" lon="4.50548">
        <ele>711.8</ele>
        <time>2025-09-10T12:02:03Z</time>
      </trkpt>
      <trkpt lat="45.80283" lon="4.50548">
        <ele>711.4</ele>
        <time>2025-09-10T12:02:04Z</time>
      </trkpt>
      <trkpt lat="45.80283" lon="4.50548">
        <ele>711.4</ele>
        <time>2025-09-10T12:02:05Z</time>
      </trkpt>
      <trkpt lat="45.80281" lon="4.50551">
        <ele>710.4</ele>
        <time>2025-09-10T12:03:49Z</time>
      </trkpt>
      <trkpt lat="45.80282" lon="4.50552">
        <ele>710.4</ele>
        <time>2025-09-10T12:03:50Z</time>
      </trkpt>
      <trkpt lat="45.80284" lon="4.50554">
        <ele>710.4</ele>
        <time>2025-09-10T12:03:51Z</time>
      </trkpt>
      <trkpt lat="45.80286" lon="4.50557">
        <ele>710.2</ele>
        <time>2025-09-10T12:03:52Z</time>
      </trkpt>
      <trkpt lat="45.80288" lon="4.5056">
        <ele>710</ele>
        <time>2025-09-10T12:03:53Z</time>
      </trkpt>
      <trkpt lat="45.80291" lon="4.50564">
        <ele>709.6</ele>
        <time>2025-09-10T12:03:54Z</time>
      </trkpt>
      <trkpt lat="45.80293" lon="4.50567">
        <ele>709.2</ele>
        <time>2025-09-10T12:03:55Z</time>
      </trkpt>
      <trkpt lat="45.80298" lon="4.50571">
        <ele>709</ele>
        <time>2025-09-10T12:03:56Z</time>
      </trkpt>
      <trkpt lat="45.80301" lon="4.50576">
        <ele>708.4</ele>
        <time>2025-09-10T12:03:57Z</time>
      </trkpt>
      <trkpt lat="45.80304" lon="4.50581">
        <ele>708</ele>
        <time>2025-09-10T12:03:58Z</time>
      </trkpt>
      <trkpt lat="45.80307" lon="4.50586">
        <ele>707.6</ele>
        <time>2025-09-10T12:03:59Z</time>
      </trkpt>
      <trkpt lat="45.8031" lon="4.5059">
        <ele>707.4</ele>
        <time>2025-09-10T12:04:00Z</time>
      </trkpt>
      <trkpt lat="45.80313" lon="4.50594">
        <ele>706.8</ele>
        <time>2025-09-10T12:04:01Z</time>
      </trkpt>
      <trkpt lat="45.80316" lon="4.50599">
        <ele>706.2</ele>
        <time>2025-09-10T12:04:02Z</time>
      </trkpt>
      <trkpt lat="45.80319" lon="4.50603">
        <ele>705.6</ele>
        <time>2025-09-10T12:04:03Z</time>
      </trkpt>
      <trkpt lat="45.80322" lon="4.50607">
        <ele>705.4</ele>
        <time>2025-09-10T12:04:04Z</time>
      </trkpt>
      <trkpt lat="45.80324" lon="4.50609">
        <ele>704.8</ele>
        <time>2025-09-10T12:04:05Z</time>
      </trkpt>
      <trkpt lat="45.80326" lon="4.50611">
        <ele>704.2</ele>
        <time>2025-09-10T12:04:06Z</time>
      </trkpt>
      <trkpt lat="45.80328" lon="4.50614">
        <ele>703.8</ele>
        <time>2025-09-10T12:04:07Z</time>
      </trkpt>
      <trkpt lat="45.80329" lon="4.50616">
        <ele>703.2</ele>
        <time>2025-09-10T12:04:08Z</time>
      </trkpt>
      <trkpt lat="45.80329" lon="4.50617">
        <ele>702.8</ele>
        <time>2025-09-10T12:04:09Z</time>
      </trkpt>
      <trkpt lat="45.80329" lon="4.50617">
        <ele>702.6</ele>
        <time>2025-09-10T12:04:10Z</time>
      </trkpt>
      <trkpt lat="45.8033" lon="4.50623">
        <ele>701.6</ele>
        <time>2025-09-10T12:04:45Z</time>
      </trkpt>
      <trkpt lat="45.80331" lon="4.50625">
        <ele>701.6</ele>
        <time>2025-09-10T12:04:46Z</time>
      </trkpt>
      <trkpt lat="45.80333" lon="4.50628">
        <ele>701.6</ele>
        <time>2025-09-10T12:04:47Z</time>
      </trkpt>
      <trkpt lat="45.80333" lon="4.50628">
        <ele>701.2</ele>
        <time>2025-09-10T12:04:48Z</time>
      </trkpt>
      <trkpt lat="45.80336" lon="4.50631">
        <ele>700.8</ele>
        <time>2025-09-10T12:04:49Z</time>
      </trkpt>
      <trkpt lat="45.80339" lon="4.50635">
        <ele>700.4</ele>
        <time>2025-09-10T12:04:50Z</time>
      </trkpt>
      <trkpt lat="45.80344" lon="4.50642">
        <ele>700</ele>
        <time>2025-09-10T12:04:51Z</time>
      </trkpt>
      <trkpt lat="45.80348" lon="4.50647">
        <ele>699</ele>
        <time>2025-09-10T12:04:52Z</time>
      </trkpt>
      <trkpt lat="45.80352" lon="4.50652">
        <ele>698.4</ele>
        <time>2025-09-10T12:04:53Z</time>
      </trkpt>
      <trkpt lat="45.80356" lon="4.50658">
        <ele>697.4</ele>
        <time>2025-09-10T12:04:54Z</time>
      </trkpt>
      <trkpt lat="45.80361" lon="4.50662">
        <ele>697</ele>
        <time>2025-09-10T12:04:55Z</time>
      </trkpt>
      <trkpt lat="45.80364" lon="4.5067">
        <ele>696.2</ele>
        <time>2025-09-10T12:04:56Z</time>
      </trkpt>
      <trkpt lat="45.80367" lon="4.50675">
        <ele>695.4</ele>
        <time>2025-09-10T12:04:57Z</time>
      </trkpt>
      <trkpt lat="45.80371" lon="4.50679">
        <ele>695</ele>
        <time>2025-09-10T12:04:58Z</time>
      </trkpt>
      <trkpt lat="45.80374" lon="4.50683">
        <ele>694.4</ele>
        <time>2025-09-10T12:04:59Z</time>
      </trkpt>
      <trkpt lat="45.80378" lon="4.50688">
        <ele>693.6</ele>
        <time>2025-09-10T12:05:00Z</time>
      </trkpt>
      <trkpt lat="45.8038" lon="4.50692">
        <ele>693</ele>
        <time>2025-09-10T12:05:01Z</time>
      </trkpt>
      <trkpt lat="45.80383" lon="4.50697">
        <ele>692.8</ele>
        <time>2025-09-10T12:05:02Z</time>
      </trkpt>
      <trkpt lat="45.80385" lon="4.50702">
        <ele>692.4</ele>
        <time>2025-09-10T12:05:03Z</time>
      </trkpt>
      <trkpt lat="45.80388" lon="4.50708">
        <ele>692</ele>
        <time>2025-09-10T12:05:04Z</time>
      </trkpt>
      <trkpt lat="45.8039" lon="4.50715">
        <ele>691.8</ele>
        <time>2025-09-10T12:05:05Z</time>
      </trkpt>
      <trkpt lat="45.80393" lon="4.5072">
        <ele>691.2</ele>
        <time>2025-09-10T12:05:06Z</time>
      </trkpt>
      <trkpt lat="45.80396" lon="4.50721">
        <ele>691.2</ele>
        <time>2025-09-10T12:05:07Z</time>
      </trkpt>
      <trkpt lat="45.80399" lon="4.50725">
        <ele>691.2</ele>
        <time>2025-09-10T12:05:08Z</time>
      </trkpt>
      <trkpt lat="45.804" lon="4.50727">
        <ele>691</ele>
        <time>2025-09-10T12:05:09Z</time>
      </trkpt>
      <trkpt lat="45.80403" lon="4.50728">
        <ele>691</ele>
        <time>2025-09-10T12:05:10Z</time>
      </trkpt>
      <trkpt lat="45.80404" lon="4.50729">
        <ele>691</ele>
        <time>2025-09-10T12:05:11Z</time>
      </trkpt>
      <trkpt lat="45.80407" lon="4.50729">
        <ele>691</ele>
        <time>2025-09-10T12:05:12Z</time>
      </trkpt>
      <trkpt lat="45.80408" lon="4.50729">
        <ele>691.4</ele>
        <time>2025-09-10T12:05:13Z</time>
      </trkpt>
      <trkpt lat="45.80409" lon="4.50732">
        <ele>691.6</ele>
        <time>2025-09-10T12:05:14Z</time>
      </trkpt>
      <trkpt lat="45.80411" lon="4.50733">
        <ele>691.6</ele>
        <time>2025-09-10T12:05:15Z</time>
      </trkpt>
      <trkpt lat="45.80413" lon="4.50733">
        <ele>692</ele>
        <time>2025-09-10T12:05:16Z</time>
      </trkpt>
      <trkpt lat="45.80414" lon="4.50734">
        <ele>692.2</ele>
        <time>2025-09-10T12:05:17Z</time>
      </trkpt>
      <trkpt lat="45.80416" lon="4.50735">
        <ele>692.2</ele>
        <time>2025-09-10T12:05:18Z</time>
      </trkpt>
      <trkpt lat="45.80417" lon="4.50736">
        <ele>692.2</ele>
        <time>2025-09-10T12:05:19Z</time>
      </trkpt>
      <trkpt lat="45.80419" lon="4.50737">
        <ele>692.2</ele>
        <time>2025-09-10T12:05:20Z</time>
      </trkpt>
      <trkpt lat="45.80421" lon="4.50738">
        <ele>692.4</ele>
        <time>2025-09-10T12:05:21Z</time>
      </trkpt>
      <trkpt lat="45.80423" lon="4.50739">
        <ele>692.4</ele>
        <time>2025-09-10T12:05:22Z</time>
      </trkpt>
      <trkpt lat="45.80425" lon="4.5074">
        <ele>692.8</ele>
        <time>2025-09-10T12:05:23Z</time>
      </trkpt>
      <trkpt lat="45.80427" lon="4.5074">
        <ele>692.8</ele>
        <time>2025-09-10T12:05:24Z</time>
      </trkpt>
      <trkpt lat="45.8043" lon="4.5074">
        <ele>693</ele>
        <time>2025-09-10T12:05:25Z</time>
      </trkpt>
      <trkpt lat="45.80432" lon="4.5074">
        <ele>693</ele>
        <time>2025-09-10T12:05:26Z</time>
      </trkpt>
      <trkpt lat="45.80434" lon="4.5074">
        <ele>693</ele>
        <time>2025-09-10T12:05:27Z</time>
      </trkpt>
      <trkpt lat="45.80436" lon="4.5074">
        <ele>693</ele>
        <time>2025-09-10T12:05:28Z</time>
      </trkpt>
      <trkpt lat="45.80438" lon="4.50741">
        <ele>693</ele>
        <time>2025-09-10T12:05:29Z</time>
      </trkpt>
      <trkpt lat="45.8044" lon="4.50742">
        <ele>693</ele>
        <time>2025-09-10T12:05:30Z</time>
      </trkpt>
      <trkpt lat="45.80442" lon="4.50742">
        <ele>693</ele>
        <time>2025-09-10T12:05:31Z</time>
      </trkpt>
      <trkpt lat="45.80443" lon="4.50742">
        <ele>693.4</ele>
        <time>2025-09-10T12:05:32Z</time>
      </trkpt>
      <trkpt lat="45.80444" lon="4.50743">
        <ele>693.4</ele>
        <time>2025-09-10T12:05:33Z</time>
      </trkpt>
      <trkpt lat="45.80445" lon="4.50743">
        <ele>693.4</ele>
        <time>2025-09-10T12:05:34Z</time>
      </trkpt>
      <trkpt lat="45.80446" lon="4.50744">
        <ele>693.4</ele>
        <time>2025-09-10T12:05:35Z</time>
      </trkpt>
      <trkpt lat="45.80448" lon="4.50744">
        <ele>693.4</ele>
        <time>2025-09-10T12:05:36Z</time>
      </trkpt>
      <trkpt lat="45.80449" lon="4.50743">
        <ele>693.4</ele>
        <time>2025-09-10T12:05:37Z</time>
      </trkpt>
      <trkpt lat="45.80451" lon="4.50743">
        <ele>693.4</ele>
        <time>2025-09-10T12:05:38Z</time>
      </trkpt>
      <trkpt lat="45.80452" lon="4.50743">
        <ele>693.2</ele>
        <time>2025-09-10T12:05:39Z</time>
      </trkpt>
      <trkpt lat="45.80454" lon="4.50743">
        <ele>693.2</ele>
        <time>2025-09-10T12:05:40Z</time>
      </trkpt>
      <trkpt lat="45.80456" lon="4.50744">
        <ele>693.2</ele>
        <time>2025-09-10T12:05:41Z</time>
      </trkpt>
      <trkpt lat="45.80459" lon="4.50745">
        <ele>693.2</ele>
        <time>2025-09-10T12:05:42Z</time>
      </trkpt>
      <trkpt lat="45.8046" lon="4.50745">
        <ele>692.6</ele>
        <time>2025-09-10T12:05:43Z</time>
      </trkpt>
      <trkpt lat="45.80463" lon="4.50745">
        <ele>692.6</ele>
        <time>2025-09-10T12:05:44Z</time>
      </trkpt>
      <trkpt lat="45.80465" lon="4.50745">
        <ele>692.4</ele>
        <time>2025-09-10T12:05:45Z</time>
      </trkpt>
      <trkpt lat="45.80467" lon="4.50744">
        <ele>692.4</ele>
        <time>2025-09-10T12:05:46Z</time>
      </trkpt>
      <trkpt lat="45.8047" lon="4.50743">
        <ele>692.2</ele>
        <time>2025-09-10T12:05:47Z</time>
      </trkpt>
      <trkpt lat="45.80473" lon="4.50742">
        <ele>692.2</ele>
        <time>2025-09-10T12:05:48Z</time>
      </trkpt>
      <trkpt lat="45.80475" lon="4.50742">
        <ele>692.2</ele>
        <time>2025-09-10T12:05:49Z</time>
      </trkpt>
      <trkpt lat="45.80478" lon="4.50742">
        <ele>692.2</ele>
        <time>2025-09-10T12:05:50Z</time>
      </trkpt>
      <trkpt lat="45.8048" lon="4.50743">
        <ele>692.2</ele>
        <time>2025-09-10T12:05:51Z</time>
      </trkpt>
      <trkpt lat="45.80484" lon="4.50742">
        <ele>692.4</ele>
        <time>2025-09-10T12:05:52Z</time>
      </trkpt>
      <trkpt lat="45.80487" lon="4.50742">
        <ele>692.4</ele>
        <time>2025-09-10T12:05:53Z</time>
      </trkpt>
      <trkpt lat="45.80489" lon="4.50742">
        <ele>692.8</ele>
        <time>2025-09-10T12:05:54Z</time>
      </trkpt>
      <trkpt lat="45.8049" lon="4.50742">
        <ele>692.8</ele>
        <time>2025-09-10T12:05:55Z</time>
      </trkpt>
      <trkpt lat="45.80492" lon="4.50742">
        <ele>692.8</ele>
        <time>2025-09-10T12:05:56Z</time>
      </trkpt>
      <trkpt lat="45.80494" lon="4.50743">
        <ele>692.8</ele>
        <time>2025-09-10T12:05:57Z</time>
      </trkpt>
      <trkpt lat="45.80495" lon="4.50742">
        <ele>692.8</ele>
        <time>2025-09-10T12:05:58Z</time>
      </trkpt>
      <trkpt lat="45.80497" lon="4.50743">
        <ele>692.8</ele>
        <time>2025-09-10T12:05:59Z</time>
      </trkpt>
      <trkpt lat="45.80499" lon="4.50742">
        <ele>692.8</ele>
        <time>2025-09-10T12:06:00Z</time>
      </trkpt>
      <trkpt lat="45.80501" lon="4.50741">
        <ele>693.4</ele>
        <time>2025-09-10T12:06:01Z</time>
      </trkpt>
      <trkpt lat="45.80503" lon="4.5074">
        <ele>693.6</ele>
        <time>2025-09-10T12:06:02Z</time>
      </trkpt>
      <trkpt lat="45.80505" lon="4.50739">
        <ele>693.6</ele>
        <time>2025-09-10T12:06:03Z</time>
      </trkpt>
      <trkpt lat="45.80507" lon="4.50739">
        <ele>693.6</ele>
        <time>2025-09-10T12:06:04Z</time>
      </trkpt>
      <trkpt lat="45.80509" lon="4.50738">
        <ele>693.8</ele>
        <time>2025-09-10T12:06:05Z</time>
      </trkpt>
      <trkpt lat="45.8051" lon="4.50738">
        <ele>693.8</ele>
        <time>2025-09-10T12:06:06Z</time>
      </trkpt>
      <trkpt lat="45.80512" lon="4.50737">
        <ele>694.4</ele>
        <time>2025-09-10T12:06:07Z</time>
      </trkpt>
      <trkpt lat="45.80514" lon="4.50737">
        <ele>694.4</ele>
        <time>2025-09-10T12:06:08Z</time>
      </trkpt>
      <trkpt lat="45.80516" lon="4.50737">
        <ele>694.8</ele>
        <time>2025-09-10T12:06:09Z</time>
      </trkpt>
      <trkpt lat="45.80518" lon="4.50737">
        <ele>694.8</ele>
        <time>2025-09-10T12:06:10Z</time>
      </trkpt>
      <trkpt lat="45.8052" lon="4.50736">
        <ele>694.8</ele>
        <time>2025-09-10T12:06:11Z</time>
      </trkpt>
      <trkpt lat="45.80521" lon="4.50736">
        <ele>694.8</ele>
        <time>2025-09-10T12:06:12Z</time>
      </trkpt>
      <trkpt lat="45.80523" lon="4.50735">
        <ele>695.2</ele>
        <time>2025-09-10T12:06:13Z</time>
      </trkpt>
      <trkpt lat="45.80525" lon="4.50734">
        <ele>695.2</ele>
        <time>2025-09-10T12:06:14Z</time>
      </trkpt>
      <trkpt lat="45.80526" lon="4.50735">
        <ele>695.4</ele>
        <time>2025-09-10T12:06:15Z</time>
      </trkpt>
      <trkpt lat="45.80528" lon="4.50735">
        <ele>695.6</ele>
        <time>2025-09-10T12:06:16Z</time>
      </trkpt>
      <trkpt lat="45.8053" lon="4.50734">
        <ele>695.6</ele>
        <time>2025-09-10T12:06:17Z</time>
      </trkpt>
      <trkpt lat="45.80532" lon="4.50734">
        <ele>696</ele>
        <time>2025-09-10T12:06:18Z</time>
      </trkpt>
      <trkpt lat="45.80533" lon="4.50732">
        <ele>696.2</ele>
        <time>2025-09-10T12:06:19Z</time>
      </trkpt>
      <trkpt lat="45.80535" lon="4.50731">
        <ele>696.2</ele>
        <time>2025-09-10T12:06:20Z</time>
      </trkpt>
      <trkpt lat="45.80536" lon="4.5073">
        <ele>696.2</ele>
        <time>2025-09-10T12:06:21Z</time>
      </trkpt>
      <trkpt lat="45.80538" lon="4.50728">
        <ele>696.8</ele>
        <time>2025-09-10T12:06:22Z</time>
      </trkpt>
      <trkpt lat="45.8054" lon="4.50727">
        <ele>696.8</ele>
        <time>2025-09-10T12:06:23Z</time>
      </trkpt>
      <trkpt lat="45.80541" lon="4.50727">
        <ele>697</ele>
        <time>2025-09-10T12:06:24Z</time>
      </trkpt>
      <trkpt lat="45.80542" lon="4.50727">
        <ele>697</ele>
        <time>2025-09-10T12:06:25Z</time>
      </trkpt>
      <trkpt lat="45.80544" lon="4.50727">
        <ele>697.4</ele>
        <time>2025-09-10T12:06:26Z</time>
      </trkpt>
      <trkpt lat="45.80545" lon="4.50726">
        <ele>697.4</ele>
        <time>2025-09-10T12:06:27Z</time>
      </trkpt>
      <trkpt lat="45.80546" lon="4.50725">
        <ele>697.4</ele>
        <time>2025-09-10T12:06:28Z</time>
      </trkpt>
      <trkpt lat="45.80548" lon="4.50725">
        <ele>697.4</ele>
        <time>2025-09-10T12:06:29Z</time>
      </trkpt>
      <trkpt lat="45.80549" lon="4.50724">
        <ele>697.4</ele>
        <time>2025-09-10T12:06:30Z</time>
      </trkpt>
      <trkpt lat="45.80549" lon="4.50724">
        <ele>697.4</ele>
        <time>2025-09-10T12:06:31Z</time>
      </trkpt>
      <trkpt lat="45.8055" lon="4.50723">
        <ele>697.8</ele>
        <time>2025-09-10T12:06:32Z</time>
      </trkpt>
      <trkpt lat="45.80552" lon="4.50723">
        <ele>697.8</ele>
        <time>2025-09-10T12:06:33Z</time>
      </trkpt>
      <trkpt lat="45.80553" lon="4.50723">
        <ele>697.8</ele>
        <time>2025-09-10T12:06:34Z</time>
      </trkpt>
      <trkpt lat="45.80554" lon="4.50722">
        <ele>698</ele>
        <time>2025-09-10T12:06:35Z</time>
      </trkpt>
      <trkpt lat="45.80555" lon="4.50722">
        <ele>698.2</ele>
        <time>2025-09-10T12:06:36Z</time>
      </trkpt>
      <trkpt lat="45.80556" lon="4.5072">
        <ele>698.2</ele>
        <time>2025-09-10T12:06:37Z</time>
      </trkpt>
      <trkpt lat="45.80557" lon="4.50719">
        <ele>698.6</ele>
        <time>2025-09-10T12:06:38Z</time>
      </trkpt>
      <trkpt lat="45.80558" lon="4.50719">
        <ele>699</ele>
        <time>2025-09-10T12:06:39Z</time>
      </trkpt>
      <trkpt lat="45.80559" lon="4.50719">
        <ele>699</ele>
        <time>2025-09-10T12:06:40Z</time>
      </trkpt>
      <trkpt lat="45.8056" lon="4.50719">
        <ele>699</ele>
        <time>2025-09-10T12:06:41Z</time>
      </trkpt>
      <trkpt lat="45.80561" lon="4.50718">
        <ele>699.4</ele>
        <time>2025-09-10T12:06:42Z</time>
      </trkpt>
      <trkpt lat="45.80561" lon="4.50718">
        <ele>699.6</ele>
        <time>2025-09-10T12:06:43Z</time>
      </trkpt>
      <trkpt lat="45.80562" lon="4.50717">
        <ele>699.6</ele>
        <time>2025-09-10T12:06:44Z</time>
      </trkpt>
      <trkpt lat="45.80562" lon="4.50716">
        <ele>699.6</ele>
        <time>2025-09-10T12:06:45Z</time>
      </trkpt>
      <trkpt lat="45.80563" lon="4.50715">
        <ele>699.6</ele>
        <time>2025-09-10T12:06:46Z</time>
      </trkpt>
      <trkpt lat="45.80564" lon="4.50713">
        <ele>699.6</ele>
        <time>2025-09-10T12:06:47Z</time>
      </trkpt>
      <trkpt lat="45.80566" lon="4.50712">
        <ele>699.6</ele>
        <time>2025-09-10T12:06:48Z</time>
      </trkpt>
      <trkpt lat="45.80567" lon="4.50711">
        <ele>699.8</ele>
        <time>2025-09-10T12:06:49Z</time>
      </trkpt>
      <trkpt lat="45.80568" lon="4.5071">
        <ele>700</ele>
        <time>2025-09-10T12:06:50Z</time>
      </trkpt>
      <trkpt lat="45.8057" lon="4.5071">
        <ele>700</ele>
        <time>2025-09-10T12:06:51Z</time>
      </trkpt>
      <trkpt lat="45.80571" lon="4.5071">
        <ele>700</ele>
        <time>2025-09-10T12:06:52Z</time>
      </trkpt>
      <trkpt lat="45.80573" lon="4.5071">
        <ele>699.8</ele>
        <time>2025-09-10T12:06:53Z</time>
      </trkpt>
      <trkpt lat="45.80576" lon="4.50709">
        <ele>699.8</ele>
        <time>2025-09-10T12:06:54Z</time>
      </trkpt>
      <trkpt lat="45.80578" lon="4.50708">
        <ele>699.8</ele>
        <time>2025-09-10T12:06:55Z</time>
      </trkpt>
      <trkpt lat="45.80581" lon="4.50708">
        <ele>699.8</ele>
        <time>2025-09-10T12:06:56Z</time>
      </trkpt>
      <trkpt lat="45.80583" lon="4.50707">
        <ele>699.8</ele>
        <time>2025-09-10T12:06:57Z</time>
      </trkpt>
      <trkpt lat="45.80585" lon="4.50707">
        <ele>699.8</ele>
        <time>2025-09-10T12:06:58Z</time>
      </trkpt>
      <trkpt lat="45.80588" lon="4.50708">
        <ele>699.8</ele>
        <time>2025-09-10T12:06:59Z</time>
      </trkpt>
      <trkpt lat="45.8059" lon="4.50709">
        <ele>699.8</ele>
        <time>2025-09-10T12:07:00Z</time>
      </trkpt>
      <trkpt lat="45.80592" lon="4.50709">
        <ele>699.8</ele>
        <time>2025-09-10T12:07:01Z</time>
      </trkpt>
      <trkpt lat="45.80594" lon="4.5071">
        <ele>699.8</ele>
        <time>2025-09-10T12:07:02Z</time>
      </trkpt>
      <trkpt lat="45.80597" lon="4.50712">
        <ele>699.8</ele>
        <time>2025-09-10T12:07:03Z</time>
      </trkpt>
      <trkpt lat="45.806" lon="4.50712">
        <ele>700</ele>
        <time>2025-09-10T12:07:04Z</time>
      </trkpt>
      <trkpt lat="45.80602" lon="4.50713">
        <ele>700</ele>
        <time>2025-09-10T12:07:05Z</time>
      </trkpt>
      <trkpt lat="45.80604" lon="4.50713">
        <ele>700.2</ele>
        <time>2025-09-10T12:07:06Z</time>
      </trkpt>
      <trkpt lat="45.80607" lon="4.50713">
        <ele>700.2</ele>
        <time>2025-09-10T12:07:07Z</time>
      </trkpt>
      <trkpt lat="45.8061" lon="4.50714">
        <ele>700.6</ele>
        <time>2025-09-10T12:07:08Z</time>
      </trkpt>
      <trkpt lat="45.80612" lon="4.50714">
        <ele>700.8</ele>
        <time>2025-09-10T12:07:09Z</time>
      </trkpt>
      <trkpt lat="45.80615" lon="4.50715">
        <ele>700.8</ele>
        <time>2025-09-10T12:07:10Z</time>
      </trkpt>
      <trkpt lat="45.80617" lon="4.50716">
        <ele>700.8</ele>
        <time>2025-09-10T12:07:11Z</time>
      </trkpt>
      <trkpt lat="45.80619" lon="4.50717">
        <ele>700.8</ele>
        <time>2025-09-10T12:07:12Z</time>
      </trkpt>
      <trkpt lat="45.80621" lon="4.50717">
        <ele>700.8</ele>
        <time>2025-09-10T12:07:13Z</time>
      </trkpt>
      <trkpt lat="45.80623" lon="4.50718">
        <ele>700.8</ele>
        <time>2025-09-10T12:07:14Z</time>
      </trkpt>
      <trkpt lat="45.80626" lon="4.50718">
        <ele>700.8</ele>
        <time>2025-09-10T12:07:15Z</time>
      </trkpt>
      <trkpt lat="45.80628" lon="4.50718">
        <ele>701</ele>
        <time>2025-09-10T12:07:16Z</time>
      </trkpt>
      <trkpt lat="45.80631" lon="4.50718">
        <ele>701</ele>
        <time>2025-09-10T12:07:17Z</time>
      </trkpt>
      <trkpt lat="45.80634" lon="4.50718">
        <ele>701</ele>
        <time>2025-09-10T12:07:18Z</time>
      </trkpt>
      <trkpt lat="45.80636" lon="4.50718">
        <ele>700.8</ele>
        <time>2025-09-10T12:07:19Z</time>
      </trkpt>
      <trkpt lat="45.80639" lon="4.50717">
        <ele>700.8</ele>
        <time>2025-09-10T12:07:20Z</time>
      </trkpt>
      <trkpt lat="45.80642" lon="4.50717">
        <ele>700.8</ele>
        <time>2025-09-10T12:07:21Z</time>
      </trkpt>
      <trkpt lat="45.80644" lon="4.50717">
        <ele>700.8</ele>
        <time>2025-09-10T12:07:22Z</time>
      </trkpt>
      <trkpt lat="45.80646" lon="4.50716">
        <ele>700.8</ele>
        <time>2025-09-10T12:07:23Z</time>
      </trkpt>
      <trkpt lat="45.80648" lon="4.50716">
        <ele>700.4</ele>
        <time>2025-09-10T12:07:24Z</time>
      </trkpt>
      <trkpt lat="45.8065" lon="4.50716">
        <ele>700.4</ele>
        <time>2025-09-10T12:07:25Z</time>
      </trkpt>
      <trkpt lat="45.8065" lon="4.50716">
        <ele>700.4</ele>
        <time>2025-09-10T12:07:26Z</time>
      </trkpt>
      <trkpt lat="45.8065" lon="4.50716">
        <ele>700.4</ele>
        <time>2025-09-10T12:07:27Z</time>
      </trkpt>
      <trkpt lat="45.80652" lon="4.50718">
        <ele>700.4</ele>
        <time>2025-09-10T12:07:38Z</time>
      </trkpt>
      <trkpt lat="45.80653" lon="4.50718">
        <ele>700.4</ele>
        <time>2025-09-10T12:07:39Z</time>
      </trkpt>
      <trkpt lat="45.80655" lon="4.50719">
        <ele>700.4</ele>
        <time>2025-09-10T12:07:40Z</time>
      </trkpt>
      <trkpt lat="45.80658" lon="4.50721">
        <ele>700</ele>
        <time>2025-09-10T12:07:41Z</time>
      </trkpt>
      <trkpt lat="45.80661" lon="4.50724">
        <ele>699.6</ele>
        <time>2025-09-10T12:07:42Z</time>
      </trkpt>
      <trkpt lat="45.80664" lon="4.50727">
        <ele>699.6</ele>
        <time>2025-09-10T12:07:43Z</time>
      </trkpt>
      <trkpt lat="45.80667" lon="4.50729">
        <ele>700</ele>
        <time>2025-09-10T12:07:44Z</time>
      </trkpt>
      <trkpt lat="45.8067" lon="4.50732">
        <ele>699.6</ele>
        <time>2025-09-10T12:07:45Z</time>
      </trkpt>
      <trkpt lat="45.80676" lon="4.50735">
        <ele>699.2</ele>
        <time>2025-09-10T12:07:46Z</time>
      </trkpt>
      <trkpt lat="45.8068" lon="4.50739">
        <ele>699</ele>
        <time>2025-09-10T12:07:47Z</time>
      </trkpt>
      <trkpt lat="45.80684" lon="4.50743">
        <ele>699</ele>
        <time>2025-09-10T12:07:48Z</time>
      </trkpt>
      <trkpt lat="45.80688" lon="4.50748">
        <ele>698.4</ele>
        <time>2025-09-10T12:07:49Z</time>
      </trkpt>
      <trkpt lat="45.80692" lon="4.50752">
        <ele>698.4</ele>
        <time>2025-09-10T12:07:50Z</time>
      </trkpt>
      <trkpt lat="45.80695" lon="4.50756">
        <ele>698</ele>
        <time>2025-09-10T12:07:51Z</time>
      </trkpt>
      <trkpt lat="45.807" lon="4.50759">
        <ele>697.4</ele>
        <time>2025-09-10T12:07:52Z</time>
      </trkpt>
      <trkpt lat="45.80705" lon="4.50765">
        <ele>697</ele>
        <time>2025-09-10T12:07:53Z</time>
      </trkpt>
      <trkpt lat="45.80712" lon="4.50775">
        <ele>696.4</ele>
        <time>2025-09-10T12:07:54Z</time>
      </trkpt>
      <trkpt lat="45.80716" lon="4.5078">
        <ele>696.4</ele>
        <time>2025-09-10T12:07:55Z</time>
      </trkpt>
      <trkpt lat="45.80718" lon="4.50784">
        <ele>696.4</ele>
        <time>2025-09-10T12:07:56Z</time>
      </trkpt>
      <trkpt lat="45.80722" lon="4.50789">
        <ele>696.2</ele>
        <time>2025-09-10T12:07:57Z</time>
      </trkpt>
      <trkpt lat="45.80726" lon="4.50793">
        <ele>696.2</ele>
        <time>2025-09-10T12:07:58Z</time>
      </trkpt>
      <trkpt lat="45.80727" lon="4.50798">
        <ele>696.2</ele>
        <time>2025-09-10T12:07:59Z</time>
      </trkpt>
      <trkpt lat="45.8073" lon="4.50803">
        <ele>696.2</ele>
        <time>2025-09-10T12:08:00Z</time>
      </trkpt>
      <trkpt lat="45.80733" lon="4.50806">
        <ele>696.2</ele>
        <time>2025-09-10T12:08:01Z</time>
      </trkpt>
      <trkpt lat="45.80734" lon="4.5081">
        <ele>696.2</ele>
        <time>2025-09-10T12:08:02Z</time>
      </trkpt>
      <trkpt lat="45.80735" lon="4.50815">
        <ele>696.2</ele>
        <time>2025-09-10T12:08:03Z</time>
      </trkpt>
      <trkpt lat="45.80737" lon="4.50818">
        <ele>696.8</ele>
        <time>2025-09-10T12:08:04Z</time>
      </trkpt>
      <trkpt lat="45.80737" lon="4.50818">
        <ele>696.8</ele>
        <time>2025-09-10T12:08:05Z</time>
      </trkpt>
      <trkpt lat="45.80737" lon="4.50821">
        <ele>697</ele>
        <time>2025-09-10T12:08:06Z</time>
      </trkpt>
      <trkpt lat="45.8074" lon="4.50823">
        <ele>697</ele>
        <time>2025-09-10T12:08:07Z</time>
      </trkpt>
      <trkpt lat="45.80741" lon="4.50827">
        <ele>697.4</ele>
        <time>2025-09-10T12:08:08Z</time>
      </trkpt>
      <trkpt lat="45.80742" lon="4.50831">
        <ele>697.4</ele>
        <time>2025-09-10T12:08:09Z</time>
      </trkpt>
      <trkpt lat="45.80743" lon="4.50835">
        <ele>697.4</ele>
        <time>2025-09-10T12:08:10Z</time>
      </trkpt>
      <trkpt lat="45.80744" lon="4.50839">
        <ele>697.6</ele>
        <time>2025-09-10T12:08:11Z</time>
      </trkpt>
      <trkpt lat="45.80745" lon="4.50842">
        <ele>697.6</ele>
        <time>2025-09-10T12:08:12Z</time>
      </trkpt>
      <trkpt lat="45.80747" lon="4.50846">
        <ele>697.2</ele>
        <time>2025-09-10T12:08:13Z</time>
      </trkpt>
      <trkpt lat="45.80748" lon="4.50849">
        <ele>697.2</ele>
        <time>2025-09-10T12:08:14Z</time>
      </trkpt>
      <trkpt lat="45.8075" lon="4.50853">
        <ele>697.8</ele>
        <time>2025-09-10T12:08:15Z</time>
      </trkpt>
      <trkpt lat="45.80751" lon="4.50856">
        <ele>697.8</ele>
        <time>2025-09-10T12:08:16Z</time>
      </trkpt>
      <trkpt lat="45.80752" lon="4.50858">
        <ele>698.2</ele>
        <time>2025-09-10T12:08:17Z</time>
      </trkpt>
      <trkpt lat="45.80753" lon="4.50861">
        <ele>698.2</ele>
        <time>2025-09-10T12:08:18Z</time>
      </trkpt>
      <trkpt lat="45.80755" lon="4.50864">
        <ele>698.4</ele>
        <time>2025-09-10T12:08:19Z</time>
      </trkpt>
      <trkpt lat="45.80757" lon="4.50867">
        <ele>698.6</ele>
        <time>2025-09-10T12:08:20Z</time>
      </trkpt>
      <trkpt lat="45.80758" lon="4.5087">
        <ele>698.6</ele>
        <time>2025-09-10T12:08:21Z</time>
      </trkpt>
      <trkpt lat="45.80759" lon="4.50873">
        <ele>698.6</ele>
        <time>2025-09-10T12:08:22Z</time>
      </trkpt>
      <trkpt lat="45.8076" lon="4.50876">
        <ele>698.6</ele>
        <time>2025-09-10T12:08:23Z</time>
      </trkpt>
      <trkpt lat="45.8076" lon="4.50879">
        <ele>699.2</ele>
        <time>2025-09-10T12:08:24Z</time>
      </trkpt>
      <trkpt lat="45.80761" lon="4.50882">
        <ele>699.2</ele>
        <time>2025-09-10T12:08:25Z</time>
      </trkpt>
      <trkpt lat="45.80762" lon="4.50885">
        <ele>699.2</ele>
        <time>2025-09-10T12:08:26Z</time>
      </trkpt>
      <trkpt lat="45.80763" lon="4.50889">
        <ele>699.2</ele>
        <time>2025-09-10T12:08:27Z</time>
      </trkpt>
      <trkpt lat="45.80764" lon="4.50892">
        <ele>699.2</ele>
        <time>2025-09-10T12:08:28Z</time>
      </trkpt>
      <trkpt lat="45.80766" lon="4.50896">
        <ele>699.2</ele>
        <time>2025-09-10T12:08:29Z</time>
      </trkpt>
      <trkpt lat="45.80767" lon="4.509">
        <ele>699.2</ele>
        <time>2025-09-10T12:08:30Z</time>
      </trkpt>
      <trkpt lat="45.80769" lon="4.50903">
        <ele>699.2</ele>
        <time>2025-09-10T12:08:31Z</time>
      </trkpt>
      <trkpt lat="45.8077" lon="4.50907">
        <ele>699.2</ele>
        <time>2025-09-10T12:08:32Z</time>
      </trkpt>
      <trkpt lat="45.80772" lon="4.50911">
        <ele>699.2</ele>
        <time>2025-09-10T12:08:33Z</time>
      </trkpt>
      <trkpt lat="45.80774" lon="4.50915">
        <ele>699.2</ele>
        <time>2025-09-10T12:08:34Z</time>
      </trkpt>
      <trkpt lat="45.80776" lon="4.50919">
        <ele>698.6</ele>
        <time>2025-09-10T12:08:35Z</time>
      </trkpt>
      <trkpt lat="45.80778" lon="4.50922">
        <ele>698.6</ele>
        <time>2025-09-10T12:08:36Z</time>
      </trkpt>
      <trkpt lat="45.8078" lon="4.50925">
        <ele>698.6</ele>
        <time>2025-09-10T12:08:37Z</time>
      </trkpt>
      <trkpt lat="45.80782" lon="4.50928">
        <ele>699</ele>
        <time>2025-09-10T12:08:38Z</time>
      </trkpt>
      <trkpt lat="45.80783" lon="4.50931">
        <ele>699</ele>
        <time>2025-09-10T12:08:39Z</time>
      </trkpt>
      <trkpt lat="45.80785" lon="4.50934">
        <ele>699.4</ele>
        <time>2025-09-10T12:08:40Z</time>
      </trkpt>
      <trkpt lat="45.80786" lon="4.50938">
        <ele>699.4</ele>
        <time>2025-09-10T12:08:41Z</time>
      </trkpt>
      <trkpt lat="45.80787" lon="4.50941">
        <ele>699.2</ele>
        <time>2025-09-10T12:08:42Z</time>
      </trkpt>
      <trkpt lat="45.80787" lon="4.50943">
        <ele>699.2</ele>
        <time>2025-09-10T12:08:43Z</time>
      </trkpt>
      <trkpt lat="45.80788" lon="4.50946">
        <ele>699.4</ele>
        <time>2025-09-10T12:08:44Z</time>
      </trkpt>
      <trkpt lat="45.8079" lon="4.5095">
        <ele>699.6</ele>
        <time>2025-09-10T12:08:45Z</time>
      </trkpt>
      <trkpt lat="45.80792" lon="4.50953">
        <ele>699.6</ele>
        <time>2025-09-10T12:08:46Z</time>
      </trkpt>
      <trkpt lat="45.80794" lon="4.50956">
        <ele>700</ele>
        <time>2025-09-10T12:08:47Z</time>
      </trkpt>
      <trkpt lat="45.80796" lon="4.50957">
        <ele>700.2</ele>
        <time>2025-09-10T12:08:48Z</time>
      </trkpt>
      <trkpt lat="45.80797" lon="4.50959">
        <ele>700.2</ele>
        <time>2025-09-10T12:08:49Z</time>
      </trkpt>
      <trkpt lat="45.80798" lon="4.50962">
        <ele>700.2</ele>
        <time>2025-09-10T12:08:50Z</time>
      </trkpt>
      <trkpt lat="45.80799" lon="4.50965">
        <ele>700.2</ele>
        <time>2025-09-10T12:08:51Z</time>
      </trkpt>
      <trkpt lat="45.80801" lon="4.50967">
        <ele>700.2</ele>
        <time>2025-09-10T12:08:52Z</time>
      </trkpt>
      <trkpt lat="45.80804" lon="4.50968">
        <ele>700.2</ele>
        <time>2025-09-10T12:08:53Z</time>
      </trkpt>
      <trkpt lat="45.80807" lon="4.5097">
        <ele>700.2</ele>
        <time>2025-09-10T12:08:54Z</time>
      </trkpt>
      <trkpt lat="45.8081" lon="4.50971">
        <ele>700.4</ele>
        <time>2025-09-10T12:08:55Z</time>
      </trkpt>
      <trkpt lat="45.80812" lon="4.50973">
        <ele>700.4</ele>
        <time>2025-09-10T12:08:56Z</time>
      </trkpt>
      <trkpt lat="45.80815" lon="4.50976">
        <ele>700.8</ele>
        <time>2025-09-10T12:08:57Z</time>
      </trkpt>
      <trkpt lat="45.80817" lon="4.50978">
        <ele>700.8</ele>
        <time>2025-09-10T12:08:58Z</time>
      </trkpt>
      <trkpt lat="45.80818" lon="4.50982">
        <ele>701.2</ele>
        <time>2025-09-10T12:08:59Z</time>
      </trkpt>
      <trkpt lat="45.80819" lon="4.50985">
        <ele>701.2</ele>
        <time>2025-09-10T12:09:00Z</time>
      </trkpt>
      <trkpt lat="45.80821" lon="4.50989">
        <ele>701.2</ele>
        <time>2025-09-10T12:09:01Z</time>
      </trkpt>
      <trkpt lat="45.80822" lon="4.50993">
        <ele>701.2</ele>
        <time>2025-09-10T12:09:02Z</time>
      </trkpt>
      <trkpt lat="45.80824" lon="4.50996">
        <ele>701</ele>
        <time>2025-09-10T12:09:03Z</time>
      </trkpt>
      <trkpt lat="45.80826" lon="4.50999">
        <ele>700.6</ele>
        <time>2025-09-10T12:09:04Z</time>
      </trkpt>
      <trkpt lat="45.80828" lon="4.51001">
        <ele>700.6</ele>
        <time>2025-09-10T12:09:05Z</time>
      </trkpt>
      <trkpt lat="45.8083" lon="4.51003">
        <ele>700.6</ele>
        <time>2025-09-10T12:09:06Z</time>
      </trkpt>
      <trkpt lat="45.80831" lon="4.51005">
        <ele>700.6</ele>
        <time>2025-09-10T12:09:07Z</time>
      </trkpt>
      <trkpt lat="45.80832" lon="4.51005">
        <ele>700.6</ele>
        <time>2025-09-10T12:09:08Z</time>
      </trkpt>
      <trkpt lat="45.80832" lon="4.51006">
        <ele>700.6</ele>
        <time>2025-09-10T12:09:09Z</time>
      </trkpt>
      <trkpt lat="45.80838" lon="4.5101">
        <ele>700.2</ele>
        <time>2025-09-10T12:09:45Z</time>
      </trkpt>
      <trkpt lat="45.8084" lon="4.51014">
        <ele>700.2</ele>
        <time>2025-09-10T12:09:46Z</time>
      </trkpt>
      <trkpt lat="45.80842" lon="4.51017">
        <ele>700.2</ele>
        <time>2025-09-10T12:09:47Z</time>
      </trkpt>
      <trkpt lat="45.80845" lon="4.51021">
        <ele>700</ele>
        <time>2025-09-10T12:09:48Z</time>
      </trkpt>
      <trkpt lat="45.80847" lon="4.51025">
        <ele>700</ele>
        <time>2025-09-10T12:09:49Z</time>
      </trkpt>
      <trkpt lat="45.80849" lon="4.51028">
        <ele>699.8</ele>
        <time>2025-09-10T12:09:50Z</time>
      </trkpt>
      <trkpt lat="45.80851" lon="4.51031">
        <ele>699.8</ele>
        <time>2025-09-10T12:09:51Z</time>
      </trkpt>
      <trkpt lat="45.80852" lon="4.51034">
        <ele>699.8</ele>
        <time>2025-09-10T12:09:52Z</time>
      </trkpt>
      <trkpt lat="45.80854" lon="4.51037">
        <ele>699.8</ele>
        <time>2025-09-10T12:09:53Z</time>
      </trkpt>
      <trkpt lat="45.80855" lon="4.5104">
        <ele>699.8</ele>
        <time>2025-09-10T12:09:54Z</time>
      </trkpt>
      <trkpt lat="45.80857" lon="4.51043">
        <ele>699.8</ele>
        <time>2025-09-10T12:09:55Z</time>
      </trkpt>
      <trkpt lat="45.80859" lon="4.51046">
        <ele>699.8</ele>
        <time>2025-09-10T12:09:56Z</time>
      </trkpt>
      <trkpt lat="45.80861" lon="4.5105">
        <ele>699.8</ele>
        <time>2025-09-10T12:09:57Z</time>
      </trkpt>
      <trkpt lat="45.80864" lon="4.51053">
        <ele>699.8</ele>
        <time>2025-09-10T12:09:58Z</time>
      </trkpt>
      <trkpt lat="45.80866" lon="4.51057">
        <ele>699.8</ele>
        <time>2025-09-10T12:09:59Z</time>
      </trkpt>
      <trkpt lat="45.80868" lon="4.51061">
        <ele>699.8</ele>
        <time>2025-09-10T12:10:00Z</time>
      </trkpt>
      <trkpt lat="45.8087" lon="4.51066">
        <ele>699.8</ele>
        <time>2025-09-10T12:10:01Z</time>
      </trkpt>
      <trkpt lat="45.80873" lon="4.51071">
        <ele>699.4</ele>
        <time>2025-09-10T12:10:02Z</time>
      </trkpt>
      <trkpt lat="45.80874" lon="4.51075">
        <ele>699.4</ele>
        <time>2025-09-10T12:10:03Z</time>
      </trkpt>
      <trkpt lat="45.80876" lon="4.51079">
        <ele>699.4</ele>
        <time>2025-09-10T12:10:04Z</time>
      </trkpt>
      <trkpt lat="45.80877" lon="4.51083">
        <ele>699.4</ele>
        <time>2025-09-10T12:10:05Z</time>
      </trkpt>
      <trkpt lat="45.80879" lon="4.51087">
        <ele>699</ele>
        <time>2025-09-10T12:10:06Z</time>
      </trkpt>
      <trkpt lat="45.8088" lon="4.51091">
        <ele>699</ele>
        <time>2025-09-10T12:10:07Z</time>
      </trkpt>
      <trkpt lat="45.80882" lon="4.51094">
        <ele>698.8</ele>
        <time>2025-09-10T12:10:08Z</time>
      </trkpt>
      <trkpt lat="45.80883" lon="4.51098">
        <ele>698.4</ele>
        <time>2025-09-10T12:10:09Z</time>
      </trkpt>
      <trkpt lat="45.80884" lon="4.51101">
        <ele>698.4</ele>
        <time>2025-09-10T12:10:10Z</time>
      </trkpt>
      <trkpt lat="45.80886" lon="4.51105">
        <ele>698.4</ele>
        <time>2025-09-10T12:10:11Z</time>
      </trkpt>
      <trkpt lat="45.80888" lon="4.51108">
        <ele>697.4</ele>
        <time>2025-09-10T12:10:12Z</time>
      </trkpt>
      <trkpt lat="45.80889" lon="4.51111">
        <ele>697</ele>
        <time>2025-09-10T12:10:13Z</time>
      </trkpt>
      <trkpt lat="45.8089" lon="4.51115">
        <ele>696.4</ele>
        <time>2025-09-10T12:10:14Z</time>
      </trkpt>
      <trkpt lat="45.80892" lon="4.51118">
        <ele>696.4</ele>
        <time>2025-09-10T12:10:15Z</time>
      </trkpt>
      <trkpt lat="45.80893" lon="4.51122">
        <ele>696.2</ele>
        <time>2025-09-10T12:10:16Z</time>
      </trkpt>
      <trkpt lat="45.80895" lon="4.51125">
        <ele>695.8</ele>
        <time>2025-09-10T12:10:17Z</time>
      </trkpt>
      <trkpt lat="45.80896" lon="4.51128">
        <ele>695.6</ele>
        <time>2025-09-10T12:10:18Z</time>
      </trkpt>
      <trkpt lat="45.80896" lon="4.51131">
        <ele>695.6</ele>
        <time>2025-09-10T12:10:19Z</time>
      </trkpt>
      <trkpt lat="45.80897" lon="4.51135">
        <ele>695</ele>
        <time>2025-09-10T12:10:20Z</time>
      </trkpt>
      <trkpt lat="45.80898" lon="4.51138">
        <ele>694.8</ele>
        <time>2025-09-10T12:10:21Z</time>
      </trkpt>
      <trkpt lat="45.80899" lon="4.5114">
        <ele>694.8</ele>
        <time>2025-09-10T12:10:22Z</time>
      </trkpt>
      <trkpt lat="45.80899" lon="4.51142">
        <ele>694.8</ele>
        <time>2025-09-10T12:10:23Z</time>
      </trkpt>
      <trkpt lat="45.80899" lon="4.51142">
        <ele>694.6</ele>
        <time>2025-09-10T12:10:24Z</time>
      </trkpt>
      <trkpt lat="45.80899" lon="4.51141">
        <ele>694.6</ele>
        <time>2025-09-10T12:10:25Z</time>
      </trkpt>
      <trkpt lat="45.80895" lon="4.51141">
        <ele>694.2</ele>
        <time>2025-09-10T12:10:49Z</time>
      </trkpt>
      <trkpt lat="45.80895" lon="4.51142">
        <ele>694.2</ele>
        <time>2025-09-10T12:10:50Z</time>
      </trkpt>
      <trkpt lat="45.80895" lon="4.51145">
        <ele>693.8</ele>
        <time>2025-09-10T12:10:51Z</time>
      </trkpt>
      <trkpt lat="45.80896" lon="4.51147">
        <ele>693.8</ele>
        <time>2025-09-10T12:10:52Z</time>
      </trkpt>
      <trkpt lat="45.80896" lon="4.5115">
        <ele>693.6</ele>
        <time>2025-09-10T12:10:53Z</time>
      </trkpt>
      <trkpt lat="45.80896" lon="4.51153">
        <ele>693.6</ele>
        <time>2025-09-10T12:10:54Z</time>
      </trkpt>
      <trkpt lat="45.80896" lon="4.51155">
        <ele>693.2</ele>
        <time>2025-09-10T12:10:55Z</time>
      </trkpt>
      <trkpt lat="45.80897" lon="4.51158">
        <ele>692.8</ele>
        <time>2025-09-10T12:10:56Z</time>
      </trkpt>
      <trkpt lat="45.80898" lon="4.51161">
        <ele>692.6</ele>
        <time>2025-09-10T12:10:57Z</time>
      </trkpt>
      <trkpt lat="45.80898" lon="4.51164">
        <ele>691</ele>
        <time>2025-09-10T12:10:58Z</time>
      </trkpt>
      <trkpt lat="45.80899" lon="4.51166">
        <ele>691.6</ele>
        <time>2025-09-10T12:10:59Z</time>
      </trkpt>
      <trkpt lat="45.809" lon="4.51169">
        <ele>691.6</ele>
        <time>2025-09-10T12:11:00Z</time>
      </trkpt>
      <trkpt lat="45.809" lon="4.51171">
        <ele>691.6</ele>
        <time>2025-09-10T12:11:01Z</time>
      </trkpt>
      <trkpt lat="45.80901" lon="4.51174">
        <ele>691.6</ele>
        <time>2025-09-10T12:11:02Z</time>
      </trkpt>
      <trkpt lat="45.80902" lon="4.51176">
        <ele>691.2</ele>
        <time>2025-09-10T12:11:03Z</time>
      </trkpt>
      <trkpt lat="45.80903" lon="4.51179">
        <ele>691.2</ele>
        <time>2025-09-10T12:11:04Z</time>
      </trkpt>
      <trkpt lat="45.80905" lon="4.51182">
        <ele>691.2</ele>
        <time>2025-09-10T12:11:05Z</time>
      </trkpt>
      <trkpt lat="45.80906" lon="4.51186">
        <ele>691.2</ele>
        <time>2025-09-10T12:11:06Z</time>
      </trkpt>
      <trkpt lat="45.80908" lon="4.5119">
        <ele>691</ele>
        <time>2025-09-10T12:11:07Z</time>
      </trkpt>
      <trkpt lat="45.8091" lon="4.51193">
        <ele>691</ele>
        <time>2025-09-10T12:11:08Z</time>
      </trkpt>
      <trkpt lat="45.80911" lon="4.51196">
        <ele>691</ele>
        <time>2025-09-10T12:11:09Z</time>
      </trkpt>
      <trkpt lat="45.80913" lon="4.51199">
        <ele>691</ele>
        <time>2025-09-10T12:11:10Z</time>
      </trkpt>
      <trkpt lat="45.80915" lon="4.51202">
        <ele>691</ele>
        <time>2025-09-10T12:11:11Z</time>
      </trkpt>
      <trkpt lat="45.80917" lon="4.51204">
        <ele>690.8</ele>
        <time>2025-09-10T12:11:12Z</time>
      </trkpt>
      <trkpt lat="45.80918" lon="4.51207">
        <ele>690.8</ele>
        <time>2025-09-10T12:11:13Z</time>
      </trkpt>
      <trkpt lat="45.8092" lon="4.51211">
        <ele>690.8</ele>
        <time>2025-09-10T12:11:14Z</time>
      </trkpt>
      <trkpt lat="45.80922" lon="4.51215">
        <ele>690.8</ele>
        <time>2025-09-10T12:11:15Z</time>
      </trkpt>
      <trkpt lat="45.80924" lon="4.51218">
        <ele>690.4</ele>
        <time>2025-09-10T12:11:16Z</time>
      </trkpt>
      <trkpt lat="45.80925" lon="4.5122">
        <ele>690.4</ele>
        <time>2025-09-10T12:11:17Z</time>
      </trkpt>
      <trkpt lat="45.80928" lon="4.51223">
        <ele>690.4</ele>
        <time>2025-09-10T12:11:18Z</time>
      </trkpt>
      <trkpt lat="45.8093" lon="4.51225">
        <ele>690.4</ele>
        <time>2025-09-10T12:11:19Z</time>
      </trkpt>
      <trkpt lat="45.80932" lon="4.51228">
        <ele>690.4</ele>
        <time>2025-09-10T12:11:20Z</time>
      </trkpt>
      <trkpt lat="45.80934" lon="4.51231">
        <ele>690.4</ele>
        <time>2025-09-10T12:11:21Z</time>
      </trkpt>
      <trkpt lat="45.80935" lon="4.51234">
        <ele>690.6</ele>
        <time>2025-09-10T12:11:22Z</time>
      </trkpt>
      <trkpt lat="45.80937" lon="4.51236">
        <ele>690.6</ele>
        <time>2025-09-10T12:11:23Z</time>
      </trkpt>
      <trkpt lat="45.80939" lon="4.51239">
        <ele>690.8</ele>
        <time>2025-09-10T12:11:24Z</time>
      </trkpt>
      <trkpt lat="45.80941" lon="4.51241">
        <ele>690.8</ele>
        <time>2025-09-10T12:11:25Z</time>
      </trkpt>
      <trkpt lat="45.80943" lon="4.51243">
        <ele>690.8</ele>
        <time>2025-09-10T12:11:26Z</time>
      </trkpt>
      <trkpt lat="45.80945" lon="4.51246">
        <ele>690.8</ele>
        <time>2025-09-10T12:11:27Z</time>
      </trkpt>
      <trkpt lat="45.80947" lon="4.51248">
        <ele>690.8</ele>
        <time>2025-09-10T12:11:28Z</time>
      </trkpt>
      <trkpt lat="45.80949" lon="4.51251">
        <ele>691</ele>
        <time>2025-09-10T12:11:29Z</time>
      </trkpt>
      <trkpt lat="45.80951" lon="4.51253">
        <ele>691</ele>
        <time>2025-09-10T12:11:30Z</time>
      </trkpt>
      <trkpt lat="45.80953" lon="4.51257">
        <ele>691.4</ele>
        <time>2025-09-10T12:11:31Z</time>
      </trkpt>
      <trkpt lat="45.80955" lon="4.51259">
        <ele>691.6</ele>
        <time>2025-09-10T12:11:32Z</time>
      </trkpt>
      <trkpt lat="45.80957" lon="4.51261">
        <ele>692</ele>
        <time>2025-09-10T12:11:33Z</time>
      </trkpt>
      <trkpt lat="45.80958" lon="4.51262">
        <ele>692</ele>
        <time>2025-09-10T12:11:34Z</time>
      </trkpt>
      <trkpt lat="45.8096" lon="4.51263">
        <ele>692</ele>
        <time>2025-09-10T12:11:35Z</time>
      </trkpt>
      <trkpt lat="45.80961" lon="4.51263">
        <ele>692.2</ele>
        <time>2025-09-10T12:11:36Z</time>
      </trkpt>
      <trkpt lat="45.80963" lon="4.51262">
        <ele>692.2</ele>
        <time>2025-09-10T12:11:37Z</time>
      </trkpt>
      <trkpt lat="45.80965" lon="4.51261">
        <ele>692.2</ele>
        <time>2025-09-10T12:11:38Z</time>
      </trkpt>
      <trkpt lat="45.80966" lon="4.51261">
        <ele>692.2</ele>
        <time>2025-09-10T12:11:39Z</time>
      </trkpt>
      <trkpt lat="45.80968" lon="4.51261">
        <ele>692.6</ele>
        <time>2025-09-10T12:11:40Z</time>
      </trkpt>
      <trkpt lat="45.80969" lon="4.51261">
        <ele>692.8</ele>
        <time>2025-09-10T12:11:41Z</time>
      </trkpt>
      <trkpt lat="45.8097" lon="4.51261">
        <ele>692.8</ele>
        <time>2025-09-10T12:11:42Z</time>
      </trkpt>
      <trkpt lat="45.80972" lon="4.51261">
        <ele>692.8</ele>
        <time>2025-09-10T12:11:43Z</time>
      </trkpt>
      <trkpt lat="45.80972" lon="4.51261">
        <ele>693.2</ele>
        <time>2025-09-10T12:11:44Z</time>
      </trkpt>
      <trkpt lat="45.80973" lon="4.5126">
        <ele>693.2</ele>
        <time>2025-09-10T12:11:45Z</time>
      </trkpt>
      <trkpt lat="45.80974" lon="4.5126">
        <ele>693.2</ele>
        <time>2025-09-10T12:11:46Z</time>
      </trkpt>
      <trkpt lat="45.80975" lon="4.51259">
        <ele>693.4</ele>
        <time>2025-09-10T12:11:47Z</time>
      </trkpt>
      <trkpt lat="45.80976" lon="4.51258">
        <ele>693.4</ele>
        <time>2025-09-10T12:11:48Z</time>
      </trkpt>
      <trkpt lat="45.80977" lon="4.51257">
        <ele>693.8</ele>
        <time>2025-09-10T12:11:49Z</time>
      </trkpt>
      <trkpt lat="45.80979" lon="4.51256">
        <ele>693.8</ele>
        <time>2025-09-10T12:11:50Z</time>
      </trkpt>
      <trkpt lat="45.8098" lon="4.51256">
        <ele>694</ele>
        <time>2025-09-10T12:11:51Z</time>
      </trkpt>
      <trkpt lat="45.80981" lon="4.51255">
        <ele>694</ele>
        <time>2025-09-10T12:11:52Z</time>
      </trkpt>
      <trkpt lat="45.80982" lon="4.51255">
        <ele>694</ele>
        <time>2025-09-10T12:11:53Z</time>
      </trkpt>
      <trkpt lat="45.80983" lon="4.51254">
        <ele>694</ele>
        <time>2025-09-10T12:11:54Z</time>
      </trkpt>
      <trkpt lat="45.80985" lon="4.51254">
        <ele>694.2</ele>
        <time>2025-09-10T12:11:55Z</time>
      </trkpt>
      <trkpt lat="45.80986" lon="4.51254">
        <ele>694.2</ele>
        <time>2025-09-10T12:11:56Z</time>
      </trkpt>
      <trkpt lat="45.80987" lon="4.51254">
        <ele>694.6</ele>
        <time>2025-09-10T12:11:57Z</time>
      </trkpt>
      <trkpt lat="45.80988" lon="4.51253">
        <ele>694.6</ele>
        <time>2025-09-10T12:11:58Z</time>
      </trkpt>
      <trkpt lat="45.80989" lon="4.51253">
        <ele>695</ele>
        <time>2025-09-10T12:11:59Z</time>
      </trkpt>
      <trkpt lat="45.80991" lon="4.51252">
        <ele>695</ele>
        <time>2025-09-10T12:12:00Z</time>
      </trkpt>
      <trkpt lat="45.80992" lon="4.51251">
        <ele>695.2</ele>
        <time>2025-09-10T12:12:01Z</time>
      </trkpt>
      <trkpt lat="45.80993" lon="4.5125">
        <ele>695.2</ele>
        <time>2025-09-10T12:12:02Z</time>
      </trkpt>
      <trkpt lat="45.80994" lon="4.51248">
        <ele>695.6</ele>
        <time>2025-09-10T12:12:03Z</time>
      </trkpt>
      <trkpt lat="45.80996" lon="4.51247">
        <ele>695.6</ele>
        <time>2025-09-10T12:12:04Z</time>
      </trkpt>
      <trkpt lat="45.80997" lon="4.51246">
        <ele>695.6</ele>
        <time>2025-09-10T12:12:05Z</time>
      </trkpt>
      <trkpt lat="45.81" lon="4.51244">
        <ele>695.6</ele>
        <time>2025-09-10T12:12:06Z</time>
      </trkpt>
      <trkpt lat="45.81002" lon="4.51242">
        <ele>695.8</ele>
        <time>2025-09-10T12:12:07Z</time>
      </trkpt>
      <trkpt lat="45.81005" lon="4.5124">
        <ele>695.8</ele>
        <time>2025-09-10T12:12:08Z</time>
      </trkpt>
      <trkpt lat="45.81007" lon="4.51239">
        <ele>695.8</ele>
        <time>2025-09-10T12:12:09Z</time>
      </trkpt>
      <trkpt lat="45.81009" lon="4.51237">
        <ele>695.4</ele>
        <time>2025-09-10T12:12:10Z</time>
      </trkpt>
      <trkpt lat="45.81011" lon="4.51235">
        <ele>695.4</ele>
        <time>2025-09-10T12:12:11Z</time>
      </trkpt>
      <trkpt lat="45.81013" lon="4.51234">
        <ele>695.4</ele>
        <time>2025-09-10T12:12:12Z</time>
      </trkpt>
      <trkpt lat="45.81015" lon="4.51232">
        <ele>695</ele>
        <time>2025-09-10T12:12:13Z</time>
      </trkpt>
      <trkpt lat="45.81018" lon="4.5123">
        <ele>695</ele>
        <time>2025-09-10T12:12:14Z</time>
      </trkpt>
      <trkpt lat="45.8102" lon="4.51228">
        <ele>695</ele>
        <time>2025-09-10T12:12:15Z</time>
      </trkpt>
      <trkpt lat="45.81022" lon="4.51226">
        <ele>694.8</ele>
        <time>2025-09-10T12:12:16Z</time>
      </trkpt>
      <trkpt lat="45.81025" lon="4.51223">
        <ele>694.6</ele>
        <time>2025-09-10T12:12:17Z</time>
      </trkpt>
      <trkpt lat="45.81028" lon="4.5122">
        <ele>694.6</ele>
        <time>2025-09-10T12:12:18Z</time>
      </trkpt>
      <trkpt lat="45.81031" lon="4.51216">
        <ele>695</ele>
        <time>2025-09-10T12:12:19Z</time>
      </trkpt>
      <trkpt lat="45.81034" lon="4.51212">
        <ele>694.4</ele>
        <time>2025-09-10T12:12:20Z</time>
      </trkpt>
      <trkpt lat="45.81037" lon="4.51208">
        <ele>694</ele>
        <time>2025-09-10T12:12:21Z</time>
      </trkpt>
      <trkpt lat="45.81041" lon="4.51204">
        <ele>693.6</ele>
        <time>2025-09-10T12:12:22Z</time>
      </trkpt>
      <trkpt lat="45.81044" lon="4.51201">
        <ele>693</ele>
        <time>2025-09-10T12:12:23Z</time>
      </trkpt>
      <trkpt lat="45.81047" lon="4.51198">
        <ele>692.8</ele>
        <time>2025-09-10T12:12:24Z</time>
      </trkpt>
      <trkpt lat="45.8105" lon="4.51194">
        <ele>692.6</ele>
        <time>2025-09-10T12:12:25Z</time>
      </trkpt>
      <trkpt lat="45.81054" lon="4.51191">
        <ele>692.2</ele>
        <time>2025-09-10T12:12:26Z</time>
      </trkpt>
      <trkpt lat="45.81057" lon="4.51187">
        <ele>691.8</ele>
        <time>2025-09-10T12:12:27Z</time>
      </trkpt>
      <trkpt lat="45.8106" lon="4.51183">
        <ele>691</ele>
        <time>2025-09-10T12:12:28Z</time>
      </trkpt>
      <trkpt lat="45.81063" lon="4.51183">
        <ele>690.6</ele>
        <time>2025-09-10T12:12:29Z</time>
      </trkpt>
      <trkpt lat="45.81066" lon="4.51179">
        <ele>690.2</ele>
        <time>2025-09-10T12:12:30Z</time>
      </trkpt>
      <trkpt lat="45.81066" lon="4.51175">
        <ele>690.2</ele>
        <time>2025-09-10T12:12:31Z</time>
      </trkpt>
      <trkpt lat="45.81065" lon="4.51173">
        <ele>690.2</ele>
        <time>2025-09-10T12:12:32Z</time>
      </trkpt>
      <trkpt lat="45.81063" lon="4.51171">
        <ele>689.8</ele>
        <time>2025-09-10T12:12:33Z</time>
      </trkpt>
      <trkpt lat="45.81062" lon="4.51168">
        <ele>689.8</ele>
        <time>2025-09-10T12:12:34Z</time>
      </trkpt>
      <trkpt lat="45.81061" lon="4.51166">
        <ele>689.8</ele>
        <time>2025-09-10T12:12:35Z</time>
      </trkpt>
      <trkpt lat="45.8106" lon="4.51163">
        <ele>689.8</ele>
        <time>2025-09-10T12:12:36Z</time>
      </trkpt>
      <trkpt lat="45.8106" lon="4.5116">
        <ele>690</ele>
        <time>2025-09-10T12:12:37Z</time>
      </trkpt>
      <trkpt lat="45.81059" lon="4.51157">
        <ele>690.2</ele>
        <time>2025-09-10T12:12:38Z</time>
      </trkpt>
      <trkpt lat="45.81058" lon="4.51155">
        <ele>690.2</ele>
        <time>2025-09-10T12:12:39Z</time>
      </trkpt>
      <trkpt lat="45.81058" lon="4.51152">
        <ele>690.2</ele>
        <time>2025-09-10T12:12:40Z</time>
      </trkpt>
      <trkpt lat="45.81057" lon="4.5115">
        <ele>690.6</ele>
        <time>2025-09-10T12:12:41Z</time>
      </trkpt>
      <trkpt lat="45.81056" lon="4.51147">
        <ele>690.6</ele>
        <time>2025-09-10T12:12:42Z</time>
      </trkpt>
      <trkpt lat="45.81056" lon="4.51145">
        <ele>690.6</ele>
        <time>2025-09-10T12:12:43Z</time>
      </trkpt>
      <trkpt lat="45.81056" lon="4.51142">
        <ele>690.6</ele>
        <time>2025-09-10T12:12:44Z</time>
      </trkpt>
      <trkpt lat="45.81056" lon="4.5114">
        <ele>691</ele>
        <time>2025-09-10T12:12:45Z</time>
      </trkpt>
      <trkpt lat="45.81055" lon="4.51137">
        <ele>691</ele>
        <time>2025-09-10T12:12:46Z</time>
      </trkpt>
      <trkpt lat="45.81055" lon="4.51134">
        <ele>691.4</ele>
        <time>2025-09-10T12:12:47Z</time>
      </trkpt>
      <trkpt lat="45.81056" lon="4.51132">
        <ele>691.4</ele>
        <time>2025-09-10T12:12:48Z</time>
      </trkpt>
      <trkpt lat="45.81055" lon="4.5113">
        <ele>691.4</ele>
        <time>2025-09-10T12:12:49Z</time>
      </trkpt>
      <trkpt lat="45.81055" lon="4.51127">
        <ele>691.4</ele>
        <time>2025-09-10T12:12:50Z</time>
      </trkpt>
      <trkpt lat="45.81055" lon="4.51125">
        <ele>691.6</ele>
        <time>2025-09-10T12:12:51Z</time>
      </trkpt>
      <trkpt lat="45.81055" lon="4.51122">
        <ele>691.6</ele>
        <time>2025-09-10T12:12:52Z</time>
      </trkpt>
      <trkpt lat="45.81056" lon="4.51121">
        <ele>692</ele>
        <time>2025-09-10T12:12:53Z</time>
      </trkpt>
      <trkpt lat="45.81056" lon="4.51119">
        <ele>692</ele>
        <time>2025-09-10T12:12:54Z</time>
      </trkpt>
      <trkpt lat="45.81057" lon="4.51116">
        <ele>692.2</ele>
        <time>2025-09-10T12:12:55Z</time>
      </trkpt>
      <trkpt lat="45.81057" lon="4.51114">
        <ele>692.2</ele>
        <time>2025-09-10T12:12:56Z</time>
      </trkpt>
      <trkpt lat="45.81057" lon="4.51112">
        <ele>691.8</ele>
        <time>2025-09-10T12:12:57Z</time>
      </trkpt>
      <trkpt lat="45.81058" lon="4.51109">
        <ele>692.4</ele>
        <time>2025-09-10T12:12:58Z</time>
      </trkpt>
      <trkpt lat="45.81058" lon="4.51107">
        <ele>692.8</ele>
        <time>2025-09-10T12:12:59Z</time>
      </trkpt>
      <trkpt lat="45.81058" lon="4.51104">
        <ele>692.8</ele>
        <time>2025-09-10T12:13:00Z</time>
      </trkpt>
      <trkpt lat="45.81059" lon="4.51102">
        <ele>692.8</ele>
        <time>2025-09-10T12:13:01Z</time>
      </trkpt>
      <trkpt lat="45.81059" lon="4.51099">
        <ele>693</ele>
        <time>2025-09-10T12:13:02Z</time>
      </trkpt>
      <trkpt lat="45.81059" lon="4.51098">
        <ele>693</ele>
        <time>2025-09-10T12:13:03Z</time>
      </trkpt>
      <trkpt lat="45.8106" lon="4.51096">
        <ele>693.2</ele>
        <time>2025-09-10T12:13:04Z</time>
      </trkpt>
      <trkpt lat="45.8106" lon="4.51093">
        <ele>693.4</ele>
        <time>2025-09-10T12:13:05Z</time>
      </trkpt>
      <trkpt lat="45.81061" lon="4.5109">
        <ele>693.6</ele>
        <time>2025-09-10T12:13:06Z</time>
      </trkpt>
      <trkpt lat="45.81061" lon="4.51088">
        <ele>693.2</ele>
        <time>2025-09-10T12:13:07Z</time>
      </trkpt>
      <trkpt lat="45.81061" lon="4.51085">
        <ele>693</ele>
        <time>2025-09-10T12:13:08Z</time>
      </trkpt>
      <trkpt lat="45.81062" lon="4.51083">
        <ele>694.2</ele>
        <time>2025-09-10T12:13:09Z</time>
      </trkpt>
      <trkpt lat="45.81063" lon="4.51081">
        <ele>694.6</ele>
        <time>2025-09-10T12:13:10Z</time>
      </trkpt>
      <trkpt lat="45.81064" lon="4.51079">
        <ele>694.6</ele>
        <time>2025-09-10T12:13:11Z</time>
      </trkpt>
      <trkpt lat="45.81065" lon="4.51077">
        <ele>694.6</ele>
        <time>2025-09-10T12:13:12Z</time>
      </trkpt>
      <trkpt lat="45.81066" lon="4.51074">
        <ele>694.6</ele>
        <time>2025-09-10T12:13:13Z</time>
      </trkpt>
      <trkpt lat="45.81066" lon="4.51072">
        <ele>694.8</ele>
        <time>2025-09-10T12:13:14Z</time>
      </trkpt>
      <trkpt lat="45.81066" lon="4.5107">
        <ele>694.8</ele>
        <time>2025-09-10T12:13:15Z</time>
      </trkpt>
      <trkpt lat="45.81067" lon="4.51067">
        <ele>695.2</ele>
        <time>2025-09-10T12:13:16Z</time>
      </trkpt>
      <trkpt lat="45.81068" lon="4.51065">
        <ele>695.2</ele>
        <time>2025-09-10T12:13:17Z</time>
      </trkpt>
      <trkpt lat="45.8107" lon="4.51064">
        <ele>695.4</ele>
        <time>2025-09-10T12:13:18Z</time>
      </trkpt>
      <trkpt lat="45.81071" lon="4.51062">
        <ele>695.6</ele>
        <time>2025-09-10T12:13:19Z</time>
      </trkpt>
      <trkpt lat="45.81071" lon="4.5106">
        <ele>695.6</ele>
        <time>2025-09-10T12:13:20Z</time>
      </trkpt>
      <trkpt lat="45.81072" lon="4.51058">
        <ele>696</ele>
        <time>2025-09-10T12:13:21Z</time>
      </trkpt>
      <trkpt lat="45.81073" lon="4.51057">
        <ele>696</ele>
        <time>2025-09-10T12:13:22Z</time>
      </trkpt>
      <trkpt lat="45.81073" lon="4.51056">
        <ele>696.2</ele>
        <time>2025-09-10T12:13:23Z</time>
      </trkpt>
      <trkpt lat="45.81074" lon="4.51054">
        <ele>696.2</ele>
        <time>2025-09-10T12:13:24Z</time>
      </trkpt>
      <trkpt lat="45.81075" lon="4.51052">
        <ele>696.2</ele>
        <time>2025-09-10T12:13:25Z</time>
      </trkpt>
      <trkpt lat="45.81075" lon="4.51051">
        <ele>696.2</ele>
        <time>2025-09-10T12:13:26Z</time>
      </trkpt>
      <trkpt lat="45.81076" lon="4.51048">
        <ele>696.2</ele>
        <time>2025-09-10T12:13:27Z</time>
      </trkpt>
      <trkpt lat="45.81076" lon="4.51046">
        <ele>696.2</ele>
        <time>2025-09-10T12:13:28Z</time>
      </trkpt>
      <trkpt lat="45.81077" lon="4.51044">
        <ele>696.4</ele>
        <time>2025-09-10T12:13:29Z</time>
      </trkpt>
      <trkpt lat="45.81078" lon="4.51041">
        <ele>696.4</ele>
        <time>2025-09-10T12:13:30Z</time>
      </trkpt>
      <trkpt lat="45.8108" lon="4.51039">
        <ele>696.4</ele>
        <time>2025-09-10T12:13:31Z</time>
      </trkpt>
      <trkpt lat="45.81081" lon="4.51038">
        <ele>696.4</ele>
        <time>2025-09-10T12:13:32Z</time>
      </trkpt>
      <trkpt lat="45.81081" lon="4.51036">
        <ele>696.4</ele>
        <time>2025-09-10T12:13:33Z</time>
      </trkpt>
      <trkpt lat="45.81082" lon="4.51033">
        <ele>696.6</ele>
        <time>2025-09-10T12:13:34Z</time>
      </trkpt>
      <trkpt lat="45.81083" lon="4.51031">
        <ele>696.6</ele>
        <time>2025-09-10T12:13:35Z</time>
      </trkpt>
      <trkpt lat="45.81084" lon="4.51028">
        <ele>697</ele>
        <time>2025-09-10T12:13:36Z</time>
      </trkpt>
      <trkpt lat="45.81085" lon="4.51026">
        <ele>697</ele>
        <time>2025-09-10T12:13:37Z</time>
      </trkpt>
      <trkpt lat="45.81086" lon="4.51023">
        <ele>697.2</ele>
        <time>2025-09-10T12:13:38Z</time>
      </trkpt>
      <trkpt lat="45.81087" lon="4.51021">
        <ele>697.2</ele>
        <time>2025-09-10T12:13:39Z</time>
      </trkpt>
      <trkpt lat="45.81088" lon="4.51019">
        <ele>697.2</ele>
        <time>2025-09-10T12:13:40Z</time>
      </trkpt>
      <trkpt lat="45.81088" lon="4.51017">
        <ele>697.2</ele>
        <time>2025-09-10T12:13:41Z</time>
      </trkpt>
      <trkpt lat="45.81089" lon="4.51014">
        <ele>697.4</ele>
        <time>2025-09-10T12:13:42Z</time>
      </trkpt>
      <trkpt lat="45.81089" lon="4.51012">
        <ele>697.6</ele>
        <time>2025-09-10T12:13:43Z</time>
      </trkpt>
      <trkpt lat="45.8109" lon="4.51009">
        <ele>697.6</ele>
        <time>2025-09-10T12:13:44Z</time>
      </trkpt>
      <trkpt lat="45.81091" lon="4.51007">
        <ele>698</ele>
        <time>2025-09-10T12:13:45Z</time>
      </trkpt>
      <trkpt lat="45.81092" lon="4.51006">
        <ele>698</ele>
        <time>2025-09-10T12:13:46Z</time>
      </trkpt>
      <trkpt lat="45.81092" lon="4.51004">
        <ele>698.2</ele>
        <time>2025-09-10T12:13:47Z</time>
      </trkpt>
      <trkpt lat="45.81093" lon="4.51001">
        <ele>698.2</ele>
        <time>2025-09-10T12:13:48Z</time>
      </trkpt>
      <trkpt lat="45.81094" lon="4.50999">
        <ele>698.4</ele>
        <time>2025-09-10T12:13:49Z</time>
      </trkpt>
      <trkpt lat="45.81094" lon="4.50997">
        <ele>698.4</ele>
        <time>2025-09-10T12:13:50Z</time>
      </trkpt>
      <trkpt lat="45.81095" lon="4.50996">
        <ele>698.8</ele>
        <time>2025-09-10T12:13:51Z</time>
      </trkpt>
      <trkpt lat="45.81095" lon="4.50996">
        <ele>698.8</ele>
        <time>2025-09-10T12:13:52Z</time>
      </trkpt>
      <trkpt lat="45.81095" lon="4.50996">
        <ele>698.8</ele>
        <time>2025-09-10T12:13:53Z</time>
      </trkpt>
      <trkpt lat="45.81099" lon="4.50987">
        <ele>699</ele>
        <time>2025-09-10T12:13:55Z</time>
      </trkpt>
      <trkpt lat="45.81099" lon="4.50985">
        <ele>699.4</ele>
        <time>2025-09-10T12:13:56Z</time>
      </trkpt>
      <trkpt lat="45.811" lon="4.50983">
        <ele>699.4</ele>
        <time>2025-09-10T12:13:57Z</time>
      </trkpt>
      <trkpt lat="45.81101" lon="4.50981">
        <ele>699.4</ele>
        <time>2025-09-10T12:13:58Z</time>
      </trkpt>
      <trkpt lat="45.81101" lon="4.50979">
        <ele>699.6</ele>
        <time>2025-09-10T12:13:59Z</time>
      </trkpt>
      <trkpt lat="45.81102" lon="4.50977">
        <ele>699.6</ele>
        <time>2025-09-10T12:14:00Z</time>
      </trkpt>
      <trkpt lat="45.81104" lon="4.50976">
        <ele>700</ele>
        <time>2025-09-10T12:14:01Z</time>
      </trkpt>
      <trkpt lat="45.81105" lon="4.50974">
        <ele>700</ele>
        <time>2025-09-10T12:14:02Z</time>
      </trkpt>
      <trkpt lat="45.81105" lon="4.50973">
        <ele>700</ele>
        <time>2025-09-10T12:14:03Z</time>
      </trkpt>
      <trkpt lat="45.81106" lon="4.50972">
        <ele>700.2</ele>
        <time>2025-09-10T12:14:04Z</time>
      </trkpt>
      <trkpt lat="45.81106" lon="4.5097">
        <ele>700.2</ele>
        <time>2025-09-10T12:14:05Z</time>
      </trkpt>
      <trkpt lat="45.81107" lon="4.50968">
        <ele>700.6</ele>
        <time>2025-09-10T12:14:06Z</time>
      </trkpt>
      <trkpt lat="45.81107" lon="4.50966">
        <ele>700.6</ele>
        <time>2025-09-10T12:14:07Z</time>
      </trkpt>
      <trkpt lat="45.81108" lon="4.50964">
        <ele>700.6</ele>
        <time>2025-09-10T12:14:08Z</time>
      </trkpt>
      <trkpt lat="45.81108" lon="4.50962">
        <ele>700.6</ele>
        <time>2025-09-10T12:14:09Z</time>
      </trkpt>
      <trkpt lat="45.81109" lon="4.5096">
        <ele>700.8</ele>
        <time>2025-09-10T12:14:10Z</time>
      </trkpt>
      <trkpt lat="45.8111" lon="4.50958">
        <ele>700.8</ele>
        <time>2025-09-10T12:14:11Z</time>
      </trkpt>
      <trkpt lat="45.81111" lon="4.50956">
        <ele>701</ele>
        <time>2025-09-10T12:14:12Z</time>
      </trkpt>
      <trkpt lat="45.81112" lon="4.50955">
        <ele>701</ele>
        <time>2025-09-10T12:14:13Z</time>
      </trkpt>
      <trkpt lat="45.81112" lon="4.50953">
        <ele>701.2</ele>
        <time>2025-09-10T12:14:14Z</time>
      </trkpt>
      <trkpt lat="45.81112" lon="4.5095">
        <ele>701.2</ele>
        <time>2025-09-10T12:14:15Z</time>
      </trkpt>
      <trkpt lat="45.81112" lon="4.5095">
        <ele>701.6</ele>
        <time>2025-09-10T12:14:16Z</time>
      </trkpt>
      <trkpt lat="45.81113" lon="4.50946">
        <ele>701.6</ele>
        <time>2025-09-10T12:14:17Z</time>
      </trkpt>
      <trkpt lat="45.81114" lon="4.50944">
        <ele>701.8</ele>
        <time>2025-09-10T12:14:18Z</time>
      </trkpt>
      <trkpt lat="45.81115" lon="4.50942">
        <ele>701.8</ele>
        <time>2025-09-10T12:14:19Z</time>
      </trkpt>
      <trkpt lat="45.81116" lon="4.5094">
        <ele>701.8</ele>
        <time>2025-09-10T12:14:20Z</time>
      </trkpt>
      <trkpt lat="45.81117" lon="4.50938">
        <ele>701.8</ele>
        <time>2025-09-10T12:14:21Z</time>
      </trkpt>
      <trkpt lat="45.81117" lon="4.50936">
        <ele>701.8</ele>
        <time>2025-09-10T12:14:22Z</time>
      </trkpt>
      <trkpt lat="45.81119" lon="4.50934">
        <ele>701.8</ele>
        <time>2025-09-10T12:14:23Z</time>
      </trkpt>
      <trkpt lat="45.81119" lon="4.50933">
        <ele>702.2</ele>
        <time>2025-09-10T12:14:24Z</time>
      </trkpt>
      <trkpt lat="45.8112" lon="4.50931">
        <ele>702.2</ele>
        <time>2025-09-10T12:14:25Z</time>
      </trkpt>
      <trkpt lat="45.81122" lon="4.50929">
        <ele>702.4</ele>
        <time>2025-09-10T12:14:26Z</time>
      </trkpt>
      <trkpt lat="45.81123" lon="4.50927">
        <ele>702.4</ele>
        <time>2025-09-10T12:14:27Z</time>
      </trkpt>
      <trkpt lat="45.81123" lon="4.50925">
        <ele>702.4</ele>
        <time>2025-09-10T12:14:28Z</time>
      </trkpt>
      <trkpt lat="45.81123" lon="4.50923">
        <ele>702.4</ele>
        <time>2025-09-10T12:14:29Z</time>
      </trkpt>
      <trkpt lat="45.81123" lon="4.50921">
        <ele>702.8</ele>
        <time>2025-09-10T12:14:30Z</time>
      </trkpt>
      <trkpt lat="45.81124" lon="4.50918">
        <ele>702.8</ele>
        <time>2025-09-10T12:14:31Z</time>
      </trkpt>
      <trkpt lat="45.81125" lon="4.50916">
        <ele>703.2</ele>
        <time>2025-09-10T12:14:32Z</time>
      </trkpt>
      <trkpt lat="45.81126" lon="4.50914">
        <ele>703.2</ele>
        <time>2025-09-10T12:14:33Z</time>
      </trkpt>
      <trkpt lat="45.81127" lon="4.50913">
        <ele>703.4</ele>
        <time>2025-09-10T12:14:34Z</time>
      </trkpt>
      <trkpt lat="45.81128" lon="4.5091">
        <ele>703.4</ele>
        <time>2025-09-10T12:14:35Z</time>
      </trkpt>
      <trkpt lat="45.81129" lon="4.50908">
        <ele>703.6</ele>
        <time>2025-09-10T12:14:36Z</time>
      </trkpt>
      <trkpt lat="45.81129" lon="4.50906">
        <ele>703.8</ele>
        <time>2025-09-10T12:14:37Z</time>
      </trkpt>
      <trkpt lat="45.8113" lon="4.50904">
        <ele>703.8</ele>
        <time>2025-09-10T12:14:38Z</time>
      </trkpt>
      <trkpt lat="45.8113" lon="4.50901">
        <ele>704.2</ele>
        <time>2025-09-10T12:14:39Z</time>
      </trkpt>
      <trkpt lat="45.81131" lon="4.50899">
        <ele>704.2</ele>
        <time>2025-09-10T12:14:40Z</time>
      </trkpt>
      <trkpt lat="45.81132" lon="4.50897">
        <ele>704.2</ele>
        <time>2025-09-10T12:14:41Z</time>
      </trkpt>
      <trkpt lat="45.81132" lon="4.50895">
        <ele>704.2</ele>
        <time>2025-09-10T12:14:42Z</time>
      </trkpt>
      <trkpt lat="45.81133" lon="4.50893">
        <ele>704.4</ele>
        <time>2025-09-10T12:14:43Z</time>
      </trkpt>
      <trkpt lat="45.81133" lon="4.50891">
        <ele>704.4</ele>
        <time>2025-09-10T12:14:44Z</time>
      </trkpt>
      <trkpt lat="45.81133" lon="4.50889">
        <ele>704.8</ele>
        <time>2025-09-10T12:14:45Z</time>
      </trkpt>
      <trkpt lat="45.81134" lon="4.50887">
        <ele>704.8</ele>
        <time>2025-09-10T12:14:46Z</time>
      </trkpt>
      <trkpt lat="45.81134" lon="4.50885">
        <ele>705</ele>
        <time>2025-09-10T12:14:47Z</time>
      </trkpt>
      <trkpt lat="45.81135" lon="4.50883">
        <ele>705</ele>
        <time>2025-09-10T12:14:48Z</time>
      </trkpt>
      <trkpt lat="45.81136" lon="4.50881">
        <ele>705.2</ele>
        <time>2025-09-10T12:14:49Z</time>
      </trkpt>
      <trkpt lat="45.81136" lon="4.50879">
        <ele>705.2</ele>
        <time>2025-09-10T12:14:50Z</time>
      </trkpt>
      <trkpt lat="45.81137" lon="4.50877">
        <ele>705.6</ele>
        <time>2025-09-10T12:14:51Z</time>
      </trkpt>
      <trkpt lat="45.81137" lon="4.50875">
        <ele>705.6</ele>
        <time>2025-09-10T12:14:52Z</time>
      </trkpt>
      <trkpt lat="45.81138" lon="4.50873">
        <ele>705.6</ele>
        <time>2025-09-10T12:14:53Z</time>
      </trkpt>
      <trkpt lat="45.81138" lon="4.50871">
        <ele>705.6</ele>
        <time>2025-09-10T12:14:54Z</time>
      </trkpt>
      <trkpt lat="45.81139" lon="4.50869">
        <ele>705.6</ele>
        <time>2025-09-10T12:14:55Z</time>
      </trkpt>
      <trkpt lat="45.81139" lon="4.50866">
        <ele>705.8</ele>
        <time>2025-09-10T12:14:56Z</time>
      </trkpt>
      <trkpt lat="45.8114" lon="4.50864">
        <ele>705.8</ele>
        <time>2025-09-10T12:14:57Z</time>
      </trkpt>
      <trkpt lat="45.8114" lon="4.50862">
        <ele>705.8</ele>
        <time>2025-09-10T12:14:58Z</time>
      </trkpt>
      <trkpt lat="45.81141" lon="4.5086">
        <ele>706</ele>
        <time>2025-09-10T12:14:59Z</time>
      </trkpt>
      <trkpt lat="45.81141" lon="4.50858">
        <ele>706</ele>
        <time>2025-09-10T12:15:00Z</time>
      </trkpt>
      <trkpt lat="45.81142" lon="4.50856">
        <ele>706.4</ele>
        <time>2025-09-10T12:15:01Z</time>
      </trkpt>
      <trkpt lat="45.81143" lon="4.50854">
        <ele>706.4</ele>
        <time>2025-09-10T12:15:02Z</time>
      </trkpt>
      <trkpt lat="45.81143" lon="4.50852">
        <ele>706.6</ele>
        <time>2025-09-10T12:15:03Z</time>
      </trkpt>
      <trkpt lat="45.81143" lon="4.5085">
        <ele>706.6</ele>
        <time>2025-09-10T12:15:04Z</time>
      </trkpt>
      <trkpt lat="45.81144" lon="4.50848">
        <ele>706.8</ele>
        <time>2025-09-10T12:15:05Z</time>
      </trkpt>
      <trkpt lat="45.81144" lon="4.50846">
        <ele>706.8</ele>
        <time>2025-09-10T12:15:06Z</time>
      </trkpt>
      <trkpt lat="45.81145" lon="4.50844">
        <ele>707.2</ele>
        <time>2025-09-10T12:15:07Z</time>
      </trkpt>
      <trkpt lat="45.81145" lon="4.50842">
        <ele>707.2</ele>
        <time>2025-09-10T12:15:08Z</time>
      </trkpt>
      <trkpt lat="45.81146" lon="4.5084">
        <ele>707.2</ele>
        <time>2025-09-10T12:15:09Z</time>
      </trkpt>
      <trkpt lat="45.81146" lon="4.50837">
        <ele>707.2</ele>
        <time>2025-09-10T12:15:10Z</time>
      </trkpt>
      <trkpt lat="45.81147" lon="4.50835">
        <ele>707.2</ele>
        <time>2025-09-10T12:15:11Z</time>
      </trkpt>
      <trkpt lat="45.81148" lon="4.50833">
        <ele>707.2</ele>
        <time>2025-09-10T12:15:12Z</time>
      </trkpt>
      <trkpt lat="45.81148" lon="4.5083">
        <ele>707.6</ele>
        <time>2025-09-10T12:15:13Z</time>
      </trkpt>
      <trkpt lat="45.81148" lon="4.50828">
        <ele>707.6</ele>
        <time>2025-09-10T12:15:14Z</time>
      </trkpt>
      <trkpt lat="45.81149" lon="4.50826">
        <ele>707.6</ele>
        <time>2025-09-10T12:15:15Z</time>
      </trkpt>
      <trkpt lat="45.81149" lon="4.50824">
        <ele>707.6</ele>
        <time>2025-09-10T12:15:16Z</time>
      </trkpt>
      <trkpt lat="45.81149" lon="4.50821">
        <ele>707.8</ele>
        <time>2025-09-10T12:15:17Z</time>
      </trkpt>
      <trkpt lat="45.8115" lon="4.50819">
        <ele>707.8</ele>
        <time>2025-09-10T12:15:18Z</time>
      </trkpt>
      <trkpt lat="45.8115" lon="4.50817">
        <ele>708.2</ele>
        <time>2025-09-10T12:15:19Z</time>
      </trkpt>
      <trkpt lat="45.81151" lon="4.50815">
        <ele>708.2</ele>
        <time>2025-09-10T12:15:20Z</time>
      </trkpt>
      <trkpt lat="45.81151" lon="4.50813">
        <ele>708.4</ele>
        <time>2025-09-10T12:15:21Z</time>
      </trkpt>
      <trkpt lat="45.81152" lon="4.50811">
        <ele>708.4</ele>
        <time>2025-09-10T12:15:22Z</time>
      </trkpt>
      <trkpt lat="45.81152" lon="4.50809">
        <ele>708.6</ele>
        <time>2025-09-10T12:15:23Z</time>
      </trkpt>
      <trkpt lat="45.81152" lon="4.50807">
        <ele>708.6</ele>
        <time>2025-09-10T12:15:24Z</time>
      </trkpt>
      <trkpt lat="45.81153" lon="4.50805">
        <ele>708.8</ele>
        <time>2025-09-10T12:15:25Z</time>
      </trkpt>
      <trkpt lat="45.81153" lon="4.50803">
        <ele>709.2</ele>
        <time>2025-09-10T12:15:26Z</time>
      </trkpt>
      <trkpt lat="45.81153" lon="4.50801">
        <ele>709.2</ele>
        <time>2025-09-10T12:15:27Z</time>
      </trkpt>
      <trkpt lat="45.81154" lon="4.508">
        <ele>709.4</ele>
        <time>2025-09-10T12:15:28Z</time>
      </trkpt>
      <trkpt lat="45.81154" lon="4.50798">
        <ele>709.6</ele>
        <time>2025-09-10T12:15:29Z</time>
      </trkpt>
      <trkpt lat="45.81155" lon="4.50796">
        <ele>709.6</ele>
        <time>2025-09-10T12:15:30Z</time>
      </trkpt>
      <trkpt lat="45.81155" lon="4.50793">
        <ele>709.6</ele>
        <time>2025-09-10T12:15:31Z</time>
      </trkpt>
      <trkpt lat="45.81156" lon="4.50791">
        <ele>709.6</ele>
        <time>2025-09-10T12:15:32Z</time>
      </trkpt>
      <trkpt lat="45.81156" lon="4.50789">
        <ele>709.6</ele>
        <time>2025-09-10T12:15:33Z</time>
      </trkpt>
      <trkpt lat="45.81157" lon="4.50787">
        <ele>710</ele>
        <time>2025-09-10T12:15:34Z</time>
      </trkpt>
      <trkpt lat="45.81157" lon="4.50785">
        <ele>710.2</ele>
        <time>2025-09-10T12:15:35Z</time>
      </trkpt>
      <trkpt lat="45.81158" lon="4.50783">
        <ele>710.2</ele>
        <time>2025-09-10T12:15:36Z</time>
      </trkpt>
      <trkpt lat="45.81158" lon="4.50781">
        <ele>710.4</ele>
        <time>2025-09-10T12:15:37Z</time>
      </trkpt>
      <trkpt lat="45.81159" lon="4.50779">
        <ele>710.4</ele>
        <time>2025-09-10T12:15:38Z</time>
      </trkpt>
      <trkpt lat="45.81159" lon="4.50777">
        <ele>710.6</ele>
        <time>2025-09-10T12:15:39Z</time>
      </trkpt>
      <trkpt lat="45.81159" lon="4.50775">
        <ele>710.6</ele>
        <time>2025-09-10T12:15:40Z</time>
      </trkpt>
      <trkpt lat="45.8116" lon="4.50773">
        <ele>710.6</ele>
        <time>2025-09-10T12:15:41Z</time>
      </trkpt>
      <trkpt lat="45.8116" lon="4.50771">
        <ele>710.8</ele>
        <time>2025-09-10T12:15:42Z</time>
      </trkpt>
      <trkpt lat="45.81161" lon="4.50769">
        <ele>710.8</ele>
        <time>2025-09-10T12:15:43Z</time>
      </trkpt>
      <trkpt lat="45.81161" lon="4.50766">
        <ele>710.8</ele>
        <time>2025-09-10T12:15:44Z</time>
      </trkpt>
      <trkpt lat="45.81162" lon="4.50764">
        <ele>710.8</ele>
        <time>2025-09-10T12:15:45Z</time>
      </trkpt>
      <trkpt lat="45.81163" lon="4.50762">
        <ele>711.2</ele>
        <time>2025-09-10T12:15:46Z</time>
      </trkpt>
      <trkpt lat="45.81163" lon="4.5076">
        <ele>711.2</ele>
        <time>2025-09-10T12:15:47Z</time>
      </trkpt>
      <trkpt lat="45.81163" lon="4.50758">
        <ele>711.4</ele>
        <time>2025-09-10T12:15:48Z</time>
      </trkpt>
      <trkpt lat="45.81163" lon="4.50756">
        <ele>711.4</ele>
        <time>2025-09-10T12:15:49Z</time>
      </trkpt>
      <trkpt lat="45.81163" lon="4.50754">
        <ele>711.6</ele>
        <time>2025-09-10T12:15:50Z</time>
      </trkpt>
      <trkpt lat="45.81164" lon="4.50752">
        <ele>711.6</ele>
        <time>2025-09-10T12:15:51Z</time>
      </trkpt>
      <trkpt lat="45.81164" lon="4.5075">
        <ele>711.6</ele>
        <time>2025-09-10T12:15:52Z</time>
      </trkpt>
      <trkpt lat="45.81165" lon="4.50749">
        <ele>711.8</ele>
        <time>2025-09-10T12:15:53Z</time>
      </trkpt>
      <trkpt lat="45.81165" lon="4.50747">
        <ele>711.8</ele>
        <time>2025-09-10T12:15:54Z</time>
      </trkpt>
      <trkpt lat="45.81166" lon="4.50745">
        <ele>712.2</ele>
        <time>2025-09-10T12:15:55Z</time>
      </trkpt>
      <trkpt lat="45.81168" lon="4.50743">
        <ele>712.2</ele>
        <time>2025-09-10T12:15:56Z</time>
      </trkpt>
      <trkpt lat="45.81169" lon="4.50742">
        <ele>712.2</ele>
        <time>2025-09-10T12:15:57Z</time>
      </trkpt>
      <trkpt lat="45.81169" lon="4.5074">
        <ele>712.4</ele>
        <time>2025-09-10T12:15:58Z</time>
      </trkpt>
      <trkpt lat="45.8117" lon="4.50737">
        <ele>712.4</ele>
        <time>2025-09-10T12:15:59Z</time>
      </trkpt>
      <trkpt lat="45.81171" lon="4.50735">
        <ele>712.4</ele>
        <time>2025-09-10T12:16:00Z</time>
      </trkpt>
      <trkpt lat="45.81171" lon="4.50733">
        <ele>712.8</ele>
        <time>2025-09-10T12:16:01Z</time>
      </trkpt>
      <trkpt lat="45.81172" lon="4.50731">
        <ele>712.8</ele>
        <time>2025-09-10T12:16:02Z</time>
      </trkpt>
      <trkpt lat="45.81172" lon="4.50729">
        <ele>712.8</ele>
        <time>2025-09-10T12:16:03Z</time>
      </trkpt>
      <trkpt lat="45.81173" lon="4.50726">
        <ele>713</ele>
        <time>2025-09-10T12:16:04Z</time>
      </trkpt>
      <trkpt lat="45.81174" lon="4.50724">
        <ele>713</ele>
        <time>2025-09-10T12:16:05Z</time>
      </trkpt>
      <trkpt lat="45.81174" lon="4.50722">
        <ele>713</ele>
        <time>2025-09-10T12:16:06Z</time>
      </trkpt>
      <trkpt lat="45.81175" lon="4.50721">
        <ele>713.4</ele>
        <time>2025-09-10T12:16:07Z</time>
      </trkpt>
      <trkpt lat="45.81176" lon="4.50717">
        <ele>713.4</ele>
        <time>2025-09-10T12:16:08Z</time>
      </trkpt>
      <trkpt lat="45.81177" lon="4.50715">
        <ele>713.6</ele>
        <time>2025-09-10T12:16:09Z</time>
      </trkpt>
      <trkpt lat="45.81177" lon="4.50713">
        <ele>713.6</ele>
        <time>2025-09-10T12:16:10Z</time>
      </trkpt>
      <trkpt lat="45.81178" lon="4.50711">
        <ele>713.6</ele>
        <time>2025-09-10T12:16:11Z</time>
      </trkpt>
      <trkpt lat="45.81179" lon="4.50709">
        <ele>713.8</ele>
        <time>2025-09-10T12:16:12Z</time>
      </trkpt>
      <trkpt lat="45.8118" lon="4.50708">
        <ele>713.8</ele>
        <time>2025-09-10T12:16:13Z</time>
      </trkpt>
      <trkpt lat="45.81181" lon="4.50706">
        <ele>714.2</ele>
        <time>2025-09-10T12:16:14Z</time>
      </trkpt>
      <trkpt lat="45.81182" lon="4.50704">
        <ele>714.2</ele>
        <time>2025-09-10T12:16:15Z</time>
      </trkpt>
      <trkpt lat="45.81183" lon="4.50702">
        <ele>714.4</ele>
        <time>2025-09-10T12:16:16Z</time>
      </trkpt>
      <trkpt lat="45.81184" lon="4.50701">
        <ele>714.4</ele>
        <time>2025-09-10T12:16:17Z</time>
      </trkpt>
      <trkpt lat="45.81185" lon="4.50699">
        <ele>714.4</ele>
        <time>2025-09-10T12:16:18Z</time>
      </trkpt>
      <trkpt lat="45.81186" lon="4.50697">
        <ele>714.4</ele>
        <time>2025-09-10T12:16:19Z</time>
      </trkpt>
      <trkpt lat="45.81186" lon="4.50695">
        <ele>714.4</ele>
        <time>2025-09-10T12:16:20Z</time>
      </trkpt>
      <trkpt lat="45.81187" lon="4.50693">
        <ele>714.4</ele>
        <time>2025-09-10T12:16:21Z</time>
      </trkpt>
      <trkpt lat="45.81188" lon="4.50691">
        <ele>714.4</ele>
        <time>2025-09-10T12:16:22Z</time>
      </trkpt>
      <trkpt lat="45.81189" lon="4.50689">
        <ele>714.8</ele>
        <time>2025-09-10T12:16:23Z</time>
      </trkpt>
      <trkpt lat="45.8119" lon="4.50687">
        <ele>714.8</ele>
        <time>2025-09-10T12:16:24Z</time>
      </trkpt>
      <trkpt lat="45.81191" lon="4.50685">
        <ele>714.8</ele>
        <time>2025-09-10T12:16:25Z</time>
      </trkpt>
      <trkpt lat="45.81191" lon="4.50685">
        <ele>714.8</ele>
        <time>2025-09-10T12:16:26Z</time>
      </trkpt>
      <trkpt lat="45.81192" lon="4.50683">
        <ele>715</ele>
        <time>2025-09-10T12:16:27Z</time>
      </trkpt>
      <trkpt lat="45.81193" lon="4.50681">
        <ele>715</ele>
        <time>2025-09-10T12:16:28Z</time>
      </trkpt>
      <trkpt lat="45.81194" lon="4.50679">
        <ele>715</ele>
        <time>2025-09-10T12:16:29Z</time>
      </trkpt>
      <trkpt lat="45.81195" lon="4.50677">
        <ele>715</ele>
        <time>2025-09-10T12:16:30Z</time>
      </trkpt>
      <trkpt lat="45.81196" lon="4.50675">
        <ele>715</ele>
        <time>2025-09-10T12:16:31Z</time>
      </trkpt>
      <trkpt lat="45.81197" lon="4.50674">
        <ele>715.2</ele>
        <time>2025-09-10T12:16:32Z</time>
      </trkpt>
      <trkpt lat="45.81198" lon="4.50672">
        <ele>715.2</ele>
        <time>2025-09-10T12:16:33Z</time>
      </trkpt>
      <trkpt lat="45.81199" lon="4.5067">
        <ele>715.4</ele>
        <time>2025-09-10T12:16:34Z</time>
      </trkpt>
      <trkpt lat="45.812" lon="4.50668">
        <ele>715.4</ele>
        <time>2025-09-10T12:16:35Z</time>
      </trkpt>
      <trkpt lat="45.81201" lon="4.50667">
        <ele>715.4</ele>
        <time>2025-09-10T12:16:36Z</time>
      </trkpt>
      <trkpt lat="45.81202" lon="4.50665">
        <ele>715.4</ele>
        <time>2025-09-10T12:16:37Z</time>
      </trkpt>
      <trkpt lat="45.81203" lon="4.50663">
        <ele>715.8</ele>
        <time>2025-09-10T12:16:38Z</time>
      </trkpt>
      <trkpt lat="45.81204" lon="4.50661">
        <ele>715.8</ele>
        <time>2025-09-10T12:16:39Z</time>
      </trkpt>
      <trkpt lat="45.81206" lon="4.50659">
        <ele>716.2</ele>
        <time>2025-09-10T12:16:40Z</time>
      </trkpt>
      <trkpt lat="45.81207" lon="4.50658">
        <ele>716.2</ele>
        <time>2025-09-10T12:16:41Z</time>
      </trkpt>
      <trkpt lat="45.81208" lon="4.50656">
        <ele>716.6</ele>
        <time>2025-09-10T12:16:42Z</time>
      </trkpt>
      <trkpt lat="45.81209" lon="4.50655">
        <ele>716.6</ele>
        <time>2025-09-10T12:16:43Z</time>
      </trkpt>
      <trkpt lat="45.81211" lon="4.50654">
        <ele>716.8</ele>
        <time>2025-09-10T12:16:44Z</time>
      </trkpt>
      <trkpt lat="45.81212" lon="4.50653">
        <ele>716.8</ele>
        <time>2025-09-10T12:16:45Z</time>
      </trkpt>
      <trkpt lat="45.81214" lon="4.50652">
        <ele>716.8</ele>
        <time>2025-09-10T12:16:46Z</time>
      </trkpt>
      <trkpt lat="45.81216" lon="4.50652">
        <ele>717</ele>
        <time>2025-09-10T12:16:47Z</time>
      </trkpt>
      <trkpt lat="45.81218" lon="4.50651">
        <ele>717</ele>
        <time>2025-09-10T12:16:48Z</time>
      </trkpt>
      <trkpt lat="45.8122" lon="4.5065">
        <ele>717.2</ele>
        <time>2025-09-10T12:16:49Z</time>
      </trkpt>
      <trkpt lat="45.81221" lon="4.5065">
        <ele>717.2</ele>
        <time>2025-09-10T12:16:50Z</time>
      </trkpt>
      <trkpt lat="45.81223" lon="4.5065">
        <ele>717.2</ele>
        <time>2025-09-10T12:16:51Z</time>
      </trkpt>
      <trkpt lat="45.81225" lon="4.5065">
        <ele>717.2</ele>
        <time>2025-09-10T12:16:52Z</time>
      </trkpt>
      <trkpt lat="45.81227" lon="4.5065">
        <ele>717.6</ele>
        <time>2025-09-10T12:16:53Z</time>
      </trkpt>
      <trkpt lat="45.81229" lon="4.5065">
        <ele>717.6</ele>
        <time>2025-09-10T12:16:54Z</time>
      </trkpt>
      <trkpt lat="45.81231" lon="4.5065">
        <ele>717.6</ele>
        <time>2025-09-10T12:16:55Z</time>
      </trkpt>
      <trkpt lat="45.81234" lon="4.5065">
        <ele>717.6</ele>
        <time>2025-09-10T12:16:56Z</time>
      </trkpt>
      <trkpt lat="45.81236" lon="4.50651">
        <ele>717.6</ele>
        <time>2025-09-10T12:16:57Z</time>
      </trkpt>
      <trkpt lat="45.81238" lon="4.50651">
        <ele>717.8</ele>
        <time>2025-09-10T12:16:58Z</time>
      </trkpt>
      <trkpt lat="45.81241" lon="4.50652">
        <ele>717.8</ele>
        <time>2025-09-10T12:16:59Z</time>
      </trkpt>
      <trkpt lat="45.81243" lon="4.50653">
        <ele>717.8</ele>
        <time>2025-09-10T12:17:00Z</time>
      </trkpt>
      <trkpt lat="45.81245" lon="4.50653">
        <ele>717.8</ele>
        <time>2025-09-10T12:17:01Z</time>
      </trkpt>
      <trkpt lat="45.81248" lon="4.50654">
        <ele>717.8</ele>
        <time>2025-09-10T12:17:02Z</time>
      </trkpt>
      <trkpt lat="45.8125" lon="4.50655">
        <ele>717.8</ele>
        <time>2025-09-10T12:17:03Z</time>
      </trkpt>
      <trkpt lat="45.81253" lon="4.50656">
        <ele>717.8</ele>
        <time>2025-09-10T12:17:04Z</time>
      </trkpt>
      <trkpt lat="45.81256" lon="4.50656">
        <ele>718</ele>
        <time>2025-09-10T12:17:05Z</time>
      </trkpt>
      <trkpt lat="45.81258" lon="4.50658">
        <ele>718</ele>
        <time>2025-09-10T12:17:06Z</time>
      </trkpt>
      <trkpt lat="45.81261" lon="4.50659">
        <ele>718</ele>
        <time>2025-09-10T12:17:07Z</time>
      </trkpt>
      <trkpt lat="45.81263" lon="4.5066">
        <ele>718</ele>
        <time>2025-09-10T12:17:08Z</time>
      </trkpt>
      <trkpt lat="45.81266" lon="4.50662">
        <ele>718</ele>
        <time>2025-09-10T12:17:09Z</time>
      </trkpt>
      <trkpt lat="45.81269" lon="4.50663">
        <ele>718</ele>
        <time>2025-09-10T12:17:10Z</time>
      </trkpt>
      <trkpt lat="45.81271" lon="4.50665">
        <ele>718</ele>
        <time>2025-09-10T12:17:11Z</time>
      </trkpt>
      <trkpt lat="45.81274" lon="4.50666">
        <ele>718</ele>
        <time>2025-09-10T12:17:12Z</time>
      </trkpt>
      <trkpt lat="45.81277" lon="4.50668">
        <ele>718</ele>
        <time>2025-09-10T12:17:13Z</time>
      </trkpt>
      <trkpt lat="45.8128" lon="4.5067">
        <ele>718</ele>
        <time>2025-09-10T12:17:14Z</time>
      </trkpt>
      <trkpt lat="45.81282" lon="4.50672">
        <ele>718</ele>
        <time>2025-09-10T12:17:15Z</time>
      </trkpt>
      <trkpt lat="45.81285" lon="4.50674">
        <ele>718</ele>
        <time>2025-09-10T12:17:16Z</time>
      </trkpt>
      <trkpt lat="45.81287" lon="4.50676">
        <ele>718</ele>
        <time>2025-09-10T12:17:17Z</time>
      </trkpt>
      <trkpt lat="45.8129" lon="4.50678">
        <ele>718</ele>
        <time>2025-09-10T12:17:18Z</time>
      </trkpt>
      <trkpt lat="45.81292" lon="4.5068">
        <ele>718</ele>
        <time>2025-09-10T12:17:19Z</time>
      </trkpt>
      <trkpt lat="45.81294" lon="4.50683">
        <ele>718</ele>
        <time>2025-09-10T12:17:20Z</time>
      </trkpt>
      <trkpt lat="45.81296" lon="4.50685">
        <ele>718</ele>
        <time>2025-09-10T12:17:21Z</time>
      </trkpt>
      <trkpt lat="45.81299" lon="4.50688">
        <ele>718.4</ele>
        <time>2025-09-10T12:17:22Z</time>
      </trkpt>
      <trkpt lat="45.81301" lon="4.50691">
        <ele>718.4</ele>
        <time>2025-09-10T12:17:23Z</time>
      </trkpt>
      <trkpt lat="45.81303" lon="4.50694">
        <ele>718.4</ele>
        <time>2025-09-10T12:17:24Z</time>
      </trkpt>
      <trkpt lat="45.81305" lon="4.50697">
        <ele>718.8</ele>
        <time>2025-09-10T12:17:25Z</time>
      </trkpt>
      <trkpt lat="45.81308" lon="4.50699">
        <ele>718.8</ele>
        <time>2025-09-10T12:17:26Z</time>
      </trkpt>
      <trkpt lat="45.8131" lon="4.50702">
        <ele>718.8</ele>
        <time>2025-09-10T12:17:27Z</time>
      </trkpt>
      <trkpt lat="45.81312" lon="4.50704">
        <ele>718.8</ele>
        <time>2025-09-10T12:17:28Z</time>
      </trkpt>
      <trkpt lat="45.81314" lon="4.50706">
        <ele>718.8</ele>
        <time>2025-09-10T12:17:29Z</time>
      </trkpt>
      <trkpt lat="45.81317" lon="4.50708">
        <ele>718.8</ele>
        <time>2025-09-10T12:17:30Z</time>
      </trkpt>
      <trkpt lat="45.8132" lon="4.50709">
        <ele>719</ele>
        <time>2025-09-10T12:17:31Z</time>
      </trkpt>
      <trkpt lat="45.81322" lon="4.5071">
        <ele>719</ele>
        <time>2025-09-10T12:17:32Z</time>
      </trkpt>
      <trkpt lat="45.81325" lon="4.50709">
        <ele>719</ele>
        <time>2025-09-10T12:17:33Z</time>
      </trkpt>
      <trkpt lat="45.81328" lon="4.5071">
        <ele>719</ele>
        <time>2025-09-10T12:17:34Z</time>
      </trkpt>
      <trkpt lat="45.8133" lon="4.5071">
        <ele>719.4</ele>
        <time>2025-09-10T12:17:35Z</time>
      </trkpt>
      <trkpt lat="45.81333" lon="4.5071">
        <ele>719.4</ele>
        <time>2025-09-10T12:17:36Z</time>
      </trkpt>
      <trkpt lat="45.81335" lon="4.5071">
        <ele>719.4</ele>
        <time>2025-09-10T12:17:37Z</time>
      </trkpt>
      <trkpt lat="45.81337" lon="4.5071">
        <ele>719.4</ele>
        <time>2025-09-10T12:17:38Z</time>
      </trkpt>
      <trkpt lat="45.8134" lon="4.50708">
        <ele>719.4</ele>
        <time>2025-09-10T12:17:39Z</time>
      </trkpt>
      <trkpt lat="45.81342" lon="4.50707">
        <ele>719.6</ele>
        <time>2025-09-10T12:17:40Z</time>
      </trkpt>
      <trkpt lat="45.81344" lon="4.50706">
        <ele>719.6</ele>
        <time>2025-09-10T12:17:41Z</time>
      </trkpt>
      <trkpt lat="45.81346" lon="4.50704">
        <ele>720</ele>
        <time>2025-09-10T12:17:42Z</time>
      </trkpt>
      <trkpt lat="45.81348" lon="4.50703">
        <ele>720</ele>
        <time>2025-09-10T12:17:43Z</time>
      </trkpt>
      <trkpt lat="45.8135" lon="4.50702">
        <ele>720.4</ele>
        <time>2025-09-10T12:17:44Z</time>
      </trkpt>
      <trkpt lat="45.81352" lon="4.50701">
        <ele>720.4</ele>
        <time>2025-09-10T12:17:45Z</time>
      </trkpt>
      <trkpt lat="45.81354" lon="4.507">
        <ele>720.8</ele>
        <time>2025-09-10T12:17:46Z</time>
      </trkpt>
      <trkpt lat="45.81356" lon="4.50699">
        <ele>720.4</ele>
        <time>2025-09-10T12:17:47Z</time>
      </trkpt>
      <trkpt lat="45.81358" lon="4.50697">
        <ele>720.6</ele>
        <time>2025-09-10T12:17:48Z</time>
      </trkpt>
      <trkpt lat="45.8136" lon="4.50696">
        <ele>721</ele>
        <time>2025-09-10T12:17:49Z</time>
      </trkpt>
      <trkpt lat="45.81362" lon="4.50694">
        <ele>721.2</ele>
        <time>2025-09-10T12:17:50Z</time>
      </trkpt>
      <trkpt lat="45.81364" lon="4.50693">
        <ele>721.4</ele>
        <time>2025-09-10T12:17:51Z</time>
      </trkpt>
      <trkpt lat="45.81366" lon="4.50691">
        <ele>721.4</ele>
        <time>2025-09-10T12:17:52Z</time>
      </trkpt>
      <trkpt lat="45.81368" lon="4.5069">
        <ele>721.2</ele>
        <time>2025-09-10T12:17:53Z</time>
      </trkpt>
      <trkpt lat="45.8137" lon="4.50688">
        <ele>722</ele>
        <time>2025-09-10T12:17:54Z</time>
      </trkpt>
      <trkpt lat="45.81372" lon="4.50686">
        <ele>722</ele>
        <time>2025-09-10T12:17:55Z</time>
      </trkpt>
      <trkpt lat="45.81374" lon="4.50685">
        <ele>722</ele>
        <time>2025-09-10T12:17:56Z</time>
      </trkpt>
      <trkpt lat="45.81376" lon="4.50684">
        <ele>722</ele>
        <time>2025-09-10T12:17:57Z</time>
      </trkpt>
      <trkpt lat="45.81378" lon="4.50682">
        <ele>722</ele>
        <time>2025-09-10T12:17:58Z</time>
      </trkpt>
      <trkpt lat="45.81379" lon="4.50681">
        <ele>722</ele>
        <time>2025-09-10T12:17:59Z</time>
      </trkpt>
      <trkpt lat="45.81381" lon="4.5068">
        <ele>722.2</ele>
        <time>2025-09-10T12:18:00Z</time>
      </trkpt>
      <trkpt lat="45.81383" lon="4.50678">
        <ele>722.2</ele>
        <time>2025-09-10T12:18:01Z</time>
      </trkpt>
      <trkpt lat="45.81385" lon="4.50677">
        <ele>721.8</ele>
        <time>2025-09-10T12:18:02Z</time>
      </trkpt>
      <trkpt lat="45.81387" lon="4.50676">
        <ele>722</ele>
        <time>2025-09-10T12:18:03Z</time>
      </trkpt>
      <trkpt lat="45.81388" lon="4.50674">
        <ele>723</ele>
        <time>2025-09-10T12:18:04Z</time>
      </trkpt>
      <trkpt lat="45.8139" lon="4.50673">
        <ele>723</ele>
        <time>2025-09-10T12:18:05Z</time>
      </trkpt>
      <trkpt lat="45.81392" lon="4.50672">
        <ele>722.2</ele>
        <time>2025-09-10T12:18:06Z</time>
      </trkpt>
      <trkpt lat="45.81394" lon="4.50671">
        <ele>723</ele>
        <time>2025-09-10T12:18:07Z</time>
      </trkpt>
      <trkpt lat="45.81396" lon="4.50671">
        <ele>723</ele>
        <time>2025-09-10T12:18:08Z</time>
      </trkpt>
      <trkpt lat="45.81398" lon="4.5067">
        <ele>723.2</ele>
        <time>2025-09-10T12:18:09Z</time>
      </trkpt>
      <trkpt lat="45.81399" lon="4.50669">
        <ele>723.2</ele>
        <time>2025-09-10T12:18:10Z</time>
      </trkpt>
      <trkpt lat="45.81401" lon="4.50668">
        <ele>723.6</ele>
        <time>2025-09-10T12:18:11Z</time>
      </trkpt>
      <trkpt lat="45.81403" lon="4.50667">
        <ele>723.6</ele>
        <time>2025-09-10T12:18:12Z</time>
      </trkpt>
      <trkpt lat="45.81404" lon="4.50666">
        <ele>723.8</ele>
        <time>2025-09-10T12:18:13Z</time>
      </trkpt>
      <trkpt lat="45.81406" lon="4.50666">
        <ele>723.8</ele>
        <time>2025-09-10T12:18:14Z</time>
      </trkpt>
      <trkpt lat="45.81408" lon="4.50665">
        <ele>724</ele>
        <time>2025-09-10T12:18:15Z</time>
      </trkpt>
      <trkpt lat="45.81409" lon="4.50665">
        <ele>724</ele>
        <time>2025-09-10T12:18:16Z</time>
      </trkpt>
      <trkpt lat="45.81411" lon="4.50665">
        <ele>724.2</ele>
        <time>2025-09-10T12:18:17Z</time>
      </trkpt>
      <trkpt lat="45.81413" lon="4.50664">
        <ele>724.2</ele>
        <time>2025-09-10T12:18:18Z</time>
      </trkpt>
      <trkpt lat="45.81414" lon="4.50663">
        <ele>724.2</ele>
        <time>2025-09-10T12:18:19Z</time>
      </trkpt>
      <trkpt lat="45.81416" lon="4.50663">
        <ele>724.2</ele>
        <time>2025-09-10T12:18:20Z</time>
      </trkpt>
      <trkpt lat="45.81418" lon="4.50662">
        <ele>724.2</ele>
        <time>2025-09-10T12:18:21Z</time>
      </trkpt>
      <trkpt lat="45.81419" lon="4.50662">
        <ele>724.2</ele>
        <time>2025-09-10T12:18:22Z</time>
      </trkpt>
      <trkpt lat="45.81421" lon="4.50661">
        <ele>724.4</ele>
        <time>2025-09-10T12:18:23Z</time>
      </trkpt>
      <trkpt lat="45.81422" lon="4.5066">
        <ele>724.4</ele>
        <time>2025-09-10T12:18:24Z</time>
      </trkpt>
      <trkpt lat="45.81424" lon="4.50659">
        <ele>724.4</ele>
        <time>2025-09-10T12:18:25Z</time>
      </trkpt>
      <trkpt lat="45.81426" lon="4.50659">
        <ele>724.8</ele>
        <time>2025-09-10T12:18:26Z</time>
      </trkpt>
      <trkpt lat="45.81427" lon="4.50658">
        <ele>724.8</ele>
        <time>2025-09-10T12:18:27Z</time>
      </trkpt>
      <trkpt lat="45.81429" lon="4.50657">
        <ele>724.8</ele>
        <time>2025-09-10T12:18:28Z</time>
      </trkpt>
      <trkpt lat="45.8143" lon="4.50656">
        <ele>724.8</ele>
        <time>2025-09-10T12:18:29Z</time>
      </trkpt>
      <trkpt lat="45.81432" lon="4.50656">
        <ele>725</ele>
        <time>2025-09-10T12:18:30Z</time>
      </trkpt>
      <trkpt lat="45.81433" lon="4.50655">
        <ele>725.2</ele>
        <time>2025-09-10T12:18:31Z</time>
      </trkpt>
      <trkpt lat="45.81435" lon="4.50654">
        <ele>725.6</ele>
        <time>2025-09-10T12:18:32Z</time>
      </trkpt>
      <trkpt lat="45.81436" lon="4.50654">
        <ele>725.6</ele>
        <time>2025-09-10T12:18:33Z</time>
      </trkpt>
      <trkpt lat="45.81438" lon="4.50654">
        <ele>726</ele>
        <time>2025-09-10T12:18:34Z</time>
      </trkpt>
      <trkpt lat="45.8144" lon="4.50653">
        <ele>726.2</ele>
        <time>2025-09-10T12:18:35Z</time>
      </trkpt>
      <trkpt lat="45.81441" lon="4.50653">
        <ele>726.2</ele>
        <time>2025-09-10T12:18:36Z</time>
      </trkpt>
      <trkpt lat="45.81443" lon="4.50652">
        <ele>726.4</ele>
        <time>2025-09-10T12:18:37Z</time>
      </trkpt>
      <trkpt lat="45.81445" lon="4.50651">
        <ele>726.4</ele>
        <time>2025-09-10T12:18:38Z</time>
      </trkpt>
      <trkpt lat="45.81447" lon="4.50651">
        <ele>726.4</ele>
        <time>2025-09-10T12:18:39Z</time>
      </trkpt>
      <trkpt lat="45.81448" lon="4.5065">
        <ele>726.8</ele>
        <time>2025-09-10T12:18:40Z</time>
      </trkpt>
      <trkpt lat="45.8145" lon="4.50649">
        <ele>726.8</ele>
        <time>2025-09-10T12:18:41Z</time>
      </trkpt>
      <trkpt lat="45.81452" lon="4.50648">
        <ele>727</ele>
        <time>2025-09-10T12:18:42Z</time>
      </trkpt>
      <trkpt lat="45.81454" lon="4.50647">
        <ele>727</ele>
        <time>2025-09-10T12:18:43Z</time>
      </trkpt>
      <trkpt lat="45.81455" lon="4.50646">
        <ele>727</ele>
        <time>2025-09-10T12:18:44Z</time>
      </trkpt>
      <trkpt lat="45.81457" lon="4.50646">
        <ele>727.2</ele>
        <time>2025-09-10T12:18:45Z</time>
      </trkpt>
      <trkpt lat="45.81459" lon="4.50645">
        <ele>727.2</ele>
        <time>2025-09-10T12:18:46Z</time>
      </trkpt>
      <trkpt lat="45.81461" lon="4.50645">
        <ele>727.4</ele>
        <time>2025-09-10T12:18:47Z</time>
      </trkpt>
      <trkpt lat="45.81463" lon="4.50644">
        <ele>727.4</ele>
        <time>2025-09-10T12:18:48Z</time>
      </trkpt>
      <trkpt lat="45.81464" lon="4.50643">
        <ele>727.8</ele>
        <time>2025-09-10T12:18:49Z</time>
      </trkpt>
      <trkpt lat="45.81466" lon="4.50642">
        <ele>727.8</ele>
        <time>2025-09-10T12:18:50Z</time>
      </trkpt>
      <trkpt lat="45.81468" lon="4.50642">
        <ele>728</ele>
        <time>2025-09-10T12:18:51Z</time>
      </trkpt>
      <trkpt lat="45.8147" lon="4.50641">
        <ele>728</ele>
        <time>2025-09-10T12:18:52Z</time>
      </trkpt>
      <trkpt lat="45.81471" lon="4.50641">
        <ele>728</ele>
        <time>2025-09-10T12:18:53Z</time>
      </trkpt>
      <trkpt lat="45.81473" lon="4.5064">
        <ele>728.2</ele>
        <time>2025-09-10T12:18:54Z</time>
      </trkpt>
      <trkpt lat="45.81475" lon="4.50639">
        <ele>728.2</ele>
        <time>2025-09-10T12:18:55Z</time>
      </trkpt>
      <trkpt lat="45.81476" lon="4.50638">
        <ele>728.2</ele>
        <time>2025-09-10T12:18:56Z</time>
      </trkpt>
      <trkpt lat="45.81478" lon="4.50637">
        <ele>728.6</ele>
        <time>2025-09-10T12:18:57Z</time>
      </trkpt>
      <trkpt lat="45.81479" lon="4.50636">
        <ele>728.6</ele>
        <time>2025-09-10T12:18:58Z</time>
      </trkpt>
      <trkpt lat="45.81481" lon="4.50636">
        <ele>728.6</ele>
        <time>2025-09-10T12:18:59Z</time>
      </trkpt>
      <trkpt lat="45.81483" lon="4.50635">
        <ele>728.8</ele>
        <time>2025-09-10T12:19:00Z</time>
      </trkpt>
      <trkpt lat="45.81485" lon="4.50635">
        <ele>728.8</ele>
        <time>2025-09-10T12:19:01Z</time>
      </trkpt>
      <trkpt lat="45.81487" lon="4.50634">
        <ele>729</ele>
        <time>2025-09-10T12:19:02Z</time>
      </trkpt>
      <trkpt lat="45.81488" lon="4.50633">
        <ele>729</ele>
        <time>2025-09-10T12:19:03Z</time>
      </trkpt>
      <trkpt lat="45.8149" lon="4.50633">
        <ele>729</ele>
        <time>2025-09-10T12:19:04Z</time>
      </trkpt>
      <trkpt lat="45.81492" lon="4.50632">
        <ele>729.4</ele>
        <time>2025-09-10T12:19:05Z</time>
      </trkpt>
      <trkpt lat="45.81494" lon="4.50631">
        <ele>729.4</ele>
        <time>2025-09-10T12:19:06Z</time>
      </trkpt>
      <trkpt lat="45.81496" lon="4.50631">
        <ele>729.4</ele>
        <time>2025-09-10T12:19:07Z</time>
      </trkpt>
      <trkpt lat="45.81498" lon="4.5063">
        <ele>729.6</ele>
        <time>2025-09-10T12:19:08Z</time>
      </trkpt>
      <trkpt lat="45.81499" lon="4.50629">
        <ele>729.6</ele>
        <time>2025-09-10T12:19:09Z</time>
      </trkpt>
      <trkpt lat="45.81501" lon="4.50628">
        <ele>729.6</ele>
        <time>2025-09-10T12:19:10Z</time>
      </trkpt>
      <trkpt lat="45.81502" lon="4.50627">
        <ele>729.8</ele>
        <time>2025-09-10T12:19:11Z</time>
      </trkpt>
      <trkpt lat="45.81504" lon="4.50626">
        <ele>729.8</ele>
        <time>2025-09-10T12:19:12Z</time>
      </trkpt>
      <trkpt lat="45.81506" lon="4.50625">
        <ele>728.6</ele>
        <time>2025-09-10T12:19:13Z</time>
      </trkpt>
      <trkpt lat="45.81507" lon="4.50624">
        <ele>729.2</ele>
        <time>2025-09-10T12:19:14Z</time>
      </trkpt>
      <trkpt lat="45.81509" lon="4.50622">
        <ele>729.2</ele>
        <time>2025-09-10T12:19:15Z</time>
      </trkpt>
      <trkpt lat="45.8151" lon="4.50621">
        <ele>729.6</ele>
        <time>2025-09-10T12:19:16Z</time>
      </trkpt>
      <trkpt lat="45.81511" lon="4.5062">
        <ele>729.6</ele>
        <time>2025-09-10T12:19:17Z</time>
      </trkpt>
      <trkpt lat="45.81513" lon="4.50619">
        <ele>729.6</ele>
        <time>2025-09-10T12:19:18Z</time>
      </trkpt>
      <trkpt lat="45.81514" lon="4.50619">
        <ele>729.6</ele>
        <time>2025-09-10T12:19:19Z</time>
      </trkpt>
      <trkpt lat="45.81516" lon="4.50618">
        <ele>729.6</ele>
        <time>2025-09-10T12:19:20Z</time>
      </trkpt>
      <trkpt lat="45.81518" lon="4.50619">
        <ele>729.6</ele>
        <time>2025-09-10T12:19:21Z</time>
      </trkpt>
      <trkpt lat="45.81521" lon="4.5062">
        <ele>729.6</ele>
        <time>2025-09-10T12:19:22Z</time>
      </trkpt>
      <trkpt lat="45.81523" lon="4.50621">
        <ele>729.6</ele>
        <time>2025-09-10T12:19:23Z</time>
      </trkpt>
      <trkpt lat="45.81525" lon="4.50624">
        <ele>729.6</ele>
        <time>2025-09-10T12:19:24Z</time>
      </trkpt>
      <trkpt lat="45.81527" lon="4.50626">
        <ele>729.8</ele>
        <time>2025-09-10T12:19:25Z</time>
      </trkpt>
      <trkpt lat="45.81529" lon="4.50629">
        <ele>729.8</ele>
        <time>2025-09-10T12:19:26Z</time>
      </trkpt>
      <trkpt lat="45.8153" lon="4.50633">
        <ele>729.8</ele>
        <time>2025-09-10T12:19:27Z</time>
      </trkpt>
      <trkpt lat="45.81532" lon="4.50636">
        <ele>729.8</ele>
        <time>2025-09-10T12:19:28Z</time>
      </trkpt>
      <trkpt lat="45.81534" lon="4.50641">
        <ele>729.8</ele>
        <time>2025-09-10T12:19:29Z</time>
      </trkpt>
      <trkpt lat="45.81536" lon="4.50645">
        <ele>729.8</ele>
        <time>2025-09-10T12:19:30Z</time>
      </trkpt>
      <trkpt lat="45.81539" lon="4.50649">
        <ele>729.8</ele>
        <time>2025-09-10T12:19:31Z</time>
      </trkpt>
      <trkpt lat="45.81541" lon="4.50654">
        <ele>729.8</ele>
        <time>2025-09-10T12:19:32Z</time>
      </trkpt>
      <trkpt lat="45.81544" lon="4.50658">
        <ele>729.4</ele>
        <time>2025-09-10T12:19:33Z</time>
      </trkpt>
      <trkpt lat="45.81546" lon="4.50663">
        <ele>729.2</ele>
        <time>2025-09-10T12:19:34Z</time>
      </trkpt>
      <trkpt lat="45.81549" lon="4.50669">
        <ele>728.6</ele>
        <time>2025-09-10T12:19:35Z</time>
      </trkpt>
      <trkpt lat="45.81553" lon="4.50676">
        <ele>728.4</ele>
        <time>2025-09-10T12:19:36Z</time>
      </trkpt>
      <trkpt lat="45.81556" lon="4.50683">
        <ele>728</ele>
        <time>2025-09-10T12:19:37Z</time>
      </trkpt>
      <trkpt lat="45.81559" lon="4.5069">
        <ele>727.6</ele>
        <time>2025-09-10T12:19:38Z</time>
      </trkpt>
      <trkpt lat="45.81563" lon="4.50698">
        <ele>727.6</ele>
        <time>2025-09-10T12:19:39Z</time>
      </trkpt>
      <trkpt lat="45.81568" lon="4.50706">
        <ele>727.6</ele>
        <time>2025-09-10T12:19:40Z</time>
      </trkpt>
      <trkpt lat="45.81571" lon="4.50714">
        <ele>727.2</ele>
        <time>2025-09-10T12:19:41Z</time>
      </trkpt>
      <trkpt lat="45.81575" lon="4.50721">
        <ele>727</ele>
        <time>2025-09-10T12:19:42Z</time>
      </trkpt>
      <trkpt lat="45.8158" lon="4.50728">
        <ele>726.2</ele>
        <time>2025-09-10T12:19:43Z</time>
      </trkpt>
      <trkpt lat="45.81584" lon="4.50735">
        <ele>726.2</ele>
        <time>2025-09-10T12:19:44Z</time>
      </trkpt>
      <trkpt lat="45.81588" lon="4.5074">
        <ele>726.2</ele>
        <time>2025-09-10T12:19:45Z</time>
      </trkpt>
      <trkpt lat="45.81592" lon="4.50746">
        <ele>726.4</ele>
        <time>2025-09-10T12:19:46Z</time>
      </trkpt>
      <trkpt lat="45.81595" lon="4.5075">
        <ele>726.8</ele>
        <time>2025-09-10T12:19:47Z</time>
      </trkpt>
      <trkpt lat="45.81597" lon="4.50754">
        <ele>727.2</ele>
        <time>2025-09-10T12:19:48Z</time>
      </trkpt>
      <trkpt lat="45.81599" lon="4.50757">
        <ele>727.2</ele>
        <time>2025-09-10T12:19:49Z</time>
      </trkpt>
      <trkpt lat="45.81601" lon="4.5076">
        <ele>727.6</ele>
        <time>2025-09-10T12:19:50Z</time>
      </trkpt>
      <trkpt lat="45.81603" lon="4.50763">
        <ele>727.8</ele>
        <time>2025-09-10T12:19:51Z</time>
      </trkpt>
      <trkpt lat="45.81605" lon="4.50765">
        <ele>727.8</ele>
        <time>2025-09-10T12:19:52Z</time>
      </trkpt>
      <trkpt lat="45.81606" lon="4.50769">
        <ele>728.2</ele>
        <time>2025-09-10T12:19:53Z</time>
      </trkpt>
      <trkpt lat="45.81607" lon="4.50772">
        <ele>728.4</ele>
        <time>2025-09-10T12:19:54Z</time>
      </trkpt>
      <trkpt lat="45.81609" lon="4.50774">
        <ele>728.4</ele>
        <time>2025-09-10T12:19:55Z</time>
      </trkpt>
      <trkpt lat="45.81611" lon="4.50778">
        <ele>728.8</ele>
        <time>2025-09-10T12:19:56Z</time>
      </trkpt>
      <trkpt lat="45.81612" lon="4.50781">
        <ele>728.8</ele>
        <time>2025-09-10T12:19:57Z</time>
      </trkpt>
      <trkpt lat="45.81614" lon="4.50784">
        <ele>729</ele>
        <time>2025-09-10T12:19:58Z</time>
      </trkpt>
      <trkpt lat="45.81615" lon="4.50787">
        <ele>729.2</ele>
        <time>2025-09-10T12:19:59Z</time>
      </trkpt>
      <trkpt lat="45.81617" lon="4.50793">
        <ele>729.2</ele>
        <time>2025-09-10T12:20:00Z</time>
      </trkpt>
      <trkpt lat="45.81619" lon="4.50797">
        <ele>729.6</ele>
        <time>2025-09-10T12:20:01Z</time>
      </trkpt>
      <trkpt lat="45.8162" lon="4.508">
        <ele>729.6</ele>
        <time>2025-09-10T12:20:02Z</time>
      </trkpt>
      <trkpt lat="45.81621" lon="4.50803">
        <ele>729.8</ele>
        <time>2025-09-10T12:20:03Z</time>
      </trkpt>
      <trkpt lat="45.81622" lon="4.50806">
        <ele>729.8</ele>
        <time>2025-09-10T12:20:04Z</time>
      </trkpt>
      <trkpt lat="45.81624" lon="4.5081">
        <ele>730</ele>
        <time>2025-09-10T12:20:05Z</time>
      </trkpt>
      <trkpt lat="45.81625" lon="4.50813">
        <ele>730</ele>
        <time>2025-09-10T12:20:06Z</time>
      </trkpt>
      <trkpt lat="45.81627" lon="4.50817">
        <ele>730</ele>
        <time>2025-09-10T12:20:07Z</time>
      </trkpt>
      <trkpt lat="45.81628" lon="4.5082">
        <ele>730.2</ele>
        <time>2025-09-10T12:20:08Z</time>
      </trkpt>
      <trkpt lat="45.8163" lon="4.50824">
        <ele>730.2</ele>
        <time>2025-09-10T12:20:09Z</time>
      </trkpt>
      <trkpt lat="45.81631" lon="4.50828">
        <ele>730.2</ele>
        <time>2025-09-10T12:20:10Z</time>
      </trkpt>
      <trkpt lat="45.81632" lon="4.50831">
        <ele>730.2</ele>
        <time>2025-09-10T12:20:11Z</time>
      </trkpt>
      <trkpt lat="45.81632" lon="4.50831">
        <ele>730.2</ele>
        <time>2025-09-10T12:20:12Z</time>
      </trkpt>
      <trkpt lat="45.81634" lon="4.50835">
        <ele>730.2</ele>
        <time>2025-09-10T12:20:13Z</time>
      </trkpt>
      <trkpt lat="45.81636" lon="4.50839">
        <ele>730.6</ele>
        <time>2025-09-10T12:20:14Z</time>
      </trkpt>
      <trkpt lat="45.81638" lon="4.50843">
        <ele>730.6</ele>
        <time>2025-09-10T12:20:15Z</time>
      </trkpt>
      <trkpt lat="45.81641" lon="4.50848">
        <ele>730.6</ele>
        <time>2025-09-10T12:20:16Z</time>
      </trkpt>
      <trkpt lat="45.81644" lon="4.50854">
        <ele>730.2</ele>
        <time>2025-09-10T12:20:17Z</time>
      </trkpt>
      <trkpt lat="45.81647" lon="4.50859">
        <ele>730.2</ele>
        <time>2025-09-10T12:20:18Z</time>
      </trkpt>
      <trkpt lat="45.81651" lon="4.50865">
        <ele>729.8</ele>
        <time>2025-09-10T12:20:19Z</time>
      </trkpt>
      <trkpt lat="45.81655" lon="4.5087">
        <ele>729.8</ele>
        <time>2025-09-10T12:20:20Z</time>
      </trkpt>
      <trkpt lat="45.8166" lon="4.50875">
        <ele>729.2</ele>
        <time>2025-09-10T12:20:21Z</time>
      </trkpt>
      <trkpt lat="45.81665" lon="4.50881">
        <ele>729.4</ele>
        <time>2025-09-10T12:20:22Z</time>
      </trkpt>
      <trkpt lat="45.81671" lon="4.50886">
        <ele>729</ele>
        <time>2025-09-10T12:20:23Z</time>
      </trkpt>
      <trkpt lat="45.81677" lon="4.50893">
        <ele>728.4</ele>
        <time>2025-09-10T12:20:24Z</time>
      </trkpt>
      <trkpt lat="45.81683" lon="4.509">
        <ele>728.4</ele>
        <time>2025-09-10T12:20:25Z</time>
      </trkpt>
      <trkpt lat="45.81689" lon="4.50906">
        <ele>728</ele>
        <time>2025-09-10T12:20:26Z</time>
      </trkpt>
      <trkpt lat="45.81694" lon="4.50914">
        <ele>727.8</ele>
        <time>2025-09-10T12:20:27Z</time>
      </trkpt>
      <trkpt lat="45.81699" lon="4.50921">
        <ele>727.4</ele>
        <time>2025-09-10T12:20:28Z</time>
      </trkpt>
      <trkpt lat="45.81704" lon="4.50928">
        <ele>727.2</ele>
        <time>2025-09-10T12:20:29Z</time>
      </trkpt>
      <trkpt lat="45.81709" lon="4.50935">
        <ele>726.8</ele>
        <time>2025-09-10T12:20:30Z</time>
      </trkpt>
      <trkpt lat="45.81715" lon="4.50942">
        <ele>726.8</ele>
        <time>2025-09-10T12:20:31Z</time>
      </trkpt>
      <trkpt lat="45.81719" lon="4.50948">
        <ele>726.8</ele>
        <time>2025-09-10T12:20:32Z</time>
      </trkpt>
      <trkpt lat="45.81724" lon="4.50955">
        <ele>726.2</ele>
        <time>2025-09-10T12:20:33Z</time>
      </trkpt>
      <trkpt lat="45.81728" lon="4.5096">
        <ele>726.2</ele>
        <time>2025-09-10T12:20:34Z</time>
      </trkpt>
      <trkpt lat="45.81732" lon="4.50966">
        <ele>726.2</ele>
        <time>2025-09-10T12:20:35Z</time>
      </trkpt>
      <trkpt lat="45.81736" lon="4.5097">
        <ele>726.4</ele>
        <time>2025-09-10T12:20:36Z</time>
      </trkpt>
      <trkpt lat="45.81739" lon="4.50973">
        <ele>726.4</ele>
        <time>2025-09-10T12:20:37Z</time>
      </trkpt>
      <trkpt lat="45.81742" lon="4.50976">
        <ele>727</ele>
        <time>2025-09-10T12:20:38Z</time>
      </trkpt>
      <trkpt lat="45.81744" lon="4.50978">
        <ele>727</ele>
        <time>2025-09-10T12:20:39Z</time>
      </trkpt>
      <trkpt lat="45.81746" lon="4.50981">
        <ele>726.2</ele>
        <time>2025-09-10T12:20:40Z</time>
      </trkpt>
      <trkpt lat="45.81748" lon="4.50982">
        <ele>727.8</ele>
        <time>2025-09-10T12:20:41Z</time>
      </trkpt>
      <trkpt lat="45.8175" lon="4.50983">
        <ele>728</ele>
        <time>2025-09-10T12:20:42Z</time>
      </trkpt>
      <trkpt lat="45.81751" lon="4.50984">
        <ele>728.4</ele>
        <time>2025-09-10T12:20:43Z</time>
      </trkpt>
      <trkpt lat="45.81752" lon="4.50983">
        <ele>728.4</ele>
        <time>2025-09-10T12:20:44Z</time>
      </trkpt>
      <trkpt lat="45.81754" lon="4.50982">
        <ele>728.6</ele>
        <time>2025-09-10T12:20:45Z</time>
      </trkpt>
      <trkpt lat="45.81756" lon="4.50982">
        <ele>728.6</ele>
        <time>2025-09-10T12:20:46Z</time>
      </trkpt>
      <trkpt lat="45.81759" lon="4.50981">
        <ele>728.6</ele>
        <time>2025-09-10T12:20:47Z</time>
      </trkpt>
      <trkpt lat="45.81761" lon="4.50979">
        <ele>728.6</ele>
        <time>2025-09-10T12:20:48Z</time>
      </trkpt>
      <trkpt lat="45.81763" lon="4.50978">
        <ele>728.6</ele>
        <time>2025-09-10T12:20:49Z</time>
      </trkpt>
      <trkpt lat="45.81765" lon="4.50977">
        <ele>728.6</ele>
        <time>2025-09-10T12:20:50Z</time>
      </trkpt>
      <trkpt lat="45.81766" lon="4.50976">
        <ele>728.6</ele>
        <time>2025-09-10T12:20:51Z</time>
      </trkpt>
      <trkpt lat="45.81766" lon="4.50976">
        <ele>728.6</ele>
        <time>2025-09-10T12:20:52Z</time>
      </trkpt>
      <trkpt lat="45.81764" lon="4.50975">
        <ele>728.8</ele>
        <time>2025-09-10T12:21:21Z</time>
      </trkpt>
      <trkpt lat="45.81765" lon="4.50973">
        <ele>728.8</ele>
        <time>2025-09-10T12:21:22Z</time>
      </trkpt>
      <trkpt lat="45.81767" lon="4.50972">
        <ele>728.4</ele>
        <time>2025-09-10T12:21:23Z</time>
      </trkpt>
      <trkpt lat="45.81768" lon="4.5097">
        <ele>728.4</ele>
        <time>2025-09-10T12:21:24Z</time>
      </trkpt>
      <trkpt lat="45.81769" lon="4.50969">
        <ele>728.4</ele>
        <time>2025-09-10T12:21:25Z</time>
      </trkpt>
      <trkpt lat="45.81771" lon="4.50968">
        <ele>728.2</ele>
        <time>2025-09-10T12:21:26Z</time>
      </trkpt>
      <trkpt lat="45.81774" lon="4.50966">
        <ele>728.2</ele>
        <time>2025-09-10T12:21:27Z</time>
      </trkpt>
      <trkpt lat="45.81776" lon="4.50964">
        <ele>728.2</ele>
        <time>2025-09-10T12:21:28Z</time>
      </trkpt>
      <trkpt lat="45.81778" lon="4.50962">
        <ele>728.2</ele>
        <time>2025-09-10T12:21:29Z</time>
      </trkpt>
      <trkpt lat="45.81779" lon="4.50961">
        <ele>728.2</ele>
        <time>2025-09-10T12:21:30Z</time>
      </trkpt>
      <trkpt lat="45.81781" lon="4.50959">
        <ele>728</ele>
        <time>2025-09-10T12:21:31Z</time>
      </trkpt>
      <trkpt lat="45.81782" lon="4.50958">
        <ele>728</ele>
        <time>2025-09-10T12:21:32Z</time>
      </trkpt>
      <trkpt lat="45.81783" lon="4.50957">
        <ele>727.8</ele>
        <time>2025-09-10T12:21:33Z</time>
      </trkpt>
      <trkpt lat="45.81785" lon="4.50956">
        <ele>727.8</ele>
        <time>2025-09-10T12:21:34Z</time>
      </trkpt>
      <trkpt lat="45.81786" lon="4.50956">
        <ele>727.8</ele>
        <time>2025-09-10T12:21:35Z</time>
      </trkpt>
      <trkpt lat="45.81787" lon="4.50955">
        <ele>727.6</ele>
        <time>2025-09-10T12:21:36Z</time>
      </trkpt>
      <trkpt lat="45.81788" lon="4.50953">
        <ele>727.6</ele>
        <time>2025-09-10T12:21:37Z</time>
      </trkpt>
      <trkpt lat="45.81789" lon="4.50952">
        <ele>727.6</ele>
        <time>2025-09-10T12:21:38Z</time>
      </trkpt>
      <trkpt lat="45.8179" lon="4.5095">
        <ele>727.6</ele>
        <time>2025-09-10T12:21:39Z</time>
      </trkpt>
      <trkpt lat="45.81791" lon="4.50949">
        <ele>727.6</ele>
        <time>2025-09-10T12:21:40Z</time>
      </trkpt>
      <trkpt lat="45.81792" lon="4.50948">
        <ele>727.6</ele>
        <time>2025-09-10T12:21:41Z</time>
      </trkpt>
      <trkpt lat="45.81794" lon="4.50948">
        <ele>727.4</ele>
        <time>2025-09-10T12:21:42Z</time>
      </trkpt>
      <trkpt lat="45.81795" lon="4.50946">
        <ele>727.2</ele>
        <time>2025-09-10T12:21:43Z</time>
      </trkpt>
      <trkpt lat="45.81797" lon="4.50945">
        <ele>726.8</ele>
        <time>2025-09-10T12:21:44Z</time>
      </trkpt>
      <trkpt lat="45.81799" lon="4.50943">
        <ele>726.6</ele>
        <time>2025-09-10T12:21:45Z</time>
      </trkpt>
      <trkpt lat="45.81802" lon="4.5094">
        <ele>726.6</ele>
        <time>2025-09-10T12:21:46Z</time>
      </trkpt>
      <trkpt lat="45.81804" lon="4.50936">
        <ele>726.6</ele>
        <time>2025-09-10T12:21:47Z</time>
      </trkpt>
      <trkpt lat="45.81807" lon="4.50932">
        <ele>725.8</ele>
        <time>2025-09-10T12:21:48Z</time>
      </trkpt>
      <trkpt lat="45.81811" lon="4.50929">
        <ele>725.6</ele>
        <time>2025-09-10T12:21:49Z</time>
      </trkpt>
      <trkpt lat="45.81814" lon="4.50925">
        <ele>725.4</ele>
        <time>2025-09-10T12:21:50Z</time>
      </trkpt>
      <trkpt lat="45.81817" lon="4.50922">
        <ele>725.4</ele>
        <time>2025-09-10T12:21:51Z</time>
      </trkpt>
      <trkpt lat="45.81821" lon="4.50918">
        <ele>724.6</ele>
        <time>2025-09-10T12:21:52Z</time>
      </trkpt>
      <trkpt lat="45.81825" lon="4.50915">
        <ele>724.2</ele>
        <time>2025-09-10T12:21:53Z</time>
      </trkpt>
      <trkpt lat="45.81829" lon="4.50911">
        <ele>723.8</ele>
        <time>2025-09-10T12:21:54Z</time>
      </trkpt>
      <trkpt lat="45.81833" lon="4.50906">
        <ele>723.2</ele>
        <time>2025-09-10T12:21:55Z</time>
      </trkpt>
      <trkpt lat="45.81837" lon="4.50901">
        <ele>722.8</ele>
        <time>2025-09-10T12:21:56Z</time>
      </trkpt>
      <trkpt lat="45.81841" lon="4.50896">
        <ele>722.4</ele>
        <time>2025-09-10T12:21:57Z</time>
      </trkpt>
      <trkpt lat="45.81844" lon="4.50892">
        <ele>721.8</ele>
        <time>2025-09-10T12:21:58Z</time>
      </trkpt>
      <trkpt lat="45.81848" lon="4.50888">
        <ele>721.8</ele>
        <time>2025-09-10T12:21:59Z</time>
      </trkpt>
      <trkpt lat="45.81851" lon="4.50886">
        <ele>721</ele>
        <time>2025-09-10T12:22:00Z</time>
      </trkpt>
      <trkpt lat="45.81853" lon="4.50885">
        <ele>720.6</ele>
        <time>2025-09-10T12:22:01Z</time>
      </trkpt>
      <trkpt lat="45.81856" lon="4.50884">
        <ele>720</ele>
        <time>2025-09-10T12:22:02Z</time>
      </trkpt>
      <trkpt lat="45.81858" lon="4.50883">
        <ele>719.6</ele>
        <time>2025-09-10T12:22:03Z</time>
      </trkpt>
      <trkpt lat="45.8186" lon="4.50883">
        <ele>719.4</ele>
        <time>2025-09-10T12:22:04Z</time>
      </trkpt>
      <trkpt lat="45.81861" lon="4.50884">
        <ele>719.4</ele>
        <time>2025-09-10T12:22:05Z</time>
      </trkpt>
      <trkpt lat="45.81863" lon="4.50885">
        <ele>719</ele>
        <time>2025-09-10T12:22:06Z</time>
      </trkpt>
      <trkpt lat="45.81865" lon="4.50887">
        <ele>718.8</ele>
        <time>2025-09-10T12:22:07Z</time>
      </trkpt>
      <trkpt lat="45.81865" lon="4.50887">
        <ele>718.8</ele>
        <time>2025-09-10T12:22:08Z</time>
      </trkpt>
      <trkpt lat="45.81866" lon="4.50887">
        <ele>718.6</ele>
        <time>2025-09-10T12:22:09Z</time>
      </trkpt>
      <trkpt lat="45.81866" lon="4.50887">
        <ele>718.4</ele>
        <time>2025-09-10T12:22:24Z</time>
      </trkpt>
      <trkpt lat="45.81866" lon="4.50886">
        <ele>718.4</ele>
        <time>2025-09-10T12:22:25Z</time>
      </trkpt>
      <trkpt lat="45.81865" lon="4.50886">
        <ele>718.4</ele>
        <time>2025-09-10T12:22:26Z</time>
      </trkpt>
      <trkpt lat="45.81865" lon="4.50886">
        <ele>718.4</ele>
        <time>2025-09-10T12:22:27Z</time>
      </trkpt>
      <trkpt lat="45.81865" lon="4.50886">
        <ele>718.4</ele>
        <time>2025-09-10T12:22:28Z</time>
      </trkpt>
      <trkpt lat="45.81865" lon="4.50885">
        <ele>718.4</ele>
        <time>2025-09-10T12:22:29Z</time>
      </trkpt>
      <trkpt lat="45.81864" lon="4.50885">
        <ele>718.4</ele>
        <time>2025-09-10T12:22:30Z</time>
      </trkpt>
      <trkpt lat="45.81864" lon="4.50883">
        <ele>718.4</ele>
        <time>2025-09-10T12:22:31Z</time>
      </trkpt>
      <trkpt lat="45.81864" lon="4.50883">
        <ele>718.4</ele>
        <time>2025-09-10T12:22:32Z</time>
      </trkpt>
      <trkpt lat="45.81863" lon="4.50882">
        <ele>718</ele>
        <time>2025-09-10T12:22:33Z</time>
      </trkpt>
      <trkpt lat="45.81863" lon="4.50881">
        <ele>718</ele>
        <time>2025-09-10T12:22:34Z</time>
      </trkpt>
      <trkpt lat="45.81862" lon="4.50881">
        <ele>718</ele>
        <time>2025-09-10T12:22:35Z</time>
      </trkpt>
      <trkpt lat="45.81862" lon="4.50881">
        <ele>717.6</ele>
        <time>2025-09-10T12:22:41Z</time>
      </trkpt>
      <trkpt lat="45.81864" lon="4.50879">
        <ele>717.6</ele>
        <time>2025-09-10T12:22:42Z</time>
      </trkpt>
      <trkpt lat="45.81866" lon="4.50877">
        <ele>717.4</ele>
        <time>2025-09-10T12:22:43Z</time>
      </trkpt>
      <trkpt lat="45.81868" lon="4.50877">
        <ele>717.4</ele>
        <time>2025-09-10T12:22:44Z</time>
      </trkpt>
      <trkpt lat="45.81871" lon="4.50876">
        <ele>717.2</ele>
        <time>2025-09-10T12:22:45Z</time>
      </trkpt>
      <trkpt lat="45.81874" lon="4.50875">
        <ele>716.8</ele>
        <time>2025-09-10T12:22:46Z</time>
      </trkpt>
      <trkpt lat="45.81878" lon="4.50873">
        <ele>716.8</ele>
        <time>2025-09-10T12:22:47Z</time>
      </trkpt>
      <trkpt lat="45.81882" lon="4.50872">
        <ele>716.4</ele>
        <time>2025-09-10T12:22:48Z</time>
      </trkpt>
      <trkpt lat="45.81886" lon="4.5087">
        <ele>715.8</ele>
        <time>2025-09-10T12:22:49Z</time>
      </trkpt>
      <trkpt lat="45.8189" lon="4.5087">
        <ele>715.6</ele>
        <time>2025-09-10T12:22:50Z</time>
      </trkpt>
      <trkpt lat="45.81895" lon="4.50869">
        <ele>714.8</ele>
        <time>2025-09-10T12:22:51Z</time>
      </trkpt>
      <trkpt lat="45.81898" lon="4.50867">
        <ele>714</ele>
        <time>2025-09-10T12:22:52Z</time>
      </trkpt>
      <trkpt lat="45.81902" lon="4.50866">
        <ele>713.4</ele>
        <time>2025-09-10T12:22:53Z</time>
      </trkpt>
      <trkpt lat="45.81905" lon="4.50866">
        <ele>713</ele>
        <time>2025-09-10T12:22:54Z</time>
      </trkpt>
      <trkpt lat="45.81908" lon="4.50865">
        <ele>712.6</ele>
        <time>2025-09-10T12:22:55Z</time>
      </trkpt>
      <trkpt lat="45.81912" lon="4.50864">
        <ele>711.4</ele>
        <time>2025-09-10T12:22:56Z</time>
      </trkpt>
      <trkpt lat="45.81915" lon="4.50862">
        <ele>711</ele>
        <time>2025-09-10T12:22:57Z</time>
      </trkpt>
      <trkpt lat="45.81919" lon="4.50859">
        <ele>710.4</ele>
        <time>2025-09-10T12:22:58Z</time>
      </trkpt>
      <trkpt lat="45.81922" lon="4.50856">
        <ele>709.8</ele>
        <time>2025-09-10T12:22:59Z</time>
      </trkpt>
      <trkpt lat="45.81925" lon="4.50852">
        <ele>709.2</ele>
        <time>2025-09-10T12:23:00Z</time>
      </trkpt>
      <trkpt lat="45.81927" lon="4.50847">
        <ele>708.6</ele>
        <time>2025-09-10T12:23:01Z</time>
      </trkpt>
      <trkpt lat="45.81929" lon="4.50843">
        <ele>708.2</ele>
        <time>2025-09-10T12:23:02Z</time>
      </trkpt>
      <trkpt lat="45.81932" lon="4.50839">
        <ele>707.8</ele>
        <time>2025-09-10T12:23:03Z</time>
      </trkpt>
      <trkpt lat="45.81935" lon="4.50834">
        <ele>707.4</ele>
        <time>2025-09-10T12:23:04Z</time>
      </trkpt>
      <trkpt lat="45.81938" lon="4.50829">
        <ele>707</ele>
        <time>2025-09-10T12:23:05Z</time>
      </trkpt>
      <trkpt lat="45.8194" lon="4.50824">
        <ele>706.6</ele>
        <time>2025-09-10T12:23:06Z</time>
      </trkpt>
      <trkpt lat="45.81943" lon="4.50819">
        <ele>706.4</ele>
        <time>2025-09-10T12:23:07Z</time>
      </trkpt>
      <trkpt lat="45.81946" lon="4.50814">
        <ele>706</ele>
        <time>2025-09-10T12:23:08Z</time>
      </trkpt>
      <trkpt lat="45.81948" lon="4.50808">
        <ele>706</ele>
        <time>2025-09-10T12:23:09Z</time>
      </trkpt>
      <trkpt lat="45.81951" lon="4.50803">
        <ele>705.4</ele>
        <time>2025-09-10T12:23:10Z</time>
      </trkpt>
      <trkpt lat="45.81954" lon="4.50798">
        <ele>705.2</ele>
        <time>2025-09-10T12:23:11Z</time>
      </trkpt>
      <trkpt lat="45.81956" lon="4.50792">
        <ele>704.8</ele>
        <time>2025-09-10T12:23:12Z</time>
      </trkpt>
      <trkpt lat="45.81958" lon="4.50787">
        <ele>704.6</ele>
        <time>2025-09-10T12:23:13Z</time>
      </trkpt>
      <trkpt lat="45.8196" lon="4.50781">
        <ele>704.4</ele>
        <time>2025-09-10T12:23:14Z</time>
      </trkpt>
      <trkpt lat="45.81962" lon="4.50775">
        <ele>704.4</ele>
        <time>2025-09-10T12:23:15Z</time>
      </trkpt>
      <trkpt lat="45.81964" lon="4.50769">
        <ele>704.2</ele>
        <time>2025-09-10T12:23:16Z</time>
      </trkpt>
      <trkpt lat="45.81966" lon="4.50764">
        <ele>704.2</ele>
        <time>2025-09-10T12:23:17Z</time>
      </trkpt>
      <trkpt lat="45.81968" lon="4.5076">
        <ele>703.8</ele>
        <time>2025-09-10T12:23:18Z</time>
      </trkpt>
      <trkpt lat="45.81969" lon="4.50756">
        <ele>703.6</ele>
        <time>2025-09-10T12:23:19Z</time>
      </trkpt>
      <trkpt lat="45.8197" lon="4.50752">
        <ele>703.2</ele>
        <time>2025-09-10T12:23:20Z</time>
      </trkpt>
      <trkpt lat="45.8197" lon="4.50749">
        <ele>702.8</ele>
        <time>2025-09-10T12:23:21Z</time>
      </trkpt>
      <trkpt lat="45.8197" lon="4.50745">
        <ele>702.8</ele>
        <time>2025-09-10T12:23:22Z</time>
      </trkpt>
      <trkpt lat="45.81968" lon="4.50741">
        <ele>702.8</ele>
        <time>2025-09-10T12:23:23Z</time>
      </trkpt>
      <trkpt lat="45.81965" lon="4.50736">
        <ele>702.2</ele>
        <time>2025-09-10T12:23:24Z</time>
      </trkpt>
      <trkpt lat="45.81964" lon="4.50731">
        <ele>701.6</ele>
        <time>2025-09-10T12:23:25Z</time>
      </trkpt>
      <trkpt lat="45.81961" lon="4.50725">
        <ele>701</ele>
        <time>2025-09-10T12:23:26Z</time>
      </trkpt>
      <trkpt lat="45.81957" lon="4.5072">
        <ele>700.8</ele>
        <time>2025-09-10T12:23:27Z</time>
      </trkpt>
      <trkpt lat="45.81953" lon="4.5072">
        <ele>700.6</ele>
        <time>2025-09-10T12:23:28Z</time>
      </trkpt>
      <trkpt lat="45.8195" lon="4.50716">
        <ele>700.6</ele>
        <time>2025-09-10T12:23:29Z</time>
      </trkpt>
      <trkpt lat="45.81948" lon="4.50713">
        <ele>700.6</ele>
        <time>2025-09-10T12:23:30Z</time>
      </trkpt>
      <trkpt lat="45.81946" lon="4.50708">
        <ele>700.2</ele>
        <time>2025-09-10T12:23:31Z</time>
      </trkpt>
      <trkpt lat="45.81943" lon="4.50704">
        <ele>700.2</ele>
        <time>2025-09-10T12:23:32Z</time>
      </trkpt>
      <trkpt lat="45.81941" lon="4.50701">
        <ele>700.4</ele>
        <time>2025-09-10T12:23:33Z</time>
      </trkpt>
      <trkpt lat="45.81939" lon="4.50697">
        <ele>700.8</ele>
        <time>2025-09-10T12:23:34Z</time>
      </trkpt>
      <trkpt lat="45.81937" lon="4.50695">
        <ele>700.8</ele>
        <time>2025-09-10T12:23:35Z</time>
      </trkpt>
      <trkpt lat="45.81934" lon="4.50692">
        <ele>700.8</ele>
        <time>2025-09-10T12:23:36Z</time>
      </trkpt>
      <trkpt lat="45.81931" lon="4.5069">
        <ele>700.8</ele>
        <time>2025-09-10T12:23:37Z</time>
      </trkpt>
      <trkpt lat="45.81929" lon="4.50687">
        <ele>700.8</ele>
        <time>2025-09-10T12:23:38Z</time>
      </trkpt>
      <trkpt lat="45.81927" lon="4.50685">
        <ele>701.2</ele>
        <time>2025-09-10T12:23:39Z</time>
      </trkpt>
      <trkpt lat="45.81924" lon="4.50683">
        <ele>701.2</ele>
        <time>2025-09-10T12:23:40Z</time>
      </trkpt>
      <trkpt lat="45.81922" lon="4.50681">
        <ele>701.2</ele>
        <time>2025-09-10T12:23:41Z</time>
      </trkpt>
      <trkpt lat="45.81919" lon="4.50679">
        <ele>701.4</ele>
        <time>2025-09-10T12:23:42Z</time>
      </trkpt>
      <trkpt lat="45.81917" lon="4.50677">
        <ele>701.4</ele>
        <time>2025-09-10T12:23:43Z</time>
      </trkpt>
      <trkpt lat="45.81916" lon="4.50675">
        <ele>701.6</ele>
        <time>2025-09-10T12:23:44Z</time>
      </trkpt>
      <trkpt lat="45.81914" lon="4.50672">
        <ele>701.8</ele>
        <time>2025-09-10T12:23:45Z</time>
      </trkpt>
      <trkpt lat="45.81912" lon="4.50669">
        <ele>701.8</ele>
        <time>2025-09-10T12:23:46Z</time>
      </trkpt>
      <trkpt lat="45.8191" lon="4.50667">
        <ele>702.2</ele>
        <time>2025-09-10T12:23:47Z</time>
      </trkpt>
      <trkpt lat="45.81909" lon="4.50665">
        <ele>702.2</ele>
        <time>2025-09-10T12:23:48Z</time>
      </trkpt>
      <trkpt lat="45.81908" lon="4.50664">
        <ele>702.6</ele>
        <time>2025-09-10T12:23:49Z</time>
      </trkpt>
      <trkpt lat="45.81906" lon="4.50662">
        <ele>702.6</ele>
        <time>2025-09-10T12:23:50Z</time>
      </trkpt>
      <trkpt lat="45.81905" lon="4.50661">
        <ele>702.6</ele>
        <time>2025-09-10T12:23:51Z</time>
      </trkpt>
      <trkpt lat="45.81904" lon="4.50659">
        <ele>702.6</ele>
        <time>2025-09-10T12:23:52Z</time>
      </trkpt>
      <trkpt lat="45.81902" lon="4.50658">
        <ele>702.6</ele>
        <time>2025-09-10T12:23:53Z</time>
      </trkpt>
      <trkpt lat="45.81901" lon="4.50656">
        <ele>702.6</ele>
        <time>2025-09-10T12:23:54Z</time>
      </trkpt>
      <trkpt lat="45.81899" lon="4.50654">
        <ele>702.6</ele>
        <time>2025-09-10T12:23:55Z</time>
      </trkpt>
      <trkpt lat="45.81898" lon="4.50652">
        <ele>702.6</ele>
        <time>2025-09-10T12:23:56Z</time>
      </trkpt>
      <trkpt lat="45.81896" lon="4.5065">
        <ele>702.6</ele>
        <time>2025-09-10T12:23:57Z</time>
      </trkpt>
      <trkpt lat="45.81894" lon="4.50647">
        <ele>702.6</ele>
        <time>2025-09-10T12:23:58Z</time>
      </trkpt>
      <trkpt lat="45.81891" lon="4.50645">
        <ele>702.6</ele>
        <time>2025-09-10T12:23:59Z</time>
      </trkpt>
      <trkpt lat="45.81891" lon="4.50645">
        <ele>702.6</ele>
        <time>2025-09-10T12:24:00Z</time>
      </trkpt>
      <trkpt lat="45.81891" lon="4.50645">
        <ele>702.2</ele>
        <time>2025-09-10T12:24:01Z</time>
      </trkpt>
      <trkpt lat="45.81881" lon="4.50635">
        <ele>702</ele>
        <time>2025-09-10T12:24:03Z</time>
      </trkpt>
      <trkpt lat="45.81876" lon="4.50632">
        <ele>701.4</ele>
        <time>2025-09-10T12:24:04Z</time>
      </trkpt>
      <trkpt lat="45.81875" lon="4.50631">
        <ele>701.4</ele>
        <time>2025-09-10T12:24:05Z</time>
      </trkpt>
      <trkpt lat="45.81873" lon="4.5063">
        <ele>701</ele>
        <time>2025-09-10T12:24:06Z</time>
      </trkpt>
      <trkpt lat="45.81872" lon="4.50628">
        <ele>700.8</ele>
        <time>2025-09-10T12:24:07Z</time>
      </trkpt>
      <trkpt lat="45.81871" lon="4.50626">
        <ele>700.4</ele>
        <time>2025-09-10T12:24:08Z</time>
      </trkpt>
      <trkpt lat="45.8187" lon="4.50625">
        <ele>700.4</ele>
        <time>2025-09-10T12:24:09Z</time>
      </trkpt>
      <trkpt lat="45.8187" lon="4.50624">
        <ele>700.2</ele>
        <time>2025-09-10T12:24:10Z</time>
      </trkpt>
      <trkpt lat="45.81871" lon="4.50623">
        <ele>699.8</ele>
        <time>2025-09-10T12:24:11Z</time>
      </trkpt>
      <trkpt lat="45.81872" lon="4.50621">
        <ele>699.8</ele>
        <time>2025-09-10T12:24:12Z</time>
      </trkpt>
      <trkpt lat="45.81874" lon="4.5062">
        <ele>699.6</ele>
        <time>2025-09-10T12:24:13Z</time>
      </trkpt>
      <trkpt lat="45.81875" lon="4.50619">
        <ele>699.6</ele>
        <time>2025-09-10T12:24:14Z</time>
      </trkpt>
      <trkpt lat="45.81877" lon="4.50619">
        <ele>699.6</ele>
        <time>2025-09-10T12:24:15Z</time>
      </trkpt>
      <trkpt lat="45.81877" lon="4.50619">
        <ele>699.6</ele>
        <time>2025-09-10T12:24:16Z</time>
      </trkpt>
      <trkpt lat="45.81877" lon="4.50619">
        <ele>699.2</ele>
        <time>2025-09-10T12:24:17Z</time>
      </trkpt>
      <trkpt lat="45.81878" lon="4.50619">
        <ele>699.2</ele>
        <time>2025-09-10T12:24:18Z</time>
      </trkpt>
      <trkpt lat="45.81878" lon="4.50617">
        <ele>698.6</ele>
        <time>2025-09-10T12:24:22Z</time>
      </trkpt>
      <trkpt lat="45.81878" lon="4.50616">
        <ele>698.6</ele>
        <time>2025-09-10T12:24:23Z</time>
      </trkpt>
      <trkpt lat="45.81878" lon="4.50615">
        <ele>698.4</ele>
        <time>2025-09-10T12:24:24Z</time>
      </trkpt>
      <trkpt lat="45.8188" lon="4.50614">
        <ele>698.8</ele>
        <time>2025-09-10T12:24:25Z</time>
      </trkpt>
      <trkpt lat="45.81883" lon="4.50613">
        <ele>698.6</ele>
        <time>2025-09-10T12:24:26Z</time>
      </trkpt>
      <trkpt lat="45.81884" lon="4.50612">
        <ele>698.2</ele>
        <time>2025-09-10T12:24:27Z</time>
      </trkpt>
      <trkpt lat="45.81886" lon="4.50612">
        <ele>697.8</ele>
        <time>2025-09-10T12:24:28Z</time>
      </trkpt>
      <trkpt lat="45.81886" lon="4.50611">
        <ele>697.8</ele>
        <time>2025-09-10T12:24:29Z</time>
      </trkpt>
      <trkpt lat="45.81887" lon="4.5061">
        <ele>697.4</ele>
        <time>2025-09-10T12:24:30Z</time>
      </trkpt>
      <trkpt lat="45.81888" lon="4.50608">
        <ele>697.4</ele>
        <time>2025-09-10T12:24:31Z</time>
      </trkpt>
      <trkpt lat="45.8189" lon="4.50606">
        <ele>697.2</ele>
        <time>2025-09-10T12:24:32Z</time>
      </trkpt>
      <trkpt lat="45.81891" lon="4.50605">
        <ele>697</ele>
        <time>2025-09-10T12:24:33Z</time>
      </trkpt>
      <trkpt lat="45.81891" lon="4.50605">
        <ele>696.6</ele>
        <time>2025-09-10T12:24:34Z</time>
      </trkpt>
      <trkpt lat="45.81891" lon="4.50605">
        <ele>696.6</ele>
        <time>2025-09-10T12:24:35Z</time>
      </trkpt>
      <trkpt lat="45.81892" lon="4.50602">
        <ele>696.6</ele>
        <time>2025-09-10T12:26:08Z</time>
      </trkpt>
      <trkpt lat="45.81893" lon="4.506">
        <ele>696.2</ele>
        <time>2025-09-10T12:26:09Z</time>
      </trkpt>
      <trkpt lat="45.81894" lon="4.50598">
        <ele>696</ele>
        <time>2025-09-10T12:26:10Z</time>
      </trkpt>
      <trkpt lat="45.81896" lon="4.50596">
        <ele>695.8</ele>
        <time>2025-09-10T12:26:11Z</time>
      </trkpt>
      <trkpt lat="45.81897" lon="4.50593">
        <ele>695.8</ele>
        <time>2025-09-10T12:26:12Z</time>
      </trkpt>
      <trkpt lat="45.81898" lon="4.50591">
        <ele>695.4</ele>
        <time>2025-09-10T12:26:13Z</time>
      </trkpt>
      <trkpt lat="45.819" lon="4.50588">
        <ele>695</ele>
        <time>2025-09-10T12:26:14Z</time>
      </trkpt>
      <trkpt lat="45.81902" lon="4.50586">
        <ele>695</ele>
        <time>2025-09-10T12:26:15Z</time>
      </trkpt>
      <trkpt lat="45.81904" lon="4.50584">
        <ele>695</ele>
        <time>2025-09-10T12:26:16Z</time>
      </trkpt>
      <trkpt lat="45.81906" lon="4.50583">
        <ele>694.4</ele>
        <time>2025-09-10T12:26:17Z</time>
      </trkpt>
      <trkpt lat="45.81908" lon="4.50581">
        <ele>693.8</ele>
        <time>2025-09-10T12:26:18Z</time>
      </trkpt>
      <trkpt lat="45.81909" lon="4.5058">
        <ele>693.4</ele>
        <time>2025-09-10T12:26:19Z</time>
      </trkpt>
      <trkpt lat="45.81911" lon="4.50579">
        <ele>693.2</ele>
        <time>2025-09-10T12:26:20Z</time>
      </trkpt>
      <trkpt lat="45.81913" lon="4.50577">
        <ele>692.8</ele>
        <time>2025-09-10T12:26:21Z</time>
      </trkpt>
      <trkpt lat="45.81915" lon="4.50575">
        <ele>692.4</ele>
        <time>2025-09-10T12:26:22Z</time>
      </trkpt>
      <trkpt lat="45.81917" lon="4.50573">
        <ele>692.4</ele>
        <time>2025-09-10T12:26:23Z</time>
      </trkpt>
      <trkpt lat="45.81918" lon="4.50571">
        <ele>692</ele>
        <time>2025-09-10T12:26:24Z</time>
      </trkpt>
      <trkpt lat="45.81919" lon="4.50569">
        <ele>692</ele>
        <time>2025-09-10T12:26:25Z</time>
      </trkpt>
      <trkpt lat="45.81921" lon="4.50566">
        <ele>691.6</ele>
        <time>2025-09-10T12:26:26Z</time>
      </trkpt>
      <trkpt lat="45.81923" lon="4.50564">
        <ele>691.2</ele>
        <time>2025-09-10T12:26:27Z</time>
      </trkpt>
      <trkpt lat="45.81925" lon="4.50561">
        <ele>690.8</ele>
        <time>2025-09-10T12:26:28Z</time>
      </trkpt>
      <trkpt lat="45.81928" lon="4.50558">
        <ele>690.2</ele>
        <time>2025-09-10T12:26:29Z</time>
      </trkpt>
      <trkpt lat="45.8193" lon="4.50556">
        <ele>690.2</ele>
        <time>2025-09-10T12:26:30Z</time>
      </trkpt>
      <trkpt lat="45.81933" lon="4.50553">
        <ele>690.2</ele>
        <time>2025-09-10T12:26:31Z</time>
      </trkpt>
      <trkpt lat="45.81935" lon="4.50551">
        <ele>690</ele>
        <time>2025-09-10T12:26:32Z</time>
      </trkpt>
      <trkpt lat="45.81937" lon="4.50549">
        <ele>689.4</ele>
        <time>2025-09-10T12:26:33Z</time>
      </trkpt>
      <trkpt lat="45.81938" lon="4.50546">
        <ele>689.6</ele>
        <time>2025-09-10T12:26:34Z</time>
      </trkpt>
      <trkpt lat="45.81939" lon="4.50544">
        <ele>689.2</ele>
        <time>2025-09-10T12:26:35Z</time>
      </trkpt>
      <trkpt lat="45.8194" lon="4.50543">
        <ele>688.8</ele>
        <time>2025-09-10T12:26:36Z</time>
      </trkpt>
      <trkpt lat="45.81943" lon="4.5054">
        <ele>688.6</ele>
        <time>2025-09-10T12:26:37Z</time>
      </trkpt>
      <trkpt lat="45.81946" lon="4.50537">
        <ele>688.2</ele>
        <time>2025-09-10T12:26:38Z</time>
      </trkpt>
      <trkpt lat="45.81948" lon="4.50534">
        <ele>687.8</ele>
        <time>2025-09-10T12:26:39Z</time>
      </trkpt>
      <trkpt lat="45.81951" lon="4.5053">
        <ele>687.4</ele>
        <time>2025-09-10T12:26:40Z</time>
      </trkpt>
      <trkpt lat="45.81953" lon="4.50527">
        <ele>687</ele>
        <time>2025-09-10T12:26:41Z</time>
      </trkpt>
      <trkpt lat="45.81955" lon="4.50524">
        <ele>686.6</ele>
        <time>2025-09-10T12:26:42Z</time>
      </trkpt>
      <trkpt lat="45.81957" lon="4.50521">
        <ele>686.4</ele>
        <time>2025-09-10T12:26:43Z</time>
      </trkpt>
      <trkpt lat="45.8196" lon="4.50519">
        <ele>686.4</ele>
        <time>2025-09-10T12:26:44Z</time>
      </trkpt>
      <trkpt lat="45.81961" lon="4.50517">
        <ele>685.6</ele>
        <time>2025-09-10T12:26:45Z</time>
      </trkpt>
      <trkpt lat="45.81962" lon="4.50515">
        <ele>685.4</ele>
        <time>2025-09-10T12:26:46Z</time>
      </trkpt>
      <trkpt lat="45.81964" lon="4.50513">
        <ele>685</ele>
        <time>2025-09-10T12:26:47Z</time>
      </trkpt>
      <trkpt lat="45.81966" lon="4.50511">
        <ele>684.6</ele>
        <time>2025-09-10T12:26:48Z</time>
      </trkpt>
      <trkpt lat="45.81967" lon="4.50508">
        <ele>684.2</ele>
        <time>2025-09-10T12:26:49Z</time>
      </trkpt>
      <trkpt lat="45.81969" lon="4.50506">
        <ele>684.2</ele>
        <time>2025-09-10T12:26:50Z</time>
      </trkpt>
      <trkpt lat="45.81971" lon="4.50504">
        <ele>684</ele>
        <time>2025-09-10T12:26:51Z</time>
      </trkpt>
      <trkpt lat="45.81972" lon="4.50502">
        <ele>684</ele>
        <time>2025-09-10T12:26:52Z</time>
      </trkpt>
      <trkpt lat="45.81974" lon="4.505">
        <ele>683.8</ele>
        <time>2025-09-10T12:26:53Z</time>
      </trkpt>
      <trkpt lat="45.81976" lon="4.50498">
        <ele>683.4</ele>
        <time>2025-09-10T12:26:54Z</time>
      </trkpt>
      <trkpt lat="45.81978" lon="4.50495">
        <ele>682.8</ele>
        <time>2025-09-10T12:26:55Z</time>
      </trkpt>
      <trkpt lat="45.8198" lon="4.50492">
        <ele>682</ele>
        <time>2025-09-10T12:26:56Z</time>
      </trkpt>
      <trkpt lat="45.81982" lon="4.5049">
        <ele>682</ele>
        <time>2025-09-10T12:26:57Z</time>
      </trkpt>
      <trkpt lat="45.81983" lon="4.50487">
        <ele>682</ele>
        <time>2025-09-10T12:26:58Z</time>
      </trkpt>
      <trkpt lat="45.81985" lon="4.50485">
        <ele>681.4</ele>
        <time>2025-09-10T12:26:59Z</time>
      </trkpt>
      <trkpt lat="45.81987" lon="4.50483">
        <ele>681.2</ele>
        <time>2025-09-10T12:27:00Z</time>
      </trkpt>
      <trkpt lat="45.81989" lon="4.5048">
        <ele>680.8</ele>
        <time>2025-09-10T12:27:01Z</time>
      </trkpt>
      <trkpt lat="45.81991" lon="4.50479">
        <ele>680.8</ele>
        <time>2025-09-10T12:27:02Z</time>
      </trkpt>
      <trkpt lat="45.81993" lon="4.50477">
        <ele>680.6</ele>
        <time>2025-09-10T12:27:03Z</time>
      </trkpt>
      <trkpt lat="45.81995" lon="4.50474">
        <ele>679.8</ele>
        <time>2025-09-10T12:27:04Z</time>
      </trkpt>
      <trkpt lat="45.81997" lon="4.50472">
        <ele>679.6</ele>
        <time>2025-09-10T12:27:05Z</time>
      </trkpt>
      <trkpt lat="45.81998" lon="4.5047">
        <ele>679.2</ele>
        <time>2025-09-10T12:27:06Z</time>
      </trkpt>
      <trkpt lat="45.82" lon="4.50468">
        <ele>679.6</ele>
        <time>2025-09-10T12:27:07Z</time>
      </trkpt>
      <trkpt lat="45.82002" lon="4.50465">
        <ele>678.8</ele>
        <time>2025-09-10T12:27:08Z</time>
      </trkpt>
      <trkpt lat="45.82004" lon="4.50464">
        <ele>678.8</ele>
        <time>2025-09-10T12:27:09Z</time>
      </trkpt>
      <trkpt lat="45.82005" lon="4.50462">
        <ele>678</ele>
        <time>2025-09-10T12:27:10Z</time>
      </trkpt>
      <trkpt lat="45.82007" lon="4.50461">
        <ele>677.8</ele>
        <time>2025-09-10T12:27:11Z</time>
      </trkpt>
      <trkpt lat="45.82009" lon="4.50459">
        <ele>677</ele>
        <time>2025-09-10T12:27:12Z</time>
      </trkpt>
      <trkpt lat="45.82011" lon="4.50457">
        <ele>676.6</ele>
        <time>2025-09-10T12:27:13Z</time>
      </trkpt>
      <trkpt lat="45.82013" lon="4.50455">
        <ele>676.4</ele>
        <time>2025-09-10T12:27:14Z</time>
      </trkpt>
      <trkpt lat="45.82014" lon="4.50452">
        <ele>675.8</ele>
        <time>2025-09-10T12:27:15Z</time>
      </trkpt>
      <trkpt lat="45.82016" lon="4.50449">
        <ele>675.8</ele>
        <time>2025-09-10T12:27:16Z</time>
      </trkpt>
      <trkpt lat="45.82017" lon="4.50445">
        <ele>675.4</ele>
        <time>2025-09-10T12:27:17Z</time>
      </trkpt>
      <trkpt lat="45.8202" lon="4.50442">
        <ele>675</ele>
        <time>2025-09-10T12:27:18Z</time>
      </trkpt>
      <trkpt lat="45.82022" lon="4.50439">
        <ele>674.8</ele>
        <time>2025-09-10T12:27:19Z</time>
      </trkpt>
      <trkpt lat="45.82024" lon="4.50436">
        <ele>674.8</ele>
        <time>2025-09-10T12:27:20Z</time>
      </trkpt>
      <trkpt lat="45.82025" lon="4.50434">
        <ele>673.8</ele>
        <time>2025-09-10T12:27:21Z</time>
      </trkpt>
      <trkpt lat="45.82027" lon="4.50431">
        <ele>673.6</ele>
        <time>2025-09-10T12:27:22Z</time>
      </trkpt>
      <trkpt lat="45.82029" lon="4.50428">
        <ele>673.2</ele>
        <time>2025-09-10T12:27:23Z</time>
      </trkpt>
      <trkpt lat="45.82032" lon="4.50425">
        <ele>672.8</ele>
        <time>2025-09-10T12:27:24Z</time>
      </trkpt>
      <trkpt lat="45.82034" lon="4.50422">
        <ele>672.8</ele>
        <time>2025-09-10T12:27:25Z</time>
      </trkpt>
      <trkpt lat="45.82035" lon="4.5042">
        <ele>672.2</ele>
        <time>2025-09-10T12:27:26Z</time>
      </trkpt>
      <trkpt lat="45.82037" lon="4.50419">
        <ele>671.8</ele>
        <time>2025-09-10T12:27:27Z</time>
      </trkpt>
      <trkpt lat="45.82038" lon="4.50417">
        <ele>671.4</ele>
        <time>2025-09-10T12:27:28Z</time>
      </trkpt>
      <trkpt lat="45.82039" lon="4.50415">
        <ele>670.8</ele>
        <time>2025-09-10T12:27:29Z</time>
      </trkpt>
      <trkpt lat="45.8204" lon="4.50413">
        <ele>670.4</ele>
        <time>2025-09-10T12:27:30Z</time>
      </trkpt>
      <trkpt lat="45.82042" lon="4.5041">
        <ele>669.8</ele>
        <time>2025-09-10T12:27:31Z</time>
      </trkpt>
      <trkpt lat="45.82044" lon="4.50406">
        <ele>669.8</ele>
        <time>2025-09-10T12:27:32Z</time>
      </trkpt>
      <trkpt lat="45.82046" lon="4.50401">
        <ele>669.2</ele>
        <time>2025-09-10T12:27:33Z</time>
      </trkpt>
      <trkpt lat="45.82048" lon="4.50397">
        <ele>668.8</ele>
        <time>2025-09-10T12:27:34Z</time>
      </trkpt>
      <trkpt lat="45.82049" lon="4.50392">
        <ele>668.4</ele>
        <time>2025-09-10T12:27:35Z</time>
      </trkpt>
      <trkpt lat="45.82051" lon="4.50387">
        <ele>667.8</ele>
        <time>2025-09-10T12:27:36Z</time>
      </trkpt>
      <trkpt lat="45.82052" lon="4.50382">
        <ele>667.4</ele>
        <time>2025-09-10T12:27:37Z</time>
      </trkpt>
      <trkpt lat="45.82052" lon="4.50378">
        <ele>666.8</ele>
        <time>2025-09-10T12:27:38Z</time>
      </trkpt>
      <trkpt lat="45.82053" lon="4.50374">
        <ele>666.2</ele>
        <time>2025-09-10T12:27:39Z</time>
      </trkpt>
      <trkpt lat="45.82053" lon="4.5037">
        <ele>665.6</ele>
        <time>2025-09-10T12:27:40Z</time>
      </trkpt>
      <trkpt lat="45.82054" lon="4.50366">
        <ele>665</ele>
        <time>2025-09-10T12:27:41Z</time>
      </trkpt>
      <trkpt lat="45.82055" lon="4.50363">
        <ele>664.4</ele>
        <time>2025-09-10T12:27:42Z</time>
      </trkpt>
      <trkpt lat="45.82057" lon="4.5036">
        <ele>664</ele>
        <time>2025-09-10T12:27:43Z</time>
      </trkpt>
      <trkpt lat="45.82058" lon="4.50357">
        <ele>663.2</ele>
        <time>2025-09-10T12:27:44Z</time>
      </trkpt>
      <trkpt lat="45.8206" lon="4.50355">
        <ele>662.8</ele>
        <time>2025-09-10T12:27:45Z</time>
      </trkpt>
      <trkpt lat="45.82063" lon="4.50352">
        <ele>662.2</ele>
        <time>2025-09-10T12:27:46Z</time>
      </trkpt>
      <trkpt lat="45.82066" lon="4.5035">
        <ele>661.6</ele>
        <time>2025-09-10T12:27:47Z</time>
      </trkpt>
      <trkpt lat="45.82068" lon="4.5035">
        <ele>661.2</ele>
        <time>2025-09-10T12:27:48Z</time>
      </trkpt>
      <trkpt lat="45.82069" lon="4.50351">
        <ele>660.6</ele>
        <time>2025-09-10T12:27:49Z</time>
      </trkpt>
      <trkpt lat="45.82071" lon="4.50352">
        <ele>660.6</ele>
        <time>2025-09-10T12:27:50Z</time>
      </trkpt>
      <trkpt lat="45.82073" lon="4.50352">
        <ele>659.8</ele>
        <time>2025-09-10T12:27:51Z</time>
      </trkpt>
      <trkpt lat="45.82075" lon="4.5035">
        <ele>659.8</ele>
        <time>2025-09-10T12:27:52Z</time>
      </trkpt>
      <trkpt lat="45.82077" lon="4.50349">
        <ele>659.2</ele>
        <time>2025-09-10T12:27:53Z</time>
      </trkpt>
      <trkpt lat="45.82078" lon="4.50348">
        <ele>659</ele>
        <time>2025-09-10T12:27:54Z</time>
      </trkpt>
      <trkpt lat="45.82079" lon="4.50347">
        <ele>658.8</ele>
        <time>2025-09-10T12:27:55Z</time>
      </trkpt>
      <trkpt lat="45.82081" lon="4.50344">
        <ele>658.2</ele>
        <time>2025-09-10T12:27:56Z</time>
      </trkpt>
      <trkpt lat="45.82083" lon="4.50341">
        <ele>657.8</ele>
        <time>2025-09-10T12:27:57Z</time>
      </trkpt>
      <trkpt lat="45.82084" lon="4.5034">
        <ele>657.8</ele>
        <time>2025-09-10T12:27:58Z</time>
      </trkpt>
      <trkpt lat="45.82086" lon="4.50338">
        <ele>657.6</ele>
        <time>2025-09-10T12:27:59Z</time>
      </trkpt>
      <trkpt lat="45.82088" lon="4.50338">
        <ele>657.4</ele>
        <time>2025-09-10T12:28:00Z</time>
      </trkpt>
      <trkpt lat="45.8209" lon="4.50337">
        <ele>656.8</ele>
        <time>2025-09-10T12:28:01Z</time>
      </trkpt>
      <trkpt lat="45.82091" lon="4.50336">
        <ele>656.2</ele>
        <time>2025-09-10T12:28:02Z</time>
      </trkpt>
      <trkpt lat="45.82093" lon="4.50336">
        <ele>655.6</ele>
        <time>2025-09-10T12:28:03Z</time>
      </trkpt>
      <trkpt lat="45.82094" lon="4.50335">
        <ele>655.2</ele>
        <time>2025-09-10T12:28:04Z</time>
      </trkpt>
      <trkpt lat="45.82095" lon="4.50335">
        <ele>655</ele>
        <time>2025-09-10T12:28:05Z</time>
      </trkpt>
      <trkpt lat="45.82096" lon="4.50334">
        <ele>654.6</ele>
        <time>2025-09-10T12:28:06Z</time>
      </trkpt>
      <trkpt lat="45.82097" lon="4.50334">
        <ele>654.2</ele>
        <time>2025-09-10T12:28:07Z</time>
      </trkpt>
      <trkpt lat="45.82099" lon="4.50334">
        <ele>654</ele>
        <time>2025-09-10T12:28:08Z</time>
      </trkpt>
      <trkpt lat="45.82102" lon="4.50334">
        <ele>653.6</ele>
        <time>2025-09-10T12:28:09Z</time>
      </trkpt>
      <trkpt lat="45.82103" lon="4.50334">
        <ele>653.4</ele>
        <time>2025-09-10T12:28:10Z</time>
      </trkpt>
      <trkpt lat="45.82103" lon="4.50334">
        <ele>653.4</ele>
        <time>2025-09-10T12:28:11Z</time>
      </trkpt>
      <trkpt lat="45.82106" lon="4.50334">
        <ele>652.6</ele>
        <time>2025-09-10T12:28:35Z</time>
      </trkpt>
      <trkpt lat="45.82108" lon="4.50333">
        <ele>652.2</ele>
        <time>2025-09-10T12:28:36Z</time>
      </trkpt>
      <trkpt lat="45.82109" lon="4.50332">
        <ele>652</ele>
        <time>2025-09-10T12:28:37Z</time>
      </trkpt>
      <trkpt lat="45.82111" lon="4.5033">
        <ele>651.2</ele>
        <time>2025-09-10T12:28:38Z</time>
      </trkpt>
      <trkpt lat="45.82113" lon="4.50328">
        <ele>650.8</ele>
        <time>2025-09-10T12:28:39Z</time>
      </trkpt>
      <trkpt lat="45.82115" lon="4.50327">
        <ele>649.8</ele>
        <time>2025-09-10T12:28:40Z</time>
      </trkpt>
      <trkpt lat="45.82117" lon="4.50326">
        <ele>649.6</ele>
        <time>2025-09-10T12:28:41Z</time>
      </trkpt>
      <trkpt lat="45.8212" lon="4.50325">
        <ele>649.2</ele>
        <time>2025-09-10T12:28:42Z</time>
      </trkpt>
      <trkpt lat="45.82121" lon="4.50325">
        <ele>649</ele>
        <time>2025-09-10T12:28:43Z</time>
      </trkpt>
      <trkpt lat="45.82123" lon="4.50325">
        <ele>648.6</ele>
        <time>2025-09-10T12:28:44Z</time>
      </trkpt>
      <trkpt lat="45.82125" lon="4.50325">
        <ele>648.4</ele>
        <time>2025-09-10T12:28:45Z</time>
      </trkpt>
      <trkpt lat="45.82126" lon="4.50325">
        <ele>648</ele>
        <time>2025-09-10T12:28:46Z</time>
      </trkpt>
      <trkpt lat="45.82127" lon="4.50324">
        <ele>647.6</ele>
        <time>2025-09-10T12:28:47Z</time>
      </trkpt>
      <trkpt lat="45.8213" lon="4.50322">
        <ele>647</ele>
        <time>2025-09-10T12:28:48Z</time>
      </trkpt>
      <trkpt lat="45.82132" lon="4.50322">
        <ele>646.8</ele>
        <time>2025-09-10T12:28:49Z</time>
      </trkpt>
      <trkpt lat="45.82133" lon="4.50321">
        <ele>646.4</ele>
        <time>2025-09-10T12:28:50Z</time>
      </trkpt>
      <trkpt lat="45.82134" lon="4.5032">
        <ele>645.8</ele>
        <time>2025-09-10T12:28:51Z</time>
      </trkpt>
      <trkpt lat="45.82137" lon="4.5032">
        <ele>645.4</ele>
        <time>2025-09-10T12:28:52Z</time>
      </trkpt>
      <trkpt lat="45.82139" lon="4.50319">
        <ele>644.6</ele>
        <time>2025-09-10T12:28:53Z</time>
      </trkpt>
      <trkpt lat="45.82141" lon="4.50318">
        <ele>644</ele>
        <time>2025-09-10T12:28:54Z</time>
      </trkpt>
      <trkpt lat="45.82144" lon="4.50317">
        <ele>643.4</ele>
        <time>2025-09-10T12:28:55Z</time>
      </trkpt>
      <trkpt lat="45.82146" lon="4.50316">
        <ele>642.8</ele>
        <time>2025-09-10T12:28:56Z</time>
      </trkpt>
      <trkpt lat="45.82149" lon="4.50316">
        <ele>642.2</ele>
        <time>2025-09-10T12:28:57Z</time>
      </trkpt>
      <trkpt lat="45.82151" lon="4.50315">
        <ele>641.8</ele>
        <time>2025-09-10T12:28:58Z</time>
      </trkpt>
      <trkpt lat="45.82152" lon="4.50314">
        <ele>641.4</ele>
        <time>2025-09-10T12:28:59Z</time>
      </trkpt>
      <trkpt lat="45.82154" lon="4.50312">
        <ele>641</ele>
        <time>2025-09-10T12:29:00Z</time>
      </trkpt>
      <trkpt lat="45.82155" lon="4.50312">
        <ele>640.6</ele>
        <time>2025-09-10T12:29:01Z</time>
      </trkpt>
      <trkpt lat="45.82157" lon="4.50311">
        <ele>639.6</ele>
        <time>2025-09-10T12:29:02Z</time>
      </trkpt>
      <trkpt lat="45.82158" lon="4.50311">
        <ele>639.4</ele>
        <time>2025-09-10T12:29:03Z</time>
      </trkpt>
      <trkpt lat="45.8216" lon="4.5031">
        <ele>639</ele>
        <time>2025-09-10T12:29:04Z</time>
      </trkpt>
      <trkpt lat="45.82162" lon="4.5031">
        <ele>638.4</ele>
        <time>2025-09-10T12:29:05Z</time>
      </trkpt>
      <trkpt lat="45.82164" lon="4.5031">
        <ele>638</ele>
        <time>2025-09-10T12:29:06Z</time>
      </trkpt>
      <trkpt lat="45.82165" lon="4.5031">
        <ele>637.6</ele>
        <time>2025-09-10T12:29:07Z</time>
      </trkpt>
      <trkpt lat="45.82167" lon="4.5031">
        <ele>637.4</ele>
        <time>2025-09-10T12:29:08Z</time>
      </trkpt>
      <trkpt lat="45.82168" lon="4.5031">
        <ele>637</ele>
        <time>2025-09-10T12:29:09Z</time>
      </trkpt>
      <trkpt lat="45.82169" lon="4.5031">
        <ele>636.4</ele>
        <time>2025-09-10T12:29:10Z</time>
      </trkpt>
      <trkpt lat="45.8217" lon="4.50309">
        <ele>636</ele>
        <time>2025-09-10T12:29:11Z</time>
      </trkpt>
      <trkpt lat="45.82172" lon="4.50308">
        <ele>635.6</ele>
        <time>2025-09-10T12:29:12Z</time>
      </trkpt>
      <trkpt lat="45.82173" lon="4.50306">
        <ele>634.8</ele>
        <time>2025-09-10T12:29:13Z</time>
      </trkpt>
      <trkpt lat="45.82174" lon="4.50303">
        <ele>634.6</ele>
        <time>2025-09-10T12:29:14Z</time>
      </trkpt>
      <trkpt lat="45.82175" lon="4.503">
        <ele>634.4</ele>
        <time>2025-09-10T12:29:15Z</time>
      </trkpt>
      <trkpt lat="45.82176" lon="4.50299">
        <ele>634.4</ele>
        <time>2025-09-10T12:29:16Z</time>
      </trkpt>
      <trkpt lat="45.82176" lon="4.50298">
        <ele>633.8</ele>
        <time>2025-09-10T12:29:17Z</time>
      </trkpt>
      <trkpt lat="45.82176" lon="4.50297">
        <ele>633.6</ele>
        <time>2025-09-10T12:29:18Z</time>
      </trkpt>
      <trkpt lat="45.82177" lon="4.50292">
        <ele>633</ele>
        <time>2025-09-10T12:29:31Z</time>
      </trkpt>
      <trkpt lat="45.82178" lon="4.50292">
        <ele>633</ele>
        <time>2025-09-10T12:29:32Z</time>
      </trkpt>
      <trkpt lat="45.8218" lon="4.50292">
        <ele>632.4</ele>
        <time>2025-09-10T12:29:33Z</time>
      </trkpt>
      <trkpt lat="45.82182" lon="4.50293">
        <ele>632.4</ele>
        <time>2025-09-10T12:29:34Z</time>
      </trkpt>
      <trkpt lat="45.82183" lon="4.50293">
        <ele>632</ele>
        <time>2025-09-10T12:29:35Z</time>
      </trkpt>
      <trkpt lat="45.82185" lon="4.50294">
        <ele>631.8</ele>
        <time>2025-09-10T12:29:36Z</time>
      </trkpt>
      <trkpt lat="45.82187" lon="4.50295">
        <ele>631.2</ele>
        <time>2025-09-10T12:29:37Z</time>
      </trkpt>
      <trkpt lat="45.82189" lon="4.50295">
        <ele>631</ele>
        <time>2025-09-10T12:29:38Z</time>
      </trkpt>
      <trkpt lat="45.8219" lon="4.50295">
        <ele>630.8</ele>
        <time>2025-09-10T12:29:39Z</time>
      </trkpt>
      <trkpt lat="45.82191" lon="4.50295">
        <ele>630.8</ele>
        <time>2025-09-10T12:29:40Z</time>
      </trkpt>
      <trkpt lat="45.82191" lon="4.50295">
        <ele>630.4</ele>
        <time>2025-09-10T12:29:41Z</time>
      </trkpt>
      <trkpt lat="45.8219" lon="4.50296">
        <ele>630</ele>
        <time>2025-09-10T12:29:54Z</time>
      </trkpt>
      <trkpt lat="45.82189" lon="4.50296">
        <ele>630</ele>
        <time>2025-09-10T12:29:55Z</time>
      </trkpt>
      <trkpt lat="45.8219" lon="4.50297">
        <ele>629.8</ele>
        <time>2025-09-10T12:29:56Z</time>
      </trkpt>
      <trkpt lat="45.82191" lon="4.50298">
        <ele>629.8</ele>
        <time>2025-09-10T12:29:57Z</time>
      </trkpt>
      <trkpt lat="45.82192" lon="4.50299">
        <ele>629.6</ele>
        <time>2025-09-10T12:29:58Z</time>
      </trkpt>
      <trkpt lat="45.82194" lon="4.50301">
        <ele>629.6</ele>
        <time>2025-09-10T12:29:59Z</time>
      </trkpt>
      <trkpt lat="45.82196" lon="4.50304">
        <ele>629</ele>
        <time>2025-09-10T12:30:00Z</time>
      </trkpt>
      <trkpt lat="45.82198" lon="4.50306">
        <ele>628.6</ele>
        <time>2025-09-10T12:30:01Z</time>
      </trkpt>
      <trkpt lat="45.822" lon="4.50307">
        <ele>628.6</ele>
        <time>2025-09-10T12:30:02Z</time>
      </trkpt>
      <trkpt lat="45.822" lon="4.50307">
        <ele>628.2</ele>
        <time>2025-09-10T12:30:03Z</time>
      </trkpt>
      <trkpt lat="45.82201" lon="4.50307">
        <ele>628</ele>
        <time>2025-09-10T12:30:04Z</time>
      </trkpt>
      <trkpt lat="45.82204" lon="4.50308">
        <ele>627.4</ele>
        <time>2025-09-10T12:30:05Z</time>
      </trkpt>
      <trkpt lat="45.82206" lon="4.50309">
        <ele>627.2</ele>
        <time>2025-09-10T12:30:06Z</time>
      </trkpt>
      <trkpt lat="45.82208" lon="4.50309">
        <ele>627.2</ele>
        <time>2025-09-10T12:30:07Z</time>
      </trkpt>
      <trkpt lat="45.82209" lon="4.5031">
        <ele>626.8</ele>
        <time>2025-09-10T12:30:08Z</time>
      </trkpt>
      <trkpt lat="45.8221" lon="4.5031">
        <ele>626.4</ele>
        <time>2025-09-10T12:30:09Z</time>
      </trkpt>
      <trkpt lat="45.82211" lon="4.50311">
        <ele>626</ele>
        <time>2025-09-10T12:30:10Z</time>
      </trkpt>
      <trkpt lat="45.82213" lon="4.50312">
        <ele>625.8</ele>
        <time>2025-09-10T12:30:11Z</time>
      </trkpt>
      <trkpt lat="45.82214" lon="4.50313">
        <ele>625.8</ele>
        <time>2025-09-10T12:30:12Z</time>
      </trkpt>
      <trkpt lat="45.82216" lon="4.50314">
        <ele>625</ele>
        <time>2025-09-10T12:30:13Z</time>
      </trkpt>
      <trkpt lat="45.82217" lon="4.50315">
        <ele>624.6</ele>
        <time>2025-09-10T12:30:14Z</time>
      </trkpt>
      <trkpt lat="45.82219" lon="4.50316">
        <ele>624.2</ele>
        <time>2025-09-10T12:30:15Z</time>
      </trkpt>
      <trkpt lat="45.82221" lon="4.50316">
        <ele>623.8</ele>
        <time>2025-09-10T12:30:16Z</time>
      </trkpt>
      <trkpt lat="45.82222" lon="4.50317">
        <ele>623.4</ele>
        <time>2025-09-10T12:30:17Z</time>
      </trkpt>
      <trkpt lat="45.82224" lon="4.50317">
        <ele>623.4</ele>
        <time>2025-09-10T12:30:18Z</time>
      </trkpt>
      <trkpt lat="45.82224" lon="4.50317">
        <ele>623</ele>
        <time>2025-09-10T12:30:19Z</time>
      </trkpt>
      <trkpt lat="45.82224" lon="4.50317">
        <ele>623</ele>
        <time>2025-09-10T12:30:20Z</time>
      </trkpt>
      <trkpt lat="45.8222" lon="4.5032">
        <ele>622.4</ele>
        <time>2025-09-10T12:30:59Z</time>
      </trkpt>
      <trkpt lat="45.82221" lon="4.50319">
        <ele>622.4</ele>
        <time>2025-09-10T12:31:00Z</time>
      </trkpt>
      <trkpt lat="45.82222" lon="4.50318">
        <ele>622</ele>
        <time>2025-09-10T12:31:01Z</time>
      </trkpt>
      <trkpt lat="45.82222" lon="4.50318">
        <ele>622</ele>
        <time>2025-09-10T12:31:02Z</time>
      </trkpt>
      <trkpt lat="45.82224" lon="4.50318">
        <ele>621.8</ele>
        <time>2025-09-10T12:31:10Z</time>
      </trkpt>
      <trkpt lat="45.82224" lon="4.50314">
        <ele>621.8</ele>
        <time>2025-09-10T12:31:11Z</time>
      </trkpt>
      <trkpt lat="45.82225" lon="4.50311">
        <ele>621.6</ele>
        <time>2025-09-10T12:31:12Z</time>
      </trkpt>
      <trkpt lat="45.82226" lon="4.50309">
        <ele>621</ele>
        <time>2025-09-10T12:31:13Z</time>
      </trkpt>
      <trkpt lat="45.82227" lon="4.50305">
        <ele>620.6</ele>
        <time>2025-09-10T12:31:14Z</time>
      </trkpt>
      <trkpt lat="45.82227" lon="4.50299">
        <ele>620.4</ele>
        <time>2025-09-10T12:31:15Z</time>
      </trkpt>
      <trkpt lat="45.82228" lon="4.50296">
        <ele>620.4</ele>
        <time>2025-09-10T12:31:16Z</time>
      </trkpt>
      <trkpt lat="45.82228" lon="4.50292">
        <ele>620.4</ele>
        <time>2025-09-10T12:31:17Z</time>
      </trkpt>
      <trkpt lat="45.82228" lon="4.50288">
        <ele>620</ele>
        <time>2025-09-10T12:31:18Z</time>
      </trkpt>
      <trkpt lat="45.82228" lon="4.50286">
        <ele>620</ele>
        <time>2025-09-10T12:31:19Z</time>
      </trkpt>
      <trkpt lat="45.82228" lon="4.50285">
        <ele>619.6</ele>
        <time>2025-09-10T12:31:20Z</time>
      </trkpt>
      <trkpt lat="45.82228" lon="4.50283">
        <ele>619.6</ele>
        <time>2025-09-10T12:31:21Z</time>
      </trkpt>
      <trkpt lat="45.82227" lon="4.50283">
        <ele>619.2</ele>
        <time>2025-09-10T12:31:22Z</time>
      </trkpt>
      <trkpt lat="45.82227" lon="4.50282">
        <ele>619.2</ele>
        <time>2025-09-10T12:31:23Z</time>
      </trkpt>
      <trkpt lat="45.82225" lon="4.50281">
        <ele>618.4</ele>
        <time>2025-09-10T12:31:54Z</time>
      </trkpt>
      <trkpt lat="45.82225" lon="4.50279">
        <ele>618.2</ele>
        <time>2025-09-10T12:31:55Z</time>
      </trkpt>
      <trkpt lat="45.82225" lon="4.50277">
        <ele>618.2</ele>
        <time>2025-09-10T12:31:56Z</time>
      </trkpt>
      <trkpt lat="45.82225" lon="4.50274">
        <ele>618.2</ele>
        <time>2025-09-10T12:31:57Z</time>
      </trkpt>
      <trkpt lat="45.82224" lon="4.50273">
        <ele>618.2</ele>
        <time>2025-09-10T12:31:58Z</time>
      </trkpt>
      <trkpt lat="45.82223" lon="4.5027">
        <ele>617.8</ele>
        <time>2025-09-10T12:31:59Z</time>
      </trkpt>
      <trkpt lat="45.82218" lon="4.5026">
        <ele>617.8</ele>
        <time>2025-09-10T12:32:00Z</time>
      </trkpt>
      <trkpt lat="45.82216" lon="4.50256">
        <ele>617.8</ele>
        <time>2025-09-10T12:32:01Z</time>
      </trkpt>
      <trkpt lat="45.82215" lon="4.50253">
        <ele>617.4</ele>
        <time>2025-09-10T12:32:02Z</time>
      </trkpt>
      <trkpt lat="45.82215" lon="4.50249">
        <ele>616.4</ele>
        <time>2025-09-10T12:32:03Z</time>
      </trkpt>
      <trkpt lat="45.82215" lon="4.50244">
        <ele>616.2</ele>
        <time>2025-09-10T12:32:04Z</time>
      </trkpt>
      <trkpt lat="45.82214" lon="4.50241">
        <ele>615.4</ele>
        <time>2025-09-10T12:32:05Z</time>
      </trkpt>
      <trkpt lat="45.82214" lon="4.50237">
        <ele>615</ele>
        <time>2025-09-10T12:32:06Z</time>
      </trkpt>
      <trkpt lat="45.82212" lon="4.50234">
        <ele>614.6</ele>
        <time>2025-09-10T12:32:07Z</time>
      </trkpt>
      <trkpt lat="45.82212" lon="4.5023">
        <ele>614.2</ele>
        <time>2025-09-10T12:32:08Z</time>
      </trkpt>
      <trkpt lat="45.8221" lon="4.50228">
        <ele>614.2</ele>
        <time>2025-09-10T12:32:09Z</time>
      </trkpt>
      <trkpt lat="45.8221" lon="4.50223">
        <ele>613.8</ele>
        <time>2025-09-10T12:32:10Z</time>
      </trkpt>
      <trkpt lat="45.82209" lon="4.5022">
        <ele>613.2</ele>
        <time>2025-09-10T12:32:11Z</time>
      </trkpt>
      <trkpt lat="45.82209" lon="4.50217">
        <ele>612.8</ele>
        <time>2025-09-10T12:32:12Z</time>
      </trkpt>
      <trkpt lat="45.82208" lon="4.50216">
        <ele>612.8</ele>
        <time>2025-09-10T12:32:13Z</time>
      </trkpt>
      <trkpt lat="45.82208" lon="4.50215">
        <ele>612.2</ele>
        <time>2025-09-10T12:32:14Z</time>
      </trkpt>
      <trkpt lat="45.82207" lon="4.50213">
        <ele>612</ele>
        <time>2025-09-10T12:32:15Z</time>
      </trkpt>
      <trkpt lat="45.82207" lon="4.50212">
        <ele>612</ele>
        <time>2025-09-10T12:32:16Z</time>
      </trkpt>
      <trkpt lat="45.82206" lon="4.50211">
        <ele>611.6</ele>
        <time>2025-09-10T12:32:17Z</time>
      </trkpt>
      <trkpt lat="45.82206" lon="4.50209">
        <ele>611.6</ele>
        <time>2025-09-10T12:32:18Z</time>
      </trkpt>
      <trkpt lat="45.82205" lon="4.50206">
        <ele>611.2</ele>
        <time>2025-09-10T12:32:19Z</time>
      </trkpt>
      <trkpt lat="45.82205" lon="4.50203">
        <ele>610.8</ele>
        <time>2025-09-10T12:32:20Z</time>
      </trkpt>
      <trkpt lat="45.82204" lon="4.50201">
        <ele>610.6</ele>
        <time>2025-09-10T12:32:21Z</time>
      </trkpt>
      <trkpt lat="45.82204" lon="4.502">
        <ele>610.4</ele>
        <time>2025-09-10T12:32:22Z</time>
      </trkpt>
      <trkpt lat="45.82203" lon="4.50199">
        <ele>610</ele>
        <time>2025-09-10T12:32:23Z</time>
      </trkpt>
      <trkpt lat="45.82203" lon="4.50198">
        <ele>609.8</ele>
        <time>2025-09-10T12:32:24Z</time>
      </trkpt>
      <trkpt lat="45.82202" lon="4.50198">
        <ele>609.8</ele>
        <time>2025-09-10T12:32:25Z</time>
      </trkpt>
      <trkpt lat="45.82202" lon="4.50195">
        <ele>608.2</ele>
        <time>2025-09-10T12:32:41Z</time>
      </trkpt>
      <trkpt lat="45.82201" lon="4.50193">
        <ele>608</ele>
        <time>2025-09-10T12:32:42Z</time>
      </trkpt>
      <trkpt lat="45.82201" lon="4.50191">
        <ele>608</ele>
        <time>2025-09-10T12:32:43Z</time>
      </trkpt>
      <trkpt lat="45.822" lon="4.50188">
        <ele>607.6</ele>
        <time>2025-09-10T12:32:44Z</time>
      </trkpt>
      <trkpt lat="45.822" lon="4.50186">
        <ele>607.4</ele>
        <time>2025-09-10T12:32:45Z</time>
      </trkpt>
      <trkpt lat="45.822" lon="4.50184">
        <ele>607.2</ele>
        <time>2025-09-10T12:32:46Z</time>
      </trkpt>
      <trkpt lat="45.82199" lon="4.50183">
        <ele>607</ele>
        <time>2025-09-10T12:32:47Z</time>
      </trkpt>
      <trkpt lat="45.82198" lon="4.5018">
        <ele>606.4</ele>
        <time>2025-09-10T12:32:48Z</time>
      </trkpt>
      <trkpt lat="45.82198" lon="4.50178">
        <ele>606.2</ele>
        <time>2025-09-10T12:32:49Z</time>
      </trkpt>
      <trkpt lat="45.82198" lon="4.50177">
        <ele>606.2</ele>
        <time>2025-09-10T12:32:50Z</time>
      </trkpt>
      <trkpt lat="45.82197" lon="4.50175">
        <ele>605.8</ele>
        <time>2025-09-10T12:32:51Z</time>
      </trkpt>
      <trkpt lat="45.82196" lon="4.50172">
        <ele>605.8</ele>
        <time>2025-09-10T12:32:52Z</time>
      </trkpt>
      <trkpt lat="45.82196" lon="4.5017">
        <ele>605.6</ele>
        <time>2025-09-10T12:32:53Z</time>
      </trkpt>
      <trkpt lat="45.82195" lon="4.50169">
        <ele>605.2</ele>
        <time>2025-09-10T12:32:54Z</time>
      </trkpt>
      <trkpt lat="45.82194" lon="4.50166">
        <ele>605</ele>
        <time>2025-09-10T12:32:55Z</time>
      </trkpt>
      <trkpt lat="45.82193" lon="4.50164">
        <ele>604.6</ele>
        <time>2025-09-10T12:32:56Z</time>
      </trkpt>
      <trkpt lat="45.82193" lon="4.50162">
        <ele>604.4</ele>
        <time>2025-09-10T12:32:57Z</time>
      </trkpt>
      <trkpt lat="45.82193" lon="4.5016">
        <ele>604</ele>
        <time>2025-09-10T12:32:58Z</time>
      </trkpt>
      <trkpt lat="45.82192" lon="4.50158">
        <ele>603.6</ele>
        <time>2025-09-10T12:32:59Z</time>
      </trkpt>
      <trkpt lat="45.82191" lon="4.50157">
        <ele>603.2</ele>
        <time>2025-09-10T12:33:00Z</time>
      </trkpt>
      <trkpt lat="45.8219" lon="4.50156">
        <ele>602.8</ele>
        <time>2025-09-10T12:33:01Z</time>
      </trkpt>
      <trkpt lat="45.82189" lon="4.50154">
        <ele>602.4</ele>
        <time>2025-09-10T12:33:02Z</time>
      </trkpt>
      <trkpt lat="45.82189" lon="4.50153">
        <ele>602</ele>
        <time>2025-09-10T12:33:03Z</time>
      </trkpt>
      <trkpt lat="45.82188" lon="4.50152">
        <ele>601.8</ele>
        <time>2025-09-10T12:33:04Z</time>
      </trkpt>
      <trkpt lat="45.82188" lon="4.50151">
        <ele>601.8</ele>
        <time>2025-09-10T12:33:05Z</time>
      </trkpt>
      <trkpt lat="45.82187" lon="4.5015">
        <ele>601.4</ele>
        <time>2025-09-10T12:33:06Z</time>
      </trkpt>
      <trkpt lat="45.82187" lon="4.50149">
        <ele>601.4</ele>
        <time>2025-09-10T12:33:07Z</time>
      </trkpt>
      <trkpt lat="45.82187" lon="4.50148">
        <ele>601</ele>
        <time>2025-09-10T12:33:08Z</time>
      </trkpt>
      <trkpt lat="45.82186" lon="4.50147">
        <ele>600.8</ele>
        <time>2025-09-10T12:33:09Z</time>
      </trkpt>
      <trkpt lat="45.82185" lon="4.50145">
        <ele>600.4</ele>
        <time>2025-09-10T12:33:10Z</time>
      </trkpt>
      <trkpt lat="45.82184" lon="4.50145">
        <ele>600.2</ele>
        <time>2025-09-10T12:33:11Z</time>
      </trkpt>
      <trkpt lat="45.82184" lon="4.50144">
        <ele>600</ele>
        <time>2025-09-10T12:33:12Z</time>
      </trkpt>
      <trkpt lat="45.82183" lon="4.50144">
        <ele>600</ele>
        <time>2025-09-10T12:33:13Z</time>
      </trkpt>
      <trkpt lat="45.82183" lon="4.50144">
        <ele>599.8</ele>
        <time>2025-09-10T12:33:14Z</time>
      </trkpt>
      <trkpt lat="45.82183" lon="4.50144">
        <ele>599.8</ele>
        <time>2025-09-10T12:33:15Z</time>
      </trkpt>
      <trkpt lat="45.82183" lon="4.50144">
        <ele>599.8</ele>
        <time>2025-09-10T12:33:16Z</time>
      </trkpt>
      <trkpt lat="45.82182" lon="4.50142">
        <ele>599.6</ele>
        <time>2025-09-10T12:33:19Z</time>
      </trkpt>
      <trkpt lat="45.82182" lon="4.5014">
        <ele>599.2</ele>
        <time>2025-09-10T12:33:20Z</time>
      </trkpt>
      <trkpt lat="45.82182" lon="4.50139">
        <ele>599.2</ele>
        <time>2025-09-10T12:33:21Z</time>
      </trkpt>
      <trkpt lat="45.82182" lon="4.50138">
        <ele>599.2</ele>
        <time>2025-09-10T12:33:22Z</time>
      </trkpt>
      <trkpt lat="45.82182" lon="4.50138">
        <ele>599</ele>
        <time>2025-09-10T12:33:23Z</time>
      </trkpt>
      <trkpt lat="45.82181" lon="4.50138">
        <ele>599</ele>
        <time>2025-09-10T12:33:26Z</time>
      </trkpt>
      <trkpt lat="45.8218" lon="4.50136">
        <ele>598.6</ele>
        <time>2025-09-10T12:33:27Z</time>
      </trkpt>
      <trkpt lat="45.82179" lon="4.50134">
        <ele>598.2</ele>
        <time>2025-09-10T12:33:28Z</time>
      </trkpt>
      <trkpt lat="45.82179" lon="4.50133">
        <ele>598.2</ele>
        <time>2025-09-10T12:33:29Z</time>
      </trkpt>
      <trkpt lat="45.82178" lon="4.50131">
        <ele>597.8</ele>
        <time>2025-09-10T12:33:30Z</time>
      </trkpt>
      <trkpt lat="45.82177" lon="4.5013">
        <ele>597.8</ele>
        <time>2025-09-10T12:33:31Z</time>
      </trkpt>
      <trkpt lat="45.82176" lon="4.50129">
        <ele>597.4</ele>
        <time>2025-09-10T12:33:32Z</time>
      </trkpt>
      <trkpt lat="45.82175" lon="4.50128">
        <ele>597</ele>
        <time>2025-09-10T12:33:33Z</time>
      </trkpt>
      <trkpt lat="45.82174" lon="4.50126">
        <ele>596.6</ele>
        <time>2025-09-10T12:33:34Z</time>
      </trkpt>
      <trkpt lat="45.82173" lon="4.50124">
        <ele>596.4</ele>
        <time>2025-09-10T12:33:35Z</time>
      </trkpt>
      <trkpt lat="45.82172" lon="4.50122">
        <ele>596</ele>
        <time>2025-09-10T12:33:36Z</time>
      </trkpt>
      <trkpt lat="45.82172" lon="4.5012">
        <ele>595.4</ele>
        <time>2025-09-10T12:33:37Z</time>
      </trkpt>
      <trkpt lat="45.82171" lon="4.50118">
        <ele>595.2</ele>
        <time>2025-09-10T12:33:38Z</time>
      </trkpt>
      <trkpt lat="45.8217" lon="4.50116">
        <ele>594.8</ele>
        <time>2025-09-10T12:33:39Z</time>
      </trkpt>
      <trkpt lat="45.82169" lon="4.50114">
        <ele>594.6</ele>
        <time>2025-09-10T12:33:40Z</time>
      </trkpt>
      <trkpt lat="45.82168" lon="4.50112">
        <ele>594.2</ele>
        <time>2025-09-10T12:33:41Z</time>
      </trkpt>
      <trkpt lat="45.82168" lon="4.5011">
        <ele>594</ele>
        <time>2025-09-10T12:33:42Z</time>
      </trkpt>
      <trkpt lat="45.82166" lon="4.50109">
        <ele>593.8</ele>
        <time>2025-09-10T12:33:43Z</time>
      </trkpt>
      <trkpt lat="45.82164" lon="4.50107">
        <ele>593.8</ele>
        <time>2025-09-10T12:33:44Z</time>
      </trkpt>
      <trkpt lat="45.82162" lon="4.50104">
        <ele>593.4</ele>
        <time>2025-09-10T12:33:45Z</time>
      </trkpt>
      <trkpt lat="45.82162" lon="4.50103">
        <ele>593</ele>
        <time>2025-09-10T12:33:46Z</time>
      </trkpt>
      <trkpt lat="45.82161" lon="4.50102">
        <ele>593</ele>
        <time>2025-09-10T12:33:47Z</time>
      </trkpt>
      <trkpt lat="45.82161" lon="4.50101">
        <ele>592.6</ele>
        <time>2025-09-10T12:33:48Z</time>
      </trkpt>
      <trkpt lat="45.82161" lon="4.501">
        <ele>592.2</ele>
        <time>2025-09-10T12:33:49Z</time>
      </trkpt>
      <trkpt lat="45.8216" lon="4.50099">
        <ele>592</ele>
        <time>2025-09-10T12:33:50Z</time>
      </trkpt>
      <trkpt lat="45.8216" lon="4.50097">
        <ele>591.8</ele>
        <time>2025-09-10T12:33:51Z</time>
      </trkpt>
      <trkpt lat="45.82159" lon="4.50095">
        <ele>591.4</ele>
        <time>2025-09-10T12:33:52Z</time>
      </trkpt>
      <trkpt lat="45.82158" lon="4.50093">
        <ele>591.2</ele>
        <time>2025-09-10T12:33:53Z</time>
      </trkpt>
      <trkpt lat="45.82158" lon="4.50091">
        <ele>590.8</ele>
        <time>2025-09-10T12:33:54Z</time>
      </trkpt>
      <trkpt lat="45.82157" lon="4.50088">
        <ele>590.4</ele>
        <time>2025-09-10T12:33:55Z</time>
      </trkpt>
      <trkpt lat="45.82156" lon="4.50086">
        <ele>590</ele>
        <time>2025-09-10T12:33:56Z</time>
      </trkpt>
      <trkpt lat="45.82156" lon="4.50083">
        <ele>590</ele>
        <time>2025-09-10T12:33:57Z</time>
      </trkpt>
      <trkpt lat="45.82156" lon="4.50081">
        <ele>589.6</ele>
        <time>2025-09-10T12:33:58Z</time>
      </trkpt>
      <trkpt lat="45.82156" lon="4.5008">
        <ele>589</ele>
        <time>2025-09-10T12:33:59Z</time>
      </trkpt>
      <trkpt lat="45.82155" lon="4.50077">
        <ele>588.8</ele>
        <time>2025-09-10T12:34:00Z</time>
      </trkpt>
      <trkpt lat="45.82155" lon="4.50074">
        <ele>588.4</ele>
        <time>2025-09-10T12:34:01Z</time>
      </trkpt>
      <trkpt lat="45.82155" lon="4.50073">
        <ele>588.4</ele>
        <time>2025-09-10T12:34:02Z</time>
      </trkpt>
      <trkpt lat="45.82155" lon="4.50073">
        <ele>588</ele>
        <time>2025-09-10T12:34:03Z</time>
      </trkpt>
      <trkpt lat="45.82155" lon="4.50073">
        <ele>587.8</ele>
        <time>2025-09-10T12:34:04Z</time>
      </trkpt>
      <trkpt lat="45.82152" lon="4.50063">
        <ele>586.4</ele>
        <time>2025-09-10T12:34:06Z</time>
      </trkpt>
      <trkpt lat="45.82152" lon="4.50063">
        <ele>586.4</ele>
        <time>2025-09-10T12:34:07Z</time>
      </trkpt>
      <trkpt lat="45.82151" lon="4.50061">
        <ele>586.4</ele>
        <time>2025-09-10T12:34:08Z</time>
      </trkpt>
      <trkpt lat="45.8215" lon="4.50059">
        <ele>585.8</ele>
        <time>2025-09-10T12:34:09Z</time>
      </trkpt>
      <trkpt lat="45.82149" lon="4.50058">
        <ele>585.8</ele>
        <time>2025-09-10T12:34:10Z</time>
      </trkpt>
      <trkpt lat="45.82149" lon="4.50057">
        <ele>585.8</ele>
        <time>2025-09-10T12:34:11Z</time>
      </trkpt>
      <trkpt lat="45.82148" lon="4.50055">
        <ele>585</ele>
        <time>2025-09-10T12:34:12Z</time>
      </trkpt>
      <trkpt lat="45.82147" lon="4.50054">
        <ele>585</ele>
        <time>2025-09-10T12:34:13Z</time>
      </trkpt>
      <trkpt lat="45.82146" lon="4.50052">
        <ele>585</ele>
        <time>2025-09-10T12:34:14Z</time>
      </trkpt>
      <trkpt lat="45.82145" lon="4.50051">
        <ele>584.4</ele>
        <time>2025-09-10T12:34:15Z</time>
      </trkpt>
      <trkpt lat="45.82144" lon="4.5005">
        <ele>584.2</ele>
        <time>2025-09-10T12:34:16Z</time>
      </trkpt>
      <trkpt lat="45.82142" lon="4.50048">
        <ele>584.2</ele>
        <time>2025-09-10T12:34:17Z</time>
      </trkpt>
      <trkpt lat="45.82141" lon="4.50047">
        <ele>583.8</ele>
        <time>2025-09-10T12:34:18Z</time>
      </trkpt>
      <trkpt lat="45.82139" lon="4.50045">
        <ele>583.2</ele>
        <time>2025-09-10T12:34:19Z</time>
      </trkpt>
      <trkpt lat="45.82137" lon="4.50044">
        <ele>583.2</ele>
        <time>2025-09-10T12:34:20Z</time>
      </trkpt>
      <trkpt lat="45.82136" lon="4.50042">
        <ele>582.8</ele>
        <time>2025-09-10T12:34:21Z</time>
      </trkpt>
      <trkpt lat="45.82135" lon="4.5004">
        <ele>582.8</ele>
        <time>2025-09-10T12:34:22Z</time>
      </trkpt>
      <trkpt lat="45.82135" lon="4.50039">
        <ele>582.4</ele>
        <time>2025-09-10T12:34:23Z</time>
      </trkpt>
      <trkpt lat="45.82134" lon="4.50038">
        <ele>582.4</ele>
        <time>2025-09-10T12:34:24Z</time>
      </trkpt>
      <trkpt lat="45.82134" lon="4.50037">
        <ele>582.2</ele>
        <time>2025-09-10T12:34:25Z</time>
      </trkpt>
      <trkpt lat="45.82131" lon="4.50036">
        <ele>582</ele>
        <time>2025-09-10T12:34:33Z</time>
      </trkpt>
      <trkpt lat="45.82131" lon="4.50036">
        <ele>581.8</ele>
        <time>2025-09-10T12:34:34Z</time>
      </trkpt>
      <trkpt lat="45.8213" lon="4.50035">
        <ele>581.8</ele>
        <time>2025-09-10T12:34:35Z</time>
      </trkpt>
      <trkpt lat="45.8213" lon="4.50033">
        <ele>581.4</ele>
        <time>2025-09-10T12:34:36Z</time>
      </trkpt>
      <trkpt lat="45.82129" lon="4.50032">
        <ele>580.8</ele>
        <time>2025-09-10T12:34:37Z</time>
      </trkpt>
      <trkpt lat="45.82128" lon="4.50029">
        <ele>580.8</ele>
        <time>2025-09-10T12:34:38Z</time>
      </trkpt>
      <trkpt lat="45.82127" lon="4.50027">
        <ele>580.6</ele>
        <time>2025-09-10T12:34:39Z</time>
      </trkpt>
      <trkpt lat="45.82127" lon="4.50027">
        <ele>580.6</ele>
        <time>2025-09-10T12:34:40Z</time>
      </trkpt>
      <trkpt lat="45.82126" lon="4.50025">
        <ele>580.6</ele>
        <time>2025-09-10T12:34:41Z</time>
      </trkpt>
      <trkpt lat="45.82125" lon="4.50024">
        <ele>580.4</ele>
        <time>2025-09-10T12:34:42Z</time>
      </trkpt>
      <trkpt lat="45.82124" lon="4.50023">
        <ele>580</ele>
        <time>2025-09-10T12:34:43Z</time>
      </trkpt>
      <trkpt lat="45.82123" lon="4.50021">
        <ele>580</ele>
        <time>2025-09-10T12:34:44Z</time>
      </trkpt>
      <trkpt lat="45.82123" lon="4.50021">
        <ele>580</ele>
        <time>2025-09-10T12:34:45Z</time>
      </trkpt>
      <trkpt lat="45.82124" lon="4.50021">
        <ele>579.8</ele>
        <time>2025-09-10T12:34:46Z</time>
      </trkpt>
      <trkpt lat="45.82123" lon="4.50019">
        <ele>579.2</ele>
        <time>2025-09-10T12:35:03Z</time>
      </trkpt>
      <trkpt lat="45.82123" lon="4.50018">
        <ele>579.2</ele>
        <time>2025-09-10T12:35:04Z</time>
      </trkpt>
      <trkpt lat="45.82122" lon="4.50018">
        <ele>578.8</ele>
        <time>2025-09-10T12:35:05Z</time>
      </trkpt>
      <trkpt lat="45.82121" lon="4.50016">
        <ele>578.8</ele>
        <time>2025-09-10T12:35:06Z</time>
      </trkpt>
      <trkpt lat="45.8212" lon="4.50015">
        <ele>578.6</ele>
        <time>2025-09-10T12:35:07Z</time>
      </trkpt>
      <trkpt lat="45.82119" lon="4.50013">
        <ele>578.6</ele>
        <time>2025-09-10T12:35:08Z</time>
      </trkpt>
      <trkpt lat="45.82118" lon="4.5001">
        <ele>578</ele>
        <time>2025-09-10T12:35:09Z</time>
      </trkpt>
      <trkpt lat="45.82118" lon="4.5001">
        <ele>577.8</ele>
        <time>2025-09-10T12:35:10Z</time>
      </trkpt>
      <trkpt lat="45.82117" lon="4.50006">
        <ele>577.4</ele>
        <time>2025-09-10T12:35:11Z</time>
      </trkpt>
      <trkpt lat="45.82116" lon="4.50001">
        <ele>577.2</ele>
        <time>2025-09-10T12:35:12Z</time>
      </trkpt>
      <trkpt lat="45.82115" lon="4.49998">
        <ele>577.2</ele>
        <time>2025-09-10T12:35:13Z</time>
      </trkpt>
      <trkpt lat="45.82115" lon="4.49996">
        <ele>577.2</ele>
        <time>2025-09-10T12:35:14Z</time>
      </trkpt>
      <trkpt lat="45.82115" lon="4.49994">
        <ele>577.2</ele>
        <time>2025-09-10T12:35:15Z</time>
      </trkpt>
      <trkpt lat="45.82116" lon="4.49991">
        <ele>577.2</ele>
        <time>2025-09-10T12:35:16Z</time>
      </trkpt>
      <trkpt lat="45.82118" lon="4.4999">
        <ele>576.8</ele>
        <time>2025-09-10T12:35:17Z</time>
      </trkpt>
      <trkpt lat="45.8212" lon="4.49989">
        <ele>576.8</ele>
        <time>2025-09-10T12:35:18Z</time>
      </trkpt>
      <trkpt lat="45.82122" lon="4.49989">
        <ele>576.8</ele>
        <time>2025-09-10T12:35:19Z</time>
      </trkpt>
      <trkpt lat="45.82123" lon="4.49988">
        <ele>577.2</ele>
        <time>2025-09-10T12:35:20Z</time>
      </trkpt>
      <trkpt lat="45.82125" lon="4.49987">
        <ele>577.2</ele>
        <time>2025-09-10T12:35:21Z</time>
      </trkpt>
      <trkpt lat="45.82127" lon="4.49985">
        <ele>577.4</ele>
        <time>2025-09-10T12:35:22Z</time>
      </trkpt>
      <trkpt lat="45.82129" lon="4.49984">
        <ele>577.4</ele>
        <time>2025-09-10T12:35:23Z</time>
      </trkpt>
      <trkpt lat="45.82131" lon="4.49983">
        <ele>577.4</ele>
        <time>2025-09-10T12:35:24Z</time>
      </trkpt>
      <trkpt lat="45.82132" lon="4.49981">
        <ele>577.4</ele>
        <time>2025-09-10T12:35:25Z</time>
      </trkpt>
      <trkpt lat="45.82134" lon="4.4998">
        <ele>577.6</ele>
        <time>2025-09-10T12:35:26Z</time>
      </trkpt>
      <trkpt lat="45.82135" lon="4.49978">
        <ele>577.6</ele>
        <time>2025-09-10T12:35:27Z</time>
      </trkpt>
      <trkpt lat="45.82136" lon="4.49976">
        <ele>577.6</ele>
        <time>2025-09-10T12:35:28Z</time>
      </trkpt>
      <trkpt lat="45.82137" lon="4.49973">
        <ele>577.6</ele>
        <time>2025-09-10T12:35:29Z</time>
      </trkpt>
      <trkpt lat="45.82139" lon="4.49971">
        <ele>577.6</ele>
        <time>2025-09-10T12:35:30Z</time>
      </trkpt>
      <trkpt lat="45.8214" lon="4.49969">
        <ele>578</ele>
        <time>2025-09-10T12:35:31Z</time>
      </trkpt>
      <trkpt lat="45.82141" lon="4.49966">
        <ele>578</ele>
        <time>2025-09-10T12:35:32Z</time>
      </trkpt>
      <trkpt lat="45.82142" lon="4.49964">
        <ele>578.2</ele>
        <time>2025-09-10T12:35:33Z</time>
      </trkpt>
      <trkpt lat="45.82142" lon="4.49962">
        <ele>578.2</ele>
        <time>2025-09-10T12:35:34Z</time>
      </trkpt>
      <trkpt lat="45.82143" lon="4.49959">
        <ele>578.2</ele>
        <time>2025-09-10T12:35:35Z</time>
      </trkpt>
      <trkpt lat="45.82144" lon="4.49957">
        <ele>578.6</ele>
        <time>2025-09-10T12:35:36Z</time>
      </trkpt>
      <trkpt lat="45.82144" lon="4.49955">
        <ele>578.6</ele>
        <time>2025-09-10T12:35:37Z</time>
      </trkpt>
      <trkpt lat="45.82145" lon="4.49953">
        <ele>578.6</ele>
        <time>2025-09-10T12:35:38Z</time>
      </trkpt>
      <trkpt lat="45.82146" lon="4.4995">
        <ele>578.6</ele>
        <time>2025-09-10T12:35:39Z</time>
      </trkpt>
      <trkpt lat="45.82146" lon="4.49948">
        <ele>578.8</ele>
        <time>2025-09-10T12:35:40Z</time>
      </trkpt>
      <trkpt lat="45.82146" lon="4.49947">
        <ele>578.8</ele>
        <time>2025-09-10T12:35:41Z</time>
      </trkpt>
      <trkpt lat="45.82147" lon="4.49945">
        <ele>579.2</ele>
        <time>2025-09-10T12:35:42Z</time>
      </trkpt>
      <trkpt lat="45.82147" lon="4.49942">
        <ele>579.2</ele>
        <time>2025-09-10T12:35:43Z</time>
      </trkpt>
      <trkpt lat="45.82148" lon="4.4994">
        <ele>579.2</ele>
        <time>2025-09-10T12:35:44Z</time>
      </trkpt>
      <trkpt lat="45.82149" lon="4.49938">
        <ele>579.2</ele>
        <time>2025-09-10T12:35:45Z</time>
      </trkpt>
      <trkpt lat="45.82149" lon="4.49936">
        <ele>579.4</ele>
        <time>2025-09-10T12:35:46Z</time>
      </trkpt>
      <trkpt lat="45.8215" lon="4.49934">
        <ele>579.4</ele>
        <time>2025-09-10T12:35:47Z</time>
      </trkpt>
      <trkpt lat="45.8215" lon="4.49933">
        <ele>579.4</ele>
        <time>2025-09-10T12:35:48Z</time>
      </trkpt>
      <trkpt lat="45.8215" lon="4.49931">
        <ele>579.6</ele>
        <time>2025-09-10T12:35:49Z</time>
      </trkpt>
      <trkpt lat="45.82151" lon="4.49929">
        <ele>579.6</ele>
        <time>2025-09-10T12:35:50Z</time>
      </trkpt>
      <trkpt lat="45.82151" lon="4.49927">
        <ele>580.4</ele>
        <time>2025-09-10T12:35:51Z</time>
      </trkpt>
      <trkpt lat="45.82152" lon="4.49925">
        <ele>580.4</ele>
        <time>2025-09-10T12:35:52Z</time>
      </trkpt>
      <trkpt lat="45.82153" lon="4.49923">
        <ele>580.4</ele>
        <time>2025-09-10T12:35:53Z</time>
      </trkpt>
      <trkpt lat="45.82153" lon="4.49921">
        <ele>580.4</ele>
        <time>2025-09-10T12:35:54Z</time>
      </trkpt>
      <trkpt lat="45.82154" lon="4.49919">
        <ele>580</ele>
        <time>2025-09-10T12:35:55Z</time>
      </trkpt>
      <trkpt lat="45.82154" lon="4.49918">
        <ele>580</ele>
        <time>2025-09-10T12:35:56Z</time>
      </trkpt>
      <trkpt lat="45.82155" lon="4.49917">
        <ele>580</ele>
        <time>2025-09-10T12:35:57Z</time>
      </trkpt>
      <trkpt lat="45.82156" lon="4.49916">
        <ele>580</ele>
        <time>2025-09-10T12:35:58Z</time>
      </trkpt>
      <trkpt lat="45.82157" lon="4.49914">
        <ele>580</ele>
        <time>2025-09-10T12:35:59Z</time>
      </trkpt>
      <trkpt lat="45.82158" lon="4.49912">
        <ele>580.4</ele>
        <time>2025-09-10T12:36:00Z</time>
      </trkpt>
      <trkpt lat="45.82159" lon="4.4991">
        <ele>580.4</ele>
        <time>2025-09-10T12:36:01Z</time>
      </trkpt>
      <trkpt lat="45.8216" lon="4.49908">
        <ele>580.4</ele>
        <time>2025-09-10T12:36:02Z</time>
      </trkpt>
      <trkpt lat="45.82161" lon="4.49906">
        <ele>580.6</ele>
        <time>2025-09-10T12:36:03Z</time>
      </trkpt>
      <trkpt lat="45.82161" lon="4.49904">
        <ele>580.6</ele>
        <time>2025-09-10T12:36:04Z</time>
      </trkpt>
      <trkpt lat="45.82162" lon="4.49902">
        <ele>580.8</ele>
        <time>2025-09-10T12:36:05Z</time>
      </trkpt>
      <trkpt lat="45.82163" lon="4.499">
        <ele>580.8</ele>
        <time>2025-09-10T12:36:06Z</time>
      </trkpt>
      <trkpt lat="45.82164" lon="4.49899">
        <ele>581.2</ele>
        <time>2025-09-10T12:36:07Z</time>
      </trkpt>
      <trkpt lat="45.82165" lon="4.49897">
        <ele>581.2</ele>
        <time>2025-09-10T12:36:08Z</time>
      </trkpt>
      <trkpt lat="45.82165" lon="4.49896">
        <ele>581.4</ele>
        <time>2025-09-10T12:36:09Z</time>
      </trkpt>
      <trkpt lat="45.82166" lon="4.49894">
        <ele>581.4</ele>
        <time>2025-09-10T12:36:10Z</time>
      </trkpt>
      <trkpt lat="45.82166" lon="4.49893">
        <ele>581.8</ele>
        <time>2025-09-10T12:36:11Z</time>
      </trkpt>
      <trkpt lat="45.82167" lon="4.49891">
        <ele>581.8</ele>
        <time>2025-09-10T12:36:12Z</time>
      </trkpt>
      <trkpt lat="45.82168" lon="4.4989">
        <ele>582.2</ele>
        <time>2025-09-10T12:36:13Z</time>
      </trkpt>
      <trkpt lat="45.82169" lon="4.49888">
        <ele>582.2</ele>
        <time>2025-09-10T12:36:14Z</time>
      </trkpt>
      <trkpt lat="45.82169" lon="4.49887">
        <ele>582.4</ele>
        <time>2025-09-10T12:36:15Z</time>
      </trkpt>
      <trkpt lat="45.8217" lon="4.49886">
        <ele>582.8</ele>
        <time>2025-09-10T12:36:16Z</time>
      </trkpt>
      <trkpt lat="45.82171" lon="4.49885">
        <ele>582.8</ele>
        <time>2025-09-10T12:36:17Z</time>
      </trkpt>
      <trkpt lat="45.82171" lon="4.49884">
        <ele>583</ele>
        <time>2025-09-10T12:36:18Z</time>
      </trkpt>
      <trkpt lat="45.82172" lon="4.49883">
        <ele>583</ele>
        <time>2025-09-10T12:36:19Z</time>
      </trkpt>
      <trkpt lat="45.82173" lon="4.49882">
        <ele>583.4</ele>
        <time>2025-09-10T12:36:20Z</time>
      </trkpt>
      <trkpt lat="45.82173" lon="4.49881">
        <ele>583.4</ele>
        <time>2025-09-10T12:36:21Z</time>
      </trkpt>
      <trkpt lat="45.82174" lon="4.4988">
        <ele>583.6</ele>
        <time>2025-09-10T12:36:22Z</time>
      </trkpt>
      <trkpt lat="45.82173" lon="4.4988">
        <ele>583.6</ele>
        <time>2025-09-10T12:36:23Z</time>
      </trkpt>
      <trkpt lat="45.8217" lon="4.49881">
        <ele>583.4</ele>
        <time>2025-09-10T12:37:03Z</time>
      </trkpt>
      <trkpt lat="45.8217" lon="4.49879">
        <ele>583.4</ele>
        <time>2025-09-10T12:37:04Z</time>
      </trkpt>
      <trkpt lat="45.8217" lon="4.49878">
        <ele>583.6</ele>
        <time>2025-09-10T12:37:05Z</time>
      </trkpt>
      <trkpt lat="45.82171" lon="4.49876">
        <ele>583.6</ele>
        <time>2025-09-10T12:37:06Z</time>
      </trkpt>
      <trkpt lat="45.82171" lon="4.49874">
        <ele>583.6</ele>
        <time>2025-09-10T12:37:07Z</time>
      </trkpt>
      <trkpt lat="45.82173" lon="4.49872">
        <ele>583.6</ele>
        <time>2025-09-10T12:37:08Z</time>
      </trkpt>
      <trkpt lat="45.82173" lon="4.49872">
        <ele>583.6</ele>
        <time>2025-09-10T12:37:09Z</time>
      </trkpt>
      <trkpt lat="45.82173" lon="4.49872">
        <ele>583.6</ele>
        <time>2025-09-10T12:37:10Z</time>
      </trkpt>
      <trkpt lat="45.82173" lon="4.49873">
        <ele>583.6</ele>
        <time>2025-09-10T12:37:11Z</time>
      </trkpt>
      <trkpt lat="45.82173" lon="4.49873">
        <ele>583.6</ele>
        <time>2025-09-10T12:37:12Z</time>
      </trkpt>
      <trkpt lat="45.82174" lon="4.49873">
        <ele>583.6</ele>
        <time>2025-09-10T12:37:13Z</time>
      </trkpt>
      <trkpt lat="45.82175" lon="4.49872">
        <ele>583.8</ele>
        <time>2025-09-10T12:37:14Z</time>
      </trkpt>
      <trkpt lat="45.82175" lon="4.49871">
        <ele>583.8</ele>
        <time>2025-09-10T12:37:15Z</time>
      </trkpt>
      <trkpt lat="45.82176" lon="4.4987">
        <ele>584</ele>
        <time>2025-09-10T12:37:16Z</time>
      </trkpt>
      <trkpt lat="45.82176" lon="4.49868">
        <ele>584.4</ele>
        <time>2025-09-10T12:37:17Z</time>
      </trkpt>
      <trkpt lat="45.82177" lon="4.49867">
        <ele>584.4</ele>
        <time>2025-09-10T12:37:18Z</time>
      </trkpt>
      <trkpt lat="45.82177" lon="4.49866">
        <ele>584.8</ele>
        <time>2025-09-10T12:37:19Z</time>
      </trkpt>
      <trkpt lat="45.82178" lon="4.49864">
        <ele>584.8</ele>
        <time>2025-09-10T12:37:20Z</time>
      </trkpt>
      <trkpt lat="45.82178" lon="4.49863">
        <ele>585.2</ele>
        <time>2025-09-10T12:37:21Z</time>
      </trkpt>
      <trkpt lat="45.82178" lon="4.49862">
        <ele>585.2</ele>
        <time>2025-09-10T12:37:22Z</time>
      </trkpt>
      <trkpt lat="45.82179" lon="4.49861">
        <ele>585.6</ele>
        <time>2025-09-10T12:37:23Z</time>
      </trkpt>
      <trkpt lat="45.82179" lon="4.4986">
        <ele>585.6</ele>
        <time>2025-09-10T12:37:24Z</time>
      </trkpt>
      <trkpt lat="45.82179" lon="4.49858">
        <ele>586</ele>
        <time>2025-09-10T12:37:25Z</time>
      </trkpt>
      <trkpt lat="45.82179" lon="4.49857">
        <ele>586</ele>
        <time>2025-09-10T12:37:26Z</time>
      </trkpt>
      <trkpt lat="45.82179" lon="4.49856">
        <ele>586</ele>
        <time>2025-09-10T12:37:27Z</time>
      </trkpt>
      <trkpt lat="45.82179" lon="4.49855">
        <ele>586.2</ele>
        <time>2025-09-10T12:37:28Z</time>
      </trkpt>
      <trkpt lat="45.8218" lon="4.49855">
        <ele>586.2</ele>
        <time>2025-09-10T12:37:29Z</time>
      </trkpt>
      <trkpt lat="45.8218" lon="4.49854">
        <ele>586.2</ele>
        <time>2025-09-10T12:37:30Z</time>
      </trkpt>
      <trkpt lat="45.8218" lon="4.49853">
        <ele>586.2</ele>
        <time>2025-09-10T12:37:31Z</time>
      </trkpt>
      <trkpt lat="45.82181" lon="4.49852">
        <ele>586.6</ele>
        <time>2025-09-10T12:37:32Z</time>
      </trkpt>
      <trkpt lat="45.82181" lon="4.49851">
        <ele>586.6</ele>
        <time>2025-09-10T12:37:33Z</time>
      </trkpt>
      <trkpt lat="45.82182" lon="4.4985">
        <ele>586.8</ele>
        <time>2025-09-10T12:37:34Z</time>
      </trkpt>
      <trkpt lat="45.82182" lon="4.49849">
        <ele>586.8</ele>
        <time>2025-09-10T12:37:35Z</time>
      </trkpt>
      <trkpt lat="45.82182" lon="4.49849">
        <ele>587.2</ele>
        <time>2025-09-10T12:37:36Z</time>
      </trkpt>
      <trkpt lat="45.82182" lon="4.49848">
        <ele>587.2</ele>
        <time>2025-09-10T12:37:37Z</time>
      </trkpt>
      <trkpt lat="45.82182" lon="4.49847">
        <ele>587.4</ele>
        <time>2025-09-10T12:37:38Z</time>
      </trkpt>
      <trkpt lat="45.82182" lon="4.49846">
        <ele>587.4</ele>
        <time>2025-09-10T12:37:39Z</time>
      </trkpt>
      <trkpt lat="45.82183" lon="4.49846">
        <ele>587.6</ele>
        <time>2025-09-10T12:37:40Z</time>
      </trkpt>
      <trkpt lat="45.82183" lon="4.49844">
        <ele>587.6</ele>
        <time>2025-09-10T12:37:41Z</time>
      </trkpt>
      <trkpt lat="45.82184" lon="4.49844">
        <ele>587.6</ele>
        <time>2025-09-10T12:37:42Z</time>
      </trkpt>
      <trkpt lat="45.82185" lon="4.49843">
        <ele>588</ele>
        <time>2025-09-10T12:37:43Z</time>
      </trkpt>
      <trkpt lat="45.82185" lon="4.49843">
        <ele>588.2</ele>
        <time>2025-09-10T12:37:44Z</time>
      </trkpt>
      <trkpt lat="45.82186" lon="4.49843">
        <ele>588.2</ele>
        <time>2025-09-10T12:37:45Z</time>
      </trkpt>
      <trkpt lat="45.82186" lon="4.49843">
        <ele>588.2</ele>
        <time>2025-09-10T12:37:46Z</time>
      </trkpt>
      <trkpt lat="45.82187" lon="4.49843">
        <ele>588.2</ele>
        <time>2025-09-10T12:37:47Z</time>
      </trkpt>
      <trkpt lat="45.82188" lon="4.49843">
        <ele>588.8</ele>
        <time>2025-09-10T12:37:48Z</time>
      </trkpt>
      <trkpt lat="45.8219" lon="4.49844">
        <ele>589</ele>
        <time>2025-09-10T12:37:52Z</time>
      </trkpt>
      <trkpt lat="45.82192" lon="4.49844">
        <ele>589.2</ele>
        <time>2025-09-10T12:37:53Z</time>
      </trkpt>
      <trkpt lat="45.82192" lon="4.49844">
        <ele>589.2</ele>
        <time>2025-09-10T12:37:54Z</time>
      </trkpt>
      <trkpt lat="45.82193" lon="4.49844">
        <ele>589.6</ele>
        <time>2025-09-10T12:37:55Z</time>
      </trkpt>
      <trkpt lat="45.82194" lon="4.49844">
        <ele>589.6</ele>
        <time>2025-09-10T12:37:56Z</time>
      </trkpt>
      <trkpt lat="45.82195" lon="4.49844">
        <ele>589.6</ele>
        <time>2025-09-10T12:37:57Z</time>
      </trkpt>
      <trkpt lat="45.82196" lon="4.49844">
        <ele>589.8</ele>
        <time>2025-09-10T12:37:58Z</time>
      </trkpt>
      <trkpt lat="45.82197" lon="4.49844">
        <ele>589.8</ele>
        <time>2025-09-10T12:37:59Z</time>
      </trkpt>
      <trkpt lat="45.82197" lon="4.49844">
        <ele>590</ele>
        <time>2025-09-10T12:38:00Z</time>
      </trkpt>
      <trkpt lat="45.82198" lon="4.49845">
        <ele>590</ele>
        <time>2025-09-10T12:38:01Z</time>
      </trkpt>
      <trkpt lat="45.82199" lon="4.49845">
        <ele>590.4</ele>
        <time>2025-09-10T12:38:02Z</time>
      </trkpt>
      <trkpt lat="45.82199" lon="4.49845">
        <ele>590.4</ele>
        <time>2025-09-10T12:38:03Z</time>
      </trkpt>
      <trkpt lat="45.822" lon="4.49845">
        <ele>590.4</ele>
        <time>2025-09-10T12:38:04Z</time>
      </trkpt>
      <trkpt lat="45.82201" lon="4.49846">
        <ele>590.6</ele>
        <time>2025-09-10T12:38:05Z</time>
      </trkpt>
      <trkpt lat="45.82201" lon="4.49846">
        <ele>590.6</ele>
        <time>2025-09-10T12:38:06Z</time>
      </trkpt>
      <trkpt lat="45.82201" lon="4.49844">
        <ele>590.8</ele>
        <time>2025-09-10T12:38:17Z</time>
      </trkpt>
      <trkpt lat="45.82201" lon="4.49844">
        <ele>591</ele>
        <time>2025-09-10T12:38:18Z</time>
      </trkpt>
      <trkpt lat="45.82201" lon="4.49845">
        <ele>591</ele>
        <time>2025-09-10T12:38:19Z</time>
      </trkpt>
      <trkpt lat="45.82201" lon="4.49845">
        <ele>591.2</ele>
        <time>2025-09-10T12:38:20Z</time>
      </trkpt>
      <trkpt lat="45.82202" lon="4.49846">
        <ele>591.2</ele>
        <time>2025-09-10T12:38:21Z</time>
      </trkpt>
      <trkpt lat="45.82202" lon="4.49846">
        <ele>591.2</ele>
        <time>2025-09-10T12:38:22Z</time>
      </trkpt>
      <trkpt lat="45.82204" lon="4.49847">
        <ele>591.4</ele>
        <time>2025-09-10T12:38:23Z</time>
      </trkpt>
      <trkpt lat="45.82204" lon="4.49848">
        <ele>591.4</ele>
        <time>2025-09-10T12:38:24Z</time>
      </trkpt>
      <trkpt lat="45.82205" lon="4.49849">
        <ele>591.8</ele>
        <time>2025-09-10T12:38:25Z</time>
      </trkpt>
      <trkpt lat="45.82206" lon="4.4985">
        <ele>591.8</ele>
        <time>2025-09-10T12:38:26Z</time>
      </trkpt>
      <trkpt lat="45.82206" lon="4.49851">
        <ele>592.2</ele>
        <time>2025-09-10T12:38:27Z</time>
      </trkpt>
      <trkpt lat="45.82206" lon="4.49852">
        <ele>592.2</ele>
        <time>2025-09-10T12:38:28Z</time>
      </trkpt>
      <trkpt lat="45.82207" lon="4.49853">
        <ele>592.4</ele>
        <time>2025-09-10T12:38:29Z</time>
      </trkpt>
      <trkpt lat="45.82207" lon="4.49853">
        <ele>592.4</ele>
        <time>2025-09-10T12:38:30Z</time>
      </trkpt>
      <trkpt lat="45.82208" lon="4.49854">
        <ele>592.4</ele>
        <time>2025-09-10T12:38:31Z</time>
      </trkpt>
      <trkpt lat="45.82208" lon="4.49854">
        <ele>592.6</ele>
        <time>2025-09-10T12:38:32Z</time>
      </trkpt>
      <trkpt lat="45.82209" lon="4.49855">
        <ele>592.6</ele>
        <time>2025-09-10T12:38:33Z</time>
      </trkpt>
      <trkpt lat="45.8221" lon="4.49856">
        <ele>592.6</ele>
        <time>2025-09-10T12:38:34Z</time>
      </trkpt>
      <trkpt lat="45.8221" lon="4.49856">
        <ele>593</ele>
        <time>2025-09-10T12:38:35Z</time>
      </trkpt>
      <trkpt lat="45.8221" lon="4.49857">
        <ele>593</ele>
        <time>2025-09-10T12:38:36Z</time>
      </trkpt>
      <trkpt lat="45.82211" lon="4.49857">
        <ele>593</ele>
        <time>2025-09-10T12:38:37Z</time>
      </trkpt>
      <trkpt lat="45.82211" lon="4.49858">
        <ele>593.2</ele>
        <time>2025-09-10T12:38:38Z</time>
      </trkpt>
      <trkpt lat="45.82212" lon="4.49859">
        <ele>593.6</ele>
        <time>2025-09-10T12:38:39Z</time>
      </trkpt>
      <trkpt lat="45.82212" lon="4.4986">
        <ele>593.6</ele>
        <time>2025-09-10T12:38:40Z</time>
      </trkpt>
      <trkpt lat="45.82212" lon="4.49861">
        <ele>593.6</ele>
        <time>2025-09-10T12:38:41Z</time>
      </trkpt>
      <trkpt lat="45.82213" lon="4.49862">
        <ele>594</ele>
        <time>2025-09-10T12:38:42Z</time>
      </trkpt>
      <trkpt lat="45.82213" lon="4.49862">
        <ele>594.2</ele>
        <time>2025-09-10T12:38:43Z</time>
      </trkpt>
      <trkpt lat="45.82213" lon="4.49862">
        <ele>594.6</ele>
        <time>2025-09-10T12:38:44Z</time>
      </trkpt>
      <trkpt lat="45.82213" lon="4.49863">
        <ele>594.6</ele>
        <time>2025-09-10T12:38:45Z</time>
      </trkpt>
      <trkpt lat="45.82213" lon="4.49864">
        <ele>594.8</ele>
        <time>2025-09-10T12:38:46Z</time>
      </trkpt>
      <trkpt lat="45.82214" lon="4.49866">
        <ele>594.8</ele>
        <time>2025-09-10T12:38:47Z</time>
      </trkpt>
      <trkpt lat="45.82214" lon="4.49866">
        <ele>594.8</ele>
        <time>2025-09-10T12:38:48Z</time>
      </trkpt>
      <trkpt lat="45.82214" lon="4.49867">
        <ele>594.8</ele>
        <time>2025-09-10T12:38:49Z</time>
      </trkpt>
      <trkpt lat="45.82214" lon="4.49867">
        <ele>594.8</ele>
        <time>2025-09-10T12:38:50Z</time>
      </trkpt>
      <trkpt lat="45.82214" lon="4.49867">
        <ele>594.8</ele>
        <time>2025-09-10T12:38:51Z</time>
      </trkpt>
      <trkpt lat="45.82217" lon="4.49867">
        <ele>595</ele>
        <time>2025-09-10T12:39:23Z</time>
      </trkpt>
      <trkpt lat="45.82217" lon="4.49868">
        <ele>595</ele>
        <time>2025-09-10T12:39:24Z</time>
      </trkpt>
      <trkpt lat="45.82217" lon="4.49869">
        <ele>595</ele>
        <time>2025-09-10T12:39:25Z</time>
      </trkpt>
      <trkpt lat="45.82217" lon="4.4987">
        <ele>595.2</ele>
        <time>2025-09-10T12:39:26Z</time>
      </trkpt>
      <trkpt lat="45.82217" lon="4.49871">
        <ele>595.2</ele>
        <time>2025-09-10T12:39:27Z</time>
      </trkpt>
      <trkpt lat="45.82218" lon="4.49872">
        <ele>595.6</ele>
        <time>2025-09-10T12:39:28Z</time>
      </trkpt>
      <trkpt lat="45.82219" lon="4.49873">
        <ele>595.8</ele>
        <time>2025-09-10T12:39:29Z</time>
      </trkpt>
      <trkpt lat="45.8222" lon="4.49874">
        <ele>595.8</ele>
        <time>2025-09-10T12:39:30Z</time>
      </trkpt>
      <trkpt lat="45.8222" lon="4.49874">
        <ele>595.8</ele>
        <time>2025-09-10T12:39:31Z</time>
      </trkpt>
      <trkpt lat="45.82221" lon="4.49875">
        <ele>596.2</ele>
        <time>2025-09-10T12:39:32Z</time>
      </trkpt>
      <trkpt lat="45.82222" lon="4.49875">
        <ele>596.2</ele>
        <time>2025-09-10T12:39:33Z</time>
      </trkpt>
      <trkpt lat="45.82222" lon="4.49875">
        <ele>596.4</ele>
        <time>2025-09-10T12:39:34Z</time>
      </trkpt>
      <trkpt lat="45.82223" lon="4.49875">
        <ele>596.4</ele>
        <time>2025-09-10T12:39:35Z</time>
      </trkpt>
      <trkpt lat="45.82224" lon="4.49875">
        <ele>596.8</ele>
        <time>2025-09-10T12:39:36Z</time>
      </trkpt>
      <trkpt lat="45.82225" lon="4.49876">
        <ele>596.8</ele>
        <time>2025-09-10T12:39:37Z</time>
      </trkpt>
      <trkpt lat="45.82225" lon="4.49877">
        <ele>597</ele>
        <time>2025-09-10T12:39:38Z</time>
      </trkpt>
      <trkpt lat="45.82226" lon="4.49878">
        <ele>597</ele>
        <time>2025-09-10T12:39:39Z</time>
      </trkpt>
      <trkpt lat="45.82227" lon="4.49879">
        <ele>597.4</ele>
        <time>2025-09-10T12:39:40Z</time>
      </trkpt>
      <trkpt lat="45.82227" lon="4.4988">
        <ele>597.4</ele>
        <time>2025-09-10T12:39:41Z</time>
      </trkpt>
      <trkpt lat="45.82228" lon="4.49881">
        <ele>597.6</ele>
        <time>2025-09-10T12:39:42Z</time>
      </trkpt>
      <trkpt lat="45.82228" lon="4.49882">
        <ele>597.6</ele>
        <time>2025-09-10T12:39:43Z</time>
      </trkpt>
      <trkpt lat="45.82228" lon="4.49882">
        <ele>597.8</ele>
        <time>2025-09-10T12:39:44Z</time>
      </trkpt>
      <trkpt lat="45.82228" lon="4.49882">
        <ele>597.8</ele>
        <time>2025-09-10T12:39:45Z</time>
      </trkpt>
      <trkpt lat="45.82229" lon="4.49883">
        <ele>598</ele>
        <time>2025-09-10T12:39:46Z</time>
      </trkpt>
      <trkpt lat="45.82229" lon="4.49884">
        <ele>598</ele>
        <time>2025-09-10T12:39:47Z</time>
      </trkpt>
      <trkpt lat="45.82229" lon="4.49885">
        <ele>598.4</ele>
        <time>2025-09-10T12:39:48Z</time>
      </trkpt>
      <trkpt lat="45.8223" lon="4.49886">
        <ele>598.6</ele>
        <time>2025-09-10T12:39:49Z</time>
      </trkpt>
      <trkpt lat="45.8223" lon="4.49886">
        <ele>598.6</ele>
        <time>2025-09-10T12:39:50Z</time>
      </trkpt>
      <trkpt lat="45.8223" lon="4.49887">
        <ele>598.6</ele>
        <time>2025-09-10T12:39:51Z</time>
      </trkpt>
      <trkpt lat="45.82231" lon="4.49887">
        <ele>599</ele>
        <time>2025-09-10T12:39:52Z</time>
      </trkpt>
      <trkpt lat="45.82231" lon="4.49888">
        <ele>599</ele>
        <time>2025-09-10T12:39:53Z</time>
      </trkpt>
      <trkpt lat="45.82231" lon="4.49889">
        <ele>599</ele>
        <time>2025-09-10T12:39:54Z</time>
      </trkpt>
      <trkpt lat="45.82232" lon="4.4989">
        <ele>599.2</ele>
        <time>2025-09-10T12:39:55Z</time>
      </trkpt>
      <trkpt lat="45.82232" lon="4.4989">
        <ele>599.4</ele>
        <time>2025-09-10T12:39:56Z</time>
      </trkpt>
      <trkpt lat="45.82232" lon="4.4989">
        <ele>599.4</ele>
        <time>2025-09-10T12:39:57Z</time>
      </trkpt>
      <trkpt lat="45.82233" lon="4.49892">
        <ele>600</ele>
        <time>2025-09-10T12:40:00Z</time>
      </trkpt>
      <trkpt lat="45.82235" lon="4.49893">
        <ele>600.2</ele>
        <time>2025-09-10T12:40:01Z</time>
      </trkpt>
      <trkpt lat="45.82236" lon="4.49894">
        <ele>600.2</ele>
        <time>2025-09-10T12:40:02Z</time>
      </trkpt>
      <trkpt lat="45.82236" lon="4.49895">
        <ele>600.2</ele>
        <time>2025-09-10T12:40:03Z</time>
      </trkpt>
      <trkpt lat="45.82237" lon="4.49895">
        <ele>600.4</ele>
        <time>2025-09-10T12:40:04Z</time>
      </trkpt>
      <trkpt lat="45.82237" lon="4.49895">
        <ele>600.4</ele>
        <time>2025-09-10T12:40:05Z</time>
      </trkpt>
      <trkpt lat="45.82238" lon="4.49895">
        <ele>600.6</ele>
        <time>2025-09-10T12:40:06Z</time>
      </trkpt>
      <trkpt lat="45.82238" lon="4.49895">
        <ele>600.6</ele>
        <time>2025-09-10T12:40:07Z</time>
      </trkpt>
      <trkpt lat="45.82239" lon="4.49895">
        <ele>600.6</ele>
        <time>2025-09-10T12:40:08Z</time>
      </trkpt>
      <trkpt lat="45.82239" lon="4.49895">
        <ele>600.6</ele>
        <time>2025-09-10T12:40:09Z</time>
      </trkpt>
      <trkpt lat="45.8224" lon="4.49895">
        <ele>601</ele>
        <time>2025-09-10T12:40:10Z</time>
      </trkpt>
      <trkpt lat="45.82241" lon="4.49895">
        <ele>601</ele>
        <time>2025-09-10T12:40:11Z</time>
      </trkpt>
      <trkpt lat="45.82241" lon="4.49895">
        <ele>601.2</ele>
        <time>2025-09-10T12:40:12Z</time>
      </trkpt>
      <trkpt lat="45.82242" lon="4.49895">
        <ele>601.2</ele>
        <time>2025-09-10T12:40:13Z</time>
      </trkpt>
      <trkpt lat="45.82243" lon="4.49896">
        <ele>601.2</ele>
        <time>2025-09-10T12:40:14Z</time>
      </trkpt>
      <trkpt lat="45.82243" lon="4.49896">
        <ele>601.4</ele>
        <time>2025-09-10T12:40:15Z</time>
      </trkpt>
      <trkpt lat="45.82244" lon="4.49896">
        <ele>601.4</ele>
        <time>2025-09-10T12:40:16Z</time>
      </trkpt>
      <trkpt lat="45.82244" lon="4.49896">
        <ele>601.4</ele>
        <time>2025-09-10T12:40:17Z</time>
      </trkpt>
      <trkpt lat="45.82245" lon="4.49896">
        <ele>601.6</ele>
        <time>2025-09-10T12:40:18Z</time>
      </trkpt>
      <trkpt lat="45.82246" lon="4.49897">
        <ele>602</ele>
        <time>2025-09-10T12:40:19Z</time>
      </trkpt>
      <trkpt lat="45.82246" lon="4.49897">
        <ele>602</ele>
        <time>2025-09-10T12:40:20Z</time>
      </trkpt>
      <trkpt lat="45.82246" lon="4.49897">
        <ele>602.2</ele>
        <time>2025-09-10T12:40:21Z</time>
      </trkpt>
      <trkpt lat="45.82247" lon="4.49897">
        <ele>602.2</ele>
        <time>2025-09-10T12:40:22Z</time>
      </trkpt>
      <trkpt lat="45.82247" lon="4.49897">
        <ele>602.4</ele>
        <time>2025-09-10T12:40:23Z</time>
      </trkpt>
      <trkpt lat="45.82248" lon="4.49897">
        <ele>602.4</ele>
        <time>2025-09-10T12:40:24Z</time>
      </trkpt>
      <trkpt lat="45.82248" lon="4.49897">
        <ele>602.6</ele>
        <time>2025-09-10T12:40:25Z</time>
      </trkpt>
      <trkpt lat="45.82248" lon="4.49897">
        <ele>602.6</ele>
        <time>2025-09-10T12:40:26Z</time>
      </trkpt>
      <trkpt lat="45.82249" lon="4.49898">
        <ele>603.2</ele>
        <time>2025-09-10T12:40:29Z</time>
      </trkpt>
      <trkpt lat="45.82249" lon="4.49898">
        <ele>603.2</ele>
        <time>2025-09-10T12:40:30Z</time>
      </trkpt>
      <trkpt lat="45.8225" lon="4.49899">
        <ele>603.2</ele>
        <time>2025-09-10T12:40:31Z</time>
      </trkpt>
      <trkpt lat="45.82251" lon="4.499">
        <ele>603.2</ele>
        <time>2025-09-10T12:40:32Z</time>
      </trkpt>
      <trkpt lat="45.82251" lon="4.499">
        <ele>603.6</ele>
        <time>2025-09-10T12:40:33Z</time>
      </trkpt>
      <trkpt lat="45.82251" lon="4.499">
        <ele>603.6</ele>
        <time>2025-09-10T12:40:34Z</time>
      </trkpt>
      <trkpt lat="45.82252" lon="4.499">
        <ele>603.8</ele>
        <time>2025-09-10T12:40:39Z</time>
      </trkpt>
      <trkpt lat="45.82253" lon="4.49901">
        <ele>603.8</ele>
        <time>2025-09-10T12:40:40Z</time>
      </trkpt>
      <trkpt lat="45.82254" lon="4.49901">
        <ele>603.8</ele>
        <time>2025-09-10T12:40:41Z</time>
      </trkpt>
      <trkpt lat="45.82255" lon="4.49901">
        <ele>604</ele>
        <time>2025-09-10T12:40:42Z</time>
      </trkpt>
      <trkpt lat="45.82256" lon="4.49902">
        <ele>604</ele>
        <time>2025-09-10T12:40:43Z</time>
      </trkpt>
      <trkpt lat="45.82257" lon="4.49902">
        <ele>604</ele>
        <time>2025-09-10T12:40:44Z</time>
      </trkpt>
      <trkpt lat="45.82258" lon="4.49903">
        <ele>604</ele>
        <time>2025-09-10T12:40:45Z</time>
      </trkpt>
      <trkpt lat="45.82258" lon="4.49903">
        <ele>604.2</ele>
        <time>2025-09-10T12:40:46Z</time>
      </trkpt>
      <trkpt lat="45.82259" lon="4.49903">
        <ele>604.2</ele>
        <time>2025-09-10T12:40:47Z</time>
      </trkpt>
      <trkpt lat="45.8226" lon="4.49904">
        <ele>604.6</ele>
        <time>2025-09-10T12:40:48Z</time>
      </trkpt>
      <trkpt lat="45.82261" lon="4.49904">
        <ele>604.6</ele>
        <time>2025-09-10T12:40:49Z</time>
      </trkpt>
      <trkpt lat="45.82262" lon="4.49904">
        <ele>604.8</ele>
        <time>2025-09-10T12:40:50Z</time>
      </trkpt>
      <trkpt lat="45.82263" lon="4.49904">
        <ele>604.8</ele>
        <time>2025-09-10T12:40:51Z</time>
      </trkpt>
      <trkpt lat="45.82264" lon="4.49905">
        <ele>605</ele>
        <time>2025-09-10T12:40:52Z</time>
      </trkpt>
      <trkpt lat="45.82264" lon="4.49905">
        <ele>605</ele>
        <time>2025-09-10T12:40:53Z</time>
      </trkpt>
      <trkpt lat="45.82265" lon="4.49905">
        <ele>605.4</ele>
        <time>2025-09-10T12:40:54Z</time>
      </trkpt>
      <trkpt lat="45.82266" lon="4.49905">
        <ele>605.4</ele>
        <time>2025-09-10T12:40:55Z</time>
      </trkpt>
      <trkpt lat="45.82267" lon="4.49906">
        <ele>605.4</ele>
        <time>2025-09-10T12:40:56Z</time>
      </trkpt>
      <trkpt lat="45.82268" lon="4.49906">
        <ele>605.6</ele>
        <time>2025-09-10T12:40:57Z</time>
      </trkpt>
      <trkpt lat="45.82269" lon="4.49906">
        <ele>605.6</ele>
        <time>2025-09-10T12:40:58Z</time>
      </trkpt>
      <trkpt lat="45.82269" lon="4.49906">
        <ele>605.8</ele>
        <time>2025-09-10T12:40:59Z</time>
      </trkpt>
      <trkpt lat="45.8227" lon="4.49906">
        <ele>605.8</ele>
        <time>2025-09-10T12:41:00Z</time>
      </trkpt>
      <trkpt lat="45.82271" lon="4.49907">
        <ele>606.2</ele>
        <time>2025-09-10T12:41:01Z</time>
      </trkpt>
      <trkpt lat="45.82272" lon="4.49907">
        <ele>606.2</ele>
        <time>2025-09-10T12:41:02Z</time>
      </trkpt>
      <trkpt lat="45.82273" lon="4.49908">
        <ele>606.4</ele>
        <time>2025-09-10T12:41:03Z</time>
      </trkpt>
      <trkpt lat="45.82274" lon="4.49908">
        <ele>606.4</ele>
        <time>2025-09-10T12:41:04Z</time>
      </trkpt>
      <trkpt lat="45.82274" lon="4.49908">
        <ele>606.4</ele>
        <time>2025-09-10T12:41:05Z</time>
      </trkpt>
      <trkpt lat="45.82275" lon="4.49908">
        <ele>606.4</ele>
        <time>2025-09-10T12:41:06Z</time>
      </trkpt>
      <trkpt lat="45.82276" lon="4.49909">
        <ele>606.4</ele>
        <time>2025-09-10T12:41:07Z</time>
      </trkpt>
      <trkpt lat="45.82277" lon="4.49909">
        <ele>606.8</ele>
        <time>2025-09-10T12:41:08Z</time>
      </trkpt>
      <trkpt lat="45.82278" lon="4.49909">
        <ele>606.8</ele>
        <time>2025-09-10T12:41:09Z</time>
      </trkpt>
      <trkpt lat="45.82278" lon="4.49909">
        <ele>607</ele>
        <time>2025-09-10T12:41:10Z</time>
      </trkpt>
      <trkpt lat="45.82279" lon="4.4991">
        <ele>607</ele>
        <time>2025-09-10T12:41:11Z</time>
      </trkpt>
      <trkpt lat="45.8228" lon="4.4991">
        <ele>607.2</ele>
        <time>2025-09-10T12:41:12Z</time>
      </trkpt>
      <trkpt lat="45.82281" lon="4.4991">
        <ele>607.2</ele>
        <time>2025-09-10T12:41:13Z</time>
      </trkpt>
      <trkpt lat="45.82282" lon="4.49911">
        <ele>607.2</ele>
        <time>2025-09-10T12:41:14Z</time>
      </trkpt>
      <trkpt lat="45.82282" lon="4.49912">
        <ele>607.6</ele>
        <time>2025-09-10T12:41:15Z</time>
      </trkpt>
      <trkpt lat="45.82283" lon="4.49912">
        <ele>607.8</ele>
        <time>2025-09-10T12:41:16Z</time>
      </trkpt>
      <trkpt lat="45.82284" lon="4.49913">
        <ele>607.8</ele>
        <time>2025-09-10T12:41:17Z</time>
      </trkpt>
      <trkpt lat="45.82285" lon="4.49913">
        <ele>608</ele>
        <time>2025-09-10T12:41:18Z</time>
      </trkpt>
      <trkpt lat="45.82286" lon="4.49913">
        <ele>608</ele>
        <time>2025-09-10T12:41:19Z</time>
      </trkpt>
      <trkpt lat="45.82287" lon="4.49914">
        <ele>608</ele>
        <time>2025-09-10T12:41:20Z</time>
      </trkpt>
      <trkpt lat="45.82288" lon="4.49914">
        <ele>608.2</ele>
        <time>2025-09-10T12:41:21Z</time>
      </trkpt>
      <trkpt lat="45.82288" lon="4.49914">
        <ele>608.2</ele>
        <time>2025-09-10T12:41:22Z</time>
      </trkpt>
      <trkpt lat="45.82288" lon="4.49914">
        <ele>608.2</ele>
        <time>2025-09-10T12:41:23Z</time>
      </trkpt>
      <trkpt lat="45.82288" lon="4.49911">
        <ele>608.4</ele>
        <time>2025-09-10T12:42:49Z</time>
      </trkpt>
      <trkpt lat="45.82289" lon="4.4991">
        <ele>608.4</ele>
        <time>2025-09-10T12:42:50Z</time>
      </trkpt>
      <trkpt lat="45.8229" lon="4.4991">
        <ele>608.6</ele>
        <time>2025-09-10T12:42:51Z</time>
      </trkpt>
      <trkpt lat="45.82291" lon="4.4991">
        <ele>608.6</ele>
        <time>2025-09-10T12:42:52Z</time>
      </trkpt>
      <trkpt lat="45.82293" lon="4.49909">
        <ele>609</ele>
        <time>2025-09-10T12:42:53Z</time>
      </trkpt>
      <trkpt lat="45.82294" lon="4.49909">
        <ele>609</ele>
        <time>2025-09-10T12:42:54Z</time>
      </trkpt>
      <trkpt lat="45.82295" lon="4.49909">
        <ele>609</ele>
        <time>2025-09-10T12:42:55Z</time>
      </trkpt>
      <trkpt lat="45.82297" lon="4.49909">
        <ele>609.4</ele>
        <time>2025-09-10T12:42:56Z</time>
      </trkpt>
      <trkpt lat="45.82298" lon="4.49909">
        <ele>609.4</ele>
        <time>2025-09-10T12:42:57Z</time>
      </trkpt>
      <trkpt lat="45.82298" lon="4.49909">
        <ele>609.4</ele>
        <time>2025-09-10T12:42:58Z</time>
      </trkpt>
      <trkpt lat="45.82299" lon="4.49909">
        <ele>609.6</ele>
        <time>2025-09-10T12:42:59Z</time>
      </trkpt>
      <trkpt lat="45.82301" lon="4.49909">
        <ele>610</ele>
        <time>2025-09-10T12:43:00Z</time>
      </trkpt>
      <trkpt lat="45.82301" lon="4.49908">
        <ele>610</ele>
        <time>2025-09-10T12:43:01Z</time>
      </trkpt>
      <trkpt lat="45.82302" lon="4.49908">
        <ele>610</ele>
        <time>2025-09-10T12:43:02Z</time>
      </trkpt>
      <trkpt lat="45.82304" lon="4.49907">
        <ele>610.2</ele>
        <time>2025-09-10T12:43:03Z</time>
      </trkpt>
      <trkpt lat="45.82305" lon="4.49907">
        <ele>610.2</ele>
        <time>2025-09-10T12:43:04Z</time>
      </trkpt>
      <trkpt lat="45.82305" lon="4.49907">
        <ele>610.2</ele>
        <time>2025-09-10T12:43:05Z</time>
      </trkpt>
      <trkpt lat="45.82306" lon="4.49907">
        <ele>610.6</ele>
        <time>2025-09-10T12:43:06Z</time>
      </trkpt>
      <trkpt lat="45.82307" lon="4.49906">
        <ele>610.6</ele>
        <time>2025-09-10T12:43:07Z</time>
      </trkpt>
      <trkpt lat="45.82308" lon="4.49906">
        <ele>610.8</ele>
        <time>2025-09-10T12:43:08Z</time>
      </trkpt>
      <trkpt lat="45.82308" lon="4.49905">
        <ele>610.8</ele>
        <time>2025-09-10T12:43:09Z</time>
      </trkpt>
      <trkpt lat="45.82309" lon="4.49905">
        <ele>611.2</ele>
        <time>2025-09-10T12:43:10Z</time>
      </trkpt>
      <trkpt lat="45.8231" lon="4.49905">
        <ele>611.2</ele>
        <time>2025-09-10T12:43:11Z</time>
      </trkpt>
      <trkpt lat="45.8231" lon="4.49905">
        <ele>611.6</ele>
        <time>2025-09-10T12:43:12Z</time>
      </trkpt>
      <trkpt lat="45.82311" lon="4.49905">
        <ele>611.6</ele>
        <time>2025-09-10T12:43:13Z</time>
      </trkpt>
      <trkpt lat="45.82312" lon="4.49904">
        <ele>612</ele>
        <time>2025-09-10T12:43:14Z</time>
      </trkpt>
      <trkpt lat="45.82313" lon="4.49904">
        <ele>612</ele>
        <time>2025-09-10T12:43:15Z</time>
      </trkpt>
      <trkpt lat="45.82314" lon="4.49903">
        <ele>612.2</ele>
        <time>2025-09-10T12:43:16Z</time>
      </trkpt>
      <trkpt lat="45.82315" lon="4.49903">
        <ele>612.2</ele>
        <time>2025-09-10T12:43:17Z</time>
      </trkpt>
      <trkpt lat="45.82315" lon="4.49902">
        <ele>612.4</ele>
        <time>2025-09-10T12:43:18Z</time>
      </trkpt>
      <trkpt lat="45.82317" lon="4.49901">
        <ele>612.4</ele>
        <time>2025-09-10T12:43:19Z</time>
      </trkpt>
      <trkpt lat="45.82317" lon="4.49901">
        <ele>612.8</ele>
        <time>2025-09-10T12:43:20Z</time>
      </trkpt>
      <trkpt lat="45.82318" lon="4.499">
        <ele>612.8</ele>
        <time>2025-09-10T12:43:21Z</time>
      </trkpt>
      <trkpt lat="45.82319" lon="4.499">
        <ele>612.8</ele>
        <time>2025-09-10T12:43:22Z</time>
      </trkpt>
      <trkpt lat="45.8232" lon="4.49899">
        <ele>613</ele>
        <time>2025-09-10T12:43:23Z</time>
      </trkpt>
      <trkpt lat="45.82321" lon="4.49898">
        <ele>613</ele>
        <time>2025-09-10T12:43:24Z</time>
      </trkpt>
      <trkpt lat="45.82322" lon="4.49898">
        <ele>613</ele>
        <time>2025-09-10T12:43:25Z</time>
      </trkpt>
      <trkpt lat="45.82323" lon="4.49897">
        <ele>613.2</ele>
        <time>2025-09-10T12:43:26Z</time>
      </trkpt>
      <trkpt lat="45.82324" lon="4.49896">
        <ele>613.4</ele>
        <time>2025-09-10T12:43:27Z</time>
      </trkpt>
      <trkpt lat="45.82325" lon="4.49896">
        <ele>613.4</ele>
        <time>2025-09-10T12:43:28Z</time>
      </trkpt>
      <trkpt lat="45.82325" lon="4.49895">
        <ele>613.4</ele>
        <time>2025-09-10T12:43:29Z</time>
      </trkpt>
      <trkpt lat="45.82326" lon="4.49894">
        <ele>613.8</ele>
        <time>2025-09-10T12:43:30Z</time>
      </trkpt>
      <trkpt lat="45.82327" lon="4.49893">
        <ele>614</ele>
        <time>2025-09-10T12:43:31Z</time>
      </trkpt>
      <trkpt lat="45.82328" lon="4.49892">
        <ele>614.2</ele>
        <time>2025-09-10T12:43:32Z</time>
      </trkpt>
      <trkpt lat="45.82329" lon="4.49892">
        <ele>614.2</ele>
        <time>2025-09-10T12:43:33Z</time>
      </trkpt>
      <trkpt lat="45.8233" lon="4.49891">
        <ele>614.6</ele>
        <time>2025-09-10T12:43:34Z</time>
      </trkpt>
      <trkpt lat="45.82331" lon="4.4989">
        <ele>614.6</ele>
        <time>2025-09-10T12:43:35Z</time>
      </trkpt>
      <trkpt lat="45.82332" lon="4.4989">
        <ele>615</ele>
        <time>2025-09-10T12:43:36Z</time>
      </trkpt>
      <trkpt lat="45.82332" lon="4.4989">
        <ele>615</ele>
        <time>2025-09-10T12:43:37Z</time>
      </trkpt>
      <trkpt lat="45.82333" lon="4.49889">
        <ele>615</ele>
        <time>2025-09-10T12:43:38Z</time>
      </trkpt>
      <trkpt lat="45.82334" lon="4.49889">
        <ele>615.2</ele>
        <time>2025-09-10T12:43:39Z</time>
      </trkpt>
      <trkpt lat="45.82335" lon="4.49888">
        <ele>615.2</ele>
        <time>2025-09-10T12:43:40Z</time>
      </trkpt>
      <trkpt lat="45.82336" lon="4.49888">
        <ele>615.4</ele>
        <time>2025-09-10T12:43:41Z</time>
      </trkpt>
      <trkpt lat="45.82337" lon="4.49887">
        <ele>615.4</ele>
        <time>2025-09-10T12:43:42Z</time>
      </trkpt>
      <trkpt lat="45.82338" lon="4.49887">
        <ele>615.4</ele>
        <time>2025-09-10T12:43:43Z</time>
      </trkpt>
      <trkpt lat="45.82339" lon="4.49886">
        <ele>615.6</ele>
        <time>2025-09-10T12:43:44Z</time>
      </trkpt>
      <trkpt lat="45.82339" lon="4.49886">
        <ele>615.6</ele>
        <time>2025-09-10T12:43:45Z</time>
      </trkpt>
      <trkpt lat="45.8234" lon="4.49885">
        <ele>616</ele>
        <time>2025-09-10T12:43:46Z</time>
      </trkpt>
      <trkpt lat="45.82341" lon="4.49885">
        <ele>616</ele>
        <time>2025-09-10T12:43:47Z</time>
      </trkpt>
      <trkpt lat="45.82342" lon="4.49884">
        <ele>616</ele>
        <time>2025-09-10T12:43:48Z</time>
      </trkpt>
      <trkpt lat="45.82343" lon="4.49883">
        <ele>616</ele>
        <time>2025-09-10T12:43:49Z</time>
      </trkpt>
      <trkpt lat="45.82344" lon="4.49883">
        <ele>616.2</ele>
        <time>2025-09-10T12:43:50Z</time>
      </trkpt>
      <trkpt lat="45.82345" lon="4.49882">
        <ele>616.2</ele>
        <time>2025-09-10T12:43:51Z</time>
      </trkpt>
      <trkpt lat="45.82346" lon="4.49882">
        <ele>616.2</ele>
        <time>2025-09-10T12:43:52Z</time>
      </trkpt>
      <trkpt lat="45.82347" lon="4.49881">
        <ele>616.2</ele>
        <time>2025-09-10T12:43:53Z</time>
      </trkpt>
      <trkpt lat="45.82347" lon="4.49881">
        <ele>616.4</ele>
        <time>2025-09-10T12:43:54Z</time>
      </trkpt>
      <trkpt lat="45.82348" lon="4.4988">
        <ele>616.4</ele>
        <time>2025-09-10T12:43:55Z</time>
      </trkpt>
      <trkpt lat="45.82349" lon="4.4988">
        <ele>616.4</ele>
        <time>2025-09-10T12:43:56Z</time>
      </trkpt>
      <trkpt lat="45.8235" lon="4.49879">
        <ele>616.8</ele>
        <time>2025-09-10T12:43:57Z</time>
      </trkpt>
      <trkpt lat="45.8235" lon="4.49879">
        <ele>616.8</ele>
        <time>2025-09-10T12:43:58Z</time>
      </trkpt>
      <trkpt lat="45.82351" lon="4.49879">
        <ele>617</ele>
        <time>2025-09-10T12:43:59Z</time>
      </trkpt>
      <trkpt lat="45.82351" lon="4.49878">
        <ele>617</ele>
        <time>2025-09-10T12:44:00Z</time>
      </trkpt>
      <trkpt lat="45.82355" lon="4.49877">
        <ele>617</ele>
        <time>2025-09-10T12:44:06Z</time>
      </trkpt>
      <trkpt lat="45.82356" lon="4.49876">
        <ele>617</ele>
        <time>2025-09-10T12:44:07Z</time>
      </trkpt>
      <trkpt lat="45.82357" lon="4.49874">
        <ele>616.8</ele>
        <time>2025-09-10T12:44:08Z</time>
      </trkpt>
      <trkpt lat="45.82359" lon="4.49873">
        <ele>616.8</ele>
        <time>2025-09-10T12:44:09Z</time>
      </trkpt>
      <trkpt lat="45.82361" lon="4.49871">
        <ele>616.8</ele>
        <time>2025-09-10T12:44:10Z</time>
      </trkpt>
      <trkpt lat="45.82362" lon="4.49869">
        <ele>616.8</ele>
        <time>2025-09-10T12:44:11Z</time>
      </trkpt>
      <trkpt lat="45.82364" lon="4.49866">
        <ele>616.8</ele>
        <time>2025-09-10T12:44:12Z</time>
      </trkpt>
      <trkpt lat="45.82366" lon="4.49863">
        <ele>616.6</ele>
        <time>2025-09-10T12:44:13Z</time>
      </trkpt>
      <trkpt lat="45.82369" lon="4.49861">
        <ele>616.6</ele>
        <time>2025-09-10T12:44:14Z</time>
      </trkpt>
      <trkpt lat="45.82371" lon="4.49858">
        <ele>616.6</ele>
        <time>2025-09-10T12:44:15Z</time>
      </trkpt>
      <trkpt lat="45.82374" lon="4.49854">
        <ele>616.6</ele>
        <time>2025-09-10T12:44:16Z</time>
      </trkpt>
      <trkpt lat="45.82376" lon="4.49851">
        <ele>616.6</ele>
        <time>2025-09-10T12:44:17Z</time>
      </trkpt>
      <trkpt lat="45.82379" lon="4.49847">
        <ele>616.2</ele>
        <time>2025-09-10T12:44:18Z</time>
      </trkpt>
      <trkpt lat="45.82382" lon="4.49842">
        <ele>616</ele>
        <time>2025-09-10T12:44:19Z</time>
      </trkpt>
      <trkpt lat="45.82385" lon="4.49836">
        <ele>615.8</ele>
        <time>2025-09-10T12:44:20Z</time>
      </trkpt>
      <trkpt lat="45.82388" lon="4.4983">
        <ele>615.8</ele>
        <time>2025-09-10T12:44:21Z</time>
      </trkpt>
      <trkpt lat="45.82392" lon="4.49823">
        <ele>615.2</ele>
        <time>2025-09-10T12:44:22Z</time>
      </trkpt>
      <trkpt lat="45.82395" lon="4.49815">
        <ele>615.2</ele>
        <time>2025-09-10T12:44:23Z</time>
      </trkpt>
      <trkpt lat="45.82399" lon="4.49809">
        <ele>614.8</ele>
        <time>2025-09-10T12:44:24Z</time>
      </trkpt>
      <trkpt lat="45.82403" lon="4.49802">
        <ele>614.6</ele>
        <time>2025-09-10T12:44:25Z</time>
      </trkpt>
      <trkpt lat="45.82408" lon="4.49796">
        <ele>614.6</ele>
        <time>2025-09-10T12:44:26Z</time>
      </trkpt>
      <trkpt lat="45.82411" lon="4.4979">
        <ele>614</ele>
        <time>2025-09-10T12:44:27Z</time>
      </trkpt>
      <trkpt lat="45.82415" lon="4.49782">
        <ele>613.6</ele>
        <time>2025-09-10T12:44:28Z</time>
      </trkpt>
      <trkpt lat="45.82419" lon="4.49775">
        <ele>613.6</ele>
        <time>2025-09-10T12:44:29Z</time>
      </trkpt>
      <trkpt lat="45.82424" lon="4.49768">
        <ele>613.6</ele>
        <time>2025-09-10T12:44:30Z</time>
      </trkpt>
      <trkpt lat="45.82427" lon="4.49761">
        <ele>613.6</ele>
        <time>2025-09-10T12:44:31Z</time>
      </trkpt>
      <trkpt lat="45.82431" lon="4.49755">
        <ele>613.6</ele>
        <time>2025-09-10T12:44:32Z</time>
      </trkpt>
      <trkpt lat="45.82434" lon="4.49748">
        <ele>613.6</ele>
        <time>2025-09-10T12:44:33Z</time>
      </trkpt>
      <trkpt lat="45.82438" lon="4.49741">
        <ele>613.6</ele>
        <time>2025-09-10T12:44:34Z</time>
      </trkpt>
      <trkpt lat="45.82442" lon="4.49736">
        <ele>613.6</ele>
        <time>2025-09-10T12:44:35Z</time>
      </trkpt>
      <trkpt lat="45.82445" lon="4.4973">
        <ele>613.4</ele>
        <time>2025-09-10T12:44:36Z</time>
      </trkpt>
      <trkpt lat="45.82449" lon="4.49725">
        <ele>613.4</ele>
        <time>2025-09-10T12:44:37Z</time>
      </trkpt>
      <trkpt lat="45.82452" lon="4.49719">
        <ele>613.4</ele>
        <time>2025-09-10T12:44:38Z</time>
      </trkpt>
      <trkpt lat="45.82456" lon="4.49713">
        <ele>613.4</ele>
        <time>2025-09-10T12:44:39Z</time>
      </trkpt>
      <trkpt lat="45.82461" lon="4.49707">
        <ele>613.2</ele>
        <time>2025-09-10T12:44:40Z</time>
      </trkpt>
      <trkpt lat="45.82465" lon="4.49702">
        <ele>613.2</ele>
        <time>2025-09-10T12:44:41Z</time>
      </trkpt>
      <trkpt lat="45.82468" lon="4.49696">
        <ele>612.6</ele>
        <time>2025-09-10T12:44:42Z</time>
      </trkpt>
      <trkpt lat="45.82471" lon="4.49691">
        <ele>612.6</ele>
        <time>2025-09-10T12:44:43Z</time>
      </trkpt>
      <trkpt lat="45.82475" lon="4.49685">
        <ele>612.8</ele>
        <time>2025-09-10T12:44:44Z</time>
      </trkpt>
      <trkpt lat="45.82478" lon="4.4968">
        <ele>612.6</ele>
        <time>2025-09-10T12:44:45Z</time>
      </trkpt>
      <trkpt lat="45.82483" lon="4.49676">
        <ele>612.6</ele>
        <time>2025-09-10T12:44:46Z</time>
      </trkpt>
      <trkpt lat="45.82486" lon="4.4967">
        <ele>612.4</ele>
        <time>2025-09-10T12:44:47Z</time>
      </trkpt>
      <trkpt lat="45.82488" lon="4.49665">
        <ele>612.6</ele>
        <time>2025-09-10T12:44:48Z</time>
      </trkpt>
      <trkpt lat="45.82491" lon="4.49661">
        <ele>613</ele>
        <time>2025-09-10T12:44:49Z</time>
      </trkpt>
      <trkpt lat="45.82493" lon="4.49657">
        <ele>613</ele>
        <time>2025-09-10T12:44:50Z</time>
      </trkpt>
      <trkpt lat="45.82495" lon="4.49652">
        <ele>613.4</ele>
        <time>2025-09-10T12:44:51Z</time>
      </trkpt>
      <trkpt lat="45.82498" lon="4.49648">
        <ele>613.8</ele>
        <time>2025-09-10T12:44:52Z</time>
      </trkpt>
      <trkpt lat="45.825" lon="4.49645">
        <ele>614</ele>
        <time>2025-09-10T12:44:53Z</time>
      </trkpt>
      <trkpt lat="45.825" lon="4.49645">
        <ele>614</ele>
        <time>2025-09-10T12:44:54Z</time>
      </trkpt>
      <trkpt lat="45.82503" lon="4.49637">
        <ele>614.4</ele>
        <time>2025-09-10T12:44:55Z</time>
      </trkpt>
      <trkpt lat="45.82505" lon="4.49633">
        <ele>614.6</ele>
        <time>2025-09-10T12:44:56Z</time>
      </trkpt>
      <trkpt lat="45.82507" lon="4.4963">
        <ele>614.6</ele>
        <time>2025-09-10T12:44:57Z</time>
      </trkpt>
      <trkpt lat="45.82508" lon="4.49627">
        <ele>615</ele>
        <time>2025-09-10T12:44:58Z</time>
      </trkpt>
      <trkpt lat="45.8251" lon="4.49624">
        <ele>615</ele>
        <time>2025-09-10T12:44:59Z</time>
      </trkpt>
      <trkpt lat="45.82511" lon="4.49621">
        <ele>615.2</ele>
        <time>2025-09-10T12:45:00Z</time>
      </trkpt>
      <trkpt lat="45.82513" lon="4.49618">
        <ele>615.4</ele>
        <time>2025-09-10T12:45:01Z</time>
      </trkpt>
      <trkpt lat="45.82514" lon="4.49616">
        <ele>615.4</ele>
        <time>2025-09-10T12:45:02Z</time>
      </trkpt>
      <trkpt lat="45.82516" lon="4.49613">
        <ele>615.8</ele>
        <time>2025-09-10T12:45:03Z</time>
      </trkpt>
      <trkpt lat="45.82517" lon="4.4961">
        <ele>615.8</ele>
        <time>2025-09-10T12:45:04Z</time>
      </trkpt>
      <trkpt lat="45.82519" lon="4.49608">
        <ele>616</ele>
        <time>2025-09-10T12:45:05Z</time>
      </trkpt>
      <trkpt lat="45.8252" lon="4.49605">
        <ele>616.2</ele>
        <time>2025-09-10T12:45:06Z</time>
      </trkpt>
      <trkpt lat="45.82521" lon="4.49603">
        <ele>616.2</ele>
        <time>2025-09-10T12:45:07Z</time>
      </trkpt>
      <trkpt lat="45.82523" lon="4.49601">
        <ele>616.6</ele>
        <time>2025-09-10T12:45:08Z</time>
      </trkpt>
      <trkpt lat="45.82524" lon="4.49598">
        <ele>616.8</ele>
        <time>2025-09-10T12:45:09Z</time>
      </trkpt>
      <trkpt lat="45.82525" lon="4.49596">
        <ele>616.8</ele>
        <time>2025-09-10T12:45:10Z</time>
      </trkpt>
      <trkpt lat="45.82526" lon="4.49593">
        <ele>617</ele>
        <time>2025-09-10T12:45:11Z</time>
      </trkpt>
      <trkpt lat="45.82528" lon="4.49591">
        <ele>617</ele>
        <time>2025-09-10T12:45:12Z</time>
      </trkpt>
      <trkpt lat="45.8253" lon="4.49588">
        <ele>617</ele>
        <time>2025-09-10T12:45:13Z</time>
      </trkpt>
      <trkpt lat="45.82532" lon="4.49586">
        <ele>617</ele>
        <time>2025-09-10T12:45:14Z</time>
      </trkpt>
      <trkpt lat="45.82533" lon="4.49584">
        <ele>617</ele>
        <time>2025-09-10T12:45:15Z</time>
      </trkpt>
      <trkpt lat="45.82535" lon="4.49582">
        <ele>617.2</ele>
        <time>2025-09-10T12:45:16Z</time>
      </trkpt>
      <trkpt lat="45.82537" lon="4.49581">
        <ele>617.2</ele>
        <time>2025-09-10T12:45:17Z</time>
      </trkpt>
      <trkpt lat="45.82539" lon="4.4958">
        <ele>617.2</ele>
        <time>2025-09-10T12:45:18Z</time>
      </trkpt>
      <trkpt lat="45.82542" lon="4.49579">
        <ele>617.2</ele>
        <time>2025-09-10T12:45:19Z</time>
      </trkpt>
      <trkpt lat="45.82544" lon="4.49578">
        <ele>617.2</ele>
        <time>2025-09-10T12:45:20Z</time>
      </trkpt>
      <trkpt lat="45.82546" lon="4.49578">
        <ele>617.4</ele>
        <time>2025-09-10T12:45:21Z</time>
      </trkpt>
      <trkpt lat="45.82549" lon="4.49577">
        <ele>617.4</ele>
        <time>2025-09-10T12:45:22Z</time>
      </trkpt>
      <trkpt lat="45.82551" lon="4.49576">
        <ele>617.4</ele>
        <time>2025-09-10T12:45:23Z</time>
      </trkpt>
      <trkpt lat="45.82553" lon="4.49575">
        <ele>617.8</ele>
        <time>2025-09-10T12:45:24Z</time>
      </trkpt>
      <trkpt lat="45.82555" lon="4.49575">
        <ele>617.8</ele>
        <time>2025-09-10T12:45:25Z</time>
      </trkpt>
      <trkpt lat="45.82557" lon="4.49574">
        <ele>617.8</ele>
        <time>2025-09-10T12:45:26Z</time>
      </trkpt>
      <trkpt lat="45.82558" lon="4.49573">
        <ele>618</ele>
        <time>2025-09-10T12:45:27Z</time>
      </trkpt>
      <trkpt lat="45.8256" lon="4.49572">
        <ele>618</ele>
        <time>2025-09-10T12:45:28Z</time>
      </trkpt>
      <trkpt lat="45.82561" lon="4.4957">
        <ele>618.4</ele>
        <time>2025-09-10T12:45:29Z</time>
      </trkpt>
      <trkpt lat="45.82561" lon="4.49569">
        <ele>618.4</ele>
        <time>2025-09-10T12:45:30Z</time>
      </trkpt>
      <trkpt lat="45.82562" lon="4.49567">
        <ele>618.6</ele>
        <time>2025-09-10T12:45:31Z</time>
      </trkpt>
      <trkpt lat="45.82562" lon="4.49566">
        <ele>618.6</ele>
        <time>2025-09-10T12:45:32Z</time>
      </trkpt>
      <trkpt lat="45.82562" lon="4.49565">
        <ele>618.6</ele>
        <time>2025-09-10T12:45:33Z</time>
      </trkpt>
      <trkpt lat="45.82562" lon="4.49565">
        <ele>618.6</ele>
        <time>2025-09-10T12:45:34Z</time>
      </trkpt>
      <trkpt lat="45.82562" lon="4.49565">
        <ele>618.6</ele>
        <time>2025-09-10T12:45:35Z</time>
      </trkpt>
      <trkpt lat="45.8256" lon="4.49567">
        <ele>619</ele>
        <time>2025-09-10T12:45:48Z</time>
      </trkpt>
      <trkpt lat="45.82559" lon="4.49566">
        <ele>619</ele>
        <time>2025-09-10T12:45:49Z</time>
      </trkpt>
      <trkpt lat="45.82559" lon="4.49565">
        <ele>619</ele>
        <time>2025-09-10T12:45:50Z</time>
      </trkpt>
      <trkpt lat="45.82559" lon="4.49564">
        <ele>619</ele>
        <time>2025-09-10T12:45:51Z</time>
      </trkpt>
      <trkpt lat="45.82558" lon="4.49565">
        <ele>619</ele>
        <time>2025-09-10T12:45:52Z</time>
      </trkpt>
      <trkpt lat="45.82558" lon="4.49565">
        <ele>619</ele>
        <time>2025-09-10T12:45:53Z</time>
      </trkpt>
      <trkpt lat="45.82559" lon="4.49566">
        <ele>619.4</ele>
        <time>2025-09-10T12:45:54Z</time>
      </trkpt>
      <trkpt lat="45.82559" lon="4.49566">
        <ele>620</ele>
        <time>2025-09-10T12:49:30Z</time>
      </trkpt>
      <trkpt lat="45.8256" lon="4.49566">
        <ele>619.8</ele>
        <time>2025-09-10T12:49:31Z</time>
      </trkpt>
      <trkpt lat="45.8256" lon="4.49566">
        <ele>619.8</ele>
        <time>2025-09-10T12:49:32Z</time>
      </trkpt>
      <trkpt lat="45.8256" lon="4.49566">
        <ele>619.8</ele>
        <time>2025-09-10T12:49:33Z</time>
      </trkpt>
      <trkpt lat="45.82561" lon="4.49568">
        <ele>619</ele>
        <time>2025-09-10T12:49:42Z</time>
      </trkpt>
      <trkpt lat="45.82562" lon="4.49569">
        <ele>619.2</ele>
        <time>2025-09-10T12:49:43Z</time>
      </trkpt>
      <trkpt lat="45.82563" lon="4.4957">
        <ele>619.2</ele>
        <time>2025-09-10T12:49:44Z</time>
      </trkpt>
      <trkpt lat="45.82565" lon="4.49571">
        <ele>619.2</ele>
        <time>2025-09-10T12:49:45Z</time>
      </trkpt>
      <trkpt lat="45.82566" lon="4.49573">
        <ele>619.2</ele>
        <time>2025-09-10T12:49:46Z</time>
      </trkpt>
      <trkpt lat="45.82568" lon="4.49575">
        <ele>619.2</ele>
        <time>2025-09-10T12:49:47Z</time>
      </trkpt>
      <trkpt lat="45.8257" lon="4.49575">
        <ele>619.2</ele>
        <time>2025-09-10T12:49:48Z</time>
      </trkpt>
      <trkpt lat="45.82572" lon="4.49576">
        <ele>619.2</ele>
        <time>2025-09-10T12:49:49Z</time>
      </trkpt>
      <trkpt lat="45.82574" lon="4.49576">
        <ele>619.2</ele>
        <time>2025-09-10T12:49:50Z</time>
      </trkpt>
      <trkpt lat="45.82576" lon="4.49576">
        <ele>619.2</ele>
        <time>2025-09-10T12:49:51Z</time>
      </trkpt>
      <trkpt lat="45.82578" lon="4.49577">
        <ele>619.2</ele>
        <time>2025-09-10T12:49:52Z</time>
      </trkpt>
      <trkpt lat="45.8258" lon="4.49579">
        <ele>619.2</ele>
        <time>2025-09-10T12:49:53Z</time>
      </trkpt>
      <trkpt lat="45.82582" lon="4.49581">
        <ele>619.2</ele>
        <time>2025-09-10T12:49:54Z</time>
      </trkpt>
      <trkpt lat="45.82584" lon="4.49582">
        <ele>619.6</ele>
        <time>2025-09-10T12:49:55Z</time>
      </trkpt>
      <trkpt lat="45.82586" lon="4.49584">
        <ele>619.2</ele>
        <time>2025-09-10T12:49:56Z</time>
      </trkpt>
      <trkpt lat="45.82587" lon="4.49586">
        <ele>620</ele>
        <time>2025-09-10T12:49:57Z</time>
      </trkpt>
      <trkpt lat="45.82589" lon="4.49587">
        <ele>620.2</ele>
        <time>2025-09-10T12:49:58Z</time>
      </trkpt>
      <trkpt lat="45.82591" lon="4.49589">
        <ele>620.2</ele>
        <time>2025-09-10T12:49:59Z</time>
      </trkpt>
      <trkpt lat="45.82592" lon="4.4959">
        <ele>620.2</ele>
        <time>2025-09-10T12:50:00Z</time>
      </trkpt>
      <trkpt lat="45.82594" lon="4.49591">
        <ele>620.4</ele>
        <time>2025-09-10T12:50:01Z</time>
      </trkpt>
      <trkpt lat="45.82596" lon="4.49592">
        <ele>620.4</ele>
        <time>2025-09-10T12:50:02Z</time>
      </trkpt>
      <trkpt lat="45.82597" lon="4.49594">
        <ele>620.6</ele>
        <time>2025-09-10T12:50:03Z</time>
      </trkpt>
      <trkpt lat="45.82599" lon="4.49595">
        <ele>620.6</ele>
        <time>2025-09-10T12:50:04Z</time>
      </trkpt>
      <trkpt lat="45.82601" lon="4.49596">
        <ele>620.8</ele>
        <time>2025-09-10T12:50:05Z</time>
      </trkpt>
      <trkpt lat="45.82602" lon="4.49597">
        <ele>620.8</ele>
        <time>2025-09-10T12:50:06Z</time>
      </trkpt>
      <trkpt lat="45.82604" lon="4.49598">
        <ele>621.2</ele>
        <time>2025-09-10T12:50:07Z</time>
      </trkpt>
      <trkpt lat="45.82605" lon="4.496">
        <ele>621.4</ele>
        <time>2025-09-10T12:50:08Z</time>
      </trkpt>
      <trkpt lat="45.82606" lon="4.49601">
        <ele>621.4</ele>
        <time>2025-09-10T12:50:09Z</time>
      </trkpt>
      <trkpt lat="45.82607" lon="4.49601">
        <ele>621.6</ele>
        <time>2025-09-10T12:50:10Z</time>
      </trkpt>
      <trkpt lat="45.82608" lon="4.49602">
        <ele>621.6</ele>
        <time>2025-09-10T12:50:11Z</time>
      </trkpt>
      <trkpt lat="45.8261" lon="4.49602">
        <ele>622</ele>
        <time>2025-09-10T12:50:12Z</time>
      </trkpt>
      <trkpt lat="45.82611" lon="4.49603">
        <ele>622.2</ele>
        <time>2025-09-10T12:50:13Z</time>
      </trkpt>
      <trkpt lat="45.82612" lon="4.49603">
        <ele>622.4</ele>
        <time>2025-09-10T12:50:14Z</time>
      </trkpt>
      <trkpt lat="45.82613" lon="4.49604">
        <ele>622.4</ele>
        <time>2025-09-10T12:50:15Z</time>
      </trkpt>
      <trkpt lat="45.82614" lon="4.49605">
        <ele>622.8</ele>
        <time>2025-09-10T12:50:16Z</time>
      </trkpt>
      <trkpt lat="45.82615" lon="4.49606">
        <ele>622.8</ele>
        <time>2025-09-10T12:50:17Z</time>
      </trkpt>
      <trkpt lat="45.82616" lon="4.49606">
        <ele>623.2</ele>
        <time>2025-09-10T12:50:18Z</time>
      </trkpt>
      <trkpt lat="45.82617" lon="4.49606">
        <ele>623.4</ele>
        <time>2025-09-10T12:50:19Z</time>
      </trkpt>
      <trkpt lat="45.82619" lon="4.49605">
        <ele>623.4</ele>
        <time>2025-09-10T12:50:20Z</time>
      </trkpt>
      <trkpt lat="45.8262" lon="4.49604">
        <ele>623.4</ele>
        <time>2025-09-10T12:50:21Z</time>
      </trkpt>
      <trkpt lat="45.82621" lon="4.49602">
        <ele>623.6</ele>
        <time>2025-09-10T12:50:22Z</time>
      </trkpt>
      <trkpt lat="45.82622" lon="4.496">
        <ele>623.6</ele>
        <time>2025-09-10T12:50:23Z</time>
      </trkpt>
      <trkpt lat="45.82623" lon="4.49599">
        <ele>623.6</ele>
        <time>2025-09-10T12:50:24Z</time>
      </trkpt>
      <trkpt lat="45.82623" lon="4.49597">
        <ele>624</ele>
        <time>2025-09-10T12:50:25Z</time>
      </trkpt>
      <trkpt lat="45.82624" lon="4.49596">
        <ele>624.2</ele>
        <time>2025-09-10T12:50:26Z</time>
      </trkpt>
      <trkpt lat="45.82626" lon="4.49595">
        <ele>624</ele>
        <time>2025-09-10T12:50:27Z</time>
      </trkpt>
      <trkpt lat="45.82627" lon="4.49593">
        <ele>624.8</ele>
        <time>2025-09-10T12:50:28Z</time>
      </trkpt>
      <trkpt lat="45.82628" lon="4.49592">
        <ele>625</ele>
        <time>2025-09-10T12:50:29Z</time>
      </trkpt>
      <trkpt lat="45.82629" lon="4.4959">
        <ele>625</ele>
        <time>2025-09-10T12:50:30Z</time>
      </trkpt>
      <trkpt lat="45.82631" lon="4.49589">
        <ele>625</ele>
        <time>2025-09-10T12:50:31Z</time>
      </trkpt>
      <trkpt lat="45.82632" lon="4.49588">
        <ele>625</ele>
        <time>2025-09-10T12:50:32Z</time>
      </trkpt>
      <trkpt lat="45.82636" lon="4.49588">
        <ele>625</ele>
        <time>2025-09-10T12:50:33Z</time>
      </trkpt>
      <trkpt lat="45.82638" lon="4.49588">
        <ele>625.2</ele>
        <time>2025-09-10T12:50:34Z</time>
      </trkpt>
      <trkpt lat="45.82639" lon="4.49587">
        <ele>625.2</ele>
        <time>2025-09-10T12:50:35Z</time>
      </trkpt>
      <trkpt lat="45.8264" lon="4.49586">
        <ele>625.2</ele>
        <time>2025-09-10T12:50:36Z</time>
      </trkpt>
      <trkpt lat="45.82642" lon="4.49585">
        <ele>625.2</ele>
        <time>2025-09-10T12:50:37Z</time>
      </trkpt>
      <trkpt lat="45.82643" lon="4.49584">
        <ele>625.2</ele>
        <time>2025-09-10T12:50:38Z</time>
      </trkpt>
      <trkpt lat="45.82644" lon="4.49583">
        <ele>625.4</ele>
        <time>2025-09-10T12:50:39Z</time>
      </trkpt>
      <trkpt lat="45.82645" lon="4.49581">
        <ele>625.4</ele>
        <time>2025-09-10T12:50:40Z</time>
      </trkpt>
      <trkpt lat="45.82646" lon="4.4958">
        <ele>625.4</ele>
        <time>2025-09-10T12:50:41Z</time>
      </trkpt>
      <trkpt lat="45.82647" lon="4.49579">
        <ele>625.4</ele>
        <time>2025-09-10T12:50:42Z</time>
      </trkpt>
      <trkpt lat="45.82649" lon="4.49577">
        <ele>625.2</ele>
        <time>2025-09-10T12:50:43Z</time>
      </trkpt>
      <trkpt lat="45.82651" lon="4.49575">
        <ele>625.2</ele>
        <time>2025-09-10T12:50:44Z</time>
      </trkpt>
      <trkpt lat="45.82653" lon="4.49574">
        <ele>625.2</ele>
        <time>2025-09-10T12:50:45Z</time>
      </trkpt>
      <trkpt lat="45.82655" lon="4.49572">
        <ele>624.8</ele>
        <time>2025-09-10T12:50:46Z</time>
      </trkpt>
      <trkpt lat="45.82656" lon="4.49571">
        <ele>624.8</ele>
        <time>2025-09-10T12:50:47Z</time>
      </trkpt>
      <trkpt lat="45.82656" lon="4.49571">
        <ele>624.6</ele>
        <time>2025-09-10T12:50:48Z</time>
      </trkpt>
      <trkpt lat="45.82657" lon="4.4957">
        <ele>624.6</ele>
        <time>2025-09-10T12:50:49Z</time>
      </trkpt>
      <trkpt lat="45.82658" lon="4.4957">
        <ele>624.6</ele>
        <time>2025-09-10T12:50:50Z</time>
      </trkpt>
      <trkpt lat="45.8266" lon="4.49568">
        <ele>624.4</ele>
        <time>2025-09-10T12:50:51Z</time>
      </trkpt>
      <trkpt lat="45.82662" lon="4.49567">
        <ele>624.4</ele>
        <time>2025-09-10T12:50:52Z</time>
      </trkpt>
      <trkpt lat="45.82663" lon="4.49565">
        <ele>624.4</ele>
        <time>2025-09-10T12:50:53Z</time>
      </trkpt>
      <trkpt lat="45.82664" lon="4.49564">
        <ele>624.2</ele>
        <time>2025-09-10T12:50:54Z</time>
      </trkpt>
      <trkpt lat="45.82664" lon="4.49563">
        <ele>624.2</ele>
        <time>2025-09-10T12:50:55Z</time>
      </trkpt>
      <trkpt lat="45.82664" lon="4.49563">
        <ele>624.2</ele>
        <time>2025-09-10T12:50:56Z</time>
      </trkpt>
      <trkpt lat="45.82665" lon="4.49561">
        <ele>624.4</ele>
        <time>2025-09-10T12:51:43Z</time>
      </trkpt>
      <trkpt lat="45.82667" lon="4.49561">
        <ele>624.4</ele>
        <time>2025-09-10T12:51:44Z</time>
      </trkpt>
      <trkpt lat="45.82669" lon="4.4956">
        <ele>623</ele>
        <time>2025-09-10T12:51:45Z</time>
      </trkpt>
      <trkpt lat="45.82671" lon="4.49559">
        <ele>623.6</ele>
        <time>2025-09-10T12:51:46Z</time>
      </trkpt>
      <trkpt lat="45.82673" lon="4.49557">
        <ele>623.6</ele>
        <time>2025-09-10T12:51:47Z</time>
      </trkpt>
      <trkpt lat="45.82675" lon="4.49555">
        <ele>623.6</ele>
        <time>2025-09-10T12:51:48Z</time>
      </trkpt>
      <trkpt lat="45.82678" lon="4.49553">
        <ele>623</ele>
        <time>2025-09-10T12:51:49Z</time>
      </trkpt>
      <trkpt lat="45.82681" lon="4.4955">
        <ele>623.4</ele>
        <time>2025-09-10T12:51:50Z</time>
      </trkpt>
      <trkpt lat="45.82684" lon="4.49546">
        <ele>623.4</ele>
        <time>2025-09-10T12:51:51Z</time>
      </trkpt>
      <trkpt lat="45.82688" lon="4.49542">
        <ele>622.8</ele>
        <time>2025-09-10T12:51:52Z</time>
      </trkpt>
      <trkpt lat="45.82692" lon="4.49539">
        <ele>622</ele>
        <time>2025-09-10T12:51:53Z</time>
      </trkpt>
      <trkpt lat="45.82697" lon="4.49535">
        <ele>622</ele>
        <time>2025-09-10T12:51:54Z</time>
      </trkpt>
      <trkpt lat="45.82701" lon="4.49531">
        <ele>622.4</ele>
        <time>2025-09-10T12:51:55Z</time>
      </trkpt>
      <trkpt lat="45.82705" lon="4.49527">
        <ele>622.2</ele>
        <time>2025-09-10T12:51:56Z</time>
      </trkpt>
      <trkpt lat="45.8271" lon="4.49522">
        <ele>622.2</ele>
        <time>2025-09-10T12:51:57Z</time>
      </trkpt>
      <trkpt lat="45.82715" lon="4.49517">
        <ele>621.8</ele>
        <time>2025-09-10T12:51:58Z</time>
      </trkpt>
      <trkpt lat="45.8272" lon="4.49513">
        <ele>621.4</ele>
        <time>2025-09-10T12:51:59Z</time>
      </trkpt>
      <trkpt lat="45.82725" lon="4.49508">
        <ele>621</ele>
        <time>2025-09-10T12:52:00Z</time>
      </trkpt>
      <trkpt lat="45.82731" lon="4.49504">
        <ele>620.8</ele>
        <time>2025-09-10T12:52:01Z</time>
      </trkpt>
      <trkpt lat="45.82737" lon="4.495">
        <ele>620.6</ele>
        <time>2025-09-10T12:52:02Z</time>
      </trkpt>
      <trkpt lat="45.82744" lon="4.49496">
        <ele>620.2</ele>
        <time>2025-09-10T12:52:03Z</time>
      </trkpt>
      <trkpt lat="45.8275" lon="4.49494">
        <ele>620</ele>
        <time>2025-09-10T12:52:04Z</time>
      </trkpt>
      <trkpt lat="45.82756" lon="4.49492">
        <ele>619.8</ele>
        <time>2025-09-10T12:52:05Z</time>
      </trkpt>
      <trkpt lat="45.82762" lon="4.4949">
        <ele>619.4</ele>
        <time>2025-09-10T12:52:06Z</time>
      </trkpt>
      <trkpt lat="45.82768" lon="4.4949">
        <ele>619</ele>
        <time>2025-09-10T12:52:07Z</time>
      </trkpt>
      <trkpt lat="45.82774" lon="4.49491">
        <ele>618.6</ele>
        <time>2025-09-10T12:52:08Z</time>
      </trkpt>
      <trkpt lat="45.82779" lon="4.49491">
        <ele>618.4</ele>
        <time>2025-09-10T12:52:09Z</time>
      </trkpt>
      <trkpt lat="45.82785" lon="4.49491">
        <ele>617.8</ele>
        <time>2025-09-10T12:52:10Z</time>
      </trkpt>
      <trkpt lat="45.82791" lon="4.4949">
        <ele>617.6</ele>
        <time>2025-09-10T12:52:11Z</time>
      </trkpt>
      <trkpt lat="45.82797" lon="4.4949">
        <ele>617.2</ele>
        <time>2025-09-10T12:52:12Z</time>
      </trkpt>
      <trkpt lat="45.82803" lon="4.4949">
        <ele>616.8</ele>
        <time>2025-09-10T12:52:13Z</time>
      </trkpt>
      <trkpt lat="45.82807" lon="4.49489">
        <ele>616.4</ele>
        <time>2025-09-10T12:52:14Z</time>
      </trkpt>
      <trkpt lat="45.82813" lon="4.49489">
        <ele>616</ele>
        <time>2025-09-10T12:52:15Z</time>
      </trkpt>
      <trkpt lat="45.82818" lon="4.49488">
        <ele>616</ele>
        <time>2025-09-10T12:52:16Z</time>
      </trkpt>
      <trkpt lat="45.82823" lon="4.49486">
        <ele>615.6</ele>
        <time>2025-09-10T12:52:17Z</time>
      </trkpt>
      <trkpt lat="45.82828" lon="4.49483">
        <ele>615.4</ele>
        <time>2025-09-10T12:52:18Z</time>
      </trkpt>
      <trkpt lat="45.82832" lon="4.4948">
        <ele>615</ele>
        <time>2025-09-10T12:52:19Z</time>
      </trkpt>
      <trkpt lat="45.82836" lon="4.49477">
        <ele>614.8</ele>
        <time>2025-09-10T12:52:20Z</time>
      </trkpt>
      <trkpt lat="45.82838" lon="4.49474">
        <ele>614.8</ele>
        <time>2025-09-10T12:52:21Z</time>
      </trkpt>
      <trkpt lat="45.8284" lon="4.4947">
        <ele>614.4</ele>
        <time>2025-09-10T12:52:22Z</time>
      </trkpt>
      <trkpt lat="45.82841" lon="4.49467">
        <ele>614.4</ele>
        <time>2025-09-10T12:52:23Z</time>
      </trkpt>
      <trkpt lat="45.82842" lon="4.49467">
        <ele>614.4</ele>
        <time>2025-09-10T12:52:24Z</time>
      </trkpt>
      <trkpt lat="45.82841" lon="4.49466">
        <ele>614.4</ele>
        <time>2025-09-10T12:52:25Z</time>
      </trkpt>
      <trkpt lat="45.82842" lon="4.49467">
        <ele>614.2</ele>
        <time>2025-09-10T12:53:00Z</time>
      </trkpt>
      <trkpt lat="45.82843" lon="4.49466">
        <ele>614.2</ele>
        <time>2025-09-10T12:53:01Z</time>
      </trkpt>
      <trkpt lat="45.82845" lon="4.49466">
        <ele>614.2</ele>
        <time>2025-09-10T12:53:02Z</time>
      </trkpt>
      <trkpt lat="45.82848" lon="4.49465">
        <ele>613.8</ele>
        <time>2025-09-10T12:53:03Z</time>
      </trkpt>
      <trkpt lat="45.8285" lon="4.49463">
        <ele>613.6</ele>
        <time>2025-09-10T12:53:04Z</time>
      </trkpt>
      <trkpt lat="45.82853" lon="4.49461">
        <ele>613.4</ele>
        <time>2025-09-10T12:53:05Z</time>
      </trkpt>
      <trkpt lat="45.82856" lon="4.49458">
        <ele>613.4</ele>
        <time>2025-09-10T12:53:06Z</time>
      </trkpt>
      <trkpt lat="45.82859" lon="4.49455">
        <ele>613.4</ele>
        <time>2025-09-10T12:53:07Z</time>
      </trkpt>
      <trkpt lat="45.82862" lon="4.4945">
        <ele>613</ele>
        <time>2025-09-10T12:53:08Z</time>
      </trkpt>
      <trkpt lat="45.82866" lon="4.49446">
        <ele>613</ele>
        <time>2025-09-10T12:53:09Z</time>
      </trkpt>
      <trkpt lat="45.8287" lon="4.49442">
        <ele>612.6</ele>
        <time>2025-09-10T12:53:10Z</time>
      </trkpt>
      <trkpt lat="45.82874" lon="4.49437">
        <ele>612.6</ele>
        <time>2025-09-10T12:53:11Z</time>
      </trkpt>
      <trkpt lat="45.82878" lon="4.49431">
        <ele>612.2</ele>
        <time>2025-09-10T12:53:12Z</time>
      </trkpt>
      <trkpt lat="45.82883" lon="4.49426">
        <ele>611.4</ele>
        <time>2025-09-10T12:53:13Z</time>
      </trkpt>
      <trkpt lat="45.82888" lon="4.4942">
        <ele>611</ele>
        <time>2025-09-10T12:53:14Z</time>
      </trkpt>
      <trkpt lat="45.82893" lon="4.49413">
        <ele>610.6</ele>
        <time>2025-09-10T12:53:15Z</time>
      </trkpt>
      <trkpt lat="45.82898" lon="4.49407">
        <ele>610.4</ele>
        <time>2025-09-10T12:53:16Z</time>
      </trkpt>
      <trkpt lat="45.82904" lon="4.494">
        <ele>610</ele>
        <time>2025-09-10T12:53:17Z</time>
      </trkpt>
      <trkpt lat="45.82909" lon="4.49393">
        <ele>609.4</ele>
        <time>2025-09-10T12:53:18Z</time>
      </trkpt>
      <trkpt lat="45.82915" lon="4.49386">
        <ele>609</ele>
        <time>2025-09-10T12:53:19Z</time>
      </trkpt>
      <trkpt lat="45.82921" lon="4.49378">
        <ele>608.6</ele>
        <time>2025-09-10T12:53:20Z</time>
      </trkpt>
      <trkpt lat="45.82926" lon="4.4937">
        <ele>608.2</ele>
        <time>2025-09-10T12:53:21Z</time>
      </trkpt>
      <trkpt lat="45.82932" lon="4.49362">
        <ele>607.8</ele>
        <time>2025-09-10T12:53:22Z</time>
      </trkpt>
      <trkpt lat="45.82937" lon="4.49355">
        <ele>607.4</ele>
        <time>2025-09-10T12:53:23Z</time>
      </trkpt>
      <trkpt lat="45.82941" lon="4.49347">
        <ele>607.2</ele>
        <time>2025-09-10T12:53:24Z</time>
      </trkpt>
      <trkpt lat="45.82945" lon="4.49339">
        <ele>607</ele>
        <time>2025-09-10T12:53:25Z</time>
      </trkpt>
      <trkpt lat="45.82949" lon="4.49331">
        <ele>606.8</ele>
        <time>2025-09-10T12:53:26Z</time>
      </trkpt>
      <trkpt lat="45.82952" lon="4.49324">
        <ele>606.4</ele>
        <time>2025-09-10T12:53:27Z</time>
      </trkpt>
      <trkpt lat="45.82955" lon="4.49317">
        <ele>606</ele>
        <time>2025-09-10T12:53:28Z</time>
      </trkpt>
      <trkpt lat="45.82957" lon="4.4931">
        <ele>605.4</ele>
        <time>2025-09-10T12:53:29Z</time>
      </trkpt>
      <trkpt lat="45.82959" lon="4.49302">
        <ele>605.2</ele>
        <time>2025-09-10T12:53:30Z</time>
      </trkpt>
      <trkpt lat="45.82962" lon="4.49294">
        <ele>604.8</ele>
        <time>2025-09-10T12:53:31Z</time>
      </trkpt>
      <trkpt lat="45.82964" lon="4.49286">
        <ele>604.4</ele>
        <time>2025-09-10T12:53:32Z</time>
      </trkpt>
      <trkpt lat="45.82966" lon="4.49278">
        <ele>604.2</ele>
        <time>2025-09-10T12:53:33Z</time>
      </trkpt>
      <trkpt lat="45.82968" lon="4.49269">
        <ele>603.8</ele>
        <time>2025-09-10T12:53:34Z</time>
      </trkpt>
      <trkpt lat="45.82971" lon="4.49259">
        <ele>603.6</ele>
        <time>2025-09-10T12:53:35Z</time>
      </trkpt>
      <trkpt lat="45.82974" lon="4.4925">
        <ele>603.2</ele>
        <time>2025-09-10T12:53:36Z</time>
      </trkpt>
      <trkpt lat="45.82978" lon="4.4924">
        <ele>603</ele>
        <time>2025-09-10T12:53:37Z</time>
      </trkpt>
      <trkpt lat="45.82983" lon="4.49231">
        <ele>602.4</ele>
        <time>2025-09-10T12:53:38Z</time>
      </trkpt>
      <trkpt lat="45.82988" lon="4.49223">
        <ele>601.8</ele>
        <time>2025-09-10T12:53:39Z</time>
      </trkpt>
      <trkpt lat="45.82995" lon="4.49216">
        <ele>601.6</ele>
        <time>2025-09-10T12:53:40Z</time>
      </trkpt>
      <trkpt lat="45.83003" lon="4.49212">
        <ele>601.4</ele>
        <time>2025-09-10T12:53:41Z</time>
      </trkpt>
      <trkpt lat="45.83011" lon="4.49208">
        <ele>600.8</ele>
        <time>2025-09-10T12:53:42Z</time>
      </trkpt>
      <trkpt lat="45.83019" lon="4.49205">
        <ele>600.6</ele>
        <time>2025-09-10T12:53:43Z</time>
      </trkpt>
      <trkpt lat="45.83026" lon="4.49204">
        <ele>600.6</ele>
        <time>2025-09-10T12:53:44Z</time>
      </trkpt>
      <trkpt lat="45.83033" lon="4.49205">
        <ele>600.4</ele>
        <time>2025-09-10T12:53:45Z</time>
      </trkpt>
      <trkpt lat="45.8304" lon="4.49208">
        <ele>600.4</ele>
        <time>2025-09-10T12:53:46Z</time>
      </trkpt>
      <trkpt lat="45.83045" lon="4.49212">
        <ele>600.4</ele>
        <time>2025-09-10T12:53:47Z</time>
      </trkpt>
      <trkpt lat="45.8305" lon="4.49217">
        <ele>600.4</ele>
        <time>2025-09-10T12:53:48Z</time>
      </trkpt>
      <trkpt lat="45.83054" lon="4.49223">
        <ele>600.4</ele>
        <time>2025-09-10T12:53:49Z</time>
      </trkpt>
      <trkpt lat="45.83058" lon="4.4923">
        <ele>600.4</ele>
        <time>2025-09-10T12:53:50Z</time>
      </trkpt>
      <trkpt lat="45.83061" lon="4.49238">
        <ele>600.4</ele>
        <time>2025-09-10T12:53:51Z</time>
      </trkpt>
      <trkpt lat="45.83064" lon="4.49245">
        <ele>600.4</ele>
        <time>2025-09-10T12:53:52Z</time>
      </trkpt>
      <trkpt lat="45.83067" lon="4.49253">
        <ele>600.4</ele>
        <time>2025-09-10T12:53:53Z</time>
      </trkpt>
      <trkpt lat="45.83069" lon="4.49261">
        <ele>600.2</ele>
        <time>2025-09-10T12:53:54Z</time>
      </trkpt>
      <trkpt lat="45.83071" lon="4.49269">
        <ele>599.8</ele>
        <time>2025-09-10T12:53:55Z</time>
      </trkpt>
      <trkpt lat="45.83074" lon="4.49277">
        <ele>599.6</ele>
        <time>2025-09-10T12:53:56Z</time>
      </trkpt>
      <trkpt lat="45.83075" lon="4.49284">
        <ele>599.6</ele>
        <time>2025-09-10T12:53:57Z</time>
      </trkpt>
      <trkpt lat="45.83077" lon="4.49293">
        <ele>597.6</ele>
        <time>2025-09-10T12:53:58Z</time>
      </trkpt>
      <trkpt lat="45.83078" lon="4.49301">
        <ele>598.6</ele>
        <time>2025-09-10T12:53:59Z</time>
      </trkpt>
      <trkpt lat="45.8308" lon="4.4931">
        <ele>598.4</ele>
        <time>2025-09-10T12:54:00Z</time>
      </trkpt>
      <trkpt lat="45.83082" lon="4.49318">
        <ele>598</ele>
        <time>2025-09-10T12:54:01Z</time>
      </trkpt>
      <trkpt lat="45.83084" lon="4.49327">
        <ele>597.8</ele>
        <time>2025-09-10T12:54:02Z</time>
      </trkpt>
      <trkpt lat="45.83086" lon="4.49336">
        <ele>597.4</ele>
        <time>2025-09-10T12:54:03Z</time>
      </trkpt>
      <trkpt lat="45.83089" lon="4.49345">
        <ele>596.6</ele>
        <time>2025-09-10T12:54:04Z</time>
      </trkpt>
      <trkpt lat="45.83091" lon="4.49354">
        <ele>595.8</ele>
        <time>2025-09-10T12:54:05Z</time>
      </trkpt>
      <trkpt lat="45.83093" lon="4.49363">
        <ele>595.4</ele>
        <time>2025-09-10T12:54:06Z</time>
      </trkpt>
      <trkpt lat="45.83096" lon="4.4937">
        <ele>594.8</ele>
        <time>2025-09-10T12:54:07Z</time>
      </trkpt>
      <trkpt lat="45.831" lon="4.49375">
        <ele>594.2</ele>
        <time>2025-09-10T12:54:08Z</time>
      </trkpt>
      <trkpt lat="45.83105" lon="4.49379">
        <ele>594</ele>
        <time>2025-09-10T12:54:09Z</time>
      </trkpt>
      <trkpt lat="45.8311" lon="4.49382">
        <ele>593.6</ele>
        <time>2025-09-10T12:54:10Z</time>
      </trkpt>
      <trkpt lat="45.83116" lon="4.49381">
        <ele>593.4</ele>
        <time>2025-09-10T12:54:11Z</time>
      </trkpt>
      <trkpt lat="45.83122" lon="4.49379">
        <ele>592.8</ele>
        <time>2025-09-10T12:54:12Z</time>
      </trkpt>
      <trkpt lat="45.83128" lon="4.49374">
        <ele>592.2</ele>
        <time>2025-09-10T12:54:13Z</time>
      </trkpt>
      <trkpt lat="45.83134" lon="4.49369">
        <ele>592</ele>
        <time>2025-09-10T12:54:14Z</time>
      </trkpt>
      <trkpt lat="45.83141" lon="4.49364">
        <ele>591.4</ele>
        <time>2025-09-10T12:54:15Z</time>
      </trkpt>
      <trkpt lat="45.8315" lon="4.49359">
        <ele>590.8</ele>
        <time>2025-09-10T12:54:16Z</time>
      </trkpt>
      <trkpt lat="45.83157" lon="4.49354">
        <ele>590.6</ele>
        <time>2025-09-10T12:54:17Z</time>
      </trkpt>
      <trkpt lat="45.83164" lon="4.49347">
        <ele>590</ele>
        <time>2025-09-10T12:54:18Z</time>
      </trkpt>
      <trkpt lat="45.83172" lon="4.49341">
        <ele>589.4</ele>
        <time>2025-09-10T12:54:19Z</time>
      </trkpt>
      <trkpt lat="45.8318" lon="4.49335">
        <ele>588.8</ele>
        <time>2025-09-10T12:54:20Z</time>
      </trkpt>
      <trkpt lat="45.83188" lon="4.49328">
        <ele>588.2</ele>
        <time>2025-09-10T12:54:21Z</time>
      </trkpt>
      <trkpt lat="45.83197" lon="4.49322">
        <ele>587.4</ele>
        <time>2025-09-10T12:54:22Z</time>
      </trkpt>
      <trkpt lat="45.83204" lon="4.49316">
        <ele>587.2</ele>
        <time>2025-09-10T12:54:23Z</time>
      </trkpt>
      <trkpt lat="45.83211" lon="4.49311">
        <ele>586.6</ele>
        <time>2025-09-10T12:54:24Z</time>
      </trkpt>
      <trkpt lat="45.83217" lon="4.49308">
        <ele>586.4</ele>
        <time>2025-09-10T12:54:25Z</time>
      </trkpt>
      <trkpt lat="45.83224" lon="4.49306">
        <ele>586.4</ele>
        <time>2025-09-10T12:54:26Z</time>
      </trkpt>
      <trkpt lat="45.8323" lon="4.49309">
        <ele>586</ele>
        <time>2025-09-10T12:54:27Z</time>
      </trkpt>
      <trkpt lat="45.83235" lon="4.49315">
        <ele>585.6</ele>
        <time>2025-09-10T12:54:28Z</time>
      </trkpt>
      <trkpt lat="45.83241" lon="4.49328">
        <ele>585.6</ele>
        <time>2025-09-10T12:54:29Z</time>
      </trkpt>
      <trkpt lat="45.83242" lon="4.49336">
        <ele>585.6</ele>
        <time>2025-09-10T12:54:30Z</time>
      </trkpt>
      <trkpt lat="45.83243" lon="4.49343">
        <ele>585.4</ele>
        <time>2025-09-10T12:54:31Z</time>
      </trkpt>
      <trkpt lat="45.83242" lon="4.4935">
        <ele>585.6</ele>
        <time>2025-09-10T12:54:32Z</time>
      </trkpt>
      <trkpt lat="45.83242" lon="4.49356">
        <ele>585.6</ele>
        <time>2025-09-10T12:54:33Z</time>
      </trkpt>
      <trkpt lat="45.83242" lon="4.49363">
        <ele>585.6</ele>
        <time>2025-09-10T12:54:34Z</time>
      </trkpt>
      <trkpt lat="45.83241" lon="4.49369">
        <ele>586</ele>
        <time>2025-09-10T12:54:35Z</time>
      </trkpt>
      <trkpt lat="45.8324" lon="4.49374">
        <ele>586</ele>
        <time>2025-09-10T12:54:36Z</time>
      </trkpt>
      <trkpt lat="45.8324" lon="4.4938">
        <ele>586.4</ele>
        <time>2025-09-10T12:54:37Z</time>
      </trkpt>
      <trkpt lat="45.8324" lon="4.49384">
        <ele>586.4</ele>
        <time>2025-09-10T12:54:38Z</time>
      </trkpt>
      <trkpt lat="45.83238" lon="4.49389">
        <ele>586.8</ele>
        <time>2025-09-10T12:54:39Z</time>
      </trkpt>
      <trkpt lat="45.83237" lon="4.49394">
        <ele>587</ele>
        <time>2025-09-10T12:54:40Z</time>
      </trkpt>
      <trkpt lat="45.83237" lon="4.49394">
        <ele>587</ele>
        <time>2025-09-10T12:54:41Z</time>
      </trkpt>
      <trkpt lat="45.83236" lon="4.49398">
        <ele>587.2</ele>
        <time>2025-09-10T12:54:42Z</time>
      </trkpt>
      <trkpt lat="45.83235" lon="4.49401">
        <ele>587.2</ele>
        <time>2025-09-10T12:54:43Z</time>
      </trkpt>
      <trkpt lat="45.83234" lon="4.49405">
        <ele>587.6</ele>
        <time>2025-09-10T12:54:44Z</time>
      </trkpt>
      <trkpt lat="45.83233" lon="4.49408">
        <ele>587.6</ele>
        <time>2025-09-10T12:54:45Z</time>
      </trkpt>
      <trkpt lat="45.83232" lon="4.49411">
        <ele>588</ele>
        <time>2025-09-10T12:54:46Z</time>
      </trkpt>
      <trkpt lat="45.83231" lon="4.49414">
        <ele>588</ele>
        <time>2025-09-10T12:54:47Z</time>
      </trkpt>
      <trkpt lat="45.8323" lon="4.49417">
        <ele>588.2</ele>
        <time>2025-09-10T12:54:48Z</time>
      </trkpt>
      <trkpt lat="45.83229" lon="4.49419">
        <ele>588.2</ele>
        <time>2025-09-10T12:54:49Z</time>
      </trkpt>
      <trkpt lat="45.83229" lon="4.49422">
        <ele>588.6</ele>
        <time>2025-09-10T12:54:50Z</time>
      </trkpt>
      <trkpt lat="45.83228" lon="4.49424">
        <ele>588.6</ele>
        <time>2025-09-10T12:54:51Z</time>
      </trkpt>
      <trkpt lat="45.83228" lon="4.49426">
        <ele>588.6</ele>
        <time>2025-09-10T12:54:52Z</time>
      </trkpt>
      <trkpt lat="45.83227" lon="4.49428">
        <ele>588.8</ele>
        <time>2025-09-10T12:54:53Z</time>
      </trkpt>
      <trkpt lat="45.83227" lon="4.4943">
        <ele>588.8</ele>
        <time>2025-09-10T12:54:54Z</time>
      </trkpt>
      <trkpt lat="45.83226" lon="4.49433">
        <ele>589.4</ele>
        <time>2025-09-10T12:54:55Z</time>
      </trkpt>
      <trkpt lat="45.83226" lon="4.49435">
        <ele>589.6</ele>
        <time>2025-09-10T12:54:56Z</time>
      </trkpt>
      <trkpt lat="45.83225" lon="4.49437">
        <ele>589.6</ele>
        <time>2025-09-10T12:54:57Z</time>
      </trkpt>
      <trkpt lat="45.83223" lon="4.49439">
        <ele>589.6</ele>
        <time>2025-09-10T12:54:58Z</time>
      </trkpt>
      <trkpt lat="45.83222" lon="4.49441">
        <ele>589.6</ele>
        <time>2025-09-10T12:54:59Z</time>
      </trkpt>
      <trkpt lat="45.83222" lon="4.49443">
        <ele>590.2</ele>
        <time>2025-09-10T12:55:00Z</time>
      </trkpt>
      <trkpt lat="45.83221" lon="4.49444">
        <ele>590.6</ele>
        <time>2025-09-10T12:55:01Z</time>
      </trkpt>
      <trkpt lat="45.8322" lon="4.49446">
        <ele>591</ele>
        <time>2025-09-10T12:55:02Z</time>
      </trkpt>
      <trkpt lat="45.83219" lon="4.49448">
        <ele>591</ele>
        <time>2025-09-10T12:55:03Z</time>
      </trkpt>
      <trkpt lat="45.83219" lon="4.49449">
        <ele>590.8</ele>
        <time>2025-09-10T12:55:04Z</time>
      </trkpt>
      <trkpt lat="45.83218" lon="4.49451">
        <ele>590.8</ele>
        <time>2025-09-10T12:55:05Z</time>
      </trkpt>
      <trkpt lat="45.83217" lon="4.49453">
        <ele>590.8</ele>
        <time>2025-09-10T12:55:06Z</time>
      </trkpt>
      <trkpt lat="45.83215" lon="4.49456">
        <ele>590.8</ele>
        <time>2025-09-10T12:55:07Z</time>
      </trkpt>
      <trkpt lat="45.83214" lon="4.49458">
        <ele>590.8</ele>
        <time>2025-09-10T12:55:08Z</time>
      </trkpt>
      <trkpt lat="45.83213" lon="4.4946">
        <ele>590.8</ele>
        <time>2025-09-10T12:55:09Z</time>
      </trkpt>
      <trkpt lat="45.83212" lon="4.49462">
        <ele>591</ele>
        <time>2025-09-10T12:55:10Z</time>
      </trkpt>
      <trkpt lat="45.8321" lon="4.49463">
        <ele>591</ele>
        <time>2025-09-10T12:55:11Z</time>
      </trkpt>
      <trkpt lat="45.83208" lon="4.49465">
        <ele>591</ele>
        <time>2025-09-10T12:55:12Z</time>
      </trkpt>
      <trkpt lat="45.83207" lon="4.49467">
        <ele>591</ele>
        <time>2025-09-10T12:55:13Z</time>
      </trkpt>
      <trkpt lat="45.83206" lon="4.49469">
        <ele>591</ele>
        <time>2025-09-10T12:55:14Z</time>
      </trkpt>
      <trkpt lat="45.83205" lon="4.49472">
        <ele>591.2</ele>
        <time>2025-09-10T12:55:15Z</time>
      </trkpt>
      <trkpt lat="45.83204" lon="4.49474">
        <ele>591.2</ele>
        <time>2025-09-10T12:55:16Z</time>
      </trkpt>
      <trkpt lat="45.83204" lon="4.49476">
        <ele>591.6</ele>
        <time>2025-09-10T12:55:17Z</time>
      </trkpt>
      <trkpt lat="45.83203" lon="4.49478">
        <ele>591.6</ele>
        <time>2025-09-10T12:55:18Z</time>
      </trkpt>
      <trkpt lat="45.83202" lon="4.4948">
        <ele>591.8</ele>
        <time>2025-09-10T12:55:19Z</time>
      </trkpt>
      <trkpt lat="45.83201" lon="4.49482">
        <ele>591.8</ele>
        <time>2025-09-10T12:55:20Z</time>
      </trkpt>
      <trkpt lat="45.83201" lon="4.49485">
        <ele>591.8</ele>
        <time>2025-09-10T12:55:21Z</time>
      </trkpt>
      <trkpt lat="45.83201" lon="4.49486">
        <ele>591.8</ele>
        <time>2025-09-10T12:55:22Z</time>
      </trkpt>
      <trkpt lat="45.832" lon="4.49488">
        <ele>592</ele>
        <time>2025-09-10T12:55:23Z</time>
      </trkpt>
      <trkpt lat="45.83199" lon="4.49491">
        <ele>592</ele>
        <time>2025-09-10T12:55:24Z</time>
      </trkpt>
      <trkpt lat="45.83199" lon="4.49493">
        <ele>592.4</ele>
        <time>2025-09-10T12:55:25Z</time>
      </trkpt>
      <trkpt lat="45.83198" lon="4.49495">
        <ele>592.4</ele>
        <time>2025-09-10T12:55:26Z</time>
      </trkpt>
      <trkpt lat="45.83197" lon="4.49498">
        <ele>592.4</ele>
        <time>2025-09-10T12:55:27Z</time>
      </trkpt>
      <trkpt lat="45.83196" lon="4.495">
        <ele>592.4</ele>
        <time>2025-09-10T12:55:28Z</time>
      </trkpt>
      <trkpt lat="45.83195" lon="4.49502">
        <ele>592.4</ele>
        <time>2025-09-10T12:55:29Z</time>
      </trkpt>
      <trkpt lat="45.83194" lon="4.49505">
        <ele>592.6</ele>
        <time>2025-09-10T12:55:30Z</time>
      </trkpt>
      <trkpt lat="45.83194" lon="4.49507">
        <ele>592.6</ele>
        <time>2025-09-10T12:55:31Z</time>
      </trkpt>
      <trkpt lat="45.83194" lon="4.49509">
        <ele>592.6</ele>
        <time>2025-09-10T12:55:32Z</time>
      </trkpt>
      <trkpt lat="45.83194" lon="4.49511">
        <ele>592.6</ele>
        <time>2025-09-10T12:55:33Z</time>
      </trkpt>
      <trkpt lat="45.83194" lon="4.49512">
        <ele>592.6</ele>
        <time>2025-09-10T12:55:34Z</time>
      </trkpt>
      <trkpt lat="45.83193" lon="4.49513">
        <ele>593</ele>
        <time>2025-09-10T12:55:35Z</time>
      </trkpt>
      <trkpt lat="45.83193" lon="4.49515">
        <ele>593</ele>
        <time>2025-09-10T12:55:36Z</time>
      </trkpt>
      <trkpt lat="45.83193" lon="4.49515">
        <ele>593</ele>
        <time>2025-09-10T12:55:37Z</time>
      </trkpt>
      <trkpt lat="45.83193" lon="4.49515">
        <ele>593</ele>
        <time>2025-09-10T12:55:38Z</time>
      </trkpt>
      <trkpt lat="45.83193" lon="4.4952">
        <ele>594</ele>
        <time>2025-09-10T12:56:02Z</time>
      </trkpt>
      <trkpt lat="45.83192" lon="4.49522">
        <ele>594</ele>
        <time>2025-09-10T12:56:03Z</time>
      </trkpt>
      <trkpt lat="45.83192" lon="4.49524">
        <ele>594</ele>
        <time>2025-09-10T12:56:04Z</time>
      </trkpt>
      <trkpt lat="45.83192" lon="4.49526">
        <ele>594</ele>
        <time>2025-09-10T12:56:05Z</time>
      </trkpt>
      <trkpt lat="45.83192" lon="4.49528">
        <ele>594</ele>
        <time>2025-09-10T12:56:06Z</time>
      </trkpt>
      <trkpt lat="45.83191" lon="4.49531">
        <ele>594</ele>
        <time>2025-09-10T12:56:07Z</time>
      </trkpt>
      <trkpt lat="45.8319" lon="4.49532">
        <ele>594.2</ele>
        <time>2025-09-10T12:56:08Z</time>
      </trkpt>
      <trkpt lat="45.83189" lon="4.49535">
        <ele>594.2</ele>
        <time>2025-09-10T12:56:09Z</time>
      </trkpt>
      <trkpt lat="45.83188" lon="4.49538">
        <ele>594.4</ele>
        <time>2025-09-10T12:56:10Z</time>
      </trkpt>
      <trkpt lat="45.83187" lon="4.49541">
        <ele>594.4</ele>
        <time>2025-09-10T12:56:11Z</time>
      </trkpt>
      <trkpt lat="45.83186" lon="4.49544">
        <ele>594.4</ele>
        <time>2025-09-10T12:56:12Z</time>
      </trkpt>
      <trkpt lat="45.83185" lon="4.49547">
        <ele>594.6</ele>
        <time>2025-09-10T12:56:13Z</time>
      </trkpt>
      <trkpt lat="45.83183" lon="4.49549">
        <ele>594.6</ele>
        <time>2025-09-10T12:56:14Z</time>
      </trkpt>
      <trkpt lat="45.83182" lon="4.49551">
        <ele>595</ele>
        <time>2025-09-10T12:56:15Z</time>
      </trkpt>
      <trkpt lat="45.8318" lon="4.49553">
        <ele>595</ele>
        <time>2025-09-10T12:56:16Z</time>
      </trkpt>
      <trkpt lat="45.83179" lon="4.49555">
        <ele>595</ele>
        <time>2025-09-10T12:56:17Z</time>
      </trkpt>
      <trkpt lat="45.83178" lon="4.49557">
        <ele>595.2</ele>
        <time>2025-09-10T12:56:18Z</time>
      </trkpt>
      <trkpt lat="45.83177" lon="4.49559">
        <ele>595.2</ele>
        <time>2025-09-10T12:56:19Z</time>
      </trkpt>
      <trkpt lat="45.83176" lon="4.49561">
        <ele>595.2</ele>
        <time>2025-09-10T12:56:20Z</time>
      </trkpt>
      <trkpt lat="45.83175" lon="4.49563">
        <ele>595.2</ele>
        <time>2025-09-10T12:56:21Z</time>
      </trkpt>
      <trkpt lat="45.83173" lon="4.49564">
        <ele>595.6</ele>
        <time>2025-09-10T12:56:22Z</time>
      </trkpt>
      <trkpt lat="45.83172" lon="4.49566">
        <ele>595.6</ele>
        <time>2025-09-10T12:56:23Z</time>
      </trkpt>
      <trkpt lat="45.8317" lon="4.49568">
        <ele>595.6</ele>
        <time>2025-09-10T12:56:24Z</time>
      </trkpt>
      <trkpt lat="45.83168" lon="4.49569">
        <ele>595.8</ele>
        <time>2025-09-10T12:56:25Z</time>
      </trkpt>
      <trkpt lat="45.83167" lon="4.4957">
        <ele>595.8</ele>
        <time>2025-09-10T12:56:26Z</time>
      </trkpt>
      <trkpt lat="45.83165" lon="4.49572">
        <ele>595.8</ele>
        <time>2025-09-10T12:56:27Z</time>
      </trkpt>
      <trkpt lat="45.83164" lon="4.49573">
        <ele>596.2</ele>
        <time>2025-09-10T12:56:28Z</time>
      </trkpt>
      <trkpt lat="45.83162" lon="4.49574">
        <ele>596.2</ele>
        <time>2025-09-10T12:56:29Z</time>
      </trkpt>
      <trkpt lat="45.83161" lon="4.49576">
        <ele>596.4</ele>
        <time>2025-09-10T12:56:30Z</time>
      </trkpt>
      <trkpt lat="45.83159" lon="4.49578">
        <ele>596.4</ele>
        <time>2025-09-10T12:56:31Z</time>
      </trkpt>
      <trkpt lat="45.83158" lon="4.4958">
        <ele>596.4</ele>
        <time>2025-09-10T12:56:32Z</time>
      </trkpt>
      <trkpt lat="45.83157" lon="4.49582">
        <ele>596.4</ele>
        <time>2025-09-10T12:56:33Z</time>
      </trkpt>
      <trkpt lat="45.83156" lon="4.49584">
        <ele>596.8</ele>
        <time>2025-09-10T12:56:34Z</time>
      </trkpt>
      <trkpt lat="45.83154" lon="4.49586">
        <ele>597</ele>
        <time>2025-09-10T12:56:35Z</time>
      </trkpt>
      <trkpt lat="45.83153" lon="4.49588">
        <ele>597.2</ele>
        <time>2025-09-10T12:56:36Z</time>
      </trkpt>
      <trkpt lat="45.83151" lon="4.49589">
        <ele>597.2</ele>
        <time>2025-09-10T12:56:37Z</time>
      </trkpt>
      <trkpt lat="45.8315" lon="4.4959">
        <ele>597.6</ele>
        <time>2025-09-10T12:56:38Z</time>
      </trkpt>
      <trkpt lat="45.8315" lon="4.4959">
        <ele>597.6</ele>
        <time>2025-09-10T12:56:39Z</time>
      </trkpt>
      <trkpt lat="45.8315" lon="4.4959">
        <ele>597.6</ele>
        <time>2025-09-10T12:56:40Z</time>
      </trkpt>
      <trkpt lat="45.83146" lon="4.49598">
        <ele>598</ele>
        <time>2025-09-10T12:56:42Z</time>
      </trkpt>
      <trkpt lat="45.83145" lon="4.496">
        <ele>598.2</ele>
        <time>2025-09-10T12:56:43Z</time>
      </trkpt>
      <trkpt lat="45.83144" lon="4.49602">
        <ele>598.2</ele>
        <time>2025-09-10T12:56:44Z</time>
      </trkpt>
      <trkpt lat="45.83143" lon="4.49604">
        <ele>598.4</ele>
        <time>2025-09-10T12:56:45Z</time>
      </trkpt>
      <trkpt lat="45.83143" lon="4.49606">
        <ele>598.4</ele>
        <time>2025-09-10T12:56:46Z</time>
      </trkpt>
      <trkpt lat="45.83142" lon="4.49608">
        <ele>598.8</ele>
        <time>2025-09-10T12:56:47Z</time>
      </trkpt>
      <trkpt lat="45.83141" lon="4.4961">
        <ele>598.8</ele>
        <time>2025-09-10T12:56:48Z</time>
      </trkpt>
      <trkpt lat="45.8314" lon="4.49612">
        <ele>598.8</ele>
        <time>2025-09-10T12:56:49Z</time>
      </trkpt>
      <trkpt lat="45.83139" lon="4.49614">
        <ele>598.8</ele>
        <time>2025-09-10T12:56:50Z</time>
      </trkpt>
      <trkpt lat="45.83139" lon="4.49616">
        <ele>599</ele>
        <time>2025-09-10T12:56:51Z</time>
      </trkpt>
      <trkpt lat="45.83138" lon="4.49618">
        <ele>599</ele>
        <time>2025-09-10T12:56:52Z</time>
      </trkpt>
      <trkpt lat="45.83138" lon="4.4962">
        <ele>599</ele>
        <time>2025-09-10T12:56:53Z</time>
      </trkpt>
      <trkpt lat="45.83137" lon="4.49622">
        <ele>599.4</ele>
        <time>2025-09-10T12:56:54Z</time>
      </trkpt>
      <trkpt lat="45.83137" lon="4.49624">
        <ele>599.4</ele>
        <time>2025-09-10T12:56:55Z</time>
      </trkpt>
      <trkpt lat="45.83136" lon="4.49626">
        <ele>599.4</ele>
        <time>2025-09-10T12:56:56Z</time>
      </trkpt>
      <trkpt lat="45.83135" lon="4.49628">
        <ele>599.6</ele>
        <time>2025-09-10T12:56:57Z</time>
      </trkpt>
      <trkpt lat="45.83135" lon="4.4963">
        <ele>599.6</ele>
        <time>2025-09-10T12:56:58Z</time>
      </trkpt>
      <trkpt lat="45.83134" lon="4.49632">
        <ele>599.8</ele>
        <time>2025-09-10T12:56:59Z</time>
      </trkpt>
      <trkpt lat="45.83133" lon="4.49634">
        <ele>599.8</ele>
        <time>2025-09-10T12:57:00Z</time>
      </trkpt>
      <trkpt lat="45.83132" lon="4.49636">
        <ele>599.8</ele>
        <time>2025-09-10T12:57:01Z</time>
      </trkpt>
      <trkpt lat="45.83132" lon="4.49639">
        <ele>599.8</ele>
        <time>2025-09-10T12:57:02Z</time>
      </trkpt>
      <trkpt lat="45.83131" lon="4.49641">
        <ele>599.8</ele>
        <time>2025-09-10T12:57:03Z</time>
      </trkpt>
      <trkpt lat="45.8313" lon="4.49643">
        <ele>599.8</ele>
        <time>2025-09-10T12:57:04Z</time>
      </trkpt>
      <trkpt lat="45.83129" lon="4.49645">
        <ele>600</ele>
        <time>2025-09-10T12:57:05Z</time>
      </trkpt>
      <trkpt lat="45.83128" lon="4.49647">
        <ele>600.4</ele>
        <time>2025-09-10T12:57:06Z</time>
      </trkpt>
      <trkpt lat="45.83128" lon="4.4965">
        <ele>600.4</ele>
        <time>2025-09-10T12:57:07Z</time>
      </trkpt>
      <trkpt lat="45.83127" lon="4.49652">
        <ele>600.4</ele>
        <time>2025-09-10T12:57:08Z</time>
      </trkpt>
      <trkpt lat="45.83126" lon="4.49654">
        <ele>600.8</ele>
        <time>2025-09-10T12:57:09Z</time>
      </trkpt>
      <trkpt lat="45.83126" lon="4.49656">
        <ele>600.8</ele>
        <time>2025-09-10T12:57:10Z</time>
      </trkpt>
      <trkpt lat="45.83125" lon="4.49658">
        <ele>601</ele>
        <time>2025-09-10T12:57:11Z</time>
      </trkpt>
      <trkpt lat="45.83124" lon="4.4966">
        <ele>601</ele>
        <time>2025-09-10T12:57:12Z</time>
      </trkpt>
      <trkpt lat="45.83123" lon="4.49662">
        <ele>601</ele>
        <time>2025-09-10T12:57:13Z</time>
      </trkpt>
      <trkpt lat="45.83123" lon="4.49664">
        <ele>601.2</ele>
        <time>2025-09-10T12:57:14Z</time>
      </trkpt>
      <trkpt lat="45.83122" lon="4.49667">
        <ele>601.2</ele>
        <time>2025-09-10T12:57:15Z</time>
      </trkpt>
      <trkpt lat="45.83122" lon="4.49669">
        <ele>601.2</ele>
        <time>2025-09-10T12:57:16Z</time>
      </trkpt>
      <trkpt lat="45.83121" lon="4.49671">
        <ele>601.2</ele>
        <time>2025-09-10T12:57:17Z</time>
      </trkpt>
      <trkpt lat="45.83121" lon="4.49673">
        <ele>601.2</ele>
        <time>2025-09-10T12:57:18Z</time>
      </trkpt>
      <trkpt lat="45.8312" lon="4.49675">
        <ele>601.4</ele>
        <time>2025-09-10T12:57:19Z</time>
      </trkpt>
      <trkpt lat="45.8312" lon="4.49678">
        <ele>601.4</ele>
        <time>2025-09-10T12:57:20Z</time>
      </trkpt>
      <trkpt lat="45.83119" lon="4.4968">
        <ele>601.8</ele>
        <time>2025-09-10T12:57:21Z</time>
      </trkpt>
      <trkpt lat="45.83119" lon="4.49682">
        <ele>601.8</ele>
        <time>2025-09-10T12:57:22Z</time>
      </trkpt>
      <trkpt lat="45.83118" lon="4.49684">
        <ele>602</ele>
        <time>2025-09-10T12:57:23Z</time>
      </trkpt>
      <trkpt lat="45.83118" lon="4.49687">
        <ele>602</ele>
        <time>2025-09-10T12:57:24Z</time>
      </trkpt>
      <trkpt lat="45.83118" lon="4.49689">
        <ele>602.2</ele>
        <time>2025-09-10T12:57:25Z</time>
      </trkpt>
      <trkpt lat="45.83118" lon="4.49691">
        <ele>602.2</ele>
        <time>2025-09-10T12:57:26Z</time>
      </trkpt>
      <trkpt lat="45.83118" lon="4.49693">
        <ele>602.2</ele>
        <time>2025-09-10T12:57:27Z</time>
      </trkpt>
      <trkpt lat="45.83118" lon="4.49695">
        <ele>602.4</ele>
        <time>2025-09-10T12:57:28Z</time>
      </trkpt>
      <trkpt lat="45.83118" lon="4.49697">
        <ele>602.4</ele>
        <time>2025-09-10T12:57:29Z</time>
      </trkpt>
      <trkpt lat="45.83117" lon="4.49699">
        <ele>602.4</ele>
        <time>2025-09-10T12:57:30Z</time>
      </trkpt>
      <trkpt lat="45.83117" lon="4.49701">
        <ele>602.8</ele>
        <time>2025-09-10T12:57:31Z</time>
      </trkpt>
      <trkpt lat="45.83116" lon="4.49703">
        <ele>602.8</ele>
        <time>2025-09-10T12:57:32Z</time>
      </trkpt>
      <trkpt lat="45.83116" lon="4.49705">
        <ele>602.8</ele>
        <time>2025-09-10T12:57:33Z</time>
      </trkpt>
      <trkpt lat="45.83116" lon="4.49709">
        <ele>602.8</ele>
        <time>2025-09-10T12:57:34Z</time>
      </trkpt>
      <trkpt lat="45.83115" lon="4.49711">
        <ele>603</ele>
        <time>2025-09-10T12:57:35Z</time>
      </trkpt>
      <trkpt lat="45.83115" lon="4.49713">
        <ele>603</ele>
        <time>2025-09-10T12:57:36Z</time>
      </trkpt>
      <trkpt lat="45.83114" lon="4.49715">
        <ele>603</ele>
        <time>2025-09-10T12:57:37Z</time>
      </trkpt>
      <trkpt lat="45.83114" lon="4.49717">
        <ele>603</ele>
        <time>2025-09-10T12:57:38Z</time>
      </trkpt>
      <trkpt lat="45.83113" lon="4.49719">
        <ele>603</ele>
        <time>2025-09-10T12:57:39Z</time>
      </trkpt>
      <trkpt lat="45.83113" lon="4.4972">
        <ele>603.4</ele>
        <time>2025-09-10T12:57:40Z</time>
      </trkpt>
      <trkpt lat="45.83113" lon="4.49722">
        <ele>603.4</ele>
        <time>2025-09-10T12:57:41Z</time>
      </trkpt>
      <trkpt lat="45.83112" lon="4.49724">
        <ele>603.8</ele>
        <time>2025-09-10T12:57:42Z</time>
      </trkpt>
      <trkpt lat="45.83112" lon="4.49726">
        <ele>603.8</ele>
        <time>2025-09-10T12:57:43Z</time>
      </trkpt>
      <trkpt lat="45.83112" lon="4.49728">
        <ele>604</ele>
        <time>2025-09-10T12:57:44Z</time>
      </trkpt>
      <trkpt lat="45.83111" lon="4.49729">
        <ele>604</ele>
        <time>2025-09-10T12:57:45Z</time>
      </trkpt>
      <trkpt lat="45.83111" lon="4.49732">
        <ele>604.2</ele>
        <time>2025-09-10T12:57:46Z</time>
      </trkpt>
      <trkpt lat="45.83111" lon="4.49732">
        <ele>604.2</ele>
        <time>2025-09-10T12:57:47Z</time>
      </trkpt>
      <trkpt lat="45.83111" lon="4.49733">
        <ele>604.2</ele>
        <time>2025-09-10T12:57:48Z</time>
      </trkpt>
      <trkpt lat="45.83111" lon="4.49734">
        <ele>604.2</ele>
        <time>2025-09-10T12:57:49Z</time>
      </trkpt>
      <trkpt lat="45.83111" lon="4.49735">
        <ele>604.2</ele>
        <time>2025-09-10T12:57:50Z</time>
      </trkpt>
      <trkpt lat="45.83111" lon="4.49735">
        <ele>603.4</ele>
        <time>2025-09-10T12:57:51Z</time>
      </trkpt>
      <trkpt lat="45.83111" lon="4.49735">
        <ele>603.8</ele>
        <time>2025-09-10T12:57:52Z</time>
      </trkpt>
      <trkpt lat="45.83111" lon="4.49735">
        <ele>603.8</ele>
        <time>2025-09-10T12:57:53Z</time>
      </trkpt>
      <trkpt lat="45.83111" lon="4.49735">
        <ele>604.2</ele>
        <time>2025-09-10T12:58:12Z</time>
      </trkpt>
      <trkpt lat="45.83111" lon="4.49737">
        <ele>604.2</ele>
        <time>2025-09-10T12:58:13Z</time>
      </trkpt>
      <trkpt lat="45.83111" lon="4.49739">
        <ele>604.2</ele>
        <time>2025-09-10T12:58:14Z</time>
      </trkpt>
      <trkpt lat="45.8311" lon="4.49742">
        <ele>604.2</ele>
        <time>2025-09-10T12:58:15Z</time>
      </trkpt>
      <trkpt lat="45.8311" lon="4.49744">
        <ele>604.2</ele>
        <time>2025-09-10T12:58:16Z</time>
      </trkpt>
      <trkpt lat="45.83109" lon="4.49747">
        <ele>604.2</ele>
        <time>2025-09-10T12:58:17Z</time>
      </trkpt>
      <trkpt lat="45.83108" lon="4.4975">
        <ele>604</ele>
        <time>2025-09-10T12:58:18Z</time>
      </trkpt>
      <trkpt lat="45.83107" lon="4.49754">
        <ele>604</ele>
        <time>2025-09-10T12:58:19Z</time>
      </trkpt>
      <trkpt lat="45.83105" lon="4.49759">
        <ele>604</ele>
        <time>2025-09-10T12:58:20Z</time>
      </trkpt>
      <trkpt lat="45.83103" lon="4.49763">
        <ele>603.2</ele>
        <time>2025-09-10T12:58:21Z</time>
      </trkpt>
      <trkpt lat="45.83102" lon="4.49768">
        <ele>603.2</ele>
        <time>2025-09-10T12:58:22Z</time>
      </trkpt>
      <trkpt lat="45.831" lon="4.49774">
        <ele>603.2</ele>
        <time>2025-09-10T12:58:23Z</time>
      </trkpt>
      <trkpt lat="45.83099" lon="4.4978">
        <ele>602.8</ele>
        <time>2025-09-10T12:58:24Z</time>
      </trkpt>
      <trkpt lat="45.83096" lon="4.49786">
        <ele>601.8</ele>
        <time>2025-09-10T12:58:25Z</time>
      </trkpt>
      <trkpt lat="45.83094" lon="4.49793">
        <ele>601.8</ele>
        <time>2025-09-10T12:58:26Z</time>
      </trkpt>
      <trkpt lat="45.83091" lon="4.498">
        <ele>601.6</ele>
        <time>2025-09-10T12:58:27Z</time>
      </trkpt>
      <trkpt lat="45.83089" lon="4.49807">
        <ele>602.2</ele>
        <time>2025-09-10T12:58:28Z</time>
      </trkpt>
      <trkpt lat="45.83086" lon="4.49815">
        <ele>601.8</ele>
        <time>2025-09-10T12:58:29Z</time>
      </trkpt>
      <trkpt lat="45.83085" lon="4.49822">
        <ele>601.6</ele>
        <time>2025-09-10T12:58:30Z</time>
      </trkpt>
      <trkpt lat="45.83083" lon="4.49831">
        <ele>601.6</ele>
        <time>2025-09-10T12:58:31Z</time>
      </trkpt>
      <trkpt lat="45.83082" lon="4.49841">
        <ele>601.2</ele>
        <time>2025-09-10T12:58:32Z</time>
      </trkpt>
      <trkpt lat="45.8308" lon="4.49851">
        <ele>600.6</ele>
        <time>2025-09-10T12:58:33Z</time>
      </trkpt>
      <trkpt lat="45.83078" lon="4.49861">
        <ele>600.4</ele>
        <time>2025-09-10T12:58:34Z</time>
      </trkpt>
      <trkpt lat="45.83076" lon="4.4987">
        <ele>600</ele>
        <time>2025-09-10T12:58:35Z</time>
      </trkpt>
      <trkpt lat="45.83074" lon="4.4988">
        <ele>599.6</ele>
        <time>2025-09-10T12:58:36Z</time>
      </trkpt>
      <trkpt lat="45.83073" lon="4.49892">
        <ele>599.2</ele>
        <time>2025-09-10T12:58:37Z</time>
      </trkpt>
      <trkpt lat="45.83072" lon="4.49902">
        <ele>599</ele>
        <time>2025-09-10T12:58:38Z</time>
      </trkpt>
      <trkpt lat="45.83072" lon="4.49914">
        <ele>598.6</ele>
        <time>2025-09-10T12:58:39Z</time>
      </trkpt>
      <trkpt lat="45.83071" lon="4.49925">
        <ele>598.4</ele>
        <time>2025-09-10T12:58:40Z</time>
      </trkpt>
      <trkpt lat="45.83071" lon="4.49937">
        <ele>597.8</ele>
        <time>2025-09-10T12:58:41Z</time>
      </trkpt>
      <trkpt lat="45.83072" lon="4.49948">
        <ele>597.4</ele>
        <time>2025-09-10T12:58:42Z</time>
      </trkpt>
      <trkpt lat="45.83073" lon="4.49961">
        <ele>596.8</ele>
        <time>2025-09-10T12:58:43Z</time>
      </trkpt>
      <trkpt lat="45.83075" lon="4.49972">
        <ele>596.8</ele>
        <time>2025-09-10T12:58:44Z</time>
      </trkpt>
      <trkpt lat="45.83076" lon="4.49984">
        <ele>596.2</ele>
        <time>2025-09-10T12:58:45Z</time>
      </trkpt>
      <trkpt lat="45.83078" lon="4.49997">
        <ele>595.6</ele>
        <time>2025-09-10T12:58:46Z</time>
      </trkpt>
      <trkpt lat="45.83079" lon="4.5001">
        <ele>595.2</ele>
        <time>2025-09-10T12:58:47Z</time>
      </trkpt>
      <trkpt lat="45.83082" lon="4.50023">
        <ele>594.4</ele>
        <time>2025-09-10T12:58:48Z</time>
      </trkpt>
      <trkpt lat="45.83083" lon="4.50037">
        <ele>593.8</ele>
        <time>2025-09-10T12:58:49Z</time>
      </trkpt>
      <trkpt lat="45.83084" lon="4.5005">
        <ele>593.4</ele>
        <time>2025-09-10T12:58:50Z</time>
      </trkpt>
      <trkpt lat="45.83085" lon="4.50065">
        <ele>593</ele>
        <time>2025-09-10T12:58:51Z</time>
      </trkpt>
      <trkpt lat="45.83085" lon="4.50079">
        <ele>592.8</ele>
        <time>2025-09-10T12:58:52Z</time>
      </trkpt>
      <trkpt lat="45.83087" lon="4.50093">
        <ele>592</ele>
        <time>2025-09-10T12:58:53Z</time>
      </trkpt>
      <trkpt lat="45.83087" lon="4.50106">
        <ele>591.6</ele>
        <time>2025-09-10T12:58:54Z</time>
      </trkpt>
      <trkpt lat="45.83088" lon="4.5012">
        <ele>591.2</ele>
        <time>2025-09-10T12:58:55Z</time>
      </trkpt>
      <trkpt lat="45.83089" lon="4.50135">
        <ele>590.6</ele>
        <time>2025-09-10T12:58:56Z</time>
      </trkpt>
      <trkpt lat="45.83092" lon="4.50148">
        <ele>590.2</ele>
        <time>2025-09-10T12:58:57Z</time>
      </trkpt>
      <trkpt lat="45.83095" lon="4.50162">
        <ele>589.6</ele>
        <time>2025-09-10T12:58:58Z</time>
      </trkpt>
      <trkpt lat="45.83098" lon="4.50174">
        <ele>588.8</ele>
        <time>2025-09-10T12:58:59Z</time>
      </trkpt>
      <trkpt lat="45.83101" lon="4.50188">
        <ele>588.4</ele>
        <time>2025-09-10T12:59:00Z</time>
      </trkpt>
      <trkpt lat="45.83104" lon="4.50198">
        <ele>587.8</ele>
        <time>2025-09-10T12:59:01Z</time>
      </trkpt>
      <trkpt lat="45.83108" lon="4.50209">
        <ele>587.4</ele>
        <time>2025-09-10T12:59:02Z</time>
      </trkpt>
      <trkpt lat="45.83113" lon="4.50217">
        <ele>587.4</ele>
        <time>2025-09-10T12:59:03Z</time>
      </trkpt>
      <trkpt lat="45.8312" lon="4.50223">
        <ele>586.8</ele>
        <time>2025-09-10T12:59:04Z</time>
      </trkpt>
      <trkpt lat="45.83125" lon="4.50229">
        <ele>586.2</ele>
        <time>2025-09-10T12:59:05Z</time>
      </trkpt>
      <trkpt lat="45.83135" lon="4.50228">
        <ele>585.8</ele>
        <time>2025-09-10T12:59:06Z</time>
      </trkpt>
      <trkpt lat="45.83144" lon="4.50228">
        <ele>585.2</ele>
        <time>2025-09-10T12:59:07Z</time>
      </trkpt>
      <trkpt lat="45.83153" lon="4.50228">
        <ele>584.6</ele>
        <time>2025-09-10T12:59:08Z</time>
      </trkpt>
      <trkpt lat="45.83162" lon="4.50227">
        <ele>584</ele>
        <time>2025-09-10T12:59:09Z</time>
      </trkpt>
      <trkpt lat="45.83171" lon="4.50231">
        <ele>583.6</ele>
        <time>2025-09-10T12:59:10Z</time>
      </trkpt>
      <trkpt lat="45.8318" lon="4.50235">
        <ele>582.8</ele>
        <time>2025-09-10T12:59:11Z</time>
      </trkpt>
      <trkpt lat="45.83188" lon="4.50244">
        <ele>582.6</ele>
        <time>2025-09-10T12:59:12Z</time>
      </trkpt>
      <trkpt lat="45.83196" lon="4.50253">
        <ele>582</ele>
        <time>2025-09-10T12:59:13Z</time>
      </trkpt>
      <trkpt lat="45.83204" lon="4.50265">
        <ele>581.4</ele>
        <time>2025-09-10T12:59:14Z</time>
      </trkpt>
      <trkpt lat="45.8321" lon="4.50278">
        <ele>580.6</ele>
        <time>2025-09-10T12:59:15Z</time>
      </trkpt>
      <trkpt lat="45.83216" lon="4.50291">
        <ele>580</ele>
        <time>2025-09-10T12:59:16Z</time>
      </trkpt>
      <trkpt lat="45.83222" lon="4.50302">
        <ele>579.6</ele>
        <time>2025-09-10T12:59:17Z</time>
      </trkpt>
      <trkpt lat="45.83228" lon="4.50313">
        <ele>578.8</ele>
        <time>2025-09-10T12:59:18Z</time>
      </trkpt>
      <trkpt lat="45.83235" lon="4.50324">
        <ele>578.2</ele>
        <time>2025-09-10T12:59:19Z</time>
      </trkpt>
      <trkpt lat="45.83242" lon="4.50334">
        <ele>577.6</ele>
        <time>2025-09-10T12:59:20Z</time>
      </trkpt>
      <trkpt lat="45.83251" lon="4.50344">
        <ele>577.4</ele>
        <time>2025-09-10T12:59:21Z</time>
      </trkpt>
      <trkpt lat="45.83259" lon="4.50353">
        <ele>576.8</ele>
        <time>2025-09-10T12:59:22Z</time>
      </trkpt>
      <trkpt lat="45.83266" lon="4.50363">
        <ele>576.2</ele>
        <time>2025-09-10T12:59:23Z</time>
      </trkpt>
      <trkpt lat="45.83274" lon="4.50371">
        <ele>575.8</ele>
        <time>2025-09-10T12:59:24Z</time>
      </trkpt>
      <trkpt lat="45.83283" lon="4.5038">
        <ele>575.2</ele>
        <time>2025-09-10T12:59:25Z</time>
      </trkpt>
      <trkpt lat="45.83292" lon="4.50389">
        <ele>575</ele>
        <time>2025-09-10T12:59:26Z</time>
      </trkpt>
      <trkpt lat="45.83302" lon="4.50397">
        <ele>574.6</ele>
        <time>2025-09-10T12:59:27Z</time>
      </trkpt>
      <trkpt lat="45.8331" lon="4.50406">
        <ele>574</ele>
        <time>2025-09-10T12:59:28Z</time>
      </trkpt>
      <trkpt lat="45.83319" lon="4.50412">
        <ele>573.4</ele>
        <time>2025-09-10T12:59:29Z</time>
      </trkpt>
      <trkpt lat="45.83328" lon="4.50418">
        <ele>572.8</ele>
        <time>2025-09-10T12:59:30Z</time>
      </trkpt>
      <trkpt lat="45.83338" lon="4.50423">
        <ele>571.2</ele>
        <time>2025-09-10T12:59:31Z</time>
      </trkpt>
      <trkpt lat="45.83348" lon="4.50429">
        <ele>571</ele>
        <time>2025-09-10T12:59:32Z</time>
      </trkpt>
      <trkpt lat="45.83358" lon="4.50434">
        <ele>570.4</ele>
        <time>2025-09-10T12:59:33Z</time>
      </trkpt>
      <trkpt lat="45.83368" lon="4.50438">
        <ele>570.2</ele>
        <time>2025-09-10T12:59:34Z</time>
      </trkpt>
      <trkpt lat="45.83378" lon="4.50443">
        <ele>569.8</ele>
        <time>2025-09-10T12:59:35Z</time>
      </trkpt>
      <trkpt lat="45.83388" lon="4.50447">
        <ele>569.8</ele>
        <time>2025-09-10T12:59:36Z</time>
      </trkpt>
      <trkpt lat="45.83397" lon="4.50452">
        <ele>569.4</ele>
        <time>2025-09-10T12:59:37Z</time>
      </trkpt>
      <trkpt lat="45.83407" lon="4.5046">
        <ele>568.8</ele>
        <time>2025-09-10T12:59:38Z</time>
      </trkpt>
      <trkpt lat="45.83416" lon="4.50468">
        <ele>568.2</ele>
        <time>2025-09-10T12:59:39Z</time>
      </trkpt>
      <trkpt lat="45.83424" lon="4.50477">
        <ele>567.6</ele>
        <time>2025-09-10T12:59:40Z</time>
      </trkpt>
      <trkpt lat="45.83432" lon="4.50487">
        <ele>567</ele>
        <time>2025-09-10T12:59:41Z</time>
      </trkpt>
      <trkpt lat="45.8344" lon="4.50499">
        <ele>566</ele>
        <time>2025-09-10T12:59:42Z</time>
      </trkpt>
      <trkpt lat="45.83448" lon="4.5051">
        <ele>565.2</ele>
        <time>2025-09-10T12:59:43Z</time>
      </trkpt>
      <trkpt lat="45.83453" lon="4.50524">
        <ele>564.8</ele>
        <time>2025-09-10T12:59:44Z</time>
      </trkpt>
      <trkpt lat="45.83459" lon="4.50537">
        <ele>564.2</ele>
        <time>2025-09-10T12:59:45Z</time>
      </trkpt>
      <trkpt lat="45.83464" lon="4.5055">
        <ele>563.6</ele>
        <time>2025-09-10T12:59:46Z</time>
      </trkpt>
      <trkpt lat="45.8347" lon="4.50563">
        <ele>562.8</ele>
        <time>2025-09-10T12:59:47Z</time>
      </trkpt>
      <trkpt lat="45.83476" lon="4.50574">
        <ele>562.2</ele>
        <time>2025-09-10T12:59:48Z</time>
      </trkpt>
      <trkpt lat="45.83481" lon="4.50585">
        <ele>561.6</ele>
        <time>2025-09-10T12:59:49Z</time>
      </trkpt>
      <trkpt lat="45.83488" lon="4.50595">
        <ele>561</ele>
        <time>2025-09-10T12:59:50Z</time>
      </trkpt>
      <trkpt lat="45.83493" lon="4.50605">
        <ele>560.4</ele>
        <time>2025-09-10T12:59:51Z</time>
      </trkpt>
      <trkpt lat="45.83498" lon="4.50613">
        <ele>560</ele>
        <time>2025-09-10T12:59:52Z</time>
      </trkpt>
      <trkpt lat="45.83504" lon="4.5062">
        <ele>559.4</ele>
        <time>2025-09-10T12:59:53Z</time>
      </trkpt>
      <trkpt lat="45.83509" lon="4.50625">
        <ele>559.2</ele>
        <time>2025-09-10T12:59:54Z</time>
      </trkpt>
      <trkpt lat="45.83515" lon="4.50628">
        <ele>558.6</ele>
        <time>2025-09-10T12:59:55Z</time>
      </trkpt>
      <trkpt lat="45.8352" lon="4.50627">
        <ele>558.2</ele>
        <time>2025-09-10T12:59:56Z</time>
      </trkpt>
      <trkpt lat="45.83526" lon="4.50624">
        <ele>557.6</ele>
        <time>2025-09-10T12:59:57Z</time>
      </trkpt>
      <trkpt lat="45.83532" lon="4.50619">
        <ele>557.4</ele>
        <time>2025-09-10T12:59:58Z</time>
      </trkpt>
      <trkpt lat="45.83536" lon="4.50611">
        <ele>557</ele>
        <time>2025-09-10T12:59:59Z</time>
      </trkpt>
      <trkpt lat="45.83541" lon="4.50603">
        <ele>556.4</ele>
        <time>2025-09-10T13:00:00Z</time>
      </trkpt>
      <trkpt lat="45.83546" lon="4.50594">
        <ele>555.8</ele>
        <time>2025-09-10T13:00:01Z</time>
      </trkpt>
      <trkpt lat="45.8355" lon="4.50586">
        <ele>555.4</ele>
        <time>2025-09-10T13:00:02Z</time>
      </trkpt>
      <trkpt lat="45.83556" lon="4.50579">
        <ele>554.8</ele>
        <time>2025-09-10T13:00:03Z</time>
      </trkpt>
      <trkpt lat="45.83564" lon="4.50573">
        <ele>554.2</ele>
        <time>2025-09-10T13:00:04Z</time>
      </trkpt>
      <trkpt lat="45.83573" lon="4.5057">
        <ele>553.8</ele>
        <time>2025-09-10T13:00:05Z</time>
      </trkpt>
      <trkpt lat="45.83582" lon="4.50569">
        <ele>553</ele>
        <time>2025-09-10T13:00:06Z</time>
      </trkpt>
      <trkpt lat="45.83592" lon="4.50571">
        <ele>552.8</ele>
        <time>2025-09-10T13:00:07Z</time>
      </trkpt>
      <trkpt lat="45.83602" lon="4.50573">
        <ele>552.2</ele>
        <time>2025-09-10T13:00:08Z</time>
      </trkpt>
      <trkpt lat="45.8361" lon="4.50578">
        <ele>551.8</ele>
        <time>2025-09-10T13:00:09Z</time>
      </trkpt>
      <trkpt lat="45.83619" lon="4.50585">
        <ele>551.2</ele>
        <time>2025-09-10T13:00:10Z</time>
      </trkpt>
      <trkpt lat="45.83626" lon="4.50593">
        <ele>550.8</ele>
        <time>2025-09-10T13:00:11Z</time>
      </trkpt>
      <trkpt lat="45.83633" lon="4.50603">
        <ele>550.2</ele>
        <time>2025-09-10T13:00:12Z</time>
      </trkpt>
      <trkpt lat="45.83638" lon="4.50613">
        <ele>550</ele>
        <time>2025-09-10T13:00:13Z</time>
      </trkpt>
      <trkpt lat="45.83644" lon="4.50623">
        <ele>549.4</ele>
        <time>2025-09-10T13:00:14Z</time>
      </trkpt>
      <trkpt lat="45.8365" lon="4.50634">
        <ele>549</ele>
        <time>2025-09-10T13:00:15Z</time>
      </trkpt>
      <trkpt lat="45.83656" lon="4.50645">
        <ele>548.4</ele>
        <time>2025-09-10T13:00:16Z</time>
      </trkpt>
      <trkpt lat="45.83663" lon="4.50655">
        <ele>548</ele>
        <time>2025-09-10T13:00:17Z</time>
      </trkpt>
      <trkpt lat="45.83669" lon="4.50665">
        <ele>547.4</ele>
        <time>2025-09-10T13:00:18Z</time>
      </trkpt>
      <trkpt lat="45.83676" lon="4.50675">
        <ele>547</ele>
        <time>2025-09-10T13:00:19Z</time>
      </trkpt>
      <trkpt lat="45.83683" lon="4.50684">
        <ele>546.4</ele>
        <time>2025-09-10T13:00:20Z</time>
      </trkpt>
      <trkpt lat="45.83689" lon="4.50693">
        <ele>546</ele>
        <time>2025-09-10T13:00:21Z</time>
      </trkpt>
      <trkpt lat="45.83695" lon="4.50701">
        <ele>545.8</ele>
        <time>2025-09-10T13:00:22Z</time>
      </trkpt>
      <trkpt lat="45.83701" lon="4.50709">
        <ele>545.2</ele>
        <time>2025-09-10T13:00:23Z</time>
      </trkpt>
      <trkpt lat="45.83707" lon="4.50715">
        <ele>544.8</ele>
        <time>2025-09-10T13:00:24Z</time>
      </trkpt>
      <trkpt lat="45.83711" lon="4.50721">
        <ele>544.4</ele>
        <time>2025-09-10T13:00:25Z</time>
      </trkpt>
      <trkpt lat="45.83714" lon="4.50725">
        <ele>544</ele>
        <time>2025-09-10T13:00:26Z</time>
      </trkpt>
      <trkpt lat="45.83716" lon="4.50727">
        <ele>543.8</ele>
        <time>2025-09-10T13:00:27Z</time>
      </trkpt>
      <trkpt lat="45.83717" lon="4.50729">
        <ele>543.6</ele>
        <time>2025-09-10T13:00:28Z</time>
      </trkpt>
      <trkpt lat="45.83718" lon="4.5073">
        <ele>543.2</ele>
        <time>2025-09-10T13:00:29Z</time>
      </trkpt>
      <trkpt lat="45.83718" lon="4.5073">
        <ele>543.2</ele>
        <time>2025-09-10T13:00:30Z</time>
      </trkpt>
      <trkpt lat="45.83718" lon="4.5073">
        <ele>543.2</ele>
        <time>2025-09-10T13:00:31Z</time>
      </trkpt>
      <trkpt lat="45.83718" lon="4.5073">
        <ele>543</ele>
        <time>2025-09-10T13:00:32Z</time>
      </trkpt>
      <trkpt lat="45.83719" lon="4.50732">
        <ele>543</ele>
        <time>2025-09-10T13:00:33Z</time>
      </trkpt>
      <trkpt lat="45.8372" lon="4.50732">
        <ele>543</ele>
        <time>2025-09-10T13:00:34Z</time>
      </trkpt>
      <trkpt lat="45.8372" lon="4.50733">
        <ele>543</ele>
        <time>2025-09-10T13:00:35Z</time>
      </trkpt>
      <trkpt lat="45.8372" lon="4.50733">
        <ele>543</ele>
        <time>2025-09-10T13:00:36Z</time>
      </trkpt>
      <trkpt lat="45.83721" lon="4.50734">
        <ele>542.4</ele>
        <time>2025-09-10T13:00:49Z</time>
      </trkpt>
      <trkpt lat="45.83723" lon="4.50735">
        <ele>542.4</ele>
        <time>2025-09-10T13:00:50Z</time>
      </trkpt>
      <trkpt lat="45.83724" lon="4.50736">
        <ele>542.4</ele>
        <time>2025-09-10T13:00:51Z</time>
      </trkpt>
      <trkpt lat="45.83726" lon="4.50737">
        <ele>542.2</ele>
        <time>2025-09-10T13:00:52Z</time>
      </trkpt>
      <trkpt lat="45.83728" lon="4.50739">
        <ele>542.2</ele>
        <time>2025-09-10T13:00:53Z</time>
      </trkpt>
      <trkpt lat="45.83731" lon="4.5074">
        <ele>542.2</ele>
        <time>2025-09-10T13:00:54Z</time>
      </trkpt>
      <trkpt lat="45.83734" lon="4.50742">
        <ele>542.2</ele>
        <time>2025-09-10T13:00:55Z</time>
      </trkpt>
      <trkpt lat="45.83737" lon="4.50744">
        <ele>542.2</ele>
        <time>2025-09-10T13:00:56Z</time>
      </trkpt>
      <trkpt lat="45.83741" lon="4.50746">
        <ele>541.8</ele>
        <time>2025-09-10T13:00:57Z</time>
      </trkpt>
      <trkpt lat="45.83745" lon="4.50748">
        <ele>541.8</ele>
        <time>2025-09-10T13:00:58Z</time>
      </trkpt>
      <trkpt lat="45.83749" lon="4.5075">
        <ele>541.8</ele>
        <time>2025-09-10T13:00:59Z</time>
      </trkpt>
      <trkpt lat="45.83753" lon="4.50752">
        <ele>541.2</ele>
        <time>2025-09-10T13:01:00Z</time>
      </trkpt>
      <trkpt lat="45.83757" lon="4.50754">
        <ele>540.8</ele>
        <time>2025-09-10T13:01:01Z</time>
      </trkpt>
      <trkpt lat="45.8376" lon="4.50757">
        <ele>540.8</ele>
        <time>2025-09-10T13:01:02Z</time>
      </trkpt>
      <trkpt lat="45.83763" lon="4.5076">
        <ele>540.4</ele>
        <time>2025-09-10T13:01:03Z</time>
      </trkpt>
      <trkpt lat="45.83767" lon="4.50763">
        <ele>540</ele>
        <time>2025-09-10T13:01:04Z</time>
      </trkpt>
      <trkpt lat="45.8377" lon="4.50768">
        <ele>539.8</ele>
        <time>2025-09-10T13:01:05Z</time>
      </trkpt>
      <trkpt lat="45.83773" lon="4.50773">
        <ele>539.8</ele>
        <time>2025-09-10T13:01:06Z</time>
      </trkpt>
      <trkpt lat="45.83775" lon="4.50778">
        <ele>539.2</ele>
        <time>2025-09-10T13:01:07Z</time>
      </trkpt>
      <trkpt lat="45.83777" lon="4.50784">
        <ele>539.2</ele>
        <time>2025-09-10T13:01:08Z</time>
      </trkpt>
      <trkpt lat="45.83779" lon="4.5079">
        <ele>539</ele>
        <time>2025-09-10T13:01:09Z</time>
      </trkpt>
      <trkpt lat="45.83782" lon="4.50797">
        <ele>538.6</ele>
        <time>2025-09-10T13:01:10Z</time>
      </trkpt>
      <trkpt lat="45.83784" lon="4.50804">
        <ele>538.6</ele>
        <time>2025-09-10T13:01:11Z</time>
      </trkpt>
      <trkpt lat="45.83788" lon="4.50818">
        <ele>538</ele>
        <time>2025-09-10T13:01:12Z</time>
      </trkpt>
      <trkpt lat="45.83789" lon="4.50825">
        <ele>537.8</ele>
        <time>2025-09-10T13:01:13Z</time>
      </trkpt>
      <trkpt lat="45.83792" lon="4.50831">
        <ele>537.8</ele>
        <time>2025-09-10T13:01:14Z</time>
      </trkpt>
      <trkpt lat="45.83794" lon="4.50838">
        <ele>537.2</ele>
        <time>2025-09-10T13:01:15Z</time>
      </trkpt>
      <trkpt lat="45.83796" lon="4.50843">
        <ele>536.8</ele>
        <time>2025-09-10T13:01:16Z</time>
      </trkpt>
      <trkpt lat="45.83797" lon="4.50848">
        <ele>536.6</ele>
        <time>2025-09-10T13:01:17Z</time>
      </trkpt>
      <trkpt lat="45.838" lon="4.50854">
        <ele>536.4</ele>
        <time>2025-09-10T13:01:18Z</time>
      </trkpt>
      <trkpt lat="45.83801" lon="4.50859">
        <ele>536.2</ele>
        <time>2025-09-10T13:01:19Z</time>
      </trkpt>
      <trkpt lat="45.83802" lon="4.50863">
        <ele>535.8</ele>
        <time>2025-09-10T13:01:20Z</time>
      </trkpt>
      <trkpt lat="45.83803" lon="4.50867">
        <ele>535.8</ele>
        <time>2025-09-10T13:01:21Z</time>
      </trkpt>
      <trkpt lat="45.83804" lon="4.5087">
        <ele>535.6</ele>
        <time>2025-09-10T13:01:22Z</time>
      </trkpt>
      <trkpt lat="45.83806" lon="4.50872">
        <ele>535.2</ele>
        <time>2025-09-10T13:01:23Z</time>
      </trkpt>
      <trkpt lat="45.83806" lon="4.50876">
        <ele>535</ele>
        <time>2025-09-10T13:01:24Z</time>
      </trkpt>
      <trkpt lat="45.83808" lon="4.50879">
        <ele>534.8</ele>
        <time>2025-09-10T13:01:25Z</time>
      </trkpt>
      <trkpt lat="45.83808" lon="4.50881">
        <ele>534.8</ele>
        <time>2025-09-10T13:01:26Z</time>
      </trkpt>
      <trkpt lat="45.83808" lon="4.50881">
        <ele>534.4</ele>
        <time>2025-09-10T13:01:27Z</time>
      </trkpt>
      <trkpt lat="45.83809" lon="4.50883">
        <ele>534.4</ele>
        <time>2025-09-10T13:01:28Z</time>
      </trkpt>
      <trkpt lat="45.83809" lon="4.50886">
        <ele>534</ele>
        <time>2025-09-10T13:01:29Z</time>
      </trkpt>
      <trkpt lat="45.83809" lon="4.50888">
        <ele>534</ele>
        <time>2025-09-10T13:01:30Z</time>
      </trkpt>
      <trkpt lat="45.83809" lon="4.50889">
        <ele>534</ele>
        <time>2025-09-10T13:01:31Z</time>
      </trkpt>
      <trkpt lat="45.83809" lon="4.50888">
        <ele>534</ele>
        <time>2025-09-10T13:01:32Z</time>
      </trkpt>
      <trkpt lat="45.83811" lon="4.50887">
        <ele>533.4</ele>
        <time>2025-09-10T13:01:41Z</time>
      </trkpt>
      <trkpt lat="45.83812" lon="4.50889">
        <ele>533.4</ele>
        <time>2025-09-10T13:01:42Z</time>
      </trkpt>
      <trkpt lat="45.83814" lon="4.50891">
        <ele>533.4</ele>
        <time>2025-09-10T13:01:43Z</time>
      </trkpt>
      <trkpt lat="45.83815" lon="4.50893">
        <ele>533.4</ele>
        <time>2025-09-10T13:01:44Z</time>
      </trkpt>
      <trkpt lat="45.83816" lon="4.50896">
        <ele>533.4</ele>
        <time>2025-09-10T13:01:45Z</time>
      </trkpt>
      <trkpt lat="45.83817" lon="4.50899">
        <ele>533.4</ele>
        <time>2025-09-10T13:01:46Z</time>
      </trkpt>
      <trkpt lat="45.83818" lon="4.50903">
        <ele>533.4</ele>
        <time>2025-09-10T13:01:47Z</time>
      </trkpt>
      <trkpt lat="45.83819" lon="4.50907">
        <ele>533.4</ele>
        <time>2025-09-10T13:01:48Z</time>
      </trkpt>
      <trkpt lat="45.8382" lon="4.50912">
        <ele>533.4</ele>
        <time>2025-09-10T13:01:49Z</time>
      </trkpt>
      <trkpt lat="45.83822" lon="4.50915">
        <ele>533.4</ele>
        <time>2025-09-10T13:01:50Z</time>
      </trkpt>
      <trkpt lat="45.83824" lon="4.5092">
        <ele>533.4</ele>
        <time>2025-09-10T13:01:51Z</time>
      </trkpt>
      <trkpt lat="45.83825" lon="4.50924">
        <ele>533.4</ele>
        <time>2025-09-10T13:01:52Z</time>
      </trkpt>
      <trkpt lat="45.83826" lon="4.50929">
        <ele>533.2</ele>
        <time>2025-09-10T13:01:53Z</time>
      </trkpt>
      <trkpt lat="45.83828" lon="4.50933">
        <ele>533.2</ele>
        <time>2025-09-10T13:01:54Z</time>
      </trkpt>
      <trkpt lat="45.8383" lon="4.50938">
        <ele>533</ele>
        <time>2025-09-10T13:01:55Z</time>
      </trkpt>
      <trkpt lat="45.83831" lon="4.50941">
        <ele>533</ele>
        <time>2025-09-10T13:01:56Z</time>
      </trkpt>
      <trkpt lat="45.83832" lon="4.50944">
        <ele>533</ele>
        <time>2025-09-10T13:01:57Z</time>
      </trkpt>
      <trkpt lat="45.83834" lon="4.50947">
        <ele>533</ele>
        <time>2025-09-10T13:01:58Z</time>
      </trkpt>
      <trkpt lat="45.83835" lon="4.5095">
        <ele>533</ele>
        <time>2025-09-10T13:01:59Z</time>
      </trkpt>
      <trkpt lat="45.83835" lon="4.50952">
        <ele>533</ele>
        <time>2025-09-10T13:02:00Z</time>
      </trkpt>
      <trkpt lat="45.83836" lon="4.50955">
        <ele>533</ele>
        <time>2025-09-10T13:02:01Z</time>
      </trkpt>
      <trkpt lat="45.83836" lon="4.50958">
        <ele>532.6</ele>
        <time>2025-09-10T13:02:02Z</time>
      </trkpt>
      <trkpt lat="45.83837" lon="4.5096">
        <ele>532.6</ele>
        <time>2025-09-10T13:02:03Z</time>
      </trkpt>
      <trkpt lat="45.83838" lon="4.50963">
        <ele>532.6</ele>
        <time>2025-09-10T13:02:04Z</time>
      </trkpt>
      <trkpt lat="45.83839" lon="4.50966">
        <ele>532.6</ele>
        <time>2025-09-10T13:02:05Z</time>
      </trkpt>
      <trkpt lat="45.8384" lon="4.50969">
        <ele>532.4</ele>
        <time>2025-09-10T13:02:06Z</time>
      </trkpt>
      <trkpt lat="45.83841" lon="4.50973">
        <ele>532.4</ele>
        <time>2025-09-10T13:02:07Z</time>
      </trkpt>
      <trkpt lat="45.83842" lon="4.50977">
        <ele>532.4</ele>
        <time>2025-09-10T13:02:08Z</time>
      </trkpt>
      <trkpt lat="45.83843" lon="4.50981">
        <ele>532.4</ele>
        <time>2025-09-10T13:02:09Z</time>
      </trkpt>
      <trkpt lat="45.83844" lon="4.50985">
        <ele>531.8</ele>
        <time>2025-09-10T13:02:10Z</time>
      </trkpt>
      <trkpt lat="45.83846" lon="4.5099">
        <ele>531.8</ele>
        <time>2025-09-10T13:02:11Z</time>
      </trkpt>
      <trkpt lat="45.83848" lon="4.50994">
        <ele>531.8</ele>
        <time>2025-09-10T13:02:12Z</time>
      </trkpt>
      <trkpt lat="45.83849" lon="4.50999">
        <ele>531.6</ele>
        <time>2025-09-10T13:02:13Z</time>
      </trkpt>
      <trkpt lat="45.83851" lon="4.51005">
        <ele>531.6</ele>
        <time>2025-09-10T13:02:14Z</time>
      </trkpt>
      <trkpt lat="45.83852" lon="4.51011">
        <ele>531.4</ele>
        <time>2025-09-10T13:02:15Z</time>
      </trkpt>
      <trkpt lat="45.83852" lon="4.51017">
        <ele>531.4</ele>
        <time>2025-09-10T13:02:16Z</time>
      </trkpt>
      <trkpt lat="45.83853" lon="4.51024">
        <ele>531.2</ele>
        <time>2025-09-10T13:02:17Z</time>
      </trkpt>
      <trkpt lat="45.83855" lon="4.51031">
        <ele>531.2</ele>
        <time>2025-09-10T13:02:18Z</time>
      </trkpt>
      <trkpt lat="45.83857" lon="4.51038">
        <ele>530.8</ele>
        <time>2025-09-10T13:02:19Z</time>
      </trkpt>
      <trkpt lat="45.83858" lon="4.51045">
        <ele>530.8</ele>
        <time>2025-09-10T13:02:20Z</time>
      </trkpt>
      <trkpt lat="45.8386" lon="4.51052">
        <ele>530.6</ele>
        <time>2025-09-10T13:02:21Z</time>
      </trkpt>
      <trkpt lat="45.83862" lon="4.5106">
        <ele>530.2</ele>
        <time>2025-09-10T13:02:22Z</time>
      </trkpt>
      <trkpt lat="45.83864" lon="4.51067">
        <ele>530</ele>
        <time>2025-09-10T13:02:23Z</time>
      </trkpt>
      <trkpt lat="45.83866" lon="4.51074">
        <ele>530</ele>
        <time>2025-09-10T13:02:24Z</time>
      </trkpt>
      <trkpt lat="45.83867" lon="4.51081">
        <ele>529.6</ele>
        <time>2025-09-10T13:02:25Z</time>
      </trkpt>
      <trkpt lat="45.83868" lon="4.51087">
        <ele>529.4</ele>
        <time>2025-09-10T13:02:26Z</time>
      </trkpt>
      <trkpt lat="45.83869" lon="4.51092">
        <ele>529.4</ele>
        <time>2025-09-10T13:02:27Z</time>
      </trkpt>
      <trkpt lat="45.83871" lon="4.51097">
        <ele>529</ele>
        <time>2025-09-10T13:02:28Z</time>
      </trkpt>
      <trkpt lat="45.83872" lon="4.51101">
        <ele>529</ele>
        <time>2025-09-10T13:02:29Z</time>
      </trkpt>
      <trkpt lat="45.83874" lon="4.51104">
        <ele>528.6</ele>
        <time>2025-09-10T13:02:30Z</time>
      </trkpt>
      <trkpt lat="45.83875" lon="4.51108">
        <ele>528.6</ele>
        <time>2025-09-10T13:02:31Z</time>
      </trkpt>
      <trkpt lat="45.83877" lon="4.5111">
        <ele>528.4</ele>
        <time>2025-09-10T13:02:32Z</time>
      </trkpt>
      <trkpt lat="45.83878" lon="4.51112">
        <ele>528.4</ele>
        <time>2025-09-10T13:02:33Z</time>
      </trkpt>
      <trkpt lat="45.83879" lon="4.51112">
        <ele>528.2</ele>
        <time>2025-09-10T13:02:34Z</time>
      </trkpt>
      <trkpt lat="45.83879" lon="4.51112">
        <ele>528.2</ele>
        <time>2025-09-10T13:02:35Z</time>
      </trkpt>
      <trkpt lat="45.83879" lon="4.51112">
        <ele>528.2</ele>
        <time>2025-09-10T13:02:43Z</time>
      </trkpt>
      <trkpt lat="45.83879" lon="4.51111">
        <ele>528.2</ele>
        <time>2025-09-10T13:02:44Z</time>
      </trkpt>
      <trkpt lat="45.83879" lon="4.51111">
        <ele>528.2</ele>
        <time>2025-09-10T13:02:49Z</time>
      </trkpt>
      <trkpt lat="45.83879" lon="4.51111">
        <ele>528.2</ele>
        <time>2025-09-10T13:02:50Z</time>
      </trkpt>
      <trkpt lat="45.8388" lon="4.51134">
        <ele>527.8</ele>
        <time>2025-09-10T13:10:17Z</time>
      </trkpt>
      <trkpt lat="45.8388" lon="4.51136">
        <ele>527.8</ele>
        <time>2025-09-10T13:10:18Z</time>
      </trkpt>
      <trkpt lat="45.83881" lon="4.51139">
        <ele>527.4</ele>
        <time>2025-09-10T13:10:19Z</time>
      </trkpt>
      <trkpt lat="45.83881" lon="4.51142">
        <ele>527.2</ele>
        <time>2025-09-10T13:10:20Z</time>
      </trkpt>
      <trkpt lat="45.83882" lon="4.51146">
        <ele>527.2</ele>
        <time>2025-09-10T13:10:21Z</time>
      </trkpt>
      <trkpt lat="45.83883" lon="4.5115">
        <ele>527.2</ele>
        <time>2025-09-10T13:10:22Z</time>
      </trkpt>
      <trkpt lat="45.83884" lon="4.51154">
        <ele>527.2</ele>
        <time>2025-09-10T13:10:23Z</time>
      </trkpt>
      <trkpt lat="45.83886" lon="4.51157">
        <ele>527.2</ele>
        <time>2025-09-10T13:10:24Z</time>
      </trkpt>
      <trkpt lat="45.83887" lon="4.51161">
        <ele>527.2</ele>
        <time>2025-09-10T13:10:25Z</time>
      </trkpt>
      <trkpt lat="45.83888" lon="4.51165">
        <ele>526.6</ele>
        <time>2025-09-10T13:10:26Z</time>
      </trkpt>
      <trkpt lat="45.83888" lon="4.51169">
        <ele>526.2</ele>
        <time>2025-09-10T13:10:27Z</time>
      </trkpt>
      <trkpt lat="45.83889" lon="4.51174">
        <ele>527</ele>
        <time>2025-09-10T13:10:28Z</time>
      </trkpt>
      <trkpt lat="45.8389" lon="4.51177">
        <ele>527</ele>
        <time>2025-09-10T13:10:29Z</time>
      </trkpt>
      <trkpt lat="45.8389" lon="4.5118">
        <ele>527.4</ele>
        <time>2025-09-10T13:10:30Z</time>
      </trkpt>
      <trkpt lat="45.83891" lon="4.51183">
        <ele>527.4</ele>
        <time>2025-09-10T13:10:31Z</time>
      </trkpt>
      <trkpt lat="45.83891" lon="4.51186">
        <ele>527.4</ele>
        <time>2025-09-10T13:10:32Z</time>
      </trkpt>
      <trkpt lat="45.83891" lon="4.51189">
        <ele>527.4</ele>
        <time>2025-09-10T13:10:33Z</time>
      </trkpt>
      <trkpt lat="45.83891" lon="4.51192">
        <ele>527.4</ele>
        <time>2025-09-10T13:10:34Z</time>
      </trkpt>
      <trkpt lat="45.83891" lon="4.51194">
        <ele>527.4</ele>
        <time>2025-09-10T13:10:35Z</time>
      </trkpt>
      <trkpt lat="45.83891" lon="4.51196">
        <ele>527.6</ele>
        <time>2025-09-10T13:10:36Z</time>
      </trkpt>
      <trkpt lat="45.83892" lon="4.51198">
        <ele>527.6</ele>
        <time>2025-09-10T13:10:37Z</time>
      </trkpt>
      <trkpt lat="45.83892" lon="4.512">
        <ele>527.6</ele>
        <time>2025-09-10T13:10:38Z</time>
      </trkpt>
      <trkpt lat="45.83892" lon="4.51202">
        <ele>528</ele>
        <time>2025-09-10T13:10:39Z</time>
      </trkpt>
      <trkpt lat="45.83892" lon="4.51204">
        <ele>528</ele>
        <time>2025-09-10T13:10:40Z</time>
      </trkpt>
      <trkpt lat="45.83891" lon="4.51206">
        <ele>528.2</ele>
        <time>2025-09-10T13:10:41Z</time>
      </trkpt>
      <trkpt lat="45.83891" lon="4.51208">
        <ele>528.2</ele>
        <time>2025-09-10T13:10:42Z</time>
      </trkpt>
      <trkpt lat="45.8389" lon="4.5121">
        <ele>528.6</ele>
        <time>2025-09-10T13:10:43Z</time>
      </trkpt>
      <trkpt lat="45.83889" lon="4.51212">
        <ele>528.6</ele>
        <time>2025-09-10T13:10:44Z</time>
      </trkpt>
      <trkpt lat="45.83889" lon="4.51213">
        <ele>529</ele>
        <time>2025-09-10T13:10:45Z</time>
      </trkpt>
      <trkpt lat="45.83889" lon="4.51215">
        <ele>529</ele>
        <time>2025-09-10T13:10:46Z</time>
      </trkpt>
      <trkpt lat="45.83889" lon="4.51217">
        <ele>529.2</ele>
        <time>2025-09-10T13:10:47Z</time>
      </trkpt>
      <trkpt lat="45.83889" lon="4.51219">
        <ele>529.2</ele>
        <time>2025-09-10T13:10:48Z</time>
      </trkpt>
      <trkpt lat="45.83888" lon="4.51221">
        <ele>529.2</ele>
        <time>2025-09-10T13:10:49Z</time>
      </trkpt>
      <trkpt lat="45.83888" lon="4.51223">
        <ele>529.2</ele>
        <time>2025-09-10T13:10:50Z</time>
      </trkpt>
      <trkpt lat="45.83887" lon="4.51225">
        <ele>529.6</ele>
        <time>2025-09-10T13:10:51Z</time>
      </trkpt>
      <trkpt lat="45.83886" lon="4.51226">
        <ele>529.6</ele>
        <time>2025-09-10T13:10:52Z</time>
      </trkpt>
      <trkpt lat="45.83886" lon="4.51228">
        <ele>529.6</ele>
        <time>2025-09-10T13:10:53Z</time>
      </trkpt>
      <trkpt lat="45.83885" lon="4.5123">
        <ele>529.8</ele>
        <time>2025-09-10T13:10:54Z</time>
      </trkpt>
      <trkpt lat="45.83884" lon="4.51232">
        <ele>529.8</ele>
        <time>2025-09-10T13:10:55Z</time>
      </trkpt>
      <trkpt lat="45.83884" lon="4.51234">
        <ele>529.8</ele>
        <time>2025-09-10T13:10:56Z</time>
      </trkpt>
      <trkpt lat="45.83884" lon="4.51236">
        <ele>529.8</ele>
        <time>2025-09-10T13:10:57Z</time>
      </trkpt>
      <trkpt lat="45.83884" lon="4.51239">
        <ele>529.8</ele>
        <time>2025-09-10T13:10:58Z</time>
      </trkpt>
      <trkpt lat="45.83883" lon="4.51241">
        <ele>530</ele>
        <time>2025-09-10T13:10:59Z</time>
      </trkpt>
      <trkpt lat="45.83883" lon="4.51243">
        <ele>530</ele>
        <time>2025-09-10T13:11:00Z</time>
      </trkpt>
      <trkpt lat="45.83882" lon="4.51245">
        <ele>530.2</ele>
        <time>2025-09-10T13:11:01Z</time>
      </trkpt>
      <trkpt lat="45.83882" lon="4.51247">
        <ele>530.2</ele>
        <time>2025-09-10T13:11:02Z</time>
      </trkpt>
      <trkpt lat="45.83882" lon="4.51249">
        <ele>530.2</ele>
        <time>2025-09-10T13:11:03Z</time>
      </trkpt>
      <trkpt lat="45.83881" lon="4.51251">
        <ele>530.6</ele>
        <time>2025-09-10T13:11:04Z</time>
      </trkpt>
      <trkpt lat="45.83881" lon="4.51254">
        <ele>530.6</ele>
        <time>2025-09-10T13:11:05Z</time>
      </trkpt>
      <trkpt lat="45.8388" lon="4.51256">
        <ele>530.6</ele>
        <time>2025-09-10T13:11:06Z</time>
      </trkpt>
      <trkpt lat="45.8388" lon="4.51258">
        <ele>530.8</ele>
        <time>2025-09-10T13:11:07Z</time>
      </trkpt>
      <trkpt lat="45.83879" lon="4.5126">
        <ele>530.8</ele>
        <time>2025-09-10T13:11:08Z</time>
      </trkpt>
      <trkpt lat="45.83879" lon="4.51262">
        <ele>531.2</ele>
        <time>2025-09-10T13:11:09Z</time>
      </trkpt>
      <trkpt lat="45.83878" lon="4.51265">
        <ele>531.2</ele>
        <time>2025-09-10T13:11:10Z</time>
      </trkpt>
      <trkpt lat="45.83878" lon="4.51266">
        <ele>531.2</ele>
        <time>2025-09-10T13:11:11Z</time>
      </trkpt>
      <trkpt lat="45.83877" lon="4.51268">
        <ele>531.2</ele>
        <time>2025-09-10T13:11:12Z</time>
      </trkpt>
      <trkpt lat="45.83877" lon="4.5127">
        <ele>531.4</ele>
        <time>2025-09-10T13:11:13Z</time>
      </trkpt>
      <trkpt lat="45.83877" lon="4.51272">
        <ele>531.4</ele>
        <time>2025-09-10T13:11:14Z</time>
      </trkpt>
      <trkpt lat="45.83877" lon="4.51274">
        <ele>531.4</ele>
        <time>2025-09-10T13:11:15Z</time>
      </trkpt>
      <trkpt lat="45.83876" lon="4.51276">
        <ele>531.4</ele>
        <time>2025-09-10T13:11:16Z</time>
      </trkpt>
      <trkpt lat="45.83876" lon="4.51278">
        <ele>531.4</ele>
        <time>2025-09-10T13:11:17Z</time>
      </trkpt>
      <trkpt lat="45.83876" lon="4.5128">
        <ele>531.8</ele>
        <time>2025-09-10T13:11:18Z</time>
      </trkpt>
      <trkpt lat="45.83875" lon="4.51282">
        <ele>531.8</ele>
        <time>2025-09-10T13:11:19Z</time>
      </trkpt>
      <trkpt lat="45.83875" lon="4.51284">
        <ele>531.8</ele>
        <time>2025-09-10T13:11:20Z</time>
      </trkpt>
      <trkpt lat="45.83874" lon="4.51286">
        <ele>532</ele>
        <time>2025-09-10T13:11:21Z</time>
      </trkpt>
      <trkpt lat="45.83873" lon="4.51288">
        <ele>532</ele>
        <time>2025-09-10T13:11:22Z</time>
      </trkpt>
      <trkpt lat="45.83873" lon="4.5129">
        <ele>532.2</ele>
        <time>2025-09-10T13:11:23Z</time>
      </trkpt>
      <trkpt lat="45.83872" lon="4.51292">
        <ele>532.2</ele>
        <time>2025-09-10T13:11:24Z</time>
      </trkpt>
      <trkpt lat="45.83872" lon="4.51293">
        <ele>532.6</ele>
        <time>2025-09-10T13:11:25Z</time>
      </trkpt>
      <trkpt lat="45.83871" lon="4.51295">
        <ele>532.8</ele>
        <time>2025-09-10T13:11:26Z</time>
      </trkpt>
      <trkpt lat="45.83871" lon="4.51297">
        <ele>532.8</ele>
        <time>2025-09-10T13:11:27Z</time>
      </trkpt>
      <trkpt lat="45.8387" lon="4.51298">
        <ele>533.2</ele>
        <time>2025-09-10T13:11:28Z</time>
      </trkpt>
      <trkpt lat="45.8387" lon="4.513">
        <ele>533.2</ele>
        <time>2025-09-10T13:11:29Z</time>
      </trkpt>
      <trkpt lat="45.8387" lon="4.51301">
        <ele>533.2</ele>
        <time>2025-09-10T13:11:30Z</time>
      </trkpt>
      <trkpt lat="45.83869" lon="4.51302">
        <ele>533.4</ele>
        <time>2025-09-10T13:11:31Z</time>
      </trkpt>
      <trkpt lat="45.83868" lon="4.51304">
        <ele>533.4</ele>
        <time>2025-09-10T13:11:32Z</time>
      </trkpt>
      <trkpt lat="45.83868" lon="4.51305">
        <ele>533.4</ele>
        <time>2025-09-10T13:11:33Z</time>
      </trkpt>
      <trkpt lat="45.83867" lon="4.51306">
        <ele>533.8</ele>
        <time>2025-09-10T13:11:34Z</time>
      </trkpt>
      <trkpt lat="45.83867" lon="4.51308">
        <ele>533.8</ele>
        <time>2025-09-10T13:11:35Z</time>
      </trkpt>
      <trkpt lat="45.83866" lon="4.51309">
        <ele>534</ele>
        <time>2025-09-10T13:11:36Z</time>
      </trkpt>
      <trkpt lat="45.83866" lon="4.5131">
        <ele>534.4</ele>
        <time>2025-09-10T13:11:37Z</time>
      </trkpt>
      <trkpt lat="45.83865" lon="4.51311">
        <ele>534.6</ele>
        <time>2025-09-10T13:11:38Z</time>
      </trkpt>
      <trkpt lat="45.83865" lon="4.51312">
        <ele>534.6</ele>
        <time>2025-09-10T13:11:39Z</time>
      </trkpt>
      <trkpt lat="45.83864" lon="4.51313">
        <ele>535</ele>
        <time>2025-09-10T13:11:40Z</time>
      </trkpt>
      <trkpt lat="45.83864" lon="4.51315">
        <ele>535</ele>
        <time>2025-09-10T13:11:41Z</time>
      </trkpt>
      <trkpt lat="45.83864" lon="4.51317">
        <ele>535</ele>
        <time>2025-09-10T13:11:42Z</time>
      </trkpt>
      <trkpt lat="45.83864" lon="4.51319">
        <ele>535.4</ele>
        <time>2025-09-10T13:11:43Z</time>
      </trkpt>
      <trkpt lat="45.83864" lon="4.5132">
        <ele>535.4</ele>
        <time>2025-09-10T13:11:44Z</time>
      </trkpt>
      <trkpt lat="45.83864" lon="4.51321">
        <ele>535.8</ele>
        <time>2025-09-10T13:11:45Z</time>
      </trkpt>
      <trkpt lat="45.83864" lon="4.51322">
        <ele>536</ele>
        <time>2025-09-10T13:11:46Z</time>
      </trkpt>
      <trkpt lat="45.83863" lon="4.51322">
        <ele>536</ele>
        <time>2025-09-10T13:11:47Z</time>
      </trkpt>
      <trkpt lat="45.83863" lon="4.51323">
        <ele>536.4</ele>
        <time>2025-09-10T13:11:48Z</time>
      </trkpt>
      <trkpt lat="45.83863" lon="4.51325">
        <ele>536.6</ele>
        <time>2025-09-10T13:11:49Z</time>
      </trkpt>
      <trkpt lat="45.83863" lon="4.51326">
        <ele>536.6</ele>
        <time>2025-09-10T13:11:50Z</time>
      </trkpt>
      <trkpt lat="45.83862" lon="4.51328">
        <ele>536.8</ele>
        <time>2025-09-10T13:11:51Z</time>
      </trkpt>
      <trkpt lat="45.83861" lon="4.51329">
        <ele>536.8</ele>
        <time>2025-09-10T13:11:52Z</time>
      </trkpt>
      <trkpt lat="45.8386" lon="4.51331">
        <ele>537</ele>
        <time>2025-09-10T13:11:53Z</time>
      </trkpt>
      <trkpt lat="45.8386" lon="4.51333">
        <ele>537</ele>
        <time>2025-09-10T13:11:54Z</time>
      </trkpt>
      <trkpt lat="45.8386" lon="4.51334">
        <ele>537</ele>
        <time>2025-09-10T13:11:55Z</time>
      </trkpt>
      <trkpt lat="45.8386" lon="4.51335">
        <ele>537.4</ele>
        <time>2025-09-10T13:11:56Z</time>
      </trkpt>
      <trkpt lat="45.8386" lon="4.51337">
        <ele>537.8</ele>
        <time>2025-09-10T13:11:57Z</time>
      </trkpt>
      <trkpt lat="45.83861" lon="4.51339">
        <ele>537.8</ele>
        <time>2025-09-10T13:11:58Z</time>
      </trkpt>
      <trkpt lat="45.83861" lon="4.5134">
        <ele>537.8</ele>
        <time>2025-09-10T13:11:59Z</time>
      </trkpt>
      <trkpt lat="45.8386" lon="4.51342">
        <ele>537.8</ele>
        <time>2025-09-10T13:12:00Z</time>
      </trkpt>
      <trkpt lat="45.8386" lon="4.51343">
        <ele>538</ele>
        <time>2025-09-10T13:12:01Z</time>
      </trkpt>
      <trkpt lat="45.8386" lon="4.51345">
        <ele>538</ele>
        <time>2025-09-10T13:12:02Z</time>
      </trkpt>
      <trkpt lat="45.83861" lon="4.51346">
        <ele>538</ele>
        <time>2025-09-10T13:12:03Z</time>
      </trkpt>
      <trkpt lat="45.83861" lon="4.51348">
        <ele>538</ele>
        <time>2025-09-10T13:12:04Z</time>
      </trkpt>
      <trkpt lat="45.83862" lon="4.51348">
        <ele>538.2</ele>
        <time>2025-09-10T13:12:05Z</time>
      </trkpt>
      <trkpt lat="45.83863" lon="4.5135">
        <ele>538.4</ele>
        <time>2025-09-10T13:12:08Z</time>
      </trkpt>
      <trkpt lat="45.83863" lon="4.51352">
        <ele>538.4</ele>
        <time>2025-09-10T13:12:09Z</time>
      </trkpt>
      <trkpt lat="45.83862" lon="4.51356">
        <ele>538</ele>
        <time>2025-09-10T13:12:10Z</time>
      </trkpt>
      <trkpt lat="45.8386" lon="4.51361">
        <ele>537.6</ele>
        <time>2025-09-10T13:12:11Z</time>
      </trkpt>
      <trkpt lat="45.83858" lon="4.51367">
        <ele>537.6</ele>
        <time>2025-09-10T13:12:12Z</time>
      </trkpt>
      <trkpt lat="45.83856" lon="4.51372">
        <ele>537.2</ele>
        <time>2025-09-10T13:12:13Z</time>
      </trkpt>
      <trkpt lat="45.83854" lon="4.51378">
        <ele>536.6</ele>
        <time>2025-09-10T13:12:14Z</time>
      </trkpt>
      <trkpt lat="45.83852" lon="4.51384">
        <ele>535.8</ele>
        <time>2025-09-10T13:12:15Z</time>
      </trkpt>
      <trkpt lat="45.8385" lon="4.5139">
        <ele>535.2</ele>
        <time>2025-09-10T13:12:16Z</time>
      </trkpt>
      <trkpt lat="45.83848" lon="4.51398">
        <ele>534.4</ele>
        <time>2025-09-10T13:12:17Z</time>
      </trkpt>
      <trkpt lat="45.83845" lon="4.51404">
        <ele>533.4</ele>
        <time>2025-09-10T13:12:18Z</time>
      </trkpt>
      <trkpt lat="45.83843" lon="4.5141">
        <ele>532.8</ele>
        <time>2025-09-10T13:12:19Z</time>
      </trkpt>
      <trkpt lat="45.83841" lon="4.51416">
        <ele>532</ele>
        <time>2025-09-10T13:12:20Z</time>
      </trkpt>
      <trkpt lat="45.83839" lon="4.51422">
        <ele>531</ele>
        <time>2025-09-10T13:12:21Z</time>
      </trkpt>
      <trkpt lat="45.83837" lon="4.51428">
        <ele>530.2</ele>
        <time>2025-09-10T13:12:22Z</time>
      </trkpt>
      <trkpt lat="45.83835" lon="4.51433">
        <ele>529.4</ele>
        <time>2025-09-10T13:12:23Z</time>
      </trkpt>
      <trkpt lat="45.83834" lon="4.51438">
        <ele>528.6</ele>
        <time>2025-09-10T13:12:24Z</time>
      </trkpt>
      <trkpt lat="45.83833" lon="4.51444">
        <ele>528</ele>
        <time>2025-09-10T13:12:25Z</time>
      </trkpt>
      <trkpt lat="45.83831" lon="4.51451">
        <ele>527.2</ele>
        <time>2025-09-10T13:12:26Z</time>
      </trkpt>
      <trkpt lat="45.83831" lon="4.51459">
        <ele>526.4</ele>
        <time>2025-09-10T13:12:27Z</time>
      </trkpt>
      <trkpt lat="45.83831" lon="4.51467">
        <ele>525.6</ele>
        <time>2025-09-10T13:12:28Z</time>
      </trkpt>
      <trkpt lat="45.83832" lon="4.51473">
        <ele>525.4</ele>
        <time>2025-09-10T13:12:29Z</time>
      </trkpt>
      <trkpt lat="45.83833" lon="4.51477">
        <ele>525</ele>
        <time>2025-09-10T13:12:30Z</time>
      </trkpt>
      <trkpt lat="45.83834" lon="4.5148">
        <ele>525</ele>
        <time>2025-09-10T13:12:31Z</time>
      </trkpt>
      <trkpt lat="45.83834" lon="4.51483">
        <ele>525.2</ele>
        <time>2025-09-10T13:12:32Z</time>
      </trkpt>
      <trkpt lat="45.83835" lon="4.51485">
        <ele>525.2</ele>
        <time>2025-09-10T13:12:33Z</time>
      </trkpt>
      <trkpt lat="45.83836" lon="4.51488">
        <ele>525.6</ele>
        <time>2025-09-10T13:12:34Z</time>
      </trkpt>
      <trkpt lat="45.83836" lon="4.5149">
        <ele>525.8</ele>
        <time>2025-09-10T13:12:35Z</time>
      </trkpt>
      <trkpt lat="45.83835" lon="4.51491">
        <ele>525.8</ele>
        <time>2025-09-10T13:12:36Z</time>
      </trkpt>
      <trkpt lat="45.83837" lon="4.51493">
        <ele>526.2</ele>
        <time>2025-09-10T13:12:37Z</time>
      </trkpt>
      <trkpt lat="45.83838" lon="4.51495">
        <ele>526.2</ele>
        <time>2025-09-10T13:12:38Z</time>
      </trkpt>
      <trkpt lat="45.83839" lon="4.51497">
        <ele>526.6</ele>
        <time>2025-09-10T13:12:39Z</time>
      </trkpt>
      <trkpt lat="45.83839" lon="4.51498">
        <ele>526.6</ele>
        <time>2025-09-10T13:12:40Z</time>
      </trkpt>
      <trkpt lat="45.8384" lon="4.515">
        <ele>525.8</ele>
        <time>2025-09-10T13:12:41Z</time>
      </trkpt>
      <trkpt lat="45.8384" lon="4.51502">
        <ele>526.2</ele>
        <time>2025-09-10T13:12:42Z</time>
      </trkpt>
      <trkpt lat="45.8384" lon="4.51504">
        <ele>526.6</ele>
        <time>2025-09-10T13:12:43Z</time>
      </trkpt>
      <trkpt lat="45.83841" lon="4.51506">
        <ele>527.2</ele>
        <time>2025-09-10T13:12:44Z</time>
      </trkpt>
      <trkpt lat="45.83842" lon="4.51508">
        <ele>527.4</ele>
        <time>2025-09-10T13:12:45Z</time>
      </trkpt>
      <trkpt lat="45.83843" lon="4.51509">
        <ele>527.6</ele>
        <time>2025-09-10T13:12:46Z</time>
      </trkpt>
      <trkpt lat="45.83845" lon="4.51511">
        <ele>527.6</ele>
        <time>2025-09-10T13:12:47Z</time>
      </trkpt>
      <trkpt lat="45.83845" lon="4.51513">
        <ele>528</ele>
        <time>2025-09-10T13:12:48Z</time>
      </trkpt>
      <trkpt lat="45.83846" lon="4.51514">
        <ele>528</ele>
        <time>2025-09-10T13:12:49Z</time>
      </trkpt>
      <trkpt lat="45.83847" lon="4.51516">
        <ele>528.4</ele>
        <time>2025-09-10T13:12:50Z</time>
      </trkpt>
      <trkpt lat="45.83848" lon="4.51518">
        <ele>528.6</ele>
        <time>2025-09-10T13:12:51Z</time>
      </trkpt>
      <trkpt lat="45.83849" lon="4.5152">
        <ele>528.6</ele>
        <time>2025-09-10T13:12:52Z</time>
      </trkpt>
      <trkpt lat="45.8385" lon="4.51521">
        <ele>528.8</ele>
        <time>2025-09-10T13:12:53Z</time>
      </trkpt>
      <trkpt lat="45.83851" lon="4.51523">
        <ele>528.8</ele>
        <time>2025-09-10T13:12:54Z</time>
      </trkpt>
      <trkpt lat="45.83851" lon="4.51525">
        <ele>529.2</ele>
        <time>2025-09-10T13:12:55Z</time>
      </trkpt>
      <trkpt lat="45.83852" lon="4.51527">
        <ele>529.4</ele>
        <time>2025-09-10T13:12:56Z</time>
      </trkpt>
      <trkpt lat="45.83853" lon="4.51529">
        <ele>529.4</ele>
        <time>2025-09-10T13:12:57Z</time>
      </trkpt>
      <trkpt lat="45.83854" lon="4.51531">
        <ele>529.6</ele>
        <time>2025-09-10T13:12:58Z</time>
      </trkpt>
      <trkpt lat="45.83854" lon="4.51533">
        <ele>529.6</ele>
        <time>2025-09-10T13:12:59Z</time>
      </trkpt>
      <trkpt lat="45.83855" lon="4.51534">
        <ele>529.6</ele>
        <time>2025-09-10T13:13:00Z</time>
      </trkpt>
      <trkpt lat="45.83855" lon="4.51536">
        <ele>529.6</ele>
        <time>2025-09-10T13:13:01Z</time>
      </trkpt>
      <trkpt lat="45.83855" lon="4.51538">
        <ele>529.8</ele>
        <time>2025-09-10T13:13:02Z</time>
      </trkpt>
      <trkpt lat="45.83856" lon="4.51541">
        <ele>529.8</ele>
        <time>2025-09-10T13:13:03Z</time>
      </trkpt>
      <trkpt lat="45.83857" lon="4.51543">
        <ele>529.8</ele>
        <time>2025-09-10T13:13:04Z</time>
      </trkpt>
      <trkpt lat="45.83859" lon="4.51545">
        <ele>529.8</ele>
        <time>2025-09-10T13:13:05Z</time>
      </trkpt>
      <trkpt lat="45.8386" lon="4.51547">
        <ele>529.8</ele>
        <time>2025-09-10T13:13:06Z</time>
      </trkpt>
      <trkpt lat="45.83862" lon="4.51549">
        <ele>530</ele>
        <time>2025-09-10T13:13:07Z</time>
      </trkpt>
      <trkpt lat="45.83863" lon="4.51552">
        <ele>530</ele>
        <time>2025-09-10T13:13:08Z</time>
      </trkpt>
      <trkpt lat="45.83865" lon="4.51556">
        <ele>530</ele>
        <time>2025-09-10T13:13:09Z</time>
      </trkpt>
      <trkpt lat="45.83866" lon="4.5156">
        <ele>530</ele>
        <time>2025-09-10T13:13:10Z</time>
      </trkpt>
      <trkpt lat="45.83867" lon="4.51564">
        <ele>530</ele>
        <time>2025-09-10T13:13:11Z</time>
      </trkpt>
      <trkpt lat="45.83868" lon="4.51569">
        <ele>529.8</ele>
        <time>2025-09-10T13:13:12Z</time>
      </trkpt>
      <trkpt lat="45.8387" lon="4.51574">
        <ele>529.8</ele>
        <time>2025-09-10T13:13:13Z</time>
      </trkpt>
      <trkpt lat="45.83872" lon="4.51579">
        <ele>529.8</ele>
        <time>2025-09-10T13:13:14Z</time>
      </trkpt>
      <trkpt lat="45.83876" lon="4.51585">
        <ele>529.4</ele>
        <time>2025-09-10T13:13:15Z</time>
      </trkpt>
      <trkpt lat="45.83879" lon="4.51592">
        <ele>529</ele>
        <time>2025-09-10T13:13:16Z</time>
      </trkpt>
      <trkpt lat="45.83884" lon="4.51599">
        <ele>528.6</ele>
        <time>2025-09-10T13:13:17Z</time>
      </trkpt>
      <trkpt lat="45.83886" lon="4.51606">
        <ele>528.4</ele>
        <time>2025-09-10T13:13:18Z</time>
      </trkpt>
      <trkpt lat="45.83889" lon="4.51614">
        <ele>528</ele>
        <time>2025-09-10T13:13:19Z</time>
      </trkpt>
      <trkpt lat="45.83892" lon="4.51621">
        <ele>527.6</ele>
        <time>2025-09-10T13:13:20Z</time>
      </trkpt>
      <trkpt lat="45.83896" lon="4.51629">
        <ele>527.4</ele>
        <time>2025-09-10T13:13:21Z</time>
      </trkpt>
      <trkpt lat="45.83899" lon="4.51637">
        <ele>527.2</ele>
        <time>2025-09-10T13:13:22Z</time>
      </trkpt>
      <trkpt lat="45.83901" lon="4.51644">
        <ele>527</ele>
        <time>2025-09-10T13:13:23Z</time>
      </trkpt>
      <trkpt lat="45.83903" lon="4.51651">
        <ele>526.8</ele>
        <time>2025-09-10T13:13:24Z</time>
      </trkpt>
      <trkpt lat="45.83907" lon="4.51658">
        <ele>526.4</ele>
        <time>2025-09-10T13:13:25Z</time>
      </trkpt>
      <trkpt lat="45.8391" lon="4.51664">
        <ele>526.4</ele>
        <time>2025-09-10T13:13:26Z</time>
      </trkpt>
      <trkpt lat="45.83915" lon="4.51671">
        <ele>526.2</ele>
        <time>2025-09-10T13:13:27Z</time>
      </trkpt>
      <trkpt lat="45.83921" lon="4.51676">
        <ele>526.2</ele>
        <time>2025-09-10T13:13:28Z</time>
      </trkpt>
      <trkpt lat="45.83926" lon="4.5168">
        <ele>525.8</ele>
        <time>2025-09-10T13:13:29Z</time>
      </trkpt>
      <trkpt lat="45.83932" lon="4.51684">
        <ele>525.8</ele>
        <time>2025-09-10T13:13:30Z</time>
      </trkpt>
      <trkpt lat="45.83937" lon="4.51687">
        <ele>525.8</ele>
        <time>2025-09-10T13:13:31Z</time>
      </trkpt>
      <trkpt lat="45.83942" lon="4.51689">
        <ele>525.8</ele>
        <time>2025-09-10T13:13:32Z</time>
      </trkpt>
      <trkpt lat="45.83946" lon="4.5169">
        <ele>525.8</ele>
        <time>2025-09-10T13:13:33Z</time>
      </trkpt>
      <trkpt lat="45.83951" lon="4.51691">
        <ele>525.8</ele>
        <time>2025-09-10T13:13:34Z</time>
      </trkpt>
      <trkpt lat="45.83956" lon="4.51692">
        <ele>525.8</ele>
        <time>2025-09-10T13:13:35Z</time>
      </trkpt>
      <trkpt lat="45.83959" lon="4.51692">
        <ele>525.8</ele>
        <time>2025-09-10T13:13:36Z</time>
      </trkpt>
      <trkpt lat="45.83964" lon="4.51693">
        <ele>526.2</ele>
        <time>2025-09-10T13:13:37Z</time>
      </trkpt>
      <trkpt lat="45.83968" lon="4.51693">
        <ele>526.2</ele>
        <time>2025-09-10T13:13:38Z</time>
      </trkpt>
      <trkpt lat="45.83971" lon="4.51694">
        <ele>526.4</ele>
        <time>2025-09-10T13:13:39Z</time>
      </trkpt>
      <trkpt lat="45.83973" lon="4.51694">
        <ele>526.4</ele>
        <time>2025-09-10T13:13:40Z</time>
      </trkpt>
      <trkpt lat="45.83974" lon="4.51695">
        <ele>527</ele>
        <time>2025-09-10T13:13:41Z</time>
      </trkpt>
      <trkpt lat="45.83976" lon="4.51694">
        <ele>527.2</ele>
        <time>2025-09-10T13:13:42Z</time>
      </trkpt>
      <trkpt lat="45.83977" lon="4.51693">
        <ele>527.6</ele>
        <time>2025-09-10T13:13:43Z</time>
      </trkpt>
      <trkpt lat="45.83979" lon="4.51693">
        <ele>527.8</ele>
        <time>2025-09-10T13:13:44Z</time>
      </trkpt>
      <trkpt lat="45.83981" lon="4.51693">
        <ele>528</ele>
        <time>2025-09-10T13:13:45Z</time>
      </trkpt>
      <trkpt lat="45.83982" lon="4.51695">
        <ele>528</ele>
        <time>2025-09-10T13:13:46Z</time>
      </trkpt>
      <trkpt lat="45.83983" lon="4.51696">
        <ele>528.4</ele>
        <time>2025-09-10T13:13:47Z</time>
      </trkpt>
      <trkpt lat="45.83983" lon="4.51699">
        <ele>528.6</ele>
        <time>2025-09-10T13:13:48Z</time>
      </trkpt>
      <trkpt lat="45.83982" lon="4.51702">
        <ele>528.8</ele>
        <time>2025-09-10T13:13:49Z</time>
      </trkpt>
      <trkpt lat="45.83981" lon="4.51704">
        <ele>529</ele>
        <time>2025-09-10T13:13:50Z</time>
      </trkpt>
      <trkpt lat="45.8398" lon="4.51706">
        <ele>529</ele>
        <time>2025-09-10T13:13:51Z</time>
      </trkpt>
      <trkpt lat="45.83979" lon="4.51709">
        <ele>529</ele>
        <time>2025-09-10T13:13:52Z</time>
      </trkpt>
      <trkpt lat="45.83978" lon="4.5171">
        <ele>529.4</ele>
        <time>2025-09-10T13:13:53Z</time>
      </trkpt>
      <trkpt lat="45.83977" lon="4.51713">
        <ele>529.4</ele>
        <time>2025-09-10T13:13:54Z</time>
      </trkpt>
      <trkpt lat="45.83976" lon="4.51715">
        <ele>529.4</ele>
        <time>2025-09-10T13:13:55Z</time>
      </trkpt>
      <trkpt lat="45.83976" lon="4.51717">
        <ele>529.8</ele>
        <time>2025-09-10T13:13:56Z</time>
      </trkpt>
      <trkpt lat="45.83975" lon="4.51719">
        <ele>529.8</ele>
        <time>2025-09-10T13:13:57Z</time>
      </trkpt>
      <trkpt lat="45.83974" lon="4.51721">
        <ele>529.8</ele>
        <time>2025-09-10T13:13:58Z</time>
      </trkpt>
      <trkpt lat="45.83974" lon="4.51723">
        <ele>529.8</ele>
        <time>2025-09-10T13:13:59Z</time>
      </trkpt>
      <trkpt lat="45.83973" lon="4.51725">
        <ele>530</ele>
        <time>2025-09-10T13:14:00Z</time>
      </trkpt>
      <trkpt lat="45.83973" lon="4.51727">
        <ele>530</ele>
        <time>2025-09-10T13:14:01Z</time>
      </trkpt>
      <trkpt lat="45.83973" lon="4.5173">
        <ele>530.4</ele>
        <time>2025-09-10T13:14:02Z</time>
      </trkpt>
      <trkpt lat="45.83973" lon="4.51732">
        <ele>530.4</ele>
        <time>2025-09-10T13:14:03Z</time>
      </trkpt>
      <trkpt lat="45.83974" lon="4.51735">
        <ele>530.8</ele>
        <time>2025-09-10T13:14:04Z</time>
      </trkpt>
      <trkpt lat="45.83974" lon="4.51737">
        <ele>530.8</ele>
        <time>2025-09-10T13:14:05Z</time>
      </trkpt>
      <trkpt lat="45.83973" lon="4.51739">
        <ele>531</ele>
        <time>2025-09-10T13:14:06Z</time>
      </trkpt>
      <trkpt lat="45.83973" lon="4.51741">
        <ele>531.2</ele>
        <time>2025-09-10T13:14:07Z</time>
      </trkpt>
      <trkpt lat="45.83973" lon="4.51743">
        <ele>531.2</ele>
        <time>2025-09-10T13:14:08Z</time>
      </trkpt>
      <trkpt lat="45.83972" lon="4.51745">
        <ele>531.2</ele>
        <time>2025-09-10T13:14:09Z</time>
      </trkpt>
      <trkpt lat="45.83972" lon="4.51747">
        <ele>531</ele>
        <time>2025-09-10T13:14:10Z</time>
      </trkpt>
      <trkpt lat="45.83971" lon="4.51749">
        <ele>531</ele>
        <time>2025-09-10T13:14:11Z</time>
      </trkpt>
      <trkpt lat="45.8397" lon="4.51751">
        <ele>531.8</ele>
        <time>2025-09-10T13:14:12Z</time>
      </trkpt>
      <trkpt lat="45.8397" lon="4.51752">
        <ele>531.8</ele>
        <time>2025-09-10T13:14:13Z</time>
      </trkpt>
      <trkpt lat="45.83969" lon="4.51754">
        <ele>532</ele>
        <time>2025-09-10T13:14:14Z</time>
      </trkpt>
      <trkpt lat="45.83969" lon="4.51756">
        <ele>532</ele>
        <time>2025-09-10T13:14:15Z</time>
      </trkpt>
      <trkpt lat="45.83969" lon="4.51758">
        <ele>532</ele>
        <time>2025-09-10T13:14:16Z</time>
      </trkpt>
      <trkpt lat="45.83969" lon="4.5176">
        <ele>532</ele>
        <time>2025-09-10T13:14:17Z</time>
      </trkpt>
      <trkpt lat="45.83968" lon="4.51761">
        <ele>532.2</ele>
        <time>2025-09-10T13:14:18Z</time>
      </trkpt>
      <trkpt lat="45.83968" lon="4.51763">
        <ele>532.2</ele>
        <time>2025-09-10T13:14:19Z</time>
      </trkpt>
      <trkpt lat="45.83968" lon="4.51764">
        <ele>532.2</ele>
        <time>2025-09-10T13:14:20Z</time>
      </trkpt>
      <trkpt lat="45.83967" lon="4.51766">
        <ele>532.6</ele>
        <time>2025-09-10T13:14:21Z</time>
      </trkpt>
      <trkpt lat="45.83967" lon="4.51768">
        <ele>532.6</ele>
        <time>2025-09-10T13:14:22Z</time>
      </trkpt>
      <trkpt lat="45.83967" lon="4.5177">
        <ele>532.6</ele>
        <time>2025-09-10T13:14:23Z</time>
      </trkpt>
      <trkpt lat="45.83966" lon="4.51771">
        <ele>533</ele>
        <time>2025-09-10T13:14:24Z</time>
      </trkpt>
      <trkpt lat="45.83966" lon="4.51773">
        <ele>533</ele>
        <time>2025-09-10T13:14:25Z</time>
      </trkpt>
      <trkpt lat="45.83966" lon="4.51775">
        <ele>533</ele>
        <time>2025-09-10T13:14:26Z</time>
      </trkpt>
      <trkpt lat="45.83965" lon="4.51776">
        <ele>533.4</ele>
        <time>2025-09-10T13:14:27Z</time>
      </trkpt>
      <trkpt lat="45.83965" lon="4.51778">
        <ele>533.4</ele>
        <time>2025-09-10T13:14:28Z</time>
      </trkpt>
      <trkpt lat="45.83964" lon="4.5178">
        <ele>533.6</ele>
        <time>2025-09-10T13:14:29Z</time>
      </trkpt>
      <trkpt lat="45.83964" lon="4.51782">
        <ele>533.6</ele>
        <time>2025-09-10T13:14:30Z</time>
      </trkpt>
      <trkpt lat="45.83963" lon="4.51784">
        <ele>534</ele>
        <time>2025-09-10T13:14:31Z</time>
      </trkpt>
      <trkpt lat="45.83963" lon="4.51785">
        <ele>534.2</ele>
        <time>2025-09-10T13:14:32Z</time>
      </trkpt>
      <trkpt lat="45.83962" lon="4.51787">
        <ele>534.2</ele>
        <time>2025-09-10T13:14:33Z</time>
      </trkpt>
      <trkpt lat="45.83962" lon="4.51788">
        <ele>534.4</ele>
        <time>2025-09-10T13:14:34Z</time>
      </trkpt>
      <trkpt lat="45.83962" lon="4.5179">
        <ele>534.4</ele>
        <time>2025-09-10T13:14:35Z</time>
      </trkpt>
      <trkpt lat="45.83961" lon="4.51791">
        <ele>534.6</ele>
        <time>2025-09-10T13:14:36Z</time>
      </trkpt>
      <trkpt lat="45.83961" lon="4.51793">
        <ele>535</ele>
        <time>2025-09-10T13:14:37Z</time>
      </trkpt>
      <trkpt lat="45.83961" lon="4.51794">
        <ele>535</ele>
        <time>2025-09-10T13:14:38Z</time>
      </trkpt>
      <trkpt lat="45.83961" lon="4.51796">
        <ele>535</ele>
        <time>2025-09-10T13:14:39Z</time>
      </trkpt>
      <trkpt lat="45.8396" lon="4.51797">
        <ele>535.2</ele>
        <time>2025-09-10T13:14:40Z</time>
      </trkpt>
      <trkpt lat="45.8396" lon="4.51799">
        <ele>535.2</ele>
        <time>2025-09-10T13:14:41Z</time>
      </trkpt>
      <trkpt lat="45.83959" lon="4.51801">
        <ele>534.6</ele>
        <time>2025-09-10T13:14:42Z</time>
      </trkpt>
      <trkpt lat="45.83958" lon="4.51803">
        <ele>534.6</ele>
        <time>2025-09-10T13:14:43Z</time>
      </trkpt>
      <trkpt lat="45.83958" lon="4.51805">
        <ele>535</ele>
        <time>2025-09-10T13:14:44Z</time>
      </trkpt>
      <trkpt lat="45.83957" lon="4.51806">
        <ele>535.4</ele>
        <time>2025-09-10T13:14:45Z</time>
      </trkpt>
      <trkpt lat="45.83957" lon="4.51808">
        <ele>535.4</ele>
        <time>2025-09-10T13:14:46Z</time>
      </trkpt>
      <trkpt lat="45.83956" lon="4.5181">
        <ele>535.6</ele>
        <time>2025-09-10T13:14:47Z</time>
      </trkpt>
      <trkpt lat="45.83955" lon="4.51812">
        <ele>535.6</ele>
        <time>2025-09-10T13:14:48Z</time>
      </trkpt>
      <trkpt lat="45.83954" lon="4.51814">
        <ele>535.6</ele>
        <time>2025-09-10T13:14:49Z</time>
      </trkpt>
      <trkpt lat="45.83954" lon="4.51816">
        <ele>536</ele>
        <time>2025-09-10T13:14:50Z</time>
      </trkpt>
      <trkpt lat="45.83954" lon="4.51818">
        <ele>536</ele>
        <time>2025-09-10T13:14:51Z</time>
      </trkpt>
      <trkpt lat="45.83954" lon="4.5182">
        <ele>536.2</ele>
        <time>2025-09-10T13:14:52Z</time>
      </trkpt>
      <trkpt lat="45.83953" lon="4.51821">
        <ele>536.2</ele>
        <time>2025-09-10T13:14:53Z</time>
      </trkpt>
      <trkpt lat="45.83952" lon="4.51823">
        <ele>536.2</ele>
        <time>2025-09-10T13:14:54Z</time>
      </trkpt>
      <trkpt lat="45.83951" lon="4.51825">
        <ele>536.4</ele>
        <time>2025-09-10T13:14:55Z</time>
      </trkpt>
      <trkpt lat="45.8395" lon="4.51828">
        <ele>536.4</ele>
        <time>2025-09-10T13:14:56Z</time>
      </trkpt>
      <trkpt lat="45.83949" lon="4.5183">
        <ele>536.4</ele>
        <time>2025-09-10T13:14:57Z</time>
      </trkpt>
      <trkpt lat="45.83949" lon="4.51833">
        <ele>536.4</ele>
        <time>2025-09-10T13:14:58Z</time>
      </trkpt>
      <trkpt lat="45.83948" lon="4.51836">
        <ele>536.4</ele>
        <time>2025-09-10T13:14:59Z</time>
      </trkpt>
      <trkpt lat="45.83947" lon="4.5184">
        <ele>536.4</ele>
        <time>2025-09-10T13:15:00Z</time>
      </trkpt>
      <trkpt lat="45.83945" lon="4.51843">
        <ele>536.2</ele>
        <time>2025-09-10T13:15:01Z</time>
      </trkpt>
      <trkpt lat="45.83944" lon="4.51847">
        <ele>536.2</ele>
        <time>2025-09-10T13:15:02Z</time>
      </trkpt>
      <trkpt lat="45.83942" lon="4.51852">
        <ele>536</ele>
        <time>2025-09-10T13:15:03Z</time>
      </trkpt>
      <trkpt lat="45.83941" lon="4.51857">
        <ele>536</ele>
        <time>2025-09-10T13:15:04Z</time>
      </trkpt>
      <trkpt lat="45.83938" lon="4.51862">
        <ele>536</ele>
        <time>2025-09-10T13:15:05Z</time>
      </trkpt>
      <trkpt lat="45.83936" lon="4.51867">
        <ele>535.6</ele>
        <time>2025-09-10T13:15:06Z</time>
      </trkpt>
      <trkpt lat="45.83934" lon="4.51873">
        <ele>535.6</ele>
        <time>2025-09-10T13:15:07Z</time>
      </trkpt>
      <trkpt lat="45.83932" lon="4.51879">
        <ele>535.4</ele>
        <time>2025-09-10T13:15:08Z</time>
      </trkpt>
      <trkpt lat="45.83929" lon="4.51884">
        <ele>535.4</ele>
        <time>2025-09-10T13:15:09Z</time>
      </trkpt>
      <trkpt lat="45.83926" lon="4.51889">
        <ele>535.2</ele>
        <time>2025-09-10T13:15:10Z</time>
      </trkpt>
      <trkpt lat="45.83925" lon="4.51895">
        <ele>535.2</ele>
        <time>2025-09-10T13:15:11Z</time>
      </trkpt>
      <trkpt lat="45.83923" lon="4.519">
        <ele>535.2</ele>
        <time>2025-09-10T13:15:12Z</time>
      </trkpt>
      <trkpt lat="45.83921" lon="4.51903">
        <ele>535.2</ele>
        <time>2025-09-10T13:15:13Z</time>
      </trkpt>
      <trkpt lat="45.83919" lon="4.51908">
        <ele>535.4</ele>
        <time>2025-09-10T13:15:14Z</time>
      </trkpt>
      <trkpt lat="45.83919" lon="4.51913">
        <ele>535.4</ele>
        <time>2025-09-10T13:15:15Z</time>
      </trkpt>
      <trkpt lat="45.83917" lon="4.51917">
        <ele>535.4</ele>
        <time>2025-09-10T13:15:16Z</time>
      </trkpt>
      <trkpt lat="45.83917" lon="4.51923">
        <ele>535.4</ele>
        <time>2025-09-10T13:15:17Z</time>
      </trkpt>
      <trkpt lat="45.83916" lon="4.51928">
        <ele>535.4</ele>
        <time>2025-09-10T13:15:18Z</time>
      </trkpt>
      <trkpt lat="45.83916" lon="4.51934">
        <ele>535.4</ele>
        <time>2025-09-10T13:15:19Z</time>
      </trkpt>
      <trkpt lat="45.83915" lon="4.51939">
        <ele>535.6</ele>
        <time>2025-09-10T13:15:20Z</time>
      </trkpt>
      <trkpt lat="45.83914" lon="4.51944">
        <ele>535.6</ele>
        <time>2025-09-10T13:15:21Z</time>
      </trkpt>
      <trkpt lat="45.83913" lon="4.51949">
        <ele>535.6</ele>
        <time>2025-09-10T13:15:22Z</time>
      </trkpt>
      <trkpt lat="45.83913" lon="4.51954">
        <ele>535.6</ele>
        <time>2025-09-10T13:15:23Z</time>
      </trkpt>
      <trkpt lat="45.83913" lon="4.51959">
        <ele>536</ele>
        <time>2025-09-10T13:15:24Z</time>
      </trkpt>
      <trkpt lat="45.83913" lon="4.51964">
        <ele>536.2</ele>
        <time>2025-09-10T13:15:25Z</time>
      </trkpt>
      <trkpt lat="45.83914" lon="4.51968">
        <ele>536.2</ele>
        <time>2025-09-10T13:15:26Z</time>
      </trkpt>
      <trkpt lat="45.83915" lon="4.51972">
        <ele>536.6</ele>
        <time>2025-09-10T13:15:27Z</time>
      </trkpt>
      <trkpt lat="45.83915" lon="4.51976">
        <ele>536.6</ele>
        <time>2025-09-10T13:15:28Z</time>
      </trkpt>
      <trkpt lat="45.83915" lon="4.51978">
        <ele>536.8</ele>
        <time>2025-09-10T13:15:29Z</time>
      </trkpt>
      <trkpt lat="45.83916" lon="4.51981">
        <ele>537</ele>
        <time>2025-09-10T13:15:30Z</time>
      </trkpt>
      <trkpt lat="45.83916" lon="4.51984">
        <ele>537</ele>
        <time>2025-09-10T13:15:31Z</time>
      </trkpt>
      <trkpt lat="45.83916" lon="4.51986">
        <ele>537.6</ele>
        <time>2025-09-10T13:15:32Z</time>
      </trkpt>
      <trkpt lat="45.83916" lon="4.51988">
        <ele>537.6</ele>
        <time>2025-09-10T13:15:33Z</time>
      </trkpt>
      <trkpt lat="45.83916" lon="4.5199">
        <ele>537.8</ele>
        <time>2025-09-10T13:15:34Z</time>
      </trkpt>
      <trkpt lat="45.83916" lon="4.51992">
        <ele>538.2</ele>
        <time>2025-09-10T13:15:35Z</time>
      </trkpt>
      <trkpt lat="45.83917" lon="4.51997">
        <ele>538.4</ele>
        <time>2025-09-10T13:15:36Z</time>
      </trkpt>
      <trkpt lat="45.83917" lon="4.51999">
        <ele>538.4</ele>
        <time>2025-09-10T13:15:37Z</time>
      </trkpt>
      <trkpt lat="45.83918" lon="4.52001">
        <ele>538.8</ele>
        <time>2025-09-10T13:15:38Z</time>
      </trkpt>
      <trkpt lat="45.83918" lon="4.52004">
        <ele>539</ele>
        <time>2025-09-10T13:15:39Z</time>
      </trkpt>
      <trkpt lat="45.83918" lon="4.52005">
        <ele>539</ele>
        <time>2025-09-10T13:15:40Z</time>
      </trkpt>
      <trkpt lat="45.83919" lon="4.52008">
        <ele>539.2</ele>
        <time>2025-09-10T13:15:41Z</time>
      </trkpt>
      <trkpt lat="45.83919" lon="4.5201">
        <ele>539.2</ele>
        <time>2025-09-10T13:15:42Z</time>
      </trkpt>
      <trkpt lat="45.83919" lon="4.52011">
        <ele>539.6</ele>
        <time>2025-09-10T13:15:43Z</time>
      </trkpt>
      <trkpt lat="45.83919" lon="4.52013">
        <ele>539.6</ele>
        <time>2025-09-10T13:15:44Z</time>
      </trkpt>
      <trkpt lat="45.83919" lon="4.52015">
        <ele>540.2</ele>
        <time>2025-09-10T13:15:45Z</time>
      </trkpt>
      <trkpt lat="45.83919" lon="4.52016">
        <ele>540.4</ele>
        <time>2025-09-10T13:15:46Z</time>
      </trkpt>
      <trkpt lat="45.83919" lon="4.52018">
        <ele>540.8</ele>
        <time>2025-09-10T13:15:47Z</time>
      </trkpt>
      <trkpt lat="45.83919" lon="4.52019">
        <ele>541.2</ele>
        <time>2025-09-10T13:15:48Z</time>
      </trkpt>
      <trkpt lat="45.83919" lon="4.52021">
        <ele>541.2</ele>
        <time>2025-09-10T13:15:49Z</time>
      </trkpt>
      <trkpt lat="45.83919" lon="4.52022">
        <ele>541.4</ele>
        <time>2025-09-10T13:15:50Z</time>
      </trkpt>
      <trkpt lat="45.83919" lon="4.52023">
        <ele>541.4</ele>
        <time>2025-09-10T13:15:51Z</time>
      </trkpt>
      <trkpt lat="45.83919" lon="4.52024">
        <ele>541.8</ele>
        <time>2025-09-10T13:15:52Z</time>
      </trkpt>
      <trkpt lat="45.83919" lon="4.52026">
        <ele>541.8</ele>
        <time>2025-09-10T13:15:53Z</time>
      </trkpt>
      <trkpt lat="45.8392" lon="4.52028">
        <ele>542.2</ele>
        <time>2025-09-10T13:15:54Z</time>
      </trkpt>
      <trkpt lat="45.8392" lon="4.5203">
        <ele>542.2</ele>
        <time>2025-09-10T13:15:55Z</time>
      </trkpt>
      <trkpt lat="45.8392" lon="4.52032">
        <ele>542.2</ele>
        <time>2025-09-10T13:15:56Z</time>
      </trkpt>
      <trkpt lat="45.8392" lon="4.52033">
        <ele>542.4</ele>
        <time>2025-09-10T13:15:57Z</time>
      </trkpt>
      <trkpt lat="45.8392" lon="4.52033">
        <ele>542.4</ele>
        <time>2025-09-10T13:15:58Z</time>
      </trkpt>
      <trkpt lat="45.8392" lon="4.52035">
        <ele>542.8</ele>
        <time>2025-09-10T13:15:59Z</time>
      </trkpt>
      <trkpt lat="45.8392" lon="4.52037">
        <ele>542.8</ele>
        <time>2025-09-10T13:16:00Z</time>
      </trkpt>
      <trkpt lat="45.8392" lon="4.52038">
        <ele>543</ele>
        <time>2025-09-10T13:16:01Z</time>
      </trkpt>
      <trkpt lat="45.83921" lon="4.5204">
        <ele>543.4</ele>
        <time>2025-09-10T13:16:02Z</time>
      </trkpt>
      <trkpt lat="45.83921" lon="4.52041">
        <ele>543.4</ele>
        <time>2025-09-10T13:16:03Z</time>
      </trkpt>
      <trkpt lat="45.83921" lon="4.52043">
        <ele>543.6</ele>
        <time>2025-09-10T13:16:04Z</time>
      </trkpt>
      <trkpt lat="45.83921" lon="4.52044">
        <ele>543.6</ele>
        <time>2025-09-10T13:16:05Z</time>
      </trkpt>
      <trkpt lat="45.83921" lon="4.52046">
        <ele>544</ele>
        <time>2025-09-10T13:16:06Z</time>
      </trkpt>
      <trkpt lat="45.83921" lon="4.52047">
        <ele>544.2</ele>
        <time>2025-09-10T13:16:07Z</time>
      </trkpt>
      <trkpt lat="45.83921" lon="4.52048">
        <ele>544.2</ele>
        <time>2025-09-10T13:16:08Z</time>
      </trkpt>
      <trkpt lat="45.83921" lon="4.5205">
        <ele>544.4</ele>
        <time>2025-09-10T13:16:09Z</time>
      </trkpt>
      <trkpt lat="45.83921" lon="4.52051">
        <ele>544.4</ele>
        <time>2025-09-10T13:16:10Z</time>
      </trkpt>
      <trkpt lat="45.83921" lon="4.52053">
        <ele>544.4</ele>
        <time>2025-09-10T13:16:11Z</time>
      </trkpt>
      <trkpt lat="45.83921" lon="4.52054">
        <ele>544.8</ele>
        <time>2025-09-10T13:16:12Z</time>
      </trkpt>
      <trkpt lat="45.83922" lon="4.52056">
        <ele>544.8</ele>
        <time>2025-09-10T13:16:13Z</time>
      </trkpt>
      <trkpt lat="45.83922" lon="4.52057">
        <ele>544.8</ele>
        <time>2025-09-10T13:16:14Z</time>
      </trkpt>
      <trkpt lat="45.83922" lon="4.52059">
        <ele>545</ele>
        <time>2025-09-10T13:16:15Z</time>
      </trkpt>
      <trkpt lat="45.83923" lon="4.5206">
        <ele>545</ele>
        <time>2025-09-10T13:16:16Z</time>
      </trkpt>
      <trkpt lat="45.83923" lon="4.52062">
        <ele>545</ele>
        <time>2025-09-10T13:16:17Z</time>
      </trkpt>
      <trkpt lat="45.83923" lon="4.52064">
        <ele>545.4</ele>
        <time>2025-09-10T13:16:18Z</time>
      </trkpt>
      <trkpt lat="45.83922" lon="4.52065">
        <ele>545.4</ele>
        <time>2025-09-10T13:16:19Z</time>
      </trkpt>
      <trkpt lat="45.83922" lon="4.52067">
        <ele>545.6</ele>
        <time>2025-09-10T13:16:20Z</time>
      </trkpt>
      <trkpt lat="45.83923" lon="4.52069">
        <ele>545.6</ele>
        <time>2025-09-10T13:16:21Z</time>
      </trkpt>
      <trkpt lat="45.83923" lon="4.52071">
        <ele>545.6</ele>
        <time>2025-09-10T13:16:22Z</time>
      </trkpt>
      <trkpt lat="45.83923" lon="4.52072">
        <ele>545.8</ele>
        <time>2025-09-10T13:16:23Z</time>
      </trkpt>
      <trkpt lat="45.83923" lon="4.52074">
        <ele>545.8</ele>
        <time>2025-09-10T13:16:24Z</time>
      </trkpt>
      <trkpt lat="45.83923" lon="4.52075">
        <ele>546</ele>
        <time>2025-09-10T13:16:25Z</time>
      </trkpt>
      <trkpt lat="45.83924" lon="4.52077">
        <ele>546</ele>
        <time>2025-09-10T13:16:26Z</time>
      </trkpt>
      <trkpt lat="45.83924" lon="4.52078">
        <ele>546.4</ele>
        <time>2025-09-10T13:16:27Z</time>
      </trkpt>
      <trkpt lat="45.83925" lon="4.52079">
        <ele>546.6</ele>
        <time>2025-09-10T13:16:28Z</time>
      </trkpt>
      <trkpt lat="45.83925" lon="4.52081">
        <ele>546.8</ele>
        <time>2025-09-10T13:16:29Z</time>
      </trkpt>
      <trkpt lat="45.83926" lon="4.52082">
        <ele>546.8</ele>
        <time>2025-09-10T13:16:30Z</time>
      </trkpt>
      <trkpt lat="45.83927" lon="4.52084">
        <ele>546.8</ele>
        <time>2025-09-10T13:16:31Z</time>
      </trkpt>
      <trkpt lat="45.83927" lon="4.52086">
        <ele>546.8</ele>
        <time>2025-09-10T13:16:32Z</time>
      </trkpt>
      <trkpt lat="45.83927" lon="4.52087">
        <ele>547</ele>
        <time>2025-09-10T13:16:33Z</time>
      </trkpt>
      <trkpt lat="45.83927" lon="4.52089">
        <ele>547</ele>
        <time>2025-09-10T13:16:34Z</time>
      </trkpt>
      <trkpt lat="45.83928" lon="4.52091">
        <ele>547.4</ele>
        <time>2025-09-10T13:16:35Z</time>
      </trkpt>
      <trkpt lat="45.83928" lon="4.52093">
        <ele>547.4</ele>
        <time>2025-09-10T13:16:36Z</time>
      </trkpt>
      <trkpt lat="45.83928" lon="4.52095">
        <ele>547.6</ele>
        <time>2025-09-10T13:16:37Z</time>
      </trkpt>
      <trkpt lat="45.83928" lon="4.52097">
        <ele>547.8</ele>
        <time>2025-09-10T13:16:38Z</time>
      </trkpt>
      <trkpt lat="45.83928" lon="4.52098">
        <ele>547.8</ele>
        <time>2025-09-10T13:16:39Z</time>
      </trkpt>
      <trkpt lat="45.83929" lon="4.521">
        <ele>548.2</ele>
        <time>2025-09-10T13:16:40Z</time>
      </trkpt>
      <trkpt lat="45.83929" lon="4.52101">
        <ele>548.2</ele>
        <time>2025-09-10T13:16:41Z</time>
      </trkpt>
      <trkpt lat="45.8393" lon="4.52102">
        <ele>548.4</ele>
        <time>2025-09-10T13:16:42Z</time>
      </trkpt>
      <trkpt lat="45.8393" lon="4.52104">
        <ele>548.4</ele>
        <time>2025-09-10T13:16:43Z</time>
      </trkpt>
      <trkpt lat="45.83931" lon="4.52107">
        <ele>548.8</ele>
        <time>2025-09-10T13:16:44Z</time>
      </trkpt>
      <trkpt lat="45.83932" lon="4.52108">
        <ele>548.8</ele>
        <time>2025-09-10T13:16:45Z</time>
      </trkpt>
      <trkpt lat="45.83932" lon="4.52109">
        <ele>549</ele>
        <time>2025-09-10T13:16:46Z</time>
      </trkpt>
      <trkpt lat="45.83933" lon="4.52111">
        <ele>549</ele>
        <time>2025-09-10T13:16:47Z</time>
      </trkpt>
      <trkpt lat="45.83933" lon="4.52112">
        <ele>549</ele>
        <time>2025-09-10T13:16:48Z</time>
      </trkpt>
      <trkpt lat="45.83934" lon="4.52113">
        <ele>549.2</ele>
        <time>2025-09-10T13:16:49Z</time>
      </trkpt>
      <trkpt lat="45.83934" lon="4.52114">
        <ele>549.2</ele>
        <time>2025-09-10T13:16:50Z</time>
      </trkpt>
      <trkpt lat="45.83934" lon="4.52116">
        <ele>549.4</ele>
        <time>2025-09-10T13:16:51Z</time>
      </trkpt>
      <trkpt lat="45.83935" lon="4.52117">
        <ele>549.4</ele>
        <time>2025-09-10T13:16:52Z</time>
      </trkpt>
      <trkpt lat="45.83935" lon="4.52119">
        <ele>549.4</ele>
        <time>2025-09-10T13:16:53Z</time>
      </trkpt>
      <trkpt lat="45.83936" lon="4.5212">
        <ele>549.8</ele>
        <time>2025-09-10T13:16:54Z</time>
      </trkpt>
      <trkpt lat="45.83936" lon="4.52121">
        <ele>549.8</ele>
        <time>2025-09-10T13:16:55Z</time>
      </trkpt>
      <trkpt lat="45.83937" lon="4.52122">
        <ele>549.8</ele>
        <time>2025-09-10T13:16:56Z</time>
      </trkpt>
      <trkpt lat="45.83937" lon="4.52123">
        <ele>550</ele>
        <time>2025-09-10T13:16:57Z</time>
      </trkpt>
      <trkpt lat="45.83937" lon="4.52125">
        <ele>550</ele>
        <time>2025-09-10T13:16:58Z</time>
      </trkpt>
      <trkpt lat="45.83937" lon="4.52125">
        <ele>550.4</ele>
        <time>2025-09-10T13:16:59Z</time>
      </trkpt>
      <trkpt lat="45.83937" lon="4.52127">
        <ele>550.4</ele>
        <time>2025-09-10T13:17:00Z</time>
      </trkpt>
      <trkpt lat="45.83937" lon="4.52128">
        <ele>550.4</ele>
        <time>2025-09-10T13:17:01Z</time>
      </trkpt>
      <trkpt lat="45.83936" lon="4.52129">
        <ele>550.6</ele>
        <time>2025-09-10T13:17:02Z</time>
      </trkpt>
      <trkpt lat="45.83936" lon="4.5213">
        <ele>550.6</ele>
        <time>2025-09-10T13:17:03Z</time>
      </trkpt>
      <trkpt lat="45.83937" lon="4.52131">
        <ele>550.6</ele>
        <time>2025-09-10T13:17:04Z</time>
      </trkpt>
      <trkpt lat="45.83937" lon="4.52133">
        <ele>551</ele>
        <time>2025-09-10T13:17:05Z</time>
      </trkpt>
      <trkpt lat="45.83938" lon="4.52135">
        <ele>551</ele>
        <time>2025-09-10T13:17:06Z</time>
      </trkpt>
      <trkpt lat="45.83938" lon="4.52136">
        <ele>551</ele>
        <time>2025-09-10T13:17:07Z</time>
      </trkpt>
      <trkpt lat="45.83938" lon="4.52138">
        <ele>551.4</ele>
        <time>2025-09-10T13:17:08Z</time>
      </trkpt>
      <trkpt lat="45.83938" lon="4.52139">
        <ele>551.6</ele>
        <time>2025-09-10T13:17:09Z</time>
      </trkpt>
      <trkpt lat="45.83938" lon="4.52141">
        <ele>551.6</ele>
        <time>2025-09-10T13:17:10Z</time>
      </trkpt>
      <trkpt lat="45.83938" lon="4.52142">
        <ele>552</ele>
        <time>2025-09-10T13:17:11Z</time>
      </trkpt>
      <trkpt lat="45.83938" lon="4.52143">
        <ele>552.2</ele>
        <time>2025-09-10T13:17:12Z</time>
      </trkpt>
      <trkpt lat="45.83939" lon="4.52145">
        <ele>552.2</ele>
        <time>2025-09-10T13:17:13Z</time>
      </trkpt>
      <trkpt lat="45.83939" lon="4.52146">
        <ele>552.2</ele>
        <time>2025-09-10T13:17:14Z</time>
      </trkpt>
      <trkpt lat="45.8394" lon="4.52148">
        <ele>552.6</ele>
        <time>2025-09-10T13:17:15Z</time>
      </trkpt>
      <trkpt lat="45.8394" lon="4.52149">
        <ele>552.6</ele>
        <time>2025-09-10T13:17:16Z</time>
      </trkpt>
      <trkpt lat="45.83941" lon="4.5215">
        <ele>552.8</ele>
        <time>2025-09-10T13:17:17Z</time>
      </trkpt>
      <trkpt lat="45.83942" lon="4.52152">
        <ele>552.8</ele>
        <time>2025-09-10T13:17:18Z</time>
      </trkpt>
      <trkpt lat="45.83942" lon="4.52153">
        <ele>553.2</ele>
        <time>2025-09-10T13:17:19Z</time>
      </trkpt>
      <trkpt lat="45.83942" lon="4.52155">
        <ele>553.2</ele>
        <time>2025-09-10T13:17:20Z</time>
      </trkpt>
      <trkpt lat="45.83942" lon="4.52157">
        <ele>553.4</ele>
        <time>2025-09-10T13:17:21Z</time>
      </trkpt>
      <trkpt lat="45.83942" lon="4.52158">
        <ele>553.4</ele>
        <time>2025-09-10T13:17:22Z</time>
      </trkpt>
      <trkpt lat="45.83942" lon="4.5216">
        <ele>553.8</ele>
        <time>2025-09-10T13:17:23Z</time>
      </trkpt>
      <trkpt lat="45.83942" lon="4.52162">
        <ele>553.8</ele>
        <time>2025-09-10T13:17:24Z</time>
      </trkpt>
      <trkpt lat="45.83943" lon="4.52163">
        <ele>554</ele>
        <time>2025-09-10T13:17:25Z</time>
      </trkpt>
      <trkpt lat="45.83943" lon="4.52165">
        <ele>554</ele>
        <time>2025-09-10T13:17:26Z</time>
      </trkpt>
      <trkpt lat="45.83944" lon="4.52166">
        <ele>554.2</ele>
        <time>2025-09-10T13:17:27Z</time>
      </trkpt>
      <trkpt lat="45.83944" lon="4.52167">
        <ele>554.4</ele>
        <time>2025-09-10T13:17:28Z</time>
      </trkpt>
      <trkpt lat="45.83944" lon="4.52169">
        <ele>554.4</ele>
        <time>2025-09-10T13:17:29Z</time>
      </trkpt>
      <trkpt lat="45.83944" lon="4.5217">
        <ele>554.8</ele>
        <time>2025-09-10T13:17:30Z</time>
      </trkpt>
      <trkpt lat="45.83943" lon="4.52172">
        <ele>554.8</ele>
        <time>2025-09-10T13:17:31Z</time>
      </trkpt>
      <trkpt lat="45.83943" lon="4.52173">
        <ele>554.8</ele>
        <time>2025-09-10T13:17:32Z</time>
      </trkpt>
      <trkpt lat="45.83943" lon="4.52174">
        <ele>555</ele>
        <time>2025-09-10T13:17:33Z</time>
      </trkpt>
      <trkpt lat="45.83943" lon="4.52176">
        <ele>555</ele>
        <time>2025-09-10T13:17:34Z</time>
      </trkpt>
      <trkpt lat="45.83943" lon="4.52177">
        <ele>555</ele>
        <time>2025-09-10T13:17:35Z</time>
      </trkpt>
      <trkpt lat="45.83943" lon="4.52178">
        <ele>555.2</ele>
        <time>2025-09-10T13:17:36Z</time>
      </trkpt>
      <trkpt lat="45.83944" lon="4.5218">
        <ele>555.2</ele>
        <time>2025-09-10T13:17:37Z</time>
      </trkpt>
      <trkpt lat="45.83944" lon="4.52181">
        <ele>555.6</ele>
        <time>2025-09-10T13:17:38Z</time>
      </trkpt>
      <trkpt lat="45.83945" lon="4.52183">
        <ele>555.6</ele>
        <time>2025-09-10T13:17:39Z</time>
      </trkpt>
      <trkpt lat="45.83946" lon="4.52184">
        <ele>555.8</ele>
        <time>2025-09-10T13:17:40Z</time>
      </trkpt>
      <trkpt lat="45.83946" lon="4.52185">
        <ele>556</ele>
        <time>2025-09-10T13:17:41Z</time>
      </trkpt>
      <trkpt lat="45.83946" lon="4.52187">
        <ele>556.2</ele>
        <time>2025-09-10T13:17:42Z</time>
      </trkpt>
      <trkpt lat="45.83946" lon="4.52189">
        <ele>556.2</ele>
        <time>2025-09-10T13:17:43Z</time>
      </trkpt>
      <trkpt lat="45.83946" lon="4.5219">
        <ele>556.6</ele>
        <time>2025-09-10T13:17:44Z</time>
      </trkpt>
      <trkpt lat="45.83946" lon="4.52192">
        <ele>556.6</ele>
        <time>2025-09-10T13:17:45Z</time>
      </trkpt>
      <trkpt lat="45.83946" lon="4.52193">
        <ele>556.8</ele>
        <time>2025-09-10T13:17:46Z</time>
      </trkpt>
      <trkpt lat="45.83947" lon="4.52194">
        <ele>557</ele>
        <time>2025-09-10T13:17:47Z</time>
      </trkpt>
      <trkpt lat="45.83947" lon="4.52195">
        <ele>557</ele>
        <time>2025-09-10T13:17:48Z</time>
      </trkpt>
      <trkpt lat="45.83947" lon="4.52197">
        <ele>557.2</ele>
        <time>2025-09-10T13:17:49Z</time>
      </trkpt>
      <trkpt lat="45.83947" lon="4.52198">
        <ele>557.2</ele>
        <time>2025-09-10T13:17:50Z</time>
      </trkpt>
      <trkpt lat="45.83947" lon="4.522">
        <ele>557.2</ele>
        <time>2025-09-10T13:17:51Z</time>
      </trkpt>
      <trkpt lat="45.83948" lon="4.52201">
        <ele>557.6</ele>
        <time>2025-09-10T13:17:52Z</time>
      </trkpt>
      <trkpt lat="45.83949" lon="4.52202">
        <ele>557.8</ele>
        <time>2025-09-10T13:17:53Z</time>
      </trkpt>
      <trkpt lat="45.83949" lon="4.52204">
        <ele>557.8</ele>
        <time>2025-09-10T13:17:54Z</time>
      </trkpt>
      <trkpt lat="45.8395" lon="4.52205">
        <ele>558</ele>
        <time>2025-09-10T13:17:55Z</time>
      </trkpt>
      <trkpt lat="45.8395" lon="4.52206">
        <ele>558</ele>
        <time>2025-09-10T13:17:56Z</time>
      </trkpt>
      <trkpt lat="45.8395" lon="4.52208">
        <ele>558</ele>
        <time>2025-09-10T13:17:57Z</time>
      </trkpt>
      <trkpt lat="45.83951" lon="4.52209">
        <ele>558.4</ele>
        <time>2025-09-10T13:17:58Z</time>
      </trkpt>
      <trkpt lat="45.83951" lon="4.5221">
        <ele>558.4</ele>
        <time>2025-09-10T13:17:59Z</time>
      </trkpt>
      <trkpt lat="45.83951" lon="4.52211">
        <ele>558.4</ele>
        <time>2025-09-10T13:18:00Z</time>
      </trkpt>
      <trkpt lat="45.83951" lon="4.52213">
        <ele>558.8</ele>
        <time>2025-09-10T13:18:01Z</time>
      </trkpt>
      <trkpt lat="45.83952" lon="4.52214">
        <ele>558.8</ele>
        <time>2025-09-10T13:18:02Z</time>
      </trkpt>
      <trkpt lat="45.83953" lon="4.52216">
        <ele>559</ele>
        <time>2025-09-10T13:18:03Z</time>
      </trkpt>
      <trkpt lat="45.83954" lon="4.52218">
        <ele>559</ele>
        <time>2025-09-10T13:18:04Z</time>
      </trkpt>
      <trkpt lat="45.83955" lon="4.52219">
        <ele>559.2</ele>
        <time>2025-09-10T13:18:05Z</time>
      </trkpt>
      <trkpt lat="45.83955" lon="4.5222">
        <ele>559.2</ele>
        <time>2025-09-10T13:18:06Z</time>
      </trkpt>
      <trkpt lat="45.83955" lon="4.52222">
        <ele>559.2</ele>
        <time>2025-09-10T13:18:07Z</time>
      </trkpt>
      <trkpt lat="45.83956" lon="4.52223">
        <ele>559.6</ele>
        <time>2025-09-10T13:18:08Z</time>
      </trkpt>
      <trkpt lat="45.83957" lon="4.52225">
        <ele>559.6</ele>
        <time>2025-09-10T13:18:09Z</time>
      </trkpt>
      <trkpt lat="45.83957" lon="4.52226">
        <ele>560</ele>
        <time>2025-09-10T13:18:10Z</time>
      </trkpt>
      <trkpt lat="45.83958" lon="4.52227">
        <ele>560</ele>
        <time>2025-09-10T13:18:11Z</time>
      </trkpt>
      <trkpt lat="45.83959" lon="4.52228">
        <ele>560.2</ele>
        <time>2025-09-10T13:18:12Z</time>
      </trkpt>
      <trkpt lat="45.83959" lon="4.5223">
        <ele>560.2</ele>
        <time>2025-09-10T13:18:13Z</time>
      </trkpt>
      <trkpt lat="45.8396" lon="4.52231">
        <ele>560.2</ele>
        <time>2025-09-10T13:18:14Z</time>
      </trkpt>
      <trkpt lat="45.83961" lon="4.52233">
        <ele>560.4</ele>
        <time>2025-09-10T13:18:15Z</time>
      </trkpt>
      <trkpt lat="45.83961" lon="4.52234">
        <ele>560.6</ele>
        <time>2025-09-10T13:18:16Z</time>
      </trkpt>
      <trkpt lat="45.83962" lon="4.52235">
        <ele>560.6</ele>
        <time>2025-09-10T13:18:17Z</time>
      </trkpt>
      <trkpt lat="45.83963" lon="4.52236">
        <ele>560.6</ele>
        <time>2025-09-10T13:18:18Z</time>
      </trkpt>
      <trkpt lat="45.83964" lon="4.52237">
        <ele>561</ele>
        <time>2025-09-10T13:18:19Z</time>
      </trkpt>
      <trkpt lat="45.83964" lon="4.52238">
        <ele>561</ele>
        <time>2025-09-10T13:18:20Z</time>
      </trkpt>
      <trkpt lat="45.83965" lon="4.5224">
        <ele>561.2</ele>
        <time>2025-09-10T13:18:21Z</time>
      </trkpt>
      <trkpt lat="45.83966" lon="4.52241">
        <ele>561.2</ele>
        <time>2025-09-10T13:18:22Z</time>
      </trkpt>
      <trkpt lat="45.83966" lon="4.52242">
        <ele>561.2</ele>
        <time>2025-09-10T13:18:23Z</time>
      </trkpt>
      <trkpt lat="45.83967" lon="4.52242">
        <ele>561.2</ele>
        <time>2025-09-10T13:18:24Z</time>
      </trkpt>
      <trkpt lat="45.83967" lon="4.52244">
        <ele>561.4</ele>
        <time>2025-09-10T13:18:25Z</time>
      </trkpt>
      <trkpt lat="45.83968" lon="4.52245">
        <ele>561.4</ele>
        <time>2025-09-10T13:18:26Z</time>
      </trkpt>
      <trkpt lat="45.83968" lon="4.52246">
        <ele>561.4</ele>
        <time>2025-09-10T13:18:27Z</time>
      </trkpt>
      <trkpt lat="45.83968" lon="4.52248">
        <ele>561.8</ele>
        <time>2025-09-10T13:18:28Z</time>
      </trkpt>
      <trkpt lat="45.83968" lon="4.52249">
        <ele>561.8</ele>
        <time>2025-09-10T13:18:29Z</time>
      </trkpt>
      <trkpt lat="45.83968" lon="4.52251">
        <ele>562.2</ele>
        <time>2025-09-10T13:18:30Z</time>
      </trkpt>
      <trkpt lat="45.83968" lon="4.52252">
        <ele>562.2</ele>
        <time>2025-09-10T13:18:31Z</time>
      </trkpt>
      <trkpt lat="45.83968" lon="4.52254">
        <ele>562.2</ele>
        <time>2025-09-10T13:18:32Z</time>
      </trkpt>
      <trkpt lat="45.83969" lon="4.52255">
        <ele>562.4</ele>
        <time>2025-09-10T13:18:33Z</time>
      </trkpt>
      <trkpt lat="45.83969" lon="4.52257">
        <ele>562.4</ele>
        <time>2025-09-10T13:18:34Z</time>
      </trkpt>
      <trkpt lat="45.8397" lon="4.52258">
        <ele>562.6</ele>
        <time>2025-09-10T13:18:35Z</time>
      </trkpt>
      <trkpt lat="45.83971" lon="4.52259">
        <ele>562.6</ele>
        <time>2025-09-10T13:18:36Z</time>
      </trkpt>
      <trkpt lat="45.83972" lon="4.5226">
        <ele>563</ele>
        <time>2025-09-10T13:18:37Z</time>
      </trkpt>
      <trkpt lat="45.83972" lon="4.52261">
        <ele>563</ele>
        <time>2025-09-10T13:18:38Z</time>
      </trkpt>
      <trkpt lat="45.83973" lon="4.52263">
        <ele>563.2</ele>
        <time>2025-09-10T13:18:39Z</time>
      </trkpt>
      <trkpt lat="45.83974" lon="4.52265">
        <ele>563.2</ele>
        <time>2025-09-10T13:18:40Z</time>
      </trkpt>
      <trkpt lat="45.83974" lon="4.52266">
        <ele>563.6</ele>
        <time>2025-09-10T13:18:41Z</time>
      </trkpt>
      <trkpt lat="45.83975" lon="4.52268">
        <ele>563.6</ele>
        <time>2025-09-10T13:18:42Z</time>
      </trkpt>
      <trkpt lat="45.83976" lon="4.52268">
        <ele>563.8</ele>
        <time>2025-09-10T13:18:43Z</time>
      </trkpt>
      <trkpt lat="45.83976" lon="4.52269">
        <ele>563.8</ele>
        <time>2025-09-10T13:18:44Z</time>
      </trkpt>
      <trkpt lat="45.83977" lon="4.5227">
        <ele>563.8</ele>
        <time>2025-09-10T13:18:45Z</time>
      </trkpt>
      <trkpt lat="45.83978" lon="4.52271">
        <ele>564.2</ele>
        <time>2025-09-10T13:18:46Z</time>
      </trkpt>
      <trkpt lat="45.83979" lon="4.52272">
        <ele>564.2</ele>
        <time>2025-09-10T13:18:47Z</time>
      </trkpt>
      <trkpt lat="45.8398" lon="4.52273">
        <ele>564.6</ele>
        <time>2025-09-10T13:18:48Z</time>
      </trkpt>
      <trkpt lat="45.83981" lon="4.52275">
        <ele>564.6</ele>
        <time>2025-09-10T13:18:49Z</time>
      </trkpt>
      <trkpt lat="45.83982" lon="4.52275">
        <ele>564.8</ele>
        <time>2025-09-10T13:18:50Z</time>
      </trkpt>
      <trkpt lat="45.83983" lon="4.52276">
        <ele>564.8</ele>
        <time>2025-09-10T13:18:51Z</time>
      </trkpt>
      <trkpt lat="45.83983" lon="4.52278">
        <ele>565.2</ele>
        <time>2025-09-10T13:18:52Z</time>
      </trkpt>
      <trkpt lat="45.83984" lon="4.52279">
        <ele>565.2</ele>
        <time>2025-09-10T13:18:53Z</time>
      </trkpt>
      <trkpt lat="45.83984" lon="4.52281">
        <ele>565.4</ele>
        <time>2025-09-10T13:18:54Z</time>
      </trkpt>
      <trkpt lat="45.83985" lon="4.52282">
        <ele>565.4</ele>
        <time>2025-09-10T13:18:55Z</time>
      </trkpt>
      <trkpt lat="45.83985" lon="4.52283">
        <ele>565.6</ele>
        <time>2025-09-10T13:18:56Z</time>
      </trkpt>
      <trkpt lat="45.83986" lon="4.52285">
        <ele>565.6</ele>
        <time>2025-09-10T13:18:57Z</time>
      </trkpt>
      <trkpt lat="45.83986" lon="4.52286">
        <ele>565.8</ele>
        <time>2025-09-10T13:18:58Z</time>
      </trkpt>
      <trkpt lat="45.83986" lon="4.52288">
        <ele>565.8</ele>
        <time>2025-09-10T13:18:59Z</time>
      </trkpt>
      <trkpt lat="45.83986" lon="4.52289">
        <ele>565.8</ele>
        <time>2025-09-10T13:19:00Z</time>
      </trkpt>
      <trkpt lat="45.83987" lon="4.52291">
        <ele>566.2</ele>
        <time>2025-09-10T13:19:01Z</time>
      </trkpt>
      <trkpt lat="45.83987" lon="4.52292">
        <ele>566.2</ele>
        <time>2025-09-10T13:19:02Z</time>
      </trkpt>
      <trkpt lat="45.83987" lon="4.52293">
        <ele>566.4</ele>
        <time>2025-09-10T13:19:03Z</time>
      </trkpt>
      <trkpt lat="45.83987" lon="4.52295">
        <ele>566.4</ele>
        <time>2025-09-10T13:19:04Z</time>
      </trkpt>
      <trkpt lat="45.83988" lon="4.52297">
        <ele>566.6</ele>
        <time>2025-09-10T13:19:05Z</time>
      </trkpt>
      <trkpt lat="45.83989" lon="4.52299">
        <ele>567</ele>
        <time>2025-09-10T13:19:06Z</time>
      </trkpt>
      <trkpt lat="45.8399" lon="4.52301">
        <ele>567</ele>
        <time>2025-09-10T13:19:07Z</time>
      </trkpt>
      <trkpt lat="45.8399" lon="4.52302">
        <ele>567.4</ele>
        <time>2025-09-10T13:19:08Z</time>
      </trkpt>
      <trkpt lat="45.83991" lon="4.52304">
        <ele>567.4</ele>
        <time>2025-09-10T13:19:09Z</time>
      </trkpt>
      <trkpt lat="45.83992" lon="4.52306">
        <ele>567.6</ele>
        <time>2025-09-10T13:19:10Z</time>
      </trkpt>
      <trkpt lat="45.83992" lon="4.52308">
        <ele>567.6</ele>
        <time>2025-09-10T13:19:11Z</time>
      </trkpt>
      <trkpt lat="45.83992" lon="4.52309">
        <ele>568</ele>
        <time>2025-09-10T13:19:12Z</time>
      </trkpt>
      <trkpt lat="45.83993" lon="4.5231">
        <ele>568</ele>
        <time>2025-09-10T13:19:13Z</time>
      </trkpt>
      <trkpt lat="45.83993" lon="4.52312">
        <ele>568.2</ele>
        <time>2025-09-10T13:19:14Z</time>
      </trkpt>
      <trkpt lat="45.83994" lon="4.52313">
        <ele>568.2</ele>
        <time>2025-09-10T13:19:15Z</time>
      </trkpt>
      <trkpt lat="45.83995" lon="4.52316">
        <ele>568.6</ele>
        <time>2025-09-10T13:19:16Z</time>
      </trkpt>
      <trkpt lat="45.83996" lon="4.52317">
        <ele>568.6</ele>
        <time>2025-09-10T13:19:17Z</time>
      </trkpt>
      <trkpt lat="45.83996" lon="4.52318">
        <ele>568.8</ele>
        <time>2025-09-10T13:19:18Z</time>
      </trkpt>
      <trkpt lat="45.83997" lon="4.52319">
        <ele>568.8</ele>
        <time>2025-09-10T13:19:19Z</time>
      </trkpt>
      <trkpt lat="45.83998" lon="4.52322">
        <ele>569</ele>
        <time>2025-09-10T13:19:20Z</time>
      </trkpt>
      <trkpt lat="45.83998" lon="4.52323">
        <ele>569</ele>
        <time>2025-09-10T13:19:21Z</time>
      </trkpt>
      <trkpt lat="45.83998" lon="4.52323">
        <ele>569.2</ele>
        <time>2025-09-10T13:19:22Z</time>
      </trkpt>
      <trkpt lat="45.83997" lon="4.52323">
        <ele>569.2</ele>
        <time>2025-09-10T13:19:23Z</time>
      </trkpt>
      <trkpt lat="45.83996" lon="4.52323">
        <ele>569.2</ele>
        <time>2025-09-10T13:19:24Z</time>
      </trkpt>
      <trkpt lat="45.83996" lon="4.52322">
        <ele>569.2</ele>
        <time>2025-09-10T13:19:25Z</time>
      </trkpt>
      <trkpt lat="45.83995" lon="4.52321">
        <ele>568.4</ele>
        <time>2025-09-10T13:19:38Z</time>
      </trkpt>
      <trkpt lat="45.83996" lon="4.52321">
        <ele>568.4</ele>
        <time>2025-09-10T13:19:39Z</time>
      </trkpt>
      <trkpt lat="45.83996" lon="4.52321">
        <ele>568.4</ele>
        <time>2025-09-10T13:19:40Z</time>
      </trkpt>
      <trkpt lat="45.83996" lon="4.52324">
        <ele>569</ele>
        <time>2025-09-10T13:19:51Z</time>
      </trkpt>
      <trkpt lat="45.83997" lon="4.52325">
        <ele>569</ele>
        <time>2025-09-10T13:19:52Z</time>
      </trkpt>
      <trkpt lat="45.83997" lon="4.52326">
        <ele>569</ele>
        <time>2025-09-10T13:19:53Z</time>
      </trkpt>
      <trkpt lat="45.83998" lon="4.52326">
        <ele>569</ele>
        <time>2025-09-10T13:19:54Z</time>
      </trkpt>
      <trkpt lat="45.83998" lon="4.52327">
        <ele>569</ele>
        <time>2025-09-10T13:19:55Z</time>
      </trkpt>
      <trkpt lat="45.83998" lon="4.52327">
        <ele>569</ele>
        <time>2025-09-10T13:19:56Z</time>
      </trkpt>
      <trkpt lat="45.83998" lon="4.52323">
        <ele>569.4</ele>
        <time>2025-09-10T13:20:20Z</time>
      </trkpt>
      <trkpt lat="45.83999" lon="4.52323">
        <ele>569.4</ele>
        <time>2025-09-10T13:20:21Z</time>
      </trkpt>
      <trkpt lat="45.83999" lon="4.52323">
        <ele>569.4</ele>
        <time>2025-09-10T13:20:22Z</time>
      </trkpt>
      <trkpt lat="45.83998" lon="4.52326">
        <ele>569.4</ele>
        <time>2025-09-10T13:20:27Z</time>
      </trkpt>
      <trkpt lat="45.83998" lon="4.52328">
        <ele>569.4</ele>
        <time>2025-09-10T13:20:28Z</time>
      </trkpt>
      <trkpt lat="45.83997" lon="4.5233">
        <ele>569.4</ele>
        <time>2025-09-10T13:20:29Z</time>
      </trkpt>
      <trkpt lat="45.83997" lon="4.52331">
        <ele>569.4</ele>
        <time>2025-09-10T13:20:30Z</time>
      </trkpt>
      <trkpt lat="45.83997" lon="4.52332">
        <ele>569.4</ele>
        <time>2025-09-10T13:20:31Z</time>
      </trkpt>
      <trkpt lat="45.83997" lon="4.52334">
        <ele>569.4</ele>
        <time>2025-09-10T13:20:32Z</time>
      </trkpt>
      <trkpt lat="45.83997" lon="4.52335">
        <ele>569.6</ele>
        <time>2025-09-10T13:20:33Z</time>
      </trkpt>
      <trkpt lat="45.83997" lon="4.52337">
        <ele>569.6</ele>
        <time>2025-09-10T13:20:34Z</time>
      </trkpt>
      <trkpt lat="45.83997" lon="4.52337">
        <ele>570</ele>
        <time>2025-09-10T13:20:35Z</time>
      </trkpt>
      <trkpt lat="45.83997" lon="4.52339">
        <ele>570</ele>
        <time>2025-09-10T13:20:36Z</time>
      </trkpt>
      <trkpt lat="45.83997" lon="4.52339">
        <ele>570</ele>
        <time>2025-09-10T13:20:37Z</time>
      </trkpt>
      <trkpt lat="45.83997" lon="4.5234">
        <ele>570.2</ele>
        <time>2025-09-10T13:20:38Z</time>
      </trkpt>
      <trkpt lat="45.83996" lon="4.52341">
        <ele>570.4</ele>
        <time>2025-09-10T13:20:39Z</time>
      </trkpt>
      <trkpt lat="45.83996" lon="4.52343">
        <ele>570.4</ele>
        <time>2025-09-10T13:20:40Z</time>
      </trkpt>
      <trkpt lat="45.83996" lon="4.52344">
        <ele>570.4</ele>
        <time>2025-09-10T13:20:41Z</time>
      </trkpt>
      <trkpt lat="45.83996" lon="4.52345">
        <ele>570.8</ele>
        <time>2025-09-10T13:20:42Z</time>
      </trkpt>
      <trkpt lat="45.83996" lon="4.52347">
        <ele>570.8</ele>
        <time>2025-09-10T13:20:43Z</time>
      </trkpt>
      <trkpt lat="45.83995" lon="4.52348">
        <ele>570.8</ele>
        <time>2025-09-10T13:20:44Z</time>
      </trkpt>
      <trkpt lat="45.83995" lon="4.5235">
        <ele>570.8</ele>
        <time>2025-09-10T13:20:45Z</time>
      </trkpt>
      <trkpt lat="45.83995" lon="4.52351">
        <ele>571</ele>
        <time>2025-09-10T13:20:46Z</time>
      </trkpt>
      <trkpt lat="45.83996" lon="4.52351">
        <ele>571</ele>
        <time>2025-09-10T13:20:47Z</time>
      </trkpt>
      <trkpt lat="45.83996" lon="4.52351">
        <ele>571.2</ele>
        <time>2025-09-10T13:20:48Z</time>
      </trkpt>
      <trkpt lat="45.83996" lon="4.52351">
        <ele>571.2</ele>
        <time>2025-09-10T13:20:49Z</time>
      </trkpt>
      <trkpt lat="45.83996" lon="4.52352">
        <ele>571.2</ele>
        <time>2025-09-10T13:20:50Z</time>
      </trkpt>
      <trkpt lat="45.83996" lon="4.52353">
        <ele>571.6</ele>
        <time>2025-09-10T13:20:51Z</time>
      </trkpt>
      <trkpt lat="45.83996" lon="4.52355">
        <ele>571.6</ele>
        <time>2025-09-10T13:20:52Z</time>
      </trkpt>
      <trkpt lat="45.83996" lon="4.52356">
        <ele>571.8</ele>
        <time>2025-09-10T13:20:53Z</time>
      </trkpt>
      <trkpt lat="45.83995" lon="4.52357">
        <ele>571.8</ele>
        <time>2025-09-10T13:20:54Z</time>
      </trkpt>
      <trkpt lat="45.83995" lon="4.52359">
        <ele>572</ele>
        <time>2025-09-10T13:20:55Z</time>
      </trkpt>
      <trkpt lat="45.83995" lon="4.5236">
        <ele>572</ele>
        <time>2025-09-10T13:20:56Z</time>
      </trkpt>
      <trkpt lat="45.83995" lon="4.52362">
        <ele>572.4</ele>
        <time>2025-09-10T13:20:57Z</time>
      </trkpt>
      <trkpt lat="45.83994" lon="4.52363">
        <ele>572.4</ele>
        <time>2025-09-10T13:20:58Z</time>
      </trkpt>
      <trkpt lat="45.83994" lon="4.52365">
        <ele>572.6</ele>
        <time>2025-09-10T13:20:59Z</time>
      </trkpt>
      <trkpt lat="45.83994" lon="4.52366">
        <ele>572.6</ele>
        <time>2025-09-10T13:21:00Z</time>
      </trkpt>
      <trkpt lat="45.83994" lon="4.52367">
        <ele>572.6</ele>
        <time>2025-09-10T13:21:01Z</time>
      </trkpt>
      <trkpt lat="45.83994" lon="4.52368">
        <ele>573</ele>
        <time>2025-09-10T13:21:02Z</time>
      </trkpt>
      <trkpt lat="45.83994" lon="4.5237">
        <ele>573</ele>
        <time>2025-09-10T13:21:03Z</time>
      </trkpt>
      <trkpt lat="45.83994" lon="4.52371">
        <ele>573.2</ele>
        <time>2025-09-10T13:21:04Z</time>
      </trkpt>
      <trkpt lat="45.83994" lon="4.52372">
        <ele>573.6</ele>
        <time>2025-09-10T13:21:05Z</time>
      </trkpt>
      <trkpt lat="45.83994" lon="4.52374">
        <ele>573.6</ele>
        <time>2025-09-10T13:21:06Z</time>
      </trkpt>
      <trkpt lat="45.83993" lon="4.52375">
        <ele>573.8</ele>
        <time>2025-09-10T13:21:07Z</time>
      </trkpt>
      <trkpt lat="45.83993" lon="4.52376">
        <ele>574</ele>
        <time>2025-09-10T13:21:08Z</time>
      </trkpt>
      <trkpt lat="45.83993" lon="4.52377">
        <ele>574</ele>
        <time>2025-09-10T13:21:09Z</time>
      </trkpt>
      <trkpt lat="45.83993" lon="4.52378">
        <ele>574.4</ele>
        <time>2025-09-10T13:21:10Z</time>
      </trkpt>
      <trkpt lat="45.83993" lon="4.52379">
        <ele>574.4</ele>
        <time>2025-09-10T13:21:11Z</time>
      </trkpt>
      <trkpt lat="45.83993" lon="4.5238">
        <ele>574.6</ele>
        <time>2025-09-10T13:21:12Z</time>
      </trkpt>
      <trkpt lat="45.83993" lon="4.5238">
        <ele>574.6</ele>
        <time>2025-09-10T13:21:13Z</time>
      </trkpt>
      <trkpt lat="45.83993" lon="4.52381">
        <ele>575</ele>
        <time>2025-09-10T13:21:20Z</time>
      </trkpt>
      <trkpt lat="45.83993" lon="4.52382">
        <ele>575</ele>
        <time>2025-09-10T13:21:21Z</time>
      </trkpt>
      <trkpt lat="45.83993" lon="4.52383">
        <ele>575</ele>
        <time>2025-09-10T13:21:22Z</time>
      </trkpt>
      <trkpt lat="45.83993" lon="4.52384">
        <ele>575</ele>
        <time>2025-09-10T13:21:23Z</time>
      </trkpt>
      <trkpt lat="45.83993" lon="4.52385">
        <ele>575.2</ele>
        <time>2025-09-10T13:21:24Z</time>
      </trkpt>
      <trkpt lat="45.83993" lon="4.52386">
        <ele>575.2</ele>
        <time>2025-09-10T13:21:25Z</time>
      </trkpt>
      <trkpt lat="45.83993" lon="4.52387">
        <ele>575.2</ele>
        <time>2025-09-10T13:21:26Z</time>
      </trkpt>
      <trkpt lat="45.83993" lon="4.52389">
        <ele>575.6</ele>
        <time>2025-09-10T13:21:27Z</time>
      </trkpt>
      <trkpt lat="45.83994" lon="4.5239">
        <ele>575.6</ele>
        <time>2025-09-10T13:21:28Z</time>
      </trkpt>
      <trkpt lat="45.83994" lon="4.52391">
        <ele>575.6</ele>
        <time>2025-09-10T13:21:29Z</time>
      </trkpt>
      <trkpt lat="45.83994" lon="4.52392">
        <ele>575.6</ele>
        <time>2025-09-10T13:21:30Z</time>
      </trkpt>
      <trkpt lat="45.83994" lon="4.52394">
        <ele>575.6</ele>
        <time>2025-09-10T13:21:31Z</time>
      </trkpt>
      <trkpt lat="45.83994" lon="4.52395">
        <ele>575.8</ele>
        <time>2025-09-10T13:21:32Z</time>
      </trkpt>
      <trkpt lat="45.83994" lon="4.52396">
        <ele>575.8</ele>
        <time>2025-09-10T13:21:33Z</time>
      </trkpt>
      <trkpt lat="45.83994" lon="4.52397">
        <ele>576.2</ele>
        <time>2025-09-10T13:21:34Z</time>
      </trkpt>
      <trkpt lat="45.83994" lon="4.52398">
        <ele>576.2</ele>
        <time>2025-09-10T13:21:35Z</time>
      </trkpt>
      <trkpt lat="45.83994" lon="4.524">
        <ele>576.4</ele>
        <time>2025-09-10T13:21:36Z</time>
      </trkpt>
      <trkpt lat="45.83994" lon="4.52401">
        <ele>576.4</ele>
        <time>2025-09-10T13:21:37Z</time>
      </trkpt>
      <trkpt lat="45.83994" lon="4.52402">
        <ele>576.6</ele>
        <time>2025-09-10T13:21:38Z</time>
      </trkpt>
      <trkpt lat="45.83993" lon="4.52403">
        <ele>576.6</ele>
        <time>2025-09-10T13:21:39Z</time>
      </trkpt>
      <trkpt lat="45.83994" lon="4.52403">
        <ele>576.8</ele>
        <time>2025-09-10T13:21:40Z</time>
      </trkpt>
      <trkpt lat="45.83996" lon="4.52406">
        <ele>577.6</ele>
        <time>2025-09-10T13:22:32Z</time>
      </trkpt>
      <trkpt lat="45.83996" lon="4.52406">
        <ele>577.6</ele>
        <time>2025-09-10T13:22:33Z</time>
      </trkpt>
      <trkpt lat="45.83996" lon="4.52406">
        <ele>577.6</ele>
        <time>2025-09-10T13:22:34Z</time>
      </trkpt>
      <trkpt lat="45.83996" lon="4.52406">
        <ele>577.8</ele>
        <time>2025-09-10T13:24:21Z</time>
      </trkpt>
      <trkpt lat="45.83996" lon="4.52406">
        <ele>577.4</ele>
        <time>2025-09-10T13:24:22Z</time>
      </trkpt>
      <trkpt lat="45.83997" lon="4.52407">
        <ele>577.4</ele>
        <time>2025-09-10T13:24:23Z</time>
      </trkpt>
      <trkpt lat="45.83997" lon="4.52408">
        <ele>577.4</ele>
        <time>2025-09-10T13:24:24Z</time>
      </trkpt>
      <trkpt lat="45.83997" lon="4.52408">
        <ele>577.4</ele>
        <time>2025-09-10T13:24:25Z</time>
      </trkpt>
      <trkpt lat="45.83998" lon="4.52409">
        <ele>577.4</ele>
        <time>2025-09-10T13:24:26Z</time>
      </trkpt>
      <trkpt lat="45.83999" lon="4.5241">
        <ele>577.4</ele>
        <time>2025-09-10T13:24:27Z</time>
      </trkpt>
      <trkpt lat="45.83999" lon="4.52411">
        <ele>577.8</ele>
        <time>2025-09-10T13:24:28Z</time>
      </trkpt>
      <trkpt lat="45.83999" lon="4.52412">
        <ele>577.8</ele>
        <time>2025-09-10T13:24:29Z</time>
      </trkpt>
      <trkpt lat="45.84" lon="4.52413">
        <ele>578</ele>
        <time>2025-09-10T13:24:30Z</time>
      </trkpt>
      <trkpt lat="45.84001" lon="4.52413">
        <ele>578</ele>
        <time>2025-09-10T13:24:31Z</time>
      </trkpt>
      <trkpt lat="45.84001" lon="4.52414">
        <ele>578.4</ele>
        <time>2025-09-10T13:24:32Z</time>
      </trkpt>
      <trkpt lat="45.84002" lon="4.52415">
        <ele>578.4</ele>
        <time>2025-09-10T13:24:33Z</time>
      </trkpt>
      <trkpt lat="45.84002" lon="4.52416">
        <ele>578.8</ele>
        <time>2025-09-10T13:24:34Z</time>
      </trkpt>
      <trkpt lat="45.84003" lon="4.52417">
        <ele>579</ele>
        <time>2025-09-10T13:24:35Z</time>
      </trkpt>
      <trkpt lat="45.84003" lon="4.52418">
        <ele>579</ele>
        <time>2025-09-10T13:24:36Z</time>
      </trkpt>
      <trkpt lat="45.84004" lon="4.52418">
        <ele>579.4</ele>
        <time>2025-09-10T13:24:37Z</time>
      </trkpt>
      <trkpt lat="45.84004" lon="4.52419">
        <ele>579.6</ele>
        <time>2025-09-10T13:24:38Z</time>
      </trkpt>
      <trkpt lat="45.84005" lon="4.5242">
        <ele>579.6</ele>
        <time>2025-09-10T13:24:39Z</time>
      </trkpt>
      <trkpt lat="45.84005" lon="4.5242">
        <ele>579.6</ele>
        <time>2025-09-10T13:24:40Z</time>
      </trkpt>
      <trkpt lat="45.84006" lon="4.52421">
        <ele>578.8</ele>
        <time>2025-09-10T13:24:41Z</time>
      </trkpt>
      <trkpt lat="45.84006" lon="4.52422">
        <ele>579</ele>
        <time>2025-09-10T13:24:42Z</time>
      </trkpt>
      <trkpt lat="45.84006" lon="4.52423">
        <ele>579.4</ele>
        <time>2025-09-10T13:24:43Z</time>
      </trkpt>
      <trkpt lat="45.84007" lon="4.52424">
        <ele>579.8</ele>
        <time>2025-09-10T13:24:44Z</time>
      </trkpt>
      <trkpt lat="45.84007" lon="4.52424">
        <ele>580</ele>
        <time>2025-09-10T13:24:45Z</time>
      </trkpt>
      <trkpt lat="45.84008" lon="4.52426">
        <ele>580</ele>
        <time>2025-09-10T13:24:46Z</time>
      </trkpt>
      <trkpt lat="45.84009" lon="4.52426">
        <ele>580</ele>
        <time>2025-09-10T13:24:47Z</time>
      </trkpt>
      <trkpt lat="45.84009" lon="4.52427">
        <ele>580.4</ele>
        <time>2025-09-10T13:24:48Z</time>
      </trkpt>
      <trkpt lat="45.8401" lon="4.52428">
        <ele>580.4</ele>
        <time>2025-09-10T13:24:49Z</time>
      </trkpt>
      <trkpt lat="45.8401" lon="4.52429">
        <ele>580.8</ele>
        <time>2025-09-10T13:24:50Z</time>
      </trkpt>
      <trkpt lat="45.84011" lon="4.52429">
        <ele>580.8</ele>
        <time>2025-09-10T13:24:51Z</time>
      </trkpt>
      <trkpt lat="45.84011" lon="4.5243">
        <ele>581</ele>
        <time>2025-09-10T13:24:52Z</time>
      </trkpt>
      <trkpt lat="45.84012" lon="4.52431">
        <ele>581</ele>
        <time>2025-09-10T13:24:53Z</time>
      </trkpt>
      <trkpt lat="45.84012" lon="4.52432">
        <ele>581.4</ele>
        <time>2025-09-10T13:24:54Z</time>
      </trkpt>
      <trkpt lat="45.84013" lon="4.52433">
        <ele>581.6</ele>
        <time>2025-09-10T13:24:55Z</time>
      </trkpt>
      <trkpt lat="45.84014" lon="4.52434">
        <ele>581.6</ele>
        <time>2025-09-10T13:24:56Z</time>
      </trkpt>
      <trkpt lat="45.84014" lon="4.52435">
        <ele>581.8</ele>
        <time>2025-09-10T13:24:57Z</time>
      </trkpt>
      <trkpt lat="45.84015" lon="4.52435">
        <ele>581.8</ele>
        <time>2025-09-10T13:24:58Z</time>
      </trkpt>
      <trkpt lat="45.84015" lon="4.52436">
        <ele>582.2</ele>
        <time>2025-09-10T13:24:59Z</time>
      </trkpt>
      <trkpt lat="45.84016" lon="4.52437">
        <ele>582.2</ele>
        <time>2025-09-10T13:25:00Z</time>
      </trkpt>
      <trkpt lat="45.84016" lon="4.52438">
        <ele>582.2</ele>
        <time>2025-09-10T13:25:01Z</time>
      </trkpt>
      <trkpt lat="45.84017" lon="4.52439">
        <ele>582.4</ele>
        <time>2025-09-10T13:25:02Z</time>
      </trkpt>
      <trkpt lat="45.84017" lon="4.5244">
        <ele>582.4</ele>
        <time>2025-09-10T13:25:03Z</time>
      </trkpt>
      <trkpt lat="45.84017" lon="4.52441">
        <ele>582.8</ele>
        <time>2025-09-10T13:25:04Z</time>
      </trkpt>
      <trkpt lat="45.84017" lon="4.52442">
        <ele>582.8</ele>
        <time>2025-09-10T13:25:05Z</time>
      </trkpt>
      <trkpt lat="45.84018" lon="4.52443">
        <ele>582.8</ele>
        <time>2025-09-10T13:25:06Z</time>
      </trkpt>
      <trkpt lat="45.84018" lon="4.52444">
        <ele>583.2</ele>
        <time>2025-09-10T13:25:07Z</time>
      </trkpt>
      <trkpt lat="45.84019" lon="4.52444">
        <ele>583.2</ele>
        <time>2025-09-10T13:25:08Z</time>
      </trkpt>
      <trkpt lat="45.84019" lon="4.52445">
        <ele>583.2</ele>
        <time>2025-09-10T13:25:09Z</time>
      </trkpt>
      <trkpt lat="45.8402" lon="4.52446">
        <ele>583.6</ele>
        <time>2025-09-10T13:25:10Z</time>
      </trkpt>
      <trkpt lat="45.8402" lon="4.52447">
        <ele>583.8</ele>
        <time>2025-09-10T13:25:11Z</time>
      </trkpt>
      <trkpt lat="45.84021" lon="4.52447">
        <ele>583.8</ele>
        <time>2025-09-10T13:25:12Z</time>
      </trkpt>
      <trkpt lat="45.84021" lon="4.52448">
        <ele>583.8</ele>
        <time>2025-09-10T13:25:13Z</time>
      </trkpt>
      <trkpt lat="45.84022" lon="4.52449">
        <ele>584</ele>
        <time>2025-09-10T13:25:14Z</time>
      </trkpt>
      <trkpt lat="45.84022" lon="4.5245">
        <ele>584</ele>
        <time>2025-09-10T13:25:15Z</time>
      </trkpt>
      <trkpt lat="45.84023" lon="4.52451">
        <ele>584.2</ele>
        <time>2025-09-10T13:25:16Z</time>
      </trkpt>
      <trkpt lat="45.84024" lon="4.52452">
        <ele>584.2</ele>
        <time>2025-09-10T13:25:17Z</time>
      </trkpt>
      <trkpt lat="45.84025" lon="4.52453">
        <ele>584.2</ele>
        <time>2025-09-10T13:25:18Z</time>
      </trkpt>
      <trkpt lat="45.84025" lon="4.52454">
        <ele>584.4</ele>
        <time>2025-09-10T13:25:19Z</time>
      </trkpt>
      <trkpt lat="45.84025" lon="4.52454">
        <ele>584.4</ele>
        <time>2025-09-10T13:25:20Z</time>
      </trkpt>
      <trkpt lat="45.84026" lon="4.52456">
        <ele>584.6</ele>
        <time>2025-09-10T13:25:21Z</time>
      </trkpt>
      <trkpt lat="45.84026" lon="4.52457">
        <ele>585</ele>
        <time>2025-09-10T13:25:22Z</time>
      </trkpt>
      <trkpt lat="45.84027" lon="4.52458">
        <ele>585</ele>
        <time>2025-09-10T13:25:23Z</time>
      </trkpt>
      <trkpt lat="45.84028" lon="4.52458">
        <ele>585</ele>
        <time>2025-09-10T13:25:24Z</time>
      </trkpt>
      <trkpt lat="45.84029" lon="4.52459">
        <ele>585</ele>
        <time>2025-09-10T13:25:25Z</time>
      </trkpt>
      <trkpt lat="45.8403" lon="4.52459">
        <ele>585</ele>
        <time>2025-09-10T13:25:26Z</time>
      </trkpt>
      <trkpt lat="45.8403" lon="4.5246">
        <ele>585</ele>
        <time>2025-09-10T13:25:27Z</time>
      </trkpt>
      <trkpt lat="45.84031" lon="4.52461">
        <ele>585</ele>
        <time>2025-09-10T13:25:28Z</time>
      </trkpt>
      <trkpt lat="45.84031" lon="4.52462">
        <ele>585.2</ele>
        <time>2025-09-10T13:25:29Z</time>
      </trkpt>
      <trkpt lat="45.84032" lon="4.52463">
        <ele>585.2</ele>
        <time>2025-09-10T13:25:30Z</time>
      </trkpt>
      <trkpt lat="45.84032" lon="4.52463">
        <ele>585.2</ele>
        <time>2025-09-10T13:25:31Z</time>
      </trkpt>
      <trkpt lat="45.84033" lon="4.52464">
        <ele>585.2</ele>
        <time>2025-09-10T13:25:32Z</time>
      </trkpt>
      <trkpt lat="45.84034" lon="4.52464">
        <ele>585.2</ele>
        <time>2025-09-10T13:25:33Z</time>
      </trkpt>
      <trkpt lat="45.84035" lon="4.52464">
        <ele>585.2</ele>
        <time>2025-09-10T13:25:34Z</time>
      </trkpt>
      <trkpt lat="45.84035" lon="4.52464">
        <ele>585.2</ele>
        <time>2025-09-10T13:25:35Z</time>
      </trkpt>
      <trkpt lat="45.84036" lon="4.52464">
        <ele>585.2</ele>
        <time>2025-09-10T13:25:36Z</time>
      </trkpt>
      <trkpt lat="45.84036" lon="4.52464">
        <ele>585.2</ele>
        <time>2025-09-10T13:25:37Z</time>
      </trkpt>
      <trkpt lat="45.84036" lon="4.52465">
        <ele>585.6</ele>
        <time>2025-09-10T13:26:09Z</time>
      </trkpt>
      <trkpt lat="45.84036" lon="4.52465">
        <ele>585.6</ele>
        <time>2025-09-10T13:26:10Z</time>
      </trkpt>
      <trkpt lat="45.84035" lon="4.52466">
        <ele>585.6</ele>
        <time>2025-09-10T13:26:11Z</time>
      </trkpt>
      <trkpt lat="45.84035" lon="4.52466">
        <ele>585.6</ele>
        <time>2025-09-10T13:26:12Z</time>
      </trkpt>
      <trkpt lat="45.84035" lon="4.52467">
        <ele>585.6</ele>
        <time>2025-09-10T13:26:13Z</time>
      </trkpt>
      <trkpt lat="45.84035" lon="4.52469">
        <ele>585.8</ele>
        <time>2025-09-10T13:26:35Z</time>
      </trkpt>
      <trkpt lat="45.84034" lon="4.52472">
        <ele>585.8</ele>
        <time>2025-09-10T13:26:36Z</time>
      </trkpt>
      <trkpt lat="45.84032" lon="4.52474">
        <ele>585.8</ele>
        <time>2025-09-10T13:26:37Z</time>
      </trkpt>
      <trkpt lat="45.8403" lon="4.52477">
        <ele>586</ele>
        <time>2025-09-10T13:26:38Z</time>
      </trkpt>
      <trkpt lat="45.84028" lon="4.5248">
        <ele>586.2</ele>
        <time>2025-09-10T13:26:39Z</time>
      </trkpt>
      <trkpt lat="45.84026" lon="4.52483">
        <ele>586.2</ele>
        <time>2025-09-10T13:26:40Z</time>
      </trkpt>
      <trkpt lat="45.84025" lon="4.52485">
        <ele>586</ele>
        <time>2025-09-10T13:26:41Z</time>
      </trkpt>
      <trkpt lat="45.84023" lon="4.52488">
        <ele>586</ele>
        <time>2025-09-10T13:26:42Z</time>
      </trkpt>
      <trkpt lat="45.84021" lon="4.52491">
        <ele>586.4</ele>
        <time>2025-09-10T13:26:43Z</time>
      </trkpt>
      <trkpt lat="45.8402" lon="4.52494">
        <ele>586</ele>
        <time>2025-09-10T13:26:44Z</time>
      </trkpt>
      <trkpt lat="45.84018" lon="4.52497">
        <ele>586</ele>
        <time>2025-09-10T13:26:45Z</time>
      </trkpt>
      <trkpt lat="45.84017" lon="4.52499">
        <ele>586</ele>
        <time>2025-09-10T13:26:46Z</time>
      </trkpt>
      <trkpt lat="45.84016" lon="4.52501">
        <ele>586.4</ele>
        <time>2025-09-10T13:26:47Z</time>
      </trkpt>
      <trkpt lat="45.84014" lon="4.52502">
        <ele>586.6</ele>
        <time>2025-09-10T13:26:48Z</time>
      </trkpt>
      <trkpt lat="45.84013" lon="4.52505">
        <ele>587</ele>
        <time>2025-09-10T13:26:49Z</time>
      </trkpt>
      <trkpt lat="45.84012" lon="4.52506">
        <ele>587.4</ele>
        <time>2025-09-10T13:26:50Z</time>
      </trkpt>
      <trkpt lat="45.84011" lon="4.52509">
        <ele>587.6</ele>
        <time>2025-09-10T13:26:51Z</time>
      </trkpt>
      <trkpt lat="45.8401" lon="4.52511">
        <ele>587.6</ele>
        <time>2025-09-10T13:26:52Z</time>
      </trkpt>
      <trkpt lat="45.84009" lon="4.52513">
        <ele>587.6</ele>
        <time>2025-09-10T13:26:53Z</time>
      </trkpt>
      <trkpt lat="45.84008" lon="4.52516">
        <ele>588</ele>
        <time>2025-09-10T13:26:54Z</time>
      </trkpt>
      <trkpt lat="45.84007" lon="4.52518">
        <ele>588</ele>
        <time>2025-09-10T13:26:55Z</time>
      </trkpt>
      <trkpt lat="45.84007" lon="4.52521">
        <ele>588</ele>
        <time>2025-09-10T13:26:56Z</time>
      </trkpt>
      <trkpt lat="45.84006" lon="4.52523">
        <ele>588</ele>
        <time>2025-09-10T13:26:57Z</time>
      </trkpt>
      <trkpt lat="45.84005" lon="4.52525">
        <ele>588.2</ele>
        <time>2025-09-10T13:26:58Z</time>
      </trkpt>
      <trkpt lat="45.84005" lon="4.52527">
        <ele>588.2</ele>
        <time>2025-09-10T13:26:59Z</time>
      </trkpt>
      <trkpt lat="45.84004" lon="4.52528">
        <ele>588.6</ele>
        <time>2025-09-10T13:27:00Z</time>
      </trkpt>
      <trkpt lat="45.84004" lon="4.5253">
        <ele>588.6</ele>
        <time>2025-09-10T13:27:01Z</time>
      </trkpt>
      <trkpt lat="45.84003" lon="4.52532">
        <ele>588.6</ele>
        <time>2025-09-10T13:27:02Z</time>
      </trkpt>
      <trkpt lat="45.84003" lon="4.52534">
        <ele>589.2</ele>
        <time>2025-09-10T13:27:03Z</time>
      </trkpt>
      <trkpt lat="45.84003" lon="4.52535">
        <ele>589.4</ele>
        <time>2025-09-10T13:27:04Z</time>
      </trkpt>
      <trkpt lat="45.84002" lon="4.52536">
        <ele>589.4</ele>
        <time>2025-09-10T13:27:05Z</time>
      </trkpt>
      <trkpt lat="45.84001" lon="4.52538">
        <ele>589.6</ele>
        <time>2025-09-10T13:27:06Z</time>
      </trkpt>
      <trkpt lat="45.84001" lon="4.5254">
        <ele>590</ele>
        <time>2025-09-10T13:27:07Z</time>
      </trkpt>
      <trkpt lat="45.84" lon="4.52541">
        <ele>590</ele>
        <time>2025-09-10T13:27:08Z</time>
      </trkpt>
      <trkpt lat="45.84" lon="4.52543">
        <ele>590.4</ele>
        <time>2025-09-10T13:27:09Z</time>
      </trkpt>
      <trkpt lat="45.83999" lon="4.52544">
        <ele>590.4</ele>
        <time>2025-09-10T13:27:10Z</time>
      </trkpt>
      <trkpt lat="45.83999" lon="4.52546">
        <ele>590.8</ele>
        <time>2025-09-10T13:27:11Z</time>
      </trkpt>
      <trkpt lat="45.83998" lon="4.52547">
        <ele>590.8</ele>
        <time>2025-09-10T13:27:12Z</time>
      </trkpt>
      <trkpt lat="45.83997" lon="4.52548">
        <ele>591.2</ele>
        <time>2025-09-10T13:27:13Z</time>
      </trkpt>
      <trkpt lat="45.83996" lon="4.52549">
        <ele>591.4</ele>
        <time>2025-09-10T13:27:14Z</time>
      </trkpt>
      <trkpt lat="45.83995" lon="4.5255">
        <ele>591.6</ele>
        <time>2025-09-10T13:27:15Z</time>
      </trkpt>
      <trkpt lat="45.83994" lon="4.52552">
        <ele>591.6</ele>
        <time>2025-09-10T13:27:16Z</time>
      </trkpt>
      <trkpt lat="45.83994" lon="4.52554">
        <ele>591.6</ele>
        <time>2025-09-10T13:27:17Z</time>
      </trkpt>
      <trkpt lat="45.83994" lon="4.52556">
        <ele>591.8</ele>
        <time>2025-09-10T13:27:18Z</time>
      </trkpt>
      <trkpt lat="45.83994" lon="4.52558">
        <ele>591.8</ele>
        <time>2025-09-10T13:27:19Z</time>
      </trkpt>
      <trkpt lat="45.83993" lon="4.5256">
        <ele>591.8</ele>
        <time>2025-09-10T13:27:20Z</time>
      </trkpt>
      <trkpt lat="45.83993" lon="4.52561">
        <ele>591.8</ele>
        <time>2025-09-10T13:27:21Z</time>
      </trkpt>
      <trkpt lat="45.83993" lon="4.52563">
        <ele>591.8</ele>
        <time>2025-09-10T13:27:22Z</time>
      </trkpt>
      <trkpt lat="45.83992" lon="4.52565">
        <ele>591.8</ele>
        <time>2025-09-10T13:27:23Z</time>
      </trkpt>
      <trkpt lat="45.83992" lon="4.52566">
        <ele>592</ele>
        <time>2025-09-10T13:27:24Z</time>
      </trkpt>
      <trkpt lat="45.83992" lon="4.52568">
        <ele>592</ele>
        <time>2025-09-10T13:27:25Z</time>
      </trkpt>
      <trkpt lat="45.83992" lon="4.52569">
        <ele>592.6</ele>
        <time>2025-09-10T13:27:26Z</time>
      </trkpt>
      <trkpt lat="45.83992" lon="4.52571">
        <ele>593</ele>
        <time>2025-09-10T13:27:27Z</time>
      </trkpt>
      <trkpt lat="45.83991" lon="4.52572">
        <ele>593</ele>
        <time>2025-09-10T13:27:28Z</time>
      </trkpt>
      <trkpt lat="45.83991" lon="4.52574">
        <ele>593.2</ele>
        <time>2025-09-10T13:27:29Z</time>
      </trkpt>
      <trkpt lat="45.83991" lon="4.52575">
        <ele>593.2</ele>
        <time>2025-09-10T13:27:30Z</time>
      </trkpt>
      <trkpt lat="45.8399" lon="4.52577">
        <ele>593.2</ele>
        <time>2025-09-10T13:27:31Z</time>
      </trkpt>
      <trkpt lat="45.8399" lon="4.52579">
        <ele>593.6</ele>
        <time>2025-09-10T13:27:32Z</time>
      </trkpt>
      <trkpt lat="45.8399" lon="4.5258">
        <ele>593.6</ele>
        <time>2025-09-10T13:27:33Z</time>
      </trkpt>
      <trkpt lat="45.8399" lon="4.52581">
        <ele>594</ele>
        <time>2025-09-10T13:27:34Z</time>
      </trkpt>
      <trkpt lat="45.83989" lon="4.52583">
        <ele>594</ele>
        <time>2025-09-10T13:27:35Z</time>
      </trkpt>
      <trkpt lat="45.83989" lon="4.52584">
        <ele>594.2</ele>
        <time>2025-09-10T13:27:36Z</time>
      </trkpt>
      <trkpt lat="45.83988" lon="4.52586">
        <ele>594.2</ele>
        <time>2025-09-10T13:27:37Z</time>
      </trkpt>
      <trkpt lat="45.83987" lon="4.52587">
        <ele>594.4</ele>
        <time>2025-09-10T13:27:38Z</time>
      </trkpt>
      <trkpt lat="45.83987" lon="4.52589">
        <ele>594.6</ele>
        <time>2025-09-10T13:27:39Z</time>
      </trkpt>
      <trkpt lat="45.83986" lon="4.5259">
        <ele>594.6</ele>
        <time>2025-09-10T13:27:40Z</time>
      </trkpt>
      <trkpt lat="45.83985" lon="4.52592">
        <ele>595</ele>
        <time>2025-09-10T13:27:41Z</time>
      </trkpt>
      <trkpt lat="45.83985" lon="4.52593">
        <ele>595</ele>
        <time>2025-09-10T13:27:42Z</time>
      </trkpt>
      <trkpt lat="45.83984" lon="4.52595">
        <ele>595</ele>
        <time>2025-09-10T13:27:43Z</time>
      </trkpt>
      <trkpt lat="45.83983" lon="4.52597">
        <ele>595</ele>
        <time>2025-09-10T13:27:44Z</time>
      </trkpt>
      <trkpt lat="45.83982" lon="4.52598">
        <ele>595.4</ele>
        <time>2025-09-10T13:27:45Z</time>
      </trkpt>
      <trkpt lat="45.83981" lon="4.52599">
        <ele>595.4</ele>
        <time>2025-09-10T13:27:46Z</time>
      </trkpt>
      <trkpt lat="45.83981" lon="4.52602">
        <ele>595.4</ele>
        <time>2025-09-10T13:27:47Z</time>
      </trkpt>
      <trkpt lat="45.83981" lon="4.52603">
        <ele>595.6</ele>
        <time>2025-09-10T13:27:48Z</time>
      </trkpt>
      <trkpt lat="45.83981" lon="4.52605">
        <ele>595.8</ele>
        <time>2025-09-10T13:27:49Z</time>
      </trkpt>
      <trkpt lat="45.83981" lon="4.52606">
        <ele>595.8</ele>
        <time>2025-09-10T13:27:50Z</time>
      </trkpt>
      <trkpt lat="45.8398" lon="4.52608">
        <ele>596</ele>
        <time>2025-09-10T13:27:51Z</time>
      </trkpt>
      <trkpt lat="45.8398" lon="4.52609">
        <ele>596</ele>
        <time>2025-09-10T13:27:52Z</time>
      </trkpt>
      <trkpt lat="45.8398" lon="4.52611">
        <ele>596</ele>
        <time>2025-09-10T13:27:53Z</time>
      </trkpt>
      <trkpt lat="45.8398" lon="4.52613">
        <ele>596.2</ele>
        <time>2025-09-10T13:27:54Z</time>
      </trkpt>
      <trkpt lat="45.8398" lon="4.52615">
        <ele>596.2</ele>
        <time>2025-09-10T13:27:55Z</time>
      </trkpt>
      <trkpt lat="45.8398" lon="4.52615">
        <ele>596.2</ele>
        <time>2025-09-10T13:27:56Z</time>
      </trkpt>
      <trkpt lat="45.8398" lon="4.52616">
        <ele>596.2</ele>
        <time>2025-09-10T13:27:57Z</time>
      </trkpt>
      <trkpt lat="45.83979" lon="4.52618">
        <ele>596.6</ele>
        <time>2025-09-10T13:27:58Z</time>
      </trkpt>
      <trkpt lat="45.83979" lon="4.52621">
        <ele>596.6</ele>
        <time>2025-09-10T13:27:59Z</time>
      </trkpt>
      <trkpt lat="45.83979" lon="4.52623">
        <ele>596.6</ele>
        <time>2025-09-10T13:28:00Z</time>
      </trkpt>
      <trkpt lat="45.83979" lon="4.52625">
        <ele>596.6</ele>
        <time>2025-09-10T13:28:01Z</time>
      </trkpt>
      <trkpt lat="45.83979" lon="4.52626">
        <ele>596.8</ele>
        <time>2025-09-10T13:28:02Z</time>
      </trkpt>
      <trkpt lat="45.83979" lon="4.52628">
        <ele>596.8</ele>
        <time>2025-09-10T13:28:03Z</time>
      </trkpt>
      <trkpt lat="45.83979" lon="4.5263">
        <ele>597</ele>
        <time>2025-09-10T13:28:04Z</time>
      </trkpt>
      <trkpt lat="45.83979" lon="4.52632">
        <ele>597</ele>
        <time>2025-09-10T13:28:05Z</time>
      </trkpt>
      <trkpt lat="45.83979" lon="4.52634">
        <ele>597.4</ele>
        <time>2025-09-10T13:28:06Z</time>
      </trkpt>
      <trkpt lat="45.83979" lon="4.52636">
        <ele>597.4</ele>
        <time>2025-09-10T13:28:07Z</time>
      </trkpt>
      <trkpt lat="45.83978" lon="4.52638">
        <ele>597.4</ele>
        <time>2025-09-10T13:28:08Z</time>
      </trkpt>
      <trkpt lat="45.83978" lon="4.5264">
        <ele>597.4</ele>
        <time>2025-09-10T13:28:09Z</time>
      </trkpt>
      <trkpt lat="45.83977" lon="4.52641">
        <ele>597.8</ele>
        <time>2025-09-10T13:28:10Z</time>
      </trkpt>
      <trkpt lat="45.83977" lon="4.52643">
        <ele>597.8</ele>
        <time>2025-09-10T13:28:11Z</time>
      </trkpt>
      <trkpt lat="45.83977" lon="4.52644">
        <ele>598.2</ele>
        <time>2025-09-10T13:28:12Z</time>
      </trkpt>
      <trkpt lat="45.83977" lon="4.52646">
        <ele>598.2</ele>
        <time>2025-09-10T13:28:13Z</time>
      </trkpt>
      <trkpt lat="45.83977" lon="4.52647">
        <ele>598.4</ele>
        <time>2025-09-10T13:28:14Z</time>
      </trkpt>
      <trkpt lat="45.83977" lon="4.52649">
        <ele>598.4</ele>
        <time>2025-09-10T13:28:15Z</time>
      </trkpt>
      <trkpt lat="45.83977" lon="4.52652">
        <ele>598.4</ele>
        <time>2025-09-10T13:28:16Z</time>
      </trkpt>
      <trkpt lat="45.83977" lon="4.52653">
        <ele>598.4</ele>
        <time>2025-09-10T13:28:17Z</time>
      </trkpt>
      <trkpt lat="45.83977" lon="4.52655">
        <ele>598.4</ele>
        <time>2025-09-10T13:28:18Z</time>
      </trkpt>
      <trkpt lat="45.83977" lon="4.52657">
        <ele>598.4</ele>
        <time>2025-09-10T13:28:19Z</time>
      </trkpt>
      <trkpt lat="45.83976" lon="4.5266">
        <ele>598.6</ele>
        <time>2025-09-10T13:28:20Z</time>
      </trkpt>
      <trkpt lat="45.83976" lon="4.52661">
        <ele>598.6</ele>
        <time>2025-09-10T13:28:21Z</time>
      </trkpt>
      <trkpt lat="45.83976" lon="4.52663">
        <ele>598.8</ele>
        <time>2025-09-10T13:28:22Z</time>
      </trkpt>
      <trkpt lat="45.83976" lon="4.52664">
        <ele>598.8</ele>
        <time>2025-09-10T13:28:23Z</time>
      </trkpt>
      <trkpt lat="45.83976" lon="4.52666">
        <ele>598.8</ele>
        <time>2025-09-10T13:28:24Z</time>
      </trkpt>
      <trkpt lat="45.83975" lon="4.52668">
        <ele>599</ele>
        <time>2025-09-10T13:28:25Z</time>
      </trkpt>
      <trkpt lat="45.83975" lon="4.52669">
        <ele>599</ele>
        <time>2025-09-10T13:28:26Z</time>
      </trkpt>
      <trkpt lat="45.83975" lon="4.52671">
        <ele>599</ele>
        <time>2025-09-10T13:28:27Z</time>
      </trkpt>
      <trkpt lat="45.83974" lon="4.52673">
        <ele>599.2</ele>
        <time>2025-09-10T13:28:28Z</time>
      </trkpt>
      <trkpt lat="45.83974" lon="4.52675">
        <ele>599.2</ele>
        <time>2025-09-10T13:28:29Z</time>
      </trkpt>
      <trkpt lat="45.83974" lon="4.52677">
        <ele>599.2</ele>
        <time>2025-09-10T13:28:30Z</time>
      </trkpt>
      <trkpt lat="45.83974" lon="4.52679">
        <ele>599.2</ele>
        <time>2025-09-10T13:28:31Z</time>
      </trkpt>
      <trkpt lat="45.83974" lon="4.52681">
        <ele>599.2</ele>
        <time>2025-09-10T13:28:32Z</time>
      </trkpt>
      <trkpt lat="45.83974" lon="4.52683">
        <ele>599.6</ele>
        <time>2025-09-10T13:28:33Z</time>
      </trkpt>
      <trkpt lat="45.83974" lon="4.52686">
        <ele>599.6</ele>
        <time>2025-09-10T13:28:34Z</time>
      </trkpt>
      <trkpt lat="45.83974" lon="4.52688">
        <ele>599.6</ele>
        <time>2025-09-10T13:28:35Z</time>
      </trkpt>
      <trkpt lat="45.83973" lon="4.5269">
        <ele>599.6</ele>
        <time>2025-09-10T13:28:36Z</time>
      </trkpt>
      <trkpt lat="45.83973" lon="4.52692">
        <ele>600</ele>
        <time>2025-09-10T13:28:37Z</time>
      </trkpt>
      <trkpt lat="45.83972" lon="4.52694">
        <ele>600</ele>
        <time>2025-09-10T13:28:38Z</time>
      </trkpt>
      <trkpt lat="45.83972" lon="4.52696">
        <ele>600.2</ele>
        <time>2025-09-10T13:28:39Z</time>
      </trkpt>
      <trkpt lat="45.83971" lon="4.52698">
        <ele>600.2</ele>
        <time>2025-09-10T13:28:40Z</time>
      </trkpt>
      <trkpt lat="45.83971" lon="4.527">
        <ele>600.2</ele>
        <time>2025-09-10T13:28:41Z</time>
      </trkpt>
      <trkpt lat="45.8397" lon="4.52703">
        <ele>600.2</ele>
        <time>2025-09-10T13:28:42Z</time>
      </trkpt>
      <trkpt lat="45.8397" lon="4.52705">
        <ele>600.6</ele>
        <time>2025-09-10T13:28:43Z</time>
      </trkpt>
      <trkpt lat="45.8397" lon="4.52708">
        <ele>600.6</ele>
        <time>2025-09-10T13:28:44Z</time>
      </trkpt>
      <trkpt lat="45.8397" lon="4.5271">
        <ele>600.6</ele>
        <time>2025-09-10T13:28:45Z</time>
      </trkpt>
      <trkpt lat="45.83969" lon="4.52712">
        <ele>600.6</ele>
        <time>2025-09-10T13:28:46Z</time>
      </trkpt>
      <trkpt lat="45.83969" lon="4.52715">
        <ele>600.6</ele>
        <time>2025-09-10T13:28:47Z</time>
      </trkpt>
      <trkpt lat="45.83969" lon="4.52717">
        <ele>600.6</ele>
        <time>2025-09-10T13:28:48Z</time>
      </trkpt>
      <trkpt lat="45.83969" lon="4.5272">
        <ele>600.6</ele>
        <time>2025-09-10T13:28:49Z</time>
      </trkpt>
      <trkpt lat="45.83969" lon="4.52722">
        <ele>600.6</ele>
        <time>2025-09-10T13:28:50Z</time>
      </trkpt>
      <trkpt lat="45.83969" lon="4.52723">
        <ele>600.6</ele>
        <time>2025-09-10T13:28:51Z</time>
      </trkpt>
      <trkpt lat="45.83969" lon="4.52725">
        <ele>600.8</ele>
        <time>2025-09-10T13:28:52Z</time>
      </trkpt>
      <trkpt lat="45.83969" lon="4.52727">
        <ele>600.8</ele>
        <time>2025-09-10T13:28:53Z</time>
      </trkpt>
      <trkpt lat="45.83969" lon="4.52729">
        <ele>600.8</ele>
        <time>2025-09-10T13:28:54Z</time>
      </trkpt>
      <trkpt lat="45.83968" lon="4.52732">
        <ele>600.8</ele>
        <time>2025-09-10T13:28:55Z</time>
      </trkpt>
      <trkpt lat="45.83968" lon="4.52734">
        <ele>600.8</ele>
        <time>2025-09-10T13:28:56Z</time>
      </trkpt>
      <trkpt lat="45.83967" lon="4.52735">
        <ele>600.8</ele>
        <time>2025-09-10T13:28:57Z</time>
      </trkpt>
      <trkpt lat="45.83967" lon="4.52736">
        <ele>601</ele>
        <time>2025-09-10T13:28:58Z</time>
      </trkpt>
      <trkpt lat="45.83966" lon="4.52739">
        <ele>601</ele>
        <time>2025-09-10T13:28:59Z</time>
      </trkpt>
      <trkpt lat="45.83966" lon="4.52742">
        <ele>601</ele>
        <time>2025-09-10T13:29:00Z</time>
      </trkpt>
      <trkpt lat="45.83965" lon="4.52745">
        <ele>601</ele>
        <time>2025-09-10T13:29:01Z</time>
      </trkpt>
      <trkpt lat="45.83964" lon="4.52748">
        <ele>601</ele>
        <time>2025-09-10T13:29:02Z</time>
      </trkpt>
      <trkpt lat="45.83963" lon="4.52751">
        <ele>601</ele>
        <time>2025-09-10T13:29:03Z</time>
      </trkpt>
      <trkpt lat="45.83963" lon="4.52755">
        <ele>601</ele>
        <time>2025-09-10T13:29:04Z</time>
      </trkpt>
      <trkpt lat="45.83962" lon="4.52759">
        <ele>601</ele>
        <time>2025-09-10T13:29:05Z</time>
      </trkpt>
      <trkpt lat="45.83961" lon="4.52763">
        <ele>601</ele>
        <time>2025-09-10T13:29:06Z</time>
      </trkpt>
      <trkpt lat="45.8396" lon="4.52767">
        <ele>601</ele>
        <time>2025-09-10T13:29:07Z</time>
      </trkpt>
      <trkpt lat="45.83959" lon="4.52771">
        <ele>601</ele>
        <time>2025-09-10T13:29:08Z</time>
      </trkpt>
      <trkpt lat="45.83958" lon="4.52775">
        <ele>600.6</ele>
        <time>2025-09-10T13:29:09Z</time>
      </trkpt>
      <trkpt lat="45.83957" lon="4.5278">
        <ele>600.6</ele>
        <time>2025-09-10T13:29:10Z</time>
      </trkpt>
      <trkpt lat="45.83956" lon="4.52784">
        <ele>600.4</ele>
        <time>2025-09-10T13:29:11Z</time>
      </trkpt>
      <trkpt lat="45.83955" lon="4.52788">
        <ele>600.4</ele>
        <time>2025-09-10T13:29:12Z</time>
      </trkpt>
      <trkpt lat="45.83954" lon="4.5279">
        <ele>600.4</ele>
        <time>2025-09-10T13:29:13Z</time>
      </trkpt>
      <trkpt lat="45.83953" lon="4.52792">
        <ele>600.4</ele>
        <time>2025-09-10T13:29:14Z</time>
      </trkpt>
      <trkpt lat="45.83952" lon="4.52795">
        <ele>600</ele>
        <time>2025-09-10T13:29:15Z</time>
      </trkpt>
      <trkpt lat="45.83951" lon="4.52797">
        <ele>599.6</ele>
        <time>2025-09-10T13:29:16Z</time>
      </trkpt>
      <trkpt lat="45.83952" lon="4.52801">
        <ele>599.6</ele>
        <time>2025-09-10T13:29:17Z</time>
      </trkpt>
      <trkpt lat="45.83952" lon="4.52804">
        <ele>598.8</ele>
        <time>2025-09-10T13:29:18Z</time>
      </trkpt>
      <trkpt lat="45.83953" lon="4.52807">
        <ele>598.8</ele>
        <time>2025-09-10T13:29:19Z</time>
      </trkpt>
      <trkpt lat="45.83955" lon="4.52813">
        <ele>598.8</ele>
        <time>2025-09-10T13:29:20Z</time>
      </trkpt>
      <trkpt lat="45.83955" lon="4.52818">
        <ele>598.4</ele>
        <time>2025-09-10T13:29:21Z</time>
      </trkpt>
      <trkpt lat="45.83955" lon="4.52825">
        <ele>598.4</ele>
        <time>2025-09-10T13:29:22Z</time>
      </trkpt>
      <trkpt lat="45.83954" lon="4.52832">
        <ele>598</ele>
        <time>2025-09-10T13:29:23Z</time>
      </trkpt>
      <trkpt lat="45.83955" lon="4.52838">
        <ele>598</ele>
        <time>2025-09-10T13:29:24Z</time>
      </trkpt>
      <trkpt lat="45.83955" lon="4.52844">
        <ele>597.4</ele>
        <time>2025-09-10T13:29:25Z</time>
      </trkpt>
      <trkpt lat="45.83955" lon="4.52849">
        <ele>597.4</ele>
        <time>2025-09-10T13:29:26Z</time>
      </trkpt>
      <trkpt lat="45.83956" lon="4.52854">
        <ele>596.6</ele>
        <time>2025-09-10T13:29:27Z</time>
      </trkpt>
      <trkpt lat="45.83956" lon="4.52854">
        <ele>596.6</ele>
        <time>2025-09-10T13:29:28Z</time>
      </trkpt>
      <trkpt lat="45.83956" lon="4.52854">
        <ele>596.6</ele>
        <time>2025-09-10T13:29:29Z</time>
      </trkpt>
      <trkpt lat="45.83955" lon="4.52872">
        <ele>596.2</ele>
        <time>2025-09-10T13:29:30Z</time>
      </trkpt>
      <trkpt lat="45.83957" lon="4.52876">
        <ele>596</ele>
        <time>2025-09-10T13:29:31Z</time>
      </trkpt>
      <trkpt lat="45.83959" lon="4.52879">
        <ele>596</ele>
        <time>2025-09-10T13:29:32Z</time>
      </trkpt>
      <trkpt lat="45.83958" lon="4.52884">
        <ele>595.6</ele>
        <time>2025-09-10T13:29:33Z</time>
      </trkpt>
      <trkpt lat="45.83958" lon="4.52888">
        <ele>595.6</ele>
        <time>2025-09-10T13:29:34Z</time>
      </trkpt>
      <trkpt lat="45.83957" lon="4.52892">
        <ele>595.4</ele>
        <time>2025-09-10T13:29:35Z</time>
      </trkpt>
      <trkpt lat="45.83957" lon="4.52896">
        <ele>595.4</ele>
        <time>2025-09-10T13:29:36Z</time>
      </trkpt>
      <trkpt lat="45.83956" lon="4.52899">
        <ele>595.4</ele>
        <time>2025-09-10T13:29:37Z</time>
      </trkpt>
      <trkpt lat="45.83955" lon="4.52902">
        <ele>595.2</ele>
        <time>2025-09-10T13:29:38Z</time>
      </trkpt>
      <trkpt lat="45.83953" lon="4.52904">
        <ele>595.2</ele>
        <time>2025-09-10T13:29:39Z</time>
      </trkpt>
      <trkpt lat="45.83952" lon="4.52906">
        <ele>595</ele>
        <time>2025-09-10T13:29:40Z</time>
      </trkpt>
      <trkpt lat="45.83951" lon="4.52908">
        <ele>595</ele>
        <time>2025-09-10T13:29:41Z</time>
      </trkpt>
      <trkpt lat="45.83952" lon="4.5291">
        <ele>595</ele>
        <time>2025-09-10T13:29:42Z</time>
      </trkpt>
      <trkpt lat="45.83952" lon="4.52911">
        <ele>595</ele>
        <time>2025-09-10T13:29:43Z</time>
      </trkpt>
      <trkpt lat="45.83951" lon="4.52912">
        <ele>594.6</ele>
        <time>2025-09-10T13:29:44Z</time>
      </trkpt>
      <trkpt lat="45.8395" lon="4.52912">
        <ele>594.6</ele>
        <time>2025-09-10T13:29:45Z</time>
      </trkpt>
      <trkpt lat="45.83949" lon="4.52911">
        <ele>594.6</ele>
        <time>2025-09-10T13:29:46Z</time>
      </trkpt>
      <trkpt lat="45.83948" lon="4.52911">
        <ele>594.6</ele>
        <time>2025-09-10T13:29:47Z</time>
      </trkpt>
      <trkpt lat="45.83949" lon="4.52911">
        <ele>594.6</ele>
        <time>2025-09-10T13:29:48Z</time>
      </trkpt>
      <trkpt lat="45.83949" lon="4.5291">
        <ele>594.6</ele>
        <time>2025-09-10T13:29:49Z</time>
      </trkpt>
      <trkpt lat="45.83949" lon="4.5291">
        <ele>594.6</ele>
        <time>2025-09-10T13:29:50Z</time>
      </trkpt>
      <trkpt lat="45.83948" lon="4.5291">
        <ele>594.8</ele>
        <time>2025-09-10T13:29:55Z</time>
      </trkpt>
      <trkpt lat="45.8395" lon="4.5291">
        <ele>594.8</ele>
        <time>2025-09-10T13:29:56Z</time>
      </trkpt>
      <trkpt lat="45.83951" lon="4.52909">
        <ele>594.8</ele>
        <time>2025-09-10T13:29:57Z</time>
      </trkpt>
      <trkpt lat="45.83952" lon="4.52909">
        <ele>594.8</ele>
        <time>2025-09-10T13:29:58Z</time>
      </trkpt>
      <trkpt lat="45.83951" lon="4.52908">
        <ele>594.8</ele>
        <time>2025-09-10T13:29:59Z</time>
      </trkpt>
      <trkpt lat="45.83951" lon="4.52908">
        <ele>594.8</ele>
        <time>2025-09-10T13:30:00Z</time>
      </trkpt>
      <trkpt lat="45.83951" lon="4.52904">
        <ele>594.6</ele>
        <time>2025-09-10T13:30:07Z</time>
      </trkpt>
      <trkpt lat="45.83952" lon="4.52902">
        <ele>594.6</ele>
        <time>2025-09-10T13:30:08Z</time>
      </trkpt>
      <trkpt lat="45.83953" lon="4.52901">
        <ele>594.6</ele>
        <time>2025-09-10T13:30:09Z</time>
      </trkpt>
      <trkpt lat="45.83954" lon="4.52898">
        <ele>594.6</ele>
        <time>2025-09-10T13:30:10Z</time>
      </trkpt>
      <trkpt lat="45.83955" lon="4.52895">
        <ele>594.6</ele>
        <time>2025-09-10T13:30:11Z</time>
      </trkpt>
      <trkpt lat="45.83955" lon="4.52892">
        <ele>594.6</ele>
        <time>2025-09-10T13:30:12Z</time>
      </trkpt>
      <trkpt lat="45.83956" lon="4.52888">
        <ele>594.6</ele>
        <time>2025-09-10T13:30:13Z</time>
      </trkpt>
      <trkpt lat="45.83956" lon="4.52884">
        <ele>594.6</ele>
        <time>2025-09-10T13:30:14Z</time>
      </trkpt>
      <trkpt lat="45.83956" lon="4.52881">
        <ele>594.6</ele>
        <time>2025-09-10T13:30:15Z</time>
      </trkpt>
      <trkpt lat="45.83956" lon="4.52877">
        <ele>594.6</ele>
        <time>2025-09-10T13:30:16Z</time>
      </trkpt>
      <trkpt lat="45.83956" lon="4.52873">
        <ele>595.2</ele>
        <time>2025-09-10T13:30:17Z</time>
      </trkpt>
      <trkpt lat="45.83956" lon="4.5287">
        <ele>595.2</ele>
        <time>2025-09-10T13:30:18Z</time>
      </trkpt>
      <trkpt lat="45.83956" lon="4.52867">
        <ele>595.2</ele>
        <time>2025-09-10T13:30:19Z</time>
      </trkpt>
      <trkpt lat="45.83955" lon="4.52863">
        <ele>595.2</ele>
        <time>2025-09-10T13:30:20Z</time>
      </trkpt>
      <trkpt lat="45.83955" lon="4.52859">
        <ele>595.6</ele>
        <time>2025-09-10T13:30:21Z</time>
      </trkpt>
      <trkpt lat="45.83954" lon="4.52857">
        <ele>596</ele>
        <time>2025-09-10T13:30:22Z</time>
      </trkpt>
      <trkpt lat="45.83953" lon="4.52854">
        <ele>596.2</ele>
        <time>2025-09-10T13:30:23Z</time>
      </trkpt>
      <trkpt lat="45.83953" lon="4.52854">
        <ele>596.2</ele>
        <time>2025-09-10T13:30:24Z</time>
      </trkpt>
      <trkpt lat="45.83953" lon="4.52851">
        <ele>596.2</ele>
        <time>2025-09-10T13:30:25Z</time>
      </trkpt>
      <trkpt lat="45.83953" lon="4.52847">
        <ele>596.4</ele>
        <time>2025-09-10T13:30:26Z</time>
      </trkpt>
      <trkpt lat="45.83953" lon="4.52844">
        <ele>596.4</ele>
        <time>2025-09-10T13:30:27Z</time>
      </trkpt>
      <trkpt lat="45.83953" lon="4.52841">
        <ele>596.4</ele>
        <time>2025-09-10T13:30:28Z</time>
      </trkpt>
      <trkpt lat="45.83953" lon="4.52839">
        <ele>596.4</ele>
        <time>2025-09-10T13:30:29Z</time>
      </trkpt>
      <trkpt lat="45.83952" lon="4.52837">
        <ele>596.4</ele>
        <time>2025-09-10T13:30:30Z</time>
      </trkpt>
      <trkpt lat="45.83952" lon="4.52834">
        <ele>596.8</ele>
        <time>2025-09-10T13:30:31Z</time>
      </trkpt>
      <trkpt lat="45.83952" lon="4.52829">
        <ele>596.8</ele>
        <time>2025-09-10T13:30:32Z</time>
      </trkpt>
      <trkpt lat="45.83952" lon="4.52826">
        <ele>596.8</ele>
        <time>2025-09-10T13:30:33Z</time>
      </trkpt>
      <trkpt lat="45.83953" lon="4.52823">
        <ele>596.8</ele>
        <time>2025-09-10T13:30:34Z</time>
      </trkpt>
      <trkpt lat="45.83953" lon="4.5282">
        <ele>597</ele>
        <time>2025-09-10T13:30:35Z</time>
      </trkpt>
      <trkpt lat="45.83953" lon="4.52818">
        <ele>597</ele>
        <time>2025-09-10T13:30:36Z</time>
      </trkpt>
      <trkpt lat="45.83954" lon="4.52815">
        <ele>597.6</ele>
        <time>2025-09-10T13:30:37Z</time>
      </trkpt>
      <trkpt lat="45.83954" lon="4.52813">
        <ele>597.6</ele>
        <time>2025-09-10T13:30:38Z</time>
      </trkpt>
      <trkpt lat="45.83955" lon="4.5281">
        <ele>597.6</ele>
        <time>2025-09-10T13:30:39Z</time>
      </trkpt>
      <trkpt lat="45.83957" lon="4.52808">
        <ele>597.8</ele>
        <time>2025-09-10T13:30:40Z</time>
      </trkpt>
      <trkpt lat="45.83957" lon="4.52807">
        <ele>597.8</ele>
        <time>2025-09-10T13:30:41Z</time>
      </trkpt>
      <trkpt lat="45.83957" lon="4.52805">
        <ele>597.8</ele>
        <time>2025-09-10T13:30:42Z</time>
      </trkpt>
      <trkpt lat="45.83957" lon="4.52803">
        <ele>598.2</ele>
        <time>2025-09-10T13:30:43Z</time>
      </trkpt>
      <trkpt lat="45.83956" lon="4.52801">
        <ele>598.6</ele>
        <time>2025-09-10T13:30:44Z</time>
      </trkpt>
      <trkpt lat="45.83955" lon="4.528">
        <ele>598.8</ele>
        <time>2025-09-10T13:30:45Z</time>
      </trkpt>
      <trkpt lat="45.83954" lon="4.52799">
        <ele>599.2</ele>
        <time>2025-09-10T13:30:46Z</time>
      </trkpt>
      <trkpt lat="45.83953" lon="4.52798">
        <ele>599.4</ele>
        <time>2025-09-10T13:30:47Z</time>
      </trkpt>
      <trkpt lat="45.83952" lon="4.52798">
        <ele>599.6</ele>
        <time>2025-09-10T13:30:48Z</time>
      </trkpt>
      <trkpt lat="45.83951" lon="4.52797">
        <ele>599.8</ele>
        <time>2025-09-10T13:30:54Z</time>
      </trkpt>
      <trkpt lat="45.8395" lon="4.52796">
        <ele>599.8</ele>
        <time>2025-09-10T13:30:55Z</time>
      </trkpt>
      <trkpt lat="45.83949" lon="4.52795">
        <ele>599.8</ele>
        <time>2025-09-10T13:30:56Z</time>
      </trkpt>
      <trkpt lat="45.83949" lon="4.52793">
        <ele>600</ele>
        <time>2025-09-10T13:30:57Z</time>
      </trkpt>
      <trkpt lat="45.83949" lon="4.52793">
        <ele>600</ele>
        <time>2025-09-10T13:30:58Z</time>
      </trkpt>
      <trkpt lat="45.83948" lon="4.52792">
        <ele>600</ele>
        <time>2025-09-10T13:30:59Z</time>
      </trkpt>
      <trkpt lat="45.83948" lon="4.52792">
        <ele>600</ele>
        <time>2025-09-10T13:31:00Z</time>
      </trkpt>
      <trkpt lat="45.83947" lon="4.52792">
        <ele>600</ele>
        <time>2025-09-10T13:31:01Z</time>
      </trkpt>
      <trkpt lat="45.83947" lon="4.52791">
        <ele>600</ele>
        <time>2025-09-10T13:31:02Z</time>
      </trkpt>
      <trkpt lat="45.83947" lon="4.52791">
        <ele>600</ele>
        <time>2025-09-10T13:31:03Z</time>
      </trkpt>
      <trkpt lat="45.83947" lon="4.52793">
        <ele>600.4</ele>
        <time>2025-09-10T13:33:29Z</time>
      </trkpt>
      <trkpt lat="45.83947" lon="4.52794">
        <ele>600.4</ele>
        <time>2025-09-10T13:33:30Z</time>
      </trkpt>
      <trkpt lat="45.83948" lon="4.52795">
        <ele>600.4</ele>
        <time>2025-09-10T13:33:31Z</time>
      </trkpt>
      <trkpt lat="45.83948" lon="4.52796">
        <ele>600</ele>
        <time>2025-09-10T13:33:32Z</time>
      </trkpt>
      <trkpt lat="45.83949" lon="4.52796">
        <ele>599.8</ele>
        <time>2025-09-10T13:33:33Z</time>
      </trkpt>
      <trkpt lat="45.83951" lon="4.52796">
        <ele>599.8</ele>
        <time>2025-09-10T13:33:34Z</time>
      </trkpt>
      <trkpt lat="45.83952" lon="4.52796">
        <ele>599.6</ele>
        <time>2025-09-10T13:33:35Z</time>
      </trkpt>
      <trkpt lat="45.83953" lon="4.52795">
        <ele>599.6</ele>
        <time>2025-09-10T13:33:36Z</time>
      </trkpt>
      <trkpt lat="45.83954" lon="4.52795">
        <ele>599.6</ele>
        <time>2025-09-10T13:33:37Z</time>
      </trkpt>
      <trkpt lat="45.83954" lon="4.52795">
        <ele>599.6</ele>
        <time>2025-09-10T13:33:38Z</time>
      </trkpt>
      <trkpt lat="45.83956" lon="4.52792">
        <ele>599.8</ele>
        <time>2025-09-10T13:33:45Z</time>
      </trkpt>
      <trkpt lat="45.83957" lon="4.52791">
        <ele>599.8</ele>
        <time>2025-09-10T13:33:46Z</time>
      </trkpt>
      <trkpt lat="45.83958" lon="4.5279">
        <ele>599.8</ele>
        <time>2025-09-10T13:33:47Z</time>
      </trkpt>
      <trkpt lat="45.83958" lon="4.52788">
        <ele>599.8</ele>
        <time>2025-09-10T13:33:48Z</time>
      </trkpt>
      <trkpt lat="45.83958" lon="4.52785">
        <ele>599.8</ele>
        <time>2025-09-10T13:33:49Z</time>
      </trkpt>
      <trkpt lat="45.83958" lon="4.52782">
        <ele>599.8</ele>
        <time>2025-09-10T13:33:50Z</time>
      </trkpt>
      <trkpt lat="45.83958" lon="4.52781">
        <ele>599.8</ele>
        <time>2025-09-10T13:33:51Z</time>
      </trkpt>
      <trkpt lat="45.83958" lon="4.52778">
        <ele>599.6</ele>
        <time>2025-09-10T13:33:52Z</time>
      </trkpt>
      <trkpt lat="45.83958" lon="4.52775">
        <ele>599.6</ele>
        <time>2025-09-10T13:33:53Z</time>
      </trkpt>
      <trkpt lat="45.83959" lon="4.52773">
        <ele>599.8</ele>
        <time>2025-09-10T13:33:54Z</time>
      </trkpt>
      <trkpt lat="45.83959" lon="4.5277">
        <ele>599.8</ele>
        <time>2025-09-10T13:33:55Z</time>
      </trkpt>
      <trkpt lat="45.83959" lon="4.52767">
        <ele>600</ele>
        <time>2025-09-10T13:33:56Z</time>
      </trkpt>
      <trkpt lat="45.83959" lon="4.52764">
        <ele>600</ele>
        <time>2025-09-10T13:33:57Z</time>
      </trkpt>
      <trkpt lat="45.8396" lon="4.52762">
        <ele>600</ele>
        <time>2025-09-10T13:33:58Z</time>
      </trkpt>
      <trkpt lat="45.8396" lon="4.5276">
        <ele>600</ele>
        <time>2025-09-10T13:33:59Z</time>
      </trkpt>
      <trkpt lat="45.8396" lon="4.52758">
        <ele>600</ele>
        <time>2025-09-10T13:34:00Z</time>
      </trkpt>
      <trkpt lat="45.83961" lon="4.52756">
        <ele>600.4</ele>
        <time>2025-09-10T13:34:01Z</time>
      </trkpt>
      <trkpt lat="45.83961" lon="4.52755">
        <ele>600.4</ele>
        <time>2025-09-10T13:34:02Z</time>
      </trkpt>
      <trkpt lat="45.83962" lon="4.52752">
        <ele>600.8</ele>
        <time>2025-09-10T13:34:03Z</time>
      </trkpt>
      <trkpt lat="45.83962" lon="4.52749">
        <ele>600.8</ele>
        <time>2025-09-10T13:34:04Z</time>
      </trkpt>
      <trkpt lat="45.83962" lon="4.52746">
        <ele>600.8</ele>
        <time>2025-09-10T13:34:05Z</time>
      </trkpt>
      <trkpt lat="45.83963" lon="4.52743">
        <ele>600.8</ele>
        <time>2025-09-10T13:34:06Z</time>
      </trkpt>
      <trkpt lat="45.83964" lon="4.5274">
        <ele>601</ele>
        <time>2025-09-10T13:34:07Z</time>
      </trkpt>
      <trkpt lat="45.83965" lon="4.52737">
        <ele>601</ele>
        <time>2025-09-10T13:34:08Z</time>
      </trkpt>
      <trkpt lat="45.83965" lon="4.52734">
        <ele>601</ele>
        <time>2025-09-10T13:34:09Z</time>
      </trkpt>
      <trkpt lat="45.83966" lon="4.52731">
        <ele>601</ele>
        <time>2025-09-10T13:34:10Z</time>
      </trkpt>
      <trkpt lat="45.83967" lon="4.52728">
        <ele>601</ele>
        <time>2025-09-10T13:34:11Z</time>
      </trkpt>
      <trkpt lat="45.83967" lon="4.52725">
        <ele>601</ele>
        <time>2025-09-10T13:34:12Z</time>
      </trkpt>
      <trkpt lat="45.83968" lon="4.52722">
        <ele>601</ele>
        <time>2025-09-10T13:34:13Z</time>
      </trkpt>
      <trkpt lat="45.83968" lon="4.52719">
        <ele>601</ele>
        <time>2025-09-10T13:34:14Z</time>
      </trkpt>
      <trkpt lat="45.83969" lon="4.52715">
        <ele>601</ele>
        <time>2025-09-10T13:34:15Z</time>
      </trkpt>
      <trkpt lat="45.8397" lon="4.52712">
        <ele>601</ele>
        <time>2025-09-10T13:34:16Z</time>
      </trkpt>
      <trkpt lat="45.8397" lon="4.52708">
        <ele>601</ele>
        <time>2025-09-10T13:34:17Z</time>
      </trkpt>
      <trkpt lat="45.83971" lon="4.52705">
        <ele>601</ele>
        <time>2025-09-10T13:34:18Z</time>
      </trkpt>
      <trkpt lat="45.83971" lon="4.52702">
        <ele>601</ele>
        <time>2025-09-10T13:34:19Z</time>
      </trkpt>
      <trkpt lat="45.83971" lon="4.52698">
        <ele>601</ele>
        <time>2025-09-10T13:34:20Z</time>
      </trkpt>
      <trkpt lat="45.83972" lon="4.52694">
        <ele>601</ele>
        <time>2025-09-10T13:34:21Z</time>
      </trkpt>
      <trkpt lat="45.83972" lon="4.5269">
        <ele>601</ele>
        <time>2025-09-10T13:34:22Z</time>
      </trkpt>
      <trkpt lat="45.83973" lon="4.52686">
        <ele>599.8</ele>
        <time>2025-09-10T13:34:23Z</time>
      </trkpt>
      <trkpt lat="45.83973" lon="4.52681">
        <ele>600.8</ele>
        <time>2025-09-10T13:34:24Z</time>
      </trkpt>
      <trkpt lat="45.83974" lon="4.52677">
        <ele>600.8</ele>
        <time>2025-09-10T13:34:25Z</time>
      </trkpt>
      <trkpt lat="45.83974" lon="4.52673">
        <ele>600.8</ele>
        <time>2025-09-10T13:34:26Z</time>
      </trkpt>
      <trkpt lat="45.83975" lon="4.52669">
        <ele>600.4</ele>
        <time>2025-09-10T13:34:27Z</time>
      </trkpt>
      <trkpt lat="45.83975" lon="4.52665">
        <ele>600.4</ele>
        <time>2025-09-10T13:34:28Z</time>
      </trkpt>
      <trkpt lat="45.83975" lon="4.52661">
        <ele>599.8</ele>
        <time>2025-09-10T13:34:29Z</time>
      </trkpt>
      <trkpt lat="45.83976" lon="4.52657">
        <ele>600.2</ele>
        <time>2025-09-10T13:34:30Z</time>
      </trkpt>
      <trkpt lat="45.83976" lon="4.52653">
        <ele>600</ele>
        <time>2025-09-10T13:34:31Z</time>
      </trkpt>
      <trkpt lat="45.83976" lon="4.52651">
        <ele>600</ele>
        <time>2025-09-10T13:34:32Z</time>
      </trkpt>
      <trkpt lat="45.83977" lon="4.52644">
        <ele>599.6</ele>
        <time>2025-09-10T13:34:33Z</time>
      </trkpt>
      <trkpt lat="45.83978" lon="4.5264">
        <ele>599</ele>
        <time>2025-09-10T13:34:34Z</time>
      </trkpt>
      <trkpt lat="45.83978" lon="4.52635">
        <ele>598.6</ele>
        <time>2025-09-10T13:34:35Z</time>
      </trkpt>
      <trkpt lat="45.83978" lon="4.5263">
        <ele>598.4</ele>
        <time>2025-09-10T13:34:36Z</time>
      </trkpt>
      <trkpt lat="45.83979" lon="4.52626">
        <ele>598.4</ele>
        <time>2025-09-10T13:34:37Z</time>
      </trkpt>
      <trkpt lat="45.83979" lon="4.52622">
        <ele>598</ele>
        <time>2025-09-10T13:34:38Z</time>
      </trkpt>
      <trkpt lat="45.8398" lon="4.52617">
        <ele>598</ele>
        <time>2025-09-10T13:34:39Z</time>
      </trkpt>
      <trkpt lat="45.83981" lon="4.52613">
        <ele>598</ele>
        <time>2025-09-10T13:34:40Z</time>
      </trkpt>
      <trkpt lat="45.83981" lon="4.52609">
        <ele>597.6</ele>
        <time>2025-09-10T13:34:41Z</time>
      </trkpt>
      <trkpt lat="45.83981" lon="4.52605">
        <ele>597.6</ele>
        <time>2025-09-10T13:34:42Z</time>
      </trkpt>
      <trkpt lat="45.83982" lon="4.52601">
        <ele>597.4</ele>
        <time>2025-09-10T13:34:43Z</time>
      </trkpt>
      <trkpt lat="45.83982" lon="4.52597">
        <ele>597</ele>
        <time>2025-09-10T13:34:44Z</time>
      </trkpt>
      <trkpt lat="45.83983" lon="4.52593">
        <ele>596.8</ele>
        <time>2025-09-10T13:34:45Z</time>
      </trkpt>
      <trkpt lat="45.83984" lon="4.5259">
        <ele>596.4</ele>
        <time>2025-09-10T13:34:46Z</time>
      </trkpt>
      <trkpt lat="45.83984" lon="4.5259">
        <ele>596</ele>
        <time>2025-09-10T13:34:47Z</time>
      </trkpt>
      <trkpt lat="45.83984" lon="4.52588">
        <ele>595.6</ele>
        <time>2025-09-10T13:34:48Z</time>
      </trkpt>
      <trkpt lat="45.83985" lon="4.52585">
        <ele>595.4</ele>
        <time>2025-09-10T13:34:49Z</time>
      </trkpt>
      <trkpt lat="45.83986" lon="4.52583">
        <ele>595.2</ele>
        <time>2025-09-10T13:34:50Z</time>
      </trkpt>
      <trkpt lat="45.83987" lon="4.5258">
        <ele>594.8</ele>
        <time>2025-09-10T13:34:51Z</time>
      </trkpt>
      <trkpt lat="45.83988" lon="4.52577">
        <ele>594.8</ele>
        <time>2025-09-10T13:34:52Z</time>
      </trkpt>
      <trkpt lat="45.83989" lon="4.52574">
        <ele>594.6</ele>
        <time>2025-09-10T13:34:53Z</time>
      </trkpt>
      <trkpt lat="45.83989" lon="4.5257">
        <ele>594.6</ele>
        <time>2025-09-10T13:34:54Z</time>
      </trkpt>
      <trkpt lat="45.8399" lon="4.52566">
        <ele>594.2</ele>
        <time>2025-09-10T13:34:55Z</time>
      </trkpt>
      <trkpt lat="45.83991" lon="4.52562">
        <ele>594.2</ele>
        <time>2025-09-10T13:34:56Z</time>
      </trkpt>
      <trkpt lat="45.83991" lon="4.52559">
        <ele>594</ele>
        <time>2025-09-10T13:34:57Z</time>
      </trkpt>
      <trkpt lat="45.83992" lon="4.52556">
        <ele>593.4</ele>
        <time>2025-09-10T13:34:58Z</time>
      </trkpt>
      <trkpt lat="45.83993" lon="4.52553">
        <ele>593.2</ele>
        <time>2025-09-10T13:34:59Z</time>
      </trkpt>
      <trkpt lat="45.83994" lon="4.5255">
        <ele>592.8</ele>
        <time>2025-09-10T13:35:00Z</time>
      </trkpt>
      <trkpt lat="45.83995" lon="4.52547">
        <ele>592.8</ele>
        <time>2025-09-10T13:35:01Z</time>
      </trkpt>
      <trkpt lat="45.83996" lon="4.52544">
        <ele>592.4</ele>
        <time>2025-09-10T13:35:02Z</time>
      </trkpt>
      <trkpt lat="45.83998" lon="4.52541">
        <ele>592.4</ele>
        <time>2025-09-10T13:35:03Z</time>
      </trkpt>
      <trkpt lat="45.83999" lon="4.52538">
        <ele>591.8</ele>
        <time>2025-09-10T13:35:04Z</time>
      </trkpt>
      <trkpt lat="45.84" lon="4.52536">
        <ele>591.4</ele>
        <time>2025-09-10T13:35:05Z</time>
      </trkpt>
      <trkpt lat="45.84001" lon="4.52533">
        <ele>591.4</ele>
        <time>2025-09-10T13:35:06Z</time>
      </trkpt>
      <trkpt lat="45.84002" lon="4.52529">
        <ele>590.4</ele>
        <time>2025-09-10T13:35:07Z</time>
      </trkpt>
      <trkpt lat="45.84003" lon="4.52524">
        <ele>590</ele>
        <time>2025-09-10T13:35:08Z</time>
      </trkpt>
      <trkpt lat="45.84004" lon="4.52519">
        <ele>589.6</ele>
        <time>2025-09-10T13:35:09Z</time>
      </trkpt>
      <trkpt lat="45.84006" lon="4.52515">
        <ele>589.2</ele>
        <time>2025-09-10T13:35:10Z</time>
      </trkpt>
      <trkpt lat="45.84007" lon="4.52511">
        <ele>589</ele>
        <time>2025-09-10T13:35:11Z</time>
      </trkpt>
      <trkpt lat="45.8401" lon="4.52508">
        <ele>588.8</ele>
        <time>2025-09-10T13:35:12Z</time>
      </trkpt>
      <trkpt lat="45.84013" lon="4.52505">
        <ele>588</ele>
        <time>2025-09-10T13:35:13Z</time>
      </trkpt>
      <trkpt lat="45.84015" lon="4.52502">
        <ele>588</ele>
        <time>2025-09-10T13:35:14Z</time>
      </trkpt>
      <trkpt lat="45.84017" lon="4.52499">
        <ele>587.8</ele>
        <time>2025-09-10T13:35:15Z</time>
      </trkpt>
      <trkpt lat="45.84019" lon="4.52497">
        <ele>587.8</ele>
        <time>2025-09-10T13:35:16Z</time>
      </trkpt>
      <trkpt lat="45.84021" lon="4.52494">
        <ele>587.4</ele>
        <time>2025-09-10T13:35:17Z</time>
      </trkpt>
      <trkpt lat="45.84023" lon="4.5249">
        <ele>587.2</ele>
        <time>2025-09-10T13:35:18Z</time>
      </trkpt>
      <trkpt lat="45.84025" lon="4.52485">
        <ele>587</ele>
        <time>2025-09-10T13:35:19Z</time>
      </trkpt>
      <trkpt lat="45.84026" lon="4.52481">
        <ele>586.8</ele>
        <time>2025-09-10T13:35:20Z</time>
      </trkpt>
      <trkpt lat="45.84028" lon="4.52478">
        <ele>586.8</ele>
        <time>2025-09-10T13:35:21Z</time>
      </trkpt>
      <trkpt lat="45.84028" lon="4.52476">
        <ele>586.8</ele>
        <time>2025-09-10T13:35:22Z</time>
      </trkpt>
      <trkpt lat="45.84029" lon="4.52473">
        <ele>586.8</ele>
        <time>2025-09-10T13:35:23Z</time>
      </trkpt>
      <trkpt lat="45.84031" lon="4.52472">
        <ele>586.4</ele>
        <time>2025-09-10T13:35:24Z</time>
      </trkpt>
      <trkpt lat="45.84033" lon="4.52473">
        <ele>586.4</ele>
        <time>2025-09-10T13:35:25Z</time>
      </trkpt>
      <trkpt lat="45.84034" lon="4.52474">
        <ele>586.4</ele>
        <time>2025-09-10T13:35:26Z</time>
      </trkpt>
      <trkpt lat="45.84036" lon="4.52475">
        <ele>586.4</ele>
        <time>2025-09-10T13:35:27Z</time>
      </trkpt>
      <trkpt lat="45.84037" lon="4.52476">
        <ele>586</ele>
        <time>2025-09-10T13:35:28Z</time>
      </trkpt>
      <trkpt lat="45.84039" lon="4.52477">
        <ele>585.4</ele>
        <time>2025-09-10T13:35:29Z</time>
      </trkpt>
      <trkpt lat="45.84041" lon="4.52478">
        <ele>585.4</ele>
        <time>2025-09-10T13:35:30Z</time>
      </trkpt>
      <trkpt lat="45.84043" lon="4.5248">
        <ele>585.2</ele>
        <time>2025-09-10T13:35:31Z</time>
      </trkpt>
      <trkpt lat="45.84044" lon="4.52481">
        <ele>585</ele>
        <time>2025-09-10T13:35:32Z</time>
      </trkpt>
      <trkpt lat="45.84046" lon="4.52482">
        <ele>585</ele>
        <time>2025-09-10T13:35:33Z</time>
      </trkpt>
      <trkpt lat="45.84047" lon="4.52482">
        <ele>584.6</ele>
        <time>2025-09-10T13:35:34Z</time>
      </trkpt>
      <trkpt lat="45.84048" lon="4.52482">
        <ele>584.6</ele>
        <time>2025-09-10T13:35:35Z</time>
      </trkpt>
      <trkpt lat="45.84049" lon="4.52478">
        <ele>584.2</ele>
        <time>2025-09-10T13:36:20Z</time>
      </trkpt>
      <trkpt lat="45.84049" lon="4.52477">
        <ele>584.2</ele>
        <time>2025-09-10T13:36:21Z</time>
      </trkpt>
      <trkpt lat="45.84049" lon="4.52477">
        <ele>584.2</ele>
        <time>2025-09-10T13:36:22Z</time>
      </trkpt>
      <trkpt lat="45.84049" lon="4.52477">
        <ele>584.2</ele>
        <time>2025-09-10T13:36:23Z</time>
      </trkpt>
      <trkpt lat="45.84048" lon="4.52477">
        <ele>584.2</ele>
        <time>2025-09-10T13:36:24Z</time>
      </trkpt>
      <trkpt lat="45.84047" lon="4.52476">
        <ele>584.2</ele>
        <time>2025-09-10T13:36:25Z</time>
      </trkpt>
      <trkpt lat="45.84046" lon="4.52476">
        <ele>584.2</ele>
        <time>2025-09-10T13:36:26Z</time>
      </trkpt>
      <trkpt lat="45.84044" lon="4.52476">
        <ele>584.6</ele>
        <time>2025-09-10T13:36:27Z</time>
      </trkpt>
      <trkpt lat="45.84042" lon="4.52476">
        <ele>584.6</ele>
        <time>2025-09-10T13:36:28Z</time>
      </trkpt>
      <trkpt lat="45.84041" lon="4.52476">
        <ele>585</ele>
        <time>2025-09-10T13:36:29Z</time>
      </trkpt>
      <trkpt lat="45.8404" lon="4.52475">
        <ele>585.2</ele>
        <time>2025-09-10T13:36:30Z</time>
      </trkpt>
      <trkpt lat="45.84039" lon="4.52474">
        <ele>585.2</ele>
        <time>2025-09-10T13:36:31Z</time>
      </trkpt>
      <trkpt lat="45.84038" lon="4.52473">
        <ele>585.6</ele>
        <time>2025-09-10T13:36:32Z</time>
      </trkpt>
      <trkpt lat="45.84038" lon="4.52472">
        <ele>585.8</ele>
        <time>2025-09-10T13:36:33Z</time>
      </trkpt>
      <trkpt lat="45.84037" lon="4.52472">
        <ele>585.8</ele>
        <time>2025-09-10T13:36:34Z</time>
      </trkpt>
      <trkpt lat="45.84036" lon="4.52471">
        <ele>586</ele>
        <time>2025-09-10T13:36:35Z</time>
      </trkpt>
      <trkpt lat="45.84035" lon="4.5247">
        <ele>586</ele>
        <time>2025-09-10T13:36:36Z</time>
      </trkpt>
      <trkpt lat="45.84034" lon="4.52469">
        <ele>586</ele>
        <time>2025-09-10T13:36:37Z</time>
      </trkpt>
      <trkpt lat="45.84034" lon="4.52468">
        <ele>586</ele>
        <time>2025-09-10T13:36:38Z</time>
      </trkpt>
      <trkpt lat="45.84033" lon="4.52466">
        <ele>586</ele>
        <time>2025-09-10T13:36:39Z</time>
      </trkpt>
      <trkpt lat="45.84033" lon="4.52465">
        <ele>586</ele>
        <time>2025-09-10T13:36:40Z</time>
      </trkpt>
      <trkpt lat="45.84033" lon="4.52463">
        <ele>586</ele>
        <time>2025-09-10T13:36:41Z</time>
      </trkpt>
      <trkpt lat="45.84033" lon="4.52463">
        <ele>586</ele>
        <time>2025-09-10T13:36:42Z</time>
      </trkpt>
      <trkpt lat="45.84033" lon="4.52462">
        <ele>586</ele>
        <time>2025-09-10T13:36:43Z</time>
      </trkpt>
      <trkpt lat="45.84037" lon="4.52463">
        <ele>587.4</ele>
        <time>2025-09-10T13:42:11Z</time>
      </trkpt>
      <trkpt lat="45.84038" lon="4.52463">
        <ele>587.4</ele>
        <time>2025-09-10T13:42:12Z</time>
      </trkpt>
      <trkpt lat="45.84038" lon="4.52463">
        <ele>587.4</ele>
        <time>2025-09-10T13:42:13Z</time>
      </trkpt>
      <trkpt lat="45.84038" lon="4.52463">
        <ele>587.4</ele>
        <time>2025-09-10T13:42:14Z</time>
      </trkpt>
      <trkpt lat="45.84038" lon="4.52464">
        <ele>587.2</ele>
        <time>2025-09-10T13:42:16Z</time>
      </trkpt>
      <trkpt lat="45.84038" lon="4.52465">
        <ele>587.2</ele>
        <time>2025-09-10T13:42:17Z</time>
      </trkpt>
      <trkpt lat="45.84037" lon="4.52465">
        <ele>587.2</ele>
        <time>2025-09-10T13:42:18Z</time>
      </trkpt>
      <trkpt lat="45.84037" lon="4.52465">
        <ele>587.2</ele>
        <time>2025-09-10T13:42:19Z</time>
      </trkpt>
      <trkpt lat="45.84036" lon="4.52467">
        <ele>587</ele>
        <time>2025-09-10T13:42:24Z</time>
      </trkpt>
      <trkpt lat="45.84036" lon="4.52469">
        <ele>587</ele>
        <time>2025-09-10T13:42:25Z</time>
      </trkpt>
      <trkpt lat="45.84037" lon="4.5247">
        <ele>587</ele>
        <time>2025-09-10T13:42:26Z</time>
      </trkpt>
      <trkpt lat="45.84037" lon="4.52471">
        <ele>587</ele>
        <time>2025-09-10T13:42:27Z</time>
      </trkpt>
      <trkpt lat="45.84038" lon="4.52472">
        <ele>586.8</ele>
        <time>2025-09-10T13:42:28Z</time>
      </trkpt>
      <trkpt lat="45.84039" lon="4.52474">
        <ele>586.4</ele>
        <time>2025-09-10T13:42:29Z</time>
      </trkpt>
      <trkpt lat="45.8404" lon="4.52475">
        <ele>586.4</ele>
        <time>2025-09-10T13:42:30Z</time>
      </trkpt>
      <trkpt lat="45.84041" lon="4.52477">
        <ele>586.2</ele>
        <time>2025-09-10T13:42:31Z</time>
      </trkpt>
      <trkpt lat="45.84042" lon="4.52478">
        <ele>586.2</ele>
        <time>2025-09-10T13:42:32Z</time>
      </trkpt>
      <trkpt lat="45.84044" lon="4.5248">
        <ele>585.8</ele>
        <time>2025-09-10T13:42:33Z</time>
      </trkpt>
      <trkpt lat="45.84045" lon="4.52481">
        <ele>585.4</ele>
        <time>2025-09-10T13:42:34Z</time>
      </trkpt>
      <trkpt lat="45.84046" lon="4.52482">
        <ele>585.2</ele>
        <time>2025-09-10T13:42:35Z</time>
      </trkpt>
      <trkpt lat="45.84047" lon="4.52482">
        <ele>585.2</ele>
        <time>2025-09-10T13:42:36Z</time>
      </trkpt>
      <trkpt lat="45.84047" lon="4.52482">
        <ele>584.6</ele>
        <time>2025-09-10T13:42:37Z</time>
      </trkpt>
      <trkpt lat="45.84047" lon="4.52482">
        <ele>584.4</ele>
        <time>2025-09-10T13:42:38Z</time>
      </trkpt>
      <trkpt lat="45.84049" lon="4.52482">
        <ele>584</ele>
        <time>2025-09-10T13:42:44Z</time>
      </trkpt>
      <trkpt lat="45.8405" lon="4.52483">
        <ele>583.8</ele>
        <time>2025-09-10T13:42:45Z</time>
      </trkpt>
      <trkpt lat="45.84051" lon="4.52484">
        <ele>583.8</ele>
        <time>2025-09-10T13:42:46Z</time>
      </trkpt>
      <trkpt lat="45.84051" lon="4.52484">
        <ele>583.2</ele>
        <time>2025-09-10T13:42:47Z</time>
      </trkpt>
      <trkpt lat="45.84052" lon="4.52485">
        <ele>583</ele>
        <time>2025-09-10T13:42:48Z</time>
      </trkpt>
      <trkpt lat="45.84053" lon="4.52486">
        <ele>582.8</ele>
        <time>2025-09-10T13:42:49Z</time>
      </trkpt>
      <trkpt lat="45.84053" lon="4.52486">
        <ele>582.8</ele>
        <time>2025-09-10T13:42:50Z</time>
      </trkpt>
      <trkpt lat="45.84054" lon="4.52486">
        <ele>582.4</ele>
        <time>2025-09-10T13:42:51Z</time>
      </trkpt>
      <trkpt lat="45.84057" lon="4.52487">
        <ele>582</ele>
        <time>2025-09-10T13:45:17Z</time>
      </trkpt>
      <trkpt lat="45.84058" lon="4.52488">
        <ele>582</ele>
        <time>2025-09-10T13:45:18Z</time>
      </trkpt>
      <trkpt lat="45.84059" lon="4.52488">
        <ele>581.6</ele>
        <time>2025-09-10T13:45:19Z</time>
      </trkpt>
      <trkpt lat="45.8406" lon="4.52488">
        <ele>581.2</ele>
        <time>2025-09-10T13:45:20Z</time>
      </trkpt>
      <trkpt lat="45.8406" lon="4.52488">
        <ele>581.2</ele>
        <time>2025-09-10T13:45:21Z</time>
      </trkpt>
      <trkpt lat="45.84061" lon="4.52488">
        <ele>581</ele>
        <time>2025-09-10T13:45:22Z</time>
      </trkpt>
      <trkpt lat="45.84062" lon="4.52489">
        <ele>580.8</ele>
        <time>2025-09-10T13:45:23Z</time>
      </trkpt>
      <trkpt lat="45.84062" lon="4.52489">
        <ele>580.4</ele>
        <time>2025-09-10T13:45:24Z</time>
      </trkpt>
      <trkpt lat="45.84062" lon="4.5249">
        <ele>580.4</ele>
        <time>2025-09-10T13:45:25Z</time>
      </trkpt>
      <trkpt lat="45.84062" lon="4.5249">
        <ele>580</ele>
        <time>2025-09-10T13:45:26Z</time>
      </trkpt>
      <trkpt lat="45.84063" lon="4.52492">
        <ele>579.6</ele>
        <time>2025-09-10T13:45:27Z</time>
      </trkpt>
      <trkpt lat="45.84063" lon="4.52492">
        <ele>579.4</ele>
        <time>2025-09-10T13:45:28Z</time>
      </trkpt>
      <trkpt lat="45.84063" lon="4.52493">
        <ele>579.2</ele>
        <time>2025-09-10T13:45:29Z</time>
      </trkpt>
      <trkpt lat="45.84064" lon="4.52493">
        <ele>579</ele>
        <time>2025-09-10T13:45:30Z</time>
      </trkpt>
      <trkpt lat="45.84065" lon="4.52493">
        <ele>579</ele>
        <time>2025-09-10T13:45:31Z</time>
      </trkpt>
      <trkpt lat="45.84066" lon="4.52493">
        <ele>578.4</ele>
        <time>2025-09-10T13:45:32Z</time>
      </trkpt>
      <trkpt lat="45.84067" lon="4.52494">
        <ele>578</ele>
        <time>2025-09-10T13:45:33Z</time>
      </trkpt>
      <trkpt lat="45.84068" lon="4.52495">
        <ele>577.8</ele>
        <time>2025-09-10T13:45:34Z</time>
      </trkpt>
      <trkpt lat="45.84069" lon="4.52496">
        <ele>577.6</ele>
        <time>2025-09-10T13:45:35Z</time>
      </trkpt>
      <trkpt lat="45.8407" lon="4.52497">
        <ele>577</ele>
        <time>2025-09-10T13:45:36Z</time>
      </trkpt>
      <trkpt lat="45.84071" lon="4.52497">
        <ele>576.6</ele>
        <time>2025-09-10T13:45:37Z</time>
      </trkpt>
      <trkpt lat="45.84072" lon="4.52498">
        <ele>576.2</ele>
        <time>2025-09-10T13:45:38Z</time>
      </trkpt>
      <trkpt lat="45.84073" lon="4.52498">
        <ele>576</ele>
        <time>2025-09-10T13:45:39Z</time>
      </trkpt>
      <trkpt lat="45.84074" lon="4.52499">
        <ele>575.8</ele>
        <time>2025-09-10T13:45:40Z</time>
      </trkpt>
      <trkpt lat="45.84075" lon="4.52499">
        <ele>575.4</ele>
        <time>2025-09-10T13:45:41Z</time>
      </trkpt>
      <trkpt lat="45.84076" lon="4.52499">
        <ele>575.2</ele>
        <time>2025-09-10T13:45:42Z</time>
      </trkpt>
      <trkpt lat="45.84077" lon="4.525">
        <ele>574.8</ele>
        <time>2025-09-10T13:45:43Z</time>
      </trkpt>
      <trkpt lat="45.84078" lon="4.525">
        <ele>574.4</ele>
        <time>2025-09-10T13:45:44Z</time>
      </trkpt>
      <trkpt lat="45.84078" lon="4.52501">
        <ele>574.2</ele>
        <time>2025-09-10T13:45:45Z</time>
      </trkpt>
      <trkpt lat="45.84079" lon="4.52502">
        <ele>573.8</ele>
        <time>2025-09-10T13:45:46Z</time>
      </trkpt>
      <trkpt lat="45.8408" lon="4.52503">
        <ele>573.6</ele>
        <time>2025-09-10T13:45:47Z</time>
      </trkpt>
      <trkpt lat="45.84082" lon="4.52504">
        <ele>573.2</ele>
        <time>2025-09-10T13:45:48Z</time>
      </trkpt>
      <trkpt lat="45.84083" lon="4.52505">
        <ele>573</ele>
        <time>2025-09-10T13:45:49Z</time>
      </trkpt>
      <trkpt lat="45.84084" lon="4.52505">
        <ele>572.6</ele>
        <time>2025-09-10T13:45:50Z</time>
      </trkpt>
      <trkpt lat="45.84084" lon="4.52505">
        <ele>572.6</ele>
        <time>2025-09-10T13:45:51Z</time>
      </trkpt>
      <trkpt lat="45.84085" lon="4.52505">
        <ele>572.2</ele>
        <time>2025-09-10T13:45:52Z</time>
      </trkpt>
      <trkpt lat="45.84086" lon="4.52506">
        <ele>572</ele>
        <time>2025-09-10T13:45:53Z</time>
      </trkpt>
      <trkpt lat="45.84087" lon="4.52506">
        <ele>572</ele>
        <time>2025-09-10T13:45:54Z</time>
      </trkpt>
      <trkpt lat="45.84088" lon="4.52507">
        <ele>571.6</ele>
        <time>2025-09-10T13:45:55Z</time>
      </trkpt>
      <trkpt lat="45.8409" lon="4.52508">
        <ele>571.4</ele>
        <time>2025-09-10T13:45:56Z</time>
      </trkpt>
      <trkpt lat="45.84091" lon="4.52508">
        <ele>571</ele>
        <time>2025-09-10T13:45:57Z</time>
      </trkpt>
      <trkpt lat="45.84092" lon="4.52508">
        <ele>570.8</ele>
        <time>2025-09-10T13:45:58Z</time>
      </trkpt>
      <trkpt lat="45.84093" lon="4.52508">
        <ele>570.4</ele>
        <time>2025-09-10T13:45:59Z</time>
      </trkpt>
      <trkpt lat="45.84095" lon="4.52509">
        <ele>570.2</ele>
        <time>2025-09-10T13:46:00Z</time>
      </trkpt>
      <trkpt lat="45.84097" lon="4.5251">
        <ele>569.8</ele>
        <time>2025-09-10T13:46:01Z</time>
      </trkpt>
      <trkpt lat="45.84097" lon="4.5251">
        <ele>569.4</ele>
        <time>2025-09-10T13:46:02Z</time>
      </trkpt>
      <trkpt lat="45.84099" lon="4.52511">
        <ele>569.2</ele>
        <time>2025-09-10T13:46:03Z</time>
      </trkpt>
      <trkpt lat="45.841" lon="4.52511">
        <ele>568.8</ele>
        <time>2025-09-10T13:46:04Z</time>
      </trkpt>
      <trkpt lat="45.84102" lon="4.52511">
        <ele>568.4</ele>
        <time>2025-09-10T13:46:05Z</time>
      </trkpt>
      <trkpt lat="45.84103" lon="4.52511">
        <ele>568.2</ele>
        <time>2025-09-10T13:46:06Z</time>
      </trkpt>
      <trkpt lat="45.84104" lon="4.5251">
        <ele>567.8</ele>
        <time>2025-09-10T13:46:07Z</time>
      </trkpt>
      <trkpt lat="45.84105" lon="4.5251">
        <ele>567.6</ele>
        <time>2025-09-10T13:46:08Z</time>
      </trkpt>
      <trkpt lat="45.84106" lon="4.5251">
        <ele>567.6</ele>
        <time>2025-09-10T13:46:09Z</time>
      </trkpt>
      <trkpt lat="45.84106" lon="4.5251">
        <ele>567.4</ele>
        <time>2025-09-10T13:46:10Z</time>
      </trkpt>
      <trkpt lat="45.84108" lon="4.5251">
        <ele>567</ele>
        <time>2025-09-10T13:46:11Z</time>
      </trkpt>
      <trkpt lat="45.84109" lon="4.5251">
        <ele>566.6</ele>
        <time>2025-09-10T13:46:12Z</time>
      </trkpt>
      <trkpt lat="45.84109" lon="4.5251">
        <ele>566</ele>
        <time>2025-09-10T13:46:13Z</time>
      </trkpt>
      <trkpt lat="45.8411" lon="4.5251">
        <ele>565.8</ele>
        <time>2025-09-10T13:46:14Z</time>
      </trkpt>
      <trkpt lat="45.84111" lon="4.5251">
        <ele>565.8</ele>
        <time>2025-09-10T13:46:15Z</time>
      </trkpt>
      <trkpt lat="45.84112" lon="4.5251">
        <ele>565.4</ele>
        <time>2025-09-10T13:46:16Z</time>
      </trkpt>
      <trkpt lat="45.84114" lon="4.5251">
        <ele>565.2</ele>
        <time>2025-09-10T13:46:17Z</time>
      </trkpt>
      <trkpt lat="45.84114" lon="4.52509">
        <ele>564.8</ele>
        <time>2025-09-10T13:46:18Z</time>
      </trkpt>
      <trkpt lat="45.84115" lon="4.52509">
        <ele>564.6</ele>
        <time>2025-09-10T13:46:19Z</time>
      </trkpt>
      <trkpt lat="45.84116" lon="4.5251">
        <ele>564.6</ele>
        <time>2025-09-10T13:46:20Z</time>
      </trkpt>
      <trkpt lat="45.84117" lon="4.5251">
        <ele>564</ele>
        <time>2025-09-10T13:46:21Z</time>
      </trkpt>
      <trkpt lat="45.84119" lon="4.5251">
        <ele>563.6</ele>
        <time>2025-09-10T13:46:22Z</time>
      </trkpt>
      <trkpt lat="45.84119" lon="4.52508">
        <ele>563.2</ele>
        <time>2025-09-10T13:46:23Z</time>
      </trkpt>
      <trkpt lat="45.84119" lon="4.52506">
        <ele>563</ele>
        <time>2025-09-10T13:46:24Z</time>
      </trkpt>
      <trkpt lat="45.84118" lon="4.52504">
        <ele>562.6</ele>
        <time>2025-09-10T13:46:25Z</time>
      </trkpt>
      <trkpt lat="45.84119" lon="4.52504">
        <ele>562.6</ele>
        <time>2025-09-10T13:46:26Z</time>
      </trkpt>
      <trkpt lat="45.84121" lon="4.52504">
        <ele>562.2</ele>
        <time>2025-09-10T13:46:27Z</time>
      </trkpt>
      <trkpt lat="45.84122" lon="4.52505">
        <ele>562.2</ele>
        <time>2025-09-10T13:46:28Z</time>
      </trkpt>
      <trkpt lat="45.84123" lon="4.52505">
        <ele>561.8</ele>
        <time>2025-09-10T13:46:29Z</time>
      </trkpt>
      <trkpt lat="45.84125" lon="4.52505">
        <ele>561.8</ele>
        <time>2025-09-10T13:46:30Z</time>
      </trkpt>
      <trkpt lat="45.84127" lon="4.52505">
        <ele>561.4</ele>
        <time>2025-09-10T13:46:31Z</time>
      </trkpt>
      <trkpt lat="45.84127" lon="4.52506">
        <ele>561</ele>
        <time>2025-09-10T13:46:32Z</time>
      </trkpt>
      <trkpt lat="45.84127" lon="4.52507">
        <ele>560.8</ele>
        <time>2025-09-10T13:46:33Z</time>
      </trkpt>
      <trkpt lat="45.84129" lon="4.52507">
        <ele>560.8</ele>
        <time>2025-09-10T13:46:34Z</time>
      </trkpt>
      <trkpt lat="45.8413" lon="4.52507">
        <ele>560.4</ele>
        <time>2025-09-10T13:46:35Z</time>
      </trkpt>
      <trkpt lat="45.84131" lon="4.52507">
        <ele>560.4</ele>
        <time>2025-09-10T13:46:36Z</time>
      </trkpt>
      <trkpt lat="45.84131" lon="4.52506">
        <ele>559.8</ele>
        <time>2025-09-10T13:46:37Z</time>
      </trkpt>
      <trkpt lat="45.84132" lon="4.52505">
        <ele>559.6</ele>
        <time>2025-09-10T13:46:38Z</time>
      </trkpt>
      <trkpt lat="45.84134" lon="4.52504">
        <ele>559.2</ele>
        <time>2025-09-10T13:46:39Z</time>
      </trkpt>
      <trkpt lat="45.84135" lon="4.52504">
        <ele>558.8</ele>
        <time>2025-09-10T13:46:40Z</time>
      </trkpt>
      <trkpt lat="45.84136" lon="4.52504">
        <ele>558.8</ele>
        <time>2025-09-10T13:46:41Z</time>
      </trkpt>
      <trkpt lat="45.84137" lon="4.52503">
        <ele>558.4</ele>
        <time>2025-09-10T13:46:42Z</time>
      </trkpt>
      <trkpt lat="45.8414" lon="4.52503">
        <ele>558</ele>
        <time>2025-09-10T13:46:43Z</time>
      </trkpt>
      <trkpt lat="45.84141" lon="4.52503">
        <ele>557.8</ele>
        <time>2025-09-10T13:46:44Z</time>
      </trkpt>
      <trkpt lat="45.84142" lon="4.52503">
        <ele>557.4</ele>
        <time>2025-09-10T13:46:45Z</time>
      </trkpt>
      <trkpt lat="45.84143" lon="4.52503">
        <ele>557.2</ele>
        <time>2025-09-10T13:46:46Z</time>
      </trkpt>
      <trkpt lat="45.84144" lon="4.52504">
        <ele>556.8</ele>
        <time>2025-09-10T13:46:47Z</time>
      </trkpt>
      <trkpt lat="45.84145" lon="4.52504">
        <ele>556.4</ele>
        <time>2025-09-10T13:46:48Z</time>
      </trkpt>
      <trkpt lat="45.84147" lon="4.52504">
        <ele>556.2</ele>
        <time>2025-09-10T13:46:49Z</time>
      </trkpt>
      <trkpt lat="45.84147" lon="4.52504">
        <ele>555.8</ele>
        <time>2025-09-10T13:46:50Z</time>
      </trkpt>
      <trkpt lat="45.84148" lon="4.52504">
        <ele>555.4</ele>
        <time>2025-09-10T13:46:51Z</time>
      </trkpt>
      <trkpt lat="45.84149" lon="4.52504">
        <ele>555.2</ele>
        <time>2025-09-10T13:46:52Z</time>
      </trkpt>
      <trkpt lat="45.8415" lon="4.52504">
        <ele>554.8</ele>
        <time>2025-09-10T13:46:53Z</time>
      </trkpt>
      <trkpt lat="45.84151" lon="4.52504">
        <ele>554.4</ele>
        <time>2025-09-10T13:46:54Z</time>
      </trkpt>
      <trkpt lat="45.84151" lon="4.52504">
        <ele>554</ele>
        <time>2025-09-10T13:46:55Z</time>
      </trkpt>
      <trkpt lat="45.84152" lon="4.52505">
        <ele>553.4</ele>
        <time>2025-09-10T13:46:56Z</time>
      </trkpt>
      <trkpt lat="45.84154" lon="4.52505">
        <ele>553.4</ele>
        <time>2025-09-10T13:46:57Z</time>
      </trkpt>
      <trkpt lat="45.84155" lon="4.52506">
        <ele>553</ele>
        <time>2025-09-10T13:46:58Z</time>
      </trkpt>
      <trkpt lat="45.84156" lon="4.52506">
        <ele>553</ele>
        <time>2025-09-10T13:46:59Z</time>
      </trkpt>
      <trkpt lat="45.84157" lon="4.52506">
        <ele>552.6</ele>
        <time>2025-09-10T13:47:00Z</time>
      </trkpt>
      <trkpt lat="45.84158" lon="4.52506">
        <ele>552.6</ele>
        <time>2025-09-10T13:47:01Z</time>
      </trkpt>
      <trkpt lat="45.84159" lon="4.52505">
        <ele>552</ele>
        <time>2025-09-10T13:47:02Z</time>
      </trkpt>
      <trkpt lat="45.8416" lon="4.52505">
        <ele>552</ele>
        <time>2025-09-10T13:47:03Z</time>
      </trkpt>
      <trkpt lat="45.84161" lon="4.52505">
        <ele>551.6</ele>
        <time>2025-09-10T13:47:04Z</time>
      </trkpt>
      <trkpt lat="45.84162" lon="4.52505">
        <ele>551.4</ele>
        <time>2025-09-10T13:47:05Z</time>
      </trkpt>
      <trkpt lat="45.84162" lon="4.52506">
        <ele>551</ele>
        <time>2025-09-10T13:47:06Z</time>
      </trkpt>
      <trkpt lat="45.84163" lon="4.52506">
        <ele>550.6</ele>
        <time>2025-09-10T13:47:07Z</time>
      </trkpt>
      <trkpt lat="45.84163" lon="4.52506">
        <ele>550.4</ele>
        <time>2025-09-10T13:47:08Z</time>
      </trkpt>
      <trkpt lat="45.84163" lon="4.52507">
        <ele>549.6</ele>
        <time>2025-09-10T13:47:16Z</time>
      </trkpt>
      <trkpt lat="45.84165" lon="4.52507">
        <ele>549</ele>
        <time>2025-09-10T13:47:17Z</time>
      </trkpt>
      <trkpt lat="45.84168" lon="4.52507">
        <ele>549</ele>
        <time>2025-09-10T13:47:18Z</time>
      </trkpt>
      <trkpt lat="45.84169" lon="4.52506">
        <ele>548.8</ele>
        <time>2025-09-10T13:47:19Z</time>
      </trkpt>
      <trkpt lat="45.8417" lon="4.52506">
        <ele>548.2</ele>
        <time>2025-09-10T13:47:20Z</time>
      </trkpt>
      <trkpt lat="45.84172" lon="4.52506">
        <ele>547.8</ele>
        <time>2025-09-10T13:47:21Z</time>
      </trkpt>
      <trkpt lat="45.84173" lon="4.52506">
        <ele>547.4</ele>
        <time>2025-09-10T13:47:22Z</time>
      </trkpt>
      <trkpt lat="45.84175" lon="4.52507">
        <ele>547</ele>
        <time>2025-09-10T13:47:23Z</time>
      </trkpt>
      <trkpt lat="45.84177" lon="4.52509">
        <ele>546.6</ele>
        <time>2025-09-10T13:47:24Z</time>
      </trkpt>
      <trkpt lat="45.84178" lon="4.5251">
        <ele>546.2</ele>
        <time>2025-09-10T13:47:25Z</time>
      </trkpt>
      <trkpt lat="45.84181" lon="4.52513">
        <ele>545.6</ele>
        <time>2025-09-10T13:47:26Z</time>
      </trkpt>
      <trkpt lat="45.84183" lon="4.52514">
        <ele>545</ele>
        <time>2025-09-10T13:47:27Z</time>
      </trkpt>
      <trkpt lat="45.84185" lon="4.52515">
        <ele>544.4</ele>
        <time>2025-09-10T13:47:28Z</time>
      </trkpt>
      <trkpt lat="45.84188" lon="4.52516">
        <ele>543.8</ele>
        <time>2025-09-10T13:47:29Z</time>
      </trkpt>
      <trkpt lat="45.8419" lon="4.52517">
        <ele>543.8</ele>
        <time>2025-09-10T13:47:30Z</time>
      </trkpt>
      <trkpt lat="45.84193" lon="4.52519">
        <ele>543.2</ele>
        <time>2025-09-10T13:47:31Z</time>
      </trkpt>
      <trkpt lat="45.84196" lon="4.52522">
        <ele>542.6</ele>
        <time>2025-09-10T13:47:32Z</time>
      </trkpt>
      <trkpt lat="45.84199" lon="4.52524">
        <ele>541.8</ele>
        <time>2025-09-10T13:47:33Z</time>
      </trkpt>
      <trkpt lat="45.84202" lon="4.52526">
        <ele>541.6</ele>
        <time>2025-09-10T13:47:34Z</time>
      </trkpt>
      <trkpt lat="45.84205" lon="4.52528">
        <ele>541.2</ele>
        <time>2025-09-10T13:47:35Z</time>
      </trkpt>
      <trkpt lat="45.84208" lon="4.5253">
        <ele>540.8</ele>
        <time>2025-09-10T13:47:36Z</time>
      </trkpt>
      <trkpt lat="45.84211" lon="4.52534">
        <ele>540.4</ele>
        <time>2025-09-10T13:47:37Z</time>
      </trkpt>
      <trkpt lat="45.84213" lon="4.52536">
        <ele>539.8</ele>
        <time>2025-09-10T13:47:38Z</time>
      </trkpt>
      <trkpt lat="45.84214" lon="4.52538">
        <ele>539.4</ele>
        <time>2025-09-10T13:47:39Z</time>
      </trkpt>
      <trkpt lat="45.84216" lon="4.52539">
        <ele>538.6</ele>
        <time>2025-09-10T13:47:40Z</time>
      </trkpt>
      <trkpt lat="45.84218" lon="4.52541">
        <ele>538</ele>
        <time>2025-09-10T13:47:41Z</time>
      </trkpt>
      <trkpt lat="45.8422" lon="4.52543">
        <ele>537.4</ele>
        <time>2025-09-10T13:47:42Z</time>
      </trkpt>
      <trkpt lat="45.84223" lon="4.52545">
        <ele>536.8</ele>
        <time>2025-09-10T13:47:43Z</time>
      </trkpt>
      <trkpt lat="45.84224" lon="4.52546">
        <ele>536.4</ele>
        <time>2025-09-10T13:47:44Z</time>
      </trkpt>
      <trkpt lat="45.84225" lon="4.52547">
        <ele>536</ele>
        <time>2025-09-10T13:47:45Z</time>
      </trkpt>
      <trkpt lat="45.84226" lon="4.52548">
        <ele>535.4</ele>
        <time>2025-09-10T13:47:46Z</time>
      </trkpt>
      <trkpt lat="45.84228" lon="4.5255">
        <ele>535</ele>
        <time>2025-09-10T13:47:47Z</time>
      </trkpt>
      <trkpt lat="45.84229" lon="4.52552">
        <ele>534.6</ele>
        <time>2025-09-10T13:47:48Z</time>
      </trkpt>
      <trkpt lat="45.8423" lon="4.52552">
        <ele>534.6</ele>
        <time>2025-09-10T13:47:49Z</time>
      </trkpt>
      <trkpt lat="45.84233" lon="4.52554">
        <ele>534</ele>
        <time>2025-09-10T13:47:50Z</time>
      </trkpt>
      <trkpt lat="45.84235" lon="4.52555">
        <ele>533.2</ele>
        <time>2025-09-10T13:47:51Z</time>
      </trkpt>
      <trkpt lat="45.84236" lon="4.52557">
        <ele>532.8</ele>
        <time>2025-09-10T13:47:52Z</time>
      </trkpt>
      <trkpt lat="45.84237" lon="4.52559">
        <ele>532.8</ele>
        <time>2025-09-10T13:47:53Z</time>
      </trkpt>
      <trkpt lat="45.84239" lon="4.5256">
        <ele>532.2</ele>
        <time>2025-09-10T13:47:54Z</time>
      </trkpt>
      <trkpt lat="45.8424" lon="4.52561">
        <ele>531.8</ele>
        <time>2025-09-10T13:47:55Z</time>
      </trkpt>
      <trkpt lat="45.84241" lon="4.52561">
        <ele>531.4</ele>
        <time>2025-09-10T13:47:56Z</time>
      </trkpt>
      <trkpt lat="45.84242" lon="4.52562">
        <ele>531</ele>
        <time>2025-09-10T13:47:57Z</time>
      </trkpt>
      <trkpt lat="45.84242" lon="4.52564">
        <ele>530.4</ele>
        <time>2025-09-10T13:47:58Z</time>
      </trkpt>
      <trkpt lat="45.84242" lon="4.52567">
        <ele>529.8</ele>
        <time>2025-09-10T13:47:59Z</time>
      </trkpt>
      <trkpt lat="45.84243" lon="4.52569">
        <ele>529.4</ele>
        <time>2025-09-10T13:48:00Z</time>
      </trkpt>
      <trkpt lat="45.84244" lon="4.52572">
        <ele>529.2</ele>
        <time>2025-09-10T13:48:01Z</time>
      </trkpt>
      <trkpt lat="45.84245" lon="4.52575">
        <ele>528.6</ele>
        <time>2025-09-10T13:48:02Z</time>
      </trkpt>
      <trkpt lat="45.84246" lon="4.52577">
        <ele>528</ele>
        <time>2025-09-10T13:48:03Z</time>
      </trkpt>
      <trkpt lat="45.84247" lon="4.5258">
        <ele>527.6</ele>
        <time>2025-09-10T13:48:04Z</time>
      </trkpt>
      <trkpt lat="45.84248" lon="4.52582">
        <ele>527</ele>
        <time>2025-09-10T13:48:05Z</time>
      </trkpt>
      <trkpt lat="45.8425" lon="4.52583">
        <ele>526.2</ele>
        <time>2025-09-10T13:48:06Z</time>
      </trkpt>
      <trkpt lat="45.84252" lon="4.52584">
        <ele>525.4</ele>
        <time>2025-09-10T13:48:07Z</time>
      </trkpt>
      <trkpt lat="45.84254" lon="4.52586">
        <ele>525</ele>
        <time>2025-09-10T13:48:08Z</time>
      </trkpt>
      <trkpt lat="45.84256" lon="4.52588">
        <ele>524.8</ele>
        <time>2025-09-10T13:48:09Z</time>
      </trkpt>
      <trkpt lat="45.84258" lon="4.52591">
        <ele>524.4</ele>
        <time>2025-09-10T13:48:10Z</time>
      </trkpt>
      <trkpt lat="45.8426" lon="4.52595">
        <ele>524</ele>
        <time>2025-09-10T13:48:11Z</time>
      </trkpt>
      <trkpt lat="45.84261" lon="4.52598">
        <ele>523.6</ele>
        <time>2025-09-10T13:48:12Z</time>
      </trkpt>
      <trkpt lat="45.84263" lon="4.52601">
        <ele>523</ele>
        <time>2025-09-10T13:48:13Z</time>
      </trkpt>
      <trkpt lat="45.84265" lon="4.52604">
        <ele>522.4</ele>
        <time>2025-09-10T13:48:14Z</time>
      </trkpt>
      <trkpt lat="45.84267" lon="4.52607">
        <ele>521.8</ele>
        <time>2025-09-10T13:48:15Z</time>
      </trkpt>
      <trkpt lat="45.84268" lon="4.52609">
        <ele>521.4</ele>
        <time>2025-09-10T13:48:16Z</time>
      </trkpt>
      <trkpt lat="45.8427" lon="4.52612">
        <ele>520.8</ele>
        <time>2025-09-10T13:48:17Z</time>
      </trkpt>
      <trkpt lat="45.84271" lon="4.52615">
        <ele>520.2</ele>
        <time>2025-09-10T13:48:18Z</time>
      </trkpt>
      <trkpt lat="45.84272" lon="4.52618">
        <ele>519.6</ele>
        <time>2025-09-10T13:48:19Z</time>
      </trkpt>
      <trkpt lat="45.84274" lon="4.5262">
        <ele>519</ele>
        <time>2025-09-10T13:48:20Z</time>
      </trkpt>
      <trkpt lat="45.84276" lon="4.52623">
        <ele>518.4</ele>
        <time>2025-09-10T13:48:21Z</time>
      </trkpt>
      <trkpt lat="45.84278" lon="4.52625">
        <ele>518.4</ele>
        <time>2025-09-10T13:48:22Z</time>
      </trkpt>
      <trkpt lat="45.8428" lon="4.52627">
        <ele>517.8</ele>
        <time>2025-09-10T13:48:23Z</time>
      </trkpt>
      <trkpt lat="45.84282" lon="4.52629">
        <ele>517</ele>
        <time>2025-09-10T13:48:24Z</time>
      </trkpt>
      <trkpt lat="45.84284" lon="4.52631">
        <ele>516.4</ele>
        <time>2025-09-10T13:48:25Z</time>
      </trkpt>
      <trkpt lat="45.84287" lon="4.52634">
        <ele>516</ele>
        <time>2025-09-10T13:48:26Z</time>
      </trkpt>
      <trkpt lat="45.84289" lon="4.52636">
        <ele>514.2</ele>
        <time>2025-09-10T13:48:27Z</time>
      </trkpt>
      <trkpt lat="45.84291" lon="4.52639">
        <ele>513.8</ele>
        <time>2025-09-10T13:48:28Z</time>
      </trkpt>
      <trkpt lat="45.84293" lon="4.52641">
        <ele>513.4</ele>
        <time>2025-09-10T13:48:29Z</time>
      </trkpt>
      <trkpt lat="45.84295" lon="4.52643">
        <ele>512.8</ele>
        <time>2025-09-10T13:48:30Z</time>
      </trkpt>
      <trkpt lat="45.84297" lon="4.52646">
        <ele>512.2</ele>
        <time>2025-09-10T13:48:31Z</time>
      </trkpt>
      <trkpt lat="45.84299" lon="4.5265">
        <ele>511.6</ele>
        <time>2025-09-10T13:48:32Z</time>
      </trkpt>
      <trkpt lat="45.84301" lon="4.52653">
        <ele>511.2</ele>
        <time>2025-09-10T13:48:33Z</time>
      </trkpt>
      <trkpt lat="45.84302" lon="4.52657">
        <ele>511</ele>
        <time>2025-09-10T13:48:34Z</time>
      </trkpt>
      <trkpt lat="45.84304" lon="4.52661">
        <ele>510.2</ele>
        <time>2025-09-10T13:48:35Z</time>
      </trkpt>
      <trkpt lat="45.84306" lon="4.52666">
        <ele>510</ele>
        <time>2025-09-10T13:48:36Z</time>
      </trkpt>
      <trkpt lat="45.84309" lon="4.5267">
        <ele>509.2</ele>
        <time>2025-09-10T13:48:37Z</time>
      </trkpt>
      <trkpt lat="45.84311" lon="4.52674">
        <ele>508.4</ele>
        <time>2025-09-10T13:48:38Z</time>
      </trkpt>
      <trkpt lat="45.84313" lon="4.52677">
        <ele>508.2</ele>
        <time>2025-09-10T13:48:39Z</time>
      </trkpt>
      <trkpt lat="45.84315" lon="4.5268">
        <ele>507.8</ele>
        <time>2025-09-10T13:48:40Z</time>
      </trkpt>
      <trkpt lat="45.84317" lon="4.52683">
        <ele>507.4</ele>
        <time>2025-09-10T13:48:41Z</time>
      </trkpt>
      <trkpt lat="45.84319" lon="4.52686">
        <ele>506.8</ele>
        <time>2025-09-10T13:48:42Z</time>
      </trkpt>
      <trkpt lat="45.84322" lon="4.5269">
        <ele>505.6</ele>
        <time>2025-09-10T13:48:43Z</time>
      </trkpt>
      <trkpt lat="45.84325" lon="4.52693">
        <ele>505.4</ele>
        <time>2025-09-10T13:48:44Z</time>
      </trkpt>
      <trkpt lat="45.84328" lon="4.52696">
        <ele>505</ele>
        <time>2025-09-10T13:48:45Z</time>
      </trkpt>
      <trkpt lat="45.84331" lon="4.52699">
        <ele>504.6</ele>
        <time>2025-09-10T13:48:46Z</time>
      </trkpt>
      <trkpt lat="45.84334" lon="4.52701">
        <ele>504.2</ele>
        <time>2025-09-10T13:48:47Z</time>
      </trkpt>
      <trkpt lat="45.84335" lon="4.52705">
        <ele>503.6</ele>
        <time>2025-09-10T13:48:48Z</time>
      </trkpt>
      <trkpt lat="45.84336" lon="4.52706">
        <ele>503.4</ele>
        <time>2025-09-10T13:48:49Z</time>
      </trkpt>
      <trkpt lat="45.84338" lon="4.52707">
        <ele>503</ele>
        <time>2025-09-10T13:48:50Z</time>
      </trkpt>
      <trkpt lat="45.84341" lon="4.52709">
        <ele>503</ele>
        <time>2025-09-10T13:48:51Z</time>
      </trkpt>
      <trkpt lat="45.84343" lon="4.52711">
        <ele>502.8</ele>
        <time>2025-09-10T13:48:52Z</time>
      </trkpt>
      <trkpt lat="45.84344" lon="4.52712">
        <ele>502</ele>
        <time>2025-09-10T13:48:53Z</time>
      </trkpt>
      <trkpt lat="45.84345" lon="4.52713">
        <ele>501.8</ele>
        <time>2025-09-10T13:48:54Z</time>
      </trkpt>
      <trkpt lat="45.84346" lon="4.52714">
        <ele>501</ele>
        <time>2025-09-10T13:48:55Z</time>
      </trkpt>
      <trkpt lat="45.84347" lon="4.52716">
        <ele>501</ele>
        <time>2025-09-10T13:48:56Z</time>
      </trkpt>
      <trkpt lat="45.84349" lon="4.52717">
        <ele>500.4</ele>
        <time>2025-09-10T13:48:57Z</time>
      </trkpt>
      <trkpt lat="45.8435" lon="4.52718">
        <ele>500</ele>
        <time>2025-09-10T13:48:58Z</time>
      </trkpt>
      <trkpt lat="45.84351" lon="4.52719">
        <ele>499.6</ele>
        <time>2025-09-10T13:48:59Z</time>
      </trkpt>
      <trkpt lat="45.84352" lon="4.52721">
        <ele>499.2</ele>
        <time>2025-09-10T13:49:00Z</time>
      </trkpt>
      <trkpt lat="45.84354" lon="4.52722">
        <ele>498.8</ele>
        <time>2025-09-10T13:49:01Z</time>
      </trkpt>
      <trkpt lat="45.84355" lon="4.52724">
        <ele>498.2</ele>
        <time>2025-09-10T13:49:02Z</time>
      </trkpt>
      <trkpt lat="45.84356" lon="4.52725">
        <ele>498</ele>
        <time>2025-09-10T13:49:03Z</time>
      </trkpt>
      <trkpt lat="45.84357" lon="4.52725">
        <ele>497.6</ele>
        <time>2025-09-10T13:49:04Z</time>
      </trkpt>
      <trkpt lat="45.84357" lon="4.52726">
        <ele>497.6</ele>
        <time>2025-09-10T13:49:05Z</time>
      </trkpt>
      <trkpt lat="45.84358" lon="4.52728">
        <ele>497</ele>
        <time>2025-09-10T13:49:06Z</time>
      </trkpt>
      <trkpt lat="45.8436" lon="4.52731">
        <ele>496.6</ele>
        <time>2025-09-10T13:49:07Z</time>
      </trkpt>
      <trkpt lat="45.84361" lon="4.52733">
        <ele>496.2</ele>
        <time>2025-09-10T13:49:08Z</time>
      </trkpt>
      <trkpt lat="45.84363" lon="4.52735">
        <ele>495.8</ele>
        <time>2025-09-10T13:49:09Z</time>
      </trkpt>
      <trkpt lat="45.84365" lon="4.52737">
        <ele>495.2</ele>
        <time>2025-09-10T13:49:10Z</time>
      </trkpt>
      <trkpt lat="45.84366" lon="4.52739">
        <ele>494.8</ele>
        <time>2025-09-10T13:49:11Z</time>
      </trkpt>
      <trkpt lat="45.84368" lon="4.52741">
        <ele>494.4</ele>
        <time>2025-09-10T13:49:12Z</time>
      </trkpt>
      <trkpt lat="45.84369" lon="4.52743">
        <ele>493.8</ele>
        <time>2025-09-10T13:49:13Z</time>
      </trkpt>
      <trkpt lat="45.84371" lon="4.52745">
        <ele>493.2</ele>
        <time>2025-09-10T13:49:14Z</time>
      </trkpt>
      <trkpt lat="45.84373" lon="4.52747">
        <ele>492.6</ele>
        <time>2025-09-10T13:49:15Z</time>
      </trkpt>
      <trkpt lat="45.84374" lon="4.52749">
        <ele>492</ele>
        <time>2025-09-10T13:49:16Z</time>
      </trkpt>
      <trkpt lat="45.84376" lon="4.52751">
        <ele>491.4</ele>
        <time>2025-09-10T13:49:17Z</time>
      </trkpt>
      <trkpt lat="45.84378" lon="4.52752">
        <ele>491</ele>
        <time>2025-09-10T13:49:18Z</time>
      </trkpt>
      <trkpt lat="45.84379" lon="4.52752">
        <ele>490.6</ele>
        <time>2025-09-10T13:49:19Z</time>
      </trkpt>
      <trkpt lat="45.84381" lon="4.52752">
        <ele>490.2</ele>
        <time>2025-09-10T13:49:20Z</time>
      </trkpt>
      <trkpt lat="45.84383" lon="4.52753">
        <ele>489.6</ele>
        <time>2025-09-10T13:49:21Z</time>
      </trkpt>
      <trkpt lat="45.84384" lon="4.52754">
        <ele>489.2</ele>
        <time>2025-09-10T13:49:22Z</time>
      </trkpt>
      <trkpt lat="45.84385" lon="4.52755">
        <ele>489</ele>
        <time>2025-09-10T13:49:23Z</time>
      </trkpt>
      <trkpt lat="45.84385" lon="4.52756">
        <ele>488.6</ele>
        <time>2025-09-10T13:49:24Z</time>
      </trkpt>
      <trkpt lat="45.84385" lon="4.52757">
        <ele>488.4</ele>
        <time>2025-09-10T13:49:25Z</time>
      </trkpt>
      <trkpt lat="45.84385" lon="4.52757">
        <ele>488.2</ele>
        <time>2025-09-10T13:49:26Z</time>
      </trkpt>
      <trkpt lat="45.84388" lon="4.52759">
        <ele>487</ele>
        <time>2025-09-10T13:50:09Z</time>
      </trkpt>
      <trkpt lat="45.8439" lon="4.5276">
        <ele>486.6</ele>
        <time>2025-09-10T13:50:10Z</time>
      </trkpt>
      <trkpt lat="45.84392" lon="4.52762">
        <ele>486.2</ele>
        <time>2025-09-10T13:50:11Z</time>
      </trkpt>
      <trkpt lat="45.84394" lon="4.52765">
        <ele>485.8</ele>
        <time>2025-09-10T13:50:12Z</time>
      </trkpt>
      <trkpt lat="45.84396" lon="4.52767">
        <ele>485.4</ele>
        <time>2025-09-10T13:50:13Z</time>
      </trkpt>
      <trkpt lat="45.84398" lon="4.52769">
        <ele>484.8</ele>
        <time>2025-09-10T13:50:14Z</time>
      </trkpt>
      <trkpt lat="45.844" lon="4.52771">
        <ele>484.4</ele>
        <time>2025-09-10T13:50:15Z</time>
      </trkpt>
      <trkpt lat="45.84402" lon="4.52774">
        <ele>483.6</ele>
        <time>2025-09-10T13:50:16Z</time>
      </trkpt>
      <trkpt lat="45.84405" lon="4.52777">
        <ele>482.8</ele>
        <time>2025-09-10T13:50:17Z</time>
      </trkpt>
      <trkpt lat="45.84408" lon="4.5278">
        <ele>482</ele>
        <time>2025-09-10T13:50:18Z</time>
      </trkpt>
      <trkpt lat="45.84411" lon="4.52783">
        <ele>481</ele>
        <time>2025-09-10T13:50:19Z</time>
      </trkpt>
      <trkpt lat="45.84415" lon="4.52786">
        <ele>480.2</ele>
        <time>2025-09-10T13:50:20Z</time>
      </trkpt>
      <trkpt lat="45.84419" lon="4.52789">
        <ele>479.6</ele>
        <time>2025-09-10T13:50:21Z</time>
      </trkpt>
      <trkpt lat="45.84423" lon="4.52792">
        <ele>478.8</ele>
        <time>2025-09-10T13:50:22Z</time>
      </trkpt>
      <trkpt lat="45.84429" lon="4.52795">
        <ele>477.6</ele>
        <time>2025-09-10T13:50:23Z</time>
      </trkpt>
      <trkpt lat="45.84433" lon="4.52798">
        <ele>476.6</ele>
        <time>2025-09-10T13:50:24Z</time>
      </trkpt>
      <trkpt lat="45.84436" lon="4.528">
        <ele>475.6</ele>
        <time>2025-09-10T13:50:25Z</time>
      </trkpt>
      <trkpt lat="45.84439" lon="4.52803">
        <ele>474.8</ele>
        <time>2025-09-10T13:50:26Z</time>
      </trkpt>
      <trkpt lat="45.84443" lon="4.52806">
        <ele>473.8</ele>
        <time>2025-09-10T13:50:27Z</time>
      </trkpt>
      <trkpt lat="45.84448" lon="4.52811">
        <ele>473</ele>
        <time>2025-09-10T13:50:28Z</time>
      </trkpt>
      <trkpt lat="45.84453" lon="4.52815">
        <ele>472.2</ele>
        <time>2025-09-10T13:50:29Z</time>
      </trkpt>
      <trkpt lat="45.84459" lon="4.52818">
        <ele>471</ele>
        <time>2025-09-10T13:50:30Z</time>
      </trkpt>
      <trkpt lat="45.84461" lon="4.52825">
        <ele>470.4</ele>
        <time>2025-09-10T13:50:31Z</time>
      </trkpt>
      <trkpt lat="45.84464" lon="4.5283">
        <ele>469.8</ele>
        <time>2025-09-10T13:50:32Z</time>
      </trkpt>
      <trkpt lat="45.84467" lon="4.52833">
        <ele>469.6</ele>
        <time>2025-09-10T13:50:33Z</time>
      </trkpt>
      <trkpt lat="45.8447" lon="4.52837">
        <ele>469</ele>
        <time>2025-09-10T13:50:34Z</time>
      </trkpt>
      <trkpt lat="45.8447" lon="4.52839">
        <ele>469</ele>
        <time>2025-09-10T13:50:35Z</time>
      </trkpt>
      <trkpt lat="45.84472" lon="4.52842">
        <ele>468.6</ele>
        <time>2025-09-10T13:50:36Z</time>
      </trkpt>
      <trkpt lat="45.84472" lon="4.52845">
        <ele>468.2</ele>
        <time>2025-09-10T13:50:37Z</time>
      </trkpt>
      <trkpt lat="45.84473" lon="4.52848">
        <ele>467.8</ele>
        <time>2025-09-10T13:50:38Z</time>
      </trkpt>
      <trkpt lat="45.84474" lon="4.52851">
        <ele>467.4</ele>
        <time>2025-09-10T13:50:39Z</time>
      </trkpt>
      <trkpt lat="45.84478" lon="4.52852">
        <ele>466.8</ele>
        <time>2025-09-10T13:50:40Z</time>
      </trkpt>
      <trkpt lat="45.84481" lon="4.52855">
        <ele>465.6</ele>
        <time>2025-09-10T13:50:41Z</time>
      </trkpt>
      <trkpt lat="45.84485" lon="4.52857">
        <ele>465</ele>
        <time>2025-09-10T13:50:42Z</time>
      </trkpt>
      <trkpt lat="45.84488" lon="4.52859">
        <ele>465</ele>
        <time>2025-09-10T13:50:43Z</time>
      </trkpt>
      <trkpt lat="45.84492" lon="4.52861">
        <ele>465.4</ele>
        <time>2025-09-10T13:50:44Z</time>
      </trkpt>
      <trkpt lat="45.84495" lon="4.52863">
        <ele>465.4</ele>
        <time>2025-09-10T13:50:45Z</time>
      </trkpt>
      <trkpt lat="45.845" lon="4.52866">
        <ele>465</ele>
        <time>2025-09-10T13:50:46Z</time>
      </trkpt>
      <trkpt lat="45.84505" lon="4.52867">
        <ele>464.8</ele>
        <time>2025-09-10T13:50:47Z</time>
      </trkpt>
      <trkpt lat="45.84508" lon="4.52868">
        <ele>464.6</ele>
        <time>2025-09-10T13:50:48Z</time>
      </trkpt>
      <trkpt lat="45.84511" lon="4.52869">
        <ele>464.2</ele>
        <time>2025-09-10T13:50:49Z</time>
      </trkpt>
      <trkpt lat="45.84515" lon="4.52871">
        <ele>464.2</ele>
        <time>2025-09-10T13:50:50Z</time>
      </trkpt>
      <trkpt lat="45.84519" lon="4.52872">
        <ele>463.8</ele>
        <time>2025-09-10T13:50:51Z</time>
      </trkpt>
      <trkpt lat="45.84522" lon="4.52874">
        <ele>463.4</ele>
        <time>2025-09-10T13:50:52Z</time>
      </trkpt>
      <trkpt lat="45.84527" lon="4.52876">
        <ele>463.2</ele>
        <time>2025-09-10T13:50:53Z</time>
      </trkpt>
      <trkpt lat="45.84532" lon="4.52877">
        <ele>463</ele>
        <time>2025-09-10T13:50:54Z</time>
      </trkpt>
      <trkpt lat="45.84536" lon="4.52879">
        <ele>462.6</ele>
        <time>2025-09-10T13:50:55Z</time>
      </trkpt>
      <trkpt lat="45.8454" lon="4.52882">
        <ele>462.2</ele>
        <time>2025-09-10T13:50:56Z</time>
      </trkpt>
      <trkpt lat="45.84544" lon="4.52884">
        <ele>461.8</ele>
        <time>2025-09-10T13:50:57Z</time>
      </trkpt>
      <trkpt lat="45.84549" lon="4.52884">
        <ele>461.4</ele>
        <time>2025-09-10T13:50:58Z</time>
      </trkpt>
      <trkpt lat="45.84555" lon="4.52888">
        <ele>461</ele>
        <time>2025-09-10T13:50:59Z</time>
      </trkpt>
      <trkpt lat="45.84561" lon="4.5289">
        <ele>460.6</ele>
        <time>2025-09-10T13:51:00Z</time>
      </trkpt>
      <trkpt lat="45.84568" lon="4.52892">
        <ele>460</ele>
        <time>2025-09-10T13:51:01Z</time>
      </trkpt>
      <trkpt lat="45.84573" lon="4.52892">
        <ele>459.6</ele>
        <time>2025-09-10T13:51:02Z</time>
      </trkpt>
      <trkpt lat="45.8458" lon="4.52893">
        <ele>459.2</ele>
        <time>2025-09-10T13:51:03Z</time>
      </trkpt>
      <trkpt lat="45.84585" lon="4.52895">
        <ele>458.8</ele>
        <time>2025-09-10T13:51:04Z</time>
      </trkpt>
      <trkpt lat="45.8459" lon="4.52896">
        <ele>458.4</ele>
        <time>2025-09-10T13:51:05Z</time>
      </trkpt>
      <trkpt lat="45.84594" lon="4.52897">
        <ele>458</ele>
        <time>2025-09-10T13:51:06Z</time>
      </trkpt>
      <trkpt lat="45.84599" lon="4.52898">
        <ele>457.4</ele>
        <time>2025-09-10T13:51:07Z</time>
      </trkpt>
      <trkpt lat="45.84602" lon="4.52898">
        <ele>457</ele>
        <time>2025-09-10T13:51:08Z</time>
      </trkpt>
      <trkpt lat="45.84606" lon="4.52899">
        <ele>456.4</ele>
        <time>2025-09-10T13:51:09Z</time>
      </trkpt>
      <trkpt lat="45.8461" lon="4.52899">
        <ele>456.2</ele>
        <time>2025-09-10T13:51:10Z</time>
      </trkpt>
      <trkpt lat="45.84614" lon="4.52899">
        <ele>456.2</ele>
        <time>2025-09-10T13:51:11Z</time>
      </trkpt>
      <trkpt lat="45.84618" lon="4.52901">
        <ele>455.8</ele>
        <time>2025-09-10T13:51:12Z</time>
      </trkpt>
      <trkpt lat="45.84623" lon="4.52902">
        <ele>455.4</ele>
        <time>2025-09-10T13:51:13Z</time>
      </trkpt>
      <trkpt lat="45.84628" lon="4.52905">
        <ele>455</ele>
        <time>2025-09-10T13:51:14Z</time>
      </trkpt>
      <trkpt lat="45.84633" lon="4.52907">
        <ele>455</ele>
        <time>2025-09-10T13:51:15Z</time>
      </trkpt>
      <trkpt lat="45.84639" lon="4.52908">
        <ele>454.4</ele>
        <time>2025-09-10T13:51:16Z</time>
      </trkpt>
      <trkpt lat="45.84645" lon="4.52911">
        <ele>454.2</ele>
        <time>2025-09-10T13:51:17Z</time>
      </trkpt>
      <trkpt lat="45.84651" lon="4.52913">
        <ele>453.8</ele>
        <time>2025-09-10T13:51:18Z</time>
      </trkpt>
      <trkpt lat="45.84656" lon="4.52916">
        <ele>453.6</ele>
        <time>2025-09-10T13:51:19Z</time>
      </trkpt>
      <trkpt lat="45.84662" lon="4.5292">
        <ele>453</ele>
        <time>2025-09-10T13:51:20Z</time>
      </trkpt>
      <trkpt lat="45.84666" lon="4.52924">
        <ele>452.6</ele>
        <time>2025-09-10T13:51:21Z</time>
      </trkpt>
      <trkpt lat="45.8467" lon="4.52928">
        <ele>452.4</ele>
        <time>2025-09-10T13:51:22Z</time>
      </trkpt>
      <trkpt lat="45.84673" lon="4.52932">
        <ele>452.2</ele>
        <time>2025-09-10T13:51:23Z</time>
      </trkpt>
      <trkpt lat="45.84675" lon="4.52934">
        <ele>451.8</ele>
        <time>2025-09-10T13:51:24Z</time>
      </trkpt>
      <trkpt lat="45.84677" lon="4.52936">
        <ele>451.8</ele>
        <time>2025-09-10T13:51:25Z</time>
      </trkpt>
      <trkpt lat="45.84679" lon="4.52937">
        <ele>451.2</ele>
        <time>2025-09-10T13:51:26Z</time>
      </trkpt>
      <trkpt lat="45.84679" lon="4.52937">
        <ele>451.2</ele>
        <time>2025-09-10T13:51:27Z</time>
      </trkpt>
      <trkpt lat="45.84678" lon="4.52937">
        <ele>451.2</ele>
        <time>2025-09-10T13:51:28Z</time>
      </trkpt>
      <trkpt lat="45.84679" lon="4.52938">
        <ele>451</ele>
        <time>2025-09-10T13:51:29Z</time>
      </trkpt>
      <trkpt lat="45.8468" lon="4.5294">
        <ele>451</ele>
        <time>2025-09-10T13:51:30Z</time>
      </trkpt>
      <trkpt lat="45.8468" lon="4.52941">
        <ele>450.8</ele>
        <time>2025-09-10T13:51:31Z</time>
      </trkpt>
      <trkpt lat="45.84681" lon="4.52943">
        <ele>450.8</ele>
        <time>2025-09-10T13:51:32Z</time>
      </trkpt>
      <trkpt lat="45.84681" lon="4.52946">
        <ele>450.8</ele>
        <time>2025-09-10T13:51:33Z</time>
      </trkpt>
      <trkpt lat="45.84682" lon="4.52948">
        <ele>450.8</ele>
        <time>2025-09-10T13:51:34Z</time>
      </trkpt>
      <trkpt lat="45.84682" lon="4.52949">
        <ele>450.4</ele>
        <time>2025-09-10T13:51:35Z</time>
      </trkpt>
      <trkpt lat="45.84682" lon="4.5295">
        <ele>450.4</ele>
        <time>2025-09-10T13:51:36Z</time>
      </trkpt>
      <trkpt lat="45.84683" lon="4.52951">
        <ele>450.2</ele>
        <time>2025-09-10T13:51:37Z</time>
      </trkpt>
      <trkpt lat="45.84682" lon="4.5295">
        <ele>450.2</ele>
        <time>2025-09-10T13:51:38Z</time>
      </trkpt>
      <trkpt lat="45.84682" lon="4.5295">
        <ele>450.2</ele>
        <time>2025-09-10T13:51:39Z</time>
      </trkpt>
      <trkpt lat="45.84684" lon="4.52946">
        <ele>449.6</ele>
        <time>2025-09-10T13:51:46Z</time>
      </trkpt>
      <trkpt lat="45.84684" lon="4.52946">
        <ele>449.6</ele>
        <time>2025-09-10T13:51:47Z</time>
      </trkpt>
      <trkpt lat="45.84684" lon="4.52946">
        <ele>449.4</ele>
        <time>2025-09-10T13:51:48Z</time>
      </trkpt>
      <trkpt lat="45.84684" lon="4.5295">
        <ele>449.8</ele>
        <time>2025-09-10T13:52:54Z</time>
      </trkpt>
      <trkpt lat="45.84684" lon="4.52951">
        <ele>449.6</ele>
        <time>2025-09-10T13:52:55Z</time>
      </trkpt>
      <trkpt lat="45.84684" lon="4.52953">
        <ele>449.6</ele>
        <time>2025-09-10T13:52:56Z</time>
      </trkpt>
      <trkpt lat="45.84684" lon="4.52957">
        <ele>449.6</ele>
        <time>2025-09-10T13:52:57Z</time>
      </trkpt>
      <trkpt lat="45.84685" lon="4.52965">
        <ele>449.2</ele>
        <time>2025-09-10T13:52:58Z</time>
      </trkpt>
      <trkpt lat="45.84687" lon="4.5297">
        <ele>449</ele>
        <time>2025-09-10T13:52:59Z</time>
      </trkpt>
      <trkpt lat="45.84688" lon="4.52978">
        <ele>448.6</ele>
        <time>2025-09-10T13:53:00Z</time>
      </trkpt>
      <trkpt lat="45.84689" lon="4.52985">
        <ele>448.2</ele>
        <time>2025-09-10T13:53:01Z</time>
      </trkpt>
      <trkpt lat="45.84692" lon="4.52993">
        <ele>448.2</ele>
        <time>2025-09-10T13:53:02Z</time>
      </trkpt>
      <trkpt lat="45.84696" lon="4.52999">
        <ele>447.6</ele>
        <time>2025-09-10T13:53:03Z</time>
      </trkpt>
      <trkpt lat="45.847" lon="4.53006">
        <ele>447</ele>
        <time>2025-09-10T13:53:04Z</time>
      </trkpt>
      <trkpt lat="45.84703" lon="4.53011">
        <ele>446.6</ele>
        <time>2025-09-10T13:53:05Z</time>
      </trkpt>
      <trkpt lat="45.84706" lon="4.53017">
        <ele>445.8</ele>
        <time>2025-09-10T13:53:06Z</time>
      </trkpt>
      <trkpt lat="45.8471" lon="4.53022">
        <ele>445.2</ele>
        <time>2025-09-10T13:53:07Z</time>
      </trkpt>
      <trkpt lat="45.84713" lon="4.53028">
        <ele>444.6</ele>
        <time>2025-09-10T13:53:08Z</time>
      </trkpt>
      <trkpt lat="45.84716" lon="4.53033">
        <ele>444</ele>
        <time>2025-09-10T13:53:09Z</time>
      </trkpt>
      <trkpt lat="45.84718" lon="4.53038">
        <ele>443.4</ele>
        <time>2025-09-10T13:53:10Z</time>
      </trkpt>
      <trkpt lat="45.8472" lon="4.53043">
        <ele>443</ele>
        <time>2025-09-10T13:53:11Z</time>
      </trkpt>
      <trkpt lat="45.84722" lon="4.53048">
        <ele>442.6</ele>
        <time>2025-09-10T13:53:12Z</time>
      </trkpt>
      <trkpt lat="45.84722" lon="4.53052">
        <ele>442.2</ele>
        <time>2025-09-10T13:53:13Z</time>
      </trkpt>
      <trkpt lat="45.84721" lon="4.53055">
        <ele>442.2</ele>
        <time>2025-09-10T13:53:14Z</time>
      </trkpt>
      <trkpt lat="45.84722" lon="4.53058">
        <ele>441.8</ele>
        <time>2025-09-10T13:53:15Z</time>
      </trkpt>
      <trkpt lat="45.84722" lon="4.5306">
        <ele>441.8</ele>
        <time>2025-09-10T13:53:16Z</time>
      </trkpt>
      <trkpt lat="45.84722" lon="4.53062">
        <ele>441.8</ele>
        <time>2025-09-10T13:53:17Z</time>
      </trkpt>
      <trkpt lat="45.84721" lon="4.53065">
        <ele>441.4</ele>
        <time>2025-09-10T13:53:18Z</time>
      </trkpt>
      <trkpt lat="45.84721" lon="4.53067">
        <ele>441.4</ele>
        <time>2025-09-10T13:53:19Z</time>
      </trkpt>
      <trkpt lat="45.84722" lon="4.53069">
        <ele>441.4</ele>
        <time>2025-09-10T13:53:20Z</time>
      </trkpt>
      <trkpt lat="45.84722" lon="4.53073">
        <ele>441.2</ele>
        <time>2025-09-10T13:53:21Z</time>
      </trkpt>
      <trkpt lat="45.84723" lon="4.53077">
        <ele>441.2</ele>
        <time>2025-09-10T13:53:22Z</time>
      </trkpt>
      <trkpt lat="45.84723" lon="4.53081">
        <ele>441</ele>
        <time>2025-09-10T13:53:23Z</time>
      </trkpt>
      <trkpt lat="45.84723" lon="4.53084">
        <ele>440.6</ele>
        <time>2025-09-10T13:53:24Z</time>
      </trkpt>
      <trkpt lat="45.84723" lon="4.53088">
        <ele>440.4</ele>
        <time>2025-09-10T13:53:25Z</time>
      </trkpt>
      <trkpt lat="45.84723" lon="4.53092">
        <ele>440.2</ele>
        <time>2025-09-10T13:53:26Z</time>
      </trkpt>
      <trkpt lat="45.84723" lon="4.53095">
        <ele>439.8</ele>
        <time>2025-09-10T13:53:27Z</time>
      </trkpt>
      <trkpt lat="45.84722" lon="4.53099">
        <ele>439.8</ele>
        <time>2025-09-10T13:53:28Z</time>
      </trkpt>
      <trkpt lat="45.84721" lon="4.53104">
        <ele>439.4</ele>
        <time>2025-09-10T13:53:29Z</time>
      </trkpt>
      <trkpt lat="45.84721" lon="4.53109">
        <ele>439.2</ele>
        <time>2025-09-10T13:53:30Z</time>
      </trkpt>
      <trkpt lat="45.8472" lon="4.53115">
        <ele>439</ele>
        <time>2025-09-10T13:53:31Z</time>
      </trkpt>
      <trkpt lat="45.84721" lon="4.53121">
        <ele>438.6</ele>
        <time>2025-09-10T13:53:32Z</time>
      </trkpt>
      <trkpt lat="45.84722" lon="4.53126">
        <ele>437.6</ele>
        <time>2025-09-10T13:53:33Z</time>
      </trkpt>
      <trkpt lat="45.84722" lon="4.53131">
        <ele>438</ele>
        <time>2025-09-10T13:53:34Z</time>
      </trkpt>
      <trkpt lat="45.84723" lon="4.53136">
        <ele>438.4</ele>
        <time>2025-09-10T13:53:35Z</time>
      </trkpt>
      <trkpt lat="45.84723" lon="4.53142">
        <ele>437</ele>
        <time>2025-09-10T13:53:36Z</time>
      </trkpt>
      <trkpt lat="45.84724" lon="4.53148">
        <ele>437</ele>
        <time>2025-09-10T13:53:37Z</time>
      </trkpt>
      <trkpt lat="45.84725" lon="4.53154">
        <ele>436.4</ele>
        <time>2025-09-10T13:53:38Z</time>
      </trkpt>
      <trkpt lat="45.84726" lon="4.5316">
        <ele>436.2</ele>
        <time>2025-09-10T13:53:39Z</time>
      </trkpt>
      <trkpt lat="45.84728" lon="4.53167">
        <ele>436</ele>
        <time>2025-09-10T13:53:40Z</time>
      </trkpt>
      <trkpt lat="45.84729" lon="4.53175">
        <ele>435.6</ele>
        <time>2025-09-10T13:53:41Z</time>
      </trkpt>
      <trkpt lat="45.8473" lon="4.53183">
        <ele>435.4</ele>
        <time>2025-09-10T13:53:42Z</time>
      </trkpt>
      <trkpt lat="45.8473" lon="4.53192">
        <ele>435</ele>
        <time>2025-09-10T13:53:43Z</time>
      </trkpt>
      <trkpt lat="45.8473" lon="4.53199">
        <ele>434.6</ele>
        <time>2025-09-10T13:53:44Z</time>
      </trkpt>
      <trkpt lat="45.8473" lon="4.53207">
        <ele>434.4</ele>
        <time>2025-09-10T13:53:45Z</time>
      </trkpt>
      <trkpt lat="45.84729" lon="4.53213">
        <ele>434</ele>
        <time>2025-09-10T13:53:46Z</time>
      </trkpt>
      <trkpt lat="45.84729" lon="4.53219">
        <ele>433.6</ele>
        <time>2025-09-10T13:53:47Z</time>
      </trkpt>
      <trkpt lat="45.8473" lon="4.53226">
        <ele>433.4</ele>
        <time>2025-09-10T13:53:48Z</time>
      </trkpt>
      <trkpt lat="45.84732" lon="4.53232">
        <ele>433.2</ele>
        <time>2025-09-10T13:53:49Z</time>
      </trkpt>
      <trkpt lat="45.84737" lon="4.53238">
        <ele>432.8</ele>
        <time>2025-09-10T13:53:50Z</time>
      </trkpt>
      <trkpt lat="45.8474" lon="4.53244">
        <ele>432.4</ele>
        <time>2025-09-10T13:53:51Z</time>
      </trkpt>
      <trkpt lat="45.84745" lon="4.53251">
        <ele>431.8</ele>
        <time>2025-09-10T13:53:52Z</time>
      </trkpt>
      <trkpt lat="45.84751" lon="4.53258">
        <ele>431</ele>
        <time>2025-09-10T13:53:53Z</time>
      </trkpt>
      <trkpt lat="45.84757" lon="4.53264">
        <ele>430.2</ele>
        <time>2025-09-10T13:53:54Z</time>
      </trkpt>
      <trkpt lat="45.84766" lon="4.53271">
        <ele>429.6</ele>
        <time>2025-09-10T13:53:55Z</time>
      </trkpt>
      <trkpt lat="45.84771" lon="4.53277">
        <ele>428.8</ele>
        <time>2025-09-10T13:53:56Z</time>
      </trkpt>
      <trkpt lat="45.84777" lon="4.53284">
        <ele>427.8</ele>
        <time>2025-09-10T13:53:57Z</time>
      </trkpt>
      <trkpt lat="45.84781" lon="4.5329">
        <ele>427</ele>
        <time>2025-09-10T13:53:58Z</time>
      </trkpt>
      <trkpt lat="45.84785" lon="4.53299">
        <ele>426.2</ele>
        <time>2025-09-10T13:53:59Z</time>
      </trkpt>
      <trkpt lat="45.84789" lon="4.53309">
        <ele>425.4</ele>
        <time>2025-09-10T13:54:00Z</time>
      </trkpt>
      <trkpt lat="45.84794" lon="4.53317">
        <ele>425.4</ele>
        <time>2025-09-10T13:54:01Z</time>
      </trkpt>
      <trkpt lat="45.84797" lon="4.5333">
        <ele>423.4</ele>
        <time>2025-09-10T13:54:02Z</time>
      </trkpt>
      <trkpt lat="45.84801" lon="4.53342">
        <ele>423.4</ele>
        <time>2025-09-10T13:54:03Z</time>
      </trkpt>
      <trkpt lat="45.84804" lon="4.53351">
        <ele>422.6</ele>
        <time>2025-09-10T13:54:04Z</time>
      </trkpt>
      <trkpt lat="45.84806" lon="4.5336">
        <ele>421.8</ele>
        <time>2025-09-10T13:54:05Z</time>
      </trkpt>
      <trkpt lat="45.84808" lon="4.53369">
        <ele>421.2</ele>
        <time>2025-09-10T13:54:06Z</time>
      </trkpt>
      <trkpt lat="45.8481" lon="4.53377">
        <ele>420.6</ele>
        <time>2025-09-10T13:54:07Z</time>
      </trkpt>
      <trkpt lat="45.84814" lon="4.53384">
        <ele>420</ele>
        <time>2025-09-10T13:54:08Z</time>
      </trkpt>
      <trkpt lat="45.84817" lon="4.5339">
        <ele>419.4</ele>
        <time>2025-09-10T13:54:09Z</time>
      </trkpt>
      <trkpt lat="45.8482" lon="4.53395">
        <ele>418.8</ele>
        <time>2025-09-10T13:54:10Z</time>
      </trkpt>
      <trkpt lat="45.84821" lon="4.53399">
        <ele>418.4</ele>
        <time>2025-09-10T13:54:11Z</time>
      </trkpt>
      <trkpt lat="45.84825" lon="4.53399">
        <ele>417.8</ele>
        <time>2025-09-10T13:54:12Z</time>
      </trkpt>
      <trkpt lat="45.84829" lon="4.53397">
        <ele>417.4</ele>
        <time>2025-09-10T13:54:13Z</time>
      </trkpt>
      <trkpt lat="45.84833" lon="4.53394">
        <ele>417.2</ele>
        <time>2025-09-10T13:54:14Z</time>
      </trkpt>
      <trkpt lat="45.84836" lon="4.53389">
        <ele>416.8</ele>
        <time>2025-09-10T13:54:15Z</time>
      </trkpt>
      <trkpt lat="45.8484" lon="4.53385">
        <ele>416.6</ele>
        <time>2025-09-10T13:54:16Z</time>
      </trkpt>
      <trkpt lat="45.84843" lon="4.5338">
        <ele>416.6</ele>
        <time>2025-09-10T13:54:17Z</time>
      </trkpt>
      <trkpt lat="45.84846" lon="4.53377">
        <ele>416.6</ele>
        <time>2025-09-10T13:54:18Z</time>
      </trkpt>
      <trkpt lat="45.8485" lon="4.53373">
        <ele>416.6</ele>
        <time>2025-09-10T13:54:19Z</time>
      </trkpt>
      <trkpt lat="45.84854" lon="4.53369">
        <ele>416.4</ele>
        <time>2025-09-10T13:54:20Z</time>
      </trkpt>
      <trkpt lat="45.84857" lon="4.53366">
        <ele>416.4</ele>
        <time>2025-09-10T13:54:21Z</time>
      </trkpt>
      <trkpt lat="45.8486" lon="4.53361">
        <ele>415.6</ele>
        <time>2025-09-10T13:54:22Z</time>
      </trkpt>
      <trkpt lat="45.84863" lon="4.53357">
        <ele>415.2</ele>
        <time>2025-09-10T13:54:23Z</time>
      </trkpt>
      <trkpt lat="45.84867" lon="4.53353">
        <ele>415.2</ele>
        <time>2025-09-10T13:54:24Z</time>
      </trkpt>
      <trkpt lat="45.8487" lon="4.53348">
        <ele>415.2</ele>
        <time>2025-09-10T13:54:25Z</time>
      </trkpt>
      <trkpt lat="45.84874" lon="4.53345">
        <ele>415.2</ele>
        <time>2025-09-10T13:54:26Z</time>
      </trkpt>
      <trkpt lat="45.84878" lon="4.53341">
        <ele>415.2</ele>
        <time>2025-09-10T13:54:27Z</time>
      </trkpt>
      <trkpt lat="45.84882" lon="4.53337">
        <ele>415.2</ele>
        <time>2025-09-10T13:54:28Z</time>
      </trkpt>
      <trkpt lat="45.84886" lon="4.53333">
        <ele>415.2</ele>
        <time>2025-09-10T13:54:29Z</time>
      </trkpt>
      <trkpt lat="45.8489" lon="4.53329">
        <ele>415</ele>
        <time>2025-09-10T13:54:30Z</time>
      </trkpt>
      <trkpt lat="45.84894" lon="4.53327">
        <ele>414.8</ele>
        <time>2025-09-10T13:54:31Z</time>
      </trkpt>
      <trkpt lat="45.84899" lon="4.53324">
        <ele>414.6</ele>
        <time>2025-09-10T13:54:32Z</time>
      </trkpt>
      <trkpt lat="45.84903" lon="4.53322">
        <ele>414.6</ele>
        <time>2025-09-10T13:54:33Z</time>
      </trkpt>
      <trkpt lat="45.84908" lon="4.53321">
        <ele>414.6</ele>
        <time>2025-09-10T13:54:34Z</time>
      </trkpt>
      <trkpt lat="45.84913" lon="4.53319">
        <ele>414.6</ele>
        <time>2025-09-10T13:54:35Z</time>
      </trkpt>
      <trkpt lat="45.84918" lon="4.53318">
        <ele>414.6</ele>
        <time>2025-09-10T13:54:36Z</time>
      </trkpt>
      <trkpt lat="45.84923" lon="4.53318">
        <ele>414.2</ele>
        <time>2025-09-10T13:54:37Z</time>
      </trkpt>
      <trkpt lat="45.84929" lon="4.53318">
        <ele>414.2</ele>
        <time>2025-09-10T13:54:38Z</time>
      </trkpt>
      <trkpt lat="45.84934" lon="4.53319">
        <ele>414</ele>
        <time>2025-09-10T13:54:39Z</time>
      </trkpt>
      <trkpt lat="45.8494" lon="4.5332">
        <ele>414</ele>
        <time>2025-09-10T13:54:40Z</time>
      </trkpt>
      <trkpt lat="45.84946" lon="4.5332">
        <ele>413.6</ele>
        <time>2025-09-10T13:54:41Z</time>
      </trkpt>
      <trkpt lat="45.84952" lon="4.53321">
        <ele>413.4</ele>
        <time>2025-09-10T13:54:42Z</time>
      </trkpt>
      <trkpt lat="45.84957" lon="4.53321">
        <ele>412.8</ele>
        <time>2025-09-10T13:54:43Z</time>
      </trkpt>
      <trkpt lat="45.84963" lon="4.53322">
        <ele>412.8</ele>
        <time>2025-09-10T13:54:44Z</time>
      </trkpt>
      <trkpt lat="45.84967" lon="4.53323">
        <ele>412.8</ele>
        <time>2025-09-10T13:54:45Z</time>
      </trkpt>
      <trkpt lat="45.84973" lon="4.53323">
        <ele>412.8</ele>
        <time>2025-09-10T13:54:46Z</time>
      </trkpt>
      <trkpt lat="45.84979" lon="4.53324">
        <ele>412.6</ele>
        <time>2025-09-10T13:54:47Z</time>
      </trkpt>
      <trkpt lat="45.84986" lon="4.53324">
        <ele>412.6</ele>
        <time>2025-09-10T13:54:48Z</time>
      </trkpt>
      <trkpt lat="45.84992" lon="4.53323">
        <ele>412.4</ele>
        <time>2025-09-10T13:54:49Z</time>
      </trkpt>
      <trkpt lat="45.84998" lon="4.53323">
        <ele>412.4</ele>
        <time>2025-09-10T13:54:50Z</time>
      </trkpt>
      <trkpt lat="45.85003" lon="4.53323">
        <ele>412</ele>
        <time>2025-09-10T13:54:51Z</time>
      </trkpt>
      <trkpt lat="45.85007" lon="4.53325">
        <ele>412</ele>
        <time>2025-09-10T13:54:52Z</time>
      </trkpt>
      <trkpt lat="45.85012" lon="4.53326">
        <ele>411.8</ele>
        <time>2025-09-10T13:54:53Z</time>
      </trkpt>
      <trkpt lat="45.85015" lon="4.53326">
        <ele>411.8</ele>
        <time>2025-09-10T13:54:54Z</time>
      </trkpt>
      <trkpt lat="45.85018" lon="4.53327">
        <ele>411.8</ele>
        <time>2025-09-10T13:54:55Z</time>
      </trkpt>
      <trkpt lat="45.8502" lon="4.53326">
        <ele>411.6</ele>
        <time>2025-09-10T13:54:56Z</time>
      </trkpt>
      <trkpt lat="45.85023" lon="4.53327">
        <ele>411.6</ele>
        <time>2025-09-10T13:54:57Z</time>
      </trkpt>
      <trkpt lat="45.85026" lon="4.53327">
        <ele>411.6</ele>
        <time>2025-09-10T13:54:58Z</time>
      </trkpt>
      <trkpt lat="45.85029" lon="4.53329">
        <ele>411.4</ele>
        <time>2025-09-10T13:54:59Z</time>
      </trkpt>
      <trkpt lat="45.85032" lon="4.53329">
        <ele>411.4</ele>
        <time>2025-09-10T13:55:00Z</time>
      </trkpt>
      <trkpt lat="45.85035" lon="4.53328">
        <ele>411</ele>
        <time>2025-09-10T13:55:01Z</time>
      </trkpt>
      <trkpt lat="45.85037" lon="4.53328">
        <ele>410.8</ele>
        <time>2025-09-10T13:55:02Z</time>
      </trkpt>
      <trkpt lat="45.85041" lon="4.5333">
        <ele>410.6</ele>
        <time>2025-09-10T13:55:03Z</time>
      </trkpt>
      <trkpt lat="45.85044" lon="4.5333">
        <ele>410.6</ele>
        <time>2025-09-10T13:55:04Z</time>
      </trkpt>
      <trkpt lat="45.85048" lon="4.5333">
        <ele>410.6</ele>
        <time>2025-09-10T13:55:05Z</time>
      </trkpt>
      <trkpt lat="45.85052" lon="4.5333">
        <ele>410.6</ele>
        <time>2025-09-10T13:55:06Z</time>
      </trkpt>
      <trkpt lat="45.85055" lon="4.5333">
        <ele>410.2</ele>
        <time>2025-09-10T13:55:07Z</time>
      </trkpt>
      <trkpt lat="45.85058" lon="4.5333">
        <ele>410.2</ele>
        <time>2025-09-10T13:55:08Z</time>
      </trkpt>
      <trkpt lat="45.85061" lon="4.5333">
        <ele>409.8</ele>
        <time>2025-09-10T13:55:09Z</time>
      </trkpt>
      <trkpt lat="45.85064" lon="4.53331">
        <ele>409.6</ele>
        <time>2025-09-10T13:55:10Z</time>
      </trkpt>
      <trkpt lat="45.85067" lon="4.5333">
        <ele>409.2</ele>
        <time>2025-09-10T13:55:11Z</time>
      </trkpt>
      <trkpt lat="45.8507" lon="4.53329">
        <ele>409.2</ele>
        <time>2025-09-10T13:55:12Z</time>
      </trkpt>
      <trkpt lat="45.85073" lon="4.53328">
        <ele>409</ele>
        <time>2025-09-10T13:55:13Z</time>
      </trkpt>
      <trkpt lat="45.85075" lon="4.53326">
        <ele>409</ele>
        <time>2025-09-10T13:55:14Z</time>
      </trkpt>
      <trkpt lat="45.85077" lon="4.53325">
        <ele>408.6</ele>
        <time>2025-09-10T13:55:15Z</time>
      </trkpt>
      <trkpt lat="45.85079" lon="4.53323">
        <ele>408.6</ele>
        <time>2025-09-10T13:55:16Z</time>
      </trkpt>
      <trkpt lat="45.8508" lon="4.53322">
        <ele>408.2</ele>
        <time>2025-09-10T13:55:17Z</time>
      </trkpt>
      <trkpt lat="45.85082" lon="4.53321">
        <ele>408</ele>
        <time>2025-09-10T13:55:18Z</time>
      </trkpt>
      <trkpt lat="45.85084" lon="4.53321">
        <ele>408</ele>
        <time>2025-09-10T13:55:19Z</time>
      </trkpt>
      <trkpt lat="45.85086" lon="4.5332">
        <ele>407.6</ele>
        <time>2025-09-10T13:55:20Z</time>
      </trkpt>
      <trkpt lat="45.85088" lon="4.53319">
        <ele>407.6</ele>
        <time>2025-09-10T13:55:21Z</time>
      </trkpt>
      <trkpt lat="45.8509" lon="4.53318">
        <ele>407.4</ele>
        <time>2025-09-10T13:55:22Z</time>
      </trkpt>
      <trkpt lat="45.85092" lon="4.53317">
        <ele>407.4</ele>
        <time>2025-09-10T13:55:23Z</time>
      </trkpt>
      <trkpt lat="45.85094" lon="4.53316">
        <ele>407.4</ele>
        <time>2025-09-10T13:55:24Z</time>
      </trkpt>
      <trkpt lat="45.85096" lon="4.53316">
        <ele>406.8</ele>
        <time>2025-09-10T13:55:25Z</time>
      </trkpt>
      <trkpt lat="45.85097" lon="4.53315">
        <ele>406.8</ele>
        <time>2025-09-10T13:55:26Z</time>
      </trkpt>
      <trkpt lat="45.85099" lon="4.53316">
        <ele>406.8</ele>
        <time>2025-09-10T13:55:27Z</time>
      </trkpt>
      <trkpt lat="45.851" lon="4.53317">
        <ele>406.8</ele>
        <time>2025-09-10T13:55:28Z</time>
      </trkpt>
      <trkpt lat="45.85101" lon="4.53318">
        <ele>406.8</ele>
        <time>2025-09-10T13:55:29Z</time>
      </trkpt>
      <trkpt lat="45.85103" lon="4.53318">
        <ele>406.8</ele>
        <time>2025-09-10T13:55:30Z</time>
      </trkpt>
      <trkpt lat="45.85105" lon="4.53318">
        <ele>406.8</ele>
        <time>2025-09-10T13:55:31Z</time>
      </trkpt>
      <trkpt lat="45.85107" lon="4.53317">
        <ele>406.8</ele>
        <time>2025-09-10T13:55:32Z</time>
      </trkpt>
      <trkpt lat="45.85109" lon="4.53316">
        <ele>406.6</ele>
        <time>2025-09-10T13:55:33Z</time>
      </trkpt>
      <trkpt lat="45.85112" lon="4.53314">
        <ele>406.6</ele>
        <time>2025-09-10T13:55:34Z</time>
      </trkpt>
      <trkpt lat="45.85115" lon="4.53313">
        <ele>406.6</ele>
        <time>2025-09-10T13:55:35Z</time>
      </trkpt>
      <trkpt lat="45.85118" lon="4.53312">
        <ele>406.2</ele>
        <time>2025-09-10T13:55:36Z</time>
      </trkpt>
      <trkpt lat="45.85122" lon="4.5331">
        <ele>406.2</ele>
        <time>2025-09-10T13:55:37Z</time>
      </trkpt>
      <trkpt lat="45.85125" lon="4.53309">
        <ele>406</ele>
        <time>2025-09-10T13:55:38Z</time>
      </trkpt>
      <trkpt lat="45.8513" lon="4.53307">
        <ele>405.6</ele>
        <time>2025-09-10T13:55:39Z</time>
      </trkpt>
      <trkpt lat="45.85134" lon="4.53304">
        <ele>405.6</ele>
        <time>2025-09-10T13:55:40Z</time>
      </trkpt>
      <trkpt lat="45.85139" lon="4.53304">
        <ele>405</ele>
        <time>2025-09-10T13:55:41Z</time>
      </trkpt>
      <trkpt lat="45.85143" lon="4.53303">
        <ele>404.8</ele>
        <time>2025-09-10T13:55:42Z</time>
      </trkpt>
      <trkpt lat="45.85148" lon="4.53301">
        <ele>404.6</ele>
        <time>2025-09-10T13:55:43Z</time>
      </trkpt>
      <trkpt lat="45.85153" lon="4.53302">
        <ele>404.6</ele>
        <time>2025-09-10T13:55:44Z</time>
      </trkpt>
      <trkpt lat="45.85156" lon="4.53298">
        <ele>404.2</ele>
        <time>2025-09-10T13:55:45Z</time>
      </trkpt>
      <trkpt lat="45.8516" lon="4.53297">
        <ele>403.8</ele>
        <time>2025-09-10T13:55:46Z</time>
      </trkpt>
      <trkpt lat="45.85164" lon="4.53294">
        <ele>403.6</ele>
        <time>2025-09-10T13:55:47Z</time>
      </trkpt>
      <trkpt lat="45.85168" lon="4.53292">
        <ele>403.4</ele>
        <time>2025-09-10T13:55:48Z</time>
      </trkpt>
      <trkpt lat="45.85173" lon="4.5329">
        <ele>403.4</ele>
        <time>2025-09-10T13:55:49Z</time>
      </trkpt>
      <trkpt lat="45.85177" lon="4.53289">
        <ele>403</ele>
        <time>2025-09-10T13:55:50Z</time>
      </trkpt>
      <trkpt lat="45.85183" lon="4.53288">
        <ele>403</ele>
        <time>2025-09-10T13:55:51Z</time>
      </trkpt>
      <trkpt lat="45.85189" lon="4.53287">
        <ele>402.4</ele>
        <time>2025-09-10T13:55:52Z</time>
      </trkpt>
      <trkpt lat="45.85196" lon="4.53285">
        <ele>402</ele>
        <time>2025-09-10T13:55:53Z</time>
      </trkpt>
      <trkpt lat="45.85204" lon="4.53285">
        <ele>401.8</ele>
        <time>2025-09-10T13:55:54Z</time>
      </trkpt>
      <trkpt lat="45.85211" lon="4.53283">
        <ele>400.8</ele>
        <time>2025-09-10T13:55:55Z</time>
      </trkpt>
      <trkpt lat="45.8522" lon="4.5328">
        <ele>400</ele>
        <time>2025-09-10T13:55:56Z</time>
      </trkpt>
      <trkpt lat="45.85228" lon="4.53277">
        <ele>399.2</ele>
        <time>2025-09-10T13:55:57Z</time>
      </trkpt>
      <trkpt lat="45.85237" lon="4.53273">
        <ele>398.4</ele>
        <time>2025-09-10T13:55:58Z</time>
      </trkpt>
      <trkpt lat="45.85245" lon="4.5327">
        <ele>397.6</ele>
        <time>2025-09-10T13:55:59Z</time>
      </trkpt>
      <trkpt lat="45.85251" lon="4.53268">
        <ele>396.8</ele>
        <time>2025-09-10T13:56:00Z</time>
      </trkpt>
      <trkpt lat="45.85257" lon="4.53265">
        <ele>396.2</ele>
        <time>2025-09-10T13:56:01Z</time>
      </trkpt>
      <trkpt lat="45.85262" lon="4.53263">
        <ele>395.4</ele>
        <time>2025-09-10T13:56:02Z</time>
      </trkpt>
      <trkpt lat="45.85268" lon="4.53259">
        <ele>394.8</ele>
        <time>2025-09-10T13:56:03Z</time>
      </trkpt>
      <trkpt lat="45.85274" lon="4.53258">
        <ele>394</ele>
        <time>2025-09-10T13:56:04Z</time>
      </trkpt>
      <trkpt lat="45.85281" lon="4.53251">
        <ele>393.8</ele>
        <time>2025-09-10T13:56:05Z</time>
      </trkpt>
      <trkpt lat="45.85287" lon="4.53246">
        <ele>392.8</ele>
        <time>2025-09-10T13:56:06Z</time>
      </trkpt>
      <trkpt lat="45.85295" lon="4.53239">
        <ele>392.6</ele>
        <time>2025-09-10T13:56:07Z</time>
      </trkpt>
      <trkpt lat="45.85303" lon="4.53234">
        <ele>391.6</ele>
        <time>2025-09-10T13:56:08Z</time>
      </trkpt>
      <trkpt lat="45.85311" lon="4.53227">
        <ele>391</ele>
        <time>2025-09-10T13:56:09Z</time>
      </trkpt>
      <trkpt lat="45.85319" lon="4.5322">
        <ele>390</ele>
        <time>2025-09-10T13:56:10Z</time>
      </trkpt>
      <trkpt lat="45.85326" lon="4.53213">
        <ele>389</ele>
        <time>2025-09-10T13:56:11Z</time>
      </trkpt>
      <trkpt lat="45.85333" lon="4.53206">
        <ele>388.6</ele>
        <time>2025-09-10T13:56:12Z</time>
      </trkpt>
      <trkpt lat="45.85338" lon="4.532">
        <ele>388.6</ele>
        <time>2025-09-10T13:56:13Z</time>
      </trkpt>
      <trkpt lat="45.85342" lon="4.53196">
        <ele>388.2</ele>
        <time>2025-09-10T13:56:14Z</time>
      </trkpt>
      <trkpt lat="45.85346" lon="4.53191">
        <ele>388.2</ele>
        <time>2025-09-10T13:56:15Z</time>
      </trkpt>
      <trkpt lat="45.85353" lon="4.53185">
        <ele>387.8</ele>
        <time>2025-09-10T13:56:16Z</time>
      </trkpt>
      <trkpt lat="45.85355" lon="4.53185">
        <ele>387.8</ele>
        <time>2025-09-10T13:56:17Z</time>
      </trkpt>
      <trkpt lat="45.85357" lon="4.53186">
        <ele>388.2</ele>
        <time>2025-09-10T13:56:18Z</time>
      </trkpt>
      <trkpt lat="45.85358" lon="4.53189">
        <ele>388.2</ele>
        <time>2025-09-10T13:56:19Z</time>
      </trkpt>
      <trkpt lat="45.8536" lon="4.53192">
        <ele>388.6</ele>
        <time>2025-09-10T13:56:20Z</time>
      </trkpt>
      <trkpt lat="45.85362" lon="4.53196">
        <ele>388.6</ele>
        <time>2025-09-10T13:56:21Z</time>
      </trkpt>
      <trkpt lat="45.85364" lon="4.532">
        <ele>388.6</ele>
        <time>2025-09-10T13:56:22Z</time>
      </trkpt>
      <trkpt lat="45.85367" lon="4.53204">
        <ele>388.6</ele>
        <time>2025-09-10T13:56:23Z</time>
      </trkpt>
      <trkpt lat="45.85369" lon="4.53208">
        <ele>388.6</ele>
        <time>2025-09-10T13:56:24Z</time>
      </trkpt>
      <trkpt lat="45.85372" lon="4.53214">
        <ele>388.6</ele>
        <time>2025-09-10T13:56:25Z</time>
      </trkpt>
      <trkpt lat="45.85375" lon="4.53219">
        <ele>388.2</ele>
        <time>2025-09-10T13:56:26Z</time>
      </trkpt>
      <trkpt lat="45.85378" lon="4.53224">
        <ele>388</ele>
        <time>2025-09-10T13:56:27Z</time>
      </trkpt>
      <trkpt lat="45.85381" lon="4.5323">
        <ele>388</ele>
        <time>2025-09-10T13:56:28Z</time>
      </trkpt>
      <trkpt lat="45.85384" lon="4.53236">
        <ele>387.6</ele>
        <time>2025-09-10T13:56:29Z</time>
      </trkpt>
      <trkpt lat="45.85388" lon="4.53243">
        <ele>387.6</ele>
        <time>2025-09-10T13:56:30Z</time>
      </trkpt>
      <trkpt lat="45.85388" lon="4.53243">
        <ele>387.2</ele>
        <time>2025-09-10T13:56:31Z</time>
      </trkpt>
      <trkpt lat="45.85391" lon="4.5325">
        <ele>387.2</ele>
        <time>2025-09-10T13:56:32Z</time>
      </trkpt>
      <trkpt lat="45.85395" lon="4.53257">
        <ele>386.8</ele>
        <time>2025-09-10T13:56:33Z</time>
      </trkpt>
      <trkpt lat="45.85398" lon="4.53266">
        <ele>386.2</ele>
        <time>2025-09-10T13:56:34Z</time>
      </trkpt>
      <trkpt lat="45.85403" lon="4.53273">
        <ele>385.8</ele>
        <time>2025-09-10T13:56:35Z</time>
      </trkpt>
      <trkpt lat="45.85407" lon="4.53281">
        <ele>385.4</ele>
        <time>2025-09-10T13:56:36Z</time>
      </trkpt>
      <trkpt lat="45.85412" lon="4.5329">
        <ele>385</ele>
        <time>2025-09-10T13:56:37Z</time>
      </trkpt>
      <trkpt lat="45.85417" lon="4.53297">
        <ele>384.4</ele>
        <time>2025-09-10T13:56:38Z</time>
      </trkpt>
      <trkpt lat="45.85423" lon="4.53304">
        <ele>384.2</ele>
        <time>2025-09-10T13:56:39Z</time>
      </trkpt>
      <trkpt lat="45.85429" lon="4.53311">
        <ele>384.2</ele>
        <time>2025-09-10T13:56:40Z</time>
      </trkpt>
      <trkpt lat="45.85436" lon="4.53317">
        <ele>383.8</ele>
        <time>2025-09-10T13:56:41Z</time>
      </trkpt>
      <trkpt lat="45.85444" lon="4.53322">
        <ele>383</ele>
        <time>2025-09-10T13:56:42Z</time>
      </trkpt>
      <trkpt lat="45.85451" lon="4.53326">
        <ele>382.8</ele>
        <time>2025-09-10T13:56:43Z</time>
      </trkpt>
      <trkpt lat="45.85457" lon="4.53332">
        <ele>382.6</ele>
        <time>2025-09-10T13:56:44Z</time>
      </trkpt>
      <trkpt lat="45.85464" lon="4.53337">
        <ele>382.2</ele>
        <time>2025-09-10T13:56:45Z</time>
      </trkpt>
      <trkpt lat="45.85472" lon="4.53342">
        <ele>381.6</ele>
        <time>2025-09-10T13:56:46Z</time>
      </trkpt>
      <trkpt lat="45.85479" lon="4.53347">
        <ele>381</ele>
        <time>2025-09-10T13:56:47Z</time>
      </trkpt>
      <trkpt lat="45.85485" lon="4.53351">
        <ele>380</ele>
        <time>2025-09-10T13:56:48Z</time>
      </trkpt>
      <trkpt lat="45.85493" lon="4.53356">
        <ele>379.6</ele>
        <time>2025-09-10T13:56:49Z</time>
      </trkpt>
      <trkpt lat="45.85501" lon="4.53362">
        <ele>379</ele>
        <time>2025-09-10T13:56:50Z</time>
      </trkpt>
      <trkpt lat="45.85509" lon="4.53366">
        <ele>378.4</ele>
        <time>2025-09-10T13:56:51Z</time>
      </trkpt>
      <trkpt lat="45.85517" lon="4.53372">
        <ele>377.8</ele>
        <time>2025-09-10T13:56:52Z</time>
      </trkpt>
      <trkpt lat="45.85525" lon="4.53376">
        <ele>377.4</ele>
        <time>2025-09-10T13:56:53Z</time>
      </trkpt>
      <trkpt lat="45.85533" lon="4.53382">
        <ele>377</ele>
        <time>2025-09-10T13:56:54Z</time>
      </trkpt>
      <trkpt lat="45.85541" lon="4.53386">
        <ele>376.6</ele>
        <time>2025-09-10T13:56:55Z</time>
      </trkpt>
      <trkpt lat="45.8555" lon="4.53393">
        <ele>376.6</ele>
        <time>2025-09-10T13:56:56Z</time>
      </trkpt>
      <trkpt lat="45.85558" lon="4.53397">
        <ele>376</ele>
        <time>2025-09-10T13:56:57Z</time>
      </trkpt>
      <trkpt lat="45.85567" lon="4.53403">
        <ele>375.4</ele>
        <time>2025-09-10T13:56:58Z</time>
      </trkpt>
      <trkpt lat="45.85576" lon="4.53409">
        <ele>374.6</ele>
        <time>2025-09-10T13:56:59Z</time>
      </trkpt>
      <trkpt lat="45.85585" lon="4.53414">
        <ele>374.4</ele>
        <time>2025-09-10T13:57:00Z</time>
      </trkpt>
      <trkpt lat="45.85593" lon="4.53421">
        <ele>374.4</ele>
        <time>2025-09-10T13:57:01Z</time>
      </trkpt>
      <trkpt lat="45.85601" lon="4.53426">
        <ele>373.6</ele>
        <time>2025-09-10T13:57:02Z</time>
      </trkpt>
      <trkpt lat="45.8561" lon="4.53431">
        <ele>373.2</ele>
        <time>2025-09-10T13:57:03Z</time>
      </trkpt>
      <trkpt lat="45.85619" lon="4.53436">
        <ele>372.4</ele>
        <time>2025-09-10T13:57:04Z</time>
      </trkpt>
      <trkpt lat="45.85626" lon="4.5344">
        <ele>372</ele>
        <time>2025-09-10T13:57:05Z</time>
      </trkpt>
      <trkpt lat="45.85634" lon="4.53444">
        <ele>371.6</ele>
        <time>2025-09-10T13:57:06Z</time>
      </trkpt>
      <trkpt lat="45.85642" lon="4.53446">
        <ele>370.8</ele>
        <time>2025-09-10T13:57:07Z</time>
      </trkpt>
      <trkpt lat="45.85647" lon="4.5345">
        <ele>370.2</ele>
        <time>2025-09-10T13:57:08Z</time>
      </trkpt>
      <trkpt lat="45.85655" lon="4.53454">
        <ele>369.8</ele>
        <time>2025-09-10T13:57:09Z</time>
      </trkpt>
      <trkpt lat="45.8566" lon="4.53455">
        <ele>369.4</ele>
        <time>2025-09-10T13:57:10Z</time>
      </trkpt>
      <trkpt lat="45.85667" lon="4.53456">
        <ele>369</ele>
        <time>2025-09-10T13:57:11Z</time>
      </trkpt>
      <trkpt lat="45.85673" lon="4.53457">
        <ele>368.6</ele>
        <time>2025-09-10T13:57:12Z</time>
      </trkpt>
      <trkpt lat="45.8568" lon="4.53457">
        <ele>368.4</ele>
        <time>2025-09-10T13:57:13Z</time>
      </trkpt>
      <trkpt lat="45.85687" lon="4.53457">
        <ele>368</ele>
        <time>2025-09-10T13:57:14Z</time>
      </trkpt>
      <trkpt lat="45.85693" lon="4.53457">
        <ele>367.6</ele>
        <time>2025-09-10T13:57:15Z</time>
      </trkpt>
      <trkpt lat="45.85699" lon="4.53457">
        <ele>367</ele>
        <time>2025-09-10T13:57:16Z</time>
      </trkpt>
      <trkpt lat="45.85706" lon="4.53456">
        <ele>366.6</ele>
        <time>2025-09-10T13:57:17Z</time>
      </trkpt>
      <trkpt lat="45.85712" lon="4.53455">
        <ele>366.2</ele>
        <time>2025-09-10T13:57:18Z</time>
      </trkpt>
      <trkpt lat="45.85718" lon="4.53455">
        <ele>365.8</ele>
        <time>2025-09-10T13:57:19Z</time>
      </trkpt>
      <trkpt lat="45.85723" lon="4.53455">
        <ele>365.4</ele>
        <time>2025-09-10T13:57:20Z</time>
      </trkpt>
      <trkpt lat="45.85731" lon="4.53455">
        <ele>365</ele>
        <time>2025-09-10T13:57:21Z</time>
      </trkpt>
      <trkpt lat="45.85737" lon="4.53456">
        <ele>364.8</ele>
        <time>2025-09-10T13:57:22Z</time>
      </trkpt>
      <trkpt lat="45.85744" lon="4.53456">
        <ele>364.2</ele>
        <time>2025-09-10T13:57:23Z</time>
      </trkpt>
      <trkpt lat="45.8575" lon="4.53457">
        <ele>364</ele>
        <time>2025-09-10T13:57:24Z</time>
      </trkpt>
      <trkpt lat="45.85757" lon="4.53457">
        <ele>364</ele>
        <time>2025-09-10T13:57:25Z</time>
      </trkpt>
      <trkpt lat="45.85763" lon="4.53458">
        <ele>363.6</ele>
        <time>2025-09-10T13:57:26Z</time>
      </trkpt>
      <trkpt lat="45.8577" lon="4.53458">
        <ele>363.2</ele>
        <time>2025-09-10T13:57:27Z</time>
      </trkpt>
      <trkpt lat="45.85776" lon="4.53457">
        <ele>363.2</ele>
        <time>2025-09-10T13:57:28Z</time>
      </trkpt>
      <trkpt lat="45.85783" lon="4.53458">
        <ele>362.8</ele>
        <time>2025-09-10T13:57:29Z</time>
      </trkpt>
      <trkpt lat="45.8579" lon="4.53459">
        <ele>362.8</ele>
        <time>2025-09-10T13:57:30Z</time>
      </trkpt>
      <trkpt lat="45.85798" lon="4.53459">
        <ele>362.4</ele>
        <time>2025-09-10T13:57:31Z</time>
      </trkpt>
      <trkpt lat="45.85805" lon="4.5346">
        <ele>362.4</ele>
        <time>2025-09-10T13:57:32Z</time>
      </trkpt>
      <trkpt lat="45.85813" lon="4.53462">
        <ele>362</ele>
        <time>2025-09-10T13:57:33Z</time>
      </trkpt>
      <trkpt lat="45.85821" lon="4.53466">
        <ele>361.6</ele>
        <time>2025-09-10T13:57:34Z</time>
      </trkpt>
      <trkpt lat="45.85827" lon="4.53471">
        <ele>361</ele>
        <time>2025-09-10T13:57:35Z</time>
      </trkpt>
      <trkpt lat="45.85833" lon="4.53478">
        <ele>361</ele>
        <time>2025-09-10T13:57:36Z</time>
      </trkpt>
      <trkpt lat="45.85838" lon="4.53484">
        <ele>361</ele>
        <time>2025-09-10T13:57:37Z</time>
      </trkpt>
      <trkpt lat="45.85842" lon="4.53491">
        <ele>361.2</ele>
        <time>2025-09-10T13:57:38Z</time>
      </trkpt>
      <trkpt lat="45.85846" lon="4.53498">
        <ele>361.2</ele>
        <time>2025-09-10T13:57:39Z</time>
      </trkpt>
      <trkpt lat="45.8585" lon="4.53505">
        <ele>361.4</ele>
        <time>2025-09-10T13:57:40Z</time>
      </trkpt>
      <trkpt lat="45.85853" lon="4.53511">
        <ele>361.4</ele>
        <time>2025-09-10T13:57:41Z</time>
      </trkpt>
      <trkpt lat="45.85856" lon="4.53516">
        <ele>361.8</ele>
        <time>2025-09-10T13:57:42Z</time>
      </trkpt>
      <trkpt lat="45.8586" lon="4.53521">
        <ele>362</ele>
        <time>2025-09-10T13:57:43Z</time>
      </trkpt>
      <trkpt lat="45.85863" lon="4.53525">
        <ele>362</ele>
        <time>2025-09-10T13:57:44Z</time>
      </trkpt>
      <trkpt lat="45.85866" lon="4.53531">
        <ele>362</ele>
        <time>2025-09-10T13:57:45Z</time>
      </trkpt>
      <trkpt lat="45.8587" lon="4.53535">
        <ele>362</ele>
        <time>2025-09-10T13:57:46Z</time>
      </trkpt>
      <trkpt lat="45.85873" lon="4.53537">
        <ele>362.4</ele>
        <time>2025-09-10T13:57:47Z</time>
      </trkpt>
      <trkpt lat="45.85876" lon="4.53541">
        <ele>362.4</ele>
        <time>2025-09-10T13:57:48Z</time>
      </trkpt>
      <trkpt lat="45.85879" lon="4.53545">
        <ele>362.8</ele>
        <time>2025-09-10T13:57:49Z</time>
      </trkpt>
      <trkpt lat="45.85881" lon="4.53549">
        <ele>362.8</ele>
        <time>2025-09-10T13:57:50Z</time>
      </trkpt>
      <trkpt lat="45.85884" lon="4.53553">
        <ele>362.8</ele>
        <time>2025-09-10T13:57:51Z</time>
      </trkpt>
      <trkpt lat="45.85888" lon="4.53557">
        <ele>362.8</ele>
        <time>2025-09-10T13:57:52Z</time>
      </trkpt>
      <trkpt lat="45.8589" lon="4.5356">
        <ele>363</ele>
        <time>2025-09-10T13:57:53Z</time>
      </trkpt>
      <trkpt lat="45.85894" lon="4.53564">
        <ele>363</ele>
        <time>2025-09-10T13:57:54Z</time>
      </trkpt>
      <trkpt lat="45.85897" lon="4.53567">
        <ele>363.4</ele>
        <time>2025-09-10T13:57:55Z</time>
      </trkpt>
      <trkpt lat="45.859" lon="4.5357">
        <ele>363.4</ele>
        <time>2025-09-10T13:57:56Z</time>
      </trkpt>
      <trkpt lat="45.85903" lon="4.53574">
        <ele>363.4</ele>
        <time>2025-09-10T13:57:57Z</time>
      </trkpt>
      <trkpt lat="45.85905" lon="4.53576">
        <ele>363.4</ele>
        <time>2025-09-10T13:57:58Z</time>
      </trkpt>
      <trkpt lat="45.85908" lon="4.53579">
        <ele>363.4</ele>
        <time>2025-09-10T13:57:59Z</time>
      </trkpt>
      <trkpt lat="45.85911" lon="4.53582">
        <ele>363.8</ele>
        <time>2025-09-10T13:58:00Z</time>
      </trkpt>
      <trkpt lat="45.85914" lon="4.53585">
        <ele>363.8</ele>
        <time>2025-09-10T13:58:01Z</time>
      </trkpt>
      <trkpt lat="45.85916" lon="4.53589">
        <ele>364.2</ele>
        <time>2025-09-10T13:58:02Z</time>
      </trkpt>
      <trkpt lat="45.85918" lon="4.53592">
        <ele>364.2</ele>
        <time>2025-09-10T13:58:03Z</time>
      </trkpt>
      <trkpt lat="45.85921" lon="4.53595">
        <ele>364.2</ele>
        <time>2025-09-10T13:58:04Z</time>
      </trkpt>
      <trkpt lat="45.85923" lon="4.53598">
        <ele>364.4</ele>
        <time>2025-09-10T13:58:05Z</time>
      </trkpt>
      <trkpt lat="45.85926" lon="4.536">
        <ele>364.4</ele>
        <time>2025-09-10T13:58:06Z</time>
      </trkpt>
      <trkpt lat="45.85928" lon="4.53602">
        <ele>364.4</ele>
        <time>2025-09-10T13:58:07Z</time>
      </trkpt>
      <trkpt lat="45.8593" lon="4.53605">
        <ele>364.6</ele>
        <time>2025-09-10T13:58:08Z</time>
      </trkpt>
      <trkpt lat="45.85932" lon="4.53607">
        <ele>364.8</ele>
        <time>2025-09-10T13:58:09Z</time>
      </trkpt>
      <trkpt lat="45.85934" lon="4.5361">
        <ele>364.8</ele>
        <time>2025-09-10T13:58:10Z</time>
      </trkpt>
      <trkpt lat="45.85936" lon="4.53613">
        <ele>365.2</ele>
        <time>2025-09-10T13:58:11Z</time>
      </trkpt>
      <trkpt lat="45.85938" lon="4.53615">
        <ele>365.2</ele>
        <time>2025-09-10T13:58:12Z</time>
      </trkpt>
      <trkpt lat="45.8594" lon="4.53618">
        <ele>365.6</ele>
        <time>2025-09-10T13:58:13Z</time>
      </trkpt>
      <trkpt lat="45.85942" lon="4.5362">
        <ele>365.6</ele>
        <time>2025-09-10T13:58:14Z</time>
      </trkpt>
      <trkpt lat="45.85945" lon="4.53623">
        <ele>365.8</ele>
        <time>2025-09-10T13:58:15Z</time>
      </trkpt>
      <trkpt lat="45.85947" lon="4.53625">
        <ele>365.8</ele>
        <time>2025-09-10T13:58:16Z</time>
      </trkpt>
      <trkpt lat="45.85949" lon="4.53627">
        <ele>365.8</ele>
        <time>2025-09-10T13:58:17Z</time>
      </trkpt>
      <trkpt lat="45.85951" lon="4.53629">
        <ele>365.8</ele>
        <time>2025-09-10T13:58:18Z</time>
      </trkpt>
      <trkpt lat="45.85954" lon="4.53632">
        <ele>366.2</ele>
        <time>2025-09-10T13:58:19Z</time>
      </trkpt>
      <trkpt lat="45.85956" lon="4.53634">
        <ele>366.2</ele>
        <time>2025-09-10T13:58:20Z</time>
      </trkpt>
      <trkpt lat="45.85958" lon="4.53636">
        <ele>366.2</ele>
        <time>2025-09-10T13:58:21Z</time>
      </trkpt>
      <trkpt lat="45.8596" lon="4.53638">
        <ele>366.4</ele>
        <time>2025-09-10T13:58:22Z</time>
      </trkpt>
      <trkpt lat="45.85961" lon="4.53641">
        <ele>366.4</ele>
        <time>2025-09-10T13:58:23Z</time>
      </trkpt>
      <trkpt lat="45.85963" lon="4.53643">
        <ele>366.6</ele>
        <time>2025-09-10T13:58:24Z</time>
      </trkpt>
      <trkpt lat="45.85965" lon="4.53646">
        <ele>366.6</ele>
        <time>2025-09-10T13:58:25Z</time>
      </trkpt>
      <trkpt lat="45.85966" lon="4.53648">
        <ele>366.8</ele>
        <time>2025-09-10T13:58:26Z</time>
      </trkpt>
      <trkpt lat="45.85968" lon="4.5365">
        <ele>367</ele>
        <time>2025-09-10T13:58:27Z</time>
      </trkpt>
      <trkpt lat="45.8597" lon="4.53653">
        <ele>367.2</ele>
        <time>2025-09-10T13:58:28Z</time>
      </trkpt>
      <trkpt lat="45.85971" lon="4.53654">
        <ele>367.2</ele>
        <time>2025-09-10T13:58:29Z</time>
      </trkpt>
      <trkpt lat="45.85972" lon="4.53656">
        <ele>367.6</ele>
        <time>2025-09-10T13:58:30Z</time>
      </trkpt>
      <trkpt lat="45.85973" lon="4.53658">
        <ele>367.6</ele>
        <time>2025-09-10T13:58:31Z</time>
      </trkpt>
      <trkpt lat="45.85974" lon="4.5366">
        <ele>367.6</ele>
        <time>2025-09-10T13:58:32Z</time>
      </trkpt>
      <trkpt lat="45.85975" lon="4.53663">
        <ele>367.8</ele>
        <time>2025-09-10T13:58:33Z</time>
      </trkpt>
      <trkpt lat="45.85975" lon="4.53666">
        <ele>367.8</ele>
        <time>2025-09-10T13:58:34Z</time>
      </trkpt>
      <trkpt lat="45.85976" lon="4.53669">
        <ele>367.8</ele>
        <time>2025-09-10T13:58:35Z</time>
      </trkpt>
      <trkpt lat="45.85976" lon="4.53672">
        <ele>368</ele>
        <time>2025-09-10T13:58:36Z</time>
      </trkpt>
      <trkpt lat="45.85977" lon="4.53675">
        <ele>368</ele>
        <time>2025-09-10T13:58:37Z</time>
      </trkpt>
      <trkpt lat="45.85978" lon="4.53677">
        <ele>368</ele>
        <time>2025-09-10T13:58:38Z</time>
      </trkpt>
      <trkpt lat="45.85979" lon="4.53681">
        <ele>368</ele>
        <time>2025-09-10T13:58:39Z</time>
      </trkpt>
      <trkpt lat="45.8598" lon="4.53684">
        <ele>368</ele>
        <time>2025-09-10T13:58:40Z</time>
      </trkpt>
      <trkpt lat="45.85982" lon="4.53688">
        <ele>368</ele>
        <time>2025-09-10T13:58:41Z</time>
      </trkpt>
      <trkpt lat="45.85983" lon="4.53692">
        <ele>368</ele>
        <time>2025-09-10T13:58:42Z</time>
      </trkpt>
      <trkpt lat="45.85983" lon="4.53697">
        <ele>368.2</ele>
        <time>2025-09-10T13:58:43Z</time>
      </trkpt>
      <trkpt lat="45.85984" lon="4.53701">
        <ele>368.2</ele>
        <time>2025-09-10T13:58:44Z</time>
      </trkpt>
      <trkpt lat="45.85985" lon="4.53706">
        <ele>368.2</ele>
        <time>2025-09-10T13:58:45Z</time>
      </trkpt>
      <trkpt lat="45.85986" lon="4.53711">
        <ele>368.2</ele>
        <time>2025-09-10T13:58:46Z</time>
      </trkpt>
      <trkpt lat="45.85987" lon="4.53716">
        <ele>368.2</ele>
        <time>2025-09-10T13:58:47Z</time>
      </trkpt>
      <trkpt lat="45.85988" lon="4.53721">
        <ele>368</ele>
        <time>2025-09-10T13:58:48Z</time>
      </trkpt>
      <trkpt lat="45.8599" lon="4.53726">
        <ele>368</ele>
        <time>2025-09-10T13:58:49Z</time>
      </trkpt>
      <trkpt lat="45.85991" lon="4.53731">
        <ele>368</ele>
        <time>2025-09-10T13:58:50Z</time>
      </trkpt>
      <trkpt lat="45.85991" lon="4.53737">
        <ele>368</ele>
        <time>2025-09-10T13:58:51Z</time>
      </trkpt>
      <trkpt lat="45.85992" lon="4.53742">
        <ele>368</ele>
        <time>2025-09-10T13:58:52Z</time>
      </trkpt>
      <trkpt lat="45.85993" lon="4.53747">
        <ele>367.6</ele>
        <time>2025-09-10T13:58:53Z</time>
      </trkpt>
      <trkpt lat="45.85994" lon="4.53753">
        <ele>367.6</ele>
        <time>2025-09-10T13:58:54Z</time>
      </trkpt>
      <trkpt lat="45.85995" lon="4.53759">
        <ele>367.6</ele>
        <time>2025-09-10T13:58:55Z</time>
      </trkpt>
      <trkpt lat="45.85996" lon="4.53764">
        <ele>367.6</ele>
        <time>2025-09-10T13:58:56Z</time>
      </trkpt>
      <trkpt lat="45.85997" lon="4.5377">
        <ele>367.6</ele>
        <time>2025-09-10T13:58:57Z</time>
      </trkpt>
      <trkpt lat="45.85998" lon="4.53775">
        <ele>367.6</ele>
        <time>2025-09-10T13:58:58Z</time>
      </trkpt>
      <trkpt lat="45.85999" lon="4.53781">
        <ele>367.6</ele>
        <time>2025-09-10T13:58:59Z</time>
      </trkpt>
      <trkpt lat="45.86" lon="4.53786">
        <ele>367.8</ele>
        <time>2025-09-10T13:59:00Z</time>
      </trkpt>
      <trkpt lat="45.86002" lon="4.53793">
        <ele>367.8</ele>
        <time>2025-09-10T13:59:01Z</time>
      </trkpt>
      <trkpt lat="45.86004" lon="4.53799">
        <ele>367.8</ele>
        <time>2025-09-10T13:59:02Z</time>
      </trkpt>
      <trkpt lat="45.86004" lon="4.53805">
        <ele>367.6</ele>
        <time>2025-09-10T13:59:03Z</time>
      </trkpt>
      <trkpt lat="45.86006" lon="4.53811">
        <ele>367.6</ele>
        <time>2025-09-10T13:59:04Z</time>
      </trkpt>
      <trkpt lat="45.86006" lon="4.53817">
        <ele>367.6</ele>
        <time>2025-09-10T13:59:05Z</time>
      </trkpt>
      <trkpt lat="45.86007" lon="4.53823">
        <ele>367.6</ele>
        <time>2025-09-10T13:59:06Z</time>
      </trkpt>
      <trkpt lat="45.86006" lon="4.53828">
        <ele>367.6</ele>
        <time>2025-09-10T13:59:07Z</time>
      </trkpt>
      <trkpt lat="45.86007" lon="4.53834">
        <ele>367.6</ele>
        <time>2025-09-10T13:59:08Z</time>
      </trkpt>
      <trkpt lat="45.86009" lon="4.5384">
        <ele>367.6</ele>
        <time>2025-09-10T13:59:09Z</time>
      </trkpt>
      <trkpt lat="45.86011" lon="4.53845">
        <ele>367.6</ele>
        <time>2025-09-10T13:59:10Z</time>
      </trkpt>
      <trkpt lat="45.86012" lon="4.53851">
        <ele>367.6</ele>
        <time>2025-09-10T13:59:11Z</time>
      </trkpt>
      <trkpt lat="45.86013" lon="4.53857">
        <ele>367.6</ele>
        <time>2025-09-10T13:59:12Z</time>
      </trkpt>
      <trkpt lat="45.86014" lon="4.53863">
        <ele>367.6</ele>
        <time>2025-09-10T13:59:13Z</time>
      </trkpt>
      <trkpt lat="45.86016" lon="4.53869">
        <ele>367.4</ele>
        <time>2025-09-10T13:59:14Z</time>
      </trkpt>
      <trkpt lat="45.86016" lon="4.53876">
        <ele>367.4</ele>
        <time>2025-09-10T13:59:15Z</time>
      </trkpt>
      <trkpt lat="45.86017" lon="4.53882">
        <ele>367.4</ele>
        <time>2025-09-10T13:59:16Z</time>
      </trkpt>
      <trkpt lat="45.86019" lon="4.53889">
        <ele>367.2</ele>
        <time>2025-09-10T13:59:17Z</time>
      </trkpt>
      <trkpt lat="45.86021" lon="4.53895">
        <ele>367.2</ele>
        <time>2025-09-10T13:59:18Z</time>
      </trkpt>
      <trkpt lat="45.86023" lon="4.53901">
        <ele>367.2</ele>
        <time>2025-09-10T13:59:19Z</time>
      </trkpt>
      <trkpt lat="45.86025" lon="4.53907">
        <ele>367.2</ele>
        <time>2025-09-10T13:59:20Z</time>
      </trkpt>
      <trkpt lat="45.86027" lon="4.53912">
        <ele>367.2</ele>
        <time>2025-09-10T13:59:21Z</time>
      </trkpt>
      <trkpt lat="45.86028" lon="4.53916">
        <ele>366.8</ele>
        <time>2025-09-10T13:59:22Z</time>
      </trkpt>
      <trkpt lat="45.8603" lon="4.5392">
        <ele>366.8</ele>
        <time>2025-09-10T13:59:23Z</time>
      </trkpt>
      <trkpt lat="45.86031" lon="4.53923">
        <ele>366.8</ele>
        <time>2025-09-10T13:59:24Z</time>
      </trkpt>
      <trkpt lat="45.86032" lon="4.53927">
        <ele>366.8</ele>
        <time>2025-09-10T13:59:25Z</time>
      </trkpt>
      <trkpt lat="45.86033" lon="4.5393">
        <ele>366.8</ele>
        <time>2025-09-10T13:59:26Z</time>
      </trkpt>
      <trkpt lat="45.86038" lon="4.53927">
        <ele>366.8</ele>
        <time>2025-09-10T13:59:27Z</time>
      </trkpt>
      <trkpt lat="45.86041" lon="4.53926">
        <ele>366.8</ele>
        <time>2025-09-10T13:59:28Z</time>
      </trkpt>
      <trkpt lat="45.86044" lon="4.53923">
        <ele>366.8</ele>
        <time>2025-09-10T13:59:29Z</time>
      </trkpt>
      <trkpt lat="45.86047" lon="4.53921">
        <ele>366.8</ele>
        <time>2025-09-10T13:59:30Z</time>
      </trkpt>
      <trkpt lat="45.8605" lon="4.5392">
        <ele>366.8</ele>
        <time>2025-09-10T13:59:31Z</time>
      </trkpt>
      <trkpt lat="45.86053" lon="4.53919">
        <ele>366.8</ele>
        <time>2025-09-10T13:59:32Z</time>
      </trkpt>
      <trkpt lat="45.86055" lon="4.5392">
        <ele>366.8</ele>
        <time>2025-09-10T13:59:33Z</time>
      </trkpt>
      <trkpt lat="45.86058" lon="4.5392">
        <ele>367.2</ele>
        <time>2025-09-10T13:59:34Z</time>
      </trkpt>
      <trkpt lat="45.8606" lon="4.53919">
        <ele>367.2</ele>
        <time>2025-09-10T13:59:35Z</time>
      </trkpt>
      <trkpt lat="45.86063" lon="4.53919">
        <ele>367.4</ele>
        <time>2025-09-10T13:59:36Z</time>
      </trkpt>
      <trkpt lat="45.86066" lon="4.5392">
        <ele>367.4</ele>
        <time>2025-09-10T13:59:37Z</time>
      </trkpt>
      <trkpt lat="45.86069" lon="4.5392">
        <ele>367.6</ele>
        <time>2025-09-10T13:59:38Z</time>
      </trkpt>
      <trkpt lat="45.86071" lon="4.5392">
        <ele>367.6</ele>
        <time>2025-09-10T13:59:39Z</time>
      </trkpt>
      <trkpt lat="45.86073" lon="4.53919">
        <ele>367.8</ele>
        <time>2025-09-10T13:59:40Z</time>
      </trkpt>
      <trkpt lat="45.86076" lon="4.53919">
        <ele>367.8</ele>
        <time>2025-09-10T13:59:41Z</time>
      </trkpt>
      <trkpt lat="45.86078" lon="4.5392">
        <ele>367.8</ele>
        <time>2025-09-10T13:59:42Z</time>
      </trkpt>
      <trkpt lat="45.8608" lon="4.5392">
        <ele>367.8</ele>
        <time>2025-09-10T13:59:43Z</time>
      </trkpt>
      <trkpt lat="45.86083" lon="4.5392">
        <ele>368.2</ele>
        <time>2025-09-10T13:59:44Z</time>
      </trkpt>
      <trkpt lat="45.86086" lon="4.5392">
        <ele>368.2</ele>
        <time>2025-09-10T13:59:45Z</time>
      </trkpt>
      <trkpt lat="45.86088" lon="4.53919">
        <ele>368.2</ele>
        <time>2025-09-10T13:59:46Z</time>
      </trkpt>
      <trkpt lat="45.8609" lon="4.53919">
        <ele>368.4</ele>
        <time>2025-09-10T13:59:47Z</time>
      </trkpt>
      <trkpt lat="45.86093" lon="4.53919">
        <ele>368.4</ele>
        <time>2025-09-10T13:59:48Z</time>
      </trkpt>
      <trkpt lat="45.86095" lon="4.53919">
        <ele>368.4</ele>
        <time>2025-09-10T13:59:49Z</time>
      </trkpt>
      <trkpt lat="45.86098" lon="4.5392">
        <ele>368.4</ele>
        <time>2025-09-10T13:59:50Z</time>
      </trkpt>
      <trkpt lat="45.861" lon="4.5392">
        <ele>368.4</ele>
        <time>2025-09-10T13:59:51Z</time>
      </trkpt>
      <trkpt lat="45.86103" lon="4.5392">
        <ele>368.4</ele>
        <time>2025-09-10T13:59:52Z</time>
      </trkpt>
      <trkpt lat="45.86105" lon="4.5392">
        <ele>368.4</ele>
        <time>2025-09-10T13:59:53Z</time>
      </trkpt>
      <trkpt lat="45.86107" lon="4.53921">
        <ele>368.4</ele>
        <time>2025-09-10T13:59:54Z</time>
      </trkpt>
      <trkpt lat="45.8611" lon="4.53921">
        <ele>368.8</ele>
        <time>2025-09-10T13:59:55Z</time>
      </trkpt>
      <trkpt lat="45.86112" lon="4.53922">
        <ele>368.8</ele>
        <time>2025-09-10T13:59:56Z</time>
      </trkpt>
      <trkpt lat="45.86115" lon="4.53922">
        <ele>368.8</ele>
        <time>2025-09-10T13:59:57Z</time>
      </trkpt>
      <trkpt lat="45.86117" lon="4.53923">
        <ele>369</ele>
        <time>2025-09-10T13:59:58Z</time>
      </trkpt>
      <trkpt lat="45.86119" lon="4.53922">
        <ele>369</ele>
        <time>2025-09-10T13:59:59Z</time>
      </trkpt>
      <trkpt lat="45.86121" lon="4.53921">
        <ele>369</ele>
        <time>2025-09-10T14:00:00Z</time>
      </trkpt>
      <trkpt lat="45.86124" lon="4.53921">
        <ele>369</ele>
        <time>2025-09-10T14:00:01Z</time>
      </trkpt>
      <trkpt lat="45.86126" lon="4.53921">
        <ele>369</ele>
        <time>2025-09-10T14:00:02Z</time>
      </trkpt>
      <trkpt lat="45.86128" lon="4.53921">
        <ele>369</ele>
        <time>2025-09-10T14:00:03Z</time>
      </trkpt>
      <trkpt lat="45.8613" lon="4.53921">
        <ele>369</ele>
        <time>2025-09-10T14:00:04Z</time>
      </trkpt>
      <trkpt lat="45.86132" lon="4.5392">
        <ele>369.2</ele>
        <time>2025-09-10T14:00:05Z</time>
      </trkpt>
      <trkpt lat="45.86133" lon="4.53919">
        <ele>369.2</ele>
        <time>2025-09-10T14:00:06Z</time>
      </trkpt>
      <trkpt lat="45.86136" lon="4.53918">
        <ele>369.2</ele>
        <time>2025-09-10T14:00:07Z</time>
      </trkpt>
      <trkpt lat="45.86138" lon="4.53918">
        <ele>369.2</ele>
        <time>2025-09-10T14:00:08Z</time>
      </trkpt>
      <trkpt lat="45.8614" lon="4.53919">
        <ele>369.2</ele>
        <time>2025-09-10T14:00:09Z</time>
      </trkpt>
      <trkpt lat="45.86142" lon="4.5392">
        <ele>369.2</ele>
        <time>2025-09-10T14:00:10Z</time>
      </trkpt>
      <trkpt lat="45.86145" lon="4.5392">
        <ele>369.4</ele>
        <time>2025-09-10T14:00:11Z</time>
      </trkpt>
      <trkpt lat="45.86147" lon="4.5392">
        <ele>369.4</ele>
        <time>2025-09-10T14:00:12Z</time>
      </trkpt>
      <trkpt lat="45.8615" lon="4.53919">
        <ele>369.4</ele>
        <time>2025-09-10T14:00:13Z</time>
      </trkpt>
      <trkpt lat="45.86152" lon="4.53918">
        <ele>369.6</ele>
        <time>2025-09-10T14:00:14Z</time>
      </trkpt>
      <trkpt lat="45.86154" lon="4.53917">
        <ele>369.6</ele>
        <time>2025-09-10T14:00:15Z</time>
      </trkpt>
      <trkpt lat="45.86156" lon="4.53915">
        <ele>369.6</ele>
        <time>2025-09-10T14:00:16Z</time>
      </trkpt>
      <trkpt lat="45.86157" lon="4.53912">
        <ele>369.6</ele>
        <time>2025-09-10T14:00:17Z</time>
      </trkpt>
      <trkpt lat="45.86158" lon="4.53909">
        <ele>370</ele>
        <time>2025-09-10T14:00:18Z</time>
      </trkpt>
      <trkpt lat="45.86159" lon="4.53906">
        <ele>370.2</ele>
        <time>2025-09-10T14:00:19Z</time>
      </trkpt>
      <trkpt lat="45.86158" lon="4.53899">
        <ele>370.2</ele>
        <time>2025-09-10T14:00:20Z</time>
      </trkpt>
      <trkpt lat="45.86157" lon="4.53896">
        <ele>370.6</ele>
        <time>2025-09-10T14:00:21Z</time>
      </trkpt>
      <trkpt lat="45.86156" lon="4.53894">
        <ele>370.6</ele>
        <time>2025-09-10T14:00:22Z</time>
      </trkpt>
      <trkpt lat="45.86155" lon="4.53891">
        <ele>370.6</ele>
        <time>2025-09-10T14:00:23Z</time>
      </trkpt>
      <trkpt lat="45.86155" lon="4.53889">
        <ele>371</ele>
        <time>2025-09-10T14:00:24Z</time>
      </trkpt>
      <trkpt lat="45.86155" lon="4.53886">
        <ele>371</ele>
        <time>2025-09-10T14:00:25Z</time>
      </trkpt>
      <trkpt lat="45.86154" lon="4.53884">
        <ele>371</ele>
        <time>2025-09-10T14:00:26Z</time>
      </trkpt>
      <trkpt lat="45.86155" lon="4.53881">
        <ele>371</ele>
        <time>2025-09-10T14:00:27Z</time>
      </trkpt>
      <trkpt lat="45.86154" lon="4.53879">
        <ele>371.2</ele>
        <time>2025-09-10T14:00:28Z</time>
      </trkpt>
      <trkpt lat="45.86154" lon="4.53877">
        <ele>371.2</ele>
        <time>2025-09-10T14:00:29Z</time>
      </trkpt>
      <trkpt lat="45.86154" lon="4.53874">
        <ele>371.6</ele>
        <time>2025-09-10T14:00:30Z</time>
      </trkpt>
      <trkpt lat="45.86154" lon="4.53872">
        <ele>371.8</ele>
        <time>2025-09-10T14:00:31Z</time>
      </trkpt>
      <trkpt lat="45.86153" lon="4.5387">
        <ele>371.8</ele>
        <time>2025-09-10T14:00:32Z</time>
      </trkpt>
      <trkpt lat="45.86153" lon="4.5387">
        <ele>372</ele>
        <time>2025-09-10T14:00:33Z</time>
      </trkpt>
      <trkpt lat="45.86153" lon="4.53868">
        <ele>372</ele>
        <time>2025-09-10T14:00:34Z</time>
      </trkpt>
      <trkpt lat="45.86153" lon="4.53866">
        <ele>372</ele>
        <time>2025-09-10T14:00:35Z</time>
      </trkpt>
      <trkpt lat="45.86153" lon="4.53864">
        <ele>372.2</ele>
        <time>2025-09-10T14:00:36Z</time>
      </trkpt>
      <trkpt lat="45.86153" lon="4.53862">
        <ele>372.2</ele>
        <time>2025-09-10T14:00:37Z</time>
      </trkpt>
      <trkpt lat="45.86153" lon="4.5386">
        <ele>372.2</ele>
        <time>2025-09-10T14:00:38Z</time>
      </trkpt>
      <trkpt lat="45.86154" lon="4.53858">
        <ele>372.6</ele>
        <time>2025-09-10T14:00:39Z</time>
      </trkpt>
      <trkpt lat="45.86154" lon="4.53856">
        <ele>372.6</ele>
        <time>2025-09-10T14:00:40Z</time>
      </trkpt>
      <trkpt lat="45.86155" lon="4.53854">
        <ele>373</ele>
        <time>2025-09-10T14:00:41Z</time>
      </trkpt>
      <trkpt lat="45.86156" lon="4.53852">
        <ele>373.2</ele>
        <time>2025-09-10T14:00:42Z</time>
      </trkpt>
      <trkpt lat="45.86157" lon="4.5385">
        <ele>373.2</ele>
        <time>2025-09-10T14:00:43Z</time>
      </trkpt>
      <trkpt lat="45.86158" lon="4.53848">
        <ele>373.2</ele>
        <time>2025-09-10T14:00:44Z</time>
      </trkpt>
      <trkpt lat="45.8616" lon="4.53847">
        <ele>373.2</ele>
        <time>2025-09-10T14:00:45Z</time>
      </trkpt>
      <trkpt lat="45.86162" lon="4.53846">
        <ele>373.2</ele>
        <time>2025-09-10T14:00:46Z</time>
      </trkpt>
      <trkpt lat="45.86163" lon="4.53844">
        <ele>373.2</ele>
        <time>2025-09-10T14:00:47Z</time>
      </trkpt>
      <trkpt lat="45.86164" lon="4.53842">
        <ele>373.4</ele>
        <time>2025-09-10T14:00:48Z</time>
      </trkpt>
      <trkpt lat="45.86166" lon="4.5384">
        <ele>373.4</ele>
        <time>2025-09-10T14:00:49Z</time>
      </trkpt>
      <trkpt lat="45.86167" lon="4.53839">
        <ele>373.4</ele>
        <time>2025-09-10T14:00:50Z</time>
      </trkpt>
      <trkpt lat="45.86169" lon="4.53837">
        <ele>373.4</ele>
        <time>2025-09-10T14:00:51Z</time>
      </trkpt>
      <trkpt lat="45.8617" lon="4.53836">
        <ele>373.4</ele>
        <time>2025-09-10T14:00:52Z</time>
      </trkpt>
      <trkpt lat="45.86172" lon="4.53834">
        <ele>373.4</ele>
        <time>2025-09-10T14:00:53Z</time>
      </trkpt>
      <trkpt lat="45.86174" lon="4.53832">
        <ele>373.8</ele>
        <time>2025-09-10T14:00:54Z</time>
      </trkpt>
      <trkpt lat="45.86175" lon="4.53831">
        <ele>373.8</ele>
        <time>2025-09-10T14:00:55Z</time>
      </trkpt>
      <trkpt lat="45.86177" lon="4.53829">
        <ele>373.8</ele>
        <time>2025-09-10T14:00:56Z</time>
      </trkpt>
      <trkpt lat="45.86178" lon="4.53827">
        <ele>373.8</ele>
        <time>2025-09-10T14:00:57Z</time>
      </trkpt>
      <trkpt lat="45.8618" lon="4.53825">
        <ele>374</ele>
        <time>2025-09-10T14:00:58Z</time>
      </trkpt>
      <trkpt lat="45.86181" lon="4.53823">
        <ele>374</ele>
        <time>2025-09-10T14:00:59Z</time>
      </trkpt>
      <trkpt lat="45.86183" lon="4.53821">
        <ele>374</ele>
        <time>2025-09-10T14:01:00Z</time>
      </trkpt>
      <trkpt lat="45.86184" lon="4.5382">
        <ele>374</ele>
        <time>2025-09-10T14:01:01Z</time>
      </trkpt>
      <trkpt lat="45.86186" lon="4.53818">
        <ele>374</ele>
        <time>2025-09-10T14:01:02Z</time>
      </trkpt>
      <trkpt lat="45.86187" lon="4.53817">
        <ele>374</ele>
        <time>2025-09-10T14:01:03Z</time>
      </trkpt>
      <trkpt lat="45.86189" lon="4.53815">
        <ele>374.4</ele>
        <time>2025-09-10T14:01:04Z</time>
      </trkpt>
      <trkpt lat="45.86191" lon="4.53814">
        <ele>374.4</ele>
        <time>2025-09-10T14:01:05Z</time>
      </trkpt>
      <trkpt lat="45.86193" lon="4.53813">
        <ele>374.4</ele>
        <time>2025-09-10T14:01:06Z</time>
      </trkpt>
      <trkpt lat="45.86195" lon="4.53812">
        <ele>374.6</ele>
        <time>2025-09-10T14:01:07Z</time>
      </trkpt>
      <trkpt lat="45.86197" lon="4.53811">
        <ele>374.6</ele>
        <time>2025-09-10T14:01:08Z</time>
      </trkpt>
      <trkpt lat="45.86198" lon="4.53811">
        <ele>374.8</ele>
        <time>2025-09-10T14:01:09Z</time>
      </trkpt>
      <trkpt lat="45.862" lon="4.5381">
        <ele>374.8</ele>
        <time>2025-09-10T14:01:10Z</time>
      </trkpt>
      <trkpt lat="45.86202" lon="4.53808">
        <ele>374.8</ele>
        <time>2025-09-10T14:01:11Z</time>
      </trkpt>
      <trkpt lat="45.86205" lon="4.53807">
        <ele>374.8</ele>
        <time>2025-09-10T14:01:12Z</time>
      </trkpt>
      <trkpt lat="45.86207" lon="4.53806">
        <ele>374.8</ele>
        <time>2025-09-10T14:01:13Z</time>
      </trkpt>
      <trkpt lat="45.8621" lon="4.53806">
        <ele>375</ele>
        <time>2025-09-10T14:01:14Z</time>
      </trkpt>
      <trkpt lat="45.86212" lon="4.53806">
        <ele>375</ele>
        <time>2025-09-10T14:01:15Z</time>
      </trkpt>
      <trkpt lat="45.86214" lon="4.53806">
        <ele>375</ele>
        <time>2025-09-10T14:01:16Z</time>
      </trkpt>
      <trkpt lat="45.86216" lon="4.53805">
        <ele>375</ele>
        <time>2025-09-10T14:01:17Z</time>
      </trkpt>
      <trkpt lat="45.86218" lon="4.53805">
        <ele>375</ele>
        <time>2025-09-10T14:01:18Z</time>
      </trkpt>
      <trkpt lat="45.8622" lon="4.53804">
        <ele>375</ele>
        <time>2025-09-10T14:01:19Z</time>
      </trkpt>
      <trkpt lat="45.86222" lon="4.53804">
        <ele>375</ele>
        <time>2025-09-10T14:01:20Z</time>
      </trkpt>
      <trkpt lat="45.86224" lon="4.53803">
        <ele>375</ele>
        <time>2025-09-10T14:01:21Z</time>
      </trkpt>
      <trkpt lat="45.86226" lon="4.53803">
        <ele>375.2</ele>
        <time>2025-09-10T14:01:22Z</time>
      </trkpt>
      <trkpt lat="45.86229" lon="4.53802">
        <ele>375.2</ele>
        <time>2025-09-10T14:01:23Z</time>
      </trkpt>
      <trkpt lat="45.86231" lon="4.53802">
        <ele>375.2</ele>
        <time>2025-09-10T14:01:24Z</time>
      </trkpt>
      <trkpt lat="45.86233" lon="4.53802">
        <ele>375.2</ele>
        <time>2025-09-10T14:01:25Z</time>
      </trkpt>
      <trkpt lat="45.86234" lon="4.53801">
        <ele>375.2</ele>
        <time>2025-09-10T14:01:26Z</time>
      </trkpt>
      <trkpt lat="45.86236" lon="4.538">
        <ele>375.2</ele>
        <time>2025-09-10T14:01:27Z</time>
      </trkpt>
      <trkpt lat="45.86238" lon="4.53799">
        <ele>375.2</ele>
        <time>2025-09-10T14:01:28Z</time>
      </trkpt>
      <trkpt lat="45.8624" lon="4.53798">
        <ele>375.6</ele>
        <time>2025-09-10T14:01:29Z</time>
      </trkpt>
      <trkpt lat="45.86241" lon="4.53797">
        <ele>375.6</ele>
        <time>2025-09-10T14:01:30Z</time>
      </trkpt>
      <trkpt lat="45.86243" lon="4.53796">
        <ele>375.6</ele>
        <time>2025-09-10T14:01:31Z</time>
      </trkpt>
      <trkpt lat="45.86245" lon="4.53795">
        <ele>375.8</ele>
        <time>2025-09-10T14:01:32Z</time>
      </trkpt>
      <trkpt lat="45.86246" lon="4.53794">
        <ele>375.8</ele>
        <time>2025-09-10T14:01:33Z</time>
      </trkpt>
      <trkpt lat="45.86248" lon="4.53793">
        <ele>375.8</ele>
        <time>2025-09-10T14:01:34Z</time>
      </trkpt>
      <trkpt lat="45.86249" lon="4.53793">
        <ele>376.2</ele>
        <time>2025-09-10T14:01:35Z</time>
      </trkpt>
      <trkpt lat="45.86251" lon="4.53792">
        <ele>376.2</ele>
        <time>2025-09-10T14:01:36Z</time>
      </trkpt>
      <trkpt lat="45.86252" lon="4.53791">
        <ele>376.4</ele>
        <time>2025-09-10T14:01:37Z</time>
      </trkpt>
      <trkpt lat="45.86254" lon="4.5379">
        <ele>376.4</ele>
        <time>2025-09-10T14:01:38Z</time>
      </trkpt>
      <trkpt lat="45.86256" lon="4.53789">
        <ele>376.8</ele>
        <time>2025-09-10T14:01:39Z</time>
      </trkpt>
      <trkpt lat="45.86257" lon="4.53788">
        <ele>376.8</ele>
        <time>2025-09-10T14:01:40Z</time>
      </trkpt>
      <trkpt lat="45.86259" lon="4.53787">
        <ele>376.8</ele>
        <time>2025-09-10T14:01:41Z</time>
      </trkpt>
      <trkpt lat="45.86261" lon="4.53786">
        <ele>376.8</ele>
        <time>2025-09-10T14:01:42Z</time>
      </trkpt>
      <trkpt lat="45.86262" lon="4.53784">
        <ele>376.8</ele>
        <time>2025-09-10T14:01:43Z</time>
      </trkpt>
      <trkpt lat="45.86264" lon="4.53783">
        <ele>376.8</ele>
        <time>2025-09-10T14:01:44Z</time>
      </trkpt>
      <trkpt lat="45.86266" lon="4.53782">
        <ele>377</ele>
        <time>2025-09-10T14:01:45Z</time>
      </trkpt>
      <trkpt lat="45.86267" lon="4.53781">
        <ele>377</ele>
        <time>2025-09-10T14:01:46Z</time>
      </trkpt>
      <trkpt lat="45.86269" lon="4.5378">
        <ele>377.2</ele>
        <time>2025-09-10T14:01:47Z</time>
      </trkpt>
      <trkpt lat="45.8627" lon="4.53779">
        <ele>377.2</ele>
        <time>2025-09-10T14:01:48Z</time>
      </trkpt>
      <trkpt lat="45.86272" lon="4.53779">
        <ele>377.2</ele>
        <time>2025-09-10T14:01:49Z</time>
      </trkpt>
      <trkpt lat="45.86273" lon="4.53777">
        <ele>377.2</ele>
        <time>2025-09-10T14:01:50Z</time>
      </trkpt>
      <trkpt lat="45.86274" lon="4.53776">
        <ele>377.6</ele>
        <time>2025-09-10T14:01:51Z</time>
      </trkpt>
      <trkpt lat="45.86276" lon="4.53775">
        <ele>377.6</ele>
        <time>2025-09-10T14:01:52Z</time>
      </trkpt>
      <trkpt lat="45.86277" lon="4.53774">
        <ele>377.8</ele>
        <time>2025-09-10T14:01:53Z</time>
      </trkpt>
      <trkpt lat="45.86278" lon="4.53773">
        <ele>377.8</ele>
        <time>2025-09-10T14:01:54Z</time>
      </trkpt>
      <trkpt lat="45.8628" lon="4.53772">
        <ele>377.8</ele>
        <time>2025-09-10T14:01:55Z</time>
      </trkpt>
      <trkpt lat="45.86281" lon="4.53771">
        <ele>378.2</ele>
        <time>2025-09-10T14:01:56Z</time>
      </trkpt>
      <trkpt lat="45.86282" lon="4.5377">
        <ele>378.2</ele>
        <time>2025-09-10T14:01:57Z</time>
      </trkpt>
      <trkpt lat="45.86284" lon="4.5377">
        <ele>378.2</ele>
        <time>2025-09-10T14:01:58Z</time>
      </trkpt>
      <trkpt lat="45.86285" lon="4.53769">
        <ele>378.2</ele>
        <time>2025-09-10T14:01:59Z</time>
      </trkpt>
      <trkpt lat="45.86286" lon="4.53768">
        <ele>378.2</ele>
        <time>2025-09-10T14:02:00Z</time>
      </trkpt>
      <trkpt lat="45.86288" lon="4.53767">
        <ele>378.2</ele>
        <time>2025-09-10T14:02:01Z</time>
      </trkpt>
      <trkpt lat="45.86289" lon="4.53766">
        <ele>378.4</ele>
        <time>2025-09-10T14:02:02Z</time>
      </trkpt>
      <trkpt lat="45.8629" lon="4.53765">
        <ele>378.4</ele>
        <time>2025-09-10T14:02:03Z</time>
      </trkpt>
      <trkpt lat="45.86292" lon="4.53764">
        <ele>378.8</ele>
        <time>2025-09-10T14:02:04Z</time>
      </trkpt>
      <trkpt lat="45.86294" lon="4.53763">
        <ele>378.8</ele>
        <time>2025-09-10T14:02:05Z</time>
      </trkpt>
      <trkpt lat="45.86295" lon="4.53761">
        <ele>378.8</ele>
        <time>2025-09-10T14:02:06Z</time>
      </trkpt>
      <trkpt lat="45.86297" lon="4.5376">
        <ele>379</ele>
        <time>2025-09-10T14:02:07Z</time>
      </trkpt>
      <trkpt lat="45.86299" lon="4.53758">
        <ele>379</ele>
        <time>2025-09-10T14:02:08Z</time>
      </trkpt>
      <trkpt lat="45.863" lon="4.53757">
        <ele>379</ele>
        <time>2025-09-10T14:02:09Z</time>
      </trkpt>
      <trkpt lat="45.86302" lon="4.53756">
        <ele>379.2</ele>
        <time>2025-09-10T14:02:10Z</time>
      </trkpt>
      <trkpt lat="45.86304" lon="4.53754">
        <ele>379.2</ele>
        <time>2025-09-10T14:02:11Z</time>
      </trkpt>
      <trkpt lat="45.86305" lon="4.53753">
        <ele>379.2</ele>
        <time>2025-09-10T14:02:12Z</time>
      </trkpt>
      <trkpt lat="45.86307" lon="4.53751">
        <ele>379.2</ele>
        <time>2025-09-10T14:02:13Z</time>
      </trkpt>
      <trkpt lat="45.86308" lon="4.5375">
        <ele>379.2</ele>
        <time>2025-09-10T14:02:14Z</time>
      </trkpt>
      <trkpt lat="45.86309" lon="4.53748">
        <ele>379.2</ele>
        <time>2025-09-10T14:02:15Z</time>
      </trkpt>
      <trkpt lat="45.8631" lon="4.53746">
        <ele>379.4</ele>
        <time>2025-09-10T14:02:16Z</time>
      </trkpt>
      <trkpt lat="45.86312" lon="4.53745">
        <ele>379.4</ele>
        <time>2025-09-10T14:02:17Z</time>
      </trkpt>
      <trkpt lat="45.86313" lon="4.53743">
        <ele>379.4</ele>
        <time>2025-09-10T14:02:18Z</time>
      </trkpt>
      <trkpt lat="45.86314" lon="4.53742">
        <ele>379.4</ele>
        <time>2025-09-10T14:02:19Z</time>
      </trkpt>
      <trkpt lat="45.86316" lon="4.5374">
        <ele>379.6</ele>
        <time>2025-09-10T14:02:20Z</time>
      </trkpt>
      <trkpt lat="45.86317" lon="4.53738">
        <ele>379.6</ele>
        <time>2025-09-10T14:02:21Z</time>
      </trkpt>
      <trkpt lat="45.86319" lon="4.53737">
        <ele>379.8</ele>
        <time>2025-09-10T14:02:22Z</time>
      </trkpt>
      <trkpt lat="45.8632" lon="4.53735">
        <ele>379.8</ele>
        <time>2025-09-10T14:02:23Z</time>
      </trkpt>
      <trkpt lat="45.86321" lon="4.53732">
        <ele>380</ele>
        <time>2025-09-10T14:02:24Z</time>
      </trkpt>
      <trkpt lat="45.86322" lon="4.5373">
        <ele>380</ele>
        <time>2025-09-10T14:02:25Z</time>
      </trkpt>
      <trkpt lat="45.86324" lon="4.53728">
        <ele>380</ele>
        <time>2025-09-10T14:02:26Z</time>
      </trkpt>
      <trkpt lat="45.86325" lon="4.53726">
        <ele>380.4</ele>
        <time>2025-09-10T14:02:27Z</time>
      </trkpt>
      <trkpt lat="45.86326" lon="4.53724">
        <ele>380.4</ele>
        <time>2025-09-10T14:02:28Z</time>
      </trkpt>
      <trkpt lat="45.86328" lon="4.53722">
        <ele>380.8</ele>
        <time>2025-09-10T14:02:29Z</time>
      </trkpt>
      <trkpt lat="45.86329" lon="4.5372">
        <ele>380.8</ele>
        <time>2025-09-10T14:02:30Z</time>
      </trkpt>
      <trkpt lat="45.86331" lon="4.53719">
        <ele>380.8</ele>
        <time>2025-09-10T14:02:31Z</time>
      </trkpt>
      <trkpt lat="45.86332" lon="4.53717">
        <ele>381</ele>
        <time>2025-09-10T14:02:32Z</time>
      </trkpt>
      <trkpt lat="45.86334" lon="4.53715">
        <ele>381.4</ele>
        <time>2025-09-10T14:02:33Z</time>
      </trkpt>
      <trkpt lat="45.86335" lon="4.53713">
        <ele>381.6</ele>
        <time>2025-09-10T14:02:34Z</time>
      </trkpt>
      <trkpt lat="45.86337" lon="4.53712">
        <ele>381.6</ele>
        <time>2025-09-10T14:02:35Z</time>
      </trkpt>
      <trkpt lat="45.86339" lon="4.5371">
        <ele>381.6</ele>
        <time>2025-09-10T14:02:36Z</time>
      </trkpt>
      <trkpt lat="45.8634" lon="4.53708">
        <ele>381.6</ele>
        <time>2025-09-10T14:02:37Z</time>
      </trkpt>
      <trkpt lat="45.86342" lon="4.53706">
        <ele>381.6</ele>
        <time>2025-09-10T14:02:38Z</time>
      </trkpt>
      <trkpt lat="45.86344" lon="4.53704">
        <ele>381.6</ele>
        <time>2025-09-10T14:02:39Z</time>
      </trkpt>
      <trkpt lat="45.86345" lon="4.53701">
        <ele>381.6</ele>
        <time>2025-09-10T14:02:40Z</time>
      </trkpt>
      <trkpt lat="45.86347" lon="4.53699">
        <ele>381.8</ele>
        <time>2025-09-10T14:02:41Z</time>
      </trkpt>
      <trkpt lat="45.86348" lon="4.53697">
        <ele>381.8</ele>
        <time>2025-09-10T14:02:42Z</time>
      </trkpt>
      <trkpt lat="45.8635" lon="4.53695">
        <ele>381.8</ele>
        <time>2025-09-10T14:02:43Z</time>
      </trkpt>
      <trkpt lat="45.86351" lon="4.53694">
        <ele>381.8</ele>
        <time>2025-09-10T14:02:44Z</time>
      </trkpt>
      <trkpt lat="45.86352" lon="4.53692">
        <ele>382</ele>
        <time>2025-09-10T14:02:45Z</time>
      </trkpt>
      <trkpt lat="45.86354" lon="4.5369">
        <ele>382</ele>
        <time>2025-09-10T14:02:46Z</time>
      </trkpt>
      <trkpt lat="45.86355" lon="4.53688">
        <ele>382</ele>
        <time>2025-09-10T14:02:47Z</time>
      </trkpt>
      <trkpt lat="45.86357" lon="4.53686">
        <ele>382</ele>
        <time>2025-09-10T14:02:48Z</time>
      </trkpt>
      <trkpt lat="45.86359" lon="4.53684">
        <ele>382</ele>
        <time>2025-09-10T14:02:49Z</time>
      </trkpt>
      <trkpt lat="45.8636" lon="4.53683">
        <ele>382</ele>
        <time>2025-09-10T14:02:50Z</time>
      </trkpt>
      <trkpt lat="45.86362" lon="4.53681">
        <ele>382.2</ele>
        <time>2025-09-10T14:02:51Z</time>
      </trkpt>
      <trkpt lat="45.86363" lon="4.53679">
        <ele>382.2</ele>
        <time>2025-09-10T14:02:52Z</time>
      </trkpt>
      <trkpt lat="45.86364" lon="4.53677">
        <ele>382.2</ele>
        <time>2025-09-10T14:02:53Z</time>
      </trkpt>
      <trkpt lat="45.86365" lon="4.53675">
        <ele>382.4</ele>
        <time>2025-09-10T14:02:54Z</time>
      </trkpt>
      <trkpt lat="45.86366" lon="4.53672">
        <ele>382.4</ele>
        <time>2025-09-10T14:02:55Z</time>
      </trkpt>
      <trkpt lat="45.86367" lon="4.5367">
        <ele>382.4</ele>
        <time>2025-09-10T14:02:56Z</time>
      </trkpt>
      <trkpt lat="45.86368" lon="4.53668">
        <ele>382.4</ele>
        <time>2025-09-10T14:02:57Z</time>
      </trkpt>
      <trkpt lat="45.8637" lon="4.53666">
        <ele>382.4</ele>
        <time>2025-09-10T14:02:58Z</time>
      </trkpt>
      <trkpt lat="45.86372" lon="4.53664">
        <ele>382.8</ele>
        <time>2025-09-10T14:02:59Z</time>
      </trkpt>
      <trkpt lat="45.86373" lon="4.53662">
        <ele>382.8</ele>
        <time>2025-09-10T14:03:00Z</time>
      </trkpt>
      <trkpt lat="45.86375" lon="4.5366">
        <ele>382.8</ele>
        <time>2025-09-10T14:03:01Z</time>
      </trkpt>
      <trkpt lat="45.86377" lon="4.53658">
        <ele>382.8</ele>
        <time>2025-09-10T14:03:02Z</time>
      </trkpt>
      <trkpt lat="45.8638" lon="4.53656">
        <ele>382.8</ele>
        <time>2025-09-10T14:03:03Z</time>
      </trkpt>
      <trkpt lat="45.86381" lon="4.53653">
        <ele>382.8</ele>
        <time>2025-09-10T14:03:04Z</time>
      </trkpt>
      <trkpt lat="45.86383" lon="4.5365">
        <ele>382.8</ele>
        <time>2025-09-10T14:03:05Z</time>
      </trkpt>
      <trkpt lat="45.86385" lon="4.53647">
        <ele>382.8</ele>
        <time>2025-09-10T14:03:06Z</time>
      </trkpt>
      <trkpt lat="45.86387" lon="4.53644">
        <ele>382.8</ele>
        <time>2025-09-10T14:03:07Z</time>
      </trkpt>
      <trkpt lat="45.86389" lon="4.5364">
        <ele>382.8</ele>
        <time>2025-09-10T14:03:08Z</time>
      </trkpt>
      <trkpt lat="45.86391" lon="4.53637">
        <ele>382.8</ele>
        <time>2025-09-10T14:03:09Z</time>
      </trkpt>
      <trkpt lat="45.86393" lon="4.53634">
        <ele>382.4</ele>
        <time>2025-09-10T14:03:10Z</time>
      </trkpt>
      <trkpt lat="45.86395" lon="4.53631">
        <ele>382.4</ele>
        <time>2025-09-10T14:03:11Z</time>
      </trkpt>
      <trkpt lat="45.86397" lon="4.53628">
        <ele>382.6</ele>
        <time>2025-09-10T14:03:12Z</time>
      </trkpt>
      <trkpt lat="45.86399" lon="4.53625">
        <ele>383</ele>
        <time>2025-09-10T14:03:13Z</time>
      </trkpt>
      <trkpt lat="45.86401" lon="4.53622">
        <ele>383</ele>
        <time>2025-09-10T14:03:14Z</time>
      </trkpt>
      <trkpt lat="45.86403" lon="4.53619">
        <ele>383.2</ele>
        <time>2025-09-10T14:03:15Z</time>
      </trkpt>
      <trkpt lat="45.86404" lon="4.53616">
        <ele>383.2</ele>
        <time>2025-09-10T14:03:16Z</time>
      </trkpt>
      <trkpt lat="45.86406" lon="4.53613">
        <ele>383.2</ele>
        <time>2025-09-10T14:03:17Z</time>
      </trkpt>
      <trkpt lat="45.86408" lon="4.53611">
        <ele>383.2</ele>
        <time>2025-09-10T14:03:18Z</time>
      </trkpt>
      <trkpt lat="45.8641" lon="4.53609">
        <ele>383.2</ele>
        <time>2025-09-10T14:03:19Z</time>
      </trkpt>
      <trkpt lat="45.86412" lon="4.53607">
        <ele>383.2</ele>
        <time>2025-09-10T14:03:20Z</time>
      </trkpt>
      <trkpt lat="45.86414" lon="4.53605">
        <ele>383.6</ele>
        <time>2025-09-10T14:03:21Z</time>
      </trkpt>
      <trkpt lat="45.86416" lon="4.53604">
        <ele>383.8</ele>
        <time>2025-09-10T14:03:22Z</time>
      </trkpt>
      <trkpt lat="45.86418" lon="4.53603">
        <ele>383.8</ele>
        <time>2025-09-10T14:03:23Z</time>
      </trkpt>
      <trkpt lat="45.86419" lon="4.53602">
        <ele>384</ele>
        <time>2025-09-10T14:03:24Z</time>
      </trkpt>
      <trkpt lat="45.8642" lon="4.53601">
        <ele>384.4</ele>
        <time>2025-09-10T14:03:25Z</time>
      </trkpt>
      <trkpt lat="45.86421" lon="4.536">
        <ele>384.4</ele>
        <time>2025-09-10T14:03:26Z</time>
      </trkpt>
      <trkpt lat="45.86423" lon="4.53599">
        <ele>384.4</ele>
        <time>2025-09-10T14:03:27Z</time>
      </trkpt>
      <trkpt lat="45.86424" lon="4.53598">
        <ele>384.6</ele>
        <time>2025-09-10T14:03:28Z</time>
      </trkpt>
      <trkpt lat="45.86425" lon="4.53598">
        <ele>384.6</ele>
        <time>2025-09-10T14:03:29Z</time>
      </trkpt>
      <trkpt lat="45.86427" lon="4.53597">
        <ele>384.8</ele>
        <time>2025-09-10T14:03:30Z</time>
      </trkpt>
      <trkpt lat="45.86429" lon="4.53596">
        <ele>384.8</ele>
        <time>2025-09-10T14:03:31Z</time>
      </trkpt>
      <trkpt lat="45.8643" lon="4.53596">
        <ele>384.8</ele>
        <time>2025-09-10T14:03:32Z</time>
      </trkpt>
      <trkpt lat="45.86431" lon="4.53595">
        <ele>385.2</ele>
        <time>2025-09-10T14:03:33Z</time>
      </trkpt>
      <trkpt lat="45.86432" lon="4.53594">
        <ele>385.2</ele>
        <time>2025-09-10T14:03:34Z</time>
      </trkpt>
      <trkpt lat="45.86435" lon="4.53593">
        <ele>385.4</ele>
        <time>2025-09-10T14:03:35Z</time>
      </trkpt>
      <trkpt lat="45.86436" lon="4.53592">
        <ele>385.4</ele>
        <time>2025-09-10T14:03:36Z</time>
      </trkpt>
      <trkpt lat="45.86438" lon="4.53592">
        <ele>385.4</ele>
        <time>2025-09-10T14:03:37Z</time>
      </trkpt>
      <trkpt lat="45.86439" lon="4.53592">
        <ele>385.4</ele>
        <time>2025-09-10T14:03:38Z</time>
      </trkpt>
      <trkpt lat="45.86441" lon="4.53591">
        <ele>385.8</ele>
        <time>2025-09-10T14:03:39Z</time>
      </trkpt>
      <trkpt lat="45.86442" lon="4.53591">
        <ele>385.8</ele>
        <time>2025-09-10T14:03:40Z</time>
      </trkpt>
      <trkpt lat="45.86443" lon="4.5359">
        <ele>386</ele>
        <time>2025-09-10T14:03:41Z</time>
      </trkpt>
      <trkpt lat="45.86445" lon="4.5359">
        <ele>386</ele>
        <time>2025-09-10T14:03:42Z</time>
      </trkpt>
      <trkpt lat="45.86446" lon="4.53589">
        <ele>386.2</ele>
        <time>2025-09-10T14:03:43Z</time>
      </trkpt>
      <trkpt lat="45.86446" lon="4.53589">
        <ele>386.2</ele>
        <time>2025-09-10T14:03:44Z</time>
      </trkpt>
      <trkpt lat="45.86448" lon="4.53589">
        <ele>386.2</ele>
        <time>2025-09-10T14:03:45Z</time>
      </trkpt>
      <trkpt lat="45.8645" lon="4.53589">
        <ele>386.2</ele>
        <time>2025-09-10T14:03:46Z</time>
      </trkpt>
      <trkpt lat="45.86451" lon="4.53589">
        <ele>386.2</ele>
        <time>2025-09-10T14:03:47Z</time>
      </trkpt>
      <trkpt lat="45.86452" lon="4.53589">
        <ele>386.4</ele>
        <time>2025-09-10T14:03:48Z</time>
      </trkpt>
      <trkpt lat="45.86454" lon="4.53589">
        <ele>386.8</ele>
        <time>2025-09-10T14:03:49Z</time>
      </trkpt>
      <trkpt lat="45.86455" lon="4.5359">
        <ele>386.8</ele>
        <time>2025-09-10T14:03:50Z</time>
      </trkpt>
      <trkpt lat="45.86457" lon="4.53591">
        <ele>387</ele>
        <time>2025-09-10T14:03:51Z</time>
      </trkpt>
      <trkpt lat="45.86458" lon="4.53591">
        <ele>387</ele>
        <time>2025-09-10T14:03:52Z</time>
      </trkpt>
      <trkpt lat="45.86459" lon="4.53592">
        <ele>387.2</ele>
        <time>2025-09-10T14:03:53Z</time>
      </trkpt>
      <trkpt lat="45.86461" lon="4.53591">
        <ele>387.2</ele>
        <time>2025-09-10T14:03:54Z</time>
      </trkpt>
      <trkpt lat="45.86462" lon="4.53591">
        <ele>387.6</ele>
        <time>2025-09-10T14:03:55Z</time>
      </trkpt>
      <trkpt lat="45.86463" lon="4.5359">
        <ele>387.8</ele>
        <time>2025-09-10T14:03:56Z</time>
      </trkpt>
      <trkpt lat="45.86464" lon="4.5359">
        <ele>387.8</ele>
        <time>2025-09-10T14:03:57Z</time>
      </trkpt>
      <trkpt lat="45.86466" lon="4.53591">
        <ele>387.8</ele>
        <time>2025-09-10T14:03:58Z</time>
      </trkpt>
      <trkpt lat="45.86467" lon="4.53591">
        <ele>387.8</ele>
        <time>2025-09-10T14:03:59Z</time>
      </trkpt>
      <trkpt lat="45.86469" lon="4.53591">
        <ele>387.8</ele>
        <time>2025-09-10T14:04:00Z</time>
      </trkpt>
      <trkpt lat="45.8647" lon="4.53592">
        <ele>388.2</ele>
        <time>2025-09-10T14:04:01Z</time>
      </trkpt>
      <trkpt lat="45.86472" lon="4.53592">
        <ele>388.2</ele>
        <time>2025-09-10T14:04:02Z</time>
      </trkpt>
      <trkpt lat="45.86473" lon="4.53593">
        <ele>388.6</ele>
        <time>2025-09-10T14:04:03Z</time>
      </trkpt>
      <trkpt lat="45.86475" lon="4.53593">
        <ele>388.6</ele>
        <time>2025-09-10T14:04:04Z</time>
      </trkpt>
      <trkpt lat="45.86477" lon="4.53594">
        <ele>388.6</ele>
        <time>2025-09-10T14:04:05Z</time>
      </trkpt>
      <trkpt lat="45.86478" lon="4.53594">
        <ele>388.6</ele>
        <time>2025-09-10T14:04:06Z</time>
      </trkpt>
      <trkpt lat="45.8648" lon="4.53594">
        <ele>388.8</ele>
        <time>2025-09-10T14:04:07Z</time>
      </trkpt>
      <trkpt lat="45.86481" lon="4.53595">
        <ele>389</ele>
        <time>2025-09-10T14:04:08Z</time>
      </trkpt>
      <trkpt lat="45.86483" lon="4.53595">
        <ele>389</ele>
        <time>2025-09-10T14:04:09Z</time>
      </trkpt>
      <trkpt lat="45.86484" lon="4.53595">
        <ele>389.2</ele>
        <time>2025-09-10T14:04:10Z</time>
      </trkpt>
      <trkpt lat="45.86486" lon="4.53595">
        <ele>389.2</ele>
        <time>2025-09-10T14:04:11Z</time>
      </trkpt>
      <trkpt lat="45.86487" lon="4.53595">
        <ele>389.2</ele>
        <time>2025-09-10T14:04:12Z</time>
      </trkpt>
      <trkpt lat="45.86489" lon="4.53596">
        <ele>389.6</ele>
        <time>2025-09-10T14:04:13Z</time>
      </trkpt>
      <trkpt lat="45.8649" lon="4.53596">
        <ele>389.6</ele>
        <time>2025-09-10T14:04:14Z</time>
      </trkpt>
      <trkpt lat="45.86491" lon="4.53597">
        <ele>389.8</ele>
        <time>2025-09-10T14:04:15Z</time>
      </trkpt>
      <trkpt lat="45.86493" lon="4.53597">
        <ele>389.8</ele>
        <time>2025-09-10T14:04:16Z</time>
      </trkpt>
      <trkpt lat="45.86494" lon="4.53597">
        <ele>389.8</ele>
        <time>2025-09-10T14:04:17Z</time>
      </trkpt>
      <trkpt lat="45.86496" lon="4.53597">
        <ele>389.8</ele>
        <time>2025-09-10T14:04:18Z</time>
      </trkpt>
      <trkpt lat="45.86497" lon="4.53597">
        <ele>390.2</ele>
        <time>2025-09-10T14:04:19Z</time>
      </trkpt>
      <trkpt lat="45.86498" lon="4.53597">
        <ele>390.2</ele>
        <time>2025-09-10T14:04:20Z</time>
      </trkpt>
      <trkpt lat="45.865" lon="4.53597">
        <ele>390.4</ele>
        <time>2025-09-10T14:04:21Z</time>
      </trkpt>
      <trkpt lat="45.86501" lon="4.53598">
        <ele>390.4</ele>
        <time>2025-09-10T14:04:22Z</time>
      </trkpt>
      <trkpt lat="45.86502" lon="4.53598">
        <ele>390.4</ele>
        <time>2025-09-10T14:04:23Z</time>
      </trkpt>
      <trkpt lat="45.86504" lon="4.53599">
        <ele>390.4</ele>
        <time>2025-09-10T14:04:24Z</time>
      </trkpt>
      <trkpt lat="45.86505" lon="4.53599">
        <ele>390.6</ele>
        <time>2025-09-10T14:04:25Z</time>
      </trkpt>
      <trkpt lat="45.86506" lon="4.536">
        <ele>390.6</ele>
        <time>2025-09-10T14:04:26Z</time>
      </trkpt>
      <trkpt lat="45.86508" lon="4.53599">
        <ele>390.8</ele>
        <time>2025-09-10T14:04:27Z</time>
      </trkpt>
      <trkpt lat="45.86509" lon="4.53599">
        <ele>390.8</ele>
        <time>2025-09-10T14:04:28Z</time>
      </trkpt>
      <trkpt lat="45.86511" lon="4.53599">
        <ele>390.8</ele>
        <time>2025-09-10T14:04:29Z</time>
      </trkpt>
      <trkpt lat="45.86512" lon="4.53599">
        <ele>390.8</ele>
        <time>2025-09-10T14:04:30Z</time>
      </trkpt>
      <trkpt lat="45.86514" lon="4.536">
        <ele>391.4</ele>
        <time>2025-09-10T14:04:31Z</time>
      </trkpt>
      <trkpt lat="45.86515" lon="4.536">
        <ele>391.6</ele>
        <time>2025-09-10T14:04:32Z</time>
      </trkpt>
      <trkpt lat="45.86516" lon="4.536">
        <ele>391.6</ele>
        <time>2025-09-10T14:04:33Z</time>
      </trkpt>
      <trkpt lat="45.86518" lon="4.536">
        <ele>392</ele>
        <time>2025-09-10T14:04:34Z</time>
      </trkpt>
      <trkpt lat="45.86519" lon="4.536">
        <ele>392</ele>
        <time>2025-09-10T14:04:35Z</time>
      </trkpt>
      <trkpt lat="45.8652" lon="4.536">
        <ele>392</ele>
        <time>2025-09-10T14:04:36Z</time>
      </trkpt>
      <trkpt lat="45.86521" lon="4.536">
        <ele>392</ele>
        <time>2025-09-10T14:04:37Z</time>
      </trkpt>
      <trkpt lat="45.86522" lon="4.53599">
        <ele>392</ele>
        <time>2025-09-10T14:04:38Z</time>
      </trkpt>
      <trkpt lat="45.86524" lon="4.53598">
        <ele>392</ele>
        <time>2025-09-10T14:04:39Z</time>
      </trkpt>
      <trkpt lat="45.86525" lon="4.53598">
        <ele>392</ele>
        <time>2025-09-10T14:04:40Z</time>
      </trkpt>
      <trkpt lat="45.86527" lon="4.53598">
        <ele>392</ele>
        <time>2025-09-10T14:04:41Z</time>
      </trkpt>
      <trkpt lat="45.8653" lon="4.53599">
        <ele>392</ele>
        <time>2025-09-10T14:04:42Z</time>
      </trkpt>
      <trkpt lat="45.86533" lon="4.53599">
        <ele>391.8</ele>
        <time>2025-09-10T14:04:43Z</time>
      </trkpt>
      <trkpt lat="45.86535" lon="4.53598">
        <ele>391.8</ele>
        <time>2025-09-10T14:04:44Z</time>
      </trkpt>
      <trkpt lat="45.86537" lon="4.53597">
        <ele>391.8</ele>
        <time>2025-09-10T14:04:45Z</time>
      </trkpt>
      <trkpt lat="45.86539" lon="4.53596">
        <ele>391.8</ele>
        <time>2025-09-10T14:04:46Z</time>
      </trkpt>
      <trkpt lat="45.8654" lon="4.53594">
        <ele>391.6</ele>
        <time>2025-09-10T14:04:47Z</time>
      </trkpt>
      <trkpt lat="45.86541" lon="4.53593">
        <ele>391.4</ele>
        <time>2025-09-10T14:04:48Z</time>
      </trkpt>
      <trkpt lat="45.86544" lon="4.53591">
        <ele>391.4</ele>
        <time>2025-09-10T14:04:49Z</time>
      </trkpt>
      <trkpt lat="45.86546" lon="4.5359">
        <ele>390.8</ele>
        <time>2025-09-10T14:04:50Z</time>
      </trkpt>
      <trkpt lat="45.86549" lon="4.53589">
        <ele>390.8</ele>
        <time>2025-09-10T14:04:51Z</time>
      </trkpt>
      <trkpt lat="45.86551" lon="4.53587">
        <ele>390.4</ele>
        <time>2025-09-10T14:04:52Z</time>
      </trkpt>
      <trkpt lat="45.86552" lon="4.53586">
        <ele>390.2</ele>
        <time>2025-09-10T14:04:53Z</time>
      </trkpt>
      <trkpt lat="45.86553" lon="4.53585">
        <ele>390</ele>
        <time>2025-09-10T14:04:54Z</time>
      </trkpt>
      <trkpt lat="45.86553" lon="4.53584">
        <ele>389.6</ele>
        <time>2025-09-10T14:04:55Z</time>
      </trkpt>
      <trkpt lat="45.86554" lon="4.53583">
        <ele>389.6</ele>
        <time>2025-09-10T14:04:56Z</time>
      </trkpt>
      <trkpt lat="45.86554" lon="4.53583">
        <ele>389.4</ele>
        <time>2025-09-10T14:04:57Z</time>
      </trkpt>
      <trkpt lat="45.86552" lon="4.53582">
        <ele>389.6</ele>
        <time>2025-09-10T14:08:29Z</time>
      </trkpt>
      <trkpt lat="45.86554" lon="4.53581">
        <ele>389.2</ele>
        <time>2025-09-10T14:08:30Z</time>
      </trkpt>
      <trkpt lat="45.86556" lon="4.53581">
        <ele>389.2</ele>
        <time>2025-09-10T14:08:31Z</time>
      </trkpt>
      <trkpt lat="45.86561" lon="4.53579">
        <ele>389.2</ele>
        <time>2025-09-10T14:08:32Z</time>
      </trkpt>
      <trkpt lat="45.86564" lon="4.53577">
        <ele>388.8</ele>
        <time>2025-09-10T14:08:33Z</time>
      </trkpt>
      <trkpt lat="45.86566" lon="4.53574">
        <ele>388.8</ele>
        <time>2025-09-10T14:08:34Z</time>
      </trkpt>
      <trkpt lat="45.86569" lon="4.53572">
        <ele>388.4</ele>
        <time>2025-09-10T14:08:35Z</time>
      </trkpt>
      <trkpt lat="45.86573" lon="4.53569">
        <ele>388</ele>
        <time>2025-09-10T14:08:36Z</time>
      </trkpt>
      <trkpt lat="45.86576" lon="4.53566">
        <ele>388</ele>
        <time>2025-09-10T14:08:37Z</time>
      </trkpt>
      <trkpt lat="45.8658" lon="4.53562">
        <ele>387.8</ele>
        <time>2025-09-10T14:08:38Z</time>
      </trkpt>
      <trkpt lat="45.86585" lon="4.5356">
        <ele>387.4</ele>
        <time>2025-09-10T14:08:39Z</time>
      </trkpt>
      <trkpt lat="45.86589" lon="4.53556">
        <ele>387.2</ele>
        <time>2025-09-10T14:08:40Z</time>
      </trkpt>
      <trkpt lat="45.86589" lon="4.53556">
        <ele>386.4</ele>
        <time>2025-09-10T14:08:41Z</time>
      </trkpt>
      <trkpt lat="45.86594" lon="4.53552">
        <ele>386</ele>
        <time>2025-09-10T14:08:42Z</time>
      </trkpt>
      <trkpt lat="45.86599" lon="4.53549">
        <ele>385.2</ele>
        <time>2025-09-10T14:08:43Z</time>
      </trkpt>
      <trkpt lat="45.86604" lon="4.53545">
        <ele>384.6</ele>
        <time>2025-09-10T14:08:44Z</time>
      </trkpt>
      <trkpt lat="45.86609" lon="4.53541">
        <ele>384.2</ele>
        <time>2025-09-10T14:08:45Z</time>
      </trkpt>
      <trkpt lat="45.86613" lon="4.53536">
        <ele>383.8</ele>
        <time>2025-09-10T14:08:46Z</time>
      </trkpt>
      <trkpt lat="45.86617" lon="4.53532">
        <ele>383.4</ele>
        <time>2025-09-10T14:08:47Z</time>
      </trkpt>
      <trkpt lat="45.86621" lon="4.53526">
        <ele>383</ele>
        <time>2025-09-10T14:08:48Z</time>
      </trkpt>
      <trkpt lat="45.86625" lon="4.53521">
        <ele>382.6</ele>
        <time>2025-09-10T14:08:49Z</time>
      </trkpt>
      <trkpt lat="45.86628" lon="4.53515">
        <ele>382</ele>
        <time>2025-09-10T14:08:50Z</time>
      </trkpt>
      <trkpt lat="45.86632" lon="4.53509">
        <ele>382</ele>
        <time>2025-09-10T14:08:51Z</time>
      </trkpt>
      <trkpt lat="45.86635" lon="4.53503">
        <ele>381.4</ele>
        <time>2025-09-10T14:08:52Z</time>
      </trkpt>
      <trkpt lat="45.86639" lon="4.53497">
        <ele>380.8</ele>
        <time>2025-09-10T14:08:53Z</time>
      </trkpt>
      <trkpt lat="45.86642" lon="4.53491">
        <ele>380.2</ele>
        <time>2025-09-10T14:08:54Z</time>
      </trkpt>
      <trkpt lat="45.86645" lon="4.53485">
        <ele>379.4</ele>
        <time>2025-09-10T14:08:55Z</time>
      </trkpt>
      <trkpt lat="45.86647" lon="4.53477">
        <ele>379</ele>
        <time>2025-09-10T14:08:56Z</time>
      </trkpt>
      <trkpt lat="45.86648" lon="4.5347">
        <ele>378</ele>
        <time>2025-09-10T14:08:57Z</time>
      </trkpt>
      <trkpt lat="45.8665" lon="4.53463">
        <ele>377.8</ele>
        <time>2025-09-10T14:08:58Z</time>
      </trkpt>
      <trkpt lat="45.8665" lon="4.53455">
        <ele>377.4</ele>
        <time>2025-09-10T14:08:59Z</time>
      </trkpt>
      <trkpt lat="45.86651" lon="4.53446">
        <ele>377</ele>
        <time>2025-09-10T14:09:00Z</time>
      </trkpt>
      <trkpt lat="45.86651" lon="4.53438">
        <ele>376.6</ele>
        <time>2025-09-10T14:09:01Z</time>
      </trkpt>
      <trkpt lat="45.86652" lon="4.5343">
        <ele>376.2</ele>
        <time>2025-09-10T14:09:02Z</time>
      </trkpt>
      <trkpt lat="45.86653" lon="4.53422">
        <ele>375.8</ele>
        <time>2025-09-10T14:09:03Z</time>
      </trkpt>
      <trkpt lat="45.86654" lon="4.53415">
        <ele>375.6</ele>
        <time>2025-09-10T14:09:04Z</time>
      </trkpt>
      <trkpt lat="45.86659" lon="4.53408">
        <ele>375.6</ele>
        <time>2025-09-10T14:09:05Z</time>
      </trkpt>
      <trkpt lat="45.86662" lon="4.53401">
        <ele>375.4</ele>
        <time>2025-09-10T14:09:06Z</time>
      </trkpt>
      <trkpt lat="45.86667" lon="4.53396">
        <ele>375</ele>
        <time>2025-09-10T14:09:07Z</time>
      </trkpt>
      <trkpt lat="45.8667" lon="4.53389">
        <ele>375</ele>
        <time>2025-09-10T14:09:08Z</time>
      </trkpt>
      <trkpt lat="45.86674" lon="4.53383">
        <ele>375</ele>
        <time>2025-09-10T14:09:09Z</time>
      </trkpt>
      <trkpt lat="45.86678" lon="4.53377">
        <ele>375</ele>
        <time>2025-09-10T14:09:10Z</time>
      </trkpt>
      <trkpt lat="45.86683" lon="4.53371">
        <ele>375</ele>
        <time>2025-09-10T14:09:11Z</time>
      </trkpt>
      <trkpt lat="45.86687" lon="4.53366">
        <ele>374.8</ele>
        <time>2025-09-10T14:09:12Z</time>
      </trkpt>
      <trkpt lat="45.86692" lon="4.53362">
        <ele>374.8</ele>
        <time>2025-09-10T14:09:13Z</time>
      </trkpt>
      <trkpt lat="45.86697" lon="4.53358">
        <ele>374.8</ele>
        <time>2025-09-10T14:09:14Z</time>
      </trkpt>
      <trkpt lat="45.86701" lon="4.53354">
        <ele>374.8</ele>
        <time>2025-09-10T14:09:15Z</time>
      </trkpt>
      <trkpt lat="45.86706" lon="4.5335">
        <ele>374.8</ele>
        <time>2025-09-10T14:09:16Z</time>
      </trkpt>
      <trkpt lat="45.86711" lon="4.53346">
        <ele>374.6</ele>
        <time>2025-09-10T14:09:17Z</time>
      </trkpt>
      <trkpt lat="45.86716" lon="4.53343">
        <ele>374.6</ele>
        <time>2025-09-10T14:09:18Z</time>
      </trkpt>
      <trkpt lat="45.86722" lon="4.5334">
        <ele>374.6</ele>
        <time>2025-09-10T14:09:19Z</time>
      </trkpt>
      <trkpt lat="45.86728" lon="4.53337">
        <ele>374.6</ele>
        <time>2025-09-10T14:09:20Z</time>
      </trkpt>
      <trkpt lat="45.86734" lon="4.53334">
        <ele>374.2</ele>
        <time>2025-09-10T14:09:21Z</time>
      </trkpt>
      <trkpt lat="45.8674" lon="4.53331">
        <ele>373.8</ele>
        <time>2025-09-10T14:09:22Z</time>
      </trkpt>
      <trkpt lat="45.86746" lon="4.53326">
        <ele>373.4</ele>
        <time>2025-09-10T14:09:23Z</time>
      </trkpt>
      <trkpt lat="45.86752" lon="4.53321">
        <ele>373</ele>
        <time>2025-09-10T14:09:24Z</time>
      </trkpt>
      <trkpt lat="45.86758" lon="4.53315">
        <ele>372.8</ele>
        <time>2025-09-10T14:09:25Z</time>
      </trkpt>
      <trkpt lat="45.86763" lon="4.5331">
        <ele>372.8</ele>
        <time>2025-09-10T14:09:26Z</time>
      </trkpt>
      <trkpt lat="45.86768" lon="4.53304">
        <ele>372.4</ele>
        <time>2025-09-10T14:09:27Z</time>
      </trkpt>
      <trkpt lat="45.86774" lon="4.533">
        <ele>372.2</ele>
        <time>2025-09-10T14:09:28Z</time>
      </trkpt>
      <trkpt lat="45.86779" lon="4.53298">
        <ele>372.2</ele>
        <time>2025-09-10T14:09:29Z</time>
      </trkpt>
      <trkpt lat="45.86784" lon="4.53296">
        <ele>372</ele>
        <time>2025-09-10T14:09:30Z</time>
      </trkpt>
      <trkpt lat="45.86789" lon="4.53294">
        <ele>371.6</ele>
        <time>2025-09-10T14:09:31Z</time>
      </trkpt>
      <trkpt lat="45.86795" lon="4.53295">
        <ele>371.2</ele>
        <time>2025-09-10T14:09:32Z</time>
      </trkpt>
      <trkpt lat="45.86801" lon="4.53295">
        <ele>371</ele>
        <time>2025-09-10T14:09:33Z</time>
      </trkpt>
      <trkpt lat="45.86806" lon="4.53297">
        <ele>370.8</ele>
        <time>2025-09-10T14:09:34Z</time>
      </trkpt>
      <trkpt lat="45.86813" lon="4.53298">
        <ele>370.2</ele>
        <time>2025-09-10T14:09:35Z</time>
      </trkpt>
      <trkpt lat="45.86819" lon="4.53299">
        <ele>369.8</ele>
        <time>2025-09-10T14:09:36Z</time>
      </trkpt>
      <trkpt lat="45.86826" lon="4.533">
        <ele>369.8</ele>
        <time>2025-09-10T14:09:37Z</time>
      </trkpt>
      <trkpt lat="45.86833" lon="4.53301">
        <ele>369.8</ele>
        <time>2025-09-10T14:09:38Z</time>
      </trkpt>
      <trkpt lat="45.8684" lon="4.53302">
        <ele>369.4</ele>
        <time>2025-09-10T14:09:39Z</time>
      </trkpt>
      <trkpt lat="45.86846" lon="4.53304">
        <ele>369.4</ele>
        <time>2025-09-10T14:09:40Z</time>
      </trkpt>
      <trkpt lat="45.86853" lon="4.53307">
        <ele>369.2</ele>
        <time>2025-09-10T14:09:41Z</time>
      </trkpt>
      <trkpt lat="45.8686" lon="4.53309">
        <ele>369</ele>
        <time>2025-09-10T14:09:42Z</time>
      </trkpt>
      <trkpt lat="45.86867" lon="4.53312">
        <ele>369</ele>
        <time>2025-09-10T14:09:43Z</time>
      </trkpt>
      <trkpt lat="45.86873" lon="4.53314">
        <ele>368.8</ele>
        <time>2025-09-10T14:09:44Z</time>
      </trkpt>
      <trkpt lat="45.8688" lon="4.53315">
        <ele>368.8</ele>
        <time>2025-09-10T14:09:45Z</time>
      </trkpt>
      <trkpt lat="45.86886" lon="4.53318">
        <ele>368.8</ele>
        <time>2025-09-10T14:09:46Z</time>
      </trkpt>
      <trkpt lat="45.86892" lon="4.53319">
        <ele>368.8</ele>
        <time>2025-09-10T14:09:47Z</time>
      </trkpt>
      <trkpt lat="45.86898" lon="4.53321">
        <ele>368.8</ele>
        <time>2025-09-10T14:09:48Z</time>
      </trkpt>
      <trkpt lat="45.86904" lon="4.53323">
        <ele>368.8</ele>
        <time>2025-09-10T14:09:49Z</time>
      </trkpt>
      <trkpt lat="45.86909" lon="4.53326">
        <ele>368.8</ele>
        <time>2025-09-10T14:09:50Z</time>
      </trkpt>
      <trkpt lat="45.86914" lon="4.53327">
        <ele>368.8</ele>
        <time>2025-09-10T14:09:51Z</time>
      </trkpt>
      <trkpt lat="45.86918" lon="4.53327">
        <ele>368.8</ele>
        <time>2025-09-10T14:09:52Z</time>
      </trkpt>
      <trkpt lat="45.86921" lon="4.53323">
        <ele>368.8</ele>
        <time>2025-09-10T14:09:53Z</time>
      </trkpt>
      <trkpt lat="45.86923" lon="4.53319">
        <ele>368.8</ele>
        <time>2025-09-10T14:09:54Z</time>
      </trkpt>
      <trkpt lat="45.86925" lon="4.53315">
        <ele>368.8</ele>
        <time>2025-09-10T14:09:55Z</time>
      </trkpt>
      <trkpt lat="45.86925" lon="4.5331">
        <ele>368.8</ele>
        <time>2025-09-10T14:09:56Z</time>
      </trkpt>
      <trkpt lat="45.86925" lon="4.53305">
        <ele>369</ele>
        <time>2025-09-10T14:09:57Z</time>
      </trkpt>
      <trkpt lat="45.86925" lon="4.533">
        <ele>369</ele>
        <time>2025-09-10T14:09:58Z</time>
      </trkpt>
      <trkpt lat="45.86925" lon="4.53297">
        <ele>368.8</ele>
        <time>2025-09-10T14:09:59Z</time>
      </trkpt>
      <trkpt lat="45.86926" lon="4.53296">
        <ele>368.8</ele>
        <time>2025-09-10T14:10:00Z</time>
      </trkpt>
      <trkpt lat="45.86926" lon="4.53295">
        <ele>368.8</ele>
        <time>2025-09-10T14:10:01Z</time>
      </trkpt>
      <trkpt lat="45.86926" lon="4.53293">
        <ele>368.6</ele>
        <time>2025-09-10T14:10:19Z</time>
      </trkpt>
      <trkpt lat="45.86926" lon="4.53291">
        <ele>368.6</ele>
        <time>2025-09-10T14:10:20Z</time>
      </trkpt>
      <trkpt lat="45.86926" lon="4.5329">
        <ele>368.6</ele>
        <time>2025-09-10T14:10:21Z</time>
      </trkpt>
      <trkpt lat="45.86925" lon="4.53289">
        <ele>368.6</ele>
        <time>2025-09-10T14:10:22Z</time>
      </trkpt>
      <trkpt lat="45.86925" lon="4.53287">
        <ele>368.6</ele>
        <time>2025-09-10T14:10:23Z</time>
      </trkpt>
      <trkpt lat="45.86926" lon="4.53283">
        <ele>368.6</ele>
        <time>2025-09-10T14:10:24Z</time>
      </trkpt>
      <trkpt lat="45.86926" lon="4.53279">
        <ele>368.2</ele>
        <time>2025-09-10T14:10:25Z</time>
      </trkpt>
      <trkpt lat="45.86927" lon="4.53276">
        <ele>368.2</ele>
        <time>2025-09-10T14:10:26Z</time>
      </trkpt>
      <trkpt lat="45.86928" lon="4.53272">
        <ele>368.2</ele>
        <time>2025-09-10T14:10:27Z</time>
      </trkpt>
      <trkpt lat="45.86929" lon="4.53268">
        <ele>368.2</ele>
        <time>2025-09-10T14:10:28Z</time>
      </trkpt>
      <trkpt lat="45.86929" lon="4.53264">
        <ele>368</ele>
        <time>2025-09-10T14:10:29Z</time>
      </trkpt>
      <trkpt lat="45.8693" lon="4.53259">
        <ele>368</ele>
        <time>2025-09-10T14:10:30Z</time>
      </trkpt>
      <trkpt lat="45.86931" lon="4.53255">
        <ele>367.6</ele>
        <time>2025-09-10T14:10:31Z</time>
      </trkpt>
      <trkpt lat="45.86932" lon="4.5325">
        <ele>367.6</ele>
        <time>2025-09-10T14:10:32Z</time>
      </trkpt>
      <trkpt lat="45.86933" lon="4.53245">
        <ele>367.6</ele>
        <time>2025-09-10T14:10:33Z</time>
      </trkpt>
      <trkpt lat="45.86934" lon="4.5324">
        <ele>367.4</ele>
        <time>2025-09-10T14:10:34Z</time>
      </trkpt>
      <trkpt lat="45.86934" lon="4.53234">
        <ele>367.4</ele>
        <time>2025-09-10T14:10:35Z</time>
      </trkpt>
      <trkpt lat="45.86935" lon="4.53229">
        <ele>367.4</ele>
        <time>2025-09-10T14:10:36Z</time>
      </trkpt>
      <trkpt lat="45.86936" lon="4.53223">
        <ele>367.2</ele>
        <time>2025-09-10T14:10:37Z</time>
      </trkpt>
      <trkpt lat="45.86937" lon="4.53217">
        <ele>367.2</ele>
        <time>2025-09-10T14:10:38Z</time>
      </trkpt>
      <trkpt lat="45.86938" lon="4.53211">
        <ele>367.2</ele>
        <time>2025-09-10T14:10:39Z</time>
      </trkpt>
      <trkpt lat="45.86939" lon="4.53205">
        <ele>367</ele>
        <time>2025-09-10T14:10:40Z</time>
      </trkpt>
      <trkpt lat="45.8694" lon="4.53199">
        <ele>367.2</ele>
        <time>2025-09-10T14:10:41Z</time>
      </trkpt>
      <trkpt lat="45.86941" lon="4.53192">
        <ele>367.2</ele>
        <time>2025-09-10T14:10:42Z</time>
      </trkpt>
      <trkpt lat="45.86942" lon="4.53186">
        <ele>367</ele>
        <time>2025-09-10T14:10:43Z</time>
      </trkpt>
      <trkpt lat="45.86944" lon="4.53179">
        <ele>367</ele>
        <time>2025-09-10T14:10:44Z</time>
      </trkpt>
      <trkpt lat="45.86946" lon="4.53173">
        <ele>366.4</ele>
        <time>2025-09-10T14:10:45Z</time>
      </trkpt>
      <trkpt lat="45.86946" lon="4.53167">
        <ele>366.4</ele>
        <time>2025-09-10T14:10:46Z</time>
      </trkpt>
      <trkpt lat="45.86948" lon="4.53161">
        <ele>366.2</ele>
        <time>2025-09-10T14:10:47Z</time>
      </trkpt>
      <trkpt lat="45.8695" lon="4.53157">
        <ele>366.2</ele>
        <time>2025-09-10T14:10:48Z</time>
      </trkpt>
      <trkpt lat="45.8695" lon="4.53149">
        <ele>366.2</ele>
        <time>2025-09-10T14:10:49Z</time>
      </trkpt>
      <trkpt lat="45.86952" lon="4.53143">
        <ele>366.2</ele>
        <time>2025-09-10T14:10:50Z</time>
      </trkpt>
      <trkpt lat="45.86953" lon="4.53135">
        <ele>366</ele>
        <time>2025-09-10T14:10:51Z</time>
      </trkpt>
      <trkpt lat="45.86954" lon="4.53128">
        <ele>366</ele>
        <time>2025-09-10T14:10:52Z</time>
      </trkpt>
      <trkpt lat="45.86955" lon="4.5312">
        <ele>366</ele>
        <time>2025-09-10T14:10:53Z</time>
      </trkpt>
      <trkpt lat="45.86958" lon="4.53114">
        <ele>365.8</ele>
        <time>2025-09-10T14:10:54Z</time>
      </trkpt>
      <trkpt lat="45.86959" lon="4.53106">
        <ele>365.8</ele>
        <time>2025-09-10T14:10:55Z</time>
      </trkpt>
      <trkpt lat="45.8696" lon="4.53098">
        <ele>365.8</ele>
        <time>2025-09-10T14:10:56Z</time>
      </trkpt>
      <trkpt lat="45.86962" lon="4.5309">
        <ele>365.4</ele>
        <time>2025-09-10T14:10:57Z</time>
      </trkpt>
      <trkpt lat="45.86962" lon="4.53081">
        <ele>365</ele>
        <time>2025-09-10T14:10:58Z</time>
      </trkpt>
      <trkpt lat="45.86964" lon="4.53071">
        <ele>364.6</ele>
        <time>2025-09-10T14:10:59Z</time>
      </trkpt>
      <trkpt lat="45.86965" lon="4.53062">
        <ele>364.4</ele>
        <time>2025-09-10T14:11:00Z</time>
      </trkpt>
      <trkpt lat="45.86967" lon="4.53053">
        <ele>364.2</ele>
        <time>2025-09-10T14:11:01Z</time>
      </trkpt>
      <trkpt lat="45.86968" lon="4.53043">
        <ele>363.6</ele>
        <time>2025-09-10T14:11:02Z</time>
      </trkpt>
      <trkpt lat="45.86969" lon="4.53033">
        <ele>363.2</ele>
        <time>2025-09-10T14:11:03Z</time>
      </trkpt>
      <trkpt lat="45.86971" lon="4.53022">
        <ele>363</ele>
        <time>2025-09-10T14:11:04Z</time>
      </trkpt>
      <trkpt lat="45.86973" lon="4.53012">
        <ele>362.6</ele>
        <time>2025-09-10T14:11:05Z</time>
      </trkpt>
      <trkpt lat="45.86975" lon="4.53004">
        <ele>362.6</ele>
        <time>2025-09-10T14:11:06Z</time>
      </trkpt>
      <trkpt lat="45.86977" lon="4.52995">
        <ele>362.6</ele>
        <time>2025-09-10T14:11:07Z</time>
      </trkpt>
      <trkpt lat="45.86979" lon="4.52985">
        <ele>362.6</ele>
        <time>2025-09-10T14:11:08Z</time>
      </trkpt>
      <trkpt lat="45.8698" lon="4.52976">
        <ele>362.4</ele>
        <time>2025-09-10T14:11:09Z</time>
      </trkpt>
      <trkpt lat="45.86981" lon="4.52968">
        <ele>362.4</ele>
        <time>2025-09-10T14:11:10Z</time>
      </trkpt>
      <trkpt lat="45.86982" lon="4.52959">
        <ele>362.4</ele>
        <time>2025-09-10T14:11:11Z</time>
      </trkpt>
      <trkpt lat="45.86984" lon="4.5295">
        <ele>362.4</ele>
        <time>2025-09-10T14:11:12Z</time>
      </trkpt>
      <trkpt lat="45.86986" lon="4.52942">
        <ele>362.4</ele>
        <time>2025-09-10T14:11:13Z</time>
      </trkpt>
      <trkpt lat="45.86987" lon="4.52934">
        <ele>362.4</ele>
        <time>2025-09-10T14:11:14Z</time>
      </trkpt>
      <trkpt lat="45.86988" lon="4.52926">
        <ele>362.4</ele>
        <time>2025-09-10T14:11:15Z</time>
      </trkpt>
      <trkpt lat="45.8699" lon="4.52919">
        <ele>362.4</ele>
        <time>2025-09-10T14:11:16Z</time>
      </trkpt>
      <trkpt lat="45.86991" lon="4.52911">
        <ele>362.4</ele>
        <time>2025-09-10T14:11:17Z</time>
      </trkpt>
      <trkpt lat="45.86992" lon="4.52904">
        <ele>362.2</ele>
        <time>2025-09-10T14:11:18Z</time>
      </trkpt>
      <trkpt lat="45.86994" lon="4.52896">
        <ele>362.2</ele>
        <time>2025-09-10T14:11:19Z</time>
      </trkpt>
      <trkpt lat="45.86995" lon="4.5289">
        <ele>362.2</ele>
        <time>2025-09-10T14:11:20Z</time>
      </trkpt>
      <trkpt lat="45.86996" lon="4.52883">
        <ele>362.2</ele>
        <time>2025-09-10T14:11:21Z</time>
      </trkpt>
      <trkpt lat="45.86997" lon="4.52876">
        <ele>362.2</ele>
        <time>2025-09-10T14:11:22Z</time>
      </trkpt>
      <trkpt lat="45.86997" lon="4.5287">
        <ele>362.4</ele>
        <time>2025-09-10T14:11:23Z</time>
      </trkpt>
      <trkpt lat="45.86997" lon="4.52864">
        <ele>362.4</ele>
        <time>2025-09-10T14:11:24Z</time>
      </trkpt>
      <trkpt lat="45.86996" lon="4.52858">
        <ele>362.4</ele>
        <time>2025-09-10T14:11:25Z</time>
      </trkpt>
      <trkpt lat="45.86993" lon="4.52855">
        <ele>362.4</ele>
        <time>2025-09-10T14:11:26Z</time>
      </trkpt>
      <trkpt lat="45.86991" lon="4.52852">
        <ele>362.8</ele>
        <time>2025-09-10T14:11:27Z</time>
      </trkpt>
      <trkpt lat="45.86988" lon="4.52848">
        <ele>362.8</ele>
        <time>2025-09-10T14:11:28Z</time>
      </trkpt>
      <trkpt lat="45.86984" lon="4.52847">
        <ele>363.2</ele>
        <time>2025-09-10T14:11:29Z</time>
      </trkpt>
      <trkpt lat="45.8698" lon="4.52846">
        <ele>363.2</ele>
        <time>2025-09-10T14:11:30Z</time>
      </trkpt>
      <trkpt lat="45.86977" lon="4.52844">
        <ele>363.2</ele>
        <time>2025-09-10T14:11:31Z</time>
      </trkpt>
      <trkpt lat="45.86974" lon="4.52843">
        <ele>363.2</ele>
        <time>2025-09-10T14:11:32Z</time>
      </trkpt>
      <trkpt lat="45.86971" lon="4.52843">
        <ele>363.6</ele>
        <time>2025-09-10T14:11:33Z</time>
      </trkpt>
      <trkpt lat="45.86968" lon="4.52842">
        <ele>363.6</ele>
        <time>2025-09-10T14:11:34Z</time>
      </trkpt>
      <trkpt lat="45.86966" lon="4.52842">
        <ele>364.2</ele>
        <time>2025-09-10T14:11:35Z</time>
      </trkpt>
      <trkpt lat="45.86964" lon="4.52841">
        <ele>364.2</ele>
        <time>2025-09-10T14:11:36Z</time>
      </trkpt>
      <trkpt lat="45.86962" lon="4.52841">
        <ele>364.6</ele>
        <time>2025-09-10T14:11:37Z</time>
      </trkpt>
      <trkpt lat="45.8696" lon="4.52841">
        <ele>364.8</ele>
        <time>2025-09-10T14:11:38Z</time>
      </trkpt>
      <trkpt lat="45.86959" lon="4.5284">
        <ele>365.2</ele>
        <time>2025-09-10T14:11:39Z</time>
      </trkpt>
      <trkpt lat="45.86957" lon="4.5284">
        <ele>365.4</ele>
        <time>2025-09-10T14:11:40Z</time>
      </trkpt>
      <trkpt lat="45.86955" lon="4.5284">
        <ele>365.4</ele>
        <time>2025-09-10T14:11:41Z</time>
      </trkpt>
      <trkpt lat="45.86953" lon="4.5284">
        <ele>365.8</ele>
        <time>2025-09-10T14:11:42Z</time>
      </trkpt>
      <trkpt lat="45.86952" lon="4.52839">
        <ele>366.2</ele>
        <time>2025-09-10T14:11:43Z</time>
      </trkpt>
      <trkpt lat="45.8695" lon="4.52839">
        <ele>366.2</ele>
        <time>2025-09-10T14:11:44Z</time>
      </trkpt>
      <trkpt lat="45.86949" lon="4.52838">
        <ele>366.6</ele>
        <time>2025-09-10T14:11:45Z</time>
      </trkpt>
      <trkpt lat="45.86948" lon="4.52837">
        <ele>366.8</ele>
        <time>2025-09-10T14:11:46Z</time>
      </trkpt>
      <trkpt lat="45.86947" lon="4.52837">
        <ele>366.8</ele>
        <time>2025-09-10T14:11:47Z</time>
      </trkpt>
      <trkpt lat="45.86945" lon="4.52837">
        <ele>367.2</ele>
        <time>2025-09-10T14:11:48Z</time>
      </trkpt>
      <trkpt lat="45.86945" lon="4.52836">
        <ele>367.4</ele>
        <time>2025-09-10T14:11:49Z</time>
      </trkpt>
      <trkpt lat="45.86942" lon="4.52835">
        <ele>367.6</ele>
        <time>2025-09-10T14:11:50Z</time>
      </trkpt>
      <trkpt lat="45.86941" lon="4.52835">
        <ele>368</ele>
        <time>2025-09-10T14:11:51Z</time>
      </trkpt>
      <trkpt lat="45.8694" lon="4.52834">
        <ele>368</ele>
        <time>2025-09-10T14:11:52Z</time>
      </trkpt>
      <trkpt lat="45.86939" lon="4.52834">
        <ele>368.4</ele>
        <time>2025-09-10T14:11:53Z</time>
      </trkpt>
      <trkpt lat="45.86937" lon="4.52834">
        <ele>368.6</ele>
        <time>2025-09-10T14:11:54Z</time>
      </trkpt>
      <trkpt lat="45.86936" lon="4.52833">
        <ele>368.6</ele>
        <time>2025-09-10T14:11:55Z</time>
      </trkpt>
      <trkpt lat="45.86935" lon="4.52832">
        <ele>369</ele>
        <time>2025-09-10T14:11:56Z</time>
      </trkpt>
      <trkpt lat="45.86933" lon="4.52832">
        <ele>369</ele>
        <time>2025-09-10T14:11:57Z</time>
      </trkpt>
      <trkpt lat="45.86932" lon="4.52831">
        <ele>369.2</ele>
        <time>2025-09-10T14:11:58Z</time>
      </trkpt>
      <trkpt lat="45.8693" lon="4.52831">
        <ele>369.2</ele>
        <time>2025-09-10T14:11:59Z</time>
      </trkpt>
      <trkpt lat="45.86929" lon="4.52831">
        <ele>369.2</ele>
        <time>2025-09-10T14:12:00Z</time>
      </trkpt>
      <trkpt lat="45.86927" lon="4.52832">
        <ele>369.2</ele>
        <time>2025-09-10T14:12:01Z</time>
      </trkpt>
      <trkpt lat="45.86926" lon="4.52832">
        <ele>369.4</ele>
        <time>2025-09-10T14:12:02Z</time>
      </trkpt>
      <trkpt lat="45.86926" lon="4.52832">
        <ele>369.4</ele>
        <time>2025-09-10T14:12:03Z</time>
      </trkpt>
      <trkpt lat="45.86924" lon="4.52831">
        <ele>369.6</ele>
        <time>2025-09-10T14:12:04Z</time>
      </trkpt>
      <trkpt lat="45.86922" lon="4.5283">
        <ele>369.6</ele>
        <time>2025-09-10T14:12:05Z</time>
      </trkpt>
      <trkpt lat="45.86921" lon="4.52829">
        <ele>369.6</ele>
        <time>2025-09-10T14:12:06Z</time>
      </trkpt>
      <trkpt lat="45.86919" lon="4.52829">
        <ele>370</ele>
        <time>2025-09-10T14:12:07Z</time>
      </trkpt>
      <trkpt lat="45.86918" lon="4.52829">
        <ele>370</ele>
        <time>2025-09-10T14:12:08Z</time>
      </trkpt>
      <trkpt lat="45.86917" lon="4.52828">
        <ele>370</ele>
        <time>2025-09-10T14:12:09Z</time>
      </trkpt>
      <trkpt lat="45.86916" lon="4.52828">
        <ele>370</ele>
        <time>2025-09-10T14:12:10Z</time>
      </trkpt>
      <trkpt lat="45.86914" lon="4.52827">
        <ele>370.4</ele>
        <time>2025-09-10T14:12:11Z</time>
      </trkpt>
      <trkpt lat="45.86913" lon="4.52826">
        <ele>370.4</ele>
        <time>2025-09-10T14:12:12Z</time>
      </trkpt>
      <trkpt lat="45.86912" lon="4.52825">
        <ele>370.4</ele>
        <time>2025-09-10T14:12:13Z</time>
      </trkpt>
      <trkpt lat="45.8691" lon="4.52823">
        <ele>370.4</ele>
        <time>2025-09-10T14:12:14Z</time>
      </trkpt>
      <trkpt lat="45.86909" lon="4.52822">
        <ele>370.6</ele>
        <time>2025-09-10T14:12:15Z</time>
      </trkpt>
      <trkpt lat="45.86908" lon="4.5282">
        <ele>370.6</ele>
        <time>2025-09-10T14:12:16Z</time>
      </trkpt>
      <trkpt lat="45.86907" lon="4.52817">
        <ele>370.6</ele>
        <time>2025-09-10T14:12:17Z</time>
      </trkpt>
      <trkpt lat="45.86907" lon="4.52815">
        <ele>370.6</ele>
        <time>2025-09-10T14:12:18Z</time>
      </trkpt>
      <trkpt lat="45.86907" lon="4.52813">
        <ele>370.6</ele>
        <time>2025-09-10T14:12:19Z</time>
      </trkpt>
      <trkpt lat="45.86907" lon="4.52811">
        <ele>370.6</ele>
        <time>2025-09-10T14:12:20Z</time>
      </trkpt>
      <trkpt lat="45.86907" lon="4.52808">
        <ele>370.6</ele>
        <time>2025-09-10T14:12:21Z</time>
      </trkpt>
      <trkpt lat="45.86908" lon="4.52804">
        <ele>370.8</ele>
        <time>2025-09-10T14:12:22Z</time>
      </trkpt>
      <trkpt lat="45.86908" lon="4.52801">
        <ele>370.8</ele>
        <time>2025-09-10T14:12:23Z</time>
      </trkpt>
      <trkpt lat="45.86909" lon="4.52797">
        <ele>370.8</ele>
        <time>2025-09-10T14:12:24Z</time>
      </trkpt>
      <trkpt lat="45.86911" lon="4.52792">
        <ele>370.6</ele>
        <time>2025-09-10T14:12:25Z</time>
      </trkpt>
      <trkpt lat="45.86913" lon="4.52787">
        <ele>370.4</ele>
        <time>2025-09-10T14:12:26Z</time>
      </trkpt>
      <trkpt lat="45.86916" lon="4.52782">
        <ele>370.4</ele>
        <time>2025-09-10T14:12:27Z</time>
      </trkpt>
      <trkpt lat="45.86917" lon="4.52775">
        <ele>370.4</ele>
        <time>2025-09-10T14:12:28Z</time>
      </trkpt>
      <trkpt lat="45.8692" lon="4.52769">
        <ele>369.8</ele>
        <time>2025-09-10T14:12:29Z</time>
      </trkpt>
      <trkpt lat="45.86922" lon="4.52761">
        <ele>369.6</ele>
        <time>2025-09-10T14:12:30Z</time>
      </trkpt>
      <trkpt lat="45.86924" lon="4.52754">
        <ele>369.4</ele>
        <time>2025-09-10T14:12:31Z</time>
      </trkpt>
      <trkpt lat="45.86927" lon="4.52745">
        <ele>369.4</ele>
        <time>2025-09-10T14:12:32Z</time>
      </trkpt>
      <trkpt lat="45.86929" lon="4.52739">
        <ele>368.8</ele>
        <time>2025-09-10T14:12:33Z</time>
      </trkpt>
      <trkpt lat="45.86931" lon="4.52728">
        <ele>368.6</ele>
        <time>2025-09-10T14:12:34Z</time>
      </trkpt>
      <trkpt lat="45.86933" lon="4.5272">
        <ele>368.2</ele>
        <time>2025-09-10T14:12:35Z</time>
      </trkpt>
      <trkpt lat="45.86938" lon="4.5271">
        <ele>367.6</ele>
        <time>2025-09-10T14:12:36Z</time>
      </trkpt>
      <trkpt lat="45.8694" lon="4.527">
        <ele>367.2</ele>
        <time>2025-09-10T14:12:37Z</time>
      </trkpt>
      <trkpt lat="45.86943" lon="4.5269">
        <ele>366.8</ele>
        <time>2025-09-10T14:12:38Z</time>
      </trkpt>
      <trkpt lat="45.86947" lon="4.52679">
        <ele>366.8</ele>
        <time>2025-09-10T14:12:39Z</time>
      </trkpt>
      <trkpt lat="45.8695" lon="4.52668">
        <ele>366.2</ele>
        <time>2025-09-10T14:12:40Z</time>
      </trkpt>
      <trkpt lat="45.86954" lon="4.52657">
        <ele>365.8</ele>
        <time>2025-09-10T14:12:41Z</time>
      </trkpt>
      <trkpt lat="45.86957" lon="4.52646">
        <ele>365.4</ele>
        <time>2025-09-10T14:12:42Z</time>
      </trkpt>
      <trkpt lat="45.8696" lon="4.52635">
        <ele>364.8</ele>
        <time>2025-09-10T14:12:43Z</time>
      </trkpt>
      <trkpt lat="45.86964" lon="4.52624">
        <ele>364.8</ele>
        <time>2025-09-10T14:12:44Z</time>
      </trkpt>
      <trkpt lat="45.86967" lon="4.52614">
        <ele>364.8</ele>
        <time>2025-09-10T14:12:45Z</time>
      </trkpt>
      <trkpt lat="45.86971" lon="4.52605">
        <ele>364.4</ele>
        <time>2025-09-10T14:12:46Z</time>
      </trkpt>
      <trkpt lat="45.86975" lon="4.52596">
        <ele>364.4</ele>
        <time>2025-09-10T14:12:47Z</time>
      </trkpt>
      <trkpt lat="45.86978" lon="4.52588">
        <ele>364.4</ele>
        <time>2025-09-10T14:12:48Z</time>
      </trkpt>
      <trkpt lat="45.86981" lon="4.52581">
        <ele>364.4</ele>
        <time>2025-09-10T14:12:49Z</time>
      </trkpt>
      <trkpt lat="45.86983" lon="4.52574">
        <ele>364.8</ele>
        <time>2025-09-10T14:12:50Z</time>
      </trkpt>
      <trkpt lat="45.86986" lon="4.52571">
        <ele>365.2</ele>
        <time>2025-09-10T14:12:51Z</time>
      </trkpt>
      <trkpt lat="45.86989" lon="4.52566">
        <ele>365.6</ele>
        <time>2025-09-10T14:12:52Z</time>
      </trkpt>
      <trkpt lat="45.86991" lon="4.52562">
        <ele>365.6</ele>
        <time>2025-09-10T14:12:53Z</time>
      </trkpt>
      <trkpt lat="45.86992" lon="4.52558">
        <ele>366.2</ele>
        <time>2025-09-10T14:12:54Z</time>
      </trkpt>
      <trkpt lat="45.86994" lon="4.52554">
        <ele>366.2</ele>
        <time>2025-09-10T14:12:55Z</time>
      </trkpt>
      <trkpt lat="45.86995" lon="4.52551">
        <ele>366.6</ele>
        <time>2025-09-10T14:12:56Z</time>
      </trkpt>
      <trkpt lat="45.86997" lon="4.52547">
        <ele>366.8</ele>
        <time>2025-09-10T14:12:57Z</time>
      </trkpt>
      <trkpt lat="45.86999" lon="4.52544">
        <ele>366.8</ele>
        <time>2025-09-10T14:12:58Z</time>
      </trkpt>
      <trkpt lat="45.87" lon="4.5254">
        <ele>367.4</ele>
        <time>2025-09-10T14:12:59Z</time>
      </trkpt>
      <trkpt lat="45.87001" lon="4.52537">
        <ele>367.4</ele>
        <time>2025-09-10T14:13:00Z</time>
      </trkpt>
      <trkpt lat="45.87003" lon="4.52534">
        <ele>367.6</ele>
        <time>2025-09-10T14:13:01Z</time>
      </trkpt>
      <trkpt lat="45.87004" lon="4.5253">
        <ele>367.6</ele>
        <time>2025-09-10T14:13:02Z</time>
      </trkpt>
      <trkpt lat="45.87005" lon="4.52527">
        <ele>367.6</ele>
        <time>2025-09-10T14:13:03Z</time>
      </trkpt>
      <trkpt lat="45.87007" lon="4.52523">
        <ele>367.8</ele>
        <time>2025-09-10T14:13:04Z</time>
      </trkpt>
      <trkpt lat="45.87008" lon="4.5252">
        <ele>367.8</ele>
        <time>2025-09-10T14:13:05Z</time>
      </trkpt>
      <trkpt lat="45.8701" lon="4.52516">
        <ele>368</ele>
        <time>2025-09-10T14:13:06Z</time>
      </trkpt>
      <trkpt lat="45.87011" lon="4.52513">
        <ele>368.2</ele>
        <time>2025-09-10T14:13:07Z</time>
      </trkpt>
      <trkpt lat="45.87013" lon="4.52509">
        <ele>368.4</ele>
        <time>2025-09-10T14:13:08Z</time>
      </trkpt>
      <trkpt lat="45.87014" lon="4.52505">
        <ele>368.4</ele>
        <time>2025-09-10T14:13:09Z</time>
      </trkpt>
      <trkpt lat="45.87016" lon="4.52502">
        <ele>368.4</ele>
        <time>2025-09-10T14:13:10Z</time>
      </trkpt>
      <trkpt lat="45.87017" lon="4.52498">
        <ele>368.4</ele>
        <time>2025-09-10T14:13:11Z</time>
      </trkpt>
      <trkpt lat="45.87018" lon="4.52495">
        <ele>368.4</ele>
        <time>2025-09-10T14:13:12Z</time>
      </trkpt>
      <trkpt lat="45.87019" lon="4.52491">
        <ele>368.4</ele>
        <time>2025-09-10T14:13:13Z</time>
      </trkpt>
      <trkpt lat="45.87021" lon="4.52487">
        <ele>368.8</ele>
        <time>2025-09-10T14:13:14Z</time>
      </trkpt>
      <trkpt lat="45.87022" lon="4.52484">
        <ele>369</ele>
        <time>2025-09-10T14:13:15Z</time>
      </trkpt>
      <trkpt lat="45.87024" lon="4.52481">
        <ele>369</ele>
        <time>2025-09-10T14:13:16Z</time>
      </trkpt>
      <trkpt lat="45.87025" lon="4.52477">
        <ele>369</ele>
        <time>2025-09-10T14:13:17Z</time>
      </trkpt>
      <trkpt lat="45.87026" lon="4.52473">
        <ele>369.2</ele>
        <time>2025-09-10T14:13:18Z</time>
      </trkpt>
      <trkpt lat="45.87027" lon="4.5247">
        <ele>369.2</ele>
        <time>2025-09-10T14:13:19Z</time>
      </trkpt>
      <trkpt lat="45.87029" lon="4.52466">
        <ele>369.2</ele>
        <time>2025-09-10T14:13:20Z</time>
      </trkpt>
      <trkpt lat="45.8703" lon="4.52462">
        <ele>369.2</ele>
        <time>2025-09-10T14:13:21Z</time>
      </trkpt>
      <trkpt lat="45.87031" lon="4.52458">
        <ele>369.2</ele>
        <time>2025-09-10T14:13:22Z</time>
      </trkpt>
      <trkpt lat="45.87033" lon="4.52455">
        <ele>369.4</ele>
        <time>2025-09-10T14:13:23Z</time>
      </trkpt>
      <trkpt lat="45.87034" lon="4.52451">
        <ele>369.4</ele>
        <time>2025-09-10T14:13:24Z</time>
      </trkpt>
      <trkpt lat="45.87035" lon="4.52447">
        <ele>369.4</ele>
        <time>2025-09-10T14:13:25Z</time>
      </trkpt>
      <trkpt lat="45.87036" lon="4.52443">
        <ele>369.4</ele>
        <time>2025-09-10T14:13:26Z</time>
      </trkpt>
      <trkpt lat="45.87037" lon="4.52439">
        <ele>369.4</ele>
        <time>2025-09-10T14:13:27Z</time>
      </trkpt>
      <trkpt lat="45.87038" lon="4.52436">
        <ele>369.4</ele>
        <time>2025-09-10T14:13:28Z</time>
      </trkpt>
      <trkpt lat="45.8704" lon="4.52432">
        <ele>369.4</ele>
        <time>2025-09-10T14:13:29Z</time>
      </trkpt>
      <trkpt lat="45.87041" lon="4.52428">
        <ele>369.8</ele>
        <time>2025-09-10T14:13:30Z</time>
      </trkpt>
      <trkpt lat="45.87043" lon="4.52424">
        <ele>369.8</ele>
        <time>2025-09-10T14:13:31Z</time>
      </trkpt>
      <trkpt lat="45.87044" lon="4.52419">
        <ele>369.8</ele>
        <time>2025-09-10T14:13:32Z</time>
      </trkpt>
      <trkpt lat="45.87045" lon="4.52415">
        <ele>369.8</ele>
        <time>2025-09-10T14:13:33Z</time>
      </trkpt>
      <trkpt lat="45.87047" lon="4.5241">
        <ele>369.8</ele>
        <time>2025-09-10T14:13:34Z</time>
      </trkpt>
      <trkpt lat="45.87048" lon="4.52406">
        <ele>369.8</ele>
        <time>2025-09-10T14:13:35Z</time>
      </trkpt>
      <trkpt lat="45.87049" lon="4.52402">
        <ele>369.8</ele>
        <time>2025-09-10T14:13:36Z</time>
      </trkpt>
      <trkpt lat="45.8705" lon="4.52398">
        <ele>369.6</ele>
        <time>2025-09-10T14:13:37Z</time>
      </trkpt>
      <trkpt lat="45.87052" lon="4.52393">
        <ele>369.6</ele>
        <time>2025-09-10T14:13:38Z</time>
      </trkpt>
      <trkpt lat="45.87053" lon="4.52389">
        <ele>369.6</ele>
        <time>2025-09-10T14:13:39Z</time>
      </trkpt>
      <trkpt lat="45.87055" lon="4.52384">
        <ele>369.6</ele>
        <time>2025-09-10T14:13:40Z</time>
      </trkpt>
      <trkpt lat="45.87056" lon="4.5238">
        <ele>369.6</ele>
        <time>2025-09-10T14:13:41Z</time>
      </trkpt>
      <trkpt lat="45.87057" lon="4.52375">
        <ele>369.6</ele>
        <time>2025-09-10T14:13:42Z</time>
      </trkpt>
      <trkpt lat="45.87059" lon="4.5237">
        <ele>369.6</ele>
        <time>2025-09-10T14:13:43Z</time>
      </trkpt>
      <trkpt lat="45.8706" lon="4.52366">
        <ele>369.6</ele>
        <time>2025-09-10T14:13:44Z</time>
      </trkpt>
      <trkpt lat="45.87061" lon="4.52362">
        <ele>369.6</ele>
        <time>2025-09-10T14:13:45Z</time>
      </trkpt>
      <trkpt lat="45.87062" lon="4.52357">
        <ele>369.6</ele>
        <time>2025-09-10T14:13:46Z</time>
      </trkpt>
      <trkpt lat="45.87063" lon="4.52353">
        <ele>369.6</ele>
        <time>2025-09-10T14:13:47Z</time>
      </trkpt>
      <trkpt lat="45.87064" lon="4.52349">
        <ele>369.6</ele>
        <time>2025-09-10T14:13:48Z</time>
      </trkpt>
      <trkpt lat="45.87065" lon="4.52344">
        <ele>369.6</ele>
        <time>2025-09-10T14:13:49Z</time>
      </trkpt>
      <trkpt lat="45.87066" lon="4.52339">
        <ele>369.6</ele>
        <time>2025-09-10T14:13:50Z</time>
      </trkpt>
      <trkpt lat="45.87067" lon="4.52334">
        <ele>369.6</ele>
        <time>2025-09-10T14:13:51Z</time>
      </trkpt>
      <trkpt lat="45.87068" lon="4.5233">
        <ele>369.6</ele>
        <time>2025-09-10T14:13:52Z</time>
      </trkpt>
      <trkpt lat="45.87068" lon="4.52325">
        <ele>369.2</ele>
        <time>2025-09-10T14:13:53Z</time>
      </trkpt>
      <trkpt lat="45.87069" lon="4.5232">
        <ele>369.4</ele>
        <time>2025-09-10T14:13:54Z</time>
      </trkpt>
      <trkpt lat="45.87069" lon="4.52316">
        <ele>369.4</ele>
        <time>2025-09-10T14:13:55Z</time>
      </trkpt>
      <trkpt lat="45.8707" lon="4.52312">
        <ele>369.2</ele>
        <time>2025-09-10T14:13:56Z</time>
      </trkpt>
      <trkpt lat="45.87072" lon="4.52308">
        <ele>369.2</ele>
        <time>2025-09-10T14:13:57Z</time>
      </trkpt>
      <trkpt lat="45.87073" lon="4.52303">
        <ele>369.6</ele>
        <time>2025-09-10T14:13:58Z</time>
      </trkpt>
      <trkpt lat="45.87074" lon="4.52299">
        <ele>369.6</ele>
        <time>2025-09-10T14:13:59Z</time>
      </trkpt>
      <trkpt lat="45.87075" lon="4.52295">
        <ele>369.6</ele>
        <time>2025-09-10T14:14:00Z</time>
      </trkpt>
      <trkpt lat="45.87075" lon="4.52291">
        <ele>369.4</ele>
        <time>2025-09-10T14:14:01Z</time>
      </trkpt>
      <trkpt lat="45.87075" lon="4.52286">
        <ele>369.4</ele>
        <time>2025-09-10T14:14:02Z</time>
      </trkpt>
      <trkpt lat="45.87075" lon="4.52282">
        <ele>369.2</ele>
        <time>2025-09-10T14:14:03Z</time>
      </trkpt>
      <trkpt lat="45.87075" lon="4.52277">
        <ele>369.2</ele>
        <time>2025-09-10T14:14:04Z</time>
      </trkpt>
      <trkpt lat="45.87076" lon="4.52272">
        <ele>369.2</ele>
        <time>2025-09-10T14:14:05Z</time>
      </trkpt>
      <trkpt lat="45.87076" lon="4.52267">
        <ele>369.2</ele>
        <time>2025-09-10T14:14:06Z</time>
      </trkpt>
      <trkpt lat="45.87077" lon="4.52263">
        <ele>369.2</ele>
        <time>2025-09-10T14:14:07Z</time>
      </trkpt>
      <trkpt lat="45.87077" lon="4.52258">
        <ele>369.2</ele>
        <time>2025-09-10T14:14:08Z</time>
      </trkpt>
      <trkpt lat="45.87078" lon="4.52253">
        <ele>369.4</ele>
        <time>2025-09-10T14:14:09Z</time>
      </trkpt>
      <trkpt lat="45.87079" lon="4.52248">
        <ele>369.4</ele>
        <time>2025-09-10T14:14:10Z</time>
      </trkpt>
      <trkpt lat="45.87079" lon="4.52243">
        <ele>369.4</ele>
        <time>2025-09-10T14:14:11Z</time>
      </trkpt>
      <trkpt lat="45.8708" lon="4.52239">
        <ele>369.4</ele>
        <time>2025-09-10T14:14:12Z</time>
      </trkpt>
      <trkpt lat="45.8708" lon="4.52234">
        <ele>369.4</ele>
        <time>2025-09-10T14:14:13Z</time>
      </trkpt>
      <trkpt lat="45.87081" lon="4.52229">
        <ele>369.4</ele>
        <time>2025-09-10T14:14:14Z</time>
      </trkpt>
      <trkpt lat="45.87082" lon="4.52224">
        <ele>369.4</ele>
        <time>2025-09-10T14:14:15Z</time>
      </trkpt>
      <trkpt lat="45.87083" lon="4.5222">
        <ele>369.4</ele>
        <time>2025-09-10T14:14:16Z</time>
      </trkpt>
      <trkpt lat="45.87084" lon="4.52215">
        <ele>369.4</ele>
        <time>2025-09-10T14:14:17Z</time>
      </trkpt>
      <trkpt lat="45.87085" lon="4.5221">
        <ele>369.6</ele>
        <time>2025-09-10T14:14:18Z</time>
      </trkpt>
      <trkpt lat="45.87085" lon="4.52205">
        <ele>369.6</ele>
        <time>2025-09-10T14:14:19Z</time>
      </trkpt>
      <trkpt lat="45.87086" lon="4.522">
        <ele>369.8</ele>
        <time>2025-09-10T14:14:20Z</time>
      </trkpt>
      <trkpt lat="45.87086" lon="4.52195">
        <ele>369.8</ele>
        <time>2025-09-10T14:14:21Z</time>
      </trkpt>
      <trkpt lat="45.87087" lon="4.5219">
        <ele>369.8</ele>
        <time>2025-09-10T14:14:22Z</time>
      </trkpt>
      <trkpt lat="45.87087" lon="4.52185">
        <ele>369.8</ele>
        <time>2025-09-10T14:14:23Z</time>
      </trkpt>
      <trkpt lat="45.87088" lon="4.5218">
        <ele>369.8</ele>
        <time>2025-09-10T14:14:24Z</time>
      </trkpt>
      <trkpt lat="45.87088" lon="4.52175">
        <ele>369.8</ele>
        <time>2025-09-10T14:14:25Z</time>
      </trkpt>
      <trkpt lat="45.87089" lon="4.5217">
        <ele>369.8</ele>
        <time>2025-09-10T14:14:26Z</time>
      </trkpt>
      <trkpt lat="45.87089" lon="4.52165">
        <ele>369.8</ele>
        <time>2025-09-10T14:14:27Z</time>
      </trkpt>
      <trkpt lat="45.8709" lon="4.5216">
        <ele>369.8</ele>
        <time>2025-09-10T14:14:28Z</time>
      </trkpt>
      <trkpt lat="45.8709" lon="4.52155">
        <ele>370</ele>
        <time>2025-09-10T14:14:29Z</time>
      </trkpt>
      <trkpt lat="45.87091" lon="4.5215">
        <ele>370</ele>
        <time>2025-09-10T14:14:30Z</time>
      </trkpt>
      <trkpt lat="45.87092" lon="4.52145">
        <ele>370</ele>
        <time>2025-09-10T14:14:31Z</time>
      </trkpt>
      <trkpt lat="45.87092" lon="4.52141">
        <ele>370</ele>
        <time>2025-09-10T14:14:32Z</time>
      </trkpt>
      <trkpt lat="45.87093" lon="4.52136">
        <ele>370</ele>
        <time>2025-09-10T14:14:33Z</time>
      </trkpt>
      <trkpt lat="45.87094" lon="4.52132">
        <ele>370</ele>
        <time>2025-09-10T14:14:34Z</time>
      </trkpt>
      <trkpt lat="45.87094" lon="4.52127">
        <ele>370.6</ele>
        <time>2025-09-10T14:14:35Z</time>
      </trkpt>
      <trkpt lat="45.87095" lon="4.52122">
        <ele>370.6</ele>
        <time>2025-09-10T14:14:36Z</time>
      </trkpt>
      <trkpt lat="45.87095" lon="4.52118">
        <ele>370.6</ele>
        <time>2025-09-10T14:14:37Z</time>
      </trkpt>
      <trkpt lat="45.87096" lon="4.52113">
        <ele>370.6</ele>
        <time>2025-09-10T14:14:38Z</time>
      </trkpt>
      <trkpt lat="45.87096" lon="4.52109">
        <ele>370.8</ele>
        <time>2025-09-10T14:14:39Z</time>
      </trkpt>
      <trkpt lat="45.87096" lon="4.52104">
        <ele>370.8</ele>
        <time>2025-09-10T14:14:40Z</time>
      </trkpt>
      <trkpt lat="45.87096" lon="4.52099">
        <ele>370.8</ele>
        <time>2025-09-10T14:14:41Z</time>
      </trkpt>
      <trkpt lat="45.87097" lon="4.52095">
        <ele>370.8</ele>
        <time>2025-09-10T14:14:42Z</time>
      </trkpt>
      <trkpt lat="45.87097" lon="4.5209">
        <ele>370.8</ele>
        <time>2025-09-10T14:14:43Z</time>
      </trkpt>
      <trkpt lat="45.87097" lon="4.52086">
        <ele>370.8</ele>
        <time>2025-09-10T14:14:44Z</time>
      </trkpt>
      <trkpt lat="45.87098" lon="4.52081">
        <ele>370.8</ele>
        <time>2025-09-10T14:14:45Z</time>
      </trkpt>
      <trkpt lat="45.87098" lon="4.52077">
        <ele>370.8</ele>
        <time>2025-09-10T14:14:46Z</time>
      </trkpt>
      <trkpt lat="45.87099" lon="4.52072">
        <ele>370.8</ele>
        <time>2025-09-10T14:14:47Z</time>
      </trkpt>
      <trkpt lat="45.871" lon="4.52068">
        <ele>370.8</ele>
        <time>2025-09-10T14:14:48Z</time>
      </trkpt>
      <trkpt lat="45.871" lon="4.52064">
        <ele>371.2</ele>
        <time>2025-09-10T14:14:49Z</time>
      </trkpt>
      <trkpt lat="45.87101" lon="4.5206">
        <ele>371.2</ele>
        <time>2025-09-10T14:14:50Z</time>
      </trkpt>
      <trkpt lat="45.87101" lon="4.52056">
        <ele>371.2</ele>
        <time>2025-09-10T14:14:51Z</time>
      </trkpt>
      <trkpt lat="45.87102" lon="4.52052">
        <ele>371.2</ele>
        <time>2025-09-10T14:14:52Z</time>
      </trkpt>
      <trkpt lat="45.87102" lon="4.52049">
        <ele>371.6</ele>
        <time>2025-09-10T14:14:53Z</time>
      </trkpt>
      <trkpt lat="45.87102" lon="4.52046">
        <ele>371.6</ele>
        <time>2025-09-10T14:14:54Z</time>
      </trkpt>
      <trkpt lat="45.87102" lon="4.52043">
        <ele>371.6</ele>
        <time>2025-09-10T14:14:55Z</time>
      </trkpt>
      <trkpt lat="45.87102" lon="4.5204">
        <ele>371.8</ele>
        <time>2025-09-10T14:14:56Z</time>
      </trkpt>
      <trkpt lat="45.87103" lon="4.52038">
        <ele>371.8</ele>
        <time>2025-09-10T14:14:57Z</time>
      </trkpt>
      <trkpt lat="45.87103" lon="4.52035">
        <ele>372.2</ele>
        <time>2025-09-10T14:14:58Z</time>
      </trkpt>
      <trkpt lat="45.87103" lon="4.52032">
        <ele>372.4</ele>
        <time>2025-09-10T14:14:59Z</time>
      </trkpt>
      <trkpt lat="45.87103" lon="4.52031">
        <ele>372.4</ele>
        <time>2025-09-10T14:15:00Z</time>
      </trkpt>
      <trkpt lat="45.87104" lon="4.52029">
        <ele>372.4</ele>
        <time>2025-09-10T14:15:01Z</time>
      </trkpt>
      <trkpt lat="45.87105" lon="4.52027">
        <ele>372.8</ele>
        <time>2025-09-10T14:15:02Z</time>
      </trkpt>
      <trkpt lat="45.87105" lon="4.52025">
        <ele>372.8</ele>
        <time>2025-09-10T14:15:03Z</time>
      </trkpt>
      <trkpt lat="45.87106" lon="4.52022">
        <ele>372.8</ele>
        <time>2025-09-10T14:15:04Z</time>
      </trkpt>
      <trkpt lat="45.87106" lon="4.52019">
        <ele>373</ele>
        <time>2025-09-10T14:15:05Z</time>
      </trkpt>
      <trkpt lat="45.87106" lon="4.52016">
        <ele>373</ele>
        <time>2025-09-10T14:15:06Z</time>
      </trkpt>
      <trkpt lat="45.87106" lon="4.52013">
        <ele>373</ele>
        <time>2025-09-10T14:15:07Z</time>
      </trkpt>
      <trkpt lat="45.87107" lon="4.5201">
        <ele>373</ele>
        <time>2025-09-10T14:15:08Z</time>
      </trkpt>
      <trkpt lat="45.87107" lon="4.52007">
        <ele>373</ele>
        <time>2025-09-10T14:15:09Z</time>
      </trkpt>
      <trkpt lat="45.87108" lon="4.52003">
        <ele>373</ele>
        <time>2025-09-10T14:15:10Z</time>
      </trkpt>
      <trkpt lat="45.87108" lon="4.51999">
        <ele>373</ele>
        <time>2025-09-10T14:15:11Z</time>
      </trkpt>
      <trkpt lat="45.87109" lon="4.51995">
        <ele>373</ele>
        <time>2025-09-10T14:15:12Z</time>
      </trkpt>
      <trkpt lat="45.8711" lon="4.5199">
        <ele>373</ele>
        <time>2025-09-10T14:15:13Z</time>
      </trkpt>
      <trkpt lat="45.87111" lon="4.51985">
        <ele>373</ele>
        <time>2025-09-10T14:15:14Z</time>
      </trkpt>
      <trkpt lat="45.87111" lon="4.51981">
        <ele>373</ele>
        <time>2025-09-10T14:15:15Z</time>
      </trkpt>
      <trkpt lat="45.87112" lon="4.51976">
        <ele>372.6</ele>
        <time>2025-09-10T14:15:16Z</time>
      </trkpt>
      <trkpt lat="45.87112" lon="4.51971">
        <ele>372.6</ele>
        <time>2025-09-10T14:15:17Z</time>
      </trkpt>
      <trkpt lat="45.87113" lon="4.51966">
        <ele>372.6</ele>
        <time>2025-09-10T14:15:18Z</time>
      </trkpt>
      <trkpt lat="45.87113" lon="4.51961">
        <ele>372.6</ele>
        <time>2025-09-10T14:15:19Z</time>
      </trkpt>
      <trkpt lat="45.87114" lon="4.51955">
        <ele>372.6</ele>
        <time>2025-09-10T14:15:20Z</time>
      </trkpt>
      <trkpt lat="45.87114" lon="4.5195">
        <ele>372.6</ele>
        <time>2025-09-10T14:15:21Z</time>
      </trkpt>
      <trkpt lat="45.87115" lon="4.51944">
        <ele>372.6</ele>
        <time>2025-09-10T14:15:22Z</time>
      </trkpt>
      <trkpt lat="45.87117" lon="4.51933">
        <ele>372.6</ele>
        <time>2025-09-10T14:15:23Z</time>
      </trkpt>
      <trkpt lat="45.87117" lon="4.51927">
        <ele>372.6</ele>
        <time>2025-09-10T14:15:24Z</time>
      </trkpt>
      <trkpt lat="45.87118" lon="4.51921">
        <ele>372.6</ele>
        <time>2025-09-10T14:15:25Z</time>
      </trkpt>
      <trkpt lat="45.87118" lon="4.51915">
        <ele>372.6</ele>
        <time>2025-09-10T14:15:26Z</time>
      </trkpt>
      <trkpt lat="45.87119" lon="4.51909">
        <ele>372.6</ele>
        <time>2025-09-10T14:15:27Z</time>
      </trkpt>
      <trkpt lat="45.87118" lon="4.51903">
        <ele>372.6</ele>
        <time>2025-09-10T14:15:28Z</time>
      </trkpt>
      <trkpt lat="45.87118" lon="4.51896">
        <ele>372.6</ele>
        <time>2025-09-10T14:15:29Z</time>
      </trkpt>
      <trkpt lat="45.87117" lon="4.5189">
        <ele>372.6</ele>
        <time>2025-09-10T14:15:30Z</time>
      </trkpt>
      <trkpt lat="45.87116" lon="4.51884">
        <ele>372.4</ele>
        <time>2025-09-10T14:15:31Z</time>
      </trkpt>
      <trkpt lat="45.87117" lon="4.51878">
        <ele>372.4</ele>
        <time>2025-09-10T14:15:32Z</time>
      </trkpt>
      <trkpt lat="45.87118" lon="4.51872">
        <ele>372.4</ele>
        <time>2025-09-10T14:15:33Z</time>
      </trkpt>
      <trkpt lat="45.87123" lon="4.51868">
        <ele>372.2</ele>
        <time>2025-09-10T14:15:34Z</time>
      </trkpt>
      <trkpt lat="45.87127" lon="4.51866">
        <ele>372.2</ele>
        <time>2025-09-10T14:15:35Z</time>
      </trkpt>
      <trkpt lat="45.87131" lon="4.51865">
        <ele>372.2</ele>
        <time>2025-09-10T14:15:36Z</time>
      </trkpt>
      <trkpt lat="45.87131" lon="4.51865">
        <ele>372</ele>
        <time>2025-09-10T14:15:37Z</time>
      </trkpt>
      <trkpt lat="45.87135" lon="4.51866">
        <ele>372</ele>
        <time>2025-09-10T14:15:38Z</time>
      </trkpt>
      <trkpt lat="45.87139" lon="4.51866">
        <ele>372</ele>
        <time>2025-09-10T14:15:39Z</time>
      </trkpt>
      <trkpt lat="45.87143" lon="4.51867">
        <ele>372</ele>
        <time>2025-09-10T14:15:40Z</time>
      </trkpt>
      <trkpt lat="45.87147" lon="4.51867">
        <ele>372</ele>
        <time>2025-09-10T14:15:41Z</time>
      </trkpt>
      <trkpt lat="45.8715" lon="4.51866">
        <ele>372</ele>
        <time>2025-09-10T14:15:42Z</time>
      </trkpt>
      <trkpt lat="45.87154" lon="4.51866">
        <ele>372</ele>
        <time>2025-09-10T14:15:43Z</time>
      </trkpt>
      <trkpt lat="45.87157" lon="4.51865">
        <ele>372</ele>
        <time>2025-09-10T14:15:44Z</time>
      </trkpt>
      <trkpt lat="45.87161" lon="4.51864">
        <ele>372</ele>
        <time>2025-09-10T14:15:45Z</time>
      </trkpt>
      <trkpt lat="45.87166" lon="4.51862">
        <ele>372</ele>
        <time>2025-09-10T14:15:46Z</time>
      </trkpt>
      <trkpt lat="45.87171" lon="4.51861">
        <ele>371.8</ele>
        <time>2025-09-10T14:15:47Z</time>
      </trkpt>
      <trkpt lat="45.87177" lon="4.51861">
        <ele>371.4</ele>
        <time>2025-09-10T14:15:48Z</time>
      </trkpt>
      <trkpt lat="45.87183" lon="4.51861">
        <ele>371</ele>
        <time>2025-09-10T14:15:49Z</time>
      </trkpt>
      <trkpt lat="45.8719" lon="4.51861">
        <ele>370.2</ele>
        <time>2025-09-10T14:15:50Z</time>
      </trkpt>
      <trkpt lat="45.87196" lon="4.51861">
        <ele>369.8</ele>
        <time>2025-09-10T14:15:51Z</time>
      </trkpt>
      <trkpt lat="45.87203" lon="4.51862">
        <ele>369.4</ele>
        <time>2025-09-10T14:15:52Z</time>
      </trkpt>
      <trkpt lat="45.87209" lon="4.51863">
        <ele>368.8</ele>
        <time>2025-09-10T14:15:53Z</time>
      </trkpt>
      <trkpt lat="45.87215" lon="4.51866">
        <ele>368.4</ele>
        <time>2025-09-10T14:15:54Z</time>
      </trkpt>
      <trkpt lat="45.8722" lon="4.51867">
        <ele>368</ele>
        <time>2025-09-10T14:15:55Z</time>
      </trkpt>
      <trkpt lat="45.87225" lon="4.51867">
        <ele>367.4</ele>
        <time>2025-09-10T14:15:56Z</time>
      </trkpt>
      <trkpt lat="45.87229" lon="4.51868">
        <ele>367</ele>
        <time>2025-09-10T14:15:57Z</time>
      </trkpt>
      <trkpt lat="45.87234" lon="4.51868">
        <ele>366.4</ele>
        <time>2025-09-10T14:15:58Z</time>
      </trkpt>
      <trkpt lat="45.87237" lon="4.51869">
        <ele>366</ele>
        <time>2025-09-10T14:15:59Z</time>
      </trkpt>
      <trkpt lat="45.87239" lon="4.51868">
        <ele>365.6</ele>
        <time>2025-09-10T14:16:00Z</time>
      </trkpt>
      <trkpt lat="45.87241" lon="4.51868">
        <ele>365.2</ele>
        <time>2025-09-10T14:16:01Z</time>
      </trkpt>
      <trkpt lat="45.87243" lon="4.51867">
        <ele>365.2</ele>
        <time>2025-09-10T14:16:02Z</time>
      </trkpt>
      <trkpt lat="45.87245" lon="4.51865">
        <ele>364.8</ele>
        <time>2025-09-10T14:16:03Z</time>
      </trkpt>
      <trkpt lat="45.87246" lon="4.51861">
        <ele>364.6</ele>
        <time>2025-09-10T14:16:04Z</time>
      </trkpt>
      <trkpt lat="45.87249" lon="4.51859">
        <ele>364.4</ele>
        <time>2025-09-10T14:16:05Z</time>
      </trkpt>
      <trkpt lat="45.87252" lon="4.51856">
        <ele>364</ele>
        <time>2025-09-10T14:16:06Z</time>
      </trkpt>
      <trkpt lat="45.87257" lon="4.51852">
        <ele>363.8</ele>
        <time>2025-09-10T14:16:07Z</time>
      </trkpt>
      <trkpt lat="45.87261" lon="4.51848">
        <ele>363.4</ele>
        <time>2025-09-10T14:16:08Z</time>
      </trkpt>
      <trkpt lat="45.87266" lon="4.51841">
        <ele>363</ele>
        <time>2025-09-10T14:16:09Z</time>
      </trkpt>
      <trkpt lat="45.8727" lon="4.51834">
        <ele>362.6</ele>
        <time>2025-09-10T14:16:10Z</time>
      </trkpt>
      <trkpt lat="45.87273" lon="4.51825">
        <ele>362</ele>
        <time>2025-09-10T14:16:11Z</time>
      </trkpt>
      <trkpt lat="45.87278" lon="4.51816">
        <ele>361.4</ele>
        <time>2025-09-10T14:16:12Z</time>
      </trkpt>
      <trkpt lat="45.87283" lon="4.51807">
        <ele>361.2</ele>
        <time>2025-09-10T14:16:13Z</time>
      </trkpt>
      <trkpt lat="45.87289" lon="4.518">
        <ele>360.8</ele>
        <time>2025-09-10T14:16:14Z</time>
      </trkpt>
      <trkpt lat="45.87295" lon="4.51792">
        <ele>360.4</ele>
        <time>2025-09-10T14:16:15Z</time>
      </trkpt>
      <trkpt lat="45.873" lon="4.51785">
        <ele>360.2</ele>
        <time>2025-09-10T14:16:16Z</time>
      </trkpt>
      <trkpt lat="45.87306" lon="4.51779">
        <ele>360.2</ele>
        <time>2025-09-10T14:16:17Z</time>
      </trkpt>
      <trkpt lat="45.87313" lon="4.51774">
        <ele>359.8</ele>
        <time>2025-09-10T14:16:18Z</time>
      </trkpt>
      <trkpt lat="45.8732" lon="4.5177">
        <ele>359.4</ele>
        <time>2025-09-10T14:16:19Z</time>
      </trkpt>
      <trkpt lat="45.87328" lon="4.51767">
        <ele>359</ele>
        <time>2025-09-10T14:16:20Z</time>
      </trkpt>
      <trkpt lat="45.87335" lon="4.51764">
        <ele>358.8</ele>
        <time>2025-09-10T14:16:21Z</time>
      </trkpt>
      <trkpt lat="45.87343" lon="4.5176">
        <ele>358.8</ele>
        <time>2025-09-10T14:16:22Z</time>
      </trkpt>
      <trkpt lat="45.8735" lon="4.51758">
        <ele>358.4</ele>
        <time>2025-09-10T14:16:23Z</time>
      </trkpt>
      <trkpt lat="45.87358" lon="4.51755">
        <ele>358</ele>
        <time>2025-09-10T14:16:24Z</time>
      </trkpt>
      <trkpt lat="45.87368" lon="4.51755">
        <ele>357.8</ele>
        <time>2025-09-10T14:16:25Z</time>
      </trkpt>
      <trkpt lat="45.87375" lon="4.51751">
        <ele>357.6</ele>
        <time>2025-09-10T14:16:26Z</time>
      </trkpt>
      <trkpt lat="45.87383" lon="4.5175">
        <ele>357.2</ele>
        <time>2025-09-10T14:16:27Z</time>
      </trkpt>
      <trkpt lat="45.8739" lon="4.5175">
        <ele>356.8</ele>
        <time>2025-09-10T14:16:28Z</time>
      </trkpt>
      <trkpt lat="45.87398" lon="4.51753">
        <ele>356.6</ele>
        <time>2025-09-10T14:16:29Z</time>
      </trkpt>
      <trkpt lat="45.87406" lon="4.51754">
        <ele>356.4</ele>
        <time>2025-09-10T14:16:30Z</time>
      </trkpt>
      <trkpt lat="45.87414" lon="4.51756">
        <ele>356</ele>
        <time>2025-09-10T14:16:31Z</time>
      </trkpt>
      <trkpt lat="45.87421" lon="4.51758">
        <ele>355.8</ele>
        <time>2025-09-10T14:16:32Z</time>
      </trkpt>
      <trkpt lat="45.87428" lon="4.51763">
        <ele>355.6</ele>
        <time>2025-09-10T14:16:33Z</time>
      </trkpt>
      <trkpt lat="45.87435" lon="4.51768">
        <ele>355.2</ele>
        <time>2025-09-10T14:16:34Z</time>
      </trkpt>
      <trkpt lat="45.87442" lon="4.51773">
        <ele>355</ele>
        <time>2025-09-10T14:16:35Z</time>
      </trkpt>
      <trkpt lat="45.87448" lon="4.51778">
        <ele>355</ele>
        <time>2025-09-10T14:16:36Z</time>
      </trkpt>
      <trkpt lat="45.87456" lon="4.51783">
        <ele>354.4</ele>
        <time>2025-09-10T14:16:37Z</time>
      </trkpt>
      <trkpt lat="45.87463" lon="4.51788">
        <ele>354</ele>
        <time>2025-09-10T14:16:38Z</time>
      </trkpt>
      <trkpt lat="45.8747" lon="4.51794">
        <ele>353.8</ele>
        <time>2025-09-10T14:16:39Z</time>
      </trkpt>
      <trkpt lat="45.87478" lon="4.518">
        <ele>353.4</ele>
        <time>2025-09-10T14:16:40Z</time>
      </trkpt>
      <trkpt lat="45.87486" lon="4.51807">
        <ele>353</ele>
        <time>2025-09-10T14:16:41Z</time>
      </trkpt>
      <trkpt lat="45.87494" lon="4.51812">
        <ele>353</ele>
        <time>2025-09-10T14:16:42Z</time>
      </trkpt>
      <trkpt lat="45.87501" lon="4.51818">
        <ele>352.6</ele>
        <time>2025-09-10T14:16:43Z</time>
      </trkpt>
      <trkpt lat="45.87509" lon="4.51824">
        <ele>352.4</ele>
        <time>2025-09-10T14:16:44Z</time>
      </trkpt>
      <trkpt lat="45.87517" lon="4.5183">
        <ele>351.8</ele>
        <time>2025-09-10T14:16:45Z</time>
      </trkpt>
      <trkpt lat="45.87525" lon="4.51835">
        <ele>351.8</ele>
        <time>2025-09-10T14:16:46Z</time>
      </trkpt>
      <trkpt lat="45.87532" lon="4.51842">
        <ele>351.6</ele>
        <time>2025-09-10T14:16:47Z</time>
      </trkpt>
      <trkpt lat="45.87539" lon="4.51847">
        <ele>351.6</ele>
        <time>2025-09-10T14:16:48Z</time>
      </trkpt>
      <trkpt lat="45.87546" lon="4.51852">
        <ele>351.6</ele>
        <time>2025-09-10T14:16:49Z</time>
      </trkpt>
      <trkpt lat="45.87552" lon="4.51857">
        <ele>351.6</ele>
        <time>2025-09-10T14:16:50Z</time>
      </trkpt>
      <trkpt lat="45.87558" lon="4.51862">
        <ele>351.6</ele>
        <time>2025-09-10T14:16:51Z</time>
      </trkpt>
      <trkpt lat="45.87565" lon="4.51867">
        <ele>351.6</ele>
        <time>2025-09-10T14:16:52Z</time>
      </trkpt>
      <trkpt lat="45.87571" lon="4.51871">
        <ele>351.8</ele>
        <time>2025-09-10T14:16:53Z</time>
      </trkpt>
      <trkpt lat="45.87576" lon="4.51876">
        <ele>351.8</ele>
        <time>2025-09-10T14:16:54Z</time>
      </trkpt>
      <trkpt lat="45.87581" lon="4.51879">
        <ele>352.4</ele>
        <time>2025-09-10T14:16:55Z</time>
      </trkpt>
      <trkpt lat="45.87586" lon="4.51882">
        <ele>352.6</ele>
        <time>2025-09-10T14:16:56Z</time>
      </trkpt>
      <trkpt lat="45.87591" lon="4.51885">
        <ele>352.8</ele>
        <time>2025-09-10T14:16:57Z</time>
      </trkpt>
      <trkpt lat="45.87596" lon="4.51888">
        <ele>353.4</ele>
        <time>2025-09-10T14:16:58Z</time>
      </trkpt>
      <trkpt lat="45.876" lon="4.5189">
        <ele>353.4</ele>
        <time>2025-09-10T14:16:59Z</time>
      </trkpt>
      <trkpt lat="45.87604" lon="4.51891">
        <ele>353.6</ele>
        <time>2025-09-10T14:17:00Z</time>
      </trkpt>
      <trkpt lat="45.87608" lon="4.51893">
        <ele>353.8</ele>
        <time>2025-09-10T14:17:01Z</time>
      </trkpt>
      <trkpt lat="45.87612" lon="4.51894">
        <ele>354.2</ele>
        <time>2025-09-10T14:17:02Z</time>
      </trkpt>
      <trkpt lat="45.87615" lon="4.51895">
        <ele>354.2</ele>
        <time>2025-09-10T14:17:03Z</time>
      </trkpt>
      <trkpt lat="45.87619" lon="4.51897">
        <ele>354.6</ele>
        <time>2025-09-10T14:17:04Z</time>
      </trkpt>
      <trkpt lat="45.87622" lon="4.51898">
        <ele>354.6</ele>
        <time>2025-09-10T14:17:05Z</time>
      </trkpt>
      <trkpt lat="45.87625" lon="4.51899">
        <ele>355</ele>
        <time>2025-09-10T14:17:06Z</time>
      </trkpt>
      <trkpt lat="45.87628" lon="4.519">
        <ele>355</ele>
        <time>2025-09-10T14:17:07Z</time>
      </trkpt>
      <trkpt lat="45.87631" lon="4.51901">
        <ele>355.2</ele>
        <time>2025-09-10T14:17:08Z</time>
      </trkpt>
      <trkpt lat="45.87634" lon="4.51901">
        <ele>355.2</ele>
        <time>2025-09-10T14:17:09Z</time>
      </trkpt>
      <trkpt lat="45.87636" lon="4.51902">
        <ele>355.6</ele>
        <time>2025-09-10T14:17:10Z</time>
      </trkpt>
      <trkpt lat="45.87639" lon="4.51902">
        <ele>355.6</ele>
        <time>2025-09-10T14:17:11Z</time>
      </trkpt>
      <trkpt lat="45.87642" lon="4.51903">
        <ele>355.8</ele>
        <time>2025-09-10T14:17:12Z</time>
      </trkpt>
      <trkpt lat="45.87644" lon="4.51904">
        <ele>355.8</ele>
        <time>2025-09-10T14:17:13Z</time>
      </trkpt>
      <trkpt lat="45.87647" lon="4.51905">
        <ele>355.8</ele>
        <time>2025-09-10T14:17:14Z</time>
      </trkpt>
      <trkpt lat="45.87649" lon="4.51906">
        <ele>356.2</ele>
        <time>2025-09-10T14:17:15Z</time>
      </trkpt>
      <trkpt lat="45.87651" lon="4.51906">
        <ele>356.2</ele>
        <time>2025-09-10T14:17:16Z</time>
      </trkpt>
      <trkpt lat="45.87653" lon="4.51907">
        <ele>356.2</ele>
        <time>2025-09-10T14:17:17Z</time>
      </trkpt>
      <trkpt lat="45.87655" lon="4.51907">
        <ele>356.6</ele>
        <time>2025-09-10T14:17:18Z</time>
      </trkpt>
      <trkpt lat="45.87657" lon="4.51908">
        <ele>356.8</ele>
        <time>2025-09-10T14:17:19Z</time>
      </trkpt>
      <trkpt lat="45.87659" lon="4.51909">
        <ele>356.8</ele>
        <time>2025-09-10T14:17:20Z</time>
      </trkpt>
      <trkpt lat="45.87661" lon="4.5191">
        <ele>356.8</ele>
        <time>2025-09-10T14:17:21Z</time>
      </trkpt>
      <trkpt lat="45.87663" lon="4.5191">
        <ele>356.8</ele>
        <time>2025-09-10T14:17:22Z</time>
      </trkpt>
      <trkpt lat="45.87665" lon="4.51911">
        <ele>357.2</ele>
        <time>2025-09-10T14:17:23Z</time>
      </trkpt>
      <trkpt lat="45.87667" lon="4.51911">
        <ele>357.2</ele>
        <time>2025-09-10T14:17:24Z</time>
      </trkpt>
      <trkpt lat="45.87668" lon="4.51911">
        <ele>357.4</ele>
        <time>2025-09-10T14:17:25Z</time>
      </trkpt>
      <trkpt lat="45.8767" lon="4.51911">
        <ele>357.4</ele>
        <time>2025-09-10T14:17:26Z</time>
      </trkpt>
      <trkpt lat="45.87672" lon="4.51911">
        <ele>357.4</ele>
        <time>2025-09-10T14:17:27Z</time>
      </trkpt>
      <trkpt lat="45.87674" lon="4.51911">
        <ele>357.4</ele>
        <time>2025-09-10T14:17:28Z</time>
      </trkpt>
      <trkpt lat="45.87675" lon="4.51912">
        <ele>357.6</ele>
        <time>2025-09-10T14:17:29Z</time>
      </trkpt>
      <trkpt lat="45.87677" lon="4.51912">
        <ele>357.6</ele>
        <time>2025-09-10T14:17:30Z</time>
      </trkpt>
      <trkpt lat="45.87679" lon="4.51913">
        <ele>358.2</ele>
        <time>2025-09-10T14:17:31Z</time>
      </trkpt>
      <trkpt lat="45.87681" lon="4.51913">
        <ele>358.4</ele>
        <time>2025-09-10T14:17:32Z</time>
      </trkpt>
      <trkpt lat="45.87683" lon="4.51914">
        <ele>358.2</ele>
        <time>2025-09-10T14:17:33Z</time>
      </trkpt>
      <trkpt lat="45.87684" lon="4.51915">
        <ele>358.8</ele>
        <time>2025-09-10T14:17:34Z</time>
      </trkpt>
      <trkpt lat="45.87686" lon="4.51915">
        <ele>358.8</ele>
        <time>2025-09-10T14:17:35Z</time>
      </trkpt>
      <trkpt lat="45.87688" lon="4.51916">
        <ele>359</ele>
        <time>2025-09-10T14:17:36Z</time>
      </trkpt>
      <trkpt lat="45.8769" lon="4.51917">
        <ele>359</ele>
        <time>2025-09-10T14:17:37Z</time>
      </trkpt>
      <trkpt lat="45.87692" lon="4.51918">
        <ele>359.2</ele>
        <time>2025-09-10T14:17:38Z</time>
      </trkpt>
      <trkpt lat="45.87694" lon="4.51918">
        <ele>359.2</ele>
        <time>2025-09-10T14:17:39Z</time>
      </trkpt>
      <trkpt lat="45.87696" lon="4.51918">
        <ele>359.2</ele>
        <time>2025-09-10T14:17:40Z</time>
      </trkpt>
      <trkpt lat="45.87698" lon="4.51917">
        <ele>359.4</ele>
        <time>2025-09-10T14:17:41Z</time>
      </trkpt>
      <trkpt lat="45.87701" lon="4.51916">
        <ele>359.4</ele>
        <time>2025-09-10T14:17:42Z</time>
      </trkpt>
      <trkpt lat="45.87703" lon="4.51915">
        <ele>359.4</ele>
        <time>2025-09-10T14:17:43Z</time>
      </trkpt>
      <trkpt lat="45.87705" lon="4.51915">
        <ele>359.4</ele>
        <time>2025-09-10T14:17:44Z</time>
      </trkpt>
      <trkpt lat="45.87707" lon="4.51915">
        <ele>359.4</ele>
        <time>2025-09-10T14:17:45Z</time>
      </trkpt>
      <trkpt lat="45.87708" lon="4.51915">
        <ele>359.6</ele>
        <time>2025-09-10T14:17:46Z</time>
      </trkpt>
      <trkpt lat="45.87709" lon="4.51916">
        <ele>359.6</ele>
        <time>2025-09-10T14:17:47Z</time>
      </trkpt>
      <trkpt lat="45.8771" lon="4.51916">
        <ele>359.6</ele>
        <time>2025-09-10T14:17:48Z</time>
      </trkpt>
      <trkpt lat="45.87709" lon="4.51915">
        <ele>359.8</ele>
        <time>2025-09-10T14:17:49Z</time>
      </trkpt>
      <trkpt lat="45.8771" lon="4.51916">
        <ele>360.2</ele>
        <time>2025-09-10T14:17:54Z</time>
      </trkpt>
      <trkpt lat="45.87711" lon="4.51916">
        <ele>360.2</ele>
        <time>2025-09-10T14:17:55Z</time>
      </trkpt>
      <trkpt lat="45.87713" lon="4.51916">
        <ele>360.2</ele>
        <time>2025-09-10T14:17:56Z</time>
      </trkpt>
      <trkpt lat="45.87714" lon="4.51916">
        <ele>360.2</ele>
        <time>2025-09-10T14:17:57Z</time>
      </trkpt>
      <trkpt lat="45.87715" lon="4.51917">
        <ele>360.4</ele>
        <time>2025-09-10T14:17:58Z</time>
      </trkpt>
      <trkpt lat="45.87716" lon="4.51918">
        <ele>360.4</ele>
        <time>2025-09-10T14:17:59Z</time>
      </trkpt>
      <trkpt lat="45.87718" lon="4.51918">
        <ele>360.4</ele>
        <time>2025-09-10T14:18:00Z</time>
      </trkpt>
      <trkpt lat="45.87719" lon="4.51919">
        <ele>360.4</ele>
        <time>2025-09-10T14:18:01Z</time>
      </trkpt>
      <trkpt lat="45.8772" lon="4.51919">
        <ele>360.4</ele>
        <time>2025-09-10T14:18:02Z</time>
      </trkpt>
      <trkpt lat="45.87721" lon="4.51919">
        <ele>360.4</ele>
        <time>2025-09-10T14:18:03Z</time>
      </trkpt>
      <trkpt lat="45.87722" lon="4.51919">
        <ele>360.4</ele>
        <time>2025-09-10T14:18:04Z</time>
      </trkpt>
      <trkpt lat="45.87723" lon="4.51919">
        <ele>360.4</ele>
        <time>2025-09-10T14:18:05Z</time>
      </trkpt>
      <trkpt lat="45.87725" lon="4.51918">
        <ele>360.6</ele>
        <time>2025-09-10T14:18:06Z</time>
      </trkpt>
      <trkpt lat="45.87725" lon="4.51917">
        <ele>360.6</ele>
        <time>2025-09-10T14:18:07Z</time>
      </trkpt>
      <trkpt lat="45.87726" lon="4.51916">
        <ele>360.8</ele>
        <time>2025-09-10T14:18:08Z</time>
      </trkpt>
      <trkpt lat="45.87727" lon="4.51916">
        <ele>360.8</ele>
        <time>2025-09-10T14:18:09Z</time>
      </trkpt>
      <trkpt lat="45.87728" lon="4.51915">
        <ele>360.8</ele>
        <time>2025-09-10T14:18:10Z</time>
      </trkpt>
      <trkpt lat="45.87729" lon="4.51914">
        <ele>360.8</ele>
        <time>2025-09-10T14:18:11Z</time>
      </trkpt>
      <trkpt lat="45.8773" lon="4.51914">
        <ele>360.8</ele>
        <time>2025-09-10T14:18:12Z</time>
      </trkpt>
      <trkpt lat="45.87731" lon="4.51913">
        <ele>360.8</ele>
        <time>2025-09-10T14:18:13Z</time>
      </trkpt>
      <trkpt lat="45.87732" lon="4.51911">
        <ele>360.8</ele>
        <time>2025-09-10T14:18:14Z</time>
      </trkpt>
      <trkpt lat="45.87733" lon="4.5191">
        <ele>360.8</ele>
        <time>2025-09-10T14:18:15Z</time>
      </trkpt>
      <trkpt lat="45.87734" lon="4.51909">
        <ele>360.8</ele>
        <time>2025-09-10T14:18:16Z</time>
      </trkpt>
      <trkpt lat="45.87735" lon="4.51908">
        <ele>360.8</ele>
        <time>2025-09-10T14:18:17Z</time>
      </trkpt>
      <trkpt lat="45.87736" lon="4.51907">
        <ele>360.6</ele>
        <time>2025-09-10T14:18:18Z</time>
      </trkpt>
      <trkpt lat="45.87737" lon="4.51906">
        <ele>360.6</ele>
        <time>2025-09-10T14:18:19Z</time>
      </trkpt>
      <trkpt lat="45.87738" lon="4.51905">
        <ele>360.6</ele>
        <time>2025-09-10T14:18:20Z</time>
      </trkpt>
      <trkpt lat="45.87739" lon="4.51903">
        <ele>360.6</ele>
        <time>2025-09-10T14:18:21Z</time>
      </trkpt>
      <trkpt lat="45.87739" lon="4.51902">
        <ele>360.6</ele>
        <time>2025-09-10T14:18:22Z</time>
      </trkpt>
      <trkpt lat="45.8774" lon="4.519">
        <ele>360.6</ele>
        <time>2025-09-10T14:18:23Z</time>
      </trkpt>
      <trkpt lat="45.8774" lon="4.51898">
        <ele>360.6</ele>
        <time>2025-09-10T14:18:24Z</time>
      </trkpt>
      <trkpt lat="45.8774" lon="4.51897">
        <ele>360.4</ele>
        <time>2025-09-10T14:18:25Z</time>
      </trkpt>
      <trkpt lat="45.8774" lon="4.51895">
        <ele>360.4</ele>
        <time>2025-09-10T14:18:26Z</time>
      </trkpt>
      <trkpt lat="45.8774" lon="4.51894">
        <ele>360.4</ele>
        <time>2025-09-10T14:18:27Z</time>
      </trkpt>
      <trkpt lat="45.87741" lon="4.51892">
        <ele>360.8</ele>
        <time>2025-09-10T14:18:28Z</time>
      </trkpt>
      <trkpt lat="45.87741" lon="4.5189">
        <ele>360.8</ele>
        <time>2025-09-10T14:18:29Z</time>
      </trkpt>
      <trkpt lat="45.87741" lon="4.51889">
        <ele>360.8</ele>
        <time>2025-09-10T14:18:30Z</time>
      </trkpt>
      <trkpt lat="45.87741" lon="4.51887">
        <ele>360.8</ele>
        <time>2025-09-10T14:18:31Z</time>
      </trkpt>
      <trkpt lat="45.87741" lon="4.51886">
        <ele>360.8</ele>
        <time>2025-09-10T14:18:32Z</time>
      </trkpt>
      <trkpt lat="45.87742" lon="4.51884">
        <ele>360.8</ele>
        <time>2025-09-10T14:18:33Z</time>
      </trkpt>
      <trkpt lat="45.87742" lon="4.51882">
        <ele>361</ele>
        <time>2025-09-10T14:18:34Z</time>
      </trkpt>
      <trkpt lat="45.87742" lon="4.51881">
        <ele>361</ele>
        <time>2025-09-10T14:18:35Z</time>
      </trkpt>
      <trkpt lat="45.87742" lon="4.51879">
        <ele>361</ele>
        <time>2025-09-10T14:18:36Z</time>
      </trkpt>
      <trkpt lat="45.87742" lon="4.51878">
        <ele>361.4</ele>
        <time>2025-09-10T14:18:37Z</time>
      </trkpt>
      <trkpt lat="45.87742" lon="4.51876">
        <ele>361.4</ele>
        <time>2025-09-10T14:18:38Z</time>
      </trkpt>
      <trkpt lat="45.87742" lon="4.51874">
        <ele>361.4</ele>
        <time>2025-09-10T14:18:39Z</time>
      </trkpt>
      <trkpt lat="45.87742" lon="4.51873">
        <ele>361.4</ele>
        <time>2025-09-10T14:18:40Z</time>
      </trkpt>
      <trkpt lat="45.87742" lon="4.51871">
        <ele>361.6</ele>
        <time>2025-09-10T14:18:41Z</time>
      </trkpt>
      <trkpt lat="45.87742" lon="4.5187">
        <ele>361.6</ele>
        <time>2025-09-10T14:18:42Z</time>
      </trkpt>
      <trkpt lat="45.87742" lon="4.51868">
        <ele>361.6</ele>
        <time>2025-09-10T14:18:43Z</time>
      </trkpt>
      <trkpt lat="45.87742" lon="4.51866">
        <ele>361.6</ele>
        <time>2025-09-10T14:18:44Z</time>
      </trkpt>
      <trkpt lat="45.87742" lon="4.51865">
        <ele>361.6</ele>
        <time>2025-09-10T14:18:45Z</time>
      </trkpt>
      <trkpt lat="45.87742" lon="4.51863">
        <ele>361.6</ele>
        <time>2025-09-10T14:18:46Z</time>
      </trkpt>
      <trkpt lat="45.87742" lon="4.51861">
        <ele>361.2</ele>
        <time>2025-09-10T14:18:47Z</time>
      </trkpt>
      <trkpt lat="45.87742" lon="4.5186">
        <ele>361.2</ele>
        <time>2025-09-10T14:18:48Z</time>
      </trkpt>
      <trkpt lat="45.87742" lon="4.51859">
        <ele>361.2</ele>
        <time>2025-09-10T14:18:49Z</time>
      </trkpt>
      <trkpt lat="45.87742" lon="4.51858">
        <ele>361.2</ele>
        <time>2025-09-10T14:18:50Z</time>
      </trkpt>
      <trkpt lat="45.87742" lon="4.51856">
        <ele>361.2</ele>
        <time>2025-09-10T14:18:51Z</time>
      </trkpt>
      <trkpt lat="45.87742" lon="4.51855">
        <ele>361.2</ele>
        <time>2025-09-10T14:18:52Z</time>
      </trkpt>
      <trkpt lat="45.87742" lon="4.51852">
        <ele>361.2</ele>
        <time>2025-09-10T14:18:53Z</time>
      </trkpt>
      <trkpt lat="45.87742" lon="4.51851">
        <ele>361.2</ele>
        <time>2025-09-10T14:18:54Z</time>
      </trkpt>
      <trkpt lat="45.87742" lon="4.5185">
        <ele>361.2</ele>
        <time>2025-09-10T14:18:55Z</time>
      </trkpt>
      <trkpt lat="45.87741" lon="4.51848">
        <ele>361.2</ele>
        <time>2025-09-10T14:18:56Z</time>
      </trkpt>
      <trkpt lat="45.87741" lon="4.51847">
        <ele>361.4</ele>
        <time>2025-09-10T14:18:57Z</time>
      </trkpt>
      <trkpt lat="45.87741" lon="4.51846">
        <ele>361.4</ele>
        <time>2025-09-10T14:18:58Z</time>
      </trkpt>
      <trkpt lat="45.8774" lon="4.51845">
        <ele>361.4</ele>
        <time>2025-09-10T14:18:59Z</time>
      </trkpt>
      <trkpt lat="45.8774" lon="4.51845">
        <ele>361.4</ele>
        <time>2025-09-10T14:19:00Z</time>
      </trkpt>
      <trkpt lat="45.87739" lon="4.51844">
        <ele>361.4</ele>
        <time>2025-09-10T14:19:01Z</time>
      </trkpt>
      <trkpt lat="45.87739" lon="4.51842">
        <ele>361.4</ele>
        <time>2025-09-10T14:19:02Z</time>
      </trkpt>
      <trkpt lat="45.87739" lon="4.51842">
        <ele>361.4</ele>
        <time>2025-09-10T14:19:03Z</time>
      </trkpt>
      <trkpt lat="45.87739" lon="4.51842">
        <ele>361.4</ele>
        <time>2025-09-10T14:19:04Z</time>
      </trkpt>
      <trkpt lat="45.8774" lon="4.51842">
        <ele>361.8</ele>
        <time>2025-09-10T14:19:09Z</time>
      </trkpt>
      <trkpt lat="45.87741" lon="4.5184">
        <ele>361.8</ele>
        <time>2025-09-10T14:19:10Z</time>
      </trkpt>
      <trkpt lat="45.87743" lon="4.51838">
        <ele>361.4</ele>
        <time>2025-09-10T14:19:11Z</time>
      </trkpt>
      <trkpt lat="45.87743" lon="4.51837">
        <ele>361.4</ele>
        <time>2025-09-10T14:19:12Z</time>
      </trkpt>
      <trkpt lat="45.87743" lon="4.51838">
        <ele>361.6</ele>
        <time>2025-09-10T14:19:13Z</time>
      </trkpt>
      <trkpt lat="45.87743" lon="4.51838">
        <ele>361.6</ele>
        <time>2025-09-10T14:19:16Z</time>
      </trkpt>
      <trkpt lat="45.87743" lon="4.51838">
        <ele>361.6</ele>
        <time>2025-09-10T14:19:17Z</time>
      </trkpt>
      <trkpt lat="45.87746" lon="4.51837">
        <ele>361.6</ele>
        <time>2025-09-10T14:19:18Z</time>
      </trkpt>
      <trkpt lat="45.87748" lon="4.51836">
        <ele>361.6</ele>
        <time>2025-09-10T14:19:19Z</time>
      </trkpt>
      <trkpt lat="45.8775" lon="4.51835">
        <ele>361.6</ele>
        <time>2025-09-10T14:19:20Z</time>
      </trkpt>
      <trkpt lat="45.87752" lon="4.51835">
        <ele>361.6</ele>
        <time>2025-09-10T14:19:21Z</time>
      </trkpt>
      <trkpt lat="45.87754" lon="4.51836">
        <ele>361.6</ele>
        <time>2025-09-10T14:19:22Z</time>
      </trkpt>
      <trkpt lat="45.87755" lon="4.51837">
        <ele>361.6</ele>
        <time>2025-09-10T14:19:23Z</time>
      </trkpt>
      <trkpt lat="45.87757" lon="4.51838">
        <ele>361.6</ele>
        <time>2025-09-10T14:19:24Z</time>
      </trkpt>
      <trkpt lat="45.8776" lon="4.51838">
        <ele>361.6</ele>
        <time>2025-09-10T14:19:25Z</time>
      </trkpt>
      <trkpt lat="45.87762" lon="4.51837">
        <ele>361.6</ele>
        <time>2025-09-10T14:19:26Z</time>
      </trkpt>
      <trkpt lat="45.87764" lon="4.51835">
        <ele>358.8</ele>
        <time>2025-09-10T14:19:27Z</time>
      </trkpt>
      <trkpt lat="45.87766" lon="4.51834">
        <ele>360</ele>
        <time>2025-09-10T14:19:28Z</time>
      </trkpt>
      <trkpt lat="45.87768" lon="4.51833">
        <ele>360.6</ele>
        <time>2025-09-10T14:19:29Z</time>
      </trkpt>
      <trkpt lat="45.87771" lon="4.51832">
        <ele>361</ele>
        <time>2025-09-10T14:19:30Z</time>
      </trkpt>
      <trkpt lat="45.87773" lon="4.51832">
        <ele>361</ele>
        <time>2025-09-10T14:19:31Z</time>
      </trkpt>
      <trkpt lat="45.87775" lon="4.51832">
        <ele>361.4</ele>
        <time>2025-09-10T14:19:32Z</time>
      </trkpt>
      <trkpt lat="45.87777" lon="4.51832">
        <ele>361.4</ele>
        <time>2025-09-10T14:19:33Z</time>
      </trkpt>
      <trkpt lat="45.87779" lon="4.51831">
        <ele>361.4</ele>
        <time>2025-09-10T14:19:34Z</time>
      </trkpt>
      <trkpt lat="45.87781" lon="4.51831">
        <ele>361.8</ele>
        <time>2025-09-10T14:19:35Z</time>
      </trkpt>
      <trkpt lat="45.87783" lon="4.5183">
        <ele>361.8</ele>
        <time>2025-09-10T14:19:36Z</time>
      </trkpt>
      <trkpt lat="45.87785" lon="4.51829">
        <ele>362.2</ele>
        <time>2025-09-10T14:19:37Z</time>
      </trkpt>
      <trkpt lat="45.87788" lon="4.51827">
        <ele>362.4</ele>
        <time>2025-09-10T14:19:38Z</time>
      </trkpt>
      <trkpt lat="45.8779" lon="4.51827">
        <ele>362.6</ele>
        <time>2025-09-10T14:19:39Z</time>
      </trkpt>
      <trkpt lat="45.87791" lon="4.51827">
        <ele>363</ele>
        <time>2025-09-10T14:19:40Z</time>
      </trkpt>
      <trkpt lat="45.87793" lon="4.51826">
        <ele>363</ele>
        <time>2025-09-10T14:19:41Z</time>
      </trkpt>
      <trkpt lat="45.87795" lon="4.51826">
        <ele>363.2</ele>
        <time>2025-09-10T14:19:42Z</time>
      </trkpt>
      <trkpt lat="45.87797" lon="4.51825">
        <ele>363.2</ele>
        <time>2025-09-10T14:19:43Z</time>
      </trkpt>
      <trkpt lat="45.87799" lon="4.51824">
        <ele>363.2</ele>
        <time>2025-09-10T14:19:44Z</time>
      </trkpt>
      <trkpt lat="45.878" lon="4.51823">
        <ele>363.4</ele>
        <time>2025-09-10T14:19:45Z</time>
      </trkpt>
      <trkpt lat="45.87802" lon="4.51822">
        <ele>363.4</ele>
        <time>2025-09-10T14:19:46Z</time>
      </trkpt>
      <trkpt lat="45.87804" lon="4.51822">
        <ele>363.4</ele>
        <time>2025-09-10T14:19:47Z</time>
      </trkpt>
      <trkpt lat="45.87805" lon="4.51821">
        <ele>363.8</ele>
        <time>2025-09-10T14:19:48Z</time>
      </trkpt>
      <trkpt lat="45.87807" lon="4.5182">
        <ele>364</ele>
        <time>2025-09-10T14:19:49Z</time>
      </trkpt>
      <trkpt lat="45.87809" lon="4.51818">
        <ele>364</ele>
        <time>2025-09-10T14:19:50Z</time>
      </trkpt>
      <trkpt lat="45.87811" lon="4.51818">
        <ele>364</ele>
        <time>2025-09-10T14:19:51Z</time>
      </trkpt>
      <trkpt lat="45.87813" lon="4.51817">
        <ele>364</ele>
        <time>2025-09-10T14:19:52Z</time>
      </trkpt>
      <trkpt lat="45.87815" lon="4.51816">
        <ele>364</ele>
        <time>2025-09-10T14:19:53Z</time>
      </trkpt>
      <trkpt lat="45.87817" lon="4.51815">
        <ele>364.2</ele>
        <time>2025-09-10T14:19:54Z</time>
      </trkpt>
      <trkpt lat="45.87819" lon="4.51815">
        <ele>361.8</ele>
        <time>2025-09-10T14:19:55Z</time>
      </trkpt>
      <trkpt lat="45.8782" lon="4.51814">
        <ele>364.4</ele>
        <time>2025-09-10T14:19:56Z</time>
      </trkpt>
      <trkpt lat="45.87822" lon="4.51813">
        <ele>365</ele>
        <time>2025-09-10T14:19:57Z</time>
      </trkpt>
      <trkpt lat="45.87823" lon="4.51812">
        <ele>365</ele>
        <time>2025-09-10T14:19:58Z</time>
      </trkpt>
      <trkpt lat="45.87825" lon="4.5181">
        <ele>365</ele>
        <time>2025-09-10T14:19:59Z</time>
      </trkpt>
      <trkpt lat="45.87826" lon="4.51809">
        <ele>365</ele>
        <time>2025-09-10T14:20:00Z</time>
      </trkpt>
      <trkpt lat="45.87828" lon="4.51809">
        <ele>364.8</ele>
        <time>2025-09-10T14:20:01Z</time>
      </trkpt>
      <trkpt lat="45.87829" lon="4.51808">
        <ele>364.8</ele>
        <time>2025-09-10T14:20:02Z</time>
      </trkpt>
      <trkpt lat="45.87831" lon="4.51808">
        <ele>364.8</ele>
        <time>2025-09-10T14:20:03Z</time>
      </trkpt>
      <trkpt lat="45.87832" lon="4.51807">
        <ele>364.8</ele>
        <time>2025-09-10T14:20:04Z</time>
      </trkpt>
      <trkpt lat="45.87833" lon="4.51807">
        <ele>364.8</ele>
        <time>2025-09-10T14:20:05Z</time>
      </trkpt>
      <trkpt lat="45.87835" lon="4.51806">
        <ele>365</ele>
        <time>2025-09-10T14:20:06Z</time>
      </trkpt>
      <trkpt lat="45.87836" lon="4.51806">
        <ele>365</ele>
        <time>2025-09-10T14:20:07Z</time>
      </trkpt>
      <trkpt lat="45.87838" lon="4.51805">
        <ele>365</ele>
        <time>2025-09-10T14:20:08Z</time>
      </trkpt>
      <trkpt lat="45.8784" lon="4.51804">
        <ele>365.2</ele>
        <time>2025-09-10T14:20:09Z</time>
      </trkpt>
      <trkpt lat="45.87841" lon="4.51804">
        <ele>365.2</ele>
        <time>2025-09-10T14:20:10Z</time>
      </trkpt>
      <trkpt lat="45.87841" lon="4.51803">
        <ele>365.6</ele>
        <time>2025-09-10T14:20:11Z</time>
      </trkpt>
      <trkpt lat="45.87843" lon="4.51802">
        <ele>365.6</ele>
        <time>2025-09-10T14:20:12Z</time>
      </trkpt>
      <trkpt lat="45.87844" lon="4.51801">
        <ele>365.6</ele>
        <time>2025-09-10T14:20:13Z</time>
      </trkpt>
      <trkpt lat="45.87845" lon="4.518">
        <ele>365.8</ele>
        <time>2025-09-10T14:20:14Z</time>
      </trkpt>
      <trkpt lat="45.87846" lon="4.518">
        <ele>365.8</ele>
        <time>2025-09-10T14:20:15Z</time>
      </trkpt>
      <trkpt lat="45.87848" lon="4.51798">
        <ele>366.2</ele>
        <time>2025-09-10T14:20:16Z</time>
      </trkpt>
      <trkpt lat="45.87849" lon="4.51797">
        <ele>366.2</ele>
        <time>2025-09-10T14:20:17Z</time>
      </trkpt>
      <trkpt lat="45.8785" lon="4.51796">
        <ele>366.4</ele>
        <time>2025-09-10T14:20:18Z</time>
      </trkpt>
      <trkpt lat="45.87852" lon="4.51795">
        <ele>366.4</ele>
        <time>2025-09-10T14:20:19Z</time>
      </trkpt>
      <trkpt lat="45.87853" lon="4.51795">
        <ele>366.4</ele>
        <time>2025-09-10T14:20:20Z</time>
      </trkpt>
      <trkpt lat="45.87854" lon="4.51795">
        <ele>366.6</ele>
        <time>2025-09-10T14:20:21Z</time>
      </trkpt>
      <trkpt lat="45.87856" lon="4.51794">
        <ele>366.6</ele>
        <time>2025-09-10T14:20:22Z</time>
      </trkpt>
      <trkpt lat="45.87857" lon="4.51793">
        <ele>366.8</ele>
        <time>2025-09-10T14:20:23Z</time>
      </trkpt>
      <trkpt lat="45.87858" lon="4.51792">
        <ele>366.8</ele>
        <time>2025-09-10T14:20:24Z</time>
      </trkpt>
      <trkpt lat="45.87859" lon="4.51791">
        <ele>367</ele>
        <time>2025-09-10T14:20:25Z</time>
      </trkpt>
      <trkpt lat="45.87861" lon="4.51789">
        <ele>367</ele>
        <time>2025-09-10T14:20:26Z</time>
      </trkpt>
      <trkpt lat="45.87862" lon="4.51788">
        <ele>367.4</ele>
        <time>2025-09-10T14:20:27Z</time>
      </trkpt>
      <trkpt lat="45.87864" lon="4.51787">
        <ele>367.4</ele>
        <time>2025-09-10T14:20:28Z</time>
      </trkpt>
      <trkpt lat="45.87865" lon="4.51786">
        <ele>367.6</ele>
        <time>2025-09-10T14:20:29Z</time>
      </trkpt>
      <trkpt lat="45.87866" lon="4.51785">
        <ele>367.6</ele>
        <time>2025-09-10T14:20:30Z</time>
      </trkpt>
      <trkpt lat="45.87868" lon="4.51784">
        <ele>368</ele>
        <time>2025-09-10T14:20:31Z</time>
      </trkpt>
      <trkpt lat="45.87869" lon="4.51783">
        <ele>368</ele>
        <time>2025-09-10T14:20:32Z</time>
      </trkpt>
      <trkpt lat="45.87871" lon="4.51781">
        <ele>368</ele>
        <time>2025-09-10T14:20:33Z</time>
      </trkpt>
      <trkpt lat="45.87872" lon="4.5178">
        <ele>368</ele>
        <time>2025-09-10T14:20:34Z</time>
      </trkpt>
      <trkpt lat="45.87874" lon="4.5178">
        <ele>368</ele>
        <time>2025-09-10T14:20:35Z</time>
      </trkpt>
      <trkpt lat="45.87875" lon="4.5178">
        <ele>368</ele>
        <time>2025-09-10T14:20:36Z</time>
      </trkpt>
      <trkpt lat="45.87877" lon="4.5178">
        <ele>368.2</ele>
        <time>2025-09-10T14:20:37Z</time>
      </trkpt>
      <trkpt lat="45.87879" lon="4.5178">
        <ele>368.2</ele>
        <time>2025-09-10T14:20:38Z</time>
      </trkpt>
      <trkpt lat="45.8788" lon="4.5178">
        <ele>368.2</ele>
        <time>2025-09-10T14:20:39Z</time>
      </trkpt>
      <trkpt lat="45.87882" lon="4.5178">
        <ele>368.4</ele>
        <time>2025-09-10T14:20:40Z</time>
      </trkpt>
      <trkpt lat="45.87884" lon="4.5178">
        <ele>368.4</ele>
        <time>2025-09-10T14:20:41Z</time>
      </trkpt>
      <trkpt lat="45.87885" lon="4.5178">
        <ele>368.6</ele>
        <time>2025-09-10T14:20:42Z</time>
      </trkpt>
      <trkpt lat="45.87888" lon="4.5178">
        <ele>368.6</ele>
        <time>2025-09-10T14:20:43Z</time>
      </trkpt>
      <trkpt lat="45.87889" lon="4.5178">
        <ele>369</ele>
        <time>2025-09-10T14:20:44Z</time>
      </trkpt>
      <trkpt lat="45.87891" lon="4.51779">
        <ele>369</ele>
        <time>2025-09-10T14:20:45Z</time>
      </trkpt>
      <trkpt lat="45.87893" lon="4.51779">
        <ele>369</ele>
        <time>2025-09-10T14:20:46Z</time>
      </trkpt>
      <trkpt lat="45.87894" lon="4.51779">
        <ele>369</ele>
        <time>2025-09-10T14:20:47Z</time>
      </trkpt>
      <trkpt lat="45.87896" lon="4.51779">
        <ele>369</ele>
        <time>2025-09-10T14:20:48Z</time>
      </trkpt>
      <trkpt lat="45.87898" lon="4.51778">
        <ele>369</ele>
        <time>2025-09-10T14:20:49Z</time>
      </trkpt>
      <trkpt lat="45.87899" lon="4.51778">
        <ele>369</ele>
        <time>2025-09-10T14:20:50Z</time>
      </trkpt>
      <trkpt lat="45.879" lon="4.51777">
        <ele>369</ele>
        <time>2025-09-10T14:20:51Z</time>
      </trkpt>
      <trkpt lat="45.87902" lon="4.51776">
        <ele>369.4</ele>
        <time>2025-09-10T14:20:52Z</time>
      </trkpt>
      <trkpt lat="45.87904" lon="4.51775">
        <ele>369.6</ele>
        <time>2025-09-10T14:20:53Z</time>
      </trkpt>
      <trkpt lat="45.87905" lon="4.51774">
        <ele>370</ele>
        <time>2025-09-10T14:20:54Z</time>
      </trkpt>
      <trkpt lat="45.87906" lon="4.51773">
        <ele>370</ele>
        <time>2025-09-10T14:20:55Z</time>
      </trkpt>
      <trkpt lat="45.87908" lon="4.51772">
        <ele>370</ele>
        <time>2025-09-10T14:20:56Z</time>
      </trkpt>
      <trkpt lat="45.87909" lon="4.5177">
        <ele>370.2</ele>
        <time>2025-09-10T14:20:57Z</time>
      </trkpt>
      <trkpt lat="45.87911" lon="4.51769">
        <ele>370.2</ele>
        <time>2025-09-10T14:20:58Z</time>
      </trkpt>
      <trkpt lat="45.87912" lon="4.51769">
        <ele>370.2</ele>
        <time>2025-09-10T14:20:59Z</time>
      </trkpt>
      <trkpt lat="45.87914" lon="4.51768">
        <ele>370.4</ele>
        <time>2025-09-10T14:21:00Z</time>
      </trkpt>
      <trkpt lat="45.87915" lon="4.51767">
        <ele>370.4</ele>
        <time>2025-09-10T14:21:01Z</time>
      </trkpt>
      <trkpt lat="45.87917" lon="4.51766">
        <ele>370.6</ele>
        <time>2025-09-10T14:21:02Z</time>
      </trkpt>
      <trkpt lat="45.87919" lon="4.51765">
        <ele>370.6</ele>
        <time>2025-09-10T14:21:03Z</time>
      </trkpt>
      <trkpt lat="45.87921" lon="4.51765">
        <ele>370.6</ele>
        <time>2025-09-10T14:21:04Z</time>
      </trkpt>
      <trkpt lat="45.87923" lon="4.51765">
        <ele>370.6</ele>
        <time>2025-09-10T14:21:05Z</time>
      </trkpt>
      <trkpt lat="45.87925" lon="4.51764">
        <ele>370.6</ele>
        <time>2025-09-10T14:21:06Z</time>
      </trkpt>
      <trkpt lat="45.87927" lon="4.51764">
        <ele>370.6</ele>
        <time>2025-09-10T14:21:07Z</time>
      </trkpt>
      <trkpt lat="45.87929" lon="4.51763">
        <ele>370.6</ele>
        <time>2025-09-10T14:21:08Z</time>
      </trkpt>
      <trkpt lat="45.87931" lon="4.51763">
        <ele>370.6</ele>
        <time>2025-09-10T14:21:09Z</time>
      </trkpt>
      <trkpt lat="45.87933" lon="4.51763">
        <ele>370.8</ele>
        <time>2025-09-10T14:21:10Z</time>
      </trkpt>
      <trkpt lat="45.87935" lon="4.51763">
        <ele>370.8</ele>
        <time>2025-09-10T14:21:11Z</time>
      </trkpt>
      <trkpt lat="45.87937" lon="4.51762">
        <ele>370.8</ele>
        <time>2025-09-10T14:21:12Z</time>
      </trkpt>
      <trkpt lat="45.87939" lon="4.51762">
        <ele>370.8</ele>
        <time>2025-09-10T14:21:13Z</time>
      </trkpt>
      <trkpt lat="45.87941" lon="4.51762">
        <ele>370.8</ele>
        <time>2025-09-10T14:21:14Z</time>
      </trkpt>
      <trkpt lat="45.87943" lon="4.51762">
        <ele>370.8</ele>
        <time>2025-09-10T14:21:15Z</time>
      </trkpt>
      <trkpt lat="45.87945" lon="4.51761">
        <ele>370.8</ele>
        <time>2025-09-10T14:21:16Z</time>
      </trkpt>
      <trkpt lat="45.87947" lon="4.51761">
        <ele>370.8</ele>
        <time>2025-09-10T14:21:17Z</time>
      </trkpt>
      <trkpt lat="45.87949" lon="4.51761">
        <ele>370.8</ele>
        <time>2025-09-10T14:21:18Z</time>
      </trkpt>
      <trkpt lat="45.87951" lon="4.51761">
        <ele>371.2</ele>
        <time>2025-09-10T14:21:19Z</time>
      </trkpt>
      <trkpt lat="45.87952" lon="4.51762">
        <ele>371.2</ele>
        <time>2025-09-10T14:21:20Z</time>
      </trkpt>
      <trkpt lat="45.87954" lon="4.51762">
        <ele>371.4</ele>
        <time>2025-09-10T14:21:21Z</time>
      </trkpt>
      <trkpt lat="45.87957" lon="4.51762">
        <ele>371.4</ele>
        <time>2025-09-10T14:21:22Z</time>
      </trkpt>
      <trkpt lat="45.87959" lon="4.51762">
        <ele>371.6</ele>
        <time>2025-09-10T14:21:23Z</time>
      </trkpt>
      <trkpt lat="45.87961" lon="4.51761">
        <ele>371.6</ele>
        <time>2025-09-10T14:21:24Z</time>
      </trkpt>
      <trkpt lat="45.87962" lon="4.5176">
        <ele>371.6</ele>
        <time>2025-09-10T14:21:25Z</time>
      </trkpt>
      <trkpt lat="45.87964" lon="4.5176">
        <ele>371.8</ele>
        <time>2025-09-10T14:21:26Z</time>
      </trkpt>
      <trkpt lat="45.87966" lon="4.51761">
        <ele>371.8</ele>
        <time>2025-09-10T14:21:27Z</time>
      </trkpt>
      <trkpt lat="45.87967" lon="4.51762">
        <ele>371.8</ele>
        <time>2025-09-10T14:21:28Z</time>
      </trkpt>
      <trkpt lat="45.87969" lon="4.51763">
        <ele>371.8</ele>
        <time>2025-09-10T14:21:29Z</time>
      </trkpt>
      <trkpt lat="45.87972" lon="4.51763">
        <ele>372</ele>
        <time>2025-09-10T14:21:30Z</time>
      </trkpt>
      <trkpt lat="45.87973" lon="4.51762">
        <ele>372</ele>
        <time>2025-09-10T14:21:31Z</time>
      </trkpt>
      <trkpt lat="45.87975" lon="4.51762">
        <ele>372</ele>
        <time>2025-09-10T14:21:32Z</time>
      </trkpt>
      <trkpt lat="45.87977" lon="4.51762">
        <ele>372.4</ele>
        <time>2025-09-10T14:21:33Z</time>
      </trkpt>
      <trkpt lat="45.87979" lon="4.51762">
        <ele>372.4</ele>
        <time>2025-09-10T14:21:34Z</time>
      </trkpt>
      <trkpt lat="45.87981" lon="4.51761">
        <ele>372.4</ele>
        <time>2025-09-10T14:21:35Z</time>
      </trkpt>
      <trkpt lat="45.87982" lon="4.5176">
        <ele>372.6</ele>
        <time>2025-09-10T14:21:36Z</time>
      </trkpt>
      <trkpt lat="45.87984" lon="4.5176">
        <ele>372.6</ele>
        <time>2025-09-10T14:21:37Z</time>
      </trkpt>
      <trkpt lat="45.87986" lon="4.5176">
        <ele>372.6</ele>
        <time>2025-09-10T14:21:38Z</time>
      </trkpt>
      <trkpt lat="45.87988" lon="4.5176">
        <ele>372.6</ele>
        <time>2025-09-10T14:21:39Z</time>
      </trkpt>
      <trkpt lat="45.8799" lon="4.51759">
        <ele>372.6</ele>
        <time>2025-09-10T14:21:40Z</time>
      </trkpt>
      <trkpt lat="45.87991" lon="4.51758">
        <ele>372.6</ele>
        <time>2025-09-10T14:21:41Z</time>
      </trkpt>
      <trkpt lat="45.87993" lon="4.51756">
        <ele>372.6</ele>
        <time>2025-09-10T14:21:42Z</time>
      </trkpt>
      <trkpt lat="45.87995" lon="4.51755">
        <ele>372.8</ele>
        <time>2025-09-10T14:21:43Z</time>
      </trkpt>
      <trkpt lat="45.87997" lon="4.51755">
        <ele>372.8</ele>
        <time>2025-09-10T14:21:44Z</time>
      </trkpt>
      <trkpt lat="45.87998" lon="4.51755">
        <ele>372.8</ele>
        <time>2025-09-10T14:21:45Z</time>
      </trkpt>
      <trkpt lat="45.88" lon="4.51756">
        <ele>373</ele>
        <time>2025-09-10T14:21:46Z</time>
      </trkpt>
      <trkpt lat="45.88002" lon="4.51757">
        <ele>373</ele>
        <time>2025-09-10T14:21:47Z</time>
      </trkpt>
      <trkpt lat="45.88004" lon="4.51757">
        <ele>373</ele>
        <time>2025-09-10T14:21:48Z</time>
      </trkpt>
      <trkpt lat="45.88006" lon="4.51757">
        <ele>373</ele>
        <time>2025-09-10T14:21:49Z</time>
      </trkpt>
      <trkpt lat="45.88008" lon="4.51756">
        <ele>373</ele>
        <time>2025-09-10T14:21:50Z</time>
      </trkpt>
      <trkpt lat="45.8801" lon="4.51755">
        <ele>373</ele>
        <time>2025-09-10T14:21:51Z</time>
      </trkpt>
      <trkpt lat="45.88013" lon="4.51754">
        <ele>373</ele>
        <time>2025-09-10T14:21:52Z</time>
      </trkpt>
      <trkpt lat="45.88015" lon="4.51754">
        <ele>373.4</ele>
        <time>2025-09-10T14:21:53Z</time>
      </trkpt>
      <trkpt lat="45.88017" lon="4.51755">
        <ele>373.4</ele>
        <time>2025-09-10T14:21:54Z</time>
      </trkpt>
      <trkpt lat="45.88019" lon="4.51755">
        <ele>373.4</ele>
        <time>2025-09-10T14:21:55Z</time>
      </trkpt>
      <trkpt lat="45.8802" lon="4.51754">
        <ele>373.4</ele>
        <time>2025-09-10T14:21:56Z</time>
      </trkpt>
      <trkpt lat="45.88022" lon="4.51754">
        <ele>373.6</ele>
        <time>2025-09-10T14:21:57Z</time>
      </trkpt>
      <trkpt lat="45.88023" lon="4.51753">
        <ele>373.6</ele>
        <time>2025-09-10T14:21:58Z</time>
      </trkpt>
      <trkpt lat="45.88025" lon="4.51753">
        <ele>373.6</ele>
        <time>2025-09-10T14:21:59Z</time>
      </trkpt>
      <trkpt lat="45.88027" lon="4.51752">
        <ele>374</ele>
        <time>2025-09-10T14:22:00Z</time>
      </trkpt>
      <trkpt lat="45.88028" lon="4.51752">
        <ele>374</ele>
        <time>2025-09-10T14:22:01Z</time>
      </trkpt>
      <trkpt lat="45.8803" lon="4.51751">
        <ele>374</ele>
        <time>2025-09-10T14:22:02Z</time>
      </trkpt>
      <trkpt lat="45.8803" lon="4.51751">
        <ele>374</ele>
        <time>2025-09-10T14:22:03Z</time>
      </trkpt>
      <trkpt lat="45.88032" lon="4.51751">
        <ele>374.2</ele>
        <time>2025-09-10T14:22:04Z</time>
      </trkpt>
      <trkpt lat="45.88033" lon="4.5175">
        <ele>374.2</ele>
        <time>2025-09-10T14:22:05Z</time>
      </trkpt>
      <trkpt lat="45.88035" lon="4.5175">
        <ele>374.2</ele>
        <time>2025-09-10T14:22:06Z</time>
      </trkpt>
      <trkpt lat="45.88037" lon="4.51749">
        <ele>374.2</ele>
        <time>2025-09-10T14:22:07Z</time>
      </trkpt>
      <trkpt lat="45.88039" lon="4.51749">
        <ele>374.2</ele>
        <time>2025-09-10T14:22:08Z</time>
      </trkpt>
      <trkpt lat="45.88041" lon="4.51749">
        <ele>374.2</ele>
        <time>2025-09-10T14:22:09Z</time>
      </trkpt>
      <trkpt lat="45.88043" lon="4.51748">
        <ele>374.6</ele>
        <time>2025-09-10T14:22:10Z</time>
      </trkpt>
      <trkpt lat="45.88044" lon="4.51748">
        <ele>374.8</ele>
        <time>2025-09-10T14:22:11Z</time>
      </trkpt>
      <trkpt lat="45.88046" lon="4.51747">
        <ele>374.8</ele>
        <time>2025-09-10T14:22:12Z</time>
      </trkpt>
      <trkpt lat="45.88047" lon="4.51747">
        <ele>374.8</ele>
        <time>2025-09-10T14:22:13Z</time>
      </trkpt>
      <trkpt lat="45.88049" lon="4.51747">
        <ele>374.8</ele>
        <time>2025-09-10T14:22:14Z</time>
      </trkpt>
      <trkpt lat="45.8805" lon="4.51746">
        <ele>374.8</ele>
        <time>2025-09-10T14:22:15Z</time>
      </trkpt>
      <trkpt lat="45.88052" lon="4.51747">
        <ele>374.8</ele>
        <time>2025-09-10T14:22:16Z</time>
      </trkpt>
      <trkpt lat="45.88053" lon="4.51747">
        <ele>375.2</ele>
        <time>2025-09-10T14:22:17Z</time>
      </trkpt>
      <trkpt lat="45.88054" lon="4.51747">
        <ele>375.2</ele>
        <time>2025-09-10T14:22:18Z</time>
      </trkpt>
      <trkpt lat="45.88056" lon="4.51747">
        <ele>375.6</ele>
        <time>2025-09-10T14:22:19Z</time>
      </trkpt>
      <trkpt lat="45.88057" lon="4.51747">
        <ele>375.6</ele>
        <time>2025-09-10T14:22:20Z</time>
      </trkpt>
      <trkpt lat="45.88058" lon="4.51746">
        <ele>376</ele>
        <time>2025-09-10T14:22:21Z</time>
      </trkpt>
      <trkpt lat="45.8806" lon="4.51745">
        <ele>376</ele>
        <time>2025-09-10T14:22:22Z</time>
      </trkpt>
      <trkpt lat="45.88061" lon="4.51745">
        <ele>376.2</ele>
        <time>2025-09-10T14:22:23Z</time>
      </trkpt>
      <trkpt lat="45.88063" lon="4.51744">
        <ele>376.6</ele>
        <time>2025-09-10T14:22:24Z</time>
      </trkpt>
      <trkpt lat="45.88064" lon="4.51744">
        <ele>376.8</ele>
        <time>2025-09-10T14:22:25Z</time>
      </trkpt>
      <trkpt lat="45.88066" lon="4.51744">
        <ele>376.8</ele>
        <time>2025-09-10T14:22:26Z</time>
      </trkpt>
      <trkpt lat="45.88067" lon="4.51743">
        <ele>377</ele>
        <time>2025-09-10T14:22:27Z</time>
      </trkpt>
      <trkpt lat="45.88068" lon="4.51743">
        <ele>377</ele>
        <time>2025-09-10T14:22:28Z</time>
      </trkpt>
      <trkpt lat="45.8807" lon="4.51743">
        <ele>377.4</ele>
        <time>2025-09-10T14:22:29Z</time>
      </trkpt>
      <trkpt lat="45.88071" lon="4.51743">
        <ele>377.4</ele>
        <time>2025-09-10T14:22:30Z</time>
      </trkpt>
      <trkpt lat="45.88073" lon="4.51743">
        <ele>377.6</ele>
        <time>2025-09-10T14:22:31Z</time>
      </trkpt>
      <trkpt lat="45.88074" lon="4.51743">
        <ele>377.6</ele>
        <time>2025-09-10T14:22:32Z</time>
      </trkpt>
      <trkpt lat="45.88075" lon="4.51743">
        <ele>377.8</ele>
        <time>2025-09-10T14:22:33Z</time>
      </trkpt>
      <trkpt lat="45.88076" lon="4.51743">
        <ele>377.8</ele>
        <time>2025-09-10T14:22:34Z</time>
      </trkpt>
      <trkpt lat="45.88078" lon="4.51743">
        <ele>377.8</ele>
        <time>2025-09-10T14:22:35Z</time>
      </trkpt>
      <trkpt lat="45.88079" lon="4.51743">
        <ele>377.8</ele>
        <time>2025-09-10T14:22:36Z</time>
      </trkpt>
      <trkpt lat="45.8808" lon="4.51743">
        <ele>378</ele>
        <time>2025-09-10T14:22:37Z</time>
      </trkpt>
      <trkpt lat="45.88082" lon="4.51743">
        <ele>378</ele>
        <time>2025-09-10T14:22:38Z</time>
      </trkpt>
      <trkpt lat="45.88083" lon="4.51743">
        <ele>378</ele>
        <time>2025-09-10T14:22:39Z</time>
      </trkpt>
      <trkpt lat="45.88085" lon="4.51743">
        <ele>378</ele>
        <time>2025-09-10T14:22:40Z</time>
      </trkpt>
      <trkpt lat="45.88086" lon="4.51743">
        <ele>378.4</ele>
        <time>2025-09-10T14:22:41Z</time>
      </trkpt>
      <trkpt lat="45.88088" lon="4.51743">
        <ele>378.4</ele>
        <time>2025-09-10T14:22:42Z</time>
      </trkpt>
      <trkpt lat="45.8809" lon="4.51743">
        <ele>378.6</ele>
        <time>2025-09-10T14:22:43Z</time>
      </trkpt>
      <trkpt lat="45.88091" lon="4.51744">
        <ele>378.6</ele>
        <time>2025-09-10T14:22:44Z</time>
      </trkpt>
      <trkpt lat="45.88093" lon="4.51744">
        <ele>379</ele>
        <time>2025-09-10T14:22:45Z</time>
      </trkpt>
      <trkpt lat="45.88094" lon="4.51744">
        <ele>379</ele>
        <time>2025-09-10T14:22:46Z</time>
      </trkpt>
      <trkpt lat="45.88095" lon="4.51744">
        <ele>379</ele>
        <time>2025-09-10T14:22:47Z</time>
      </trkpt>
      <trkpt lat="45.88096" lon="4.51744">
        <ele>379</ele>
        <time>2025-09-10T14:22:48Z</time>
      </trkpt>
      <trkpt lat="45.88098" lon="4.51744">
        <ele>379</ele>
        <time>2025-09-10T14:22:49Z</time>
      </trkpt>
      <trkpt lat="45.88099" lon="4.51744">
        <ele>379</ele>
        <time>2025-09-10T14:22:50Z</time>
      </trkpt>
      <trkpt lat="45.881" lon="4.51744">
        <ele>379</ele>
        <time>2025-09-10T14:22:51Z</time>
      </trkpt>
      <trkpt lat="45.88102" lon="4.51744">
        <ele>379.2</ele>
        <time>2025-09-10T14:22:52Z</time>
      </trkpt>
      <trkpt lat="45.88103" lon="4.51744">
        <ele>379.2</ele>
        <time>2025-09-10T14:22:53Z</time>
      </trkpt>
      <trkpt lat="45.88105" lon="4.51744">
        <ele>379.2</ele>
        <time>2025-09-10T14:22:54Z</time>
      </trkpt>
      <trkpt lat="45.88106" lon="4.51744">
        <ele>379.6</ele>
        <time>2025-09-10T14:22:55Z</time>
      </trkpt>
      <trkpt lat="45.88107" lon="4.51744">
        <ele>379.6</ele>
        <time>2025-09-10T14:22:56Z</time>
      </trkpt>
      <trkpt lat="45.88108" lon="4.51744">
        <ele>379.8</ele>
        <time>2025-09-10T14:22:57Z</time>
      </trkpt>
      <trkpt lat="45.8811" lon="4.51743">
        <ele>379.8</ele>
        <time>2025-09-10T14:22:58Z</time>
      </trkpt>
      <trkpt lat="45.88111" lon="4.51743">
        <ele>379.8</ele>
        <time>2025-09-10T14:22:59Z</time>
      </trkpt>
      <trkpt lat="45.88113" lon="4.51742">
        <ele>380.2</ele>
        <time>2025-09-10T14:23:00Z</time>
      </trkpt>
      <trkpt lat="45.88114" lon="4.51742">
        <ele>380.2</ele>
        <time>2025-09-10T14:23:01Z</time>
      </trkpt>
      <trkpt lat="45.88116" lon="4.51741">
        <ele>380.4</ele>
        <time>2025-09-10T14:23:02Z</time>
      </trkpt>
      <trkpt lat="45.88117" lon="4.51741">
        <ele>380.4</ele>
        <time>2025-09-10T14:23:03Z</time>
      </trkpt>
      <trkpt lat="45.88119" lon="4.51741">
        <ele>380.4</ele>
        <time>2025-09-10T14:23:04Z</time>
      </trkpt>
      <trkpt lat="45.8812" lon="4.51741">
        <ele>380.4</ele>
        <time>2025-09-10T14:23:05Z</time>
      </trkpt>
      <trkpt lat="45.88122" lon="4.51741">
        <ele>380.4</ele>
        <time>2025-09-10T14:23:06Z</time>
      </trkpt>
      <trkpt lat="45.88123" lon="4.51741">
        <ele>380.6</ele>
        <time>2025-09-10T14:23:07Z</time>
      </trkpt>
      <trkpt lat="45.88125" lon="4.51741">
        <ele>380.6</ele>
        <time>2025-09-10T14:23:08Z</time>
      </trkpt>
      <trkpt lat="45.88126" lon="4.51742">
        <ele>380.6</ele>
        <time>2025-09-10T14:23:09Z</time>
      </trkpt>
      <trkpt lat="45.88128" lon="4.51742">
        <ele>381</ele>
        <time>2025-09-10T14:23:10Z</time>
      </trkpt>
      <trkpt lat="45.8813" lon="4.51742">
        <ele>381.2</ele>
        <time>2025-09-10T14:23:11Z</time>
      </trkpt>
      <trkpt lat="45.88131" lon="4.51742">
        <ele>381.2</ele>
        <time>2025-09-10T14:23:12Z</time>
      </trkpt>
      <trkpt lat="45.88133" lon="4.51742">
        <ele>381.6</ele>
        <time>2025-09-10T14:23:13Z</time>
      </trkpt>
      <trkpt lat="45.88134" lon="4.51743">
        <ele>381.6</ele>
        <time>2025-09-10T14:23:14Z</time>
      </trkpt>
      <trkpt lat="45.88136" lon="4.51743">
        <ele>381.6</ele>
        <time>2025-09-10T14:23:15Z</time>
      </trkpt>
      <trkpt lat="45.88137" lon="4.51743">
        <ele>381.8</ele>
        <time>2025-09-10T14:23:16Z</time>
      </trkpt>
      <trkpt lat="45.88139" lon="4.51744">
        <ele>381.8</ele>
        <time>2025-09-10T14:23:17Z</time>
      </trkpt>
      <trkpt lat="45.8814" lon="4.51744">
        <ele>382.2</ele>
        <time>2025-09-10T14:23:18Z</time>
      </trkpt>
      <trkpt lat="45.88142" lon="4.51744">
        <ele>382.2</ele>
        <time>2025-09-10T14:23:19Z</time>
      </trkpt>
      <trkpt lat="45.88143" lon="4.51744">
        <ele>382.2</ele>
        <time>2025-09-10T14:23:20Z</time>
      </trkpt>
      <trkpt lat="45.88145" lon="4.51745">
        <ele>382.4</ele>
        <time>2025-09-10T14:23:21Z</time>
      </trkpt>
      <trkpt lat="45.88146" lon="4.51745">
        <ele>382.4</ele>
        <time>2025-09-10T14:23:22Z</time>
      </trkpt>
      <trkpt lat="45.88149" lon="4.51747">
        <ele>382.4</ele>
        <time>2025-09-10T14:23:23Z</time>
      </trkpt>
      <trkpt lat="45.8815" lon="4.51747">
        <ele>382.4</ele>
        <time>2025-09-10T14:23:24Z</time>
      </trkpt>
      <trkpt lat="45.88152" lon="4.51747">
        <ele>382.6</ele>
        <time>2025-09-10T14:23:25Z</time>
      </trkpt>
      <trkpt lat="45.88154" lon="4.51746">
        <ele>382.6</ele>
        <time>2025-09-10T14:23:26Z</time>
      </trkpt>
      <trkpt lat="45.88155" lon="4.51746">
        <ele>382.8</ele>
        <time>2025-09-10T14:23:27Z</time>
      </trkpt>
      <trkpt lat="45.88156" lon="4.51746">
        <ele>382.8</ele>
        <time>2025-09-10T14:23:28Z</time>
      </trkpt>
      <trkpt lat="45.88158" lon="4.51747">
        <ele>382.8</ele>
        <time>2025-09-10T14:23:29Z</time>
      </trkpt>
      <trkpt lat="45.8816" lon="4.51747">
        <ele>382.8</ele>
        <time>2025-09-10T14:23:30Z</time>
      </trkpt>
      <trkpt lat="45.88161" lon="4.51746">
        <ele>382.8</ele>
        <time>2025-09-10T14:23:31Z</time>
      </trkpt>
      <trkpt lat="45.88163" lon="4.51746">
        <ele>383.2</ele>
        <time>2025-09-10T14:23:32Z</time>
      </trkpt>
      <trkpt lat="45.88164" lon="4.51745">
        <ele>383.2</ele>
        <time>2025-09-10T14:23:33Z</time>
      </trkpt>
      <trkpt lat="45.88166" lon="4.51745">
        <ele>383.2</ele>
        <time>2025-09-10T14:23:34Z</time>
      </trkpt>
      <trkpt lat="45.88167" lon="4.51746">
        <ele>383.2</ele>
        <time>2025-09-10T14:23:35Z</time>
      </trkpt>
      <trkpt lat="45.88169" lon="4.51746">
        <ele>383.4</ele>
        <time>2025-09-10T14:23:36Z</time>
      </trkpt>
      <trkpt lat="45.88169" lon="4.51746">
        <ele>383.4</ele>
        <time>2025-09-10T14:23:37Z</time>
      </trkpt>
      <trkpt lat="45.88171" lon="4.51746">
        <ele>383.4</ele>
        <time>2025-09-10T14:23:38Z</time>
      </trkpt>
      <trkpt lat="45.88172" lon="4.51745">
        <ele>383.4</ele>
        <time>2025-09-10T14:23:39Z</time>
      </trkpt>
      <trkpt lat="45.88173" lon="4.51743">
        <ele>383.6</ele>
        <time>2025-09-10T14:23:40Z</time>
      </trkpt>
      <trkpt lat="45.88174" lon="4.51742">
        <ele>383.6</ele>
        <time>2025-09-10T14:23:41Z</time>
      </trkpt>
      <trkpt lat="45.88175" lon="4.51741">
        <ele>384</ele>
        <time>2025-09-10T14:23:42Z</time>
      </trkpt>
      <trkpt lat="45.88177" lon="4.51739">
        <ele>384</ele>
        <time>2025-09-10T14:23:43Z</time>
      </trkpt>
      <trkpt lat="45.88178" lon="4.51738">
        <ele>384</ele>
        <time>2025-09-10T14:23:44Z</time>
      </trkpt>
      <trkpt lat="45.88179" lon="4.51736">
        <ele>384</ele>
        <time>2025-09-10T14:23:45Z</time>
      </trkpt>
      <trkpt lat="45.88181" lon="4.51735">
        <ele>384</ele>
        <time>2025-09-10T14:23:46Z</time>
      </trkpt>
      <trkpt lat="45.88182" lon="4.51733">
        <ele>384.2</ele>
        <time>2025-09-10T14:23:47Z</time>
      </trkpt>
      <trkpt lat="45.88183" lon="4.51732">
        <ele>384.4</ele>
        <time>2025-09-10T14:23:48Z</time>
      </trkpt>
      <trkpt lat="45.88184" lon="4.5173">
        <ele>384.4</ele>
        <time>2025-09-10T14:23:49Z</time>
      </trkpt>
      <trkpt lat="45.88185" lon="4.51728">
        <ele>384.4</ele>
        <time>2025-09-10T14:23:50Z</time>
      </trkpt>
      <trkpt lat="45.88185" lon="4.51725">
        <ele>384.4</ele>
        <time>2025-09-10T14:23:51Z</time>
      </trkpt>
      <trkpt lat="45.88186" lon="4.51723">
        <ele>384.4</ele>
        <time>2025-09-10T14:23:52Z</time>
      </trkpt>
      <trkpt lat="45.88187" lon="4.51721">
        <ele>384.6</ele>
        <time>2025-09-10T14:23:53Z</time>
      </trkpt>
      <trkpt lat="45.88188" lon="4.51719">
        <ele>384.6</ele>
        <time>2025-09-10T14:23:54Z</time>
      </trkpt>
      <trkpt lat="45.88189" lon="4.51717">
        <ele>384.6</ele>
        <time>2025-09-10T14:23:55Z</time>
      </trkpt>
      <trkpt lat="45.8819" lon="4.51715">
        <ele>384.6</ele>
        <time>2025-09-10T14:23:56Z</time>
      </trkpt>
      <trkpt lat="45.88191" lon="4.51713">
        <ele>384.6</ele>
        <time>2025-09-10T14:23:57Z</time>
      </trkpt>
      <trkpt lat="45.88191" lon="4.51711">
        <ele>384.8</ele>
        <time>2025-09-10T14:23:58Z</time>
      </trkpt>
      <trkpt lat="45.88192" lon="4.51709">
        <ele>384.8</ele>
        <time>2025-09-10T14:23:59Z</time>
      </trkpt>
      <trkpt lat="45.88193" lon="4.51707">
        <ele>384.8</ele>
        <time>2025-09-10T14:24:00Z</time>
      </trkpt>
      <trkpt lat="45.88194" lon="4.51706">
        <ele>385.2</ele>
        <time>2025-09-10T14:24:01Z</time>
      </trkpt>
      <trkpt lat="45.88196" lon="4.51703">
        <ele>385.2</ele>
        <time>2025-09-10T14:24:02Z</time>
      </trkpt>
      <trkpt lat="45.88197" lon="4.51701">
        <ele>385.2</ele>
        <time>2025-09-10T14:24:03Z</time>
      </trkpt>
      <trkpt lat="45.88198" lon="4.517">
        <ele>385.4</ele>
        <time>2025-09-10T14:24:04Z</time>
      </trkpt>
      <trkpt lat="45.88199" lon="4.51699">
        <ele>385.4</ele>
        <time>2025-09-10T14:24:05Z</time>
      </trkpt>
      <trkpt lat="45.882" lon="4.51697">
        <ele>385.6</ele>
        <time>2025-09-10T14:24:06Z</time>
      </trkpt>
      <trkpt lat="45.88201" lon="4.51696">
        <ele>385.6</ele>
        <time>2025-09-10T14:24:07Z</time>
      </trkpt>
      <trkpt lat="45.88202" lon="4.51695">
        <ele>385.6</ele>
        <time>2025-09-10T14:24:08Z</time>
      </trkpt>
      <trkpt lat="45.88203" lon="4.51693">
        <ele>385.6</ele>
        <time>2025-09-10T14:24:09Z</time>
      </trkpt>
      <trkpt lat="45.88204" lon="4.51692">
        <ele>386</ele>
        <time>2025-09-10T14:24:10Z</time>
      </trkpt>
      <trkpt lat="45.88205" lon="4.5169">
        <ele>386</ele>
        <time>2025-09-10T14:24:11Z</time>
      </trkpt>
      <trkpt lat="45.88206" lon="4.51688">
        <ele>386</ele>
        <time>2025-09-10T14:24:12Z</time>
      </trkpt>
      <trkpt lat="45.88207" lon="4.51687">
        <ele>386.4</ele>
        <time>2025-09-10T14:24:13Z</time>
      </trkpt>
      <trkpt lat="45.88208" lon="4.51685">
        <ele>386.6</ele>
        <time>2025-09-10T14:24:14Z</time>
      </trkpt>
      <trkpt lat="45.88208" lon="4.51684">
        <ele>386.6</ele>
        <time>2025-09-10T14:24:15Z</time>
      </trkpt>
      <trkpt lat="45.88209" lon="4.51683">
        <ele>386.8</ele>
        <time>2025-09-10T14:24:16Z</time>
      </trkpt>
      <trkpt lat="45.8821" lon="4.51681">
        <ele>386.8</ele>
        <time>2025-09-10T14:24:17Z</time>
      </trkpt>
      <trkpt lat="45.88211" lon="4.5168">
        <ele>386.8</ele>
        <time>2025-09-10T14:24:18Z</time>
      </trkpt>
      <trkpt lat="45.88212" lon="4.51679">
        <ele>386.8</ele>
        <time>2025-09-10T14:24:19Z</time>
      </trkpt>
      <trkpt lat="45.88213" lon="4.51677">
        <ele>387</ele>
        <time>2025-09-10T14:24:20Z</time>
      </trkpt>
      <trkpt lat="45.88214" lon="4.51676">
        <ele>387</ele>
        <time>2025-09-10T14:24:21Z</time>
      </trkpt>
      <trkpt lat="45.88215" lon="4.51674">
        <ele>387</ele>
        <time>2025-09-10T14:24:22Z</time>
      </trkpt>
      <trkpt lat="45.88216" lon="4.51672">
        <ele>387.2</ele>
        <time>2025-09-10T14:24:23Z</time>
      </trkpt>
      <trkpt lat="45.88217" lon="4.51671">
        <ele>387.2</ele>
        <time>2025-09-10T14:24:24Z</time>
      </trkpt>
      <trkpt lat="45.88217" lon="4.51669">
        <ele>387.4</ele>
        <time>2025-09-10T14:24:25Z</time>
      </trkpt>
      <trkpt lat="45.88219" lon="4.51668">
        <ele>387.8</ele>
        <time>2025-09-10T14:24:26Z</time>
      </trkpt>
      <trkpt lat="45.88221" lon="4.51666">
        <ele>388</ele>
        <time>2025-09-10T14:24:27Z</time>
      </trkpt>
      <trkpt lat="45.88222" lon="4.51665">
        <ele>388</ele>
        <time>2025-09-10T14:24:28Z</time>
      </trkpt>
      <trkpt lat="45.88223" lon="4.51664">
        <ele>388.4</ele>
        <time>2025-09-10T14:24:29Z</time>
      </trkpt>
      <trkpt lat="45.88224" lon="4.51663">
        <ele>388.4</ele>
        <time>2025-09-10T14:24:30Z</time>
      </trkpt>
      <trkpt lat="45.88225" lon="4.51661">
        <ele>388.4</ele>
        <time>2025-09-10T14:24:31Z</time>
      </trkpt>
      <trkpt lat="45.88226" lon="4.5166">
        <ele>388.8</ele>
        <time>2025-09-10T14:24:32Z</time>
      </trkpt>
      <trkpt lat="45.88227" lon="4.51659">
        <ele>389</ele>
        <time>2025-09-10T14:24:33Z</time>
      </trkpt>
      <trkpt lat="45.88228" lon="4.51658">
        <ele>389</ele>
        <time>2025-09-10T14:24:34Z</time>
      </trkpt>
      <trkpt lat="45.88229" lon="4.51656">
        <ele>389.2</ele>
        <time>2025-09-10T14:24:35Z</time>
      </trkpt>
      <trkpt lat="45.8823" lon="4.51655">
        <ele>389.2</ele>
        <time>2025-09-10T14:24:36Z</time>
      </trkpt>
      <trkpt lat="45.8823" lon="4.51653">
        <ele>389.2</ele>
        <time>2025-09-10T14:24:37Z</time>
      </trkpt>
      <trkpt lat="45.88231" lon="4.51652">
        <ele>389.4</ele>
        <time>2025-09-10T14:24:38Z</time>
      </trkpt>
      <trkpt lat="45.88231" lon="4.51651">
        <ele>389.4</ele>
        <time>2025-09-10T14:24:39Z</time>
      </trkpt>
      <trkpt lat="45.88232" lon="4.51651">
        <ele>389.6</ele>
        <time>2025-09-10T14:24:40Z</time>
      </trkpt>
      <trkpt lat="45.88232" lon="4.5165">
        <ele>389.6</ele>
        <time>2025-09-10T14:24:41Z</time>
      </trkpt>
      <trkpt lat="45.88232" lon="4.51649">
        <ele>389.6</ele>
        <time>2025-09-10T14:24:45Z</time>
      </trkpt>
      <trkpt lat="45.88234" lon="4.51647">
        <ele>389.6</ele>
        <time>2025-09-10T14:24:46Z</time>
      </trkpt>
      <trkpt lat="45.88235" lon="4.51646">
        <ele>389.6</ele>
        <time>2025-09-10T14:24:47Z</time>
      </trkpt>
      <trkpt lat="45.88237" lon="4.51645">
        <ele>389.6</ele>
        <time>2025-09-10T14:24:48Z</time>
      </trkpt>
      <trkpt lat="45.88239" lon="4.51646">
        <ele>389.6</ele>
        <time>2025-09-10T14:24:49Z</time>
      </trkpt>
      <trkpt lat="45.88241" lon="4.51648">
        <ele>389.6</ele>
        <time>2025-09-10T14:24:50Z</time>
      </trkpt>
      <trkpt lat="45.88243" lon="4.51651">
        <ele>389.6</ele>
        <time>2025-09-10T14:24:51Z</time>
      </trkpt>
      <trkpt lat="45.88245" lon="4.51652">
        <ele>389.6</ele>
        <time>2025-09-10T14:24:52Z</time>
      </trkpt>
      <trkpt lat="45.88247" lon="4.51653">
        <ele>389.6</ele>
        <time>2025-09-10T14:24:53Z</time>
      </trkpt>
      <trkpt lat="45.88249" lon="4.51653">
        <ele>389.8</ele>
        <time>2025-09-10T14:24:54Z</time>
      </trkpt>
      <trkpt lat="45.88251" lon="4.51652">
        <ele>389.8</ele>
        <time>2025-09-10T14:24:55Z</time>
      </trkpt>
      <trkpt lat="45.88253" lon="4.51652">
        <ele>389.8</ele>
        <time>2025-09-10T14:24:56Z</time>
      </trkpt>
      <trkpt lat="45.88255" lon="4.51653">
        <ele>389.8</ele>
        <time>2025-09-10T14:24:57Z</time>
      </trkpt>
      <trkpt lat="45.88258" lon="4.51653">
        <ele>389.8</ele>
        <time>2025-09-10T14:24:58Z</time>
      </trkpt>
      <trkpt lat="45.8826" lon="4.51653">
        <ele>389.8</ele>
        <time>2025-09-10T14:24:59Z</time>
      </trkpt>
      <trkpt lat="45.88262" lon="4.51654">
        <ele>389.8</ele>
        <time>2025-09-10T14:25:00Z</time>
      </trkpt>
      <trkpt lat="45.88265" lon="4.51654">
        <ele>389.8</ele>
        <time>2025-09-10T14:25:01Z</time>
      </trkpt>
      <trkpt lat="45.88267" lon="4.51654">
        <ele>390.2</ele>
        <time>2025-09-10T14:25:02Z</time>
      </trkpt>
      <trkpt lat="45.8827" lon="4.51655">
        <ele>390.2</ele>
        <time>2025-09-10T14:25:03Z</time>
      </trkpt>
      <trkpt lat="45.88272" lon="4.51655">
        <ele>390.2</ele>
        <time>2025-09-10T14:25:04Z</time>
      </trkpt>
      <trkpt lat="45.88311" lon="4.51655">
        <ele>390.6</ele>
        <time>2025-09-10T14:26:46Z</time>
      </trkpt>
      <trkpt lat="45.88309" lon="4.51655">
        <ele>390.6</ele>
        <time>2025-09-10T14:26:47Z</time>
      </trkpt>
      <trkpt lat="45.88308" lon="4.51655">
        <ele>390.2</ele>
        <time>2025-09-10T14:26:48Z</time>
      </trkpt>
      <trkpt lat="45.88306" lon="4.51655">
        <ele>390.2</ele>
        <time>2025-09-10T14:26:49Z</time>
      </trkpt>
      <trkpt lat="45.88304" lon="4.51656">
        <ele>390.2</ele>
        <time>2025-09-10T14:26:50Z</time>
      </trkpt>
      <trkpt lat="45.88303" lon="4.51657">
        <ele>390.2</ele>
        <time>2025-09-10T14:26:51Z</time>
      </trkpt>
      <trkpt lat="45.88302" lon="4.51659">
        <ele>390.2</ele>
        <time>2025-09-10T14:26:52Z</time>
      </trkpt>
      <trkpt lat="45.88299" lon="4.5166">
        <ele>390.2</ele>
        <time>2025-09-10T14:26:53Z</time>
      </trkpt>
      <trkpt lat="45.88297" lon="4.5166">
        <ele>390.2</ele>
        <time>2025-09-10T14:26:54Z</time>
      </trkpt>
      <trkpt lat="45.88294" lon="4.5166">
        <ele>390.2</ele>
        <time>2025-09-10T14:26:55Z</time>
      </trkpt>
      <trkpt lat="45.88291" lon="4.51659">
        <ele>390.2</ele>
        <time>2025-09-10T14:26:56Z</time>
      </trkpt>
      <trkpt lat="45.88289" lon="4.51657">
        <ele>390</ele>
        <time>2025-09-10T14:26:57Z</time>
      </trkpt>
      <trkpt lat="45.88286" lon="4.51655">
        <ele>390</ele>
        <time>2025-09-10T14:26:58Z</time>
      </trkpt>
      <trkpt lat="45.88283" lon="4.51654">
        <ele>390</ele>
        <time>2025-09-10T14:26:59Z</time>
      </trkpt>
      <trkpt lat="45.88281" lon="4.51657">
        <ele>389.8</ele>
        <time>2025-09-10T14:27:00Z</time>
      </trkpt>
      <trkpt lat="45.88278" lon="4.51661">
        <ele>389.8</ele>
        <time>2025-09-10T14:27:01Z</time>
      </trkpt>
      <trkpt lat="45.88278" lon="4.51666">
        <ele>389.4</ele>
        <time>2025-09-10T14:27:02Z</time>
      </trkpt>
      <trkpt lat="45.88278" lon="4.51672">
        <ele>390.2</ele>
        <time>2025-09-10T14:27:03Z</time>
      </trkpt>
      <trkpt lat="45.88278" lon="4.51677">
        <ele>389.8</ele>
        <time>2025-09-10T14:27:04Z</time>
      </trkpt>
      <trkpt lat="45.88278" lon="4.51682">
        <ele>389.8</ele>
        <time>2025-09-10T14:27:05Z</time>
      </trkpt>
      <trkpt lat="45.88278" lon="4.51687">
        <ele>389.8</ele>
        <time>2025-09-10T14:27:06Z</time>
      </trkpt>
      <trkpt lat="45.88278" lon="4.51691">
        <ele>389.8</ele>
        <time>2025-09-10T14:27:07Z</time>
      </trkpt>
      <trkpt lat="45.88278" lon="4.51695">
        <ele>389.8</ele>
        <time>2025-09-10T14:27:08Z</time>
      </trkpt>
      <trkpt lat="45.88278" lon="4.517">
        <ele>389.8</ele>
        <time>2025-09-10T14:27:09Z</time>
      </trkpt>
      <trkpt lat="45.88277" lon="4.51704">
        <ele>389.8</ele>
        <time>2025-09-10T14:27:10Z</time>
      </trkpt>
      <trkpt lat="45.88277" lon="4.51709">
        <ele>389.4</ele>
        <time>2025-09-10T14:27:11Z</time>
      </trkpt>
      <trkpt lat="45.88276" lon="4.51713">
        <ele>389.4</ele>
        <time>2025-09-10T14:27:12Z</time>
      </trkpt>
      <trkpt lat="45.88275" lon="4.51717">
        <ele>389.4</ele>
        <time>2025-09-10T14:27:13Z</time>
      </trkpt>
      <trkpt lat="45.88274" lon="4.51722">
        <ele>389.2</ele>
        <time>2025-09-10T14:27:14Z</time>
      </trkpt>
      <trkpt lat="45.88274" lon="4.51728">
        <ele>389.2</ele>
        <time>2025-09-10T14:27:15Z</time>
      </trkpt>
      <trkpt lat="45.88274" lon="4.51733">
        <ele>389.2</ele>
        <time>2025-09-10T14:27:16Z</time>
      </trkpt>
      <trkpt lat="45.88277" lon="4.51739">
        <ele>389.2</ele>
        <time>2025-09-10T14:27:17Z</time>
      </trkpt>
      <trkpt lat="45.88279" lon="4.51745">
        <ele>389.2</ele>
        <time>2025-09-10T14:27:18Z</time>
      </trkpt>
      <trkpt lat="45.88283" lon="4.5175">
        <ele>388.8</ele>
        <time>2025-09-10T14:27:19Z</time>
      </trkpt>
      <trkpt lat="45.88287" lon="4.51754">
        <ele>388.8</ele>
        <time>2025-09-10T14:27:20Z</time>
      </trkpt>
      <trkpt lat="45.88291" lon="4.51757">
        <ele>388.8</ele>
        <time>2025-09-10T14:27:21Z</time>
      </trkpt>
      <trkpt lat="45.88296" lon="4.5176">
        <ele>388.6</ele>
        <time>2025-09-10T14:27:22Z</time>
      </trkpt>
      <trkpt lat="45.88301" lon="4.51764">
        <ele>388.6</ele>
        <time>2025-09-10T14:27:23Z</time>
      </trkpt>
      <trkpt lat="45.88305" lon="4.51767">
        <ele>388</ele>
        <time>2025-09-10T14:27:24Z</time>
      </trkpt>
      <trkpt lat="45.88311" lon="4.51769">
        <ele>387.6</ele>
        <time>2025-09-10T14:27:25Z</time>
      </trkpt>
      <trkpt lat="45.88317" lon="4.51773">
        <ele>387.4</ele>
        <time>2025-09-10T14:27:26Z</time>
      </trkpt>
      <trkpt lat="45.88327" lon="4.51778">
        <ele>387.2</ele>
        <time>2025-09-10T14:27:27Z</time>
      </trkpt>
      <trkpt lat="45.88331" lon="4.51783">
        <ele>387.2</ele>
        <time>2025-09-10T14:27:28Z</time>
      </trkpt>
      <trkpt lat="45.88335" lon="4.51789">
        <ele>386.8</ele>
        <time>2025-09-10T14:27:29Z</time>
      </trkpt>
      <trkpt lat="45.8834" lon="4.51794">
        <ele>386.8</ele>
        <time>2025-09-10T14:27:30Z</time>
      </trkpt>
      <trkpt lat="45.88343" lon="4.518">
        <ele>386.4</ele>
        <time>2025-09-10T14:27:31Z</time>
      </trkpt>
      <trkpt lat="45.88348" lon="4.51805">
        <ele>386.4</ele>
        <time>2025-09-10T14:27:32Z</time>
      </trkpt>
      <trkpt lat="45.88352" lon="4.51812">
        <ele>386</ele>
        <time>2025-09-10T14:27:33Z</time>
      </trkpt>
      <trkpt lat="45.88357" lon="4.51818">
        <ele>386</ele>
        <time>2025-09-10T14:27:34Z</time>
      </trkpt>
      <trkpt lat="45.88361" lon="4.51823">
        <ele>385.8</ele>
        <time>2025-09-10T14:27:35Z</time>
      </trkpt>
      <trkpt lat="45.88367" lon="4.51828">
        <ele>385.6</ele>
        <time>2025-09-10T14:27:36Z</time>
      </trkpt>
      <trkpt lat="45.88372" lon="4.51832">
        <ele>385.6</ele>
        <time>2025-09-10T14:27:37Z</time>
      </trkpt>
      <trkpt lat="45.88372" lon="4.51832">
        <ele>385.4</ele>
        <time>2025-09-10T14:27:38Z</time>
      </trkpt>
      <trkpt lat="45.88377" lon="4.51836">
        <ele>385.4</ele>
        <time>2025-09-10T14:27:39Z</time>
      </trkpt>
      <trkpt lat="45.88382" lon="4.51842">
        <ele>385.2</ele>
        <time>2025-09-10T14:27:40Z</time>
      </trkpt>
      <trkpt lat="45.88387" lon="4.51848">
        <ele>385.2</ele>
        <time>2025-09-10T14:27:41Z</time>
      </trkpt>
      <trkpt lat="45.88391" lon="4.51853">
        <ele>385.4</ele>
        <time>2025-09-10T14:27:42Z</time>
      </trkpt>
      <trkpt lat="45.88395" lon="4.51857">
        <ele>385.4</ele>
        <time>2025-09-10T14:27:43Z</time>
      </trkpt>
      <trkpt lat="45.88399" lon="4.51863">
        <ele>385.8</ele>
        <time>2025-09-10T14:27:44Z</time>
      </trkpt>
      <trkpt lat="45.88402" lon="4.51866">
        <ele>386</ele>
        <time>2025-09-10T14:27:45Z</time>
      </trkpt>
      <trkpt lat="45.88404" lon="4.5187">
        <ele>386.4</ele>
        <time>2025-09-10T14:27:46Z</time>
      </trkpt>
      <trkpt lat="45.88407" lon="4.51874">
        <ele>386.8</ele>
        <time>2025-09-10T14:27:47Z</time>
      </trkpt>
      <trkpt lat="45.88409" lon="4.51877">
        <ele>387</ele>
        <time>2025-09-10T14:27:48Z</time>
      </trkpt>
      <trkpt lat="45.88412" lon="4.51879">
        <ele>387.6</ele>
        <time>2025-09-10T14:27:49Z</time>
      </trkpt>
      <trkpt lat="45.88413" lon="4.51881">
        <ele>388</ele>
        <time>2025-09-10T14:27:50Z</time>
      </trkpt>
      <trkpt lat="45.88414" lon="4.51883">
        <ele>388.2</ele>
        <time>2025-09-10T14:27:51Z</time>
      </trkpt>
      <trkpt lat="45.88415" lon="4.51885">
        <ele>388.6</ele>
        <time>2025-09-10T14:27:52Z</time>
      </trkpt>
      <trkpt lat="45.88416" lon="4.51886">
        <ele>388.8</ele>
        <time>2025-09-10T14:27:53Z</time>
      </trkpt>
      <trkpt lat="45.88417" lon="4.51888">
        <ele>389.2</ele>
        <time>2025-09-10T14:27:54Z</time>
      </trkpt>
      <trkpt lat="45.88418" lon="4.51889">
        <ele>389.2</ele>
        <time>2025-09-10T14:27:55Z</time>
      </trkpt>
      <trkpt lat="45.88419" lon="4.51891">
        <ele>389.6</ele>
        <time>2025-09-10T14:27:56Z</time>
      </trkpt>
      <trkpt lat="45.88421" lon="4.51892">
        <ele>390</ele>
        <time>2025-09-10T14:27:57Z</time>
      </trkpt>
      <trkpt lat="45.88422" lon="4.51893">
        <ele>390</ele>
        <time>2025-09-10T14:27:58Z</time>
      </trkpt>
      <trkpt lat="45.88423" lon="4.51895">
        <ele>390.2</ele>
        <time>2025-09-10T14:27:59Z</time>
      </trkpt>
      <trkpt lat="45.88424" lon="4.51896">
        <ele>390.4</ele>
        <time>2025-09-10T14:28:00Z</time>
      </trkpt>
      <trkpt lat="45.88425" lon="4.51898">
        <ele>390.4</ele>
        <time>2025-09-10T14:28:01Z</time>
      </trkpt>
      <trkpt lat="45.88426" lon="4.51899">
        <ele>390.6</ele>
        <time>2025-09-10T14:28:02Z</time>
      </trkpt>
      <trkpt lat="45.88427" lon="4.519">
        <ele>390.6</ele>
        <time>2025-09-10T14:28:03Z</time>
      </trkpt>
      <trkpt lat="45.88428" lon="4.51901">
        <ele>391</ele>
        <time>2025-09-10T14:28:04Z</time>
      </trkpt>
      <trkpt lat="45.88429" lon="4.51902">
        <ele>391.2</ele>
        <time>2025-09-10T14:28:05Z</time>
      </trkpt>
      <trkpt lat="45.8843" lon="4.51903">
        <ele>391.2</ele>
        <time>2025-09-10T14:28:06Z</time>
      </trkpt>
      <trkpt lat="45.88431" lon="4.51904">
        <ele>391.4</ele>
        <time>2025-09-10T14:28:07Z</time>
      </trkpt>
      <trkpt lat="45.88432" lon="4.51905">
        <ele>391.4</ele>
        <time>2025-09-10T14:28:08Z</time>
      </trkpt>
      <trkpt lat="45.88434" lon="4.51906">
        <ele>391.8</ele>
        <time>2025-09-10T14:28:09Z</time>
      </trkpt>
      <trkpt lat="45.88435" lon="4.51907">
        <ele>391.8</ele>
        <time>2025-09-10T14:28:10Z</time>
      </trkpt>
      <trkpt lat="45.88436" lon="4.51907">
        <ele>391.8</ele>
        <time>2025-09-10T14:28:11Z</time>
      </trkpt>
      <trkpt lat="45.88438" lon="4.51907">
        <ele>391.8</ele>
        <time>2025-09-10T14:28:12Z</time>
      </trkpt>
      <trkpt lat="45.88439" lon="4.51908">
        <ele>392</ele>
        <time>2025-09-10T14:28:13Z</time>
      </trkpt>
      <trkpt lat="45.88441" lon="4.51908">
        <ele>392</ele>
        <time>2025-09-10T14:28:14Z</time>
      </trkpt>
      <trkpt lat="45.88442" lon="4.51909">
        <ele>392</ele>
        <time>2025-09-10T14:28:15Z</time>
      </trkpt>
      <trkpt lat="45.88443" lon="4.5191">
        <ele>392.2</ele>
        <time>2025-09-10T14:28:16Z</time>
      </trkpt>
      <trkpt lat="45.88444" lon="4.51912">
        <ele>392.2</ele>
        <time>2025-09-10T14:28:17Z</time>
      </trkpt>
      <trkpt lat="45.88445" lon="4.51913">
        <ele>392.2</ele>
        <time>2025-09-10T14:28:18Z</time>
      </trkpt>
      <trkpt lat="45.88447" lon="4.51915">
        <ele>392.2</ele>
        <time>2025-09-10T14:28:19Z</time>
      </trkpt>
      <trkpt lat="45.88448" lon="4.51916">
        <ele>392.4</ele>
        <time>2025-09-10T14:28:20Z</time>
      </trkpt>
      <trkpt lat="45.88449" lon="4.51917">
        <ele>392.4</ele>
        <time>2025-09-10T14:28:21Z</time>
      </trkpt>
      <trkpt lat="45.8845" lon="4.51918">
        <ele>392.4</ele>
        <time>2025-09-10T14:28:22Z</time>
      </trkpt>
      <trkpt lat="45.88451" lon="4.51919">
        <ele>392.6</ele>
        <time>2025-09-10T14:28:23Z</time>
      </trkpt>
      <trkpt lat="45.88453" lon="4.5192">
        <ele>392.6</ele>
        <time>2025-09-10T14:28:24Z</time>
      </trkpt>
      <trkpt lat="45.88454" lon="4.51921">
        <ele>393</ele>
        <time>2025-09-10T14:28:25Z</time>
      </trkpt>
      <trkpt lat="45.88455" lon="4.51922">
        <ele>393</ele>
        <time>2025-09-10T14:28:26Z</time>
      </trkpt>
      <trkpt lat="45.88457" lon="4.51923">
        <ele>393</ele>
        <time>2025-09-10T14:28:27Z</time>
      </trkpt>
      <trkpt lat="45.88458" lon="4.51924">
        <ele>393</ele>
        <time>2025-09-10T14:28:28Z</time>
      </trkpt>
      <trkpt lat="45.8846" lon="4.51925">
        <ele>393</ele>
        <time>2025-09-10T14:28:29Z</time>
      </trkpt>
      <trkpt lat="45.88461" lon="4.51926">
        <ele>393.2</ele>
        <time>2025-09-10T14:28:30Z</time>
      </trkpt>
      <trkpt lat="45.88463" lon="4.51927">
        <ele>393.2</ele>
        <time>2025-09-10T14:28:31Z</time>
      </trkpt>
      <trkpt lat="45.88464" lon="4.51929">
        <ele>393.2</ele>
        <time>2025-09-10T14:28:32Z</time>
      </trkpt>
      <trkpt lat="45.88466" lon="4.5193">
        <ele>393.6</ele>
        <time>2025-09-10T14:28:33Z</time>
      </trkpt>
      <trkpt lat="45.88467" lon="4.51931">
        <ele>393.6</ele>
        <time>2025-09-10T14:28:34Z</time>
      </trkpt>
      <trkpt lat="45.88469" lon="4.51932">
        <ele>393.6</ele>
        <time>2025-09-10T14:28:35Z</time>
      </trkpt>
      <trkpt lat="45.8847" lon="4.51934">
        <ele>393.6</ele>
        <time>2025-09-10T14:28:36Z</time>
      </trkpt>
      <trkpt lat="45.88472" lon="4.51935">
        <ele>393.6</ele>
        <time>2025-09-10T14:28:37Z</time>
      </trkpt>
      <trkpt lat="45.88473" lon="4.51937">
        <ele>393.8</ele>
        <time>2025-09-10T14:28:38Z</time>
      </trkpt>
      <trkpt lat="45.88475" lon="4.51939">
        <ele>393.8</ele>
        <time>2025-09-10T14:28:39Z</time>
      </trkpt>
      <trkpt lat="45.88476" lon="4.51941">
        <ele>393.8</ele>
        <time>2025-09-10T14:28:40Z</time>
      </trkpt>
      <trkpt lat="45.88477" lon="4.51943">
        <ele>393.8</ele>
        <time>2025-09-10T14:28:41Z</time>
      </trkpt>
      <trkpt lat="45.88479" lon="4.51945">
        <ele>393.8</ele>
        <time>2025-09-10T14:28:42Z</time>
      </trkpt>
      <trkpt lat="45.8848" lon="4.51948">
        <ele>393.8</ele>
        <time>2025-09-10T14:28:43Z</time>
      </trkpt>
      <trkpt lat="45.88482" lon="4.5195">
        <ele>393.8</ele>
        <time>2025-09-10T14:28:44Z</time>
      </trkpt>
      <trkpt lat="45.88483" lon="4.51954">
        <ele>393.8</ele>
        <time>2025-09-10T14:28:45Z</time>
      </trkpt>
      <trkpt lat="45.88485" lon="4.51958">
        <ele>393.4</ele>
        <time>2025-09-10T14:28:46Z</time>
      </trkpt>
      <trkpt lat="45.88487" lon="4.51963">
        <ele>393.4</ele>
        <time>2025-09-10T14:28:47Z</time>
      </trkpt>
      <trkpt lat="45.8849" lon="4.51969">
        <ele>393.2</ele>
        <time>2025-09-10T14:28:48Z</time>
      </trkpt>
      <trkpt lat="45.88491" lon="4.51977">
        <ele>393</ele>
        <time>2025-09-10T14:28:49Z</time>
      </trkpt>
      <trkpt lat="45.88494" lon="4.51982">
        <ele>393</ele>
        <time>2025-09-10T14:28:50Z</time>
      </trkpt>
      <trkpt lat="45.88496" lon="4.51988">
        <ele>392.8</ele>
        <time>2025-09-10T14:28:51Z</time>
      </trkpt>
      <trkpt lat="45.88497" lon="4.51995">
        <ele>392.8</ele>
        <time>2025-09-10T14:28:52Z</time>
      </trkpt>
      <trkpt lat="45.88499" lon="4.52001">
        <ele>392.4</ele>
        <time>2025-09-10T14:28:53Z</time>
      </trkpt>
      <trkpt lat="45.88501" lon="4.52008">
        <ele>392.4</ele>
        <time>2025-09-10T14:28:54Z</time>
      </trkpt>
      <trkpt lat="45.88504" lon="4.52014">
        <ele>392.2</ele>
        <time>2025-09-10T14:28:55Z</time>
      </trkpt>
      <trkpt lat="45.88507" lon="4.5202">
        <ele>392.2</ele>
        <time>2025-09-10T14:28:56Z</time>
      </trkpt>
      <trkpt lat="45.88509" lon="4.52027">
        <ele>391.8</ele>
        <time>2025-09-10T14:28:57Z</time>
      </trkpt>
      <trkpt lat="45.88511" lon="4.52033">
        <ele>391.8</ele>
        <time>2025-09-10T14:28:58Z</time>
      </trkpt>
      <trkpt lat="45.88514" lon="4.52041">
        <ele>391.4</ele>
        <time>2025-09-10T14:28:59Z</time>
      </trkpt>
      <trkpt lat="45.88517" lon="4.52048">
        <ele>391.4</ele>
        <time>2025-09-10T14:29:00Z</time>
      </trkpt>
      <trkpt lat="45.88519" lon="4.52055">
        <ele>391</ele>
        <time>2025-09-10T14:29:01Z</time>
      </trkpt>
      <trkpt lat="45.88521" lon="4.52064">
        <ele>391</ele>
        <time>2025-09-10T14:29:02Z</time>
      </trkpt>
      <trkpt lat="45.8852" lon="4.52073">
        <ele>390.8</ele>
        <time>2025-09-10T14:29:03Z</time>
      </trkpt>
      <trkpt lat="45.88519" lon="4.52082">
        <ele>390.8</ele>
        <time>2025-09-10T14:29:04Z</time>
      </trkpt>
      <trkpt lat="45.88518" lon="4.52091">
        <ele>390.8</ele>
        <time>2025-09-10T14:29:05Z</time>
      </trkpt>
      <trkpt lat="45.88517" lon="4.52101">
        <ele>390.6</ele>
        <time>2025-09-10T14:29:06Z</time>
      </trkpt>
      <trkpt lat="45.88518" lon="4.5211">
        <ele>390.6</ele>
        <time>2025-09-10T14:29:07Z</time>
      </trkpt>
      <trkpt lat="45.88518" lon="4.52119">
        <ele>390.6</ele>
        <time>2025-09-10T14:29:08Z</time>
      </trkpt>
      <trkpt lat="45.88522" lon="4.52129">
        <ele>390.4</ele>
        <time>2025-09-10T14:29:09Z</time>
      </trkpt>
      <trkpt lat="45.88526" lon="4.52134">
        <ele>390.4</ele>
        <time>2025-09-10T14:29:10Z</time>
      </trkpt>
      <trkpt lat="45.88531" lon="4.5214">
        <ele>390</ele>
        <time>2025-09-10T14:29:11Z</time>
      </trkpt>
      <trkpt lat="45.88536" lon="4.52144">
        <ele>390</ele>
        <time>2025-09-10T14:29:12Z</time>
      </trkpt>
      <trkpt lat="45.88541" lon="4.52148">
        <ele>389.8</ele>
        <time>2025-09-10T14:29:13Z</time>
      </trkpt>
      <trkpt lat="45.88545" lon="4.52151">
        <ele>389.8</ele>
        <time>2025-09-10T14:29:14Z</time>
      </trkpt>
      <trkpt lat="45.88551" lon="4.52153">
        <ele>389.8</ele>
        <time>2025-09-10T14:29:15Z</time>
      </trkpt>
      <trkpt lat="45.88556" lon="4.52156">
        <ele>389.8</ele>
        <time>2025-09-10T14:29:16Z</time>
      </trkpt>
      <trkpt lat="45.88559" lon="4.5216">
        <ele>389.8</ele>
        <time>2025-09-10T14:29:17Z</time>
      </trkpt>
    </trkseg>
  </trk>
</gpx>